/* DATA DESCRIPTION:
Citation:	Vuilleumier, Laurent (2026): Other measurements at 10 m from station Payerne (2025-09) [dataset]. Federal Office of Meteorology and Climatology MeteoSwiss, Payerne, PANGAEA, https://doi.org/10.1594/PANGAEA.992982
Other version:	Vuilleumier, Laurent (2026): BSRN Station-to-archive file for station Payerne (2025-09) [dataset]. ftp://ftp.bsrn.awi.de/pay/pay0925.dat.gz
Project(s):	Baseline Surface Radiation Network (BSRN) (URI: https://bsrn.awi.de/)
Coverage:	LATITUDE: 46.812300 * LONGITUDE: 6.942200
	DATE/TIME START: 2025-09-01T00:00:00 * DATE/TIME END: 2025-09-30T23:59:00
	MINIMUM HEIGHT above ground: 10 m * MAXIMUM HEIGHT above ground: 10 m
Event(s):	PAY (Payerne) * LATITUDE: 46.812300 * LONGITUDE: 6.942200 * DATE/TIME: 1992-09-01T00:00:00 * ELEVATION: 491.0 m * LOCATION: Switzerland * METHOD/DEVICE: Monitoring station (MONS) * COMMENT: BSRN station no: 21; Surface type: cultivated; Topography type: hilly, rural; Horizon: doi:10.1594/PANGAEA.947035; Station scientist: Laurent Vuilleumier (laurent.vuilleumier@meteoswiss.ch)
Comment:	Data transmission of SW and LW upward at 10m was deficient between September 25 at ~19:00 to September 27 at ~15:00 leading to most data missing for these parameters at this time and a few data
	missing on September 29 at ~9:40 and ~12:30.
Parameter(s):	DATE/TIME (Date/Time) * GEOCODE * PI: Vuilleumier, Laurent (https://orcid.org/0000-0003-0222-2566, laurent.vuilleumier@meteoswiss.ch)
	HEIGHT above ground [m] (Height) * GEOCODE * PI: Vuilleumier, Laurent (https://orcid.org/0000-0003-0222-2566, laurent.vuilleumier@meteoswiss.ch)
	Short-wave upward (REFLEX) radiation [W/m**2] (SWU) * PI: Vuilleumier, Laurent (https://orcid.org/0000-0003-0222-2566, laurent.vuilleumier@meteoswiss.ch) * METHOD/DEVICE: Pyranometer, Kipp & Zonen, CM21, SN 041303, WRMC No. 21074
	Short-wave upward (REFLEX) radiation, standard deviation [W/m**2] (SWU std dev) * PI: Vuilleumier, Laurent (https://orcid.org/0000-0003-0222-2566, laurent.vuilleumier@meteoswiss.ch) * METHOD/DEVICE: Pyranometer, Kipp & Zonen, CM21, SN 041303, WRMC No. 21074
	Short-wave upward (REFLEX) radiation, minimum [W/m**2] (SWU min) * PI: Vuilleumier, Laurent (https://orcid.org/0000-0003-0222-2566, laurent.vuilleumier@meteoswiss.ch) * METHOD/DEVICE: Pyranometer, Kipp & Zonen, CM21, SN 041303, WRMC No. 21074
	Short-wave upward (REFLEX) radiation, maximum [W/m**2] (SWU max) * PI: Vuilleumier, Laurent (https://orcid.org/0000-0003-0222-2566, laurent.vuilleumier@meteoswiss.ch) * METHOD/DEVICE: Pyranometer, Kipp & Zonen, CM21, SN 041303, WRMC No. 21074
	Long-wave upward radiation [W/m**2] (LWU) * PI: Vuilleumier, Laurent (https://orcid.org/0000-0003-0222-2566, laurent.vuilleumier@meteoswiss.ch) * METHOD/DEVICE: Pyrgeometer, Eppley, PIR, SN 31964F3, WRMC No. 21089
	Long-wave upward radiation, standard deviation [W/m**2] (LWU std dev) * PI: Vuilleumier, Laurent (https://orcid.org/0000-0003-0222-2566, laurent.vuilleumier@meteoswiss.ch) * METHOD/DEVICE: Pyrgeometer, Eppley, PIR, SN 31964F3, WRMC No. 21089
	Long-wave upward radiation, minimum [W/m**2] (LWU min) * PI: Vuilleumier, Laurent (https://orcid.org/0000-0003-0222-2566, laurent.vuilleumier@meteoswiss.ch) * METHOD/DEVICE: Pyrgeometer, Eppley, PIR, SN 31964F3, WRMC No. 21089
	Long-wave upward radiation, maximum [W/m**2] (LWU max) * PI: Vuilleumier, Laurent (https://orcid.org/0000-0003-0222-2566, laurent.vuilleumier@meteoswiss.ch) * METHOD/DEVICE: Pyrgeometer, Eppley, PIR, SN 31964F3, WRMC No. 21089
	Temperature, air [°C] (TTT) * PI: Vuilleumier, Laurent (https://orcid.org/0000-0003-0222-2566, laurent.vuilleumier@meteoswiss.ch) * METHOD/DEVICE: Thermometer
	Humidity, relative [%] (RH) * PI: Vuilleumier, Laurent (https://orcid.org/0000-0003-0222-2566, laurent.vuilleumier@meteoswiss.ch) * METHOD/DEVICE: Hygrometer (HYGRO)
License:	Baseline Surface Radiation Network License 1.0 (BSRN-1.0) (URI: https://bsrn.awi.de/data/conditions-of-data-release/)
Status:	Curation Level: Enhanced curation (URI: https://wiki.pangaea.de/wiki/Curation_levels)
Size:	407838 data points
*/
Date/Time	Height [m]	SWU [W/m**2]	SWU std dev [W/m**2]	SWU min [W/m**2]	SWU max [W/m**2]	LWU [W/m**2]	LWU std dev [W/m**2]	LWU min [W/m**2]	LWU max [W/m**2]	TTT [°C]	RH [%]
2025-09-01T00:00	10	0	0.1	0	0	399	0.2	399	400	18.4	68.8
2025-09-01T00:01	10	0	0.1	0	0	399	0.2	399	400	18.3	69.3
2025-09-01T00:02	10	0	0.1	0	0	399	0.3	399	400	18.3	69.5
2025-09-01T00:03	10	0	0.1	0	0	399	0.2	399	400	18.3	69.2
2025-09-01T00:04	10	0	0.1	0	0	399	0.2	399	400	18.3	69.5
2025-09-01T00:05	10	0	0.1	0	0	400	0.2	399	400	18.3	69.4
2025-09-01T00:06	10	0	0.1	0	0	399	0.2	399	400	18.3	69.6
2025-09-01T00:07	10	0	0.1	0	0	400	0.2	399	400	18.3	69.3
2025-09-01T00:08	10	0	0.1	0	0	400	0.3	399	400	18.3	69.3
2025-09-01T00:09	10	0	0.1	0	0	400	0.2	399	400	18.3	69.3
2025-09-01T00:10	10	0	0.1	0	0	399	0.2	399	400	18.3	69.6
2025-09-01T00:11	10	0	0.1	0	0	399	0.2	399	400	18.3	69.6
2025-09-01T00:12	10	0	0.1	0	0	399	0.2	399	400	18.3	69.9
2025-09-01T00:13	10	0	0.1	0	0	400	0.2	399	400	18.3	70.0
2025-09-01T00:14	10	0	0.1	0	0	399	0.3	399	400	18.3	70.1
2025-09-01T00:15	10	0	0.1	0	0	399	0.2	399	400	18.3	70.3
2025-09-01T00:16	10	0	0.1	0	1	399	0.3	399	400	18.3	70.8
2025-09-01T00:17	10	0	0.1	0	0	399	0.2	399	400	18.2	71.3
2025-09-01T00:18	10	0	0.1	0	0	399	0.2	399	399	18.2	71.5
2025-09-01T00:19	10	0	0.1	0	0	399	0.2	399	400	18.2	71.6
2025-09-01T00:20	10	0	0.1	0	0	399	0.3	399	400	18.2	71.8
2025-09-01T00:21	10	0	0.1	0	0	399	0.2	399	400	18.2	71.9
2025-09-01T00:22	10	0	0.1	0	0	399	0.2	399	400	18.1	71.8
2025-09-01T00:23	10	0	0.1	0	0	399	0.2	399	399	18.2	71.5
2025-09-01T00:24	10	0	0.1	0	0	399	0.2	399	399	18.2	71.7
2025-09-01T00:25	10	0	0.1	0	0	399	0.3	398	400	18.1	71.6
2025-09-01T00:26	10	0	0.1	0	0	399	0.2	399	400	18.1	71.8
2025-09-01T00:27	10	0	0.1	0	0	399	0.3	398	400	18.1	72.2
2025-09-01T00:28	10	0	0.1	0	0	399	0.2	398	399	18.1	72.4
2025-09-01T00:29	10	0	0.1	0	0	399	0.2	399	399	18.2	69.8
2025-09-01T00:30	10	0	0.1	0	0	398	0.3	398	399	18.2	72.4
2025-09-01T00:31	10	0	0.1	0	0	399	0.2	398	399	18.1	73.3
2025-09-01T00:32	10	0	0.1	0	0	399	0.2	398	399	18.0	73.1
2025-09-01T00:33	10	0	0.1	0	0	399	0.2	398	399	18.0	72.6
2025-09-01T00:34	10	0	0.1	0	0	398	0.2	398	399	18.0	73.0
2025-09-01T00:35	10	0	0.1	0	0	398	0.3	397	399	17.9	74.0
2025-09-01T00:36	10	0	0.1	0	0	398	0.3	398	399	17.8	74.5
2025-09-01T00:37	10	0	0.1	0	0	398	0.2	398	399	17.8	72.7
2025-09-01T00:38	10	0	0.1	0	0	398	0.2	398	399	18.0	71.5
2025-09-01T00:39	10	0	0.1	0	0	398	0.2	397	399	17.9	73.3
2025-09-01T00:40	10	0	0.1	0	0	398	0.2	397	398	17.8	74.6
2025-09-01T00:41	10	0	0.1	0	0	398	0.3	397	398	17.7	74.4
2025-09-01T00:42	10	0	0.1	0	0	398	0.3	398	399	17.7	73.9
2025-09-01T00:43	10	0	0.1	0	0	398	0.2	398	399	17.8	72.5
2025-09-01T00:44	10	0	0.1	0	0	398	0.1	398	399	17.8	73.6
2025-09-01T00:45	10	0	0.1	0	0	399	0.2	398	399	17.8	73.5
2025-09-01T00:46	10	0	0.1	0	0	399	0.2	398	399	17.9	71.3
2025-09-01T00:47	10	0	0.1	0	0	398	0.3	397	399	17.9	71.9
2025-09-01T00:48	10	0	0.1	0	0	398	0.3	397	398	17.9	71.1
2025-09-01T00:49	10	0	0.1	0	0	398	0.3	397	398	18.0	71.4
2025-09-01T00:50	10	0	0.1	0	0	397	0.4	396	398	17.9	71.9
2025-09-01T00:51	10	0	0.1	0	0	397	0.3	396	397	17.9	71.6
2025-09-01T00:52	10	0	0.1	0	1	396	0.4	395	397	17.8	72.0
2025-09-01T00:53	10	0	0.0	0	0	395	0.2	395	396	17.8	72.2
2025-09-01T00:54	10	0	0.1	0	0	395	0.2	395	395	17.7	73.3
2025-09-01T00:55	10	0	0.1	0	0	395	0.2	395	396	17.6	73.3
2025-09-01T00:56	10	0	0.1	0	0	395	0.2	394	395	17.7	71.9
2025-09-01T00:57	10	0	0.1	0	0	394	0.2	394	395	17.6	73.2
2025-09-01T00:58	10	0	0.0	0	0	394	0.2	394	395	17.4	75.4
2025-09-01T00:59	10	0	0.1	0	0	394	0.3	393	394	17.3	76.0
2025-09-01T01:00	10	0	0.1	0	1	393	0.3	393	394	17.2	77.3
2025-09-01T01:01	10	0	0.1	0	0	393	0.2	393	394	17.0	78.9
2025-09-01T01:02	10	0	0.1	0	0	393	0.3	392	393	16.9	80.0
2025-09-01T01:03	10	0	0.1	0	0	393	0.3	392	393	16.9	78.9
2025-09-01T01:04	10	0	0.1	0	0	392	0.2	392	393	16.9	79.4
2025-09-01T01:05	10	0	0.1	0	0	392	0.2	392	393	16.7	81.0
2025-09-01T01:06	10	0	0.1	0	0	392	0.2	391	392	16.5	81.9
2025-09-01T01:07	10	0	0.1	0	0	391	0.3	391	392	16.5	81.8
2025-09-01T01:08	10	0	0.1	0	0	391	0.2	391	392	16.5	82.0
2025-09-01T01:09	10	0	0.1	0	1	391	0.3	391	392	16.4	82.7
2025-09-01T01:10	10	0	0.1	0	1	391	0.3	391	392	16.3	83.5
2025-09-01T01:11	10	0	0.1	0	1	391	0.3	390	392	16.3	83.8
2025-09-01T01:12	10	0	0.1	0	1	391	0.3	391	392	16.3	82.8
2025-09-01T01:13	10	0	0.1	0	1	391	0.3	390	392	16.3	83.4
2025-09-01T01:14	10	0	0.1	0	1	391	0.3	391	392	16.3	84.4
2025-09-01T01:15	10	0	0.1	0	1	391	0.2	390	392	16.3	83.8
2025-09-01T01:16	10	0	0.1	0	1	391	0.3	390	391	16.2	84.9
2025-09-01T01:17	10	0	0.1	0	1	391	0.2	390	391	16.1	85.1
2025-09-01T01:18	10	0	0.1	0	1	391	0.2	390	391	16.1	84.2
2025-09-01T01:19	10	0	0.1	0	1	391	0.2	390	391	16.1	84.3
2025-09-01T01:20	10	0	0.1	0	1	390	0.2	390	391	16.1	85.2
2025-09-01T01:21	10	0	0.1	0	1	391	0.2	390	391	16.0	85.6
2025-09-01T01:22	10	0	0.1	0	1	390	0.2	390	391	16.0	86.0
2025-09-01T01:23	10	0	0.1	0	0	390	0.2	390	391	15.9	86.8
2025-09-01T01:24	10	0	0.1	0	1	390	0.2	389	390	15.9	87.9
2025-09-01T01:25	10	0	0.0	0	0	390	0.2	389	390	15.8	88.9
2025-09-01T01:26	10	0	0.1	0	1	390	0.3	389	390	15.7	89.6
2025-09-01T01:27	10	0	0.1	0	1	389	0.2	389	390	15.7	89.9
2025-09-01T01:28	10	0	0.1	0	1	390	0.2	389	390	15.6	90.1
2025-09-01T01:29	10	0	0.1	0	1	389	0.2	389	390	15.6	89.9
2025-09-01T01:30	10	0	0.1	0	1	389	0.2	389	390	15.6	90.5
2025-09-01T01:31	10	0	0.1	0	1	389	0.2	389	390	15.5	90.3
2025-09-01T01:32	10	0	0.1	0	1	389	0.2	389	390	15.5	89.6
2025-09-01T01:33	10	0	0.1	0	0	389	0.3	388	390	15.5	89.8
2025-09-01T01:34	10	0	0.1	0	0	389	0.2	389	390	15.5	90.1
2025-09-01T01:35	10	0	0.0	0	0	389	0.2	389	390	15.5	91.0
2025-09-01T01:36	10	0	0.1	0	1	389	0.2	389	390	15.4	91.1
2025-09-01T01:37	10	0	0.1	0	0	390	0.2	389	390	15.4	90.3
2025-09-01T01:38	10	1	0.8	0	6	390	0.2	389	390	15.5	90.1
2025-09-01T01:39	10	0	0.1	0	0	390	0.3	389	390	15.5	91.2
2025-09-01T01:40	10	0	0.1	0	0	389	0.2	389	390	15.4	92.1
2025-09-01T01:41	10	0	0.1	0	1	390	0.2	389	390	15.4	92.5
2025-09-01T01:42	10	0	0.1	0	1	390	0.2	389	390	15.4	92.4
2025-09-01T01:43	10	0	0.1	0	0	390	0.2	389	390	15.4	92.3
2025-09-01T01:44	10	0	0.1	0	1	390	0.2	389	390	15.4	91.7
2025-09-01T01:45	10	0	0.1	0	1	390	0.2	389	390	15.4	91.5
2025-09-01T01:46	10	0	0.1	0	1	389	0.3	389	390	15.5	91.4
2025-09-01T01:47	10	0	0.1	0	1	390	0.2	389	390	15.5	91.3
2025-09-01T01:48	10	0	0.1	0	1	390	0.2	389	390	15.5	91.6
2025-09-01T01:49	10	0	0.1	0	1	390	0.2	389	390	15.5	91.9
2025-09-01T01:50	10	0	0.1	0	1	389	0.3	389	390	15.5	92.0
2025-09-01T01:51	10	0	0.1	0	1	389	0.2	389	390	15.4	92.7
2025-09-01T01:52	10	0	0.1	0	1	389	0.2	389	390	15.4	92.7
2025-09-01T01:53	10	0	0.2	0	1	389	0.2	389	390	15.4	93.9
2025-09-01T01:54	10	0	0.1	0	1	389	0.3	388	390	15.3	94.5
2025-09-01T01:55	10	0	0.1	0	1	389	0.3	388	390	15.3	95.0
2025-09-01T01:56	10	0	0.2	0	1	389	0.2	388	389	15.3	95.1
2025-09-01T01:57	10	0	0.1	0	1	389	0.2	388	389	15.2	95.0
2025-09-01T01:58	10	0	0.1	0	1	388	0.2	388	389	15.2	95.1
2025-09-01T01:59	10	0	0.1	0	1	389	0.3	388	389	15.2	95.2
2025-09-01T02:00	10	0	0.1	0	1	388	0.3	388	389	15.2	95.3
2025-09-01T02:01	10	0	0.2	0	1	388	0.2	388	389	15.2	95.3
2025-09-01T02:02	10	0	0.1	0	1	388	0.3	388	389	15.2	95.0
2025-09-01T02:03	10	0	0.1	0	1	388	0.2	388	389	15.1	95.0
2025-09-01T02:04	10	0	0.1	0	1	388	0.2	388	389	15.1	95.0
2025-09-01T02:05	10	0	0.1	0	1	388	0.2	388	389	15.1	94.5
2025-09-01T02:06	10	0	0.1	0	1	388	0.3	388	389	15.1	95.0
2025-09-01T02:07	10	0	0.1	0	1	388	0.2	388	389	15.1	95.3
2025-09-01T02:08	10	0	0.1	0	1	388	0.2	388	389	15.1	95.1
2025-09-01T02:09	10	0	0.1	0	1	388	0.2	388	389	15.1	95.2
2025-09-01T02:10	10	0	0.1	0	1	388	0.2	388	389	15.1	95.7
2025-09-01T02:11	10	0	0.1	0	1	388	0.2	387	389	15.1	95.5
2025-09-01T02:12	10	0	0.1	0	1	388	0.2	388	389	15.1	95.1
2025-09-01T02:13	10	0	0.1	0	1	388	0.2	388	389	15.1	95.2
2025-09-01T02:14	10	0	0.1	0	1	388	0.3	387	389	15.1	95.1
2025-09-01T02:15	10	0	0.1	0	1	388	0.2	388	389	15.1	95.2
2025-09-01T02:16	10	0	0.1	0	1	388	0.2	388	389	15.1	95.1
2025-09-01T02:17	10	0	0.1	0	0	388	0.2	388	389	15.1	94.8
2025-09-01T02:18	10	0	0.1	0	1	389	0.2	388	389	15.1	94.7
2025-09-01T02:19	10	0	0.1	0	1	388	0.2	388	389	15.1	94.9
2025-09-01T02:20	10	0	0.1	0	1	389	0.3	388	389	15.1	94.6
2025-09-01T02:21	10	0	0.1	0	1	389	0.2	388	389	15.2	94.7
2025-09-01T02:22	10	0	0.1	0	0	389	0.2	388	389	15.1	95.2
2025-09-01T02:23	10	0	0.1	0	0	389	0.2	388	389	15.1	95.0
2025-09-01T02:24	10	0	0.1	0	0	389	0.2	388	389	15.2	94.3
2025-09-01T02:25	10	0	0.1	0	1	389	0.2	388	389	15.2	94.2
2025-09-01T02:26	10	0	0.1	0	1	389	0.2	388	389	15.2	93.9
2025-09-01T02:27	10	0	0.1	0	0	389	0.2	388	389	15.2	94.3
2025-09-01T02:28	10	0	0.1	0	1	388	0.2	388	389	15.2	95.1
2025-09-01T02:29	10	0	0.1	0	0	389	0.3	388	389	15.1	95.9
2025-09-01T02:30	10	0	0.0	0	0	388	0.2	388	389	15.1	96.3
2025-09-01T02:31	10	0	0.1	0	0	388	0.3	388	389	15.1	96.5
2025-09-01T02:32	10	0	0.0	0	0	388	0.2	387	388	15.0	96.6
2025-09-01T02:33	10	0	0.1	0	1	388	0.3	387	388	15.0	96.4
2025-09-01T02:34	10	0	0.1	0	0	387	0.3	386	388	15.0	96.4
2025-09-01T02:35	10	0	0.1	0	1	387	0.2	387	388	15.0	96.3
2025-09-01T02:36	10	0	0.1	0	1	387	0.2	387	388	14.9	95.7
2025-09-01T02:37	10	0	0.1	0	0	387	0.2	387	388	15.0	95.7
2025-09-01T02:38	10	0	0.1	0	1	387	0.3	387	388	15.0	95.1
2025-09-01T02:39	10	0	0.1	0	0	387	0.2	387	388	15.0	95.2
2025-09-01T02:40	10	0	0.1	0	0	387	0.2	387	388	14.9	95.7
2025-09-01T02:41	10	0	0.1	0	1	387	0.2	387	388	14.9	96.0
2025-09-01T02:42	10	0	0.1	0	0	387	0.2	387	388	14.9	95.6
2025-09-01T02:43	10	0	0.1	0	1	387	0.2	387	388	14.9	95.6
2025-09-01T02:44	10	0	0.1	0	1	387	0.2	387	388	14.9	95.9
2025-09-01T02:45	10	0	0.1	0	0	387	0.2	387	388	14.9	96.4
2025-09-01T02:46	10	0	0.1	0	0	387	0.2	387	388	14.9	96.6
2025-09-01T02:47	10	0	0.1	0	0	387	0.2	387	388	15.0	97.0
2025-09-01T02:48	10	0	0.1	0	0	388	0.3	387	388	15.0	97.3
2025-09-01T02:49	10	0	0.1	0	0	388	0.2	388	388	15.0	97.4
2025-09-01T02:50	10	0	0.1	0	0	388	0.2	387	388	15.0	97.6
2025-09-01T02:51	10	0	0.1	0	0	388	0.3	388	389	14.9	97.2
2025-09-01T02:52	10	0	0.1	0	0	388	0.3	387	389	15.0	96.9
2025-09-01T02:53	10	0	0.1	0	0	388	0.2	388	389	15.0	96.6
2025-09-01T02:54	10	0	0.1	0	0	388	0.2	388	389	15.0	95.8
2025-09-01T02:55	10	0	0.1	0	0	388	0.2	388	388	15.0	95.5
2025-09-01T02:56	10	0	0.1	0	1	388	0.2	388	389	15.0	95.3
2025-09-01T02:57	10	0	0.1	0	0	388	0.2	388	389	15.1	94.7
2025-09-01T02:58	10	0	0.1	0	0	388	0.3	388	389	15.1	94.6
2025-09-01T02:59	10	0	0.1	0	0	388	0.2	388	388	15.1	94.5
2025-09-01T03:00	10	0	0.1	0	0	388	0.2	387	388	15.1	95.2
2025-09-01T03:01	10	0	0.1	0	0	388	0.2	388	389	15.1	96.1
2025-09-01T03:02	10	0	0.1	0	0	388	0.3	387	388	15.0	96.0
2025-09-01T03:03	10	0	0.1	0	1	388	0.3	387	388	14.9	96.0
2025-09-01T03:04	10	0	0.1	0	0	388	0.3	387	388	14.9	95.6
2025-09-01T03:05	10	0	0.1	0	1	387	0.3	387	388	14.9	95.5
2025-09-01T03:06	10	0	0.1	0	0	387	0.2	387	388	14.9	95.8
2025-09-01T03:07	10	0	0.1	0	1	387	0.2	387	388	14.8	95.8
2025-09-01T03:08	10	0	0.1	0	0	387	0.2	386	387	14.8	95.9
2025-09-01T03:09	10	0	0.1	0	0	387	0.2	387	388	14.8	96.1
2025-09-01T03:10	10	0	0.1	0	0	387	0.2	386	388	14.8	96.4
2025-09-01T03:11	10	0	0.1	0	0	387	0.2	387	388	14.8	96.4
2025-09-01T03:12	10	0	0.1	0	0	387	0.2	387	388	14.8	96.3
2025-09-01T03:13	10	0	0.1	0	0	387	0.2	387	388	14.8	96.7
2025-09-01T03:14	10	0	0.1	0	0	387	0.2	387	388	14.8	96.7
2025-09-01T03:15	10	0	0.1	0	1	387	0.2	387	388	14.8	96.5
2025-09-01T03:16	10	0	0.1	0	0	387	0.2	387	388	14.8	96.6
2025-09-01T03:17	10	0	0.1	0	0	387	0.2	387	387	14.8	96.9
2025-09-01T03:18	10	0	0.1	0	0	387	0.2	386	387	14.8	97.1
2025-09-01T03:19	10	0	0.1	0	1	387	0.2	387	387	14.7	96.9
2025-09-01T03:20	10	0	0.1	0	0	387	0.2	386	387	14.7	97.1
2025-09-01T03:21	10	0	0.1	0	0	387	0.2	386	387	14.7	97.4
2025-09-01T03:22	10	0	0.1	0	0	387	0.2	386	387	14.7	97.4
2025-09-01T03:23	10	0	0.1	0	1	387	0.2	387	387	14.7	97.3
2025-09-01T03:24	10	0	0.1	0	0	387	0.2	386	387	14.7	97.3
2025-09-01T03:25	10	0	0.1	0	0	387	0.2	386	388	14.7	97.4
2025-09-01T03:26	10	0	0.1	0	0	387	0.2	386	388	14.7	97.6
2025-09-01T03:27	10	0	0.1	0	0	387	0.2	386	387	14.6	97.4
2025-09-01T03:28	10	0	0.1	0	0	387	0.3	386	388	14.6	97.5
2025-09-01T03:29	10	0	0.1	0	0	387	0.3	386	387	14.6	97.3
2025-09-01T03:30	10	0	0.1	0	0	387	0.2	386	387	14.6	97.4
2025-09-01T03:31	10	0	0.1	0	0	387	0.2	386	387	14.7	97.3
2025-09-01T03:32	10	0	0.1	0	1	387	0.2	387	387	14.7	97.3
2025-09-01T03:33	10	0	0.1	0	0	387	0.2	386	387	14.7	97.5
2025-09-01T03:34	10	0	0.1	0	0	387	0.2	386	387	14.7	97.6
2025-09-01T03:35	10	0	0.1	0	0	387	0.2	387	387	14.7	97.8
2025-09-01T03:36	10	0	0.1	0	1	387	0.2	387	387	14.7	98.0
2025-09-01T03:37	10	0	0.1	0	0	387	0.2	387	388	14.7	97.9
2025-09-01T03:38	10	0	0.1	0	0	387	0.2	387	388	14.8	98.1
2025-09-01T03:39	10	0	0.1	0	0	387	0.3	387	388	14.8	98.2
2025-09-01T03:40	10	0	0.1	0	0	387	0.2	387	388	14.7	98.1
2025-09-01T03:41	10	0	0.1	0	0	387	0.2	387	388	14.7	98.1
2025-09-01T03:42	10	0	0.1	0	1	387	0.2	387	388	14.7	97.9
2025-09-01T03:43	10	0	0.1	0	1	387	0.2	387	388	14.7	97.8
2025-09-01T03:44	10	0	0.1	0	0	387	0.2	387	387	14.7	97.5
2025-09-01T03:45	10	0	0.1	0	0	387	0.2	386	387	14.7	97.6
2025-09-01T03:46	10	0	0.1	0	1	387	0.2	387	387	14.7	97.5
2025-09-01T03:47	10	0	0.1	0	0	387	0.2	386	387	14.7	97.4
2025-09-01T03:48	10	0	0.1	0	0	387	0.2	386	387	14.7	97.4
2025-09-01T03:49	10	0	0.1	0	0	387	0.2	386	387	14.7	97.5
2025-09-01T03:50	10	0	0.1	0	1	387	0.2	386	387	14.7	97.6
2025-09-01T03:51	10	0	0.1	0	0	387	0.2	387	388	14.7	97.6
2025-09-01T03:52	10	0	0.1	0	0	387	0.2	387	388	14.8	97.6
2025-09-01T03:53	10	0	0.1	0	0	387	0.2	387	388	14.8	97.7
2025-09-01T03:54	10	0	0.1	0	0	387	0.2	387	388	14.8	97.9
2025-09-01T03:55	10	0	0.1	0	0	387	0.3	387	388	14.7	97.7
2025-09-01T03:56	10	0	0.1	0	0	387	0.2	387	388	14.7	97.7
2025-09-01T03:57	10	0	0.1	0	0	387	0.3	387	388	14.7	97.8
2025-09-01T03:58	10	0	0.1	0	0	387	0.2	387	388	14.8	97.9
2025-09-01T03:59	10	0	0.1	0	0	387	0.2	387	388	14.8	98.0
2025-09-01T04:00	10	0	0.1	0	0	387	0.2	387	388	14.7	98.2
2025-09-01T04:01	10	0	0.1	0	0	387	0.3	387	388	14.7	98.2
2025-09-01T04:02	10	0	0.1	0	0	387	0.2	387	388	14.8	98.3
2025-09-01T04:03	10	0	0.1	0	0	387	0.2	387	388	14.7	98.4
2025-09-01T04:04	10	0	0.1	0	0	387	0.2	387	388	14.7	98.3
2025-09-01T04:05	10	0	0.1	0	0	387	0.3	386	388	14.7	98.3
2025-09-01T04:06	10	0	0.1	0	1	387	0.3	386	388	14.7	98.2
2025-09-01T04:07	10	0	0.1	0	1	387	0.2	386	387	14.7	98.3
2025-09-01T04:08	10	0	0.1	0	1	387	0.2	386	387	14.7	98.4
2025-09-01T04:09	10	0	0.1	0	1	386	0.3	386	387	14.6	98.2
2025-09-01T04:10	10	0	0.1	0	1	386	0.3	385	387	14.6	97.9
2025-09-01T04:11	10	0	0.1	0	0	386	0.2	385	386	14.6	97.8
2025-09-01T04:12	10	0	0.0	0	0	385	0.2	385	386	14.6	97.9
2025-09-01T04:13	10	0	0.0	0	0	385	0.2	385	386	14.6	97.8
2025-09-01T04:14	10	0	0.1	0	0	385	0.2	385	386	14.6	98.0
2025-09-01T04:15	10	0	0.0	0	0	385	0.2	385	386	14.6	98.0
2025-09-01T04:16	10	0	0.1	0	0	385	0.2	385	385	14.6	98.1
2025-09-01T04:17	10	0	0.0	0	0	385	0.3	385	386	14.6	97.8
2025-09-01T04:18	10	0	0.1	0	0	385	0.3	385	386	14.6	97.7
2025-09-01T04:19	10	0	0.0	0	0	385	0.2	385	386	14.6	97.9
2025-09-01T04:20	10	0	0.0	0	0	385	0.3	384	386	14.6	97.8
2025-09-01T04:21	10	0	0.1	0	0	385	0.3	384	386	14.6	98.0
2025-09-01T04:22	10	0	0.1	0	0	385	0.2	384	385	14.5	98.2
2025-09-01T04:23	10	0	0.1	0	0	385	0.2	384	385	14.5	98.3
2025-09-01T04:24	10	0	0.1	0	0	385	0.2	384	385	14.5	98.2
2025-09-01T04:25	10	0	0.0	0	0	385	0.2	384	385	14.5	98.1
2025-09-01T04:26	10	0	0.1	0	0	385	0.2	384	385	14.5	97.8
2025-09-01T04:27	10	0	0.0	0	0	385	0.3	384	385	14.5	97.5
2025-09-01T04:28	10	0	0.1	0	0	385	0.3	384	385	14.5	97.6
2025-09-01T04:29	10	0	0.1	0	0	385	0.2	384	385	14.5	97.5
2025-09-01T04:30	10	0	0.1	0	0	385	0.2	384	385	14.6	97.4
2025-09-01T04:31	10	0	0.0	0	0	385	0.2	384	385	14.6	97.6
2025-09-01T04:32	10	0	0.0	0	0	385	0.2	384	385	14.6	97.4
2025-09-01T04:33	10	0	0.1	0	0	385	0.2	385	385	14.6	97.3
2025-09-01T04:34	10	0	0.1	0	0	385	0.2	384	385	14.6	97.3
2025-09-01T04:35	10	0	0.1	0	0	385	0.2	384	385	14.6	97.2
2025-09-01T04:36	10	0	0.1	0	0	385	0.2	384	385	14.6	97.1
2025-09-01T04:37	10	0	0.1	0	0	385	0.2	385	386	14.6	97.2
2025-09-01T04:38	10	0	0.1	0	0	385	0.2	385	386	14.6	97.0
2025-09-01T04:39	10	0	0.0	0	0	385	0.2	385	386	14.7	96.6
2025-09-01T04:40	10	0	0.1	0	0	385	0.2	385	386	14.7	96.4
2025-09-01T04:41	10	0	0.1	0	0	385	0.2	385	386	14.7	96.0
2025-09-01T04:42	10	0	0.1	0	0	385	0.2	385	386	14.8	95.8
2025-09-01T04:43	10	0	0.1	0	0	385	0.2	385	386	14.8	95.8
2025-09-01T04:44	10	0	0.1	0	0	385	0.2	385	386	14.8	95.9
2025-09-01T04:45	10	0	0.1	0	0	385	0.2	385	386	14.7	96.3
2025-09-01T04:46	10	0	0.1	0	1	385	0.2	385	386	14.7	96.1
2025-09-01T04:47	10	0	0.1	0	0	386	0.2	385	386	14.7	95.8
2025-09-01T04:48	10	0	0.1	0	0	385	0.2	385	386	14.7	95.7
2025-09-01T04:49	10	0	0.1	0	0	386	0.2	385	386	14.8	96.2
2025-09-01T04:50	10	0	0.1	0	0	385	0.2	385	386	14.7	96.7
2025-09-01T04:51	10	0	0.1	0	1	385	0.2	385	386	14.6	96.7
2025-09-01T04:52	10	0	0.1	0	1	385	0.2	385	386	14.6	96.8
2025-09-01T04:53	10	0	0.1	0	1	385	0.2	385	386	14.6	97.3
2025-09-01T04:54	10	0	0.1	0	1	385	0.2	385	386	14.6	97.5
2025-09-01T04:55	10	0	0.1	0	1	385	0.2	385	386	14.5	97.8
2025-09-01T04:56	10	0	0.1	0	1	385	0.3	384	386	14.5	98.0
2025-09-01T04:57	10	1	0.1	0	1	385	0.2	385	386	14.5	98.3
2025-09-01T04:58	10	1	0.1	0	1	385	0.3	384	386	14.5	98.3
2025-09-01T04:59	10	1	0.1	0	1	385	0.2	385	385	14.5	98.3
2025-09-01T05:00	10	1	0.1	0	1	385	0.2	385	386	14.5	98.3
2025-09-01T05:01	10	1	0.1	1	1	385	0.2	385	385	14.5	98.5
2025-09-01T05:02	10	1	0.1	1	1	385	0.2	384	385	14.4	98.4
2025-09-01T05:03	10	1	0.1	0	1	385	0.2	384	386	14.4	98.4
2025-09-01T05:04	10	1	0.1	0	1	385	0.2	384	385	14.4	98.4
2025-09-01T05:05	10	1	0.1	1	1	385	0.3	384	386	14.4	98.6
2025-09-01T05:06	10	1	0.1	0	1	385	0.2	385	385	14.4	98.4
2025-09-01T05:07	10	1	0.1	0	1	385	0.3	384	386	14.4	98.2
2025-09-01T05:08	10	1	0.1	1	1	385	0.2	384	385	14.4	98.3
2025-09-01T05:09	10	1	0.1	1	1	385	0.2	384	386	14.4	98.3
2025-09-01T05:10	10	1	0.1	1	1	385	0.2	385	386	14.4	98.3
2025-09-01T05:11	10	1	0.1	1	1	385	0.2	385	386	14.4	98.3
2025-09-01T05:12	10	1	0.1	1	1	385	0.2	385	386	14.4	98.0
2025-09-01T05:13	10	1	0.1	1	1	385	0.2	384	385	14.4	97.7
2025-09-01T05:14	10	1	0.1	1	1	385	0.2	385	386	14.4	97.8
2025-09-01T05:15	10	1	0.1	1	2	385	0.2	385	386	14.4	97.8
2025-09-01T05:16	10	1	0.1	1	2	385	0.2	385	386	14.5	97.8
2025-09-01T05:17	10	2	0.1	1	2	385	0.2	385	386	14.4	97.7
2025-09-01T05:18	10	2	0.2	2	3	385	0.2	385	386	14.5	97.6
2025-09-01T05:19	10	2	0.1	2	3	385	0.2	385	386	14.5	97.8
2025-09-01T05:20	10	3	0.1	2	3	386	0.3	385	386	14.5	98.0
2025-09-01T05:21	10	3	0.1	3	3	386	0.2	385	386	14.5	98.0
2025-09-01T05:22	10	3	0.1	2	3	386	0.2	385	386	14.5	98.1
2025-09-01T05:23	10	3	0.1	3	3	386	0.2	385	386	14.5	98.1
2025-09-01T05:24	10	3	0.1	2	3	386	0.2	386	387	14.5	98.2
2025-09-01T05:25	10	2	0.1	2	3	386	0.2	385	386	14.5	97.7
2025-09-01T05:26	10	2	0.1	2	3	386	0.2	385	386	14.5	97.5
2025-09-01T05:27	10	2	0.1	2	3	386	0.3	385	387	14.6	97.8
2025-09-01T05:28	10	3	0.1	2	3	386	0.2	386	386	14.6	98.0
2025-09-01T05:29	10	3	0.2	3	3	386	0.2	385	386	14.5	97.8
2025-09-01T05:30	10	4	0.2	3	4	386	0.2	386	386	14.5	97.8
2025-09-01T05:31	10	4	0.2	4	5	386	0.2	386	387	14.5	97.8
2025-09-01T05:32	10	5	0.3	5	6	387	0.2	386	387	14.5	97.9
2025-09-01T05:33	10	6	0.3	6	7	387	0.2	386	387	14.5	97.7
2025-09-01T05:34	10	7	0.2	6	7	387	0.2	386	387	14.5	97.5
2025-09-01T05:35	10	7	0.2	7	8	387	0.2	387	387	14.5	97.8
2025-09-01T05:36	10	8	0.2	8	8	387	0.2	387	388	14.5	97.6
2025-09-01T05:37	10	8	0.1	8	8	388	0.2	387	388	14.5	97.6
2025-09-01T05:38	10	8	0.2	8	8	388	0.2	387	388	14.5	97.7
2025-09-01T05:39	10	7	0.3	7	8	388	0.2	387	388	14.5	97.5
2025-09-01T05:40	10	6	0.3	6	7	387	0.2	387	388	14.5	97.7
2025-09-01T05:41	10	6	0.2	5	6	387	0.2	387	388	14.5	97.6
2025-09-01T05:42	10	5	0.2	5	5	387	0.2	387	388	14.5	97.7
2025-09-01T05:43	10	4	0.1	4	5	387	0.2	387	387	14.5	97.8
2025-09-01T05:44	10	4	0.1	4	4	387	0.3	386	388	14.5	97.8
2025-09-01T05:45	10	4	0.1	4	4	387	0.3	386	388	14.5	97.7
2025-09-01T05:46	10	4	0.1	3	4	387	0.2	386	387	14.5	97.5
2025-09-01T05:47	10	3	0.1	3	4	387	0.2	386	387	14.5	97.6
2025-09-01T05:48	10	3	0.1	3	3	387	0.2	386	387	14.5	97.6
2025-09-01T05:49	10	3	0.1	3	4	387	0.2	386	387	14.5	97.7
2025-09-01T05:50	10	3	0.1	3	3	386	0.2	386	387	14.5	97.6
2025-09-01T05:51	10	3	0.1	3	3	387	0.2	386	387	14.5	97.7
2025-09-01T05:52	10	3	0.1	3	3	386	0.2	386	387	14.5	97.5
2025-09-01T05:53	10	3	0.1	3	3	386	0.2	386	387	14.5	97.3
2025-09-01T05:54	10	3	0.1	3	3	386	0.2	386	387	14.5	97.4
2025-09-01T05:55	10	3	0.1	3	4	386	0.2	386	387	14.5	97.4
2025-09-01T05:56	10	4	0.2	3	4	386	0.3	386	387	14.5	97.4
2025-09-01T05:57	10	4	0.1	4	4	386	0.3	386	387	14.5	97.4
2025-09-01T05:58	10	4	0.2	4	4	386	0.2	385	386	14.6	97.5
2025-09-01T05:59	10	4	0.2	4	5	386	0.2	386	387	14.6	97.6
2025-09-01T06:00	10	5	0.1	4	5	386	0.2	386	387	14.6	97.7
2025-09-01T06:01	10	5	0.1	4	5	387	0.2	386	387	14.6	97.8
2025-09-01T06:02	10	5	0.1	4	5	387	0.2	387	388	14.6	97.9
2025-09-01T06:03	10	4	0.1	4	5	387	0.3	386	387	14.6	97.8
2025-09-01T06:04	10	4	0.1	4	5	387	0.3	386	388	14.6	98.1
2025-09-01T06:05	10	4	0.1	4	5	387	0.3	386	388	14.6	98.0
2025-09-01T06:06	10	4	0.1	4	5	387	0.2	386	388	14.6	97.8
2025-09-01T06:07	10	4	0.1	4	5	387	0.2	386	387	14.6	98.0
2025-09-01T06:08	10	4	0.1	4	4	387	0.2	386	387	14.6	97.8
2025-09-01T06:09	10	4	0.1	4	4	387	0.2	386	388	14.6	97.6
2025-09-01T06:10	10	4	0.1	4	4	387	0.2	386	387	14.6	97.8
2025-09-01T06:11	10	4	0.1	3	4	387	0.2	386	387	14.6	97.8
2025-09-01T06:12	10	3	0.2	3	4	387	0.2	387	387	14.6	97.9
2025-09-01T06:13	10	3	0.2	2	3	387	0.3	386	388	14.6	98.1
2025-09-01T06:14	10	3	0.1	2	3	387	0.2	386	387	14.6	97.9
2025-09-01T06:15	10	3	0.1	2	3	387	0.3	386	387	14.6	97.9
2025-09-01T06:16	10	3	0.1	3	3	387	0.3	386	387	14.6	98.0
2025-09-01T06:17	10	3	0.2	3	4	387	0.2	386	387	14.6	98.1
2025-09-01T06:18	10	4	0.2	3	4	387	0.2	386	387	14.6	98.1
2025-09-01T06:19	10	4	0.2	4	5	387	0.2	387	388	14.6	98.2
2025-09-01T06:20	10	5	0.3	5	6	387	0.2	387	388	14.6	98.1
2025-09-01T06:21	10	6	0.2	5	6	387	0.2	387	388	14.6	97.9
2025-09-01T06:22	10	6	0.2	6	7	388	0.2	387	388	14.6	98.0
2025-09-01T06:23	10	7	0.1	6	7	387	0.2	387	388	14.6	98.0
2025-09-01T06:24	10	7	0.1	6	7	388	0.2	387	388	14.6	98.1
2025-09-01T06:25	10	7	0.1	7	7	388	0.2	387	389	14.6	98.0
2025-09-01T06:26	10	8	0.1	7	8	388	0.2	387	389	14.6	98.2
2025-09-01T06:27	10	8	0.1	7	8	388	0.2	388	389	14.6	98.1
2025-09-01T06:28	10	7	0.2	7	8	388	0.3	387	389	14.6	97.9
2025-09-01T06:29	10	6	0.3	5	7	388	0.2	388	389	14.6	98.0
2025-09-01T06:30	10	5	0.2	5	6	388	0.2	387	388	14.6	97.9
2025-09-01T06:31	10	5	0.1	4	5	388	0.2	387	388	14.7	97.9
2025-09-01T06:32	10	5	0.1	4	5	387	0.3	387	388	14.6	97.9
2025-09-01T06:33	10	5	0.1	5	5	387	0.2	387	388	14.6	97.6
2025-09-01T06:34	10	5	0.1	5	5	387	0.2	387	388	14.7	97.6
2025-09-01T06:35	10	5	0.1	5	5	387	0.2	387	388	14.7	97.8
2025-09-01T06:36	10	5	0.1	5	5	387	0.3	387	388	14.7	97.7
2025-09-01T06:37	10	5	0.1	5	5	388	0.2	387	388	14.7	97.8
2025-09-01T06:38	10	5	0.1	5	5	388	0.2	387	388	14.7	97.6
2025-09-01T06:39	10	5	0.1	5	5	388	0.2	387	388	14.7	97.5
2025-09-01T06:40	10	5	0.1	5	5	388	0.2	387	388	14.7	97.2
2025-09-01T06:41	10	5	0.1	5	6	388	0.2	387	388	14.7	97.1
2025-09-01T06:42	10	6	0.2	5	6	387	0.2	387	388	14.7	97.2
2025-09-01T06:43	10	6	0.2	6	7	388	0.2	387	388	14.7	97.3
2025-09-01T06:44	10	7	0.2	7	7	388	0.2	387	388	14.7	97.4
2025-09-01T06:45	10	7	0.2	7	8	388	0.2	388	389	14.7	97.4
2025-09-01T06:46	10	9	0.4	8	9	388	0.3	388	389	14.7	97.6
2025-09-01T06:47	10	10	0.6	9	12	389	0.3	388	389	14.7	97.6
2025-09-01T06:48	10	13	0.7	11	14	389	0.2	389	390	14.7	97.4
2025-09-01T06:49	10	15	0.7	14	16	390	0.3	389	390	14.7	97.5
2025-09-01T06:50	10	18	0.7	16	19	391	0.4	390	391	14.7	97.3
2025-09-01T06:51	10	19	0.3	19	20	392	0.4	391	392	14.8	97.3
2025-09-01T06:52	10	19	0.4	18	20	392	0.2	392	393	14.8	97.5
2025-09-01T06:53	10	18	0.2	18	18	393	0.2	392	393	14.9	97.6
2025-09-01T06:54	10	18	0.2	18	18	392	0.2	392	393	14.8	97.4
2025-09-01T06:55	10	19	0.4	18	20	392	0.2	392	393	14.8	97.3
2025-09-01T06:56	10	20	0.5	20	21	392	0.2	392	393	14.8	97.0
2025-09-01T06:57	10	22	0.5	21	23	393	0.3	392	393	14.8	97.0
2025-09-01T06:58	10	23	0.3	23	24	393	0.3	393	394	14.8	96.9
2025-09-01T06:59	10	24	0.1	24	24	394	0.2	393	394	14.8	96.7
2025-09-01T07:00	10	24	0.1	23	24	394	0.2	393	394	14.9	96.7
2025-09-01T07:01	10	23	0.2	23	24	394	0.3	393	394	14.9	96.7
2025-09-01T07:02	10	23	0.3	22	23	394	0.3	393	394	14.9	96.3
2025-09-01T07:03	10	21	0.3	21	22	394	0.2	393	394	14.9	96.2
2025-09-01T07:04	10	20	0.3	20	21	393	0.2	393	394	14.9	96.0
2025-09-01T07:05	10	19	0.2	19	20	393	0.2	393	394	14.9	96.1
2025-09-01T07:06	10	19	0.2	18	19	393	0.3	393	394	15.0	95.7
2025-09-01T07:07	10	18	0.2	18	18	393	0.2	392	393	15.0	96.0
2025-09-01T07:08	10	18	0.1	18	18	393	0.4	392	394	15.0	95.8
2025-09-01T07:09	10	17	0.1	17	18	393	0.2	392	393	15.0	94.7
2025-09-01T07:10	10	17	0.2	17	17	392	0.4	391	393	15.1	94.3
2025-09-01T07:11	10	16	0.2	16	17	392	0.2	391	392	15.1	94.0
2025-09-01T07:12	10	16	0.1	16	16	392	0.2	392	393	15.1	94.4
2025-09-01T07:13	10	16	0.2	16	16	392	0.3	391	393	15.1	94.5
2025-09-01T07:14	10	17	0.2	16	17	392	0.2	392	393	15.2	94.5
2025-09-01T07:15	10	17	0.2	17	18	392	0.2	392	393	15.2	93.7
2025-09-01T07:16	10	18	0.2	18	18	393	0.2	392	393	15.3	92.9
2025-09-01T07:17	10	18	0.2	18	19	392	0.2	392	393	15.3	92.6
2025-09-01T07:18	10	19	0.2	19	19	393	0.3	392	393	15.4	92.0
2025-09-01T07:19	10	19	0.2	19	20	393	0.2	393	394	15.4	91.4
2025-09-01T07:20	10	20	0.4	20	21	393	0.3	393	394	15.5	91.1
2025-09-01T07:21	10	22	0.4	21	22	394	0.2	393	395	15.5	91.7
2025-09-01T07:22	10	23	0.5	22	24	394	0.3	393	395	15.5	91.4
2025-09-01T07:23	10	25	0.6	24	26	395	0.3	394	396	15.6	92.3
2025-09-01T07:24	10	27	0.7	26	28	395	0.2	395	395	15.6	90.2
2025-09-01T07:25	10	29	0.7	28	30	395	0.3	395	396	15.8	88.4
2025-09-01T07:26	10	31	0.6	30	32	396	0.2	395	396	15.8	87.3
2025-09-01T07:27	10	33	0.5	32	34	395	0.3	395	396	15.9	87.0
2025-09-01T07:28	10	35	0.5	34	36	396	0.4	395	397	15.9	87.2
2025-09-01T07:29	10	38	1.6	36	41	397	0.3	396	398	15.9	87.1
2025-09-01T07:30	10	42	0.9	41	44	398	0.2	397	398	15.9	86.9
2025-09-01T07:31	10	54	10.7	44	71	399	1.1	398	402	15.9	87.2
2025-09-01T07:32	10	59	4.4	53	72	401	0.7	400	403	16.0	86.1
2025-09-01T07:33	10	52	3.0	48	59	400	0.3	400	401	16.1	85.2
2025-09-01T07:34	10	46	1.1	45	50	401	0.3	400	402	16.2	86.8
2025-09-01T07:35	10	61	11.0	47	76	403	0.8	402	405	16.2	85.5
2025-09-01T07:36	10	65	7.0	55	76	405	0.5	404	406	16.2	85.9
2025-09-01T07:37	10	63	11.4	47	76	407	0.7	405	408	16.3	86.2
2025-09-01T07:38	10	43	1.8	40	46	405	0.8	403	407	16.3	85.3
2025-09-01T07:39	10	38	1.0	37	40	403	0.9	402	405	16.4	85.7
2025-09-01T07:40	10	36	0.4	35	37	402	0.7	401	403	16.3	85.4
2025-09-01T07:41	10	35	0.3	34	35	401	0.5	400	402	16.3	84.5
2025-09-01T07:42	10	33	0.5	32	34	401	0.4	400	401	16.2	84.6
2025-09-01T07:43	10	32	0.2	32	33	400	0.3	399	401	16.2	86.0
2025-09-01T07:44	10	32	0.1	32	32	401	0.2	400	401	16.2	87.2
2025-09-01T07:45	10	32	0.3	32	33	400	0.5	400	401	16.2	88.5
2025-09-01T07:46	10	34	0.6	33	35	400	0.3	400	401	16.1	89.1
2025-09-01T07:47	10	36	0.7	35	38	401	0.3	400	401	16.2	90.0
2025-09-01T07:48	10	38	0.3	38	39	400	0.3	400	401	16.1	90.8
2025-09-01T07:49	10	39	0.1	39	39	401	0.3	400	401	16.1	88.3
2025-09-01T07:50	10	39	0.2	38	39	402	0.5	401	402	16.2	88.7
2025-09-01T07:51	10	38	0.2	38	39	402	0.3	402	403	16.2	89.2
2025-09-01T07:52	10	40	1.0	39	42	403	0.2	403	404	16.1	88.2
2025-09-01T07:53	10	45	1.6	42	48	404	0.6	403	405	16.2	87.6
2025-09-01T07:54	10	51	2.0	48	58	406	0.6	404	407	16.2	88.1
2025-09-01T07:55	10	56	5.1	47	62	408	0.5	407	409	16.3	88.4
2025-09-01T07:56	10	45	2.9	41	50	407	0.6	405	408	16.3	88.1
2025-09-01T07:57	10	40	0.9	39	41	405	0.6	404	406	16.3	88.2
2025-09-01T07:58	10	38	0.5	38	39	404	0.4	403	405	16.3	88.0
2025-09-01T07:59	10	38	0.5	38	39	404	0.2	403	404	16.3	88.3
2025-09-01T08:00	10	43	2.0	39	46	404	0.3	403	404	16.3	90.3
2025-09-01T08:01	10	46	0.6	45	47	405	0.6	404	406	16.3	91.5
2025-09-01T08:02	10	43	1.0	41	45	406	0.2	405	406	16.3	91.9
2025-09-01T08:03	10	39	1.1	38	41	406	0.4	405	407	16.3	91.7
2025-09-01T08:04	10	37	0.4	37	38	405	0.9	403	406	16.2	91.4
2025-09-01T08:05	10	37	0.1	36	37	403	0.2	402	404	16.2	91.5
2025-09-01T08:06	10	37	0.2	36	37	404	0.4	403	405	16.2	91.6
2025-09-01T08:07	10	37	0.2	37	37	404	0.2	403	405	16.3	92.0
2025-09-01T08:08	10	38	0.1	37	38	404	0.2	404	405	16.2	91.3
2025-09-01T08:09	10	38	0.1	38	38	405	0.3	404	405	16.2	90.8
2025-09-01T08:10	10	38	0.1	38	38	405	0.3	405	406	16.3	90.9
2025-09-01T08:11	10	39	0.2	38	39	406	0.4	405	407	16.3	90.1
2025-09-01T08:12	10	39	0.2	39	40	406	0.4	405	407	16.4	90.4
2025-09-01T08:13	10	40	0.2	40	40	407	0.3	406	407	16.5	89.3
2025-09-01T08:14	10	41	0.1	40	41	407	0.2	406	407	16.5	88.9
2025-09-01T08:15	10	41	0.1	41	41	407	0.5	406	408	16.5	87.8
2025-09-01T08:16	10	41	0.1	41	41	406	0.2	406	406	16.5	87.4
2025-09-01T08:17	10	41	0.1	41	41	406	0.4	405	407	16.5	87.2
2025-09-01T08:18	10	41	0.2	41	41	405	0.4	405	406	16.4	85.6
2025-09-01T08:19	10	40	0.2	40	41	406	0.5	405	407	16.5	86.8
2025-09-01T08:20	10	40	0.2	39	40	407	0.4	406	408	16.6	87.4
2025-09-01T08:21	10	38	0.5	37	39	407	0.8	406	408	16.6	86.7
2025-09-01T08:22	10	36	0.7	35	37	405	0.4	405	407	16.6	87.1
2025-09-01T08:23	10	34	0.7	33	35	405	0.4	405	406	16.6	88.4
2025-09-01T08:24	10	33	0.2	32	33	405	0.3	404	406	16.6	88.9
2025-09-01T08:25	10	33	0.4	33	34	404	0.5	403	405	16.5	88.4
2025-09-01T08:26	10	34	0.1	34	35	404	0.3	403	404	16.5	88.7
2025-09-01T08:27	10	34	0.4	33	34	405	0.2	404	405	16.5	88.9
2025-09-01T08:28	10	33	0.1	33	33	405	0.3	404	405	16.6	89.5
2025-09-01T08:29	10	34	0.5	33	35	404	0.2	404	405	16.5	89.0
2025-09-01T08:30	10	36	0.9	35	38	403	0.3	403	404	16.4	89.2
2025-09-01T08:31	10	42	2.1	38	47	404	0.6	403	405	16.4	89.0
2025-09-01T08:32	10	38	1.9	37	44	404	0.5	403	405	16.4	87.3
2025-09-01T08:33	10	38	0.3	37	39	404	0.4	403	405	16.4	88.7
2025-09-01T08:34	10	37	0.5	37	39	404	0.3	404	405	16.4	82.8
2025-09-01T08:35	10	41	1.1	38	43	405	0.6	404	406	16.4	88.7
2025-09-01T08:36	10	47	2.3	43	51	406	0.2	405	407	16.4	88.7
2025-09-01T08:37	10	49	2.3	45	54	407	0.6	406	408	16.4	88.7
2025-09-01T08:38	10	71	11.7	54	86	410	1.6	407	413	16.4	88.7
2025-09-01T08:39	10	75	9.7	64	93	412	0.6	411	414	16.4	88.7
2025-09-01T08:40	10	76	7.2	64	84	414	0.4	413	414	16.4	88.1
2025-09-01T08:41	10	57	11.8	43	74	414	1.1	411	415	16.6	88.0
2025-09-01T08:42	10	40	1.4	39	43	410	1.1	408	412	16.6	87.7
2025-09-01T08:43	10	40	0.6	39	41	409	0.2	408	409	16.6	87.9
2025-09-01T08:44	10	38	1.7	36	41	408	0.7	407	410	16.6	87.7
2025-09-01T08:45	10	33	1.1	32	36	408	0.3	407	408	16.6	87.7
2025-09-01T08:46	10	31	0.5	30	32	406	0.6	405	408	16.6	87.5
2025-09-01T08:47	10	31	0.5	31	32	406	0.4	405	407	16.6	87.6
2025-09-01T08:48	10	34	1.1	32	36	406	0.4	405	407	16.6	87.6
2025-09-01T08:49	10	38	1.6	36	41	406	0.3	405	407	16.5	86.9
2025-09-01T08:50	10	41	0.5	40	42	407	0.4	406	408	16.5	87.3
2025-09-01T08:51	10	38	1.0	36	40	408	0.2	407	408	16.6	87.6
2025-09-01T08:52	10	35	0.8	34	36	408	0.3	407	408	16.6	87.4
2025-09-01T08:53	10	34	0.1	33	34	408	0.4	407	409	16.7	87.6
2025-09-01T08:54	10	35	0.4	34	36	409	0.3	408	410	16.7	87.6
2025-09-01T08:55	10	38	1.8	35	41	409	0.2	409	410	16.8	88.4
2025-09-01T08:56	10	44	1.0	42	45	411	0.4	410	411	16.9	88.6
2025-09-01T08:57	10	42	1.2	41	44	410	0.2	410	411	16.8	88.0
2025-09-01T08:58	10	40	0.4	39	41	410	0.3	410	411	16.8	88.1
2025-09-01T08:59	10	38	2.8	33	41	409	0.6	408	410	16.7	87.6
2025-09-01T09:00	10	31	1.2	29	33	408	0.5	407	409	16.8	88.2
2025-09-01T09:01	10	27	0.7	26	29	407	0.8	405	408	16.7	87.4
2025-09-01T09:02	10	26	0.4	25	26	405	0.4	404	406	16.7	87.8
2025-09-01T09:03	10	25	0.3	24	25	404	0.5	404	405	16.6	87.2
2025-09-01T09:04	10	24	0.2	24	24	404	0.3	403	404	16.6	86.9
2025-09-01T09:05	10	23	0.3	23	24	404	0.3	403	404	16.5	87.0
2025-09-01T09:06	10	22	0.2	22	23	404	0.3	403	404	16.6	87.6
2025-09-01T09:07	10	22	0.2	21	22	403	0.2	402	403	16.6	86.8
2025-09-01T09:08	10	21	0.1	21	22	403	0.2	402	403	16.5	86.5
2025-09-01T09:09	10	21	0.1	21	21	402	0.2	402	403	16.5	86.9
2025-09-01T09:10	10	21	0.1	21	22	403	0.3	402	403	16.6	87.3
2025-09-01T09:11	10	21	0.1	21	21	403	0.4	402	404	16.6	87.3
2025-09-01T09:12	10	22	0.2	21	22	403	0.2	403	404	16.7	86.9
2025-09-01T09:13	10	22	0.3	22	23	404	0.3	403	405	16.7	87.6
2025-09-01T09:14	10	23	0.3	23	24	404	0.2	403	404	16.7	88.1
2025-09-01T09:15	10	24	0.3	24	25	404	0.2	404	405	16.7	87.7
2025-09-01T09:16	10	25	0.4	25	26	404	0.3	404	405	16.6	86.8
2025-09-01T09:17	10	27	0.3	26	27	404	0.3	403	404	16.6	87.2
2025-09-01T09:18	10	27	0.1	27	27	404	0.4	403	405	16.7	87.6
2025-09-01T09:19	10	27	0.1	27	27	405	0.2	404	405	16.7	87.0
2025-09-01T09:20	10	27	0.1	27	27	405	0.4	404	406	16.8	86.7
2025-09-01T09:21	10	27	0.1	27	27	404	0.3	403	405	16.7	85.4
2025-09-01T09:22	10	28	0.3	27	29	404	0.2	403	404	16.6	84.4
2025-09-01T09:23	10	29	0.6	29	31	404	0.4	403	405	16.6	84.7
2025-09-01T09:24	10	32	0.7	31	33	405	0.4	404	406	16.7	85.2
2025-09-01T09:25	10	34	0.7	33	35	406	0.3	405	406	16.8	86.3
2025-09-01T09:26	10	37	1.0	35	39	405	0.4	405	406	16.7	85.6
2025-09-01T09:27	10	41	1.2	39	43	405	0.5	404	406	16.6	85.6
2025-09-01T09:28	10	45	1.3	43	47	407	0.6	406	408	16.6	85.4
2025-09-01T09:29	10	50	1.7	47	53	408	0.8	407	410	16.7	85.2
2025-09-01T09:30	10	57	2.6	53	62	410	0.7	409	411	16.8	85.8
2025-09-01T09:31	10	76	8.5	62	86	413	1.9	411	416	16.8	84.8
2025-09-01T09:32	10	82	3.9	75	88	417	0.9	415	418	16.9	85.7
2025-09-01T09:33	10	71	3.5	65	75	415	1.0	414	417	16.9	84.0
2025-09-01T09:34	10	59	3.5	54	65	413	0.6	412	415	16.7	83.7
2025-09-01T09:35	10	52	0.9	51	54	411	0.7	410	413	16.7	84.2
2025-09-01T09:36	10	51	0.2	50	51	411	0.3	410	412	16.8	85.5
2025-09-01T09:37	10	50	0.4	50	51	411	0.3	411	412	16.8	85.1
2025-09-01T09:38	10	49	0.2	49	50	411	0.3	411	412	16.8	85.5
2025-09-01T09:39	10	49	0.1	49	49	411	0.5	410	411	16.8	85.2
2025-09-01T09:40	10	49	0.1	49	49	410	0.4	409	412	16.8	85.2
2025-09-01T09:41	10	49	0.4	49	50	410	0.4	409	411	16.7	84.9
2025-09-01T09:42	10	51	0.6	50	52	410	0.4	409	411	16.7	84.1
2025-09-01T09:43	10	54	1.1	52	56	410	0.4	409	411	16.6	84.2
2025-09-01T09:44	10	58	0.6	57	59	412	0.9	410	413	16.7	83.8
2025-09-01T09:45	10	60	0.4	59	60	414	0.5	413	415	16.8	83.6
2025-09-01T09:46	10	57	1.5	55	59	415	0.4	414	416	16.8	84.1
2025-09-01T09:47	10	53	0.7	52	55	414	0.6	412	415	16.9	83.7
2025-09-01T09:48	10	52	0.7	51	53	412	0.3	412	413	16.8	83.7
2025-09-01T09:49	10	49	0.6	49	51	413	0.3	412	414	17.0	84.8
2025-09-01T09:50	10	48	0.2	48	49	412	0.4	411	413	17.0	84.3
2025-09-01T09:51	10	48	0.3	47	48	411	0.3	411	412	16.9	83.4
2025-09-01T09:52	10	47	0.2	47	47	412	0.4	411	412	16.9	83.6
2025-09-01T09:53	10	46	0.1	46	47	412	0.2	411	412	16.9	83.4
2025-09-01T09:54	10	46	0.2	46	46	412	0.3	412	413	17.0	84.1
2025-09-01T09:55	10	45	0.1	45	46	412	0.3	412	413	17.0	84.2
2025-09-01T09:56	10	45	0.3	44	45	412	0.4	411	413	16.9	84.1
2025-09-01T09:57	10	43	0.4	43	44	411	0.6	410	412	16.9	83.9
2025-09-01T09:58	10	43	0.1	42	43	411	0.3	410	411	16.9	83.6
2025-09-01T09:59	10	44	0.6	43	45	411	0.3	411	412	17.0	83.9
2025-09-01T10:00	10	46	0.4	45	46	411	0.3	410	411	16.9	83.6
2025-09-01T10:01	10	46	0.1	46	46	411	0.2	410	412	16.9	82.0
2025-09-01T10:02	10	46	0.2	45	46	412	0.3	411	412	16.9	82.5
2025-09-01T10:03	10	45	0.2	45	46	412	0.5	411	413	16.9	83.8
2025-09-01T10:04	10	45	0.3	45	46	412	0.2	411	412	16.8	84.3
2025-09-01T10:05	10	47	0.7	46	48	412	0.2	411	412	16.8	84.3
2025-09-01T10:06	10	49	0.5	48	50	413	0.6	412	414	16.9	84.2
2025-09-01T10:07	10	51	0.4	50	51	414	0.4	414	415	17.0	83.7
2025-09-01T10:08	10	59	8.1	51	76	415	0.6	414	417	17.0	83.8
2025-09-01T10:09	10	65	7.3	58	93	416	0.5	415	417	17.0	84.5
2025-09-01T10:10	10	72	14.4	61	105	419	0.5	418	420	17.1	84.7
2025-09-01T10:11	10	64	3.2	58	69	418	0.6	416	419	17.1	83.4
2025-09-01T10:12	10	53	1.8	50	58	416	0.4	415	417	17.1	84.0
2025-09-01T10:13	10	51	2.6	48	57	416	0.4	416	417	17.1	83.5
2025-09-01T10:14	10	61	1.7	57	63	418	0.3	417	418	17.3	83.8
2025-09-01T10:15	10	59	2.2	55	62	418	0.3	418	419	17.3	83.0
2025-09-01T10:16	10	49	2.9	45	55	417	0.8	416	418	17.3	81.9
2025-09-01T10:17	10	44	0.5	44	46	416	0.3	416	417	17.3	82.6
2025-09-01T10:18	10	47	0.8	46	49	416	0.3	415	416	17.3	83.2
2025-09-01T10:19	10	55	5.3	49	67	416	0.9	415	418	17.4	82.9
2025-09-01T10:20	10	78	5.0	67	84	421	1.8	418	424	17.6	84.4
2025-09-01T10:21	10	88	13.4	77	122	424	1.3	422	427	17.7	83.3
2025-09-01T10:22	10	107	14.7	86	131	428	0.9	427	430	17.6	81.2
2025-09-01T10:23	10	65	8.0	57	85	424	2.6	420	428	17.7	82.0
2025-09-01T10:24	10	73	9.2	57	83	421	0.9	420	423	17.4	79.6
2025-09-01T10:25	10	62	7.7	55	81	421	1.7	419	424	17.4	80.8
2025-09-01T10:26	10	61	3.3	57	76	419	0.4	419	420	17.3	80.2
2025-09-01T10:27	10	68	7.6	59	84	419	0.4	419	420	17.3	80.0
2025-09-01T10:28	10	73	6.2	64	90	421	0.9	419	422	17.3	80.1
2025-09-01T10:29	10	60	0.8	59	63	420	0.9	419	422	17.4	80.1
2025-09-01T10:30	10	62	3.6	56	70	419	0.6	418	420	17.4	79.2
2025-09-01T10:31	10	50	2.1	48	56	418	0.8	417	420	17.4	78.3
2025-09-01T10:32	10	49	0.7	48	50	417	0.3	417	418	17.4	77.8
2025-09-01T10:33	10	57	8.2	50	79	418	1.1	417	421	17.5	78.2
2025-09-01T10:34	10	134	21.8	81	156	428	5.5	419	436	17.7	78.7
2025-09-01T10:35	10	141	4.2	137	152	436	1.0	434	438	18.0	80.0
2025-09-01T10:36	10	128	14.7	100	143	438	1.5	434	440	18.4	79.9
2025-09-01T10:37	10	66	12.0	55	99	430	3.3	425	436	18.4	78.7
2025-09-01T10:38	10	52	2.3	48	55	424	2.0	420	427	18.0	77.4
2025-09-01T10:39	10	45	1.5	42	48	419	1.3	417	422	17.6	77.8
2025-09-01T10:40	10	42	0.2	42	43	416	1.0	415	418	17.4	77.7
2025-09-01T10:41	10	42	0.3	42	43	415	0.3	415	416	17.4	77.9
2025-09-01T10:42	10	44	1.1	43	47	415	0.4	415	416	17.4	77.6
2025-09-01T10:43	10	52	3.7	47	59	417	0.7	416	418	17.4	77.3
2025-09-01T10:44	10	70	6.4	60	80	420	1.6	417	423	17.5	77.5
2025-09-01T10:45	10	85	2.0	80	87	424	1.3	421	426	17.8	78.3
2025-09-01T10:46	10	83	1.7	81	86	426	0.4	425	427	17.9	77.4
2025-09-01T10:47	10	83	0.7	82	84	425	0.4	425	426	17.7	76.9
2025-09-01T10:48	10	80	4.9	69	84	425	0.4	424	426	17.7	78.1
2025-09-01T10:49	10	67	1.3	65	69	424	0.3	423	425	17.8	79.3
2025-09-01T10:50	10	69	1.9	66	73	424	0.3	423	425	17.9	78.6
2025-09-01T10:51	10	83	3.9	74	87	426	1.5	423	428	18.1	79.4
2025-09-01T10:52	10	76	6.3	68	84	427	1.0	425	428	18.1	78.7
2025-09-01T10:53	10	70	2.1	68	77	424	1.2	422	426	18.0	77.8
2025-09-01T10:54	10	80	1.8	75	83	424	0.4	423	424	17.6	77.3
2025-09-01T10:55	10	71	1.0	70	74	424	0.4	423	424	17.5	78.1
2025-09-01T10:56	10	76	1.9	72	80	425	0.5	424	426	17.7	79.3
2025-09-01T10:57	10	91	3.1	81	95	426	0.5	425	427	17.7	77.8
2025-09-01T10:58	10	84	2.3	81	87	426	0.5	425	427	17.6	77.4
2025-09-01T10:59	10	90	5.4	82	100	426	0.6	425	427	17.6	76.6
2025-09-01T11:00	10	119	9.5	96	128	430	2.5	426	434	17.6	76.3
2025-09-01T11:01	10	84	14.8	68	123	429	2.4	426	433	17.7	75.4
2025-09-01T11:02	10	71	2.6	68	76	425	0.4	425	427	17.8	75.4
2025-09-01T11:03	10	72	6.9	66	93	425	0.5	424	426	17.9	74.8
2025-09-01T11:04	10	74	7.0	68	96	425	0.5	424	427	17.9	74.2
2025-09-01T11:05	10	94	9.4	72	109	427	1.9	424	430	17.9	75.1
2025-09-01T11:06	10	88	9.1	77	109	430	0.8	428	431	18.0	75.2
2025-09-01T11:07	10	70	2.7	66	77	427	0.5	427	429	18.0	74.7
2025-09-01T11:08	10	63	1.8	60	66	426	0.7	425	428	18.2	75.1
2025-09-01T11:09	10	59	0.5	58	60	425	0.4	424	426	18.4	74.9
2025-09-01T11:10	10	58	0.4	57	59	425	0.3	424	425	18.4	73.4
2025-09-01T11:11	10	57	0.2	57	58	424	0.3	423	425	18.3	73.7
2025-09-01T11:12	10	58	0.4	58	59	424	0.2	424	425	18.2	72.4
2025-09-01T11:13	10	60	0.4	59	61	424	0.2	424	425	18.2	71.7
2025-09-01T11:14	10	61	0.2	60	61	424	0.3	423	425	18.3	71.9
2025-09-01T11:15	10	61	0.1	61	61	424	0.5	423	425	18.3	73.0
2025-09-01T11:16	10	60	0.5	59	61	423	0.2	423	424	18.2	72.3
2025-09-01T11:17	10	58	0.8	57	59	423	0.3	422	423	18.1	72.9
2025-09-01T11:18	10	56	0.5	55	57	422	0.3	421	422	18.1	72.6
2025-09-01T11:19	10	55	0.1	54	55	421	0.2	421	422	18.2	72.2
2025-09-01T11:20	10	56	1.0	55	58	422	0.5	421	422	18.2	72.0
2025-09-01T11:21	10	62	2.5	58	67	423	0.8	422	425	18.1	72.0
2025-09-01T11:22	10	70	1.5	67	71	426	0.8	424	427	18.3	71.7
2025-09-01T11:23	10	68	2.2	64	71	427	0.1	426	427	18.3	71.2
2025-09-01T11:24	10	62	0.5	62	64	426	0.3	425	426	18.4	71.8
2025-09-01T11:25	10	64	0.9	62	65	426	0.2	425	426	18.4	70.3
2025-09-01T11:26	10	67	0.6	66	67	426	0.3	425	426	18.4	69.2
2025-09-01T11:27	10	69	1.1	67	71	426	0.2	426	427	18.4	69.5
2025-09-01T11:28	10	77	3.3	71	82	428	0.8	426	429	18.4	69.7
2025-09-01T11:29	10	83	0.6	82	84	430	0.6	429	431	18.5	69.1
2025-09-01T11:30	10	75	4.6	67	82	430	0.9	428	431	18.5	69.6
2025-09-01T11:31	10	60	3.4	55	67	427	0.8	426	429	18.5	69.8
2025-09-01T11:32	10	54	0.4	53	55	425	0.5	425	426	18.4	70.4
2025-09-01T11:33	10	54	0.4	53	55	425	0.4	424	426	18.5	70.9
2025-09-01T11:34	10	53	0.4	52	53	424	0.3	423	425	18.5	70.5
2025-09-01T11:35	10	51	0.5	50	52	424	0.3	423	424	18.5	69.2
2025-09-01T11:36	10	49	0.5	49	50	423	0.2	423	424	18.6	70.3
2025-09-01T11:37	10	48	0.5	47	49	422	0.7	421	424	18.4	71.1
2025-09-01T11:38	10	47	0.4	46	47	422	0.2	421	422	18.3	70.9
2025-09-01T11:39	10	45	0.3	45	46	421	0.3	421	422	18.3	70.6
2025-09-01T11:40	10	44	0.3	44	45	421	0.3	420	421	18.2	71.6
2025-09-01T11:41	10	44	0.2	43	44	421	0.5	420	422	18.3	72.3
2025-09-01T11:42	10	43	0.3	43	43	420	0.4	419	421	18.3	72.9
2025-09-01T11:43	10	42	0.3	42	43	419	0.3	419	420	18.2	71.8
2025-09-01T11:44	10	41	0.4	41	42	419	0.4	419	420	18.2	71.5
2025-09-01T11:45	10	40	0.4	39	41	419	0.3	418	420	18.3	71.4
2025-09-01T11:46	10	39	0.5	38	39	419	0.4	418	419	18.3	71.4
2025-09-01T11:47	10	37	0.5	36	38	419	0.3	418	420	18.3	71.9
2025-09-01T11:48	10	36	0.1	36	36	419	0.2	419	420	18.4	72.6
2025-09-01T11:49	10	37	0.7	36	39	418	0.4	418	419	18.3	72.8
2025-09-01T11:50	10	41	1.3	39	43	418	0.3	417	418	18.2	72.2
2025-09-01T11:51	10	46	1.6	43	49	417	0.5	417	418	18.1	72.8
2025-09-01T11:52	10	52	2.1	49	56	418	0.6	417	420	18.1	72.3
2025-09-01T11:53	10	62	3.5	56	68	421	1.1	419	423	18.2	72.6
2025-09-01T11:54	10	75	3.1	68	80	423	1.0	422	425	18.2	72.3
2025-09-01T11:55	10	82	0.9	80	84	426	1.2	425	429	18.3	72.6
2025-09-01T11:56	10	79	1.1	77	81	427	0.2	427	428	18.4	71.5
2025-09-01T11:57	10	77	0.6	76	77	427	0.3	426	428	18.4	71.3
2025-09-01T11:58	10	72	2.0	69	75	427	0.5	426	427	18.4	70.5
2025-09-01T11:59	10	67	0.4	67	68	426	0.3	425	426	18.3	70.5
2025-09-01T12:00	10	68	0.3	67	68	426	0.2	426	427	18.3	70.5
2025-09-01T12:01	10	67	1.3	64	68	426	0.2	426	427	18.4	70.1
2025-09-01T12:02	10	60	2.4	56	64	426	0.5	425	427	18.4	70.7
2025-09-01T12:03	10	52	2.1	48	56	425	0.9	423	426	18.6	71.0
2025-09-01T12:04	10	46	1.3	44	48	423	0.8	421	424	18.6	70.7
2025-09-01T12:05	10	43	0.2	43	44	420	0.7	419	422	18.5	68.5
2025-09-01T12:06	10	44	0.1	43	44	420	0.2	419	420	18.4	69.0
2025-09-01T12:07	10	44	0.3	44	45	420	0.2	419	420	18.4	68.3
2025-09-01T12:08	10	46	0.5	45	46	420	0.3	420	421	18.5	67.5
2025-09-01T12:09	10	47	0.7	46	49	421	0.3	420	422	18.5	67.9
2025-09-01T12:10	10	52	1.9	49	55	422	0.5	421	423	18.5	68.3
2025-09-01T12:11	10	56	1.4	54	59	423	0.4	422	424	18.6	68.8
2025-09-01T12:12	10	53	1.3	51	55	423	0.4	422	424	18.6	68.3
2025-09-01T12:13	10	49	1.2	47	51	423	0.2	422	423	18.7	68.7
2025-09-01T12:14	10	46	0.4	45	47	422	0.5	421	423	18.7	70.1
2025-09-01T12:15	10	45	0.1	45	46	421	0.2	421	422	18.6	68.4
2025-09-01T12:16	10	45	0.2	45	46	422	0.3	421	422	18.6	68.8
2025-09-01T12:17	10	47	0.6	46	48	421	0.6	420	422	18.6	69.1
2025-09-01T12:18	10	49	0.7	48	51	420	0.2	420	421	18.5	69.2
2025-09-01T12:19	10	51	0.5	51	52	422	0.5	421	422	18.5	70.0
2025-09-01T12:20	10	52	0.2	52	53	421	0.4	421	422	18.6	71.0
2025-09-01T12:21	10	53	0.2	52	53	421	0.3	420	421	18.6	68.4
2025-09-01T12:22	10	52	0.3	52	52	421	0.3	420	422	18.5	69.3
2025-09-01T12:23	10	51	0.4	50	52	421	0.2	420	421	18.5	69.3
2025-09-01T12:24	10	50	0.3	49	50	421	0.4	420	422	18.6	69.3
2025-09-01T12:25	10	49	0.2	49	49	422	0.4	421	422	18.6	70.2
2025-09-01T12:26	10	49	0.2	48	49	421	0.4	420	422	18.6	67.9
2025-09-01T12:27	10	49	0.2	49	50	420	0.3	419	421	18.5	67.9
2025-09-01T12:28	10	50	0.5	49	51	420	0.5	419	421	18.5	67.5
2025-09-01T12:29	10	53	0.9	51	54	422	0.3	421	422	18.6	69.6
2025-09-01T12:30	10	57	2.2	55	62	422	0.4	421	423	18.6	69.6
2025-09-01T12:31	10	71	4.8	62	75	423	0.9	422	425	18.6	68.9
2025-09-01T12:32	10	72	1.5	69	75	425	0.2	425	426	18.6	69.6
2025-09-01T12:33	10	69	0.5	68	70	425	0.3	424	425	18.6	69.4
2025-09-01T12:34	10	65	1.8	62	69	424	0.6	423	425	18.6	69.9
2025-09-01T12:35	10	61	0.9	59	62	423	0.2	423	424	18.6	70.2
2025-09-01T12:36	10	58	0.6	58	59	422	0.4	421	423	18.6	69.4
2025-09-01T12:37	10	57	0.3	57	58	422	0.2	421	422	18.6	69.6
2025-09-01T12:38	10	56	0.1	56	57	422	0.3	421	423	18.7	70.2
2025-09-01T12:39	10	57	0.5	56	58	423	0.3	423	424	18.8	71.2
2025-09-01T12:40	10	60	1.4	58	62	423	0.7	422	425	18.8	70.3
2025-09-01T12:41	10	68	3.1	62	72	425	0.7	424	427	18.9	70.7
2025-09-01T12:42	10	72	1.5	68	74	427	0.2	427	428	18.8	68.8
2025-09-01T12:43	10	65	1.1	64	68	426	0.5	426	427	18.8	69.1
2025-09-01T12:44	10	68	2.3	65	73	427	0.3	426	427	18.9	69.2
2025-09-01T12:45	10	80	3.0	73	83	426	0.8	425	428	18.8	68.8
2025-09-01T12:46	10	82	1.3	81	85	428	0.5	427	428	18.6	68.0
2025-09-01T12:47	10	129	33.4	85	174	433	5.2	427	441	18.8	68.8
2025-09-01T12:48	10	175	14.6	157	210	446	2.7	438	448	18.9	68.5
2025-09-01T12:49	10	193	24.4	148	225	453	4.5	447	459	19.3	68.7
2025-09-01T12:50	10	164	26.2	127	214	455	3.3	449	460	19.5	68.1
2025-09-01T12:51	10	143	19.3	117	174	451	1.9	446	454	19.5	69.8
2025-09-01T12:52	10	92	6.1	88	115	440	3.2	436	449	19.2	68.4
2025-09-01T12:53	10	87	2.7	80	90	436	1.5	433	438	19.0	68.3
2025-09-01T12:54	10	76	1.7	74	80	433	1.1	431	435	19.0	68.3
2025-09-01T12:55	10	74	0.4	73	75	432	0.5	430	433	18.8	67.8
2025-09-01T12:56	10	75	0.3	74	76	432	0.3	431	432	18.9	68.4
2025-09-01T12:57	10	78	2.0	76	82	433	0.8	431	434	19.0	69.3
2025-09-01T12:58	10	84	1.4	82	87	434	0.4	434	435	19.0	69.4
2025-09-01T12:59	10	93	2.4	88	95	435	0.7	434	437	19.0	68.4
2025-09-01T13:00	10	91	3.7	86	97	434	0.9	432	435	18.9	68.6
2025-09-01T13:01	10	85	1.4	82	87	433	0.3	432	434	19.1	69.4
2025-09-01T13:02	10	93	3.5	86	98	434	0.9	433	436	19.0	68.0
2025-09-01T13:03	10	97	1.2	94	98	437	0.9	435	438	18.9	68.3
2025-09-01T13:04	10	91	1.8	88	94	437	0.8	436	438	19.1	68.9
2025-09-01T13:05	10	85	1.3	83	88	437	0.5	436	438	19.0	68.8
2025-09-01T13:06	10	81	1.2	79	84	434	1.5	433	437	19.0	68.1
2025-09-01T13:07	10	84	1.9	80	87	435	0.7	433	436	18.9	68.8
2025-09-01T13:08	10	86	0.6	85	87	434	0.5	433	435	18.9	67.8
2025-09-01T13:09	10	83	2.0	80	86	433	0.2	432	434	18.8	66.7
2025-09-01T13:10	10	76	1.9	73	80	432	0.7	431	434	18.9	68.2
2025-09-01T13:11	10	69	2.8	64	73	433	0.2	433	433	19.1	67.4
2025-09-01T13:12	10	59	2.5	55	64	432	0.7	431	433	19.1	67.6
2025-09-01T13:13	10	53	1.1	51	55	431	0.4	430	431	19.3	68.5
2025-09-01T13:14	10	50	0.6	49	51	430	0.7	429	431	19.2	69.8
2025-09-01T13:15	10	50	0.2	49	50	428	0.6	427	429	19.1	70.3
2025-09-01T13:16	10	50	0.1	50	51	427	0.4	426	427	19.0	70.4
2025-09-01T13:17	10	51	0.1	50	51	425	0.3	424	426	18.9	70.1
2025-09-01T13:18	10	50	0.5	49	51	425	0.2	424	425	18.9	70.2
2025-09-01T13:19	10	47	0.9	46	49	425	0.3	424	426	18.9	69.9
2025-09-01T13:20	10	44	0.8	43	46	425	0.6	424	426	19.0	70.9
2025-09-01T13:21	10	42	0.5	42	43	424	0.2	423	424	19.0	70.5
2025-09-01T13:22	10	41	0.2	41	42	423	0.3	423	424	19.0	71.1
2025-09-01T13:23	10	41	0.2	41	41	421	0.5	420	422	18.8	69.1
2025-09-01T13:24	10	42	0.2	41	42	421	0.4	420	421	18.8	69.4
2025-09-01T13:25	10	43	0.3	42	43	421	0.6	420	422	18.8	69.8
2025-09-01T13:26	10	44	0.3	43	44	422	0.3	421	422	18.9	68.5
2025-09-01T13:27	10	45	0.3	44	45	422	0.3	421	423	18.9	68.6
2025-09-01T13:28	10	46	0.4	45	47	423	0.5	422	424	18.9	68.8
2025-09-01T13:29	10	48	0.8	47	49	424	0.3	423	424	19.0	69.5
2025-09-01T13:30	10	51	0.8	49	52	423	0.3	422	423	18.9	71.3
2025-09-01T13:31	10	54	0.8	52	55	423	0.5	422	424	19.0	71.2
2025-09-01T13:32	10	58	1.5	55	61	424	1.1	422	426	18.8	69.9
2025-09-01T13:33	10	57	1.0	56	59	426	0.3	425	426	18.9	70.7
2025-09-01T13:34	10	57	1.7	56	62	426	0.6	425	428	19.0	70.5
2025-09-01T13:35	10	56	0.1	56	56	426	0.5	425	427	18.9	70.7
2025-09-01T13:36	10	56	0.2	56	56	425	0.4	424	426	19.0	70.8
2025-09-01T13:37	10	57	0.3	56	57	426	0.3	425	426	19.0	71.1
2025-09-01T13:38	10	58	0.3	57	58	426	0.9	424	427	19.0	70.1
2025-09-01T13:39	10	58	0.1	58	59	427	0.4	426	428	19.1	71.3
2025-09-01T13:40	10	59	0.5	59	60	427	0.5	426	428	19.2	71.7
2025-09-01T13:41	10	62	1.1	60	64	426	0.5	425	427	19.1	70.7
2025-09-01T13:42	10	68	2.5	64	73	426	0.9	425	428	19.0	71.5
2025-09-01T13:43	10	80	3.3	73	84	429	0.5	428	429	18.9	71.3
2025-09-01T13:44	10	81	2.9	78	88	429	0.5	427	429	18.9	71.5
2025-09-01T13:45	10	77	2.1	74	81	428	0.6	427	429	18.8	70.6
2025-09-01T13:46	10	76	4.1	67	82	428	0.6	426	429	18.8	71.3
2025-09-01T13:47	10	64	1.5	62	67	426	1.3	424	428	19.0	71.4
2025-09-01T13:48	10	62	0.2	62	62	425	0.5	424	425	18.9	71.5
2025-09-01T13:49	10	60	1.5	57	62	424	0.3	424	425	18.8	71.3
2025-09-01T13:50	10	57	0.6	56	58	425	0.2	424	425	19.0	72.1
2025-09-01T13:51	10	63	3.7	58	69	426	1.0	425	428	19.0	71.3
2025-09-01T13:52	10	73	2.1	69	76	428	0.6	427	429	19.1	71.4
2025-09-01T13:53	10	84	6.8	76	99	431	1.4	429	433	19.0	71.3
2025-09-01T13:54	10	90	1.3	89	95	434	0.9	432	435	19.1	72.4
2025-09-01T13:55	10	96	2.6	92	100	434	0.9	433	436	19.2	72.3
2025-09-01T13:56	10	121	9.6	101	132	438	1.4	435	440	19.3	72.7
2025-09-01T13:57	10	110	6.2	105	130	437	1.5	435	440	19.0	72.2
2025-09-01T13:58	10	145	10.4	130	167	442	3.3	437	448	19.2	73.1
2025-09-01T13:59	10	141	29.0	108	187	447	3.4	441	451	19.5	72.8
2025-09-01T14:00	10	111	14.8	96	143	440	1.3	438	442	19.3	73.0
2025-09-01T14:01	10	85	4.5	78	94	436	2.6	432	442	19.2	72.5
2025-09-01T14:02	10	84	10.6	75	112	433	1.4	431	436	18.8	73.2
2025-09-01T14:03	10	68	3.1	64	80	431	1.4	428	433	19.0	73.4
2025-09-01T14:04	10	61	1.7	58	64	427	1.1	426	429	19.1	72.2
2025-09-01T14:05	10	54	2.0	51	58	426	0.6	425	427	19.0	71.7
2025-09-01T14:06	10	47	2.1	44	51	425	0.3	424	426	19.0	71.9
2025-09-01T14:07	10	41	1.5	38	44	423	1.0	421	424	19.0	71.7
2025-09-01T14:08	10	37	0.9	36	39	420	1.2	418	422	19.0	71.9
2025-09-01T14:09	10	34	0.7	33	36	418	0.2	418	419	18.8	71.9
2025-09-01T14:10	10	33	0.4	32	33	419	0.3	418	420	19.0	72.7
2025-09-01T14:11	10	31	0.3	31	32	419	0.3	418	420	19.0	72.1
2025-09-01T14:12	10	30	0.2	30	31	418	0.4	417	419	19.0	71.1
2025-09-01T14:13	10	30	0.1	30	31	418	0.3	417	418	19.0	71.2
2025-09-01T14:14	10	30	0.1	30	30	417	0.6	416	419	18.9	70.2
2025-09-01T14:15	10	30	0.1	30	31	417	0.5	416	418	18.9	71.1
2025-09-01T14:16	10	31	0.2	30	31	419	0.4	418	419	19.0	71.1
2025-09-01T14:17	10	32	0.4	31	33	418	0.5	417	419	19.0	70.8
2025-09-01T14:18	10	33	0.6	32	34	417	0.2	417	418	19.0	70.7
2025-09-01T14:19	10	36	0.9	34	38	417	0.4	417	418	19.0	71.1
2025-09-01T14:20	10	42	2.7	38	47	418	0.6	417	420	19.0	70.1
2025-09-01T14:21	10	66	14.5	47	96	422	2.1	418	426	19.0	70.0
2025-09-01T14:22	10	112	9.4	99	126	430	2.8	424	433	19.0	69.4
2025-09-01T14:23	10	92	24.2	61	130	432	1.5	430	434	19.1	69.4
2025-09-01T14:24	10	54	3.2	50	61	426	2.6	423	431	19.1	68.8
2025-09-01T14:25	10	46	2.3	42	50	424	0.4	422	424	19.1	69.4
2025-09-01T14:26	10	39	2.3	35	42	421	0.9	419	423	19.1	69.2
2025-09-01T14:27	10	32	1.5	30	35	418	1.0	417	421	19.1	69.1
2025-09-01T14:28	10	28	1.4	25	30	417	0.9	415	418	19.0	67.2
2025-09-01T14:29	10	23	1.2	21	26	415	0.8	413	416	18.9	65.8
2025-09-01T14:30	10	19	1.0	18	21	413	0.4	413	414	18.9	66.1
2025-09-01T14:31	10	17	0.7	15	18	412	0.5	411	413	18.9	67.0
2025-09-01T14:32	10	15	0.5	14	16	412	0.3	411	412	18.9	68.4
2025-09-01T14:33	10	13	0.3	13	14	412	0.2	411	412	18.9	69.6
2025-09-01T14:34	10	12	0.3	12	13	412	0.4	411	412	18.9	69.3
2025-09-01T14:35	10	11	0.3	11	12	411	0.2	410	411	18.9	69.6
2025-09-01T14:36	10	10	0.3	9	11	410	0.2	410	411	18.9	70.2
2025-09-01T14:37	10	9	0.3	8	9	410	0.2	409	410	18.9	69.9
2025-09-01T14:38	10	8	0.4	7	9	409	0.3	409	410	18.8	69.1
2025-09-01T14:39	10	7	0.4	6	7	408	0.3	408	409	18.8	68.6
2025-09-01T14:40	10	6	0.3	5	6	407	0.2	407	408	18.7	68.2
2025-09-01T14:41	10	5	0.2	4	5	407	0.2	406	408	18.7	68.7
2025-09-01T14:42	10	4	0.2	3	4	407	0.2	406	407	18.8	68.3
2025-09-01T14:43	10	3	0.2	3	4	407	0.2	406	407	18.7	68.5
2025-09-01T14:44	10	3	0.2	2	3	407	0.3	406	407	18.7	67.9
2025-09-01T14:45	10	2	0.1	2	3	406	0.2	406	406	18.7	67.9
2025-09-01T14:46	10	2	0.1	2	2	406	0.3	405	407	18.7	67.8
2025-09-01T14:47	10	2	0.1	2	2	406	0.2	405	406	18.7	68.0
2025-09-01T14:48	10	2	0.1	2	2	405	0.2	405	406	18.7	66.3
2025-09-01T14:49	10	2	0.2	1	2	405	0.3	405	406	18.8	67.2
2025-09-01T14:50	10	1	0.1	1	1	405	0.3	405	406	18.8	66.3
2025-09-01T14:51	10	1	0.1	1	1	405	0.2	405	406	18.8	66.7
2025-09-01T14:52	10	1	0.1	1	1	405	0.2	404	405	18.8	66.8
2025-09-01T14:53	10	1	0.1	1	1	405	0.2	404	405	18.8	67.6
2025-09-01T14:54	10	1	0.1	1	1	404	0.3	404	405	18.8	67.6
2025-09-01T14:55	10	1	0.1	0	1	403	0.5	403	404	18.7	68.0
2025-09-01T14:56	10	1	0.1	0	1	402	0.6	401	403	18.7	69.3
2025-09-01T14:57	10	1	0.1	0	1	401	0.4	400	401	18.3	74.7
2025-09-01T14:58	10	0	0.1	0	1	400	0.3	399	401	18.0	77.7
2025-09-01T14:59	10	0	0.1	0	1	399	0.2	399	400	17.8	79.6
2025-09-01T15:00	10	0	0.1	0	0	399	0.2	399	400	17.6	81.3
2025-09-01T15:01	10	0	0.1	0	0	398	0.2	398	399	17.5	82.6
2025-09-01T15:02	10	0	0.1	0	0	398	0.3	397	399	17.4	83.2
2025-09-01T15:03	10	0	0.1	-1	0	397	0.2	397	398	17.1	85.7
2025-09-01T15:04	10	-1	0.1	-1	0	396	0.2	396	397	16.5	88.9
2025-09-01T15:05	10	-1	0.1	-1	-1	396	0.2	395	396	16.3	90.6
2025-09-01T15:06	10	-1	0.1	-1	-1	395	0.3	394	395	16.1	89.0
2025-09-01T15:07	10	0	0.1	-1	0	394	0.2	394	394	16.1	89.8
2025-09-01T15:08	10	0	0.1	-1	0	393	0.2	392	393	15.7	89.0
2025-09-01T15:09	10	-1	0.1	-1	0	392	0.2	392	393	15.6	89.6
2025-09-01T15:10	10	-1	0.1	-1	0	391	0.2	391	392	15.4	88.7
2025-09-01T15:11	10	-1	0.1	-1	0	391	0.4	390	392	15.4	91.6
2025-09-01T15:12	10	-1	0.1	-1	0	391	0.2	390	392	15.3	93.1
2025-09-01T15:13	10	0	0.2	-1	0	390	0.3	390	391	15.2	93.1
2025-09-01T15:14	10	0	0.2	-1	0	389	0.2	389	390	15.0	93.8
2025-09-01T15:15	10	0	0.2	0	1	389	0.2	388	389	14.9	94.2
2025-09-01T15:16	10	0	0.2	0	0	388	0.3	388	389	14.9	94.2
2025-09-01T15:17	10	0	0.1	0	1	388	0.2	387	388	14.8	94.5
2025-09-01T15:18	10	1	0.1	0	1	387	0.3	386	388	14.7	94.0
2025-09-01T15:19	10	1	0.1	1	1	387	0.4	386	388	14.7	93.6
2025-09-01T15:20	10	1	0.1	1	1	387	0.4	386	388	14.8	93.2
2025-09-01T15:21	10	1	0.1	1	1	387	0.3	387	388	14.9	93.4
2025-09-01T15:22	10	1	0.1	1	1	387	0.3	386	388	14.9	92.8
2025-09-01T15:23	10	1	0.1	1	2	387	0.3	386	387	14.9	91.6
2025-09-01T15:24	10	2	0.1	1	2	387	0.3	386	388	14.9	91.8
2025-09-01T15:25	10	2	0.1	1	2	387	0.3	387	388	14.9	91.8
2025-09-01T15:26	10	2	0.1	1	2	388	0.4	387	388	14.9	91.4
2025-09-01T15:27	10	2	0.1	2	2	388	0.4	387	388	14.9	91.1
2025-09-01T15:28	10	2	0.1	1	2	387	0.3	387	388	14.9	90.7
2025-09-01T15:29	10	2	0.1	1	2	387	0.2	387	388	14.9	90.7
2025-09-01T15:30	10	2	0.1	1	2	387	0.2	387	388	14.9	91.4
2025-09-01T15:31	10	2	0.1	1	2	387	0.2	387	388	14.9	91.1
2025-09-01T15:32	10	2	0.1	1	2	387	0.3	387	388	14.9	92.0
2025-09-01T15:33	10	1	0.1	1	2	387	0.3	386	388	14.8	93.0
2025-09-01T15:34	10	1	0.1	1	2	387	0.3	387	388	14.8	93.2
2025-09-01T15:35	10	2	0.1	2	2	387	0.2	387	388	14.8	92.9
2025-09-01T15:36	10	2	0.1	2	2	387	0.2	387	388	14.8	93.0
2025-09-01T15:37	10	2	0.1	2	2	387	0.2	386	387	14.8	92.9
2025-09-01T15:38	10	2	0.1	2	2	387	0.3	386	387	14.7	92.0
2025-09-01T15:39	10	2	0.1	2	3	387	0.2	386	387	14.7	91.4
2025-09-01T15:40	10	3	0.1	3	3	387	0.3	386	388	14.7	91.8
2025-09-01T15:41	10	3	0.1	3	3	388	0.2	387	388	14.7	92.3
2025-09-01T15:42	10	3	0.1	3	4	387	0.2	387	388	14.7	91.5
2025-09-01T15:43	10	4	0.1	4	4	387	0.2	387	388	14.7	91.2
2025-09-01T15:44	10	4	0.1	4	4	388	0.2	387	388	14.7	91.9
2025-09-01T15:45	10	4	0.1	4	4	388	0.2	387	388	14.6	92.2
2025-09-01T15:46	10	4	0.1	4	5	388	0.2	387	389	14.6	93.4
2025-09-01T15:47	10	5	0.1	4	5	388	0.2	388	389	14.6	94.6
2025-09-01T15:48	10	5	0.1	4	5	388	0.2	388	389	14.6	93.8
2025-09-01T15:49	10	5	0.1	4	5	389	0.2	388	389	14.5	93.0
2025-09-01T15:50	10	5	0.1	5	5	388	0.2	388	389	14.5	94.0
2025-09-01T15:51	10	5	0.1	5	5	389	0.2	388	389	14.5	93.1
2025-09-01T15:52	10	5	0.1	5	5	389	0.3	388	390	14.6	92.9
2025-09-01T15:53	10	5	0.2	5	5	389	0.3	388	389	14.7	93.5
2025-09-01T15:54	10	5	0.2	5	6	389	0.3	388	390	14.7	92.7
2025-09-01T15:55	10	5	0.1	5	5	389	0.3	389	390	14.7	92.5
2025-09-01T15:56	10	5	0.1	5	6	389	0.2	389	390	14.7	92.0
2025-09-01T15:57	10	5	0.2	4	5	389	0.2	389	390	14.7	92.3
2025-09-01T15:58	10	4	0.2	4	5	389	0.3	388	389	14.7	92.5
2025-09-01T15:59	10	4	0.1	4	4	388	0.2	388	389	14.7	93.3
2025-09-01T16:00	10	4	0.1	4	4	388	0.3	387	389	14.6	94.3
2025-09-01T16:01	10	4	0.1	4	4	388	0.2	387	388	14.6	94.7
2025-09-01T16:02	10	4	0.1	4	4	388	0.2	388	388	14.6	95.2
2025-09-01T16:03	10	4	0.1	4	4	388	0.2	388	388	14.6	95.0
2025-09-01T16:04	10	4	0.1	4	4	388	0.2	388	389	14.6	95.1
2025-09-01T16:05	10	4	0.1	4	4	388	0.2	388	389	14.6	95.2
2025-09-01T16:06	10	4	0.1	4	5	388	0.2	388	389	14.6	94.6
2025-09-01T16:07	10	4	0.1	4	4	388	0.2	387	389	14.6	94.8
2025-09-01T16:08	10	4	0.1	4	4	388	0.2	388	388	14.6	94.4
2025-09-01T16:09	10	4	0.1	4	4	388	0.2	388	389	14.6	94.4
2025-09-01T16:10	10	4	0.1	4	4	388	0.2	388	389	14.6	93.8
2025-09-01T16:11	10	4	0.1	3	4	388	0.2	387	388	14.6	93.6
2025-09-01T16:12	10	3	0.1	3	4	388	0.3	387	389	14.7	94.7
2025-09-01T16:13	10	3	0.1	3	3	387	0.2	387	388	14.6	94.3
2025-09-01T16:14	10	3	0.1	3	3	387	0.3	386	388	14.6	94.1
2025-09-01T16:15	10	3	0.1	2	3	387	0.2	387	388	14.6	94.1
2025-09-01T16:16	10	2	0.1	2	3	387	0.3	387	388	14.7	94.1
2025-09-01T16:17	10	2	0.1	2	2	387	0.3	386	388	14.6	93.9
2025-09-01T16:18	10	2	0.1	2	2	387	0.3	386	388	14.6	93.5
2025-09-01T16:19	10	2	0.1	2	2	387	0.2	386	387	14.7	92.5
2025-09-01T16:20	10	2	0.1	2	2	387	0.2	386	387	14.7	92.3
2025-09-01T16:21	10	2	0.1	2	2	386	0.2	386	387	14.7	92.7
2025-09-01T16:22	10	2	0.1	1	2	386	0.2	386	387	14.7	92.3
2025-09-01T16:23	10	2	0.1	1	2	386	0.2	385	386	14.7	91.3
2025-09-01T16:24	10	2	0.1	1	2	386	0.2	386	387	14.7	91.0
2025-09-01T16:25	10	1	0.1	1	2	386	0.2	385	386	14.7	91.4
2025-09-01T16:26	10	1	0.1	1	2	386	0.2	385	386	14.7	90.3
2025-09-01T16:27	10	1	0.1	1	2	386	0.2	385	386	14.8	89.7
2025-09-01T16:28	10	1	0.1	1	2	386	0.2	385	386	14.7	90.5
2025-09-01T16:29	10	1	0.1	1	2	386	0.3	385	386	14.7	89.8
2025-09-01T16:30	10	1	0.1	1	2	385	0.2	385	386	14.7	89.3
2025-09-01T16:31	10	1	0.1	1	2	385	0.2	385	386	14.7	89.0
2025-09-01T16:32	10	1	0.1	1	2	385	0.3	384	386	14.7	89.5
2025-09-01T16:33	10	1	0.1	1	1	385	0.3	384	386	14.7	90.5
2025-09-01T16:34	10	1	0.1	1	2	385	0.2	385	385	14.6	90.6
2025-09-01T16:35	10	1	0.1	1	2	385	0.2	385	386	14.6	91.0
2025-09-01T16:36	10	1	0.1	1	2	385	0.2	385	385	14.6	91.0
2025-09-01T16:37	10	1	0.1	1	2	385	0.2	384	385	14.6	91.3
2025-09-01T16:38	10	2	0.1	1	2	385	0.2	384	385	14.6	89.8
2025-09-01T16:39	10	1	0.1	1	2	385	0.2	384	385	14.6	90.3
2025-09-01T16:40	10	1	0.1	1	2	385	0.2	384	385	14.5	91.1
2025-09-01T16:41	10	1	0.1	1	2	385	0.2	384	385	14.5	91.8
2025-09-01T16:42	10	1	0.1	1	2	385	0.2	384	386	14.6	90.2
2025-09-01T16:43	10	1	0.1	1	1	385	0.2	384	385	14.6	91.2
2025-09-01T16:44	10	1	0.1	1	1	385	0.2	384	385	14.5	91.7
2025-09-01T16:45	10	1	0.1	1	2	385	0.2	385	386	14.5	91.5
2025-09-01T16:46	10	1	0.1	1	1	385	0.2	384	385	14.5	91.3
2025-09-01T16:47	10	1	0.1	1	1	385	0.2	385	386	14.6	91.2
2025-09-01T16:48	10	1	0.1	1	1	385	0.2	384	386	14.6	90.3
2025-09-01T16:49	10	1	0.1	1	1	385	0.3	384	386	14.7	90.1
2025-09-01T16:50	10	1	0.1	1	1	385	0.3	385	386	14.7	89.9
2025-09-01T16:51	10	1	0.1	1	1	385	0.3	385	386	14.7	89.8
2025-09-01T16:52	10	1	0.1	1	1	385	0.2	385	386	14.7	89.7
2025-09-01T16:53	10	1	0.1	1	1	385	0.3	384	386	14.7	90.4
2025-09-01T16:54	10	1	0.1	1	1	385	0.2	385	386	14.6	91.0
2025-09-01T16:55	10	1	0.1	1	1	385	0.2	385	386	14.8	90.5
2025-09-01T16:56	10	1	0.1	1	1	385	0.2	385	386	14.8	90.5
2025-09-01T16:57	10	1	0.1	1	1	386	0.3	385	386	14.8	91.2
2025-09-01T16:58	10	1	0.1	1	1	385	0.2	385	386	14.8	91.6
2025-09-01T16:59	10	1	0.1	1	1	385	0.2	385	386	14.7	92.3
2025-09-01T17:00	10	1	0.1	1	1	386	0.2	385	386	14.7	92.6
2025-09-01T17:01	10	1	0.1	1	1	386	0.2	385	386	14.7	92.3
2025-09-01T17:02	10	1	0.1	1	1	385	0.2	385	386	14.7	92.8
2025-09-01T17:03	10	1	0.1	1	2	385	0.2	385	386	14.6	93.1
2025-09-01T17:04	10	1	0.1	1	1	385	0.2	385	386	14.6	93.6
2025-09-01T17:05	10	1	0.1	1	2	386	0.2	385	386	14.6	93.9
2025-09-01T17:06	10	1	0.1	1	1	386	0.2	385	386	14.6	93.2
2025-09-01T17:07	10	1	0.1	1	2	386	0.2	386	386	14.7	93.2
2025-09-01T17:08	10	1	0.1	1	1	386	0.2	386	387	14.7	93.2
2025-09-01T17:09	10	1	0.1	1	1	386	0.2	386	387	14.7	92.4
2025-09-01T17:10	10	1	0.1	1	1	386	0.2	386	387	14.8	91.5
2025-09-01T17:11	10	1	0.1	1	2	386	0.2	386	387	14.9	90.9
2025-09-01T17:12	10	1	0.1	1	2	387	0.2	386	387	14.9	90.7
2025-09-01T17:13	10	1	0.1	1	2	387	0.2	386	387	14.9	89.9
2025-09-01T17:14	10	1	0.1	1	2	386	0.2	386	387	15.0	90.0
2025-09-01T17:15	10	1	0.1	1	2	387	0.2	386	387	14.9	90.3
2025-09-01T17:16	10	2	0.1	1	2	387	0.2	386	387	15.0	89.3
2025-09-01T17:17	10	1	0.1	1	2	387	0.3	386	387	14.9	90.9
2025-09-01T17:18	10	2	0.1	1	2	387	0.2	386	387	15.0	88.9
2025-09-01T17:19	10	2	0.1	1	2	386	0.3	386	387	15.1	88.4
2025-09-01T17:20	10	2	0.1	1	2	386	0.2	386	387	15.0	89.5
2025-09-01T17:21	10	2	0.1	1	2	386	0.2	386	387	15.0	89.9
2025-09-01T17:22	10	2	0.1	2	2	386	0.3	386	387	15.0	89.3
2025-09-01T17:23	10	2	0.0	2	2	386	0.2	386	387	15.0	89.5
2025-09-01T17:24	10	2	0.1	2	2	386	0.2	386	387	14.9	90.9
2025-09-01T17:25	10	2	0.1	1	2	386	0.2	386	387	14.9	91.5
2025-09-01T17:26	10	2	0.1	1	2	387	0.2	386	387	14.8	91.4
2025-09-01T17:27	10	2	0.1	1	2	387	0.2	386	387	14.8	91.5
2025-09-01T17:28	10	1	0.1	1	2	387	0.2	386	387	14.8	91.5
2025-09-01T17:29	10	1	0.1	1	2	387	0.2	386	387	14.9	91.5
2025-09-01T17:30	10	1	0.1	1	2	387	0.2	386	387	14.8	91.8
2025-09-01T17:31	10	1	0.0	1	1	387	0.3	386	387	14.9	91.7
2025-09-01T17:32	10	1	0.1	1	1	387	0.2	386	387	14.9	91.5
2025-09-01T17:33	10	1	0.1	1	1	387	0.2	386	387	14.9	91.8
2025-09-01T17:34	10	1	0.1	1	1	387	0.2	386	387	14.9	91.1
2025-09-01T17:35	10	1	0.1	1	1	387	0.2	386	387	14.9	91.8
2025-09-01T17:36	10	1	0.1	1	1	387	0.3	386	387	14.9	92.2
2025-09-01T17:37	10	1	0.1	1	1	386	0.2	386	387	14.8	93.2
2025-09-01T17:38	10	1	0.1	1	1	386	0.2	386	387	14.8	94.2
2025-09-01T17:39	10	1	0.1	1	1	386	0.2	386	387	14.7	95.1
2025-09-01T17:40	10	1	0.1	0	1	386	0.2	385	386	14.6	95.3
2025-09-01T17:41	10	1	0.1	0	1	386	0.2	385	386	14.6	96.0
2025-09-01T17:42	10	0	0.1	0	1	386	0.2	385	386	14.6	96.4
2025-09-01T17:43	10	0	0.0	0	1	386	0.2	385	386	14.5	96.9
2025-09-01T17:44	10	0	0.1	0	1	385	0.2	385	386	14.4	97.3
2025-09-01T17:45	10	0	0.1	0	1	386	0.3	385	386	14.4	97.6
2025-09-01T17:46	10	0	0.1	0	1	385	0.2	385	386	14.4	97.6
2025-09-01T17:47	10	0	0.1	0	1	386	0.3	385	386	14.4	97.7
2025-09-01T17:48	10	0	0.1	0	1	386	0.3	385	386	14.5	97.9
2025-09-01T17:49	10	0	0.1	0	1	386	0.2	385	386	14.5	97.8
2025-09-01T17:50	10	0	0.1	0	0	386	0.2	385	386	14.3	97.3
2025-09-01T17:51	10	0	0.1	0	1	386	0.2	385	386	14.4	96.8
2025-09-01T17:52	10	0	0.1	0	0	386	0.2	385	386	14.4	96.6
2025-09-01T17:53	10	0	0.0	0	0	386	0.2	385	386	14.5	96.8
2025-09-01T17:54	10	0	0.0	0	0	386	0.2	385	386	14.5	97.0
2025-09-01T17:55	10	0	0.1	0	0	386	0.2	385	386	14.5	97.2
2025-09-01T17:56	10	0	0.1	0	0	386	0.2	385	386	14.5	97.4
2025-09-01T17:57	10	0	0.1	0	0	386	0.2	386	386	14.5	97.6
2025-09-01T17:58	10	0	0.1	0	0	386	0.1	386	386	14.5	97.8
2025-09-01T17:59	10	0	0.1	0	0	386	0.2	386	386	14.5	98.1
2025-09-01T18:00	10	0	0.1	0	1	386	0.2	386	386	14.5	98.2
2025-09-01T18:01	10	0	0.1	0	0	386	0.2	385	386	14.6	98.2
2025-09-01T18:02	10	0	0.1	0	1	386	0.2	385	386	14.5	98.2
2025-09-01T18:03	10	0	0.1	0	0	386	0.2	385	386	14.5	98.1
2025-09-01T18:04	10	0	0.1	0	1	386	0.2	386	387	14.6	98.4
2025-09-01T18:05	10	0	0.2	0	1	386	0.3	385	386	14.6	98.5
2025-09-01T18:06	10	0	0.1	0	0	385	0.3	384	386	14.5	98.7
2025-09-01T18:07	10	0	0.1	0	1	384	0.2	384	385	14.5	98.7
2025-09-01T18:08	10	0	0.2	0	1	384	0.2	383	384	14.5	98.7
2025-09-01T18:09	10	0	0.1	0	1	384	0.2	383	385	14.4	98.5
2025-09-01T18:10	10	0	0.1	0	1	384	0.2	383	384	14.4	98.6
2025-09-01T18:11	10	0	0.1	0	1	384	0.3	383	385	14.2	98.1
2025-09-01T18:12	10	0	0.1	0	1	383	0.3	383	384	14.2	96.5
2025-09-01T18:13	10	0	0.1	0	1	383	0.3	383	384	14.3	96.4
2025-09-01T18:14	10	0	0.1	0	1	383	0.2	382	383	14.3	94.7
2025-09-01T18:15	10	1	0.1	0	1	383	0.3	382	383	14.5	90.1
2025-09-01T18:16	10	1	0.1	0	1	383	0.5	381	384	14.6	90.4
2025-09-01T18:17	10	0	0.1	0	1	383	0.3	382	383	14.5	92.9
2025-09-01T18:18	10	0	0.1	0	1	383	0.2	382	384	14.4	94.7
2025-09-01T18:19	10	0	0.1	0	0	383	0.3	382	384	14.4	95.6
2025-09-01T18:20	10	0	0.1	0	0	383	0.3	382	384	14.4	95.7
2025-09-01T18:21	10	0	0.1	0	0	384	0.3	383	384	14.4	96.1
2025-09-01T18:22	10	0	0.1	0	0	384	0.3	383	384	14.5	96.4
2025-09-01T18:23	10	0	0.1	0	0	384	0.2	384	384	14.5	95.9
2025-09-01T18:24	10	0	0.1	0	1	384	0.2	384	385	14.6	93.4
2025-09-01T18:25	10	0	0.1	0	0	384	0.2	383	384	14.8	93.0
2025-09-01T18:26	10	0	0.1	0	0	384	0.3	383	385	14.6	94.6
2025-09-01T18:27	10	0	0.2	0	1	384	0.2	383	385	14.7	93.4
2025-09-01T18:28	10	0	0.1	0	0	384	0.2	383	384	14.7	92.8
2025-09-01T18:29	10	0	0.1	0	1	384	0.3	383	385	14.7	93.8
2025-09-01T18:30	10	0	0.2	0	1	384	0.3	383	384	14.7	93.3
2025-09-01T18:31	10	0	0.2	0	1	384	0.3	383	384	14.7	92.2
2025-09-01T18:32	10	0	0.2	0	1	384	0.3	383	384	14.8	90.3
2025-09-01T18:33	10	0	0.1	0	1	384	0.3	383	384	14.8	89.6
2025-09-01T18:34	10	0	0.2	0	1	383	0.3	383	384	14.8	89.2
2025-09-01T18:35	10	0	0.2	0	1	383	0.3	383	384	14.8	88.5
2025-09-01T18:36	10	0	0.2	0	1	383	0.2	383	384	14.8	89.1
2025-09-01T18:37	10	0	0.2	0	1	383	0.3	382	384	14.8	88.3
2025-09-01T18:38	10	0	0.1	0	1	383	0.3	382	384	14.8	87.6
2025-09-01T18:39	10	0	0.2	0	1	383	0.2	382	383	14.8	86.8
2025-09-01T18:40	10	1	0.1	0	1	383	0.3	382	383	14.7	87.8
2025-09-01T18:41	10	1	0.2	0	1	382	0.3	382	383	14.7	87.2
2025-09-01T18:42	10	1	0.2	0	1	382	0.2	382	383	14.7	87.0
2025-09-01T18:43	10	0	0.1	0	1	382	0.3	382	384	14.7	86.3
2025-09-01T18:44	10	0	0.2	0	1	382	0.2	382	383	14.7	87.2
2025-09-01T18:45	10	1	0.1	0	1	382	0.2	382	383	14.6	87.5
2025-09-01T18:46	10	0	0.2	0	1	382	0.3	381	383	14.5	88.6
2025-09-01T18:47	10	0	0.1	0	1	382	0.2	382	383	14.5	88.1
2025-09-01T18:48	10	0	0.1	0	1	382	0.3	382	383	14.6	87.3
2025-09-01T18:49	10	0	0.2	0	1	382	0.2	382	382	14.7	85.6
2025-09-01T18:50	10	0	0.2	0	1	382	0.3	381	382	14.7	85.2
2025-09-01T18:51	10	1	0.2	0	1	382	0.3	381	382	14.7	85.5
2025-09-01T18:52	10	0	0.1	0	1	382	0.3	381	383	14.6	86.1
2025-09-01T18:53	10	0	0.1	0	1	382	0.2	381	382	14.6	85.2
2025-09-01T18:54	10	0	0.2	0	1	382	0.3	381	383	14.6	85.8
2025-09-01T18:55	10	0	0.1	0	1	381	0.2	381	382	14.6	86.2
2025-09-01T18:56	10	0	0.2	0	1	382	0.3	381	382	14.6	85.5
2025-09-01T18:57	10	0	0.1	0	1	382	0.2	381	382	14.6	86.1
2025-09-01T18:58	10	0	0.1	0	1	382	0.2	381	382	14.6	86.1
2025-09-01T18:59	10	0	0.1	0	1	382	0.2	381	382	14.5	85.8
2025-09-01T19:00	10	0	0.1	0	1	381	0.2	381	382	14.5	86.6
2025-09-01T19:01	10	0	0.1	0	1	382	0.2	381	382	14.5	86.5
2025-09-01T19:02	10	0	0.1	0	0	381	0.2	381	382	14.5	86.6
2025-09-01T19:03	10	0	0.1	0	0	382	0.2	381	382	14.5	87.6
2025-09-01T19:04	10	0	0.1	0	0	382	0.3	381	382	14.5	87.0
2025-09-01T19:05	10	0	0.1	0	1	382	0.2	382	383	14.6	83.7
2025-09-01T19:06	10	0	0.2	0	1	382	0.3	381	382	14.8	83.0
2025-09-01T19:07	10	0	0.1	0	1	382	0.2	381	382	14.7	83.5
2025-09-01T19:08	10	0	0.2	0	1	382	0.3	381	382	14.8	82.7
2025-09-01T19:09	10	0	0.2	0	1	382	0.3	381	382	14.8	82.1
2025-09-01T19:10	10	0	0.2	0	1	382	0.2	381	382	14.8	82.4
2025-09-01T19:11	10	0	0.1	0	1	382	0.2	381	382	14.8	82.9
2025-09-01T19:12	10	0	0.1	0	1	381	0.2	381	382	14.8	83.6
2025-09-01T19:13	10	0	0.1	0	1	381	0.2	381	382	14.6	85.2
2025-09-01T19:14	10	0	0.1	0	1	381	0.2	381	382	14.6	85.4
2025-09-01T19:15	10	0	0.1	0	1	381	0.3	381	382	14.6	86.1
2025-09-01T19:16	10	0	0.1	0	0	381	0.3	380	382	14.5	86.9
2025-09-01T19:17	10	0	0.1	0	1	381	0.2	381	382	14.5	86.6
2025-09-01T19:18	10	0	0.1	0	1	382	0.2	381	382	14.5	86.2
2025-09-01T19:19	10	0	0.1	0	0	381	0.2	381	382	14.5	86.4
2025-09-01T19:20	10	0	0.1	0	1	381	0.3	380	381	14.4	87.2
2025-09-01T19:21	10	0	0.2	0	1	381	0.2	380	382	14.4	88.1
2025-09-01T19:22	10	0	0.1	0	1	381	0.2	380	381	14.4	88.7
2025-09-01T19:23	10	0	0.1	0	0	381	0.2	381	381	14.3	89.3
2025-09-01T19:24	10	0	0.1	0	0	381	0.2	380	381	14.3	90.3
2025-09-01T19:25	10	0	0.1	0	1	381	0.2	380	381	14.2	90.9
2025-09-01T19:26	10	0	0.1	0	0	381	0.3	380	382	14.2	91.6
2025-09-01T19:27	10	0	0.2	0	1	381	0.3	380	381	14.2	92.0
2025-09-01T19:28	10	0	0.1	0	0	381	0.2	381	382	14.2	92.4
2025-09-01T19:29	10	0	0.1	0	0	381	0.2	381	382	14.3	92.2
2025-09-01T19:30	10	0	0.1	0	0	381	0.3	380	382	14.3	92.4
2025-09-01T19:31	10	0	0.1	0	0	381	0.3	381	382	14.3	92.2
2025-09-01T19:32	10	0	0.1	0	1	381	0.2	380	381	14.4	91.6
2025-09-01T19:33	10	0	0.1	0	0	381	0.2	380	381	14.4	92.0
2025-09-01T19:34	10	0	0.1	0	0	381	0.2	380	381	14.3	91.7
2025-09-01T19:35	10	0	0.1	0	0	380	0.2	380	381	14.3	92.0
2025-09-01T19:36	10	0	0.1	0	0	380	0.2	380	381	14.3	92.5
2025-09-01T19:37	10	0	0.1	0	0	380	0.2	380	381	14.2	92.7
2025-09-01T19:38	10	0	0.1	0	0	380	0.2	379	380	14.2	93.0
2025-09-01T19:39	10	0	0.1	0	0	380	0.2	379	380	14.2	93.2
2025-09-01T19:40	10	0	0.1	0	0	379	0.2	379	380	14.2	93.1
2025-09-01T19:41	10	0	0.1	0	0	379	0.2	378	379	14.2	92.3
2025-09-01T19:42	10	0	0.1	0	0	379	0.3	378	379	14.2	92.8
2025-09-01T19:43	10	0	0.1	0	0	378	0.2	378	379	14.2	92.2
2025-09-01T19:44	10	0	0.1	0	0	378	0.2	378	378	14.2	92.4
2025-09-01T19:45	10	0	0.1	0	1	378	0.3	377	379	14.1	93.1
2025-09-01T19:46	10	0	0.1	0	0	377	0.2	377	378	14.1	93.6
2025-09-01T19:47	10	0	0.1	0	0	377	0.2	377	378	14.0	93.5
2025-09-01T19:48	10	0	0.1	0	0	377	0.2	377	378	14.0	93.7
2025-09-01T19:49	10	0	0.1	0	1	377	0.3	376	378	14.0	93.8
2025-09-01T19:50	10	0	0.1	0	0	377	0.2	376	377	14.0	93.6
2025-09-01T19:51	10	0	0.1	0	0	377	0.3	376	377	14.0	93.5
2025-09-01T19:52	10	0	0.1	0	0	377	0.3	376	377	14.0	93.1
2025-09-01T19:53	10	0	0.1	0	0	377	0.3	376	378	14.0	92.9
2025-09-01T19:54	10	0	0.1	0	0	378	0.2	377	378	14.0	92.2
2025-09-01T19:55	10	0	0.1	0	0	378	0.2	377	378	14.1	91.8
2025-09-01T19:56	10	0	0.1	0	0	378	0.2	377	378	14.0	92.1
2025-09-01T19:57	10	0	0.1	0	1	377	0.4	376	378	14.0	92.4
2025-09-01T19:58	10	0	0.2	0	1	377	0.2	376	377	13.9	93.0
2025-09-01T19:59	10	0	0.1	0	1	376	0.3	376	377	13.9	93.0
2025-09-01T20:00	10	0	0.1	0	0	376	0.3	376	377	13.9	93.0
2025-09-01T20:01	10	0	0.1	0	0	376	0.2	375	377	13.9	92.8
2025-09-01T20:02	10	0	0.1	0	0	376	0.2	375	376	13.9	92.7
2025-09-01T20:03	10	0	0.1	0	0	375	0.2	375	376	13.9	93.3
2025-09-01T20:04	10	0	0.1	0	0	375	0.3	375	376	13.8	93.5
2025-09-01T20:05	10	0	0.1	0	0	375	0.3	374	375	13.8	93.9
2025-09-01T20:06	10	0	0.1	0	0	374	0.2	374	375	13.8	94.0
2025-09-01T20:07	10	0	0.1	0	0	374	0.2	373	374	13.8	93.6
2025-09-01T20:08	10	0	0.1	0	0	374	0.2	373	374	13.8	93.0
2025-09-01T20:09	10	0	0.1	0	0	374	0.2	373	374	13.8	92.8
2025-09-01T20:10	10	0	0.1	0	0	374	0.2	374	374	13.8	92.7
2025-09-01T20:11	10	0	0.1	0	0	373	0.2	373	374	13.8	93.1
2025-09-01T20:12	10	0	0.0	0	0	373	0.2	373	374	13.8	93.2
2025-09-01T20:13	10	0	0.0	0	0	373	0.2	373	373	13.8	93.5
2025-09-01T20:14	10	0	0.1	0	0	373	0.4	373	374	13.7	94.9
2025-09-01T20:15	10	0	0.0	0	0	374	0.2	374	375	13.6	95.2
2025-09-01T20:16	10	0	0.1	0	0	374	0.3	374	375	13.6	94.8
2025-09-01T20:17	10	0	0.1	0	0	374	0.2	373	374	13.5	94.9
2025-09-01T20:18	10	0	0.1	0	0	374	0.3	374	375	13.5	95.5
2025-09-01T20:19	10	0	0.0	0	0	375	0.2	374	375	13.5	95.1
2025-09-01T20:20	10	0	0.1	0	0	375	0.3	374	375	13.6	94.5
2025-09-01T20:21	10	0	0.0	0	0	375	0.3	374	375	13.6	94.2
2025-09-01T20:22	10	0	0.1	0	0	375	0.3	374	376	13.6	94.3
2025-09-01T20:23	10	0	0.0	0	0	376	0.2	375	376	13.6	94.1
2025-09-01T20:24	10	0	0.0	0	0	375	0.2	375	376	13.6	94.3
2025-09-01T20:25	10	0	0.1	0	0	376	0.2	375	376	13.6	94.5
2025-09-01T20:26	10	0	0.0	0	0	376	0.2	375	376	13.6	94.6
2025-09-01T20:27	10	0	0.0	0	0	376	0.2	376	377	13.5	94.9
2025-09-01T20:28	10	0	0.0	0	0	377	0.2	376	377	13.6	94.4
2025-09-01T20:29	10	0	0.1	0	0	377	0.2	377	378	13.6	94.2
2025-09-01T20:30	10	0	0.0	0	0	377	0.2	376	378	13.6	93.9
2025-09-01T20:31	10	0	0.0	0	0	377	0.2	377	378	13.7	93.3
2025-09-01T20:32	10	0	0.1	0	0	377	0.2	377	378	13.7	93.2
2025-09-01T20:33	10	0	0.1	0	0	377	0.2	377	377	13.7	93.2
2025-09-01T20:34	10	0	0.1	0	0	377	0.2	377	378	13.7	93.2
2025-09-01T20:35	10	0	0.1	0	0	377	0.2	377	377	13.7	93.2
2025-09-01T20:36	10	0	0.1	0	0	377	0.3	377	378	13.7	93.2
2025-09-01T20:37	10	0	0.0	0	0	378	0.3	377	378	13.7	93.2
2025-09-01T20:38	10	0	0.1	0	0	378	0.2	377	378	13.7	93.2
2025-09-01T20:39	10	0	0.1	0	0	377	0.2	377	378	13.8	92.2
2025-09-01T20:40	10	0	0.1	0	0	377	0.2	377	378	13.9	90.2
2025-09-01T20:41	10	0	0.0	0	0	377	0.2	377	378	13.9	90.7
2025-09-01T20:42	10	0	0.0	0	0	377	0.3	377	378	13.9	91.5
2025-09-01T20:43	10	0	0.1	0	0	377	0.2	377	378	13.8	91.9
2025-09-01T20:44	10	0	0.1	0	0	377	0.2	376	377	13.8	91.8
2025-09-01T20:45	10	0	0.1	0	0	377	0.2	376	377	13.8	92.6
2025-09-01T20:46	10	0	0.1	0	0	377	0.2	376	377	13.8	92.5
2025-09-01T20:47	10	0	0.1	0	0	377	0.2	376	377	13.8	92.6
2025-09-01T20:48	10	0	0.1	0	0	377	0.2	376	377	13.8	92.7
2025-09-01T20:49	10	0	0.1	0	0	376	0.2	376	377	13.8	92.5
2025-09-01T20:50	10	0	0.1	0	0	377	0.2	376	377	13.8	92.6
2025-09-01T20:51	10	0	0.1	0	0	376	0.3	376	377	13.7	92.7
2025-09-01T20:52	10	0	0.1	0	0	376	0.3	376	377	13.8	92.7
2025-09-01T20:53	10	0	0.1	0	0	376	0.2	375	377	13.7	93.2
2025-09-01T20:54	10	0	0.0	0	0	376	0.2	375	376	13.6	93.6
2025-09-01T20:55	10	0	0.1	0	0	376	0.2	376	377	13.6	94.1
2025-09-01T20:56	10	0	0.1	0	0	376	0.2	376	377	13.7	92.9
2025-09-01T20:57	10	0	0.0	0	0	376	0.2	376	377	13.7	93.3
2025-09-01T20:58	10	0	0.1	0	0	376	0.2	375	377	13.7	93.2
2025-09-01T20:59	10	0	0.1	0	0	376	0.2	376	377	13.7	92.9
2025-09-01T21:00	10	0	0.1	0	0	377	0.2	376	377	13.8	92.3
2025-09-01T21:01	10	0	0.1	0	0	377	0.3	376	377	13.8	92.6
2025-09-01T21:02	10	0	0.1	0	0	377	0.2	376	377	13.8	92.7
2025-09-01T21:03	10	0	0.1	0	0	376	0.3	376	377	13.8	92.4
2025-09-01T21:04	10	0	0.0	0	0	376	0.1	376	377	13.8	92.2
2025-09-01T21:05	10	0	0.1	0	0	376	0.2	376	376	13.8	92.0
2025-09-01T21:06	10	0	0.1	0	0	376	0.3	375	376	13.8	92.0
2025-09-01T21:07	10	0	0.1	0	0	375	0.3	375	376	13.8	92.7
2025-09-01T21:08	10	0	0.1	0	0	375	0.2	375	376	13.7	93.4
2025-09-01T21:09	10	0	0.1	0	0	375	0.2	374	375	13.7	93.6
2025-09-01T21:10	10	0	0.0	0	0	375	0.3	374	376	13.8	92.2
2025-09-01T21:11	10	0	0.1	0	0	376	0.3	375	376	13.8	92.4
2025-09-01T21:12	10	0	0.1	0	0	375	0.3	374	375	13.7	93.3
2025-09-01T21:13	10	0	0.1	0	0	375	0.2	374	375	13.6	94.2
2025-09-01T21:14	10	0	0.1	0	0	375	0.3	374	375	13.5	94.7
2025-09-01T21:15	10	0	0.0	0	0	374	0.3	374	375	13.5	95.0
2025-09-01T21:16	10	0	0.1	0	0	375	0.3	374	375	13.4	95.5
2025-09-01T21:17	10	0	0.0	0	0	375	0.2	374	375	13.4	96.2
2025-09-01T21:18	10	0	0.0	0	0	375	0.2	374	375	13.4	96.9
2025-09-01T21:19	10	0	0.0	0	0	375	0.3	374	376	13.4	96.8
2025-09-01T21:20	10	0	0.1	0	0	375	0.3	374	375	13.3	97.1
2025-09-01T21:21	10	0	0.1	0	0	375	0.2	375	376	13.3	95.9
2025-09-01T21:22	10	0	0.0	0	0	375	0.3	374	376	13.6	93.6
2025-09-01T21:23	10	0	0.1	0	0	375	0.2	375	376	13.6	93.2
2025-09-01T21:24	10	0	0.0	0	0	375	0.2	375	376	13.7	92.7
2025-09-01T21:25	10	0	0.1	0	0	375	0.3	375	376	13.6	93.2
2025-09-01T21:26	10	0	0.0	0	0	375	0.2	375	376	13.6	93.0
2025-09-01T21:27	10	0	0.1	0	0	376	0.2	375	376	13.7	92.1
2025-09-01T21:28	10	0	0.1	0	0	376	0.2	376	377	13.8	91.2
2025-09-01T21:29	10	0	0.1	0	0	376	0.3	375	377	13.9	90.9
2025-09-01T21:30	10	0	0.1	0	0	376	0.3	375	377	13.9	90.5
2025-09-01T21:31	10	0	0.1	0	0	376	0.2	376	377	14.0	89.6
2025-09-01T21:32	10	0	0.1	0	0	377	0.2	376	377	14.1	88.4
2025-09-01T21:33	10	0	0.1	0	0	377	0.3	376	377	14.1	88.5
2025-09-01T21:34	10	0	0.1	0	0	377	0.2	376	377	14.1	89.1
2025-09-01T21:35	10	0	0.1	0	0	377	0.3	376	377	13.9	90.1
2025-09-01T21:36	10	0	0.1	0	0	376	0.2	376	377	13.9	90.2
2025-09-01T21:37	10	0	0.1	0	0	376	0.3	376	377	13.9	90.1
2025-09-01T21:38	10	0	0.1	0	0	376	0.3	376	377	13.9	89.8
2025-09-01T21:39	10	0	0.1	0	0	376	0.2	375	376	13.9	90.2
2025-09-01T21:40	10	0	0.1	0	0	376	0.3	375	377	13.9	90.4
2025-09-01T21:41	10	0	0.1	0	0	376	0.3	375	377	13.8	90.4
2025-09-01T21:42	10	0	0.0	0	0	375	0.3	375	376	13.8	90.2
2025-09-01T21:43	10	0	0.1	0	0	375	0.2	375	376	13.9	89.7
2025-09-01T21:44	10	0	0.1	0	0	375	0.2	375	376	13.9	89.8
2025-09-01T21:45	10	0	0.1	0	0	375	0.2	375	376	13.9	89.6
2025-09-01T21:46	10	0	0.7	0	5	375	0.3	375	376	13.9	89.6
2025-09-01T21:47	10	0	0.1	0	0	375	0.3	374	376	13.9	88.9
2025-09-01T21:48	10	0	0.1	0	0	375	0.2	374	375	13.9	89.1
2025-09-01T21:49	10	0	0.1	0	0	375	0.3	374	375	13.8	90.0
2025-09-01T21:50	10	0	0.1	0	0	374	0.3	374	375	13.7	90.8
2025-09-01T21:51	10	0	0.1	0	0	374	0.3	374	375	13.7	91.2
2025-09-01T21:52	10	0	0.0	0	0	374	0.3	374	375	13.7	91.1
2025-09-01T21:53	10	0	0.1	0	0	374	0.2	374	375	13.7	91.1
2025-09-01T21:54	10	0	0.0	0	0	374	0.2	373	374	13.6	91.3
2025-09-01T21:55	10	0	0.0	0	0	374	0.3	373	374	13.6	91.2
2025-09-01T21:56	10	0	0.1	0	0	374	0.2	373	374	13.6	91.2
2025-09-01T21:57	10	0	0.1	0	0	374	0.3	374	375	13.6	91.1
2025-09-01T21:58	10	0	0.1	0	0	374	0.2	374	374	13.6	91.3
2025-09-01T21:59	10	0	0.0	0	0	374	0.2	374	374	13.6	91.2
2025-09-01T22:00	10	0	0.0	0	0	374	0.2	373	374	13.6	91.2
2025-09-01T22:01	10	0	0.1	0	0	374	0.2	373	374	13.6	90.9
2025-09-01T22:02	10	0	0.1	0	0	374	0.3	373	374	13.6	90.9
2025-09-01T22:03	10	0	0.1	0	0	373	0.2	373	373	13.6	90.9
2025-09-01T22:04	10	0	0.1	0	0	373	0.2	372	373	13.6	90.8
2025-09-01T22:05	10	0	0.0	0	0	373	0.2	373	374	13.6	90.8
2025-09-01T22:06	10	0	0.1	0	0	373	0.2	372	373	13.6	91.1
2025-09-01T22:07	10	0	0.1	0	0	373	0.3	372	373	13.6	91.3
2025-09-01T22:08	10	0	0.1	0	0	372	0.3	372	373	13.5	91.4
2025-09-01T22:09	10	0	0.1	0	0	371	0.3	371	372	13.5	91.3
2025-09-01T22:10	10	0	0.0	0	0	371	0.2	370	371	13.5	91.6
2025-09-01T22:11	10	0	0.1	0	0	370	0.2	369	370	13.4	91.8
2025-09-01T22:12	10	0	0.1	0	0	370	0.2	369	370	13.4	91.7
2025-09-01T22:13	10	0	0.1	0	0	369	0.2	369	370	13.4	91.9
2025-09-01T22:14	10	0	0.1	0	0	369	0.2	369	370	13.4	91.7
2025-09-01T22:15	10	0	0.1	0	0	369	0.2	369	370	13.5	91.0
2025-09-01T22:16	10	0	0.1	0	0	369	0.2	368	370	13.5	91.2
2025-09-01T22:17	10	0	0.1	0	0	369	0.3	368	369	13.5	90.9
2025-09-01T22:18	10	0	0.1	0	0	368	0.2	368	369	13.4	91.2
2025-09-01T22:19	10	0	0.1	0	0	368	0.3	368	369	13.5	90.7
2025-09-01T22:20	10	0	0.1	0	0	368	0.3	367	368	13.5	90.7
2025-09-01T22:21	10	0	0.1	0	0	367	0.2	367	368	13.4	90.9
2025-09-01T22:22	10	0	0.1	0	0	367	0.2	367	368	13.4	90.9
2025-09-01T22:23	10	0	0.1	0	0	367	0.2	367	368	13.5	90.4
2025-09-01T22:24	10	0	0.1	0	0	367	0.3	366	368	13.4	90.4
2025-09-01T22:25	10	0	0.1	0	0	367	0.2	367	368	13.5	89.3
2025-09-01T22:26	10	0	0.1	0	0	367	0.3	367	368	13.6	88.8
2025-09-01T22:27	10	0	0.1	0	0	368	0.3	367	369	13.6	88.8
2025-09-01T22:28	10	0	0.1	0	0	368	0.2	367	369	13.6	88.4
2025-09-01T22:29	10	0	0.1	0	0	367	0.3	367	368	13.7	88.3
2025-09-01T22:30	10	0	0.1	0	0	368	0.3	367	368	13.6	88.4
2025-09-01T22:31	10	0	0.1	0	0	367	0.3	367	368	13.6	88.5
2025-09-01T22:32	10	0	0.1	0	0	367	0.3	367	368	13.6	88.9
2025-09-01T22:33	10	0	0.1	0	1	367	0.3	367	368	13.7	88.4
2025-09-01T22:34	10	0	0.1	0	0	367	0.2	367	368	13.7	88.1
2025-09-01T22:35	10	0	0.1	0	0	367	0.3	367	368	13.6	88.7
2025-09-01T22:36	10	0	0.1	0	0	367	0.3	367	368	13.6	89.2
2025-09-01T22:37	10	0	0.1	0	0	367	0.2	367	368	13.5	89.9
2025-09-01T22:38	10	0	0.1	0	0	367	0.3	366	368	13.4	90.3
2025-09-01T22:39	10	0	0.1	0	0	367	0.3	367	368	13.4	90.6
2025-09-01T22:40	10	0	0.1	0	0	367	0.2	366	367	13.3	91.0
2025-09-01T22:41	10	0	0.1	0	0	367	0.3	366	368	13.3	91.3
2025-09-01T22:42	10	0	0.1	0	0	367	0.3	366	368	13.4	91.2
2025-09-01T22:43	10	0	0.1	0	0	367	0.4	367	368	13.4	90.8
2025-09-01T22:44	10	0	0.1	0	0	369	0.4	368	369	13.5	90.0
2025-09-01T22:45	10	0	0.1	0	0	369	0.3	368	370	13.5	90.1
2025-09-01T22:46	10	0	0.1	0	0	369	0.2	369	370	13.5	90.5
2025-09-01T22:47	10	0	0.1	0	0	370	0.2	369	370	13.4	91.3
2025-09-01T22:48	10	0	0.1	0	0	370	0.3	369	371	13.3	91.5
2025-09-01T22:49	10	0	0.1	0	0	370	0.3	370	371	13.3	91.7
2025-09-01T22:50	10	0	0.1	0	0	371	0.2	370	371	13.3	91.5
2025-09-01T22:51	10	0	0.1	0	0	371	0.3	370	371	13.3	91.7
2025-09-01T22:52	10	0	0.1	0	0	371	0.2	370	371	13.3	91.8
2025-09-01T22:53	10	0	0.0	0	0	371	0.3	370	372	13.3	91.5
2025-09-01T22:54	10	0	0.0	0	0	372	0.3	371	373	13.3	91.0
2025-09-01T22:55	10	0	0.1	0	0	372	0.2	372	373	13.3	91.3
2025-09-01T22:56	10	0	0.1	0	0	373	0.3	372	373	13.2	92.0
2025-09-01T22:57	10	0	0.1	0	0	373	0.2	372	373	13.1	92.3
2025-09-01T22:58	10	0	0.1	0	0	373	0.3	373	374	13.0	92.6
2025-09-01T22:59	10	0	0.1	0	0	373	0.2	373	374	13.1	91.9
2025-09-01T23:00	10	0	0.1	0	0	373	0.2	373	374	13.1	91.6
2025-09-01T23:01	10	0	0.1	0	0	373	0.3	372	374	13.1	92.1
2025-09-01T23:02	10	0	0.1	0	0	373	0.2	373	374	13.1	91.7
2025-09-01T23:03	10	0	0.1	0	0	373	0.2	372	373	13.1	91.8
2025-09-01T23:04	10	0	0.1	0	0	373	0.3	373	374	13.0	91.7
2025-09-01T23:05	10	0	0.1	0	0	373	0.2	372	373	13.1	91.3
2025-09-01T23:06	10	0	0.1	0	0	373	0.3	372	374	13.1	91.3
2025-09-01T23:07	10	0	0.1	0	0	373	0.3	372	373	13.1	91.7
2025-09-01T23:08	10	0	0.1	0	0	373	0.2	372	373	13.1	92.6
2025-09-01T23:09	10	0	0.1	0	0	373	0.2	372	373	13.1	92.8
2025-09-01T23:10	10	0	0.1	0	0	372	0.2	372	373	13.0	93.2
2025-09-01T23:11	10	0	0.1	0	0	372	0.2	372	373	12.9	94.0
2025-09-01T23:12	10	0	0.0	0	0	373	0.3	372	373	12.9	95.1
2025-09-01T23:13	10	0	0.1	0	0	373	0.3	372	374	12.9	95.8
2025-09-01T23:14	10	0	0.0	0	0	373	0.3	373	374	12.8	96.3
2025-09-01T23:15	10	0	0.1	0	0	374	0.2	373	374	12.8	96.4
2025-09-01T23:16	10	0	0.1	0	0	374	0.2	373	374	12.8	96.4
2025-09-01T23:17	10	0	0.1	0	0	374	0.2	373	374	12.8	96.2
2025-09-01T23:18	10	0	0.1	0	0	374	0.3	374	375	12.9	95.7
2025-09-01T23:19	10	0	0.1	0	0	374	0.3	374	375	13.0	95.3
2025-09-01T23:20	10	0	0.1	0	0	374	0.3	374	375	13.0	95.2
2025-09-01T23:21	10	0	0.1	0	0	375	0.2	374	375	13.0	95.2
2025-09-01T23:22	10	0	0.1	0	0	375	0.2	374	375	12.9	95.5
2025-09-01T23:23	10	0	0.1	0	0	375	0.3	374	376	12.9	95.7
2025-09-01T23:24	10	0	0.1	0	0	375	0.2	375	376	12.9	95.9
2025-09-01T23:25	10	0	0.1	0	0	375	0.3	375	376	12.8	96.2
2025-09-01T23:26	10	0	0.1	0	0	375	0.2	375	376	12.8	96.5
2025-09-01T23:27	10	0	0.1	0	0	376	0.3	375	376	12.8	96.6
2025-09-01T23:28	10	0	0.1	0	0	376	0.2	375	376	12.8	96.6
2025-09-01T23:29	10	0	0.1	0	0	376	0.2	375	376	12.8	96.7
2025-09-01T23:30	10	0	0.1	0	0	376	0.2	375	376	12.8	96.8
2025-09-01T23:31	10	0	0.1	0	0	376	0.2	375	376	12.8	96.9
2025-09-01T23:32	10	0	0.1	0	0	376	0.2	375	376	12.8	96.9
2025-09-01T23:33	10	0	0.1	0	0	376	0.2	375	376	12.8	96.9
2025-09-01T23:34	10	0	0.1	0	0	376	0.3	375	376	12.8	97.0
2025-09-01T23:35	10	0	0.1	0	0	376	0.3	375	376	12.8	97.1
2025-09-01T23:36	10	0	0.1	0	0	375	0.3	375	376	12.8	97.0
2025-09-01T23:37	10	0	0.1	0	0	375	0.2	375	376	12.7	96.9
2025-09-01T23:38	10	0	0.1	0	0	375	0.2	375	375	12.8	96.8
2025-09-01T23:39	10	0	0.1	0	0	375	0.2	374	375	12.7	96.9
2025-09-01T23:40	10	0	0.1	0	0	375	0.2	374	375	12.7	96.9
2025-09-01T23:41	10	0	0.1	0	0	374	0.2	374	375	12.8	96.8
2025-09-01T23:42	10	0	0.1	0	0	374	0.2	374	375	12.8	96.9
2025-09-01T23:43	10	0	0.1	0	0	374	0.3	373	375	12.8	96.6
2025-09-01T23:44	10	0	0.1	0	0	374	0.3	373	375	12.8	96.6
2025-09-01T23:45	10	0	0.1	0	0	373	0.2	373	374	12.8	96.5
2025-09-01T23:46	10	0	0.1	0	0	373	0.2	372	374	12.8	96.3
2025-09-01T23:47	10	0	0.1	0	0	372	0.2	372	373	12.8	96.2
2025-09-01T23:48	10	0	0.1	0	0	372	0.2	372	373	12.8	96.3
2025-09-01T23:49	10	0	0.0	0	0	372	0.2	371	372	12.8	96.2
2025-09-01T23:50	10	0	0.1	0	0	371	0.4	370	372	12.8	96.2
2025-09-01T23:51	10	0	0.1	0	0	371	0.2	370	371	12.8	96.2
2025-09-01T23:52	10	0	0.1	0	0	370	0.4	369	371	12.8	96.5
2025-09-01T23:53	10	0	0.1	0	0	369	0.3	369	370	12.8	96.6
2025-09-01T23:54	10	0	0.1	0	0	369	0.2	369	370	12.8	96.7
2025-09-01T23:55	10	0	0.0	0	0	368	0.2	368	369	12.8	96.3
2025-09-01T23:56	10	0	0.0	0	0	368	0.3	368	369	12.8	96.1
2025-09-01T23:57	10	0	0.1	0	0	368	0.2	367	369	12.8	95.8
2025-09-01T23:58	10	0	0.0	0	0	368	0.2	368	369	12.8	95.8
2025-09-01T23:59	10	0	0.1	0	0	368	0.2	368	369	12.8	95.8
2025-09-02T00:00	10	0	0.1	0	0	368	0.2	368	369	12.8	96.0
2025-09-02T00:01	10	0	0.1	0	0	368	0.3	367	369	12.8	95.8
2025-09-02T00:02	10	0	0.1	0	0	369	0.3	368	369	12.8	95.7
2025-09-02T00:03	10	0	0.1	0	0	369	0.3	369	370	12.8	95.7
2025-09-02T00:04	10	0	0.1	0	0	370	0.2	369	370	12.8	95.8
2025-09-02T00:05	10	0	0.1	0	0	369	0.2	369	370	12.8	95.9
2025-09-02T00:06	10	0	0.0	0	0	370	0.2	369	370	12.8	95.9
2025-09-02T00:07	10	0	0.1	0	0	370	0.2	369	370	12.8	95.9
2025-09-02T00:08	10	0	0.1	0	0	369	0.2	369	370	12.8	96.0
2025-09-02T00:09	10	0	0.1	0	0	369	0.2	369	370	12.8	96.1
2025-09-02T00:10	10	0	0.1	0	0	369	0.2	369	370	12.8	96.1
2025-09-02T00:11	10	0	0.1	0	0	369	0.2	368	370	12.7	96.3
2025-09-02T00:12	10	0	0.0	0	0	369	0.2	368	370	12.7	96.2
2025-09-02T00:13	10	0	0.1	0	0	369	0.3	368	370	12.8	96.0
2025-09-02T00:14	10	0	0.1	0	0	369	0.3	369	370	12.8	95.9
2025-09-02T00:15	10	0	0.1	0	0	369	0.2	369	370	12.8	95.9
2025-09-02T00:16	10	0	0.0	0	0	369	0.2	369	370	12.8	95.8
2025-09-02T00:17	10	0	0.1	0	0	369	0.2	369	370	12.8	95.7
2025-09-02T00:18	10	0	0.1	0	0	369	0.2	369	370	12.8	95.6
2025-09-02T00:19	10	0	0.0	0	0	369	0.2	369	370	12.8	95.7
2025-09-02T00:20	10	0	0.0	0	0	369	0.2	369	370	12.8	95.7
2025-09-02T00:21	10	0	0.1	0	0	370	0.2	369	370	12.8	95.6
2025-09-02T00:22	10	0	0.1	0	0	370	0.2	370	371	12.8	95.5
2025-09-02T00:23	10	0	0.0	0	0	371	0.2	370	371	12.9	95.3
2025-09-02T00:24	10	0	0.1	0	0	371	0.3	370	371	12.9	95.3
2025-09-02T00:25	10	0	0.1	0	0	371	0.3	370	372	12.9	95.3
2025-09-02T00:26	10	0	0.1	0	0	371	0.2	371	372	12.9	95.4
2025-09-02T00:27	10	0	0.1	0	0	371	0.2	371	372	12.8	95.6
2025-09-02T00:28	10	0	0.0	0	0	371	0.2	371	372	12.8	95.8
2025-09-02T00:29	10	0	0.1	0	0	371	0.2	371	372	12.8	95.7
2025-09-02T00:30	10	0	0.0	0	0	372	0.2	371	372	12.8	95.8
2025-09-02T00:31	10	0	0.1	0	0	372	0.2	371	372	12.8	96.0
2025-09-02T00:32	10	0	0.1	0	0	372	0.2	371	372	12.7	96.3
2025-09-02T00:33	10	0	0.0	0	0	372	0.2	371	373	12.7	96.3
2025-09-02T00:34	10	0	0.0	0	0	372	0.2	371	372	12.7	96.3
2025-09-02T00:35	10	0	0.0	0	0	372	0.2	371	372	12.7	96.3
2025-09-02T00:36	10	0	0.0	0	0	372	0.3	371	373	12.7	96.3
2025-09-02T00:37	10	0	0.1	0	0	372	0.2	372	373	12.7	96.3
2025-09-02T00:38	10	0	0.1	0	0	372	0.2	371	372	12.7	96.4
2025-09-02T00:39	10	0	0.0	0	0	372	0.2	371	372	12.7	96.4
2025-09-02T00:40	10	0	0.0	0	0	372	0.3	371	372	12.7	96.5
2025-09-02T00:41	10	0	0.1	0	0	372	0.2	371	372	12.6	96.7
2025-09-02T00:42	10	0	0.0	0	0	371	0.2	371	372	12.6	96.8
2025-09-02T00:43	10	0	0.0	0	0	371	0.2	371	372	12.6	97.1
2025-09-02T00:44	10	0	0.0	0	0	371	0.2	371	372	12.5	97.2
2025-09-02T00:45	10	0	0.0	0	0	372	0.2	371	372	12.5	97.2
2025-09-02T00:46	10	0	0.0	0	0	372	0.2	371	372	12.5	96.9
2025-09-02T00:47	10	0	0.0	0	0	372	0.2	371	372	12.5	97.1
2025-09-02T00:48	10	0	0.1	0	0	372	0.2	372	373	12.5	97.4
2025-09-02T00:49	10	0	0.0	0	0	373	0.2	372	373	12.6	97.5
2025-09-02T00:50	10	0	0.0	0	0	373	0.2	372	373	12.6	97.4
2025-09-02T00:51	10	0	0.0	0	0	373	0.2	372	373	12.5	97.5
2025-09-02T00:52	10	0	0.0	0	0	373	0.2	372	373	12.5	97.7
2025-09-02T00:53	10	0	0.1	0	0	373	0.2	372	373	12.5	97.8
2025-09-02T00:54	10	0	0.0	0	0	373	0.3	372	374	12.5	97.4
2025-09-02T00:55	10	0	0.0	0	0	373	0.3	372	374	12.5	97.3
2025-09-02T00:56	10	0	0.1	0	0	373	0.2	372	373	12.5	97.5
2025-09-02T00:57	10	0	0.0	0	0	373	0.2	373	374	12.5	97.6
2025-09-02T00:58	10	0	0.1	0	0	373	0.2	373	373	12.5	97.8
2025-09-02T00:59	10	0	0.0	0	0	373	0.2	373	374	12.4	97.9
2025-09-02T01:00	10	0	0.0	0	0	373	0.3	373	374	12.5	97.9
2025-09-02T01:01	10	0	0.0	0	0	373	0.2	373	374	12.5	97.7
2025-09-02T01:02	10	0	0.0	0	0	374	0.2	373	374	12.6	97.3
2025-09-02T01:03	10	0	0.1	0	0	374	0.2	373	374	12.7	96.9
2025-09-02T01:04	10	0	0.0	0	0	374	0.2	373	374	12.7	96.6
2025-09-02T01:05	10	0	0.1	0	0	374	0.2	374	375	12.8	96.3
2025-09-02T01:06	10	0	0.1	0	0	374	0.3	374	375	12.8	96.0
2025-09-02T01:07	10	0	0.1	0	0	374	0.2	374	375	12.8	95.8
2025-09-02T01:08	10	0	0.1	0	0	374	0.2	374	375	12.8	95.8
2025-09-02T01:09	10	0	0.1	0	0	374	0.2	374	375	12.8	96.0
2025-09-02T01:10	10	0	0.1	0	0	375	0.2	374	375	12.9	95.4
2025-09-02T01:11	10	0	0.1	0	0	375	0.2	374	375	12.9	95.2
2025-09-02T01:12	10	0	0.1	0	0	375	0.2	374	375	12.9	95.3
2025-09-02T01:13	10	0	0.1	0	0	375	0.2	374	376	13.0	95.1
2025-09-02T01:14	10	0	0.1	0	0	375	0.2	375	375	13.0	94.5
2025-09-02T01:15	10	0	0.1	0	0	375	0.3	374	376	13.1	94.0
2025-09-02T01:16	10	0	0.1	0	0	375	0.2	375	376	13.1	93.6
2025-09-02T01:17	10	0	0.1	0	0	375	0.2	375	376	13.1	93.8
2025-09-02T01:18	10	0	0.1	0	0	375	0.3	374	376	13.1	93.7
2025-09-02T01:19	10	0	0.1	0	0	375	0.2	375	376	13.1	93.8
2025-09-02T01:20	10	0	0.1	0	0	375	0.2	375	376	13.1	93.9
2025-09-02T01:21	10	0	0.1	0	0	375	0.2	375	376	13.1	93.7
2025-09-02T01:22	10	0	0.1	0	0	375	0.3	374	375	13.1	93.9
2025-09-02T01:23	10	0	0.1	0	0	375	0.3	374	375	13.1	94.2
2025-09-02T01:24	10	0	0.1	0	0	375	0.2	374	375	13.0	94.8
2025-09-02T01:25	10	0	0.1	0	0	375	0.2	374	375	12.9	95.3
2025-09-02T01:26	10	0	0.1	0	0	374	0.3	374	375	12.8	95.7
2025-09-02T01:27	10	0	0.1	0	0	374	0.2	374	375	12.8	96.1
2025-09-02T01:28	10	0	0.0	0	0	374	0.2	374	375	12.8	95.8
2025-09-02T01:29	10	0	0.0	0	0	374	0.3	374	375	12.8	95.8
2025-09-02T01:30	10	0	0.1	0	0	374	0.2	374	375	12.8	95.8
2025-09-02T01:31	10	0	0.1	0	0	375	0.2	374	375	12.9	95.6
2025-09-02T01:32	10	0	0.1	0	0	374	0.2	374	375	12.9	95.5
2025-09-02T01:33	10	0	0.1	0	0	374	0.2	374	375	12.9	95.5
2025-09-02T01:34	10	0	0.1	0	0	375	0.3	374	375	12.9	95.5
2025-09-02T01:35	10	0	0.1	0	0	375	0.2	374	375	12.9	95.6
2025-09-02T01:36	10	0	0.0	0	0	375	0.2	374	375	12.9	95.8
2025-09-02T01:37	10	0	0.0	0	0	374	0.3	374	375	12.8	96.4
2025-09-02T01:38	10	0	0.1	0	0	374	0.2	374	375	12.8	97.0
2025-09-02T01:39	10	0	0.0	0	0	374	0.2	374	375	12.7	97.5
2025-09-02T01:40	10	0	0.0	0	0	374	0.2	374	375	12.6	97.7
2025-09-02T01:41	10	0	0.1	0	0	374	0.2	374	375	12.6	97.9
2025-09-02T01:42	10	0	0.0	0	0	374	0.2	374	375	12.5	97.9
2025-09-02T01:43	10	0	0.0	0	0	374	0.2	373	374	12.5	98.0
2025-09-02T01:44	10	0	0.0	0	0	374	0.2	374	374	12.5	98.1
2025-09-02T01:45	10	0	0.0	0	0	374	0.2	374	374	12.5	98.3
2025-09-02T01:46	10	0	0.0	0	0	374	0.2	373	374	12.5	98.3
2025-09-02T01:47	10	0	0.0	0	0	374	0.3	373	375	12.5	98.1
2025-09-02T01:48	10	0	0.0	0	0	374	0.3	373	375	12.5	98.0
2025-09-02T01:49	10	0	0.0	0	0	374	0.2	373	374	12.5	98.1
2025-09-02T01:50	10	0	0.0	0	0	374	0.2	374	375	12.5	97.9
2025-09-02T01:51	10	0	0.1	0	0	374	0.2	374	374	12.5	98.0
2025-09-02T01:52	10	0	0.1	0	0	374	0.2	374	374	12.5	97.9
2025-09-02T01:53	10	0	0.1	0	0	374	0.2	374	375	12.5	97.9
2025-09-02T01:54	10	0	0.0	0	0	374	0.2	373	375	12.5	97.8
2025-09-02T01:55	10	0	0.0	0	0	374	0.2	373	374	12.5	97.9
2025-09-02T01:56	10	0	0.0	0	0	374	0.2	373	374	12.5	98.0
2025-09-02T01:57	10	0	0.0	0	0	374	0.2	373	374	12.5	98.0
2025-09-02T01:58	10	0	0.0	0	0	374	0.2	374	375	12.5	98.1
2025-09-02T01:59	10	0	0.1	0	0	374	0.2	374	375	12.5	98.1
2025-09-02T02:00	10	0	0.1	0	0	374	0.2	374	375	12.5	97.9
2025-09-02T02:01	10	0	0.0	0	0	374	0.2	374	375	12.5	97.7
2025-09-02T02:02	10	0	0.1	0	0	374	0.2	374	375	12.5	97.7
2025-09-02T02:03	10	0	0.0	0	0	374	0.3	374	375	12.5	97.7
2025-09-02T02:04	10	0	0.1	0	0	374	0.2	374	375	12.6	97.5
2025-09-02T02:05	10	0	0.1	0	0	375	0.2	374	375	12.6	97.2
2025-09-02T02:06	10	0	0.1	0	0	375	0.2	374	375	12.6	97.2
2025-09-02T02:07	10	0	0.0	0	0	374	0.2	374	375	12.6	97.4
2025-09-02T02:08	10	0	0.0	0	0	375	0.2	374	375	12.6	97.2
2025-09-02T02:09	10	0	0.1	0	0	375	0.3	374	375	12.7	96.9
2025-09-02T02:10	10	0	0.0	0	0	375	0.3	374	375	12.7	96.9
2025-09-02T02:11	10	0	0.1	0	0	375	0.2	374	375	12.7	96.8
2025-09-02T02:12	10	0	0.1	0	0	375	0.2	375	375	12.8	96.3
2025-09-02T02:13	10	0	0.1	0	0	375	0.2	374	375	12.8	96.3
2025-09-02T02:14	10	0	0.1	0	0	375	0.2	375	376	12.8	96.0
2025-09-02T02:15	10	0	0.1	0	0	375	0.2	375	376	12.9	95.8
2025-09-02T02:16	10	0	0.1	0	0	375	0.3	375	376	12.9	95.1
2025-09-02T02:17	10	0	0.0	0	0	375	0.2	375	376	12.9	95.3
2025-09-02T02:18	10	0	0.1	0	0	376	0.1	375	376	13.0	95.0
2025-09-02T02:19	10	0	0.1	0	0	376	0.2	375	376	13.0	95.2
2025-09-02T02:20	10	0	0.1	0	0	375	0.3	375	376	13.0	94.6
2025-09-02T02:21	10	0	0.0	0	0	376	0.3	375	377	13.0	93.9
2025-09-02T02:22	10	0	0.1	0	0	376	0.2	375	376	13.1	93.5
2025-09-02T02:23	10	0	0.1	0	0	375	0.2	375	376	13.1	93.5
2025-09-02T02:24	10	0	0.1	0	0	375	0.3	375	376	13.1	93.2
2025-09-02T02:25	10	0	0.1	0	0	375	0.2	375	376	13.1	93.4
2025-09-02T02:26	10	0	0.0	0	0	375	0.2	375	376	13.1	93.4
2025-09-02T02:27	10	0	0.1	0	0	375	0.2	374	375	13.1	93.2
2025-09-02T02:28	10	0	0.1	0	0	375	0.2	374	375	13.1	93.0
2025-09-02T02:29	10	0	0.1	0	0	375	0.2	374	375	13.1	93.3
2025-09-02T02:30	10	0	0.0	0	0	374	0.3	374	375	13.1	93.5
2025-09-02T02:31	10	0	0.1	0	0	374	0.2	374	375	13.1	93.5
2025-09-02T02:32	10	0	0.0	0	0	374	0.2	374	375	13.1	93.2
2025-09-02T02:33	10	0	0.0	0	0	374	0.2	374	375	13.1	93.2
2025-09-02T02:34	10	0	0.1	0	0	374	0.3	373	375	13.0	93.7
2025-09-02T02:35	10	0	0.0	0	0	374	0.3	373	374	13.0	93.8
2025-09-02T02:36	10	0	0.0	0	0	374	0.2	373	374	12.9	94.0
2025-09-02T02:37	10	0	0.0	0	0	373	0.2	373	374	12.9	94.5
2025-09-02T02:38	10	0	0.1	0	0	373	0.2	372	373	12.8	95.4
2025-09-02T02:39	10	0	0.1	0	0	373	0.2	372	373	12.7	96.1
2025-09-02T02:40	10	0	0.0	0	0	373	0.2	372	373	12.6	96.3
2025-09-02T02:41	10	0	0.1	0	0	373	0.2	372	373	12.6	96.5
2025-09-02T02:42	10	0	0.0	0	0	373	0.2	372	373	12.6	96.3
2025-09-02T02:43	10	0	0.0	0	0	373	0.3	372	373	12.6	96.3
2025-09-02T02:44	10	0	0.0	0	0	373	0.2	373	374	12.6	96.3
2025-09-02T02:45	10	0	0.5	0	3	373	0.2	373	373	12.6	96.2
2025-09-02T02:46	10	0	0.0	0	0	373	0.3	372	374	12.6	96.2
2025-09-02T02:47	10	0	0.0	0	0	373	0.2	373	374	12.6	96.1
2025-09-02T02:48	10	0	0.0	0	0	373	0.2	373	374	12.6	95.9
2025-09-02T02:49	10	0	0.1	0	0	373	0.3	373	374	12.7	95.7
2025-09-02T02:50	10	0	0.0	0	0	374	0.3	373	374	12.7	95.9
2025-09-02T02:51	10	0	0.0	0	0	374	0.3	373	374	12.7	96.2
2025-09-02T02:52	10	0	0.1	0	0	374	0.2	373	374	12.7	96.6
2025-09-02T02:53	10	0	0.0	0	0	374	0.2	373	374	12.7	96.7
2025-09-02T02:54	10	0	0.0	0	0	374	0.2	374	374	12.7	96.8
2025-09-02T02:55	10	0	0.0	0	0	374	0.2	373	374	12.7	97.0
2025-09-02T02:56	10	0	0.0	0	0	374	0.3	373	374	12.7	96.8
2025-09-02T02:57	10	0	0.0	0	0	374	0.3	373	374	12.7	96.8
2025-09-02T02:58	10	0	0.0	0	0	374	0.3	373	374	12.7	96.7
2025-09-02T02:59	10	0	0.1	0	0	374	0.2	373	374	12.7	96.6
2025-09-02T03:00	10	0	0.1	0	0	374	0.2	373	374	12.7	96.4
2025-09-02T03:01	10	0	0.1	0	0	374	0.2	373	374	12.7	96.8
2025-09-02T03:02	10	0	0.0	0	0	373	0.3	373	374	12.7	96.9
2025-09-02T03:03	10	0	0.1	0	0	373	0.3	373	374	12.6	97.3
2025-09-02T03:04	10	0	0.0	0	0	373	0.2	373	374	12.6	97.5
2025-09-02T03:05	10	0	0.0	0	0	373	0.2	372	373	12.6	97.4
2025-09-02T03:06	10	0	0.0	0	0	373	0.2	372	373	12.6	97.5
2025-09-02T03:07	10	0	0.0	0	0	372	0.2	372	373	12.6	97.6
2025-09-02T03:08	10	0	0.0	0	0	373	0.2	372	373	12.6	97.7
2025-09-02T03:09	10	0	0.0	0	0	373	0.2	372	373	12.6	97.7
2025-09-02T03:10	10	0	0.0	0	0	373	0.3	372	373	12.6	97.8
2025-09-02T03:11	10	0	0.1	0	0	373	0.2	372	373	12.6	97.7
2025-09-02T03:12	10	0	0.1	0	0	373	0.2	373	374	12.6	97.7
2025-09-02T03:13	10	0	0.1	0	0	373	0.3	373	374	12.6	97.5
2025-09-02T03:14	10	0	0.1	0	0	374	0.2	373	374	12.6	97.4
2025-09-02T03:15	10	0	0.0	0	0	374	0.2	374	374	12.6	97.4
2025-09-02T03:16	10	0	0.1	0	0	374	0.2	374	375	12.6	97.4
2025-09-02T03:17	10	0	0.0	0	0	374	0.2	374	375	12.6	97.3
2025-09-02T03:18	10	0	0.1	0	0	374	0.3	374	375	12.6	97.1
2025-09-02T03:19	10	0	0.0	0	0	374	0.2	374	375	12.7	97.1
2025-09-02T03:20	10	0	0.1	0	0	374	0.3	374	375	12.7	96.9
2025-09-02T03:21	10	0	0.1	0	0	374	0.3	374	375	12.7	97.0
2025-09-02T03:22	10	0	0.1	0	0	374	0.2	374	375	12.7	97.0
2025-09-02T03:23	10	0	0.1	0	0	375	0.2	374	375	12.7	96.6
2025-09-02T03:24	10	0	0.1	0	0	375	0.3	374	375	12.8	96.2
2025-09-02T03:25	10	0	0.0	0	0	375	0.2	374	375	12.8	95.6
2025-09-02T03:26	10	0	0.1	0	0	375	0.2	374	375	12.8	95.8
2025-09-02T03:27	10	0	0.1	0	0	375	0.2	374	375	12.8	95.9
2025-09-02T03:28	10	0	0.1	0	0	375	0.2	374	375	12.8	95.8
2025-09-02T03:29	10	0	0.1	0	0	375	0.2	374	375	12.8	96.1
2025-09-02T03:30	10	0	0.1	0	0	375	0.2	374	375	12.8	96.2
2025-09-02T03:31	10	0	0.1	0	0	375	0.2	375	375	12.8	96.1
2025-09-02T03:32	10	0	0.1	0	0	375	0.2	374	375	12.8	95.8
2025-09-02T03:33	10	0	0.1	0	0	375	0.3	374	375	12.8	95.7
2025-09-02T03:34	10	0	0.1	0	0	375	0.2	374	375	12.8	95.7
2025-09-02T03:35	10	0	0.1	0	0	375	0.2	374	375	12.8	96.2
2025-09-02T03:36	10	0	0.1	0	0	374	0.2	374	375	12.6	96.3
2025-09-02T03:37	10	0	0.1	0	0	374	0.2	374	375	12.6	96.4
2025-09-02T03:38	10	0	0.0	0	0	374	0.2	374	375	12.7	96.1
2025-09-02T03:39	10	0	0.1	0	0	374	0.2	374	375	12.7	96.1
2025-09-02T03:40	10	0	0.1	0	0	374	0.2	374	375	12.7	96.2
2025-09-02T03:41	10	0	0.1	0	0	374	0.2	374	374	12.7	96.1
2025-09-02T03:42	10	0	0.1	0	0	374	0.2	374	375	12.7	95.6
2025-09-02T03:43	10	0	0.1	0	0	374	0.3	374	375	12.7	95.5
2025-09-02T03:44	10	0	0.0	0	0	375	0.2	374	375	12.7	95.5
2025-09-02T03:45	10	0	0.1	0	0	374	0.2	374	375	12.8	95.0
2025-09-02T03:46	10	0	0.1	0	0	375	0.2	374	375	12.8	95.1
2025-09-02T03:47	10	0	0.1	0	0	375	0.2	374	375	12.8	94.9
2025-09-02T03:48	10	0	0.0	0	0	375	0.3	374	375	12.8	94.8
2025-09-02T03:49	10	0	0.1	0	0	375	0.3	374	376	12.8	95.0
2025-09-02T03:50	10	0	0.1	0	0	375	0.2	374	375	12.8	95.3
2025-09-02T03:51	10	0	0.1	0	0	375	0.2	375	376	12.8	95.6
2025-09-02T03:52	10	0	0.1	0	0	375	0.2	374	375	12.8	95.8
2025-09-02T03:53	10	0	0.1	0	0	375	0.2	375	375	12.8	95.7
2025-09-02T03:54	10	0	0.1	0	0	375	0.2	374	375	12.8	95.1
2025-09-02T03:55	10	0	0.0	0	0	375	0.2	375	376	12.9	94.2
2025-09-02T03:56	10	0	0.1	0	0	375	0.2	375	376	12.9	94.3
2025-09-02T03:57	10	0	0.1	0	0	375	0.2	375	376	13.0	94.4
2025-09-02T03:58	10	0	0.1	0	0	375	0.2	375	376	13.0	94.7
2025-09-02T03:59	10	0	0.1	0	0	375	0.2	375	376	13.0	94.9
2025-09-02T04:00	10	0	0.1	0	0	375	0.2	375	376	12.9	95.2
2025-09-02T04:01	10	0	0.1	0	0	375	0.2	375	376	12.9	95.3
2025-09-02T04:02	10	0	0.1	0	0	375	0.3	374	376	12.9	95.5
2025-09-02T04:03	10	0	0.0	0	0	375	0.2	375	376	12.9	95.8
2025-09-02T04:04	10	0	0.1	0	0	375	0.2	375	376	12.9	96.2
2025-09-02T04:05	10	0	0.1	0	0	375	0.2	375	376	12.8	96.4
2025-09-02T04:06	10	0	0.1	0	0	375	0.2	375	376	12.8	96.4
2025-09-02T04:07	10	0	0.1	0	0	375	0.2	375	376	12.8	96.5
2025-09-02T04:08	10	0	0.1	0	0	376	0.3	375	376	12.8	96.7
2025-09-02T04:09	10	0	0.0	0	0	376	0.2	375	376	12.8	96.9
2025-09-02T04:10	10	0	0.1	0	0	376	0.2	375	376	12.8	96.9
2025-09-02T04:11	10	0	0.1	0	0	376	0.2	375	376	12.8	97.2
2025-09-02T04:12	10	0	0.1	0	0	376	0.2	375	376	12.8	97.1
2025-09-02T04:13	10	0	0.1	0	0	376	0.2	375	376	12.8	96.9
2025-09-02T04:14	10	0	0.1	0	0	376	0.2	375	376	12.8	96.6
2025-09-02T04:15	10	0	0.1	0	0	376	0.2	375	376	12.9	96.7
2025-09-02T04:16	10	0	0.1	0	0	376	0.2	375	377	12.9	96.5
2025-09-02T04:17	10	0	0.1	0	0	376	0.3	375	377	12.9	96.5
2025-09-02T04:18	10	0	0.1	0	0	376	0.2	375	376	12.9	96.7
2025-09-02T04:19	10	0	0.1	0	0	376	0.2	375	376	12.9	96.8
2025-09-02T04:20	10	0	0.1	0	0	376	0.3	375	376	12.9	96.7
2025-09-02T04:21	10	0	0.0	0	0	376	0.3	375	376	12.9	96.8
2025-09-02T04:22	10	0	0.1	0	0	376	0.2	375	377	12.9	96.8
2025-09-02T04:23	10	0	0.1	0	0	376	0.2	375	376	12.9	97.0
2025-09-02T04:24	10	0	0.1	0	0	376	0.2	376	377	12.9	97.1
2025-09-02T04:25	10	0	0.1	0	0	376	0.2	376	377	12.9	97.2
2025-09-02T04:26	10	0	0.1	0	0	376	0.2	376	377	12.9	97.3
2025-09-02T04:27	10	0	0.0	0	0	376	0.2	376	377	12.9	97.0
2025-09-02T04:28	10	0	0.1	0	0	376	0.2	376	377	12.9	96.9
2025-09-02T04:29	10	0	0.1	0	0	376	0.3	375	377	12.9	96.7
2025-09-02T04:30	10	0	0.1	0	0	376	0.2	375	376	13.0	96.8
2025-09-02T04:31	10	0	0.1	0	0	376	0.2	376	377	12.9	96.9
2025-09-02T04:32	10	0	0.1	0	0	376	0.2	376	377	13.0	96.8
2025-09-02T04:33	10	0	0.1	0	0	376	0.2	376	377	13.0	97.0
2025-09-02T04:34	10	0	0.1	0	0	376	0.2	376	377	13.0	97.2
2025-09-02T04:35	10	0	0.1	0	0	376	0.2	376	377	12.9	97.3
2025-09-02T04:36	10	0	0.1	0	0	376	0.2	376	377	12.9	97.1
2025-09-02T04:37	10	0	0.1	0	0	376	0.2	376	377	12.9	96.8
2025-09-02T04:38	10	0	0.1	0	0	376	0.2	376	377	13.0	95.9
2025-09-02T04:39	10	0	0.1	0	0	377	0.2	376	377	13.1	94.8
2025-09-02T04:40	10	0	0.1	0	0	376	0.2	376	377	13.1	94.4
2025-09-02T04:41	10	0	0.1	0	0	376	0.2	376	377	13.2	93.6
2025-09-02T04:42	10	0	0.1	0	0	376	0.2	376	377	13.2	93.5
2025-09-02T04:43	10	0	0.1	0	0	376	0.2	376	377	13.2	93.7
2025-09-02T04:44	10	0	0.1	0	0	376	0.3	376	377	13.2	94.1
2025-09-02T04:45	10	0	0.1	0	0	376	0.3	376	377	13.2	94.3
2025-09-02T04:46	10	0	0.1	0	0	376	0.2	376	377	13.2	94.3
2025-09-02T04:47	10	0	0.1	0	0	376	0.2	376	377	13.2	94.3
2025-09-02T04:48	10	0	0.1	0	0	376	0.2	376	377	13.2	94.7
2025-09-02T04:49	10	0	0.1	0	0	376	0.2	376	377	13.1	95.0
2025-09-02T04:50	10	0	0.1	0	0	376	0.2	376	377	13.1	95.2
2025-09-02T04:51	10	0	0.1	0	0	376	0.2	376	377	13.1	94.7
2025-09-02T04:52	10	0	0.1	0	0	376	0.2	376	377	13.1	94.7
2025-09-02T04:53	10	0	0.1	0	0	376	0.2	376	377	13.1	94.4
2025-09-02T04:54	10	0	0.1	0	0	376	0.3	375	377	13.1	94.4
2025-09-02T04:55	10	0	0.1	0	0	376	0.2	376	377	13.1	94.6
2025-09-02T04:56	10	0	0.1	0	0	376	0.2	376	377	13.1	94.7
2025-09-02T04:57	10	0	0.1	0	1	376	0.2	376	377	13.1	94.7
2025-09-02T04:58	10	0	0.1	0	0	376	0.2	376	377	13.1	94.0
2025-09-02T04:59	10	0	0.1	0	0	376	0.2	376	377	13.2	93.1
2025-09-02T05:00	10	0	0.1	0	1	376	0.2	376	377	13.2	92.4
2025-09-02T05:01	10	0	0.1	0	1	376	0.2	376	377	13.2	92.5
2025-09-02T05:02	10	0	0.1	0	1	376	0.2	376	377	13.3	92.1
2025-09-02T05:03	10	0	0.1	0	1	376	0.2	376	377	13.3	92.1
2025-09-02T05:04	10	0	0.1	0	1	376	0.2	376	377	13.3	91.8
2025-09-02T05:05	10	0	0.1	0	1	377	0.2	376	377	13.3	91.3
2025-09-02T05:06	10	0	0.1	0	1	377	0.2	376	377	13.3	90.8
2025-09-02T05:07	10	1	0.1	0	1	377	0.2	376	377	13.4	90.9
2025-09-02T05:08	10	1	0.1	1	1	377	0.2	376	377	13.3	91.1
2025-09-02T05:09	10	1	0.1	1	1	377	0.2	377	377	13.3	91.1
2025-09-02T05:10	10	1	0.1	1	2	377	0.2	376	377	13.3	91.3
2025-09-02T05:11	10	2	0.1	2	2	377	0.2	376	377	13.3	91.1
2025-09-02T05:12	10	2	0.1	2	2	377	0.2	377	378	13.4	89.7
2025-09-02T05:13	10	2	0.1	2	2	377	0.3	376	378	13.4	90.4
2025-09-02T05:14	10	2	0.1	2	2	377	0.2	377	378	13.4	91.2
2025-09-02T05:15	10	2	0.1	2	2	377	0.2	377	378	13.3	91.8
2025-09-02T05:16	10	2	0.1	2	2	377	0.3	377	378	13.3	91.9
2025-09-02T05:17	10	2	0.1	2	2	377	0.2	377	378	13.3	92.2
2025-09-02T05:18	10	2	0.1	2	3	377	0.2	377	378	13.3	92.5
2025-09-02T05:19	10	2	0.1	2	3	377	0.3	377	378	13.2	92.5
2025-09-02T05:20	10	2	0.1	2	2	377	0.2	377	378	13.2	92.6
2025-09-02T05:21	10	2	0.1	2	2	377	0.2	377	378	13.2	92.9
2025-09-02T05:22	10	2	0.1	2	2	377	0.2	377	378	13.2	93.4
2025-09-02T05:23	10	2	0.1	2	2	377	0.2	377	378	13.1	93.9
2025-09-02T05:24	10	2	0.1	2	2	377	0.2	377	378	13.1	94.3
2025-09-02T05:25	10	2	0.1	2	2	377	0.3	377	378	13.1	94.5
2025-09-02T05:26	10	2	0.0	2	2	377	0.2	377	378	13.1	94.8
2025-09-02T05:27	10	2	0.1	2	2	377	0.3	377	378	13.1	94.8
2025-09-02T05:28	10	2	0.1	2	2	377	0.2	377	378	13.1	95.1
2025-09-02T05:29	10	2	0.1	2	2	377	0.2	377	377	13.1	95.5
2025-09-02T05:30	10	2	0.1	2	2	377	0.2	376	377	13.0	95.9
2025-09-02T05:31	10	2	0.1	2	3	377	0.2	376	377	13.0	96.3
2025-09-02T05:32	10	3	0.1	2	3	377	0.2	377	378	13.0	96.6
2025-09-02T05:33	10	3	0.1	3	3	377	0.2	377	378	13.0	96.9
2025-09-02T05:34	10	3	0.1	3	3	377	0.2	377	378	13.0	97.1
2025-09-02T05:35	10	3	0.1	3	3	378	0.3	377	378	13.0	97.3
2025-09-02T05:36	10	3	0.1	3	3	378	0.3	377	378	12.9	97.3
2025-09-02T05:37	10	3	0.1	3	3	377	0.3	377	378	12.9	97.2
2025-09-02T05:38	10	3	0.1	3	3	378	0.3	377	378	12.9	97.3
2025-09-02T05:39	10	3	0.1	3	4	378	0.2	377	378	13.0	97.4
2025-09-02T05:40	10	3	0.1	3	4	378	0.3	377	378	13.0	97.6
2025-09-02T05:41	10	4	0.1	3	4	378	0.2	377	378	13.0	97.6
2025-09-02T05:42	10	4	0.1	3	4	378	0.3	377	379	13.0	97.9
2025-09-02T05:43	10	4	0.1	4	4	378	0.3	377	379	12.9	97.8
2025-09-02T05:44	10	4	0.1	3	4	378	0.2	377	378	12.9	97.4
2025-09-02T05:45	10	4	0.0	3	4	378	0.3	377	379	12.9	97.2
2025-09-02T05:46	10	4	0.1	4	4	378	0.2	377	378	12.9	97.1
2025-09-02T05:47	10	4	0.1	4	4	378	0.3	377	378	12.9	96.9
2025-09-02T05:48	10	4	0.1	4	4	378	0.2	377	378	12.9	97.0
2025-09-02T05:49	10	4	0.1	4	4	378	0.2	377	378	12.9	96.8
2025-09-02T05:50	10	4	0.1	4	4	378	0.2	377	378	12.9	97.1
2025-09-02T05:51	10	4	0.1	4	4	378	0.2	377	378	12.9	97.3
2025-09-02T05:52	10	4	0.1	4	4	378	0.2	377	378	13.0	97.4
2025-09-02T05:53	10	4	0.1	4	4	378	0.2	378	378	12.9	97.3
2025-09-02T05:54	10	4	0.1	4	4	378	0.2	377	378	12.9	97.4
2025-09-02T05:55	10	5	0.1	4	5	378	0.2	377	378	12.9	97.4
2025-09-02T05:56	10	5	0.1	4	5	378	0.3	377	378	12.9	97.4
2025-09-02T05:57	10	5	0.1	5	5	378	0.2	377	378	12.9	97.5
2025-09-02T05:58	10	5	0.1	5	5	378	0.2	378	379	12.9	97.6
2025-09-02T05:59	10	5	0.1	5	6	378	0.2	378	379	12.9	97.7
2025-09-02T06:00	10	6	0.1	6	6	379	0.2	378	379	13.0	97.7
2025-09-02T06:01	10	6	0.1	6	6	379	0.2	378	379	13.0	97.9
2025-09-02T06:02	10	6	0.1	6	7	379	0.2	378	379	12.9	97.7
2025-09-02T06:03	10	7	0.1	7	7	379	0.2	379	379	12.9	97.1
2025-09-02T06:04	10	7	0.1	7	7	379	0.2	378	379	13.0	96.7
2025-09-02T06:05	10	7	0.1	7	7	379	0.2	378	379	13.0	96.1
2025-09-02T06:06	10	7	0.1	7	7	379	0.3	378	380	13.1	96.1
2025-09-02T06:07	10	7	0.1	7	8	379	0.2	379	380	13.1	96.0
2025-09-02T06:08	10	7	0.1	7	7	379	0.3	379	380	13.1	96.3
2025-09-02T06:09	10	7	0.1	7	7	379	0.3	379	380	13.1	96.3
2025-09-02T06:10	10	7	0.1	7	7	379	0.2	379	380	13.1	96.2
2025-09-02T06:11	10	7	0.1	7	7	379	0.2	379	380	13.1	96.4
2025-09-02T06:12	10	7	0.1	7	7	379	0.2	378	380	13.1	96.8
2025-09-02T06:13	10	7	0.1	7	7	379	0.2	379	380	13.1	96.8
2025-09-02T06:14	10	7	0.1	6	7	379	0.2	379	380	13.1	96.9
2025-09-02T06:15	10	6	0.1	6	7	379	0.2	379	380	13.1	97.0
2025-09-02T06:16	10	6	0.1	6	6	379	0.2	379	379	13.1	97.0
2025-09-02T06:17	10	6	0.1	6	6	379	0.2	379	379	13.1	96.9
2025-09-02T06:18	10	6	0.1	6	6	379	0.2	378	379	13.1	97.0
2025-09-02T06:19	10	6	0.1	6	6	379	0.2	378	379	13.1	97.1
2025-09-02T06:20	10	6	0.1	6	6	379	0.2	378	379	13.1	97.0
2025-09-02T06:21	10	6	0.1	6	6	379	0.3	378	380	13.1	96.9
2025-09-02T06:22	10	6	0.1	6	6	379	0.2	379	379	13.1	96.8
2025-09-02T06:23	10	6	0.1	6	6	379	0.2	379	380	13.1	97.2
2025-09-02T06:24	10	6	0.1	6	6	379	0.2	379	380	13.1	97.2
2025-09-02T06:25	10	6	0.1	5	6	379	0.2	379	380	13.1	97.2
2025-09-02T06:26	10	5	0.1	5	6	379	0.2	379	380	13.1	97.5
2025-09-02T06:27	10	5	0.1	5	6	379	0.2	379	380	13.1	97.4
2025-09-02T06:28	10	5	0.1	5	5	379	0.2	379	380	13.1	97.2
2025-09-02T06:29	10	5	0.1	5	5	379	0.2	379	380	13.2	97.4
2025-09-02T06:30	10	5	0.1	5	5	379	0.1	379	379	13.1	97.1
2025-09-02T06:31	10	5	0.1	4	5	379	0.3	379	380	13.2	97.2
2025-09-02T06:32	10	5	0.1	4	5	379	0.3	379	380	13.2	97.0
2025-09-02T06:33	10	5	0.1	4	5	379	0.3	378	380	13.2	97.2
2025-09-02T06:34	10	5	0.1	4	5	379	0.3	379	380	13.2	97.4
2025-09-02T06:35	10	5	0.1	5	5	379	0.2	379	380	13.2	97.3
2025-09-02T06:36	10	5	0.1	5	5	379	0.3	379	380	13.2	97.2
2025-09-02T06:37	10	6	0.1	5	6	379	0.2	379	380	13.2	96.9
2025-09-02T06:38	10	6	0.2	6	6	380	0.2	379	380	13.2	96.7
2025-09-02T06:39	10	6	0.2	6	7	380	0.2	379	380	13.2	96.6
2025-09-02T06:40	10	7	0.2	7	7	380	0.2	379	380	13.2	96.6
2025-09-02T06:41	10	8	0.2	7	8	380	0.2	380	380	13.2	96.4
2025-09-02T06:42	10	8	0.2	8	9	380	0.2	380	381	13.2	96.3
2025-09-02T06:43	10	9	0.3	9	10	381	0.3	380	381	13.2	96.4
2025-09-02T06:44	10	10	0.3	9	11	381	0.2	380	381	13.3	96.9
2025-09-02T06:45	10	11	0.3	10	12	381	0.2	381	382	13.2	96.9
2025-09-02T06:46	10	12	0.3	11	12	381	0.2	381	382	13.3	96.8
2025-09-02T06:47	10	13	0.3	12	13	382	0.3	381	382	13.3	96.9
2025-09-02T06:48	10	14	0.2	13	14	383	0.2	382	383	13.3	97.1
2025-09-02T06:49	10	14	0.2	14	15	383	0.2	383	383	13.3	97.0
2025-09-02T06:50	10	15	0.2	15	15	383	0.2	382	383	13.2	96.9
2025-09-02T06:51	10	15	0.1	15	16	383	0.3	382	383	13.3	96.3
2025-09-02T06:52	10	16	0.2	16	16	383	0.2	383	384	13.4	96.6
2025-09-02T06:53	10	17	0.2	16	17	383	0.2	383	384	13.3	96.4
2025-09-02T06:54	10	17	0.3	17	18	383	0.2	383	384	13.3	95.8
2025-09-02T06:55	10	18	0.3	18	19	384	0.2	383	384	13.3	95.6
2025-09-02T06:56	10	19	0.3	19	20	383	0.2	383	384	13.3	95.5
2025-09-02T06:57	10	20	0.3	20	21	384	0.2	383	384	13.4	95.2
2025-09-02T06:58	10	21	0.3	21	22	384	0.2	383	384	13.4	94.7
2025-09-02T06:59	10	22	0.2	22	23	385	0.3	384	385	13.5	94.7
2025-09-02T07:00	10	23	0.2	23	23	385	0.3	384	386	13.5	94.6
2025-09-02T07:01	10	23	0.1	23	23	385	0.3	385	386	13.5	95.1
2025-09-02T07:02	10	23	0.2	22	23	385	0.2	385	385	13.5	94.5
2025-09-02T07:03	10	22	0.2	22	22	385	0.2	384	385	13.5	93.8
2025-09-02T07:04	10	21	0.1	21	22	385	0.2	384	385	13.5	93.6
2025-09-02T07:05	10	21	0.1	21	22	384	0.2	384	385	13.6	93.3
2025-09-02T07:06	10	22	0.2	22	22	384	0.3	384	385	13.6	93.0
2025-09-02T07:07	10	23	0.3	22	23	384	0.2	384	385	13.6	93.0
2025-09-02T07:08	10	24	0.4	23	25	385	0.3	384	385	13.6	92.9
2025-09-02T07:09	10	25	0.4	25	26	385	0.3	384	386	13.7	93.0
2025-09-02T07:10	10	27	0.4	26	27	386	0.3	385	386	13.7	93.6
2025-09-02T07:11	10	28	0.3	27	29	386	0.3	385	387	13.7	93.6
2025-09-02T07:12	10	29	0.3	29	30	386	0.2	386	387	13.7	93.6
2025-09-02T07:13	10	30	0.2	29	30	386	0.3	386	387	13.7	93.4
2025-09-02T07:14	10	31	0.2	30	31	387	0.3	386	388	13.7	93.3
2025-09-02T07:15	10	31	0.2	31	31	387	0.3	387	388	13.8	93.8
2025-09-02T07:16	10	33	1.0	31	35	387	0.3	386	388	13.7	93.6
2025-09-02T07:17	10	35	0.3	34	35	387	0.2	387	388	13.7	93.6
2025-09-02T07:18	10	34	0.2	34	35	388	0.2	387	388	13.8	93.9
2025-09-02T07:19	10	35	0.4	35	36	388	0.4	388	389	13.8	94.2
2025-09-02T07:20	10	37	1.1	35	39	389	0.3	388	389	13.8	93.9
2025-09-02T07:21	10	42	3.4	37	48	390	0.5	389	391	13.9	94.3
2025-09-02T07:22	10	38	6.7	30	48	391	0.5	390	391	13.9	94.1
2025-09-02T07:23	10	29	0.6	29	31	389	0.5	388	390	13.8	93.5
2025-09-02T07:24	10	28	0.3	28	29	388	0.3	388	389	13.8	93.3
2025-09-02T07:25	10	27	0.3	27	28	388	0.5	387	389	13.8	93.0
2025-09-02T07:26	10	26	0.3	26	27	388	0.2	387	388	13.8	92.2
2025-09-02T07:27	10	25	0.3	25	26	387	0.3	387	388	13.9	92.6
2025-09-02T07:28	10	24	0.4	23	25	387	0.4	386	387	13.9	91.7
2025-09-02T07:29	10	23	0.2	23	24	387	0.3	386	387	13.9	92.0
2025-09-02T07:30	10	23	0.1	23	23	387	0.4	386	387	13.9	92.7
2025-09-02T07:31	10	23	0.2	23	24	387	0.2	386	387	13.9	92.8
2025-09-02T07:32	10	24	0.4	24	25	387	0.3	386	388	13.9	92.8
2025-09-02T07:33	10	26	0.5	25	27	387	0.3	387	388	13.9	93.2
2025-09-02T07:34	10	28	0.5	27	28	388	0.3	387	388	14.0	93.8
2025-09-02T07:35	10	29	0.5	28	30	388	0.3	387	388	13.9	93.6
2025-09-02T07:36	10	31	0.7	30	33	389	0.4	388	390	14.0	93.6
2025-09-02T07:37	10	34	0.7	32	35	389	0.4	388	390	13.9	93.9
2025-09-02T07:38	10	36	0.6	35	37	390	0.3	389	391	14.0	94.3
2025-09-02T07:39	10	37	0.3	37	38	391	0.3	390	391	13.9	93.8
2025-09-02T07:40	10	38	0.1	38	38	391	0.2	390	391	13.9	93.1
2025-09-02T07:41	10	38	0.4	38	39	391	0.3	391	392	14.0	93.3
2025-09-02T07:42	10	40	0.3	39	41	392	0.2	391	392	14.0	93.0
2025-09-02T07:43	10	42	1.0	41	44	392	0.4	391	393	14.0	92.1
2025-09-02T07:44	10	45	0.7	44	47	393	0.4	392	394	14.1	92.7
2025-09-02T07:45	10	45	0.9	44	47	393	0.4	393	394	14.1	92.3
2025-09-02T07:46	10	44	3.0	40	48	394	0.4	393	395	14.1	91.5
2025-09-02T07:47	10	39	0.6	38	40	393	0.4	392	394	14.2	92.0
2025-09-02T07:48	10	38	0.1	38	38	393	0.3	392	393	14.2	91.6
2025-09-02T07:49	10	38	0.1	38	38	392	0.3	391	392	14.2	91.5
2025-09-02T07:50	10	38	0.1	38	38	392	0.3	392	393	14.2	92.1
2025-09-02T07:51	10	38	0.6	38	39	393	0.3	392	393	14.3	92.3
2025-09-02T07:52	10	41	1.7	39	45	393	0.3	392	393	14.3	90.2
2025-09-02T07:53	10	44	1.5	42	47	394	0.3	393	394	14.4	90.4
2025-09-02T07:54	10	43	2.0	40	47	393	0.5	392	394	14.3	89.8
2025-09-02T07:55	10	39	2.5	37	44	393	0.5	392	393	14.3	89.9
2025-09-02T07:56	10	38	1.2	36	40	392	0.3	392	393	14.3	88.9
2025-09-02T07:57	10	37	0.7	36	38	393	0.2	392	393	14.4	89.1
2025-09-02T07:58	10	36	0.1	36	36	393	0.2	392	393	14.5	90.3
2025-09-02T07:59	10	36	0.2	35	36	393	0.3	392	393	14.4	89.9
2025-09-02T08:00	10	35	0.3	34	35	392	0.7	391	393	14.4	88.1
2025-09-02T08:01	10	33	0.5	32	34	391	0.4	390	392	14.4	87.4
2025-09-02T08:02	10	31	0.5	30	32	391	0.3	390	391	14.4	87.5
2025-09-02T08:03	10	30	0.5	29	30	391	0.2	390	391	14.4	87.5
2025-09-02T08:04	10	28	0.5	27	29	391	0.3	390	391	14.4	87.0
2025-09-02T08:05	10	27	0.3	26	27	390	0.6	389	391	14.4	85.7
2025-09-02T08:06	10	26	0.2	26	26	389	0.2	389	389	14.4	86.1
2025-09-02T08:07	10	26	0.1	26	26	389	0.3	388	390	14.4	86.7
2025-09-02T08:08	10	27	0.3	26	27	390	0.3	389	390	14.4	87.5
2025-09-02T08:09	10	28	0.4	27	28	389	0.4	388	390	14.4	86.6
2025-09-02T08:10	10	30	0.7	28	31	390	0.4	389	391	14.4	86.9
2025-09-02T08:11	10	32	1.1	31	34	390	0.4	390	391	14.4	87.4
2025-09-02T08:12	10	36	1.2	34	38	391	0.3	390	392	14.4	86.2
2025-09-02T08:13	10	40	0.9	38	41	392	0.5	391	393	14.4	86.9
2025-09-02T08:14	10	43	1.0	41	45	392	0.6	392	394	14.4	87.1
2025-09-02T08:15	10	44	0.2	44	45	394	0.6	393	395	14.4	88.2
2025-09-02T08:16	10	44	0.3	44	45	394	0.6	393	395	14.4	87.2
2025-09-02T08:17	10	45	1.3	42	46	394	0.4	394	395	14.4	86.1
2025-09-02T08:18	10	43	2.4	41	48	394	0.3	393	394	14.5	87.2
2025-09-02T08:19	10	38	2.6	35	45	393	0.4	393	394	14.5	87.2
2025-09-02T08:20	10	34	0.6	33	35	392	0.3	392	393	14.5	86.4
2025-09-02T08:21	10	33	0.2	32	33	393	0.3	392	393	14.5	87.1
2025-09-02T08:22	10	33	0.2	33	34	392	0.3	391	393	14.5	86.5
2025-09-02T08:23	10	33	0.1	33	34	392	0.3	391	393	14.5	86.1
2025-09-02T08:24	10	33	0.2	33	34	393	0.2	392	393	14.5	86.7
2025-09-02T08:25	10	34	0.3	33	35	393	0.4	392	394	14.6	86.9
2025-09-02T08:26	10	35	0.3	34	35	392	0.5	391	394	14.6	85.7
2025-09-02T08:27	10	36	0.5	35	37	392	0.3	392	393	14.5	85.1
2025-09-02T08:28	10	38	0.5	37	39	392	0.6	391	393	14.6	84.8
2025-09-02T08:29	10	40	0.8	39	41	393	0.4	393	394	14.6	85.1
2025-09-02T08:30	10	42	0.5	41	43	394	0.2	394	395	14.6	84.8
2025-09-02T08:31	10	43	0.2	43	44	394	0.5	393	396	14.6	84.9
2025-09-02T08:32	10	42	0.7	41	43	396	0.5	395	396	14.6	84.9
2025-09-02T08:33	10	39	0.8	38	41	395	0.3	394	395	14.6	84.9
2025-09-02T08:34	10	37	0.6	36	38	395	0.6	393	395	14.6	84.9
2025-09-02T08:35	10	36	0.3	35	36	394	0.3	393	395	14.6	84.9
2025-09-02T08:36	10	35	0.3	34	35	394	0.5	392	395	14.6	84.9
2025-09-02T08:37	10	34	0.4	33	34	393	0.4	392	394	14.6	84.9
2025-09-02T08:38	10	32	0.6	31	33	393	0.5	392	394	14.6	85.1
2025-09-02T08:39	10	30	0.6	29	31	393	0.3	392	393	14.6	86.2
2025-09-02T08:40	10	28	0.6	27	29	393	0.4	392	393	14.6	86.6
2025-09-02T08:41	10	26	0.5	26	27	392	0.3	391	393	14.6	86.6
2025-09-02T08:42	10	25	0.4	24	26	392	0.3	391	392	14.6	87.5
2025-09-02T08:43	10	24	0.3	23	24	391	0.5	390	392	14.6	87.6
2025-09-02T08:44	10	23	0.2	22	23	391	0.3	390	392	14.6	87.7
2025-09-02T08:45	10	22	0.2	22	22	391	0.3	390	391	14.5	87.6
2025-09-02T08:46	10	22	0.1	22	22	391	0.2	390	391	14.6	86.2
2025-09-02T08:47	10	22	0.1	22	22	391	0.3	390	391	14.6	87.3
2025-09-02T08:48	10	22	0.2	22	23	391	0.2	390	391	14.6	87.6
2025-09-02T08:49	10	23	0.3	23	24	391	0.3	390	391	14.6	86.5
2025-09-02T08:50	10	25	0.4	24	25	391	0.3	390	391	14.6	85.5
2025-09-02T08:51	10	26	0.4	25	27	391	0.4	390	392	14.6	85.3
2025-09-02T08:52	10	27	0.4	27	28	392	0.4	391	392	14.6	86.2
2025-09-02T08:53	10	29	0.2	28	29	393	0.4	392	394	14.7	86.8
2025-09-02T08:54	10	29	0.1	29	29	393	0.2	393	394	14.8	87.7
2025-09-02T08:55	10	29	0.1	29	30	393	0.6	392	394	14.7	87.3
2025-09-02T08:56	10	30	0.2	30	30	392	0.3	391	393	14.6	86.7
2025-09-02T08:57	10	31	0.3	30	31	392	0.3	391	393	14.6	87.8
2025-09-02T08:58	10	32	0.4	31	32	393	0.2	392	393	14.6	89.0
2025-09-02T08:59	10	33	0.4	33	34	391	1.0	390	393	14.5	89.6
2025-09-02T09:00	10	35	0.4	34	35	391	0.3	390	392	14.4	91.1
2025-09-02T09:01	10	36	0.2	35	36	391	0.3	391	392	14.3	92.0
2025-09-02T09:02	10	36	0.3	35	36	391	0.3	390	392	14.3	91.1
2025-09-02T09:03	10	36	0.3	36	37	390	0.6	389	391	14.1	91.6
2025-09-02T09:04	10	35	0.6	34	36	389	0.3	388	390	13.9	90.6
2025-09-02T09:05	10	33	0.4	32	34	389	0.4	388	389	13.9	90.9
2025-09-02T09:06	10	32	0.2	31	32	389	0.3	389	390	13.9	91.4
2025-09-02T09:07	10	31	0.1	31	32	389	0.3	388	389	13.9	90.4
2025-09-02T09:08	10	32	0.2	31	32	388	0.4	387	389	13.9	90.3
2025-09-02T09:09	10	33	0.7	32	34	389	0.3	388	390	13.9	90.5
2025-09-02T09:10	10	36	0.9	34	37	389	0.4	388	390	13.9	88.6
2025-09-02T09:11	10	39	1.0	37	41	390	0.6	388	391	14.0	89.1
2025-09-02T09:12	10	42	0.9	41	44	390	0.3	389	391	13.9	87.6
2025-09-02T09:13	10	45	0.7	44	46	390	0.4	389	391	13.9	87.8
2025-09-02T09:14	10	47	0.5	46	48	391	0.3	390	391	13.9	86.7
2025-09-02T09:15	10	49	0.3	48	49	391	0.4	390	392	13.9	85.4
2025-09-02T09:16	10	49	0.1	49	49	392	0.4	391	392	14.0	86.4
2025-09-02T09:17	10	49	0.1	49	50	392	0.5	391	393	14.1	87.1
2025-09-02T09:18	10	50	0.2	49	50	392	0.4	392	393	14.0	86.8
2025-09-02T09:19	10	50	0.4	50	51	392	0.4	391	393	14.1	87.2
2025-09-02T09:20	10	52	0.5	51	53	392	0.4	391	393	14.0	84.8
2025-09-02T09:21	10	54	0.6	53	55	392	0.6	390	393	14.0	84.1
2025-09-02T09:22	10	56	0.6	55	57	392	0.6	391	394	14.0	83.8
2025-09-02T09:23	10	58	0.5	57	59	395	0.9	393	396	14.1	86.4
2025-09-02T09:24	10	59	0.2	59	59	395	0.4	394	396	14.3	86.7
2025-09-02T09:25	10	59	0.2	59	60	395	0.2	394	395	14.1	84.9
2025-09-02T09:26	10	61	1.8	59	65	395	0.2	395	396	14.1	85.1
2025-09-02T09:27	10	59	2.4	57	65	396	0.4	395	396	14.2	84.8
2025-09-02T09:28	10	58	0.3	57	58	395	0.2	394	395	14.1	84.7
2025-09-02T09:29	10	60	0.9	58	61	395	0.3	395	396	14.2	83.9
2025-09-02T09:30	10	61	0.4	60	62	395	0.3	394	396	14.2	81.1
2025-09-02T09:31	10	63	0.3	62	63	395	0.2	395	396	14.2	81.0
2025-09-02T09:32	10	64	0.4	63	65	397	0.9	395	398	14.2	82.2
2025-09-02T09:33	10	66	0.6	64	67	398	0.6	396	399	14.3	83.4
2025-09-02T09:34	10	66	0.3	65	66	397	0.4	396	398	14.2	81.9
2025-09-02T09:35	10	65	1.0	64	67	398	0.6	397	399	14.3	83.4
2025-09-02T09:36	10	63	0.5	62	64	397	0.3	397	398	14.2	83.2
2025-09-02T09:37	10	63	1.4	62	66	397	0.5	396	398	14.3	83.4
2025-09-02T09:38	10	66	0.9	65	67	397	0.2	397	398	14.2	82.4
2025-09-02T09:39	10	62	1.9	60	66	397	0.3	396	398	14.2	80.4
2025-09-02T09:40	10	62	0.3	61	62	398	0.3	397	398	14.3	81.3
2025-09-02T09:41	10	65	1.5	62	67	398	0.3	397	399	14.4	79.9
2025-09-02T09:42	10	73	4.5	67	85	399	0.9	398	401	14.5	80.4
2025-09-02T09:43	10	102	5.8	86	111	403	1.1	401	405	14.5	80.7
2025-09-02T09:44	10	89	11.5	79	112	405	0.6	404	406	14.6	79.4
2025-09-02T09:45	10	81	3.7	78	92	404	0.8	402	405	14.6	79.2
2025-09-02T09:46	10	97	5.0	92	107	405	1.0	403	407	14.7	78.2
2025-09-02T09:47	10	87	5.0	83	103	406	0.5	405	407	14.7	79.0
2025-09-02T09:48	10	88	5.8	83	107	406	0.4	405	407	14.8	80.3
2025-09-02T09:49	10	135	16.2	110	168	410	2.6	405	415	14.8	80.1
2025-09-02T09:50	10	97	2.0	95	107	410	1.5	409	414	14.9	79.5
2025-09-02T09:51	10	103	13.8	83	127	410	0.8	408	411	14.8	78.2
2025-09-02T09:52	10	79	1.9	77	82	408	0.3	408	409	14.9	80.4
2025-09-02T09:53	10	78	1.9	76	82	408	0.7	407	409	15.1	81.1
2025-09-02T09:54	10	77	1.4	76	82	407	0.6	406	408	15.1	81.0
2025-09-02T09:55	10	81	1.6	79	84	406	0.8	405	407	15.0	79.3
2025-09-02T09:56	10	83	2.4	80	89	405	0.2	405	406	14.8	80.5
2025-09-02T09:57	10	88	2.1	86	94	406	0.7	405	408	14.8	81.7
2025-09-02T09:58	10	103	6.7	94	120	410	1.2	407	413	14.9	81.0
2025-09-02T09:59	10	146	7.6	122	155	417	2.5	412	420	15.1	81.3
2025-09-02T10:00	10	132	5.5	122	144	418	0.5	417	420	15.1	81.1
2025-09-02T10:01	10	120	9.3	108	138	419	1.1	417	421	15.1	82.0
2025-09-02T10:02	10	135	12.3	99	149	423	0.6	421	423	15.3	82.6
2025-09-02T10:03	10	86	2.6	84	97	419	2.2	415	423	15.4	83.3
2025-09-02T10:04	10	98	8.7	87	114	414	1.2	412	416	15.4	81.6
2025-09-02T10:05	10	113	10.4	101	135	415	1.0	413	417	15.3	79.6
2025-09-02T10:06	10	174	16.8	138	197	422	3.3	416	427	15.3	79.4
2025-09-02T10:07	10	186	9.8	165	197	428	1.2	425	430	15.4	79.6
2025-09-02T10:08	10	105	21.9	87	163	425	3.4	421	431	15.5	80.9
2025-09-02T10:09	10	165	15.6	126	177	427	3.3	422	432	15.9	82.1
2025-09-02T10:10	10	175	0.5	174	176	430	0.9	428	431	15.9	78.5
2025-09-02T10:11	10	166	22.0	92	177	429	1.3	426	431	15.9	77.4
2025-09-02T10:12	10	76	5.2	69	90	420	4.1	414	428	16.0	78.3
2025-09-02T10:13	10	75	10.8	67	103	413	1.5	411	417	15.8	77.7
2025-09-02T10:14	10	103	8.2	90	117	416	0.7	414	417	15.8	78.1
2025-09-02T10:15	10	155	19.1	104	176	422	3.0	415	426	15.8	77.7
2025-09-02T10:16	10	168	12.8	139	177	425	1.2	423	427	15.9	77.0
2025-09-02T10:17	10	175	0.5	174	176	428	0.8	426	429	16.0	76.5
2025-09-02T10:18	10	176	2.9	168	181	429	0.6	427	429	16.2	76.0
2025-09-02T10:19	10	163	17.2	128	184	430	0.7	429	431	16.4	73.4
2025-09-02T10:20	10	149	8.4	127	161	430	1.2	428	432	16.5	73.5
2025-09-02T10:21	10	110	22.6	83	156	425	3.0	422	430	16.4	73.8
2025-09-02T10:22	10	104	22.5	71	137	423	2.6	418	426	16.4	73.1
2025-09-02T10:23	10	76	3.7	72	84	418	1.1	416	419	16.4	74.0
2025-09-02T10:24	10	71	4.3	65	77	415	0.8	414	417	16.4	74.5
2025-09-02T10:25	10	66	0.2	65	66	412	2.0	408	416	16.3	72.4
2025-09-02T10:26	10	66	0.1	66	67	409	0.3	409	410	16.0	72.0
2025-09-02T10:27	10	67	0.8	66	69	410	0.6	409	412	16.1	74.4
2025-09-02T10:28	10	64	2.8	61	69	410	0.3	409	410	16.0	72.8
2025-09-02T10:29	10	58	1.4	56	61	409	0.6	408	410	15.9	74.1
2025-09-02T10:30	10	52	2.0	49	55	407	0.3	407	408	15.9	73.5
2025-09-02T10:31	10	46	1.7	43	49	406	0.4	405	407	15.9	73.7
2025-09-02T10:32	10	41	1.2	39	43	405	0.6	404	406	16.0	74.7
2025-09-02T10:33	10	37	1.2	34	39	404	0.5	403	405	16.0	70.5
2025-09-02T10:34	10	32	1.2	31	35	402	0.3	401	403	16.1	71.6
2025-09-02T10:35	10	28	1.2	26	31	400	0.9	397	402	16.0	73.1
2025-09-02T10:36	10	25	1.0	23	26	397	0.3	397	398	15.7	73.6
2025-09-02T10:37	10	22	0.5	22	23	397	0.5	396	398	15.7	74.1
2025-09-02T10:38	10	21	0.2	21	22	395	0.4	394	396	15.6	73.3
2025-09-02T10:39	10	21	0.1	21	22	394	0.3	393	395	15.4	71.5
2025-09-02T10:40	10	22	0.2	22	22	393	1.0	391	394	15.4	73.2
2025-09-02T10:41	10	22	0.2	22	23	392	0.2	391	392	15.2	75.0
2025-09-02T10:42	10	23	0.1	23	23	391	0.4	391	392	14.9	76.4
2025-09-02T10:43	10	23	0.1	23	23	392	0.5	391	393	14.9	78.0
2025-09-02T10:44	10	23	0.1	23	23	391	0.5	391	392	14.9	78.3
2025-09-02T10:45	10	23	0.1	23	23	391	0.3	390	392	14.7	77.0
2025-09-02T10:46	10	23	0.1	23	23	391	0.5	390	392	14.7	77.4
2025-09-02T10:47	10	23	0.1	23	24	391	0.7	390	393	14.7	78.8
2025-09-02T10:48	10	24	0.1	23	24	392	0.5	391	392	14.6	78.7
2025-09-02T10:49	10	23	0.1	23	24	391	0.3	391	392	14.6	78.7
2025-09-02T10:50	10	23	0.1	23	23	390	0.3	390	391	14.6	78.6
2025-09-02T10:51	10	23	0.1	23	23	390	0.3	389	391	14.5	81.1
2025-09-02T10:52	10	23	0.1	23	23	390	0.4	390	391	14.5	82.9
2025-09-02T10:53	10	23	0.1	23	23	390	0.3	389	390	14.3	83.9
2025-09-02T10:54	10	23	0.1	23	23	389	0.3	389	390	14.2	84.6
2025-09-02T10:55	10	23	0.7	23	27	390	0.3	389	390	14.1	85.1
2025-09-02T10:56	10	24	0.1	23	24	389	0.3	389	390	14.1	84.8
2025-09-02T10:57	10	24	0.2	24	24	389	0.3	389	390	14.0	85.9
2025-09-02T10:58	10	25	0.2	24	25	389	0.3	388	390	14.0	84.9
2025-09-02T10:59	10	26	0.4	25	27	390	0.3	389	391	13.9	86.7
2025-09-02T11:00	10	27	0.5	26	28	389	0.4	388	390	13.9	86.3
2025-09-02T11:01	10	29	0.5	28	30	390	0.3	389	390	13.9	86.3
2025-09-02T11:02	10	31	0.6	30	32	390	0.3	389	390	13.8	86.0
2025-09-02T11:03	10	33	0.7	32	34	390	0.7	389	391	13.9	88.5
2025-09-02T11:04	10	36	0.8	34	37	390	0.3	390	391	13.8	88.2
2025-09-02T11:05	10	38	0.8	37	40	391	0.5	390	391	13.8	88.7
2025-09-02T11:06	10	41	0.7	40	42	391	0.3	390	392	13.8	89.6
2025-09-02T11:07	10	43	0.4	42	44	391	0.3	391	392	13.8	89.6
2025-09-02T11:08	10	44	0.3	43	44	392	0.4	391	393	13.8	88.7
2025-09-02T11:09	10	45	0.5	44	46	393	0.3	392	393	13.9	89.4
2025-09-02T11:10	10	47	0.6	46	48	393	0.5	392	394	13.8	88.9
2025-09-02T11:11	10	49	0.5	48	50	393	0.3	393	394	13.8	89.5
2025-09-02T11:12	10	50	0.5	49	51	394	0.5	393	395	13.8	89.2
2025-09-02T11:13	10	52	0.3	51	52	395	0.3	394	396	13.9	87.1
2025-09-02T11:14	10	54	1.2	52	56	395	0.6	394	396	14.0	87.4
2025-09-02T11:15	10	54	0.4	53	55	396	0.4	396	397	14.0	87.3
2025-09-02T11:16	10	58	3.1	54	67	397	0.3	396	398	14.2	86.9
2025-09-02T11:17	10	111	29.1	68	178	402	3.8	396	410	14.2	84.6
2025-09-02T11:18	10	188	2.1	180	191	416	4.1	407	421	14.3	84.8
2025-09-02T11:19	10	186	10.7	154	194	423	1.6	419	425	14.6	85.9
2025-09-02T11:20	10	190	2.2	187	194	427	1.3	425	429	14.6	85.9
2025-09-02T11:21	10	183	2.3	179	187	428	0.8	427	430	14.8	84.0
2025-09-02T11:22	10	174	2.7	169	179	429	0.3	428	430	15.0	85.0
2025-09-02T11:23	10	164	2.7	160	169	427	1.3	426	430	14.9	77.7
2025-09-02T11:24	10	158	1.3	156	160	428	0.5	427	429	15.1	78.5
2025-09-02T11:25	10	150	7.9	137	157	426	1.0	425	429	15.1	78.3
2025-09-02T11:26	10	134	23.5	85	153	423	1.4	421	427	15.3	77.6
2025-09-02T11:27	10	150	1.8	144	151	425	0.8	424	426	15.3	75.5
2025-09-02T11:28	10	152	1.1	149	154	427	0.6	426	428	15.5	75.6
2025-09-02T11:29	10	126	19.1	98	157	423	2.1	420	428	15.5	77.0
2025-09-02T11:30	10	94	37.4	55	152	421	4.5	413	426	15.6	77.1
2025-09-02T11:31	10	53	0.9	52	55	413	2.3	409	417	15.5	75.2
2025-09-02T11:32	10	54	3.0	51	63	409	0.9	407	411	15.4	75.8
2025-09-02T11:33	10	86	20.7	64	159	410	1.5	408	414	15.4	76.8
2025-09-02T11:34	10	163	6.6	144	169	421	3.8	413	426	15.6	77.2
2025-09-02T11:35	10	165	1.0	163	166	428	1.6	425	430	15.9	75.5
2025-09-02T11:36	10	162	0.3	162	163	427	1.4	425	430	15.9	74.7
2025-09-02T11:37	10	162	0.1	162	163	427	0.6	426	428	15.8	75.4
2025-09-02T11:38	10	163	0.5	162	164	429	1.3	426	431	15.8	75.0
2025-09-02T11:39	10	136	29.4	88	163	428	3.2	423	432	15.8	75.5
2025-09-02T11:40	10	123	21.5	87	159	424	1.0	422	425	15.8	76.3
2025-09-02T11:41	10	154	2.5	151	159	428	0.9	425	429	15.8	76.6
2025-09-02T11:42	10	148	1.4	146	150	427	0.5	426	428	15.9	75.5
2025-09-02T11:43	10	144	0.8	143	146	428	0.4	427	429	16.1	75.7
2025-09-02T11:44	10	143	0.3	142	143	426	0.9	425	428	16.1	75.6
2025-09-02T11:45	10	142	0.2	142	143	425	0.4	424	426	16.1	74.2
2025-09-02T11:46	10	142	0.1	141	142	426	0.5	425	427	16.0	74.2
2025-09-02T11:47	10	142	0.1	141	142	429	0.5	427	430	16.1	75.6
2025-09-02T11:48	10	142	0.1	141	142	429	0.5	428	430	16.2	75.0
2025-09-02T11:49	10	141	0.1	141	141	432	0.8	430	433	16.3	76.2
2025-09-02T11:50	10	141	0.1	141	142	431	1.8	427	434	16.7	78.0
2025-09-02T11:51	10	142	0.1	142	142	428	0.6	427	429	16.4	75.3
2025-09-02T11:52	10	142	0.1	142	142	430	0.6	429	431	16.4	74.6
2025-09-02T11:53	10	142	0.2	142	143	431	1.1	429	433	16.5	73.2
2025-09-02T11:54	10	143	0.2	143	143	432	0.3	432	433	16.7	73.8
2025-09-02T11:55	10	143	0.1	143	143	433	0.7	432	435	16.8	74.1
2025-09-02T11:56	10	143	0.1	143	143	432	0.6	431	433	16.7	71.4
2025-09-02T11:57	10	143	0.1	143	143	433	0.5	432	434	16.7	72.3
2025-09-02T11:58	10	143	0.1	143	143	434	0.2	434	435	17.1	74.9
2025-09-02T11:59	10	143	0.1	143	143	434	0.4	433	435	17.0	71.9
2025-09-02T12:00	10	143	0.1	143	144	433	0.7	431	434	17.0	73.0
2025-09-02T12:01	10	144	0.1	143	144	432	0.7	431	433	16.9	71.2
2025-09-02T12:02	10	144	0.1	143	144	433	0.9	432	435	16.9	69.1
2025-09-02T12:03	10	144	0.2	143	144	433	0.5	432	435	17.1	72.1
2025-09-02T12:04	10	144	0.2	143	144	431	0.6	430	433	17.0	66.9
2025-09-02T12:05	10	144	0.2	144	144	433	0.8	431	434	17.3	68.7
2025-09-02T12:06	10	144	0.2	144	145	433	0.4	432	434	17.5	66.5
2025-09-02T12:07	10	144	0.2	144	145	433	0.6	432	435	17.5	63.3
2025-09-02T12:08	10	145	0.3	145	146	433	0.5	432	433	17.3	61.8
2025-09-02T12:09	10	145	0.2	145	146	431	0.5	430	432	17.2	64.0
2025-09-02T12:10	10	146	0.2	145	146	433	1.0	431	435	17.1	65.4
2025-09-02T12:11	10	146	0.2	146	146	437	1.0	435	438	17.3	67.1
2025-09-02T12:12	10	146	0.2	146	147	435	0.3	434	435	17.5	65.8
2025-09-02T12:13	10	146	0.2	146	147	437	1.2	435	439	17.4	65.7
2025-09-02T12:14	10	145	3.7	135	147	437	1.3	435	440	17.4	63.0
2025-09-02T12:15	10	141	10.0	113	149	436	0.6	435	438	17.3	63.1
2025-09-02T12:16	10	146	0.5	145	147	437	0.8	435	438	17.4	64.6
2025-09-02T12:17	10	145	0.3	144	145	438	0.5	437	439	17.4	65.2
2025-09-02T12:18	10	144	0.1	144	144	439	1.3	436	440	17.8	68.5
2025-09-02T12:19	10	145	0.1	144	145	436	1.1	434	437	17.7	64.9
2025-09-02T12:20	10	145	0.1	144	145	436	0.6	435	437	17.5	65.8
2025-09-02T12:21	10	145	0.1	145	145	435	1.3	432	437	17.7	67.1
2025-09-02T12:22	10	145	0.1	145	145	436	0.7	434	436	17.6	66.7
2025-09-02T12:23	10	145	0.1	145	145	436	0.7	434	437	17.5	65.1
2025-09-02T12:24	10	145	0.1	145	145	435	0.3	434	436	17.6	65.5
2025-09-02T12:25	10	145	0.1	144	145	437	0.7	435	438	17.6	65.0
2025-09-02T12:26	10	144	0.1	144	144	438	0.3	438	439	17.7	66.7
2025-09-02T12:27	10	144	0.1	144	144	436	0.9	435	439	17.8	65.6
2025-09-02T12:28	10	144	0.1	144	145	436	1.0	434	437	17.8	66.2
2025-09-02T12:29	10	145	0.1	145	145	435	1.3	434	438	17.7	65.7
2025-09-02T12:30	10	145	0.1	144	145	439	0.7	438	440	17.9	66.5
2025-09-02T12:31	10	145	0.1	144	145	437	1.5	435	440	17.8	65.7
2025-09-02T12:32	10	145	0.1	144	145	438	0.7	436	439	18.0	67.8
2025-09-02T12:33	10	145	0.1	144	145	436	0.4	436	437	18.0	65.1
2025-09-02T12:34	10	145	0.2	144	145	437	0.4	435	437	18.0	66.5
2025-09-02T12:35	10	145	0.1	145	145	435	1.0	434	437	17.7	63.2
2025-09-02T12:36	10	145	0.1	144	145	439	0.8	436	440	17.7	64.5
2025-09-02T12:37	10	145	0.1	145	145	438	0.3	437	438	17.8	64.6
2025-09-02T12:38	10	145	0.1	144	145	439	1.4	437	442	17.8	65.4
2025-09-02T12:39	10	145	0.1	144	145	442	0.5	441	443	18.0	66.7
2025-09-02T12:40	10	145	0.1	144	145	440	0.6	440	442	18.1	65.9
2025-09-02T12:41	10	145	0.1	144	145	442	0.9	440	444	18.1	65.4
2025-09-02T12:42	10	145	0.1	145	145	443	1.6	441	445	18.5	67.1
2025-09-02T12:43	10	145	0.1	145	145	438	2.0	436	442	18.2	62.7
2025-09-02T12:44	10	144	0.2	144	145	438	0.9	437	440	17.9	61.0
2025-09-02T12:45	10	144	0.1	144	144	440	0.9	439	442	17.9	61.8
2025-09-02T12:46	10	144	0.1	143	144	442	0.6	441	443	18.1	62.2
2025-09-02T12:47	10	143	0.1	143	144	440	1.8	438	443	18.2	62.4
2025-09-02T12:48	10	143	0.1	143	144	441	0.9	439	442	18.1	62.3
2025-09-02T12:49	10	143	0.1	143	143	438	2.2	435	443	18.2	63.3
2025-09-02T12:50	10	143	0.1	143	143	438	1.5	436	441	18.0	61.7
2025-09-02T12:51	10	143	0.1	143	143	440	0.8	438	441	18.2	63.8
2025-09-02T12:52	10	143	0.1	143	144	439	0.6	437	440	18.1	63.8
2025-09-02T12:53	10	143	0.1	143	144	439	1.5	437	442	18.2	64.1
2025-09-02T12:54	10	143	0.1	143	144	439	1.1	438	441	18.3	62.3
2025-09-02T12:55	10	143	0.1	143	144	437	1.1	436	440	18.2	61.8
2025-09-02T12:56	10	143	0.1	143	144	438	0.4	437	439	18.1	62.6
2025-09-02T12:57	10	144	0.2	143	144	437	1.2	435	440	18.1	62.8
2025-09-02T12:58	10	144	0.2	143	144	441	0.8	439	442	18.1	62.3
2025-09-02T12:59	10	144	0.2	143	144	440	1.1	439	443	18.2	62.6
2025-09-02T13:00	10	144	0.1	143	144	442	0.6	441	444	18.5	64.3
2025-09-02T13:01	10	144	0.2	143	144	443	0.7	441	444	18.7	63.8
2025-09-02T13:02	10	145	0.3	144	145	442	0.3	441	443	18.5	62.2
2025-09-02T13:03	10	145	0.2	144	145	444	0.8	442	445	18.5	62.1
2025-09-02T13:04	10	145	0.1	145	145	441	1.0	440	443	18.5	61.0
2025-09-02T13:05	10	146	0.4	145	146	442	0.6	441	443	18.5	61.8
2025-09-02T13:06	10	147	0.4	146	148	442	0.9	441	444	18.6	59.4
2025-09-02T13:07	10	148	0.1	148	149	445	0.6	443	446	18.5	60.6
2025-09-02T13:08	10	148	0.1	148	149	444	0.4	443	444	18.6	60.0
2025-09-02T13:09	10	149	0.1	148	149	442	0.4	442	443	18.5	60.4
2025-09-02T13:10	10	148	0.6	147	149	441	1.3	440	444	18.5	60.4
2025-09-02T13:11	10	147	0.1	146	147	444	1.3	441	446	18.4	61.5
2025-09-02T13:12	10	145	0.6	144	146	445	0.3	445	446	18.6	61.3
2025-09-02T13:13	10	144	0.4	143	144	445	0.5	443	446	18.6	60.2
2025-09-02T13:14	10	143	0.1	143	143	443	0.5	442	444	18.6	58.7
2025-09-02T13:15	10	143	0.1	143	143	443	1.3	441	445	18.6	60.2
2025-09-02T13:16	10	143	0.1	143	143	440	1.7	438	443	18.7	60.6
2025-09-02T13:17	10	144	0.4	143	145	441	1.0	439	443	18.5	60.5
2025-09-02T13:18	10	140	8.3	120	147	443	0.8	442	445	18.6	59.8
2025-09-02T13:19	10	144	4.7	123	147	445	0.8	443	446	18.6	58.9
2025-09-02T13:20	10	142	0.3	142	143	445	0.5	444	446	18.7	60.3
2025-09-02T13:21	10	143	0.2	142	143	445	0.3	445	446	18.7	60.3
2025-09-02T13:22	10	143	0.1	142	143	446	0.5	445	447	18.8	60.6
2025-09-02T13:23	10	142	0.2	142	143	447	0.3	446	447	19.0	61.5
2025-09-02T13:24	10	142	0.2	141	142	445	0.5	444	446	19.2	57.6
2025-09-02T13:25	10	141	0.2	141	142	443	1.0	442	445	19.2	58.4
2025-09-02T13:26	10	141	0.1	141	141	444	0.6	443	445	19.1	56.9
2025-09-02T13:27	10	141	0.1	141	141	443	0.9	441	445	19.0	56.8
2025-09-02T13:28	10	141	0.1	141	142	441	0.5	439	442	18.9	54.5
2025-09-02T13:29	10	142	0.2	141	142	440	0.3	439	440	18.9	54.5
2025-09-02T13:30	10	141	0.1	141	141	440	0.8	439	443	18.9	53.1
2025-09-02T13:31	10	141	0.1	141	141	441	0.5	441	442	18.9	52.8
2025-09-02T13:32	10	142	0.5	141	143	442	0.8	441	444	18.9	53.0
2025-09-02T13:33	10	143	0.2	143	143	443	0.9	442	445	19.0	54.8
2025-09-02T13:34	10	143	0.4	142	143	443	0.6	442	444	19.1	55.3
2025-09-02T13:35	10	141	0.4	141	142	445	1.2	443	447	19.2	54.0
2025-09-02T13:36	10	140	0.5	139	140	446	0.6	445	447	19.2	54.9
2025-09-02T13:37	10	138	0.3	138	139	445	1.9	442	447	19.2	54.1
2025-09-02T13:38	10	138	0.1	138	138	442	0.4	441	442	19.0	52.2
2025-09-02T13:39	10	138	0.1	138	138	441	0.7	440	442	19.1	53.1
2025-09-02T13:40	10	138	0.1	138	138	443	1.2	441	445	19.1	53.2
2025-09-02T13:41	10	138	0.2	138	138	443	1.3	441	445	19.3	53.7
2025-09-02T13:42	10	138	0.3	137	138	440	1.1	438	442	19.1	51.0
2025-09-02T13:43	10	137	0.1	137	137	440	1.2	438	442	19.2	51.6
2025-09-02T13:44	10	137	0.1	137	137	440	0.7	438	441	19.2	51.2
2025-09-02T13:45	10	137	0.1	137	137	441	0.5	440	442	19.2	51.2
2025-09-02T13:46	10	137	0.2	136	137	442	1.5	438	444	19.3	53.3
2025-09-02T13:47	10	136	0.2	136	136	439	0.8	438	441	19.1	50.9
2025-09-02T13:48	10	135	0.2	135	136	440	1.1	439	442	19.1	52.2
2025-09-02T13:49	10	135	0.1	135	135	442	0.6	441	443	19.3	53.6
2025-09-02T13:50	10	135	0.2	134	135	443	0.7	442	445	19.3	52.9
2025-09-02T13:51	10	135	0.2	134	135	445	0.6	443	446	19.5	53.2
2025-09-02T13:52	10	134	0.2	134	135	444	0.6	443	445	19.5	53.0
2025-09-02T13:53	10	134	0.2	134	135	445	0.8	443	446	19.7	55.1
2025-09-02T13:54	10	136	0.7	135	137	443	0.4	442	444	19.5	53.5
2025-09-02T13:55	10	48	37.9	24	138	431	8.3	421	445	19.4	53.0
2025-09-02T13:56	10	56	30.7	23	105	425	2.7	421	429	19.1	50.7
2025-09-02T13:57	10	35	4.0	27	42	421	0.8	419	422	19.0	53.0
2025-09-02T13:58	10	29	2.9	27	39	418	1.5	416	420	19.0	53.3
2025-09-02T13:59	10	65	42.8	28	145	419	4.4	415	430	19.0	53.0
2025-09-02T14:00	10	142	1.8	138	145	435	3.7	426	440	19.0	52.5
2025-09-02T14:01	10	84	34.6	32	141	434	5.3	427	441	19.1	53.4
2025-09-02T14:02	10	137	5.3	119	140	437	3.3	430	441	19.2	52.6
2025-09-02T14:03	10	119	25.0	66	138	440	1.6	435	442	19.4	52.3
2025-09-02T14:04	10	108	25.0	66	139	437	2.0	435	440	19.3	52.8
2025-09-02T14:05	10	132	10.0	111	145	440	2.6	434	443	19.4	53.0
2025-09-02T14:06	10	143	3.2	125	145	443	0.8	440	444	19.5	53.6
2025-09-02T14:07	10	143	0.4	143	144	440	0.8	439	442	19.4	49.7
2025-09-02T14:08	10	145	0.5	144	146	444	1.6	442	447	19.5	51.4
2025-09-02T14:09	10	94	19.8	69	144	440	4.0	435	447	19.6	51.3
2025-09-02T14:10	10	131	9.6	103	138	441	1.8	437	443	19.8	51.9
2025-09-02T14:11	10	135	0.5	134	136	439	0.7	437	441	19.6	52.3
2025-09-02T14:12	10	134	0.5	133	135	439	1.0	438	441	19.8	52.5
2025-09-02T14:13	10	134	1.2	132	136	440	0.5	439	440	19.8	51.3
2025-09-02T14:14	10	89	37.7	36	137	432	5.8	425	440	19.5	49.6
2025-09-02T14:15	10	138	1.4	135	140	435	2.6	430	439	19.6	50.2
2025-09-02T14:16	10	140	0.9	139	141	440	1.1	438	441	19.6	50.7
2025-09-02T14:17	10	143	1.1	141	145	442	0.9	440	443	19.9	51.0
2025-09-02T14:18	10	145	2.0	139	146	443	0.6	442	444	19.8	50.4
2025-09-02T14:19	10	143	7.3	109	148	444	0.5	443	445	19.7	49.6
2025-09-02T14:20	10	137	14.9	94	148	443	1.3	440	445	19.8	50.5
2025-09-02T14:21	10	75	34.2	28	141	433	6.0	423	442	19.8	49.4
2025-09-02T14:22	10	32	7.1	27	59	421	2.7	418	427	19.7	50.3
2025-09-02T14:23	10	114	16.6	64	128	426	4.5	418	433	19.5	50.1
2025-09-02T14:24	10	130	3.2	127	136	434	1.8	431	438	19.7	50.7
2025-09-02T14:25	10	139	1.2	136	140	439	1.2	437	441	19.8	50.3
2025-09-02T14:26	10	139	0.8	137	140	439	0.7	438	441	19.7	49.5
2025-09-02T14:27	10	136	1.0	134	137	441	0.9	440	443	19.7	50.7
2025-09-02T14:28	10	133	1.0	130	134	440	0.6	439	442	19.8	50.9
2025-09-02T14:29	10	130	0.4	129	131	441	0.5	440	442	19.7	50.5
2025-09-02T14:30	10	127	1.0	126	129	440	0.7	439	442	19.6	51.1
2025-09-02T14:31	10	115	13.0	84	125	441	1.2	437	442	19.9	53.0
2025-09-02T14:32	10	44	26.2	28	110	431	5.4	422	440	20.0	52.6
2025-09-02T14:33	10	47	10.2	31	67	421	1.5	419	425	19.8	51.1
2025-09-02T14:34	10	72	41.1	30	123	420	3.9	416	428	19.5	49.6
2025-09-02T14:35	10	124	2.1	117	125	430	2.2	426	433	19.4	50.2
2025-09-02T14:36	10	124	0.3	123	124	433	1.0	432	436	19.6	51.1
2025-09-02T14:37	10	122	1.8	118	124	434	1.2	432	436	19.8	51.2
2025-09-02T14:38	10	124	2.0	118	125	431	1.1	430	433	19.8	49.5
2025-09-02T14:39	10	124	0.3	123	124	433	1.0	432	435	19.9	48.9
2025-09-02T14:40	10	122	0.3	122	123	433	0.9	432	434	19.9	47.3
2025-09-02T14:41	10	122	0.6	120	122	436	1.7	433	439	19.9	48.9
2025-09-02T14:42	10	119	0.2	119	120	434	2.2	431	438	20.2	49.0
2025-09-02T14:43	10	120	0.5	119	121	433	1.1	431	435	20.1	49.3
2025-09-02T14:44	10	118	1.5	116	121	435	0.4	434	436	20.1	48.2
2025-09-02T14:45	10	110	7.2	97	119	433	2.0	428	436	20.2	48.1
2025-09-02T14:46	10	104	2.6	97	107	428	0.8	426	429	19.9	46.3
2025-09-02T14:47	10	105	1.3	103	107	428	0.4	428	429	19.9	48.0
2025-09-02T14:48	10	111	2.4	106	116	428	0.6	427	430	19.8	47.9
2025-09-02T14:49	10	118	0.7	116	119	432	1.2	429	434	19.9	49.1
2025-09-02T14:50	10	117	1.9	111	119	433	0.7	432	434	20.0	49.8
2025-09-02T14:51	10	87	10.6	70	110	429	3.1	425	434	20.0	47.2
2025-09-02T14:52	10	103	4.6	90	110	428	1.0	425	429	19.8	47.0
2025-09-02T14:53	10	114	1.4	110	116	430	1.0	428	432	19.9	47.8
2025-09-02T14:54	10	115	0.5	114	116	430	0.6	429	431	19.9	46.3
2025-09-02T14:55	10	115	0.3	115	116	430	0.5	429	431	19.9	45.4
2025-09-02T14:56	10	114	0.4	114	115	430	0.6	429	431	20.1	46.3
2025-09-02T14:57	10	113	0.3	113	114	430	0.4	429	430	20.0	45.9
2025-09-02T14:58	10	113	0.1	113	113	429	0.7	428	431	20.1	46.8
2025-09-02T14:59	10	112	0.3	112	113	430	0.6	429	431	20.0	46.3
2025-09-02T15:00	10	109	1.1	107	111	430	0.2	430	431	20.0	46.9
2025-09-02T15:01	10	109	0.8	108	111	431	0.5	429	431	20.1	47.3
2025-09-02T15:02	10	107	1.0	105	109	428	0.9	427	430	19.9	45.8
2025-09-02T15:03	10	106	0.5	105	107	429	0.9	427	431	19.8	45.7
2025-09-02T15:04	10	105	0.3	105	106	430	0.6	429	431	19.9	46.6
2025-09-02T15:05	10	105	0.2	104	105	430	0.3	429	430	20.0	46.7
2025-09-02T15:06	10	104	0.8	102	105	430	0.4	429	431	20.0	46.8
2025-09-02T15:07	10	103	0.8	101	104	431	0.8	429	433	20.1	47.6
2025-09-02T15:08	10	104	1.4	101	106	432	0.5	431	433	20.3	48.5
2025-09-02T15:09	10	106	0.2	106	106	431	0.4	430	432	20.2	47.1
2025-09-02T15:10	10	106	0.4	105	106	432	0.3	431	432	20.1	47.8
2025-09-02T15:11	10	102	1.4	100	105	430	0.5	429	431	20.2	47.9
2025-09-02T15:12	10	105	0.3	104	106	429	0.3	429	430	20.3	48.0
2025-09-02T15:13	10	105	0.1	104	105	430	0.9	428	432	20.3	47.9
2025-09-02T15:14	10	104	0.2	104	105	430	1.0	429	432	20.3	47.2
2025-09-02T15:15	10	104	0.2	103	104	430	0.6	429	432	20.2	46.9
2025-09-02T15:16	10	103	0.2	103	103	429	0.4	429	430	20.3	48.6
2025-09-02T15:17	10	103	0.2	102	103	429	0.9	427	430	20.2	47.1
2025-09-02T15:18	10	102	0.2	102	102	427	0.5	426	428	20.1	47.1
2025-09-02T15:19	10	102	0.1	102	102	427	0.2	427	428	20.1	48.2
2025-09-02T15:20	10	102	0.1	101	102	426	0.6	425	428	20.2	48.7
2025-09-02T15:21	10	101	0.3	101	101	429	1.1	426	430	20.3	48.0
2025-09-02T15:22	10	101	0.1	100	101	428	1.2	426	430	20.2	47.5
2025-09-02T15:23	10	100	0.2	100	100	426	0.6	425	427	20.1	46.9
2025-09-02T15:24	10	99	0.2	99	100	427	0.7	426	428	20.1	47.6
2025-09-02T15:25	10	99	0.1	99	99	427	0.8	426	428	20.2	47.7
2025-09-02T15:26	10	99	0.1	98	99	426	0.6	425	427	20.0	47.0
2025-09-02T15:27	10	98	0.2	98	98	427	0.5	426	428	20.1	47.8
2025-09-02T15:28	10	98	0.1	97	98	428	0.3	427	428	20.1	48.1
2025-09-02T15:29	10	97	0.1	97	98	428	0.2	428	429	20.2	48.0
2025-09-02T15:30	10	97	0.2	97	97	427	0.7	426	429	20.1	46.4
2025-09-02T15:31	10	97	0.1	96	97	427	1.0	426	430	20.2	48.5
2025-09-02T15:32	10	96	0.2	96	96	429	0.6	427	430	20.4	48.7
2025-09-02T15:33	10	96	0.2	95	96	427	0.9	425	428	20.2	46.7
2025-09-02T15:34	10	95	0.1	95	95	427	0.6	426	428	20.2	46.6
2025-09-02T15:35	10	95	0.2	94	95	426	0.5	425	428	20.1	46.7
2025-09-02T15:36	10	94	0.2	94	95	427	0.3	426	428	20.3	47.0
2025-09-02T15:37	10	94	0.2	94	94	428	0.6	427	429	20.4	48.2
2025-09-02T15:38	10	94	0.1	93	94	426	0.4	425	427	20.4	47.3
2025-09-02T15:39	10	93	0.2	93	93	427	0.7	426	428	20.5	48.6
2025-09-02T15:40	10	93	0.1	92	93	425	2.0	422	428	20.4	47.5
2025-09-02T15:41	10	92	0.3	92	93	423	0.8	422	425	20.2	47.4
2025-09-02T15:42	10	91	0.2	91	92	425	0.3	424	426	20.3	49.4
2025-09-02T15:43	10	88	1.4	87	91	424	0.5	423	425	20.2	47.3
2025-09-02T15:44	10	84	2.6	81	87	424	0.3	423	424	20.2	48.6
2025-09-02T15:45	10	85	1.2	82	86	425	0.7	423	426	20.2	47.8
2025-09-02T15:46	10	88	1.7	84	89	423	0.6	422	424	20.1	47.0
2025-09-02T15:47	10	89	0.4	88	89	424	0.6	423	425	20.1	47.4
2025-09-02T15:48	10	89	0.2	89	90	424	0.3	424	425	20.2	47.4
2025-09-02T15:49	10	88	0.3	88	89	425	0.3	424	425	20.2	47.7
2025-09-02T15:50	10	87	0.4	87	88	422	0.6	421	424	20.1	47.0
2025-09-02T15:51	10	87	0.2	86	87	423	0.8	421	424	20.1	47.2
2025-09-02T15:52	10	87	0.2	86	87	423	0.7	422	424	20.1	47.8
2025-09-02T15:53	10	86	0.2	86	86	424	0.3	423	424	20.2	47.7
2025-09-02T15:54	10	86	0.1	85	86	423	1.2	421	424	20.2	48.3
2025-09-02T15:55	10	85	0.2	85	86	421	0.2	420	422	20.2	46.5
2025-09-02T15:56	10	85	0.2	84	85	422	0.5	421	423	20.2	47.1
2025-09-02T15:57	10	84	0.2	84	85	423	0.4	422	423	20.3	48.3
2025-09-02T15:58	10	84	0.3	83	84	422	0.5	421	423	20.4	47.1
2025-09-02T15:59	10	82	0.4	82	83	422	0.5	421	422	20.3	46.9
2025-09-02T16:00	10	83	0.1	82	83	421	0.4	421	422	20.4	47.3
2025-09-02T16:01	10	82	0.2	82	83	423	0.3	422	424	20.4	48.1
2025-09-02T16:02	10	81	0.5	81	82	422	0.7	421	424	20.4	47.9
2025-09-02T16:03	10	80	0.3	79	81	423	0.4	422	423	20.5	48.8
2025-09-02T16:04	10	80	0.6	79	81	423	0.4	422	423	20.5	50.0
2025-09-02T16:05	10	81	0.2	80	81	423	0.4	422	423	20.6	49.3
2025-09-02T16:06	10	81	0.1	80	81	423	0.3	422	423	20.5	48.9
2025-09-02T16:07	10	81	0.1	81	81	421	1.2	420	423	20.5	47.0
2025-09-02T16:08	10	81	0.2	81	82	421	0.4	420	421	20.5	46.0
2025-09-02T16:09	10	82	0.2	81	82	421	0.3	420	422	20.5	46.7
2025-09-02T16:10	10	66	20.4	31	83	420	1.3	417	422	20.5	47.8
2025-09-02T16:11	10	35	2.2	32	39	415	1.7	413	419	20.5	44.6
2025-09-02T16:12	10	33	11.1	22	60	412	1.0	410	414	20.4	44.0
2025-09-02T16:13	10	76	4.2	61	79	416	1.3	412	417	20.3	44.2
2025-09-02T16:14	10	73	2.3	71	77	417	0.7	416	419	20.3	44.3
2025-09-02T16:15	10	76	0.8	74	77	419	0.5	418	419	20.3	45.6
2025-09-02T16:16	10	51	14.3	37	74	415	2.1	412	419	20.3	45.7
2025-09-02T16:17	10	62	8.4	43	70	415	1.2	413	417	20.3	46.9
2025-09-02T16:18	10	65	2.7	60	68	417	0.3	416	418	20.3	47.1
2025-09-02T16:19	10	63	0.4	63	64	416	1.0	414	417	20.3	47.1
2025-09-02T16:20	10	54	5.0	47	63	414	0.6	413	415	20.2	46.1
2025-09-02T16:21	10	46	1.0	45	47	413	0.4	412	414	20.2	47.2
2025-09-02T16:22	10	48	1.4	45	49	412	0.5	411	413	20.2	46.4
2025-09-02T16:23	10	54	4.3	48	60	412	0.7	411	413	20.1	45.7
2025-09-02T16:24	10	54	2.2	51	59	413	0.3	412	413	20.1	46.5
2025-09-02T16:25	10	58	2.1	55	61	414	0.9	413	416	20.1	46.3
2025-09-02T16:26	10	62	1.3	60	64	414	0.4	414	415	20.2	46.0
2025-09-02T16:27	10	67	1.8	64	69	414	0.3	413	415	20.2	44.7
2025-09-02T16:28	10	68	0.7	67	69	415	0.5	414	416	20.2	45.5
2025-09-02T16:29	10	69	0.1	69	70	416	0.8	415	418	20.2	45.9
2025-09-02T16:30	10	69	0.2	69	70	418	0.5	417	419	20.3	47.0
2025-09-02T16:31	10	69	1.0	67	70	418	0.3	417	419	20.3	47.8
2025-09-02T16:32	10	64	3.8	58	69	417	0.8	415	418	20.3	47.1
2025-09-02T16:33	10	69	0.4	67	69	416	0.2	416	416	20.2	47.0
2025-09-02T16:34	10	68	0.3	67	68	415	0.3	415	416	20.2	46.6
2025-09-02T16:35	10	67	0.3	66	67	415	0.3	414	416	20.2	46.4
2025-09-02T16:36	10	66	0.5	65	66	415	0.5	414	416	20.2	46.7
2025-09-02T16:37	10	64	0.8	63	65	414	0.3	414	415	20.2	46.5
2025-09-02T16:38	10	63	0.6	62	64	414	0.3	414	415	20.1	46.8
2025-09-02T16:39	10	63	0.2	63	64	415	0.5	414	416	20.1	49.2
2025-09-02T16:40	10	63	0.2	63	63	416	0.2	415	416	20.1	48.5
2025-09-02T16:41	10	63	0.2	62	63	415	0.3	415	416	20.1	48.5
2025-09-02T16:42	10	60	1.7	57	62	415	0.5	414	416	20.1	49.0
2025-09-02T16:43	10	48	6.6	35	57	413	0.8	411	414	20.0	47.6
2025-09-02T16:44	10	21	7.1	12	34	410	1.4	407	412	20.0	49.4
2025-09-02T16:45	10	11	0.7	10	12	406	0.9	405	408	20.0	48.9
2025-09-02T16:46	10	9	0.4	9	10	405	0.6	404	406	20.0	49.4
2025-09-02T16:47	10	8	0.3	8	9	403	0.4	403	404	19.9	49.6
2025-09-02T16:48	10	7	0.3	7	8	402	0.5	401	403	19.8	50.8
2025-09-02T16:49	10	7	0.2	6	7	402	0.3	401	402	19.7	49.2
2025-09-02T16:50	10	6	0.1	6	6	401	0.3	400	402	19.6	49.1
2025-09-02T16:51	10	6	0.1	6	6	400	0.2	400	401	19.6	47.9
2025-09-02T16:52	10	6	0.2	5	6	400	0.3	399	400	19.5	48.5
2025-09-02T16:53	10	5	0.1	5	6	399	0.3	399	400	19.4	48.8
2025-09-02T16:54	10	5	0.1	5	5	399	0.2	398	399	19.3	49.6
2025-09-02T16:55	10	5	0.1	5	5	398	0.3	397	399	19.3	49.8
2025-09-02T16:56	10	5	0.1	5	5	398	0.3	397	398	19.2	50.2
2025-09-02T16:57	10	5	0.1	5	5	398	0.2	397	398	19.2	49.8
2025-09-02T16:58	10	5	0.1	5	5	397	0.2	397	398	19.1	50.2
2025-09-02T16:59	10	5	0.1	5	6	397	0.2	396	397	19.1	50.3
2025-09-02T17:00	10	6	0.1	5	6	397	0.2	396	397	19.0	51.0
2025-09-02T17:01	10	6	0.1	5	6	396	0.2	396	397	19.0	51.4
2025-09-02T17:02	10	6	0.2	6	6	396	0.3	395	397	19.0	51.4
2025-09-02T17:03	10	7	0.2	6	7	396	0.3	396	397	18.9	51.7
2025-09-02T17:04	10	7	0.2	7	7	396	0.3	395	397	18.9	51.2
2025-09-02T17:05	10	8	0.2	7	8	397	0.2	396	397	19.0	51.2
2025-09-02T17:06	10	9	0.2	8	9	397	0.5	395	398	18.9	51.9
2025-09-02T17:07	10	9	0.2	9	10	397	0.4	396	398	18.9	51.9
2025-09-02T17:08	10	10	0.2	9	10	397	0.3	396	398	18.8	52.2
2025-09-02T17:09	10	11	0.2	10	11	398	0.4	397	398	18.8	52.5
2025-09-02T17:10	10	11	0.3	11	12	398	0.4	397	399	18.7	52.9
2025-09-02T17:11	10	12	0.3	12	13	399	0.4	398	399	18.8	52.2
2025-09-02T17:12	10	13	0.2	13	14	399	0.3	399	400	18.8	52.7
2025-09-02T17:13	10	14	0.3	13	14	399	0.4	399	401	18.8	52.3
2025-09-02T17:14	10	15	0.2	14	16	400	0.3	399	401	18.7	52.7
2025-09-02T17:15	10	15	0.1	15	15	400	0.2	400	401	18.7	52.6
2025-09-02T17:16	10	15	0.2	15	15	400	0.3	400	401	18.7	53.6
2025-09-02T17:17	10	14	0.2	14	15	400	0.2	400	401	18.6	53.3
2025-09-02T17:18	10	14	0.2	13	14	400	0.2	400	401	18.6	53.6
2025-09-02T17:19	10	13	0.2	13	13	400	0.3	399	400	18.6	53.9
2025-09-02T17:20	10	12	0.2	12	13	399	0.2	398	399	18.6	54.7
2025-09-02T17:21	10	11	0.2	11	12	399	0.2	398	399	18.5	56.4
2025-09-02T17:22	10	11	0.2	10	11	399	0.2	398	399	18.5	55.0
2025-09-02T17:23	10	10	0.2	9	10	398	0.3	397	399	18.6	54.4
2025-09-02T17:24	10	9	0.2	9	10	398	0.2	397	398	18.6	53.7
2025-09-02T17:25	10	9	0.1	9	9	397	0.2	397	398	18.6	53.8
2025-09-02T17:26	10	9	0.4	8	10	396	0.2	396	397	18.5	56.4
2025-09-02T17:27	10	10	0.7	8	11	396	0.2	396	397	18.4	56.3
2025-09-02T17:28	10	9	0.4	8	9	396	0.3	395	397	18.5	54.9
2025-09-02T17:29	10	8	0.7	7	9	396	0.3	395	396	18.4	56.0
2025-09-02T17:30	10	7	0.2	6	7	395	0.2	395	395	18.4	55.3
2025-09-02T17:31	10	7	0.2	6	7	395	0.3	394	396	18.3	56.4
2025-09-02T17:32	10	6	0.2	6	7	395	0.3	394	396	18.4	55.1
2025-09-02T17:33	10	6	0.3	6	7	395	0.2	394	395	18.4	55.0
2025-09-02T17:34	10	8	0.9	7	10	395	0.3	394	396	18.3	55.0
2025-09-02T17:35	10	12	1.4	10	15	395	0.3	394	395	18.3	55.7
2025-09-02T17:36	10	14	0.8	12	15	396	0.3	395	396	18.3	55.0
2025-09-02T17:37	10	12	0.5	12	13	396	0.2	395	396	18.3	55.4
2025-09-02T17:38	10	16	1.6	13	18	396	0.3	395	397	18.3	54.8
2025-09-02T17:39	10	18	0.8	16	19	396	0.2	396	397	18.3	55.3
2025-09-02T17:40	10	16	0.2	16	17	396	0.2	396	397	18.2	56.0
2025-09-02T17:41	10	17	0.1	17	17	396	0.2	396	397	18.2	56.3
2025-09-02T17:42	10	16	0.4	15	17	396	0.2	395	396	18.2	55.4
2025-09-02T17:43	10	14	0.4	14	15	396	0.2	395	396	18.3	55.0
2025-09-02T17:44	10	12	1.1	10	14	395	0.2	395	396	18.3	55.0
2025-09-02T17:45	10	8	1.0	6	10	395	0.3	394	395	18.3	55.9
2025-09-02T17:46	10	5	0.4	5	6	394	0.3	393	394	18.2	56.0
2025-09-02T17:47	10	5	0.0	5	5	394	0.2	393	394	18.2	56.8
2025-09-02T17:48	10	5	0.1	5	5	394	0.2	393	394	18.1	57.1
2025-09-02T17:49	10	5	0.1	5	5	393	0.2	393	394	18.1	57.1
2025-09-02T17:50	10	5	0.1	5	5	393	0.2	393	394	18.1	57.3
2025-09-02T17:51	10	5	0.1	5	5	393	0.2	393	394	18.0	57.5
2025-09-02T17:52	10	5	0.1	5	5	393	0.2	393	393	18.0	57.1
2025-09-02T17:53	10	5	0.1	5	5	393	0.2	392	393	17.9	57.7
2025-09-02T17:54	10	5	0.1	4	5	392	0.2	392	393	18.0	57.0
2025-09-02T17:55	10	4	0.1	4	5	392	0.3	391	393	17.9	57.7
2025-09-02T17:56	10	4	0.1	4	4	392	0.2	391	392	17.9	57.9
2025-09-02T17:57	10	4	0.2	3	4	391	0.3	391	392	17.9	57.7
2025-09-02T17:58	10	3	0.1	3	3	391	0.2	390	391	17.9	57.4
2025-09-02T17:59	10	3	1.3	2	11	390	0.2	390	391	17.8	58.8
2025-09-02T18:00	10	2	0.2	2	2	390	0.3	389	390	17.7	59.0
2025-09-02T18:01	10	2	0.1	2	2	389	0.2	389	390	17.6	59.4
2025-09-02T18:02	10	2	0.1	1	2	389	0.3	388	390	17.6	59.6
2025-09-02T18:03	10	2	0.1	1	2	389	0.3	388	389	17.6	60.0
2025-09-02T18:04	10	1	0.1	1	2	388	0.3	388	389	17.5	60.0
2025-09-02T18:05	10	1	0.1	1	2	388	0.3	388	389	17.5	59.7
2025-09-02T18:06	10	1	0.1	1	2	388	0.3	387	388	17.5	61.2
2025-09-02T18:07	10	1	0.1	1	2	387	0.2	387	388	17.4	60.8
2025-09-02T18:08	10	1	0.1	1	1	387	0.2	386	387	17.5	60.2
2025-09-02T18:09	10	1	0.1	1	1	386	0.3	386	387	17.5	60.0
2025-09-02T18:10	10	1	0.1	0	1	386	0.3	385	386	17.5	59.8
2025-09-02T18:11	10	1	0.1	0	1	386	0.2	385	386	17.5	59.3
2025-09-02T18:12	10	1	0.1	0	1	385	0.2	385	386	17.4	59.7
2025-09-02T18:13	10	0	0.1	0	1	385	0.2	385	386	17.5	59.1
2025-09-02T18:14	10	0	0.1	0	1	386	0.2	385	386	17.5	59.0
2025-09-02T18:15	10	0	0.1	0	1	385	0.3	385	386	17.5	58.5
2025-09-02T18:16	10	0	0.1	0	0	385	0.2	385	386	17.5	59.0
2025-09-02T18:17	10	0	0.1	0	1	385	0.2	385	386	17.4	60.2
2025-09-02T18:18	10	0	0.1	0	0	385	0.2	385	385	17.3	60.6
2025-09-02T18:19	10	0	0.0	0	0	384	0.3	384	385	17.2	61.2
2025-09-02T18:20	10	0	0.1	0	0	384	0.2	384	385	17.2	60.2
2025-09-02T18:21	10	0	0.1	0	0	384	0.2	384	384	17.2	60.0
2025-09-02T18:22	10	0	0.1	0	0	384	0.2	383	384	17.2	59.8
2025-09-02T18:23	10	0	0.1	0	0	383	0.3	383	384	17.2	59.2
2025-09-02T18:24	10	0	0.0	0	0	383	0.2	382	384	17.2	59.4
2025-09-02T18:25	10	0	0.1	0	0	382	0.2	382	383	17.1	59.5
2025-09-02T18:26	10	0	0.0	0	0	382	0.3	381	382	17.0	60.3
2025-09-02T18:27	10	0	0.0	0	0	381	0.2	381	382	17.0	59.6
2025-09-02T18:28	10	0	0.1	0	0	381	0.2	381	382	17.0	60.2
2025-09-02T18:29	10	0	0.1	0	0	381	0.2	380	381	17.0	59.9
2025-09-02T18:30	10	0	0.1	0	0	380	0.2	380	381	16.9	60.2
2025-09-02T18:31	10	0	0.1	0	0	380	0.2	380	381	17.0	59.2
2025-09-02T18:32	10	0	0.1	0	0	380	0.3	379	381	17.1	58.6
2025-09-02T18:33	10	0	0.1	0	1	381	0.3	380	381	17.1	58.6
2025-09-02T18:34	10	0	0.1	0	1	381	0.3	380	382	17.1	58.7
2025-09-02T18:35	10	0	0.1	0	0	381	0.2	380	381	17.1	59.0
2025-09-02T18:36	10	0	0.1	0	0	381	0.2	380	381	17.0	59.4
2025-09-02T18:37	10	0	0.1	0	0	381	0.3	380	381	17.0	59.8
2025-09-02T18:38	10	0	0.2	0	1	381	0.4	380	382	16.8	61.2
2025-09-02T18:39	10	0	0.2	0	1	381	0.3	380	381	16.8	61.1
2025-09-02T18:40	10	0	0.2	0	1	381	0.3	380	381	16.7	61.7
2025-09-02T18:41	10	0	0.1	0	0	380	0.4	379	381	16.7	62.1
2025-09-02T18:42	10	0	0.1	0	0	379	0.2	379	380	16.6	62.4
2025-09-02T18:43	10	0	0.1	0	0	380	0.3	379	380	16.6	62.1
2025-09-02T18:44	10	0	0.1	0	1	380	0.3	379	380	16.7	62.2
2025-09-02T18:45	10	0	0.1	0	0	379	0.2	379	380	16.5	63.5
2025-09-02T18:46	10	0	0.1	0	0	379	0.2	378	379	16.4	64.9
2025-09-02T18:47	10	0	0.1	0	0	379	0.2	378	379	16.4	65.3
2025-09-02T18:48	10	0	0.1	0	0	378	0.2	378	379	16.3	66.2
2025-09-02T18:49	10	0	0.1	0	0	379	0.2	378	379	16.2	67.7
2025-09-02T18:50	10	0	0.1	0	0	378	0.2	377	379	15.9	69.6
2025-09-02T18:51	10	0	0.1	0	0	378	0.2	377	378	15.8	69.4
2025-09-02T18:52	10	0	0.1	0	0	377	0.2	377	378	15.7	69.5
2025-09-02T18:53	10	0	0.0	0	0	378	0.5	377	379	15.7	68.9
2025-09-02T18:54	10	0	0.1	0	0	378	0.3	377	378	15.8	68.3
2025-09-02T18:55	10	0	0.1	0	0	377	0.2	377	378	15.7	69.0
2025-09-02T18:56	10	0	0.1	0	0	377	0.3	376	377	15.7	69.2
2025-09-02T18:57	10	0	0.1	0	0	377	0.3	376	378	15.8	69.4
2025-09-02T18:58	10	0	0.1	0	0	377	0.3	376	377	15.8	69.9
2025-09-02T18:59	10	0	0.1	0	0	377	0.2	376	377	15.8	69.7
2025-09-02T19:00	10	0	0.1	0	0	376	0.3	376	377	15.9	69.0
2025-09-02T19:01	10	0	0.1	0	0	376	0.3	375	377	15.9	67.6
2025-09-02T19:02	10	0	0.1	0	0	376	0.3	376	377	15.9	66.5
2025-09-02T19:03	10	0	0.1	0	0	376	0.3	375	377	16.0	65.7
2025-09-02T19:04	10	0	0.1	0	0	376	0.3	376	377	16.0	65.4
2025-09-02T19:05	10	0	0.1	0	0	376	0.3	376	377	16.0	65.2
2025-09-02T19:06	10	0	0.1	0	0	378	0.5	376	379	16.0	65.5
2025-09-02T19:07	10	0	0.1	0	0	378	0.2	378	379	16.1	65.2
2025-09-02T19:08	10	0	0.1	0	0	378	0.3	378	379	16.2	64.7
2025-09-02T19:09	10	0	0.1	0	0	378	0.2	378	379	16.1	65.0
2025-09-02T19:10	10	0	0.1	0	0	378	0.4	377	378	16.1	65.0
2025-09-02T19:11	10	0	0.1	0	0	377	0.4	376	378	16.0	65.7
2025-09-02T19:12	10	0	0.1	0	0	376	0.3	375	377	16.0	66.0
2025-09-02T19:13	10	0	0.1	0	0	376	0.3	376	377	16.0	66.0
2025-09-02T19:14	10	0	0.1	0	0	377	0.2	376	377	15.9	66.2
2025-09-02T19:15	10	0	0.1	0	0	376	0.3	375	377	15.8	67.0
2025-09-02T19:16	10	0	0.1	0	0	375	0.3	375	376	15.8	66.6
2025-09-02T19:17	10	0	0.1	0	0	376	0.3	375	377	15.9	66.3
2025-09-02T19:18	10	0	0.1	0	0	376	0.2	375	376	15.8	66.5
2025-09-02T19:19	10	0	0.1	0	0	376	0.2	375	376	15.7	67.2
2025-09-02T19:20	10	0	0.1	0	0	376	0.2	375	376	15.6	67.9
2025-09-02T19:21	10	0	0.1	0	0	375	0.3	375	376	15.7	67.8
2025-09-02T19:22	10	0	0.1	0	0	375	0.2	375	376	15.6	68.4
2025-09-02T19:23	10	0	0.1	0	0	375	0.3	375	376	15.5	69.1
2025-09-02T19:24	10	0	0.1	0	0	375	0.3	375	376	15.5	69.9
2025-09-02T19:25	10	0	0.1	0	0	376	0.2	375	376	15.5	70.2
2025-09-02T19:26	10	0	0.1	0	0	376	0.2	375	376	15.5	70.4
2025-09-02T19:27	10	0	0.1	0	0	376	0.2	375	376	15.4	70.6
2025-09-02T19:28	10	0	0.1	0	0	375	0.3	375	376	15.2	71.7
2025-09-02T19:29	10	0	0.1	0	0	375	0.3	374	376	15.1	72.1
2025-09-02T19:30	10	0	0.1	0	0	375	0.3	374	375	15.1	72.1
2025-09-02T19:31	10	0	0.1	0	0	374	0.2	374	375	15.1	71.3
2025-09-02T19:32	10	0	0.1	0	0	374	0.3	373	375	15.2	69.8
2025-09-02T19:33	10	0	0.1	0	0	373	0.4	372	374	15.4	68.3
2025-09-02T19:34	10	0	0.1	0	0	372	0.5	371	373	15.3	69.3
2025-09-02T19:35	10	0	0.1	0	0	372	0.2	371	372	15.1	70.1
2025-09-02T19:36	10	0	0.1	0	0	371	0.3	371	372	15.3	69.2
2025-09-02T19:37	10	0	0.1	0	0	371	0.2	371	372	15.2	70.0
2025-09-02T19:38	10	0	0.1	0	0	371	0.2	370	371	15.0	71.1
2025-09-02T19:39	10	0	0.2	0	0	371	0.4	370	372	15.0	71.3
2025-09-02T19:40	10	0	0.1	0	0	372	0.3	371	372	15.1	70.3
2025-09-02T19:41	10	0	0.2	0	1	372	0.3	372	373	15.3	68.9
2025-09-02T19:42	10	0	0.1	0	0	373	0.3	372	373	15.3	68.8
2025-09-02T19:43	10	0	0.2	0	1	373	0.3	372	373	15.3	69.2
2025-09-02T19:44	10	0	0.2	0	1	373	0.3	372	374	15.2	69.2
2025-09-02T19:45	10	0	0.1	0	0	373	0.3	373	374	15.4	68.4
2025-09-02T19:46	10	0	0.1	0	0	373	0.3	372	374	15.3	69.1
2025-09-02T19:47	10	0	0.1	0	0	373	0.3	372	373	15.2	69.2
2025-09-02T19:48	10	0	0.2	0	1	372	0.3	372	373	15.2	69.5
2025-09-02T19:49	10	0	0.1	0	0	373	0.2	372	373	15.1	70.5
2025-09-02T19:50	10	0	0.1	0	1	373	0.3	372	373	15.0	71.4
2025-09-02T19:51	10	0	0.1	0	0	373	0.3	372	374	15.0	71.8
2025-09-02T19:52	10	0	0.1	0	0	374	0.3	373	374	15.1	71.3
2025-09-02T19:53	10	0	0.1	0	0	374	0.3	374	375	15.2	71.2
2025-09-02T19:54	10	0	0.0	0	0	374	0.3	374	375	15.1	71.6
2025-09-02T19:55	10	0	0.0	0	0	374	0.2	374	374	15.0	71.8
2025-09-02T19:56	10	0	0.0	0	0	373	0.2	373	374	14.9	72.7
2025-09-02T19:57	10	0	0.0	0	0	373	0.2	373	374	14.9	72.3
2025-09-02T19:58	10	0	0.0	0	0	373	0.4	372	374	14.9	72.6
2025-09-02T19:59	10	0	0.1	0	0	373	0.2	372	373	14.6	74.2
2025-09-02T20:00	10	0	0.1	0	0	373	0.4	372	373	14.6	74.5
2025-09-02T20:01	10	0	0.1	0	0	373	0.3	373	374	14.6	75.1
2025-09-02T20:02	10	0	0.1	0	0	373	0.3	373	374	14.6	75.2
2025-09-02T20:03	10	0	0.1	0	0	373	0.2	373	373	14.6	75.2
2025-09-02T20:04	10	0	0.0	0	0	373	0.2	372	373	14.6	75.3
2025-09-02T20:05	10	0	0.0	0	0	373	0.2	372	373	14.7	74.7
2025-09-02T20:06	10	0	0.1	0	0	372	0.2	372	373	14.7	74.7
2025-09-02T20:07	10	0	0.1	0	0	372	0.3	371	372	14.6	74.8
2025-09-02T20:08	10	0	0.1	0	0	372	0.2	371	372	14.6	73.9
2025-09-02T20:09	10	0	0.0	0	0	371	0.2	371	372	14.5	74.6
2025-09-02T20:10	10	0	0.0	0	0	371	0.3	370	371	14.4	75.6
2025-09-02T20:11	10	0	0.0	0	0	371	0.3	370	371	14.4	76.6
2025-09-02T20:12	10	0	0.0	0	0	371	0.4	370	372	14.4	77.0
2025-09-02T20:13	10	0	0.0	0	0	372	0.4	371	373	14.5	76.7
2025-09-02T20:14	10	0	0.0	0	0	373	0.2	372	373	14.6	76.0
2025-09-02T20:15	10	0	0.1	0	0	373	0.3	373	374	14.6	75.5
2025-09-02T20:16	10	0	0.1	0	0	374	0.2	373	374	14.8	74.4
2025-09-02T20:17	10	0	0.1	0	0	374	0.5	374	375	14.9	74.0
2025-09-02T20:18	10	0	0.1	0	0	375	0.2	374	375	14.9	73.5
2025-09-02T20:19	10	0	0.1	0	0	375	0.3	374	376	14.9	73.1
2025-09-02T20:20	10	0	0.1	0	0	375	0.3	375	376	15.0	72.2
2025-09-02T20:21	10	0	0.1	0	0	375	0.2	375	376	15.0	72.1
2025-09-02T20:22	10	0	0.1	0	0	375	0.2	375	376	15.0	71.9
2025-09-02T20:23	10	0	0.1	0	0	375	0.2	374	376	15.0	72.1
2025-09-02T20:24	10	0	0.1	0	0	375	0.3	374	375	15.0	72.0
2025-09-02T20:25	10	0	0.1	0	0	374	0.5	373	375	14.9	72.0
2025-09-02T20:26	10	0	0.1	0	0	374	0.2	373	374	14.8	73.0
2025-09-02T20:27	10	0	0.1	0	0	374	0.2	373	374	14.9	72.7
2025-09-02T20:28	10	0	0.1	0	0	373	0.2	373	374	14.9	72.3
2025-09-02T20:29	10	0	0.1	0	0	373	0.3	373	374	14.9	72.0
2025-09-02T20:30	10	0	0.1	0	0	373	0.3	373	374	14.9	70.7
2025-09-02T20:31	10	0	0.1	0	0	373	0.2	372	373	14.9	71.9
2025-09-02T20:32	10	0	0.1	0	0	373	0.2	372	374	14.9	65.1
2025-09-02T20:33	10	0	0.1	0	0	373	0.3	372	373	14.9	68.3
2025-09-02T20:34	10	0	0.1	0	0	373	0.3	373	374	14.9	71.9
2025-09-02T20:35	10	0	0.1	0	0	373	0.3	373	374	14.9	71.9
2025-09-02T20:36	10	0	0.1	0	1	373	0.3	372	374	14.9	71.9
2025-09-02T20:37	10	0	0.1	0	0	372	0.4	371	373	15.1	71.0
2025-09-02T20:38	10	0	0.1	0	0	372	0.2	371	372	15.2	70.5
2025-09-02T20:39	10	0	0.1	0	0	371	0.3	371	372	15.0	71.4
2025-09-02T20:40	10	0	0.1	0	0	371	0.3	370	371	15.0	71.5
2025-09-02T20:41	10	0	0.1	0	0	370	0.4	370	371	14.9	72.4
2025-09-02T20:42	10	0	0.1	0	0	370	0.3	370	371	14.8	72.6
2025-09-02T20:43	10	0	0.1	0	0	371	0.3	370	371	15.0	71.3
2025-09-02T20:44	10	0	0.1	0	0	371	0.3	371	372	15.2	70.1
2025-09-02T20:45	10	0	0.0	0	0	372	0.2	371	372	15.3	69.5
2025-09-02T20:46	10	0	0.1	0	0	372	0.3	371	373	15.3	69.7
2025-09-02T20:47	10	0	0.1	0	0	373	0.5	372	374	15.2	70.3
2025-09-02T20:48	10	0	0.0	0	0	374	0.1	374	374	15.2	70.1
2025-09-02T20:49	10	0	0.0	0	0	375	0.3	374	375	15.0	71.1
2025-09-02T20:50	10	0	0.1	0	0	375	0.2	375	375	15.0	70.8
2025-09-02T20:51	10	0	0.1	0	0	375	0.2	375	376	14.9	71.8
2025-09-02T20:52	10	0	0.1	0	0	375	0.2	375	376	14.8	72.6
2025-09-02T20:53	10	0	0.1	0	0	375	0.3	374	376	14.7	73.3
2025-09-02T20:54	10	0	0.1	0	0	374	0.2	374	375	14.5	74.3
2025-09-02T20:55	10	0	0.0	0	0	374	0.3	373	375	14.4	74.8
2025-09-02T20:56	10	0	0.0	0	0	374	0.2	373	374	14.4	75.1
2025-09-02T20:57	10	0	0.1	0	0	373	0.3	372	374	14.4	75.4
2025-09-02T20:58	10	0	0.1	0	0	372	0.2	372	373	14.3	75.8
2025-09-02T20:59	10	0	0.1	0	0	373	0.3	372	373	14.4	75.3
2025-09-02T21:00	10	0	0.1	0	0	373	0.4	372	374	14.6	73.6
2025-09-02T21:01	10	0	0.0	0	0	374	0.3	373	374	14.9	71.8
2025-09-02T21:02	10	0	0.6	0	3	374	0.3	373	374	14.9	71.9
2025-09-02T21:03	10	0	0.1	0	0	375	0.2	374	375	14.9	71.4
2025-09-02T21:04	10	0	0.1	0	0	374	0.2	374	375	14.9	71.9
2025-09-02T21:05	10	0	0.0	0	0	374	0.2	374	375	14.9	71.5
2025-09-02T21:06	10	0	0.0	0	0	374	0.3	374	375	15.0	71.2
2025-09-02T21:07	10	0	0.1	0	0	374	0.2	374	374	14.9	71.6
2025-09-02T21:08	10	0	0.0	0	0	374	0.2	373	374	14.9	71.5
2025-09-02T21:09	10	0	0.1	0	0	374	0.2	373	374	15.0	71.4
2025-09-02T21:10	10	0	0.1	0	0	374	0.2	373	374	15.0	71.4
2025-09-02T21:11	10	0	0.1	0	0	374	0.2	373	374	14.9	71.9
2025-09-02T21:12	10	0	0.1	0	0	374	0.2	373	374	14.8	72.6
2025-09-02T21:13	10	0	0.0	0	0	373	0.3	373	374	14.7	73.2
2025-09-02T21:14	10	0	0.0	0	0	373	0.2	373	374	14.6	73.7
2025-09-02T21:15	10	0	0.0	0	0	372	0.3	372	373	14.6	73.8
2025-09-02T21:16	10	0	0.0	0	0	372	0.3	372	373	14.5	74.4
2025-09-02T21:17	10	0	0.0	0	0	372	0.3	372	373	14.6	73.5
2025-09-02T21:18	10	0	0.1	0	0	373	0.2	372	373	14.5	74.4
2025-09-02T21:19	10	0	0.1	0	0	373	0.3	373	374	14.6	74.0
2025-09-02T21:20	10	0	0.0	0	0	373	0.3	373	374	14.5	74.7
2025-09-02T21:21	10	0	0.0	0	0	373	0.3	373	374	14.4	75.5
2025-09-02T21:22	10	0	0.1	0	0	373	0.3	373	374	14.3	76.3
2025-09-02T21:23	10	0	0.1	0	0	373	0.3	372	374	14.1	77.7
2025-09-02T21:24	10	0	0.1	0	0	373	0.3	373	374	14.0	79.1
2025-09-02T21:25	10	0	0.1	0	0	373	0.2	373	374	13.9	80.2
2025-09-02T21:26	10	0	0.1	0	0	374	0.2	373	374	13.8	81.1
2025-09-02T21:27	10	0	0.1	0	0	374	0.2	374	375	13.8	81.4
2025-09-02T21:28	10	0	0.1	0	0	375	0.3	374	375	13.8	81.5
2025-09-02T21:29	10	0	0.1	0	0	375	0.4	374	376	13.8	81.5
2025-09-02T21:30	10	0	0.1	0	0	375	0.3	375	376	13.7	81.9
2025-09-02T21:31	10	0	0.1	0	0	376	0.2	375	376	13.8	81.6
2025-09-02T21:32	10	0	0.1	0	0	376	0.3	375	377	13.8	81.8
2025-09-02T21:33	10	0	0.1	0	0	376	0.3	376	377	13.8	81.3
2025-09-02T21:34	10	0	0.0	0	0	377	0.2	376	377	13.8	81.8
2025-09-02T21:35	10	0	0.1	0	0	377	0.2	376	378	13.8	81.5
2025-09-02T21:36	10	0	0.0	0	0	377	0.3	376	378	13.8	80.6
2025-09-02T21:37	10	0	0.1	0	0	377	0.4	376	378	13.8	81.1
2025-09-02T21:38	10	0	0.0	0	0	377	0.3	377	378	13.9	79.3
2025-09-02T21:39	10	0	0.0	0	0	377	0.3	377	378	13.9	79.0
2025-09-02T21:40	10	0	0.0	0	0	377	0.2	377	378	13.9	78.9
2025-09-02T21:41	10	0	0.0	0	0	378	0.3	377	378	14.0	77.8
2025-09-02T21:42	10	0	0.1	0	0	378	0.2	377	378	14.2	76.3
2025-09-02T21:43	10	0	0.1	0	0	378	0.3	377	379	14.3	75.8
2025-09-02T21:44	10	0	0.1	0	0	378	0.2	378	379	14.4	74.5
2025-09-02T21:45	10	0	0.1	0	0	378	0.3	378	379	14.5	74.6
2025-09-02T21:46	10	0	0.1	0	0	379	0.2	378	379	14.6	73.4
2025-09-02T21:47	10	0	0.1	0	0	379	0.2	378	380	14.8	72.4
2025-09-02T21:48	10	0	0.1	0	0	379	0.2	378	379	14.8	72.7
2025-09-02T21:49	10	0	0.1	0	0	379	0.3	378	379	14.8	72.9
2025-09-02T21:50	10	0	0.1	0	1	379	0.3	378	379	14.7	73.3
2025-09-02T21:51	10	0	0.1	0	0	379	0.2	378	379	14.7	73.8
2025-09-02T21:52	10	0	0.1	0	1	379	0.3	378	379	14.7	73.4
2025-09-02T21:53	10	0	0.1	0	1	378	0.3	377	379	14.6	74.5
2025-09-02T21:54	10	0	0.1	0	0	378	0.3	378	379	14.6	74.5
2025-09-02T21:55	10	0	0.1	0	0	378	0.2	378	378	14.6	74.6
2025-09-02T21:56	10	0	0.1	0	0	378	0.3	377	379	14.6	74.5
2025-09-02T21:57	10	0	0.1	0	0	378	0.2	377	378	14.6	74.9
2025-09-02T21:58	10	0	0.1	0	1	378	0.2	377	378	14.6	74.6
2025-09-02T21:59	10	0	0.1	0	1	378	0.2	377	378	14.6	74.7
2025-09-02T22:00	10	0	0.1	0	0	378	0.2	377	378	14.6	75.3
2025-09-02T22:01	10	0	0.1	0	0	378	0.2	378	379	14.6	74.9
2025-09-02T22:02	10	0	0.1	0	0	378	0.2	378	379	14.7	73.7
2025-09-02T22:03	10	0	0.1	0	0	379	0.3	378	379	14.8	73.5
2025-09-02T22:04	10	0	0.1	0	0	379	0.2	378	380	14.9	73.3
2025-09-02T22:05	10	0	0.1	0	0	379	0.4	378	380	14.9	73.3
2025-09-02T22:06	10	0	0.2	0	1	379	0.3	379	380	14.9	72.7
2025-09-02T22:07	10	0	0.1	0	1	380	0.2	379	380	15.0	72.9
2025-09-02T22:08	10	0	0.2	0	1	380	0.3	379	381	15.0	72.7
2025-09-02T22:09	10	0	0.2	0	1	380	0.3	380	381	15.0	72.6
2025-09-02T22:10	10	0	0.1	0	1	380	0.2	380	381	15.0	72.9
2025-09-02T22:11	10	0	0.2	0	1	380	0.2	380	381	14.9	73.4
2025-09-02T22:12	10	0	0.2	0	1	381	0.3	380	381	14.9	73.6
2025-09-02T22:13	10	0	0.2	0	1	381	0.2	380	381	14.9	73.4
2025-09-02T22:14	10	0	0.1	0	0	381	0.2	380	381	15.0	73.3
2025-09-02T22:15	10	0	0.1	0	0	381	0.3	380	382	14.9	73.9
2025-09-02T22:16	10	0	0.2	0	1	381	0.2	380	382	15.0	73.0
2025-09-02T22:17	10	0	0.1	0	1	381	0.3	380	382	15.0	73.7
2025-09-02T22:18	10	0	0.1	0	0	381	0.3	380	382	15.0	73.9
2025-09-02T22:19	10	0	0.2	0	1	381	0.4	380	382	15.0	73.4
2025-09-02T22:20	10	0	0.1	0	1	381	0.3	381	382	15.1	73.2
2025-09-02T22:21	10	0	0.1	0	0	382	0.2	381	382	15.0	73.6
2025-09-02T22:22	10	0	0.2	0	1	382	0.2	381	383	15.1	72.7
2025-09-02T22:23	10	0	0.2	0	1	382	0.3	381	382	15.1	73.2
2025-09-02T22:24	10	0	0.1	0	1	382	0.3	380	382	15.0	74.1
2025-09-02T22:25	10	0	0.1	0	1	381	0.3	381	382	14.9	74.6
2025-09-02T22:26	10	0	0.1	0	1	381	0.2	381	382	14.8	74.9
2025-09-02T22:27	10	0	0.2	0	1	381	0.3	380	382	14.8	75.7
2025-09-02T22:28	10	0	0.2	0	1	381	0.3	380	382	14.7	76.5
2025-09-02T22:29	10	0	0.1	0	0	380	0.4	379	381	14.7	77.0
2025-09-02T22:30	10	0	0.1	0	0	380	0.2	380	381	14.6	78.1
2025-09-02T22:31	10	0	0.1	0	1	380	0.3	379	381	14.5	78.7
2025-09-02T22:32	10	0	0.1	0	0	380	0.3	380	381	14.6	78.1
2025-09-02T22:33	10	0	0.1	0	0	380	0.3	380	381	14.8	77.0
2025-09-02T22:34	10	0	0.1	0	1	380	0.3	379	381	14.8	76.9
2025-09-02T22:35	10	0	0.2	0	1	380	0.3	380	381	14.6	78.1
2025-09-02T22:36	10	0	0.1	0	0	381	0.3	380	381	14.8	77.2
2025-09-02T22:37	10	0	0.2	0	1	381	0.3	380	381	14.7	78.1
2025-09-02T22:38	10	0	0.1	0	1	381	0.3	380	381	14.7	78.2
2025-09-02T22:39	10	0	0.1	0	1	381	0.2	380	381	14.8	77.2
2025-09-02T22:40	10	0	0.1	0	1	381	0.3	380	382	14.8	77.5
2025-09-02T22:41	10	0	0.1	0	1	381	0.2	381	382	14.8	77.7
2025-09-02T22:42	10	0	0.1	0	1	381	0.3	381	382	14.8	77.5
2025-09-02T22:43	10	0	0.1	0	0	382	0.2	381	382	14.9	77.2
2025-09-02T22:44	10	0	0.1	0	1	382	0.2	381	382	14.8	78.6
2025-09-02T22:45	10	0	0.1	0	0	381	0.4	380	382	14.8	78.5
2025-09-02T22:46	10	0	0.1	0	1	381	0.3	380	382	14.6	80.5
2025-09-02T22:47	10	0	0.1	0	1	381	0.2	380	381	14.5	80.6
2025-09-02T22:48	10	0	0.1	0	0	381	0.2	381	382	14.5	80.5
2025-09-02T22:49	10	0	0.1	0	0	381	0.3	380	382	14.4	81.3
2025-09-02T22:50	10	0	0.1	0	1	381	0.2	380	381	14.4	81.6
2025-09-02T22:51	10	0	0.1	0	0	381	0.3	380	381	14.5	81.2
2025-09-02T22:52	10	0	0.1	0	1	381	0.2	380	381	14.5	81.3
2025-09-02T22:53	10	0	0.1	0	0	381	0.3	380	381	14.5	80.6
2025-09-02T22:54	10	0	0.1	0	1	380	0.3	380	381	14.6	80.4
2025-09-02T22:55	10	0	0.2	0	1	380	0.3	380	381	14.6	80.0
2025-09-02T22:56	10	0	0.1	0	1	380	0.2	380	381	14.7	78.8
2025-09-02T22:57	10	0	0.1	0	1	380	0.3	379	381	14.7	78.9
2025-09-02T22:58	10	0	0.1	0	1	380	0.2	379	380	14.7	79.2
2025-09-02T22:59	10	0	0.1	0	1	379	0.2	379	380	14.8	78.8
2025-09-02T23:00	10	0	0.1	0	1	379	0.3	379	380	14.8	78.3
2025-09-02T23:01	10	0	0.2	0	1	379	0.3	379	380	14.9	78.3
2025-09-02T23:02	10	0	0.1	0	1	380	0.2	379	380	14.8	78.6
2025-09-02T23:03	10	0	0.1	0	1	380	0.3	379	380	14.9	77.9
2025-09-02T23:04	10	0	0.2	0	1	379	0.2	379	380	14.8	78.9
2025-09-02T23:05	10	0	0.1	0	1	379	0.2	379	380	14.8	78.7
2025-09-02T23:06	10	0	0.1	0	1	379	0.3	378	380	14.8	79.3
2025-09-02T23:07	10	0	0.1	0	1	379	0.3	378	379	14.7	80.0
2025-09-02T23:08	10	0	0.1	0	0	378	0.2	378	379	14.6	80.9
2025-09-02T23:09	10	0	0.2	0	1	378	0.3	377	379	14.5	81.8
2025-09-02T23:10	10	0	0.1	0	1	378	0.3	377	379	14.5	81.6
2025-09-02T23:11	10	0	0.1	0	1	377	0.2	377	378	14.5	81.9
2025-09-02T23:12	10	0	0.1	0	1	378	0.3	377	378	14.5	81.4
2025-09-02T23:13	10	0	0.1	0	0	378	0.3	377	378	14.6	81.0
2025-09-02T23:14	10	0	0.1	0	0	378	0.2	377	378	14.5	81.4
2025-09-02T23:15	10	0	0.1	0	0	378	0.3	378	379	14.5	81.1
2025-09-02T23:16	10	0	0.2	0	1	379	0.3	378	380	14.6	81.0
2025-09-02T23:17	10	0	0.2	0	1	379	0.3	379	380	14.6	81.6
2025-09-02T23:18	10	0	0.1	0	1	380	0.3	379	381	14.6	81.5
2025-09-02T23:19	10	0	0.1	0	1	380	0.3	380	381	14.6	81.2
2025-09-02T23:20	10	0	0.2	0	1	381	0.3	380	381	14.6	81.2
2025-09-02T23:21	10	0	0.2	0	1	381	0.3	380	382	14.6	81.6
2025-09-02T23:22	10	0	0.1	0	0	381	0.2	380	381	14.6	80.8
2025-09-02T23:23	10	0	0.1	0	1	381	0.2	380	381	14.6	80.7
2025-09-02T23:24	10	0	0.2	0	1	381	0.3	380	382	14.6	81.4
2025-09-02T23:25	10	0	0.2	0	1	381	0.2	380	381	14.5	82.2
2025-09-02T23:26	10	0	0.1	0	1	381	0.3	380	382	14.4	82.8
2025-09-02T23:27	10	0	0.1	0	0	381	0.2	380	381	14.4	83.6
2025-09-02T23:28	10	0	0.2	0	1	381	0.2	380	381	14.3	83.9
2025-09-02T23:29	10	0	0.2	0	0	381	0.3	380	382	14.4	83.4
2025-09-02T23:30	10	0	0.1	0	1	381	0.3	380	382	14.4	83.3
2025-09-02T23:31	10	0	0.1	0	0	381	0.2	380	381	14.4	83.7
2025-09-02T23:32	10	0	0.2	0	1	381	0.3	380	382	14.4	83.4
2025-09-02T23:33	10	0	0.2	0	1	381	0.2	380	381	14.4	83.5
2025-09-02T23:34	10	0	0.1	0	1	381	0.3	380	381	14.3	84.1
2025-09-02T23:35	10	0	0.1	0	1	380	0.3	380	381	14.4	83.7
2025-09-02T23:36	10	0	0.2	0	1	380	0.2	379	381	14.4	83.8
2025-09-02T23:37	10	0	0.2	0	1	380	0.2	379	380	14.4	83.7
2025-09-02T23:38	10	0	0.2	0	1	379	0.3	379	380	14.4	83.6
2025-09-02T23:39	10	0	0.1	0	1	379	0.3	378	379	14.4	84.0
2025-09-02T23:40	10	0	0.1	0	0	378	0.3	378	379	14.3	84.5
2025-09-02T23:41	10	0	0.2	0	1	377	0.3	377	378	14.3	84.2
2025-09-02T23:42	10	0	0.2	0	1	377	0.4	376	378	14.3	83.8
2025-09-02T23:43	10	0	0.1	0	1	376	0.3	375	377	14.3	83.8
2025-09-02T23:44	10	0	0.1	0	0	375	0.3	375	376	14.3	83.8
2025-09-02T23:45	10	0	0.1	0	0	375	0.2	375	375	14.3	83.9
2025-09-02T23:46	10	0	0.1	0	1	374	0.3	374	375	14.3	83.8
2025-09-02T23:47	10	0	0.1	0	0	374	0.3	373	375	14.3	83.5
2025-09-02T23:48	10	0	0.1	0	1	374	0.3	373	374	14.3	83.5
2025-09-02T23:49	10	0	0.2	0	1	374	0.3	372	374	14.4	83.1
2025-09-02T23:50	10	0	0.2	0	1	373	0.3	372	374	14.4	83.2
2025-09-02T23:51	10	0	0.1	0	0	373	0.3	372	373	14.4	83.3
2025-09-02T23:52	10	0	0.1	0	0	373	0.2	372	373	14.4	83.3
2025-09-02T23:53	10	0	0.2	0	1	372	0.3	371	373	14.4	83.0
2025-09-02T23:54	10	0	0.1	0	0	372	0.2	372	373	14.4	82.9
2025-09-02T23:55	10	0	0.1	0	0	372	0.2	372	373	14.4	82.7
2025-09-02T23:56	10	0	0.2	0	1	372	0.3	371	373	14.4	82.8
2025-09-02T23:57	10	0	0.1	0	1	372	0.3	371	373	14.4	82.9
2025-09-02T23:58	10	0	0.1	0	0	372	0.3	372	373	14.4	82.7
2025-09-02T23:59	10	0	0.2	0	1	372	0.2	372	373	14.5	82.3
2025-09-03T00:00	10	0	0.1	0	1	372	0.3	371	373	14.4	82.5
2025-09-03T00:01	10	0	0.1	0	0	372	0.3	372	373	14.4	82.4
2025-09-03T00:02	10	0	0.2	0	1	372	0.2	372	373	14.4	82.8
2025-09-03T00:03	10	0	0.1	0	1	372	0.3	372	373	14.4	82.9
2025-09-03T00:04	10	0	0.2	0	1	372	0.3	372	373	14.4	83.0
2025-09-03T00:05	10	0	0.2	0	1	372	0.3	371	373	14.4	83.1
2025-09-03T00:06	10	0	0.1	0	1	372	0.3	371	372	14.3	83.3
2025-09-03T00:07	10	0	0.1	0	1	372	0.2	372	373	14.3	83.3
2025-09-03T00:08	10	0	0.2	0	1	372	0.3	372	373	14.4	83.2
2025-09-03T00:09	10	0	0.1	0	1	373	0.3	372	374	14.4	83.0
2025-09-03T00:10	10	0	0.1	0	1	373	0.3	372	373	14.3	83.4
2025-09-03T00:11	10	0	0.2	0	1	373	0.2	373	374	14.3	83.6
2025-09-03T00:12	10	0	0.1	0	1	373	0.2	373	374	14.2	84.1
2025-09-03T00:13	10	0	0.1	0	0	373	0.2	373	374	14.2	84.3
2025-09-03T00:14	10	0	0.1	0	0	373	0.3	373	374	14.2	84.3
2025-09-03T00:15	10	0	0.1	0	1	373	0.3	373	374	14.2	84.6
2025-09-03T00:16	10	0	0.1	0	0	373	0.2	373	374	14.2	84.3
2025-09-03T00:17	10	0	0.1	0	1	374	0.3	373	375	14.2	84.1
2025-09-03T00:18	10	0	0.1	0	0	375	0.2	374	375	14.2	84.2
2025-09-03T00:19	10	0	0.1	0	0	374	0.2	374	375	14.1	84.8
2025-09-03T00:20	10	0	0.1	0	0	375	0.3	374	376	14.1	84.6
2025-09-03T00:21	10	0	0.1	0	0	375	0.2	375	376	14.1	84.7
2025-09-03T00:22	10	0	0.0	0	0	375	0.2	375	376	14.1	84.9
2025-09-03T00:23	10	0	0.1	0	1	376	0.3	375	376	14.1	85.3
2025-09-03T00:24	10	0	0.1	0	1	375	0.3	375	376	14.0	85.6
2025-09-03T00:25	10	0	0.1	0	0	375	0.2	375	376	14.1	85.3
2025-09-03T00:26	10	0	0.1	0	1	375	0.2	375	376	14.1	85.3
2025-09-03T00:27	10	0	0.1	0	0	375	0.2	374	375	14.1	85.3
2025-09-03T00:28	10	0	0.1	0	0	375	0.3	374	375	14.1	85.4
2025-09-03T00:29	10	0	0.1	0	0	374	0.2	374	375	14.1	85.3
2025-09-03T00:30	10	0	0.1	0	0	374	0.3	373	375	14.1	85.1
2025-09-03T00:31	10	0	0.1	0	1	374	0.2	374	375	14.1	84.8
2025-09-03T00:32	10	0	0.1	0	0	374	0.2	373	374	14.1	85.2
2025-09-03T00:33	10	0	0.1	0	0	374	0.3	373	375	14.1	84.6
2025-09-03T00:34	10	0	0.0	0	0	374	0.3	374	375	14.1	84.8
2025-09-03T00:35	10	0	0.1	0	0	374	0.2	373	374	14.1	84.8
2025-09-03T00:36	10	0	0.1	0	0	374	0.2	373	374	14.1	84.5
2025-09-03T00:37	10	0	0.1	0	0	374	0.3	373	374	14.1	84.5
2025-09-03T00:38	10	0	0.1	0	0	373	0.2	373	374	14.1	84.5
2025-09-03T00:39	10	0	0.0	0	0	373	0.2	372	374	14.1	84.7
2025-09-03T00:40	10	0	0.0	0	0	373	0.2	372	373	14.1	84.3
2025-09-03T00:41	10	0	0.1	0	0	373	0.3	372	373	14.1	84.2
2025-09-03T00:42	10	0	0.1	0	0	372	0.2	372	373	14.1	84.5
2025-09-03T00:43	10	0	0.0	0	0	372	0.2	372	373	14.1	84.1
2025-09-03T00:44	10	0	0.0	0	0	372	0.3	372	373	14.1	83.8
2025-09-03T00:45	10	0	0.0	0	0	372	0.3	372	373	14.1	83.9
2025-09-03T00:46	10	0	0.0	0	0	372	0.3	371	372	14.2	83.4
2025-09-03T00:47	10	0	0.0	0	0	371	0.2	371	372	14.1	83.7
2025-09-03T00:48	10	0	0.0	0	0	372	0.2	371	372	14.1	83.8
2025-09-03T00:49	10	0	0.0	0	0	372	0.3	371	372	14.1	83.4
2025-09-03T00:50	10	0	0.1	0	0	372	0.2	372	373	14.2	83.1
2025-09-03T00:51	10	0	0.1	0	0	372	0.2	372	373	14.2	82.9
2025-09-03T00:52	10	0	0.0	0	0	372	0.3	371	372	14.2	82.7
2025-09-03T00:53	10	0	0.0	0	0	372	0.3	371	372	14.3	82.2
2025-09-03T00:54	10	0	0.1	0	0	372	0.2	371	372	14.3	82.4
2025-09-03T00:55	10	0	0.1	0	0	372	0.2	371	372	14.2	82.3
2025-09-03T00:56	10	0	0.1	0	0	372	0.2	372	373	14.2	82.2
2025-09-03T00:57	10	0	0.0	0	0	372	0.3	372	373	14.2	82.5
2025-09-03T00:58	10	0	0.0	0	0	372	0.3	372	373	14.2	82.5
2025-09-03T00:59	10	0	0.1	0	0	373	0.2	372	373	14.2	82.3
2025-09-03T01:00	10	0	0.0	0	0	373	0.2	373	374	14.2	82.4
2025-09-03T01:01	10	0	0.1	0	0	374	0.3	373	374	14.1	82.5
2025-09-03T01:02	10	0	0.1	0	0	374	0.3	374	375	14.2	82.1
2025-09-03T01:03	10	0	0.1	0	0	375	0.2	374	375	14.3	81.8
2025-09-03T01:04	10	0	0.1	0	0	375	0.2	375	376	14.2	82.1
2025-09-03T01:05	10	0	0.0	0	0	375	0.2	374	375	14.2	82.0
2025-09-03T01:06	10	0	0.1	0	0	375	0.2	375	376	14.2	81.8
2025-09-03T01:07	10	0	0.1	0	0	375	0.3	374	375	14.3	81.8
2025-09-03T01:08	10	0	0.1	0	0	376	0.2	375	376	14.3	81.8
2025-09-03T01:09	10	0	0.1	0	0	376	0.2	375	376	14.3	81.8
2025-09-03T01:10	10	0	0.1	0	0	376	0.3	375	376	14.2	81.8
2025-09-03T01:11	10	0	0.1	0	0	376	0.2	375	376	14.3	81.8
2025-09-03T01:12	10	0	0.1	0	0	376	0.2	375	376	14.3	81.8
2025-09-03T01:13	10	0	0.0	0	0	376	0.2	375	376	14.3	81.9
2025-09-03T01:14	10	0	0.1	0	0	376	0.3	375	376	14.2	82.3
2025-09-03T01:15	10	0	0.0	0	0	376	0.3	375	376	14.2	81.9
2025-09-03T01:16	10	0	0.1	0	0	376	0.2	375	376	14.2	82.0
2025-09-03T01:17	10	0	0.1	0	0	376	0.2	375	376	14.3	81.7
2025-09-03T01:18	10	0	0.1	0	0	376	0.3	375	376	14.3	81.4
2025-09-03T01:19	10	0	0.1	0	0	376	0.2	376	377	14.4	80.8
2025-09-03T01:20	10	0	0.0	0	0	376	0.2	376	377	14.4	81.2
2025-09-03T01:21	10	0	0.1	0	0	376	0.3	376	377	14.4	81.1
2025-09-03T01:22	10	0	0.1	0	0	376	0.2	376	377	14.4	81.1
2025-09-03T01:23	10	0	0.1	0	0	376	0.3	376	377	14.4	80.8
2025-09-03T01:24	10	0	0.1	0	0	376	0.3	375	377	14.3	81.2
2025-09-03T01:25	10	0	0.1	0	0	376	0.3	375	376	14.4	80.8
2025-09-03T01:26	10	0	0.1	0	0	376	0.2	376	376	14.4	80.7
2025-09-03T01:27	10	0	0.1	0	0	376	0.2	375	376	14.3	81.5
2025-09-03T01:28	10	0	0.1	0	0	376	0.3	375	377	14.3	81.3
2025-09-03T01:29	10	0	0.1	0	0	376	0.3	375	376	14.4	81.2
2025-09-03T01:30	10	0	0.1	0	0	376	0.3	375	376	14.4	81.0
2025-09-03T01:31	10	0	0.0	0	0	375	0.3	375	376	14.4	80.6
2025-09-03T01:32	10	0	0.1	0	0	375	0.2	375	375	14.4	81.0
2025-09-03T01:33	10	0	0.1	0	0	375	0.2	374	375	14.3	81.6
2025-09-03T01:34	10	0	0.0	0	0	375	0.2	374	375	14.2	81.9
2025-09-03T01:35	10	0	0.1	0	0	375	0.3	375	376	14.3	81.7
2025-09-03T01:36	10	0	0.0	0	0	375	0.2	375	376	14.3	81.4
2025-09-03T01:37	10	0	0.0	0	0	375	0.2	375	376	14.3	81.4
2025-09-03T01:38	10	0	0.1	0	0	376	0.3	375	377	14.4	80.9
2025-09-03T01:39	10	0	0.1	0	0	376	0.2	375	376	14.4	80.6
2025-09-03T01:40	10	0	0.0	0	0	375	0.2	375	376	14.3	81.3
2025-09-03T01:41	10	0	0.1	0	0	376	0.3	375	376	14.3	81.0
2025-09-03T01:42	10	0	0.1	0	0	376	0.2	376	377	14.4	80.6
2025-09-03T01:43	10	0	0.0	0	0	376	0.3	375	376	14.5	80.2
2025-09-03T01:44	10	0	0.0	0	0	376	0.3	376	377	14.5	80.2
2025-09-03T01:45	10	0	0.0	0	0	376	0.3	376	377	14.4	80.7
2025-09-03T01:46	10	0	0.1	0	0	376	0.2	376	377	14.5	80.2
2025-09-03T01:47	10	0	0.0	0	0	376	0.2	376	377	14.5	80.2
2025-09-03T01:48	10	0	0.0	0	0	376	0.3	376	377	14.4	80.3
2025-09-03T01:49	10	0	0.1	0	0	376	0.3	375	377	14.4	81.0
2025-09-03T01:50	10	0	0.1	0	0	376	0.2	375	376	14.3	81.5
2025-09-03T01:51	10	0	0.0	0	0	376	0.3	375	376	14.3	81.8
2025-09-03T01:52	10	0	0.0	0	0	375	0.2	375	376	14.3	81.2
2025-09-03T01:53	10	0	0.0	0	0	375	0.3	374	375	14.3	81.4
2025-09-03T01:54	10	0	0.0	0	0	374	0.2	374	375	14.3	81.3
2025-09-03T01:55	10	0	0.0	0	0	374	0.2	373	374	14.2	81.8
2025-09-03T01:56	10	0	0.0	0	0	373	0.2	373	374	14.2	81.6
2025-09-03T01:57	10	0	0.0	0	0	373	0.3	372	374	14.3	81.0
2025-09-03T01:58	10	0	0.1	0	0	373	0.2	372	373	14.3	81.3
2025-09-03T01:59	10	0	0.0	0	0	373	0.2	372	373	14.2	81.7
2025-09-03T02:00	10	0	0.0	0	0	373	0.2	372	373	14.2	81.2
2025-09-03T02:01	10	0	0.0	0	0	373	0.2	372	373	14.3	80.8
2025-09-03T02:02	10	0	0.0	0	0	373	0.3	372	374	14.3	80.5
2025-09-03T02:03	10	0	0.0	0	0	373	0.3	373	374	14.4	80.0
2025-09-03T02:04	10	0	0.0	0	0	374	0.2	373	374	14.4	80.2
2025-09-03T02:05	10	0	0.0	0	0	374	0.2	373	374	14.4	80.3
2025-09-03T02:06	10	0	0.1	0	0	374	0.2	373	374	14.4	79.9
2025-09-03T02:07	10	0	0.1	0	0	374	0.2	374	374	14.5	79.7
2025-09-03T02:08	10	0	0.0	0	0	374	0.2	374	375	14.5	79.6
2025-09-03T02:09	10	0	0.0	0	0	374	0.3	373	375	14.4	79.8
2025-09-03T02:10	10	0	0.1	0	0	374	0.2	373	374	14.4	80.1
2025-09-03T02:11	10	0	0.1	0	0	373	0.3	372	374	14.3	80.3
2025-09-03T02:12	10	0	0.0	0	0	373	0.2	373	374	14.3	80.6
2025-09-03T02:13	10	0	0.0	0	0	373	0.2	372	373	14.2	80.9
2025-09-03T02:14	10	0	0.0	0	0	373	0.2	373	374	14.3	80.8
2025-09-03T02:15	10	0	0.1	0	0	373	0.3	373	374	14.2	81.2
2025-09-03T02:16	10	0	0.0	0	0	374	0.2	373	374	14.2	81.2
2025-09-03T02:17	10	0	0.1	0	0	374	0.3	374	375	14.1	81.5
2025-09-03T02:18	10	0	0.0	0	0	375	0.4	374	376	14.2	81.0
2025-09-03T02:19	10	0	0.0	0	0	376	0.3	375	377	14.2	80.8
2025-09-03T02:20	10	0	0.0	0	0	376	0.2	375	376	14.2	80.7
2025-09-03T02:21	10	0	0.1	0	0	376	0.2	376	376	14.2	80.8
2025-09-03T02:22	10	0	0.1	0	0	376	0.3	376	377	14.2	81.1
2025-09-03T02:23	10	0	0.1	0	0	376	0.3	375	377	14.1	81.4
2025-09-03T02:24	10	0	0.1	0	0	376	0.2	376	377	14.1	81.5
2025-09-03T02:25	10	0	0.0	0	0	377	0.2	376	377	14.2	81.0
2025-09-03T02:26	10	0	0.0	0	0	376	0.2	376	377	14.1	81.2
2025-09-03T02:27	10	0	0.1	0	0	377	0.3	376	377	14.2	81.0
2025-09-03T02:28	10	0	0.0	0	0	377	0.2	376	378	14.2	81.0
2025-09-03T02:29	10	0	0.1	0	0	377	0.3	376	377	14.2	80.5
2025-09-03T02:30	10	0	0.1	0	0	377	0.2	377	378	14.3	80.1
2025-09-03T02:31	10	0	0.1	0	0	377	0.2	376	378	14.3	80.6
2025-09-03T02:32	10	0	0.1	0	0	378	0.3	377	378	14.4	79.5
2025-09-03T02:33	10	0	0.1	0	0	377	0.3	376	378	14.4	79.6
2025-09-03T02:34	10	0	0.1	0	0	377	0.3	377	378	14.3	80.0
2025-09-03T02:35	10	0	0.1	0	0	377	0.3	377	378	14.3	80.4
2025-09-03T02:36	10	0	0.1	0	0	378	0.3	377	378	14.4	79.8
2025-09-03T02:37	10	0	0.1	0	0	377	0.2	377	378	14.3	80.0
2025-09-03T02:38	10	0	0.1	0	0	378	0.2	377	378	14.2	80.8
2025-09-03T02:39	10	0	0.1	0	0	378	0.3	377	378	14.1	81.3
2025-09-03T02:40	10	0	0.1	0	0	377	0.3	377	378	14.1	81.7
2025-09-03T02:41	10	0	0.1	0	0	377	0.3	377	378	14.0	82.0
2025-09-03T02:42	10	0	0.1	0	0	377	0.2	377	377	14.0	81.7
2025-09-03T02:43	10	0	0.0	0	0	377	0.2	376	377	14.1	81.1
2025-09-03T02:44	10	0	0.1	0	0	377	0.2	376	377	14.2	80.5
2025-09-03T02:45	10	0	0.0	0	0	377	0.2	377	377	14.3	80.2
2025-09-03T02:46	10	0	0.1	0	0	376	0.2	376	377	14.1	81.3
2025-09-03T02:47	10	0	0.0	0	0	377	0.2	376	377	14.1	81.2
2025-09-03T02:48	10	0	0.0	0	0	377	0.3	376	378	14.2	80.5
2025-09-03T02:49	10	0	0.1	0	0	377	0.3	376	378	14.4	79.6
2025-09-03T02:50	10	0	0.1	0	0	377	0.2	376	377	14.3	79.9
2025-09-03T02:51	10	0	0.1	0	0	377	0.2	376	377	14.3	79.8
2025-09-03T02:52	10	0	0.1	0	0	377	0.3	377	378	14.4	79.3
2025-09-03T02:53	10	0	0.1	0	0	377	0.2	377	378	14.5	78.4
2025-09-03T02:54	10	0	0.1	0	0	377	0.2	377	378	14.5	78.5
2025-09-03T02:55	10	0	0.0	0	0	378	0.2	377	378	14.5	78.5
2025-09-03T02:56	10	0	0.1	0	0	377	0.2	377	378	14.4	79.0
2025-09-03T02:57	10	0	0.1	0	0	377	0.2	376	377	14.3	79.5
2025-09-03T02:58	10	0	0.1	0	0	377	0.3	376	378	14.4	79.1
2025-09-03T02:59	10	0	0.1	0	0	377	0.3	376	377	14.5	78.2
2025-09-03T03:00	10	0	0.1	0	0	377	0.2	376	377	14.5	78.3
2025-09-03T03:01	10	0	0.0	0	0	377	0.2	377	378	14.6	77.7
2025-09-03T03:02	10	0	0.1	0	0	378	0.3	377	378	14.7	76.9
2025-09-03T03:03	10	0	0.1	0	0	377	0.3	377	378	14.6	77.2
2025-09-03T03:04	10	0	0.1	0	0	377	0.3	377	378	14.6	76.8
2025-09-03T03:05	10	0	0.0	0	0	377	0.2	377	378	14.6	77.2
2025-09-03T03:06	10	0	0.1	0	0	377	0.2	377	378	14.6	77.3
2025-09-03T03:07	10	0	0.1	0	0	377	0.2	376	377	14.5	77.8
2025-09-03T03:08	10	0	0.0	0	0	377	0.3	376	377	14.4	78.2
2025-09-03T03:09	10	0	0.1	0	0	377	0.2	376	377	14.4	78.3
2025-09-03T03:10	10	0	0.1	0	0	377	0.2	376	377	14.4	78.4
2025-09-03T03:11	10	0	0.0	0	0	377	0.2	376	377	14.4	78.1
2025-09-03T03:12	10	0	0.1	0	0	377	0.2	376	377	14.5	77.7
2025-09-03T03:13	10	0	0.0	0	0	377	0.2	376	377	14.5	77.1
2025-09-03T03:14	10	0	0.1	0	0	377	0.3	376	377	14.6	76.6
2025-09-03T03:15	10	0	0.1	0	0	377	0.3	376	377	14.6	76.4
2025-09-03T03:16	10	0	0.1	0	0	377	0.3	376	377	14.6	76.4
2025-09-03T03:17	10	0	0.1	0	0	376	0.3	376	377	14.6	77.0
2025-09-03T03:18	10	0	0.1	0	0	376	0.2	376	377	14.5	77.6
2025-09-03T03:19	10	0	0.1	0	0	376	0.2	376	377	14.5	77.3
2025-09-03T03:20	10	0	0.1	0	0	377	0.2	376	377	14.5	77.2
2025-09-03T03:21	10	0	0.1	0	0	377	0.3	376	378	14.5	77.2
2025-09-03T03:22	10	0	0.1	0	0	377	0.2	377	377	14.5	77.4
2025-09-03T03:23	10	0	0.1	0	0	377	0.4	376	377	14.5	77.3
2025-09-03T03:24	10	0	0.1	0	0	376	0.3	376	377	14.4	78.0
2025-09-03T03:25	10	0	0.0	0	0	376	0.2	375	376	14.4	78.1
2025-09-03T03:26	10	0	0.1	0	0	376	0.2	375	376	14.3	78.3
2025-09-03T03:27	10	0	0.1	0	0	375	0.3	375	376	14.3	78.6
2025-09-03T03:28	10	0	0.1	0	0	376	0.2	375	376	14.4	78.3
2025-09-03T03:29	10	0	0.0	0	0	375	0.2	374	376	14.3	78.7
2025-09-03T03:30	10	0	0.1	0	0	375	0.2	374	376	14.3	79.1
2025-09-03T03:31	10	0	0.1	0	0	375	0.2	375	376	14.3	78.9
2025-09-03T03:32	10	0	0.1	0	0	375	0.2	374	375	14.2	79.2
2025-09-03T03:33	10	0	0.1	0	0	375	0.3	374	376	14.2	79.1
2025-09-03T03:34	10	0	0.1	0	0	375	0.2	374	376	14.2	79.3
2025-09-03T03:35	10	0	0.2	0	0	375	0.2	374	375	14.2	79.4
2025-09-03T03:36	10	0	0.1	0	0	375	0.3	374	376	14.2	79.2
2025-09-03T03:37	10	0	0.1	0	0	375	0.3	374	376	14.2	79.4
2025-09-03T03:38	10	0	0.1	0	1	375	0.2	375	376	14.2	79.3
2025-09-03T03:39	10	0	0.1	0	0	375	0.2	375	376	14.2	79.4
2025-09-03T03:40	10	0	0.1	0	0	375	0.2	375	376	14.2	79.5
2025-09-03T03:41	10	0	0.1	0	0	376	0.2	375	376	14.2	79.4
2025-09-03T03:42	10	0	0.1	0	0	376	0.2	375	376	14.2	79.6
2025-09-03T03:43	10	0	0.1	0	0	376	0.2	376	377	14.2	79.6
2025-09-03T03:44	10	0	0.1	0	0	376	0.2	376	377	14.2	79.8
2025-09-03T03:45	10	0	0.1	0	0	377	0.3	376	377	14.2	80.0
2025-09-03T03:46	10	0	0.1	0	0	377	0.2	377	377	14.2	79.8
2025-09-03T03:47	10	0	0.0	0	0	377	0.3	376	378	14.2	79.8
2025-09-03T03:48	10	0	0.1	0	0	377	0.2	377	378	14.2	80.1
2025-09-03T03:49	10	0	0.1	0	0	377	0.2	377	378	14.3	79.8
2025-09-03T03:50	10	0	0.1	0	0	378	0.2	377	378	14.3	79.8
2025-09-03T03:51	10	0	0.1	0	1	378	0.2	377	378	14.3	79.5
2025-09-03T03:52	10	0	0.1	0	0	378	0.2	378	378	14.3	79.4
2025-09-03T03:53	10	0	0.2	0	1	378	0.3	377	379	14.3	79.5
2025-09-03T03:54	10	0	0.1	0	0	378	0.3	378	379	14.4	79.1
2025-09-03T03:55	10	0	0.1	0	1	378	0.2	378	379	14.4	79.1
2025-09-03T03:56	10	0	0.1	0	1	378	0.2	378	379	14.4	79.2
2025-09-03T03:57	10	0	0.1	0	1	378	0.2	378	379	14.4	79.3
2025-09-03T03:58	10	0	0.2	0	1	378	0.3	377	379	14.4	79.2
2025-09-03T03:59	10	0	0.1	0	0	378	0.3	377	378	14.4	79.0
2025-09-03T04:00	10	0	0.1	0	0	378	0.3	377	378	14.4	79.1
2025-09-03T04:01	10	0	0.2	0	1	378	0.2	377	378	14.4	79.5
2025-09-03T04:02	10	0	0.1	0	0	378	0.3	377	378	14.4	79.3
2025-09-03T04:03	10	0	0.1	0	0	378	0.3	377	378	14.4	78.8
2025-09-03T04:04	10	0	0.1	0	0	378	0.3	377	378	14.5	78.3
2025-09-03T04:05	10	0	0.1	0	0	378	0.2	377	378	14.5	78.3
2025-09-03T04:06	10	0	0.1	0	0	378	0.2	378	378	14.5	78.1
2025-09-03T04:07	10	0	0.1	0	1	378	0.2	378	379	14.6	77.5
2025-09-03T04:08	10	0	0.1	0	0	378	0.2	378	379	14.7	77.2
2025-09-03T04:09	10	0	0.1	0	0	378	0.2	378	379	14.7	76.9
2025-09-03T04:10	10	0	0.1	0	0	378	0.3	378	379	14.7	77.2
2025-09-03T04:11	10	0	0.1	0	0	378	0.2	378	379	14.6	78.1
2025-09-03T04:12	10	0	0.1	0	1	379	0.3	378	379	14.6	77.9
2025-09-03T04:13	10	0	0.1	0	0	379	0.2	378	379	14.6	77.7
2025-09-03T04:14	10	0	0.1	0	1	379	0.2	378	379	14.6	77.7
2025-09-03T04:15	10	0	0.1	0	0	379	0.3	378	379	14.7	77.3
2025-09-03T04:16	10	0	0.1	0	0	379	0.3	378	380	14.8	76.5
2025-09-03T04:17	10	0	0.1	0	0	379	0.2	378	379	14.8	76.7
2025-09-03T04:18	10	0	0.1	0	0	379	0.3	378	380	14.9	76.2
2025-09-03T04:19	10	0	0.1	0	0	379	0.2	379	380	14.9	76.0
2025-09-03T04:20	10	0	0.1	0	1	379	0.2	378	380	14.9	76.1
2025-09-03T04:21	10	0	0.1	0	0	379	0.2	379	380	14.9	75.7
2025-09-03T04:22	10	0	0.1	0	1	379	0.2	379	380	14.9	75.7
2025-09-03T04:23	10	0	0.1	0	1	379	0.2	379	380	14.9	75.8
2025-09-03T04:24	10	0	0.1	0	0	380	0.2	379	380	14.9	75.3
2025-09-03T04:25	10	0	0.1	0	1	379	0.3	379	380	15.0	74.7
2025-09-03T04:26	10	0	0.1	0	1	379	0.3	378	380	15.0	75.7
2025-09-03T04:27	10	0	0.2	0	1	379	0.2	379	380	14.8	77.1
2025-09-03T04:28	10	0	0.1	0	0	379	0.3	378	379	14.8	77.7
2025-09-03T04:29	10	0	0.1	0	1	379	0.3	378	379	14.7	78.1
2025-09-03T04:30	10	0	0.2	0	1	378	0.4	378	379	14.8	77.7
2025-09-03T04:31	10	0	0.1	0	1	378	0.3	378	379	14.8	77.5
2025-09-03T04:32	10	0	0.1	0	1	378	0.3	377	378	14.8	77.2
2025-09-03T04:33	10	0	0.1	0	1	378	0.3	377	379	14.9	76.4
2025-09-03T04:34	10	0	0.1	0	1	378	0.4	377	379	14.9	76.4
2025-09-03T04:35	10	0	0.1	0	0	378	0.3	377	378	14.9	76.5
2025-09-03T04:36	10	0	0.1	0	0	377	0.5	376	378	14.8	77.2
2025-09-03T04:37	10	0	0.1	0	1	377	0.3	376	378	14.7	78.1
2025-09-03T04:38	10	0	0.1	0	1	377	0.4	376	378	14.7	78.1
2025-09-03T04:39	10	0	0.1	0	1	378	0.3	377	378	14.9	76.6
2025-09-03T04:40	10	0	0.1	0	0	378	0.3	377	378	14.9	76.8
2025-09-03T04:41	10	0	0.1	0	1	378	0.3	377	378	14.9	76.4
2025-09-03T04:42	10	0	0.1	0	1	378	0.4	377	379	14.9	77.2
2025-09-03T04:43	10	0	0.1	0	1	378	0.3	378	379	15.0	76.3
2025-09-03T04:44	10	1	0.1	0	1	379	0.4	378	380	15.1	75.9
2025-09-03T04:45	10	1	0.1	0	1	380	0.3	379	380	15.2	75.4
2025-09-03T04:46	10	1	0.1	0	1	380	0.3	379	380	15.3	75.2
2025-09-03T04:47	10	1	0.2	0	1	381	0.3	380	381	15.4	74.9
2025-09-03T04:48	10	1	0.1	1	1	380	0.2	380	381	15.3	75.3
2025-09-03T04:49	10	1	0.1	1	2	381	0.2	380	382	15.3	75.4
2025-09-03T04:50	10	1	0.1	1	2	381	0.2	380	381	15.4	75.2
2025-09-03T04:51	10	1	0.1	1	1	380	0.4	380	381	15.4	75.4
2025-09-03T04:52	10	1	0.1	1	1	380	0.3	380	381	15.4	75.3
2025-09-03T04:53	10	1	0.1	1	1	381	0.2	380	381	15.6	73.6
2025-09-03T04:54	10	1	0.2	1	2	381	0.3	380	381	15.6	73.4
2025-09-03T04:55	10	1	0.1	1	1	381	0.2	380	381	15.6	73.8
2025-09-03T04:56	10	1	0.1	1	1	381	0.3	380	381	15.6	73.9
2025-09-03T04:57	10	1	0.2	1	1	381	0.2	380	381	15.6	73.8
2025-09-03T04:58	10	1	0.2	1	2	381	0.2	380	381	15.6	73.8
2025-09-03T04:59	10	1	0.1	1	2	381	0.3	380	381	15.5	74.4
2025-09-03T05:00	10	1	0.1	1	1	380	0.2	380	381	15.4	75.3
2025-09-03T05:01	10	1	0.2	1	1	381	0.3	380	381	15.3	75.4
2025-09-03T05:02	10	1	0.2	1	2	381	0.3	380	381	15.4	75.3
2025-09-03T05:03	10	1	0.2	1	2	381	0.3	380	382	15.2	76.1
2025-09-03T05:04	10	1	0.2	1	1	381	0.3	380	382	15.3	75.5
2025-09-03T05:05	10	1	0.1	1	1	382	0.2	381	382	15.4	74.9
2025-09-03T05:06	10	1	0.2	1	2	382	0.3	381	382	15.4	74.6
2025-09-03T05:07	10	1	0.1	1	2	382	0.3	381	383	15.3	75.0
2025-09-03T05:08	10	1	0.1	1	2	382	0.3	381	383	15.2	76.0
2025-09-03T05:09	10	1	0.1	1	2	382	0.3	381	382	15.2	76.2
2025-09-03T05:10	10	2	0.2	1	2	382	0.3	381	382	15.2	76.1
2025-09-03T05:11	10	2	0.1	1	2	382	0.2	382	383	15.3	75.2
2025-09-03T05:12	10	2	0.1	2	2	382	0.3	381	382	15.3	75.9
2025-09-03T05:13	10	2	0.2	2	2	382	0.3	381	382	15.2	76.4
2025-09-03T05:14	10	2	0.2	2	2	382	0.3	381	382	15.1	77.5
2025-09-03T05:15	10	2	0.2	2	3	382	0.2	381	382	14.9	78.5
2025-09-03T05:16	10	2	0.2	2	3	382	0.2	381	382	14.8	79.1
2025-09-03T05:17	10	2	0.1	2	3	381	0.2	381	382	14.9	79.0
2025-09-03T05:18	10	2	0.2	2	3	381	0.3	380	382	14.8	79.6
2025-09-03T05:19	10	3	0.1	2	3	381	0.3	381	382	14.8	79.2
2025-09-03T05:20	10	3	0.2	2	3	381	0.3	381	382	14.8	79.3
2025-09-03T05:21	10	3	0.1	2	3	382	0.3	381	382	14.7	80.0
2025-09-03T05:22	10	3	0.2	2	3	382	0.2	381	382	14.8	79.4
2025-09-03T05:23	10	3	0.1	2	3	382	0.3	381	382	14.8	80.4
2025-09-03T05:24	10	3	0.1	3	3	382	0.3	382	383	14.8	79.9
2025-09-03T05:25	10	3	0.1	2	3	382	0.4	382	383	14.9	79.2
2025-09-03T05:26	10	3	0.1	2	3	383	0.2	382	383	15.2	77.7
2025-09-03T05:27	10	3	0.2	2	3	382	0.2	382	383	15.1	78.8
2025-09-03T05:28	10	3	0.1	3	3	382	0.3	382	383	15.0	79.3
2025-09-03T05:29	10	3	0.2	2	3	382	0.4	381	383	14.8	81.1
2025-09-03T05:30	10	3	0.2	3	3	381	0.2	381	382	14.5	82.9
2025-09-03T05:31	10	3	0.1	3	3	381	0.3	381	382	14.4	83.7
2025-09-03T05:32	10	3	0.2	2	3	381	0.3	380	382	14.3	84.3
2025-09-03T05:33	10	3	0.2	3	3	381	0.2	381	382	14.3	83.9
2025-09-03T05:34	10	3	0.2	3	4	381	0.3	381	382	14.3	84.4
2025-09-03T05:35	10	4	0.2	3	4	381	0.3	380	382	14.2	84.8
2025-09-03T05:36	10	4	0.2	3	4	381	0.2	380	381	14.2	85.6
2025-09-03T05:37	10	4	0.2	4	5	381	0.4	380	382	14.1	85.6
2025-09-03T05:38	10	5	0.2	4	5	381	0.2	380	381	14.2	85.0
2025-09-03T05:39	10	5	0.2	4	6	381	0.2	380	382	14.2	85.2
2025-09-03T05:40	10	5	0.1	5	5	381	0.3	381	382	14.2	84.9
2025-09-03T05:41	10	5	0.1	5	6	382	0.3	381	382	14.4	83.9
2025-09-03T05:42	10	6	0.1	5	6	382	0.4	381	383	14.4	83.6
2025-09-03T05:43	10	6	0.1	6	6	382	0.3	382	383	14.5	82.7
2025-09-03T05:44	10	6	0.1	6	6	383	0.3	382	384	14.6	81.6
2025-09-03T05:45	10	6	0.1	6	7	383	0.2	383	384	14.7	81.3
2025-09-03T05:46	10	7	0.1	6	7	383	0.2	383	384	14.8	81.0
2025-09-03T05:47	10	7	0.1	7	7	384	0.2	383	384	14.8	80.6
2025-09-03T05:48	10	7	0.1	7	7	384	0.3	383	384	14.8	80.9
2025-09-03T05:49	10	8	0.1	7	8	384	0.2	383	384	14.8	80.6
2025-09-03T05:50	10	8	0.1	8	8	384	0.2	383	384	14.9	79.8
2025-09-03T05:51	10	8	0.2	8	9	384	0.2	384	385	15.0	79.1
2025-09-03T05:52	10	9	0.2	8	9	384	0.2	384	385	15.1	77.8
2025-09-03T05:53	10	9	0.1	9	9	384	0.2	384	385	15.2	77.5
2025-09-03T05:54	10	10	0.1	9	10	385	0.2	384	385	15.2	77.4
2025-09-03T05:55	10	10	0.1	10	10	385	0.2	384	385	15.2	77.7
2025-09-03T05:56	10	10	0.1	10	11	385	0.2	384	386	15.2	77.6
2025-09-03T05:57	10	11	0.2	10	11	386	0.2	385	386	15.3	77.1
2025-09-03T05:58	10	11	0.1	10	11	386	0.2	385	386	15.2	77.6
2025-09-03T05:59	10	11	0.2	11	12	386	0.2	385	386	15.3	77.0
2025-09-03T06:00	10	12	0.1	11	12	386	0.2	386	387	15.3	77.0
2025-09-03T06:01	10	12	0.1	12	12	387	0.3	386	387	15.4	76.5
2025-09-03T06:02	10	12	0.1	12	12	387	0.2	386	387	15.4	76.9
2025-09-03T06:03	10	12	0.1	12	12	387	0.2	386	387	15.4	75.6
2025-09-03T06:04	10	12	0.1	12	12	387	0.2	386	387	15.5	75.1
2025-09-03T06:05	10	12	0.1	12	12	387	0.2	387	388	15.5	75.3
2025-09-03T06:06	10	12	0.1	12	12	387	0.2	387	388	15.6	74.4
2025-09-03T06:07	10	12	0.1	12	12	387	0.3	386	388	15.6	74.1
2025-09-03T06:08	10	12	0.1	12	12	387	0.3	386	388	15.7	73.0
2025-09-03T06:09	10	12	0.1	12	12	387	0.2	387	387	15.7	73.4
2025-09-03T06:10	10	12	0.1	11	12	387	0.3	386	387	15.7	72.7
2025-09-03T06:11	10	12	0.1	11	12	387	0.3	386	387	15.7	72.9
2025-09-03T06:12	10	12	0.1	11	12	387	0.2	386	387	15.8	72.6
2025-09-03T06:13	10	12	0.1	11	12	387	0.2	386	387	15.7	72.9
2025-09-03T06:14	10	12	0.1	11	12	387	0.2	386	387	15.7	73.3
2025-09-03T06:15	10	12	0.1	11	12	387	0.2	386	387	15.7	72.8
2025-09-03T06:16	10	12	0.1	12	12	387	0.2	387	387	15.7	73.9
2025-09-03T06:17	10	12	0.1	11	12	387	0.2	387	388	15.6	74.2
2025-09-03T06:18	10	12	0.1	11	12	387	0.2	387	388	15.6	74.6
2025-09-03T06:19	10	12	0.1	12	12	388	0.2	387	388	15.6	74.4
2025-09-03T06:20	10	12	0.1	12	12	387	0.3	387	388	15.7	73.1
2025-09-03T06:21	10	12	0.1	12	12	387	0.2	387	388	15.7	73.2
2025-09-03T06:22	10	12	0.1	12	13	387	0.3	387	388	15.7	73.2
2025-09-03T06:23	10	13	0.1	12	13	387	0.2	387	388	15.7	73.5
2025-09-03T06:24	10	13	0.1	13	13	387	0.3	387	388	15.7	73.5
2025-09-03T06:25	10	13	0.1	13	13	387	0.2	386	387	15.8	72.6
2025-09-03T06:26	10	13	0.1	13	13	387	0.2	386	387	15.8	72.9
2025-09-03T06:27	10	13	0.1	13	13	387	0.2	386	387	15.7	73.9
2025-09-03T06:28	10	13	0.1	13	13	387	0.2	386	388	15.7	73.3
2025-09-03T06:29	10	13	0.1	13	13	387	0.3	386	387	15.8	73.0
2025-09-03T06:30	10	13	0.1	12	13	387	0.3	386	387	15.7	73.5
2025-09-03T06:31	10	12	0.1	12	13	387	0.2	386	388	15.7	74.0
2025-09-03T06:32	10	12	0.1	12	12	387	0.2	386	387	15.7	73.5
2025-09-03T06:33	10	11	0.1	11	12	387	0.2	386	388	15.7	73.8
2025-09-03T06:34	10	11	0.1	11	11	387	0.2	386	387	15.7	73.6
2025-09-03T06:35	10	11	0.1	11	11	387	0.2	386	387	15.7	73.5
2025-09-03T06:36	10	11	0.1	11	11	387	0.3	386	387	15.7	73.8
2025-09-03T06:37	10	11	0.1	11	11	387	0.2	386	387	15.7	73.8
2025-09-03T06:38	10	11	0.1	11	11	387	0.3	386	387	15.6	75.1
2025-09-03T06:39	10	11	0.1	11	11	387	0.2	386	387	15.6	74.9
2025-09-03T06:40	10	12	0.1	11	12	387	0.2	386	387	15.6	75.0
2025-09-03T06:41	10	12	0.1	12	12	387	0.2	386	387	15.5	75.8
2025-09-03T06:42	10	12	0.1	12	12	387	0.2	386	387	15.4	75.7
2025-09-03T06:43	10	12	0.1	12	12	387	0.3	386	388	15.4	76.5
2025-09-03T06:44	10	12	0.1	12	13	387	0.2	387	388	15.4	76.3
2025-09-03T06:45	10	13	0.1	12	13	388	0.2	387	388	15.4	76.9
2025-09-03T06:46	10	13	0.1	13	13	388	0.2	387	388	15.4	77.1
2025-09-03T06:47	10	13	0.1	13	13	388	0.2	387	388	15.4	77.1
2025-09-03T06:48	10	13	0.1	13	13	388	0.2	388	389	15.4	77.2
2025-09-03T06:49	10	13	0.1	13	14	388	0.2	387	388	15.3	77.4
2025-09-03T06:50	10	14	0.2	13	14	388	0.2	388	388	15.3	77.6
2025-09-03T06:51	10	14	0.2	14	15	388	0.2	388	389	15.4	76.7
2025-09-03T06:52	10	15	0.2	14	15	389	0.2	388	389	15.4	76.9
2025-09-03T06:53	10	15	0.2	15	16	389	0.3	388	390	15.4	76.2
2025-09-03T06:54	10	16	0.2	15	16	389	0.3	388	389	15.4	76.6
2025-09-03T06:55	10	16	0.1	16	17	389	0.3	388	389	15.4	76.2
2025-09-03T06:56	10	17	0.2	16	17	389	0.2	388	390	15.5	76.2
2025-09-03T06:57	10	17	0.3	17	18	389	0.3	389	390	15.5	76.4
2025-09-03T06:58	10	18	0.2	18	19	389	0.2	389	390	15.5	77.2
2025-09-03T06:59	10	19	0.2	18	19	390	0.2	389	390	15.5	77.4
2025-09-03T07:00	10	20	0.2	19	20	390	0.2	389	390	15.5	77.4
2025-09-03T07:01	10	20	0.2	20	21	390	0.2	389	390	15.5	77.5
2025-09-03T07:02	10	21	0.1	20	21	390	0.2	390	390	15.5	77.9
2025-09-03T07:03	10	21	0.1	21	21	390	0.2	390	391	15.5	77.3
2025-09-03T07:04	10	21	0.2	21	22	391	0.3	390	391	15.6	76.9
2025-09-03T07:05	10	22	0.3	22	23	391	0.3	390	391	15.6	76.5
2025-09-03T07:06	10	23	0.2	22	23	391	0.2	390	392	15.6	76.7
2025-09-03T07:07	10	24	0.2	23	24	391	0.2	391	392	15.7	76.2
2025-09-03T07:08	10	25	0.3	24	25	391	0.3	391	392	15.7	76.6
2025-09-03T07:09	10	26	0.3	25	26	392	0.2	391	392	15.7	76.3
2025-09-03T07:10	10	27	0.3	26	27	392	0.2	392	393	15.7	76.2
2025-09-03T07:11	10	27	0.2	27	28	393	0.3	392	393	15.8	74.6
2025-09-03T07:12	10	28	0.2	28	28	393	0.3	392	393	15.9	73.3
2025-09-03T07:13	10	28	0.2	28	29	393	0.2	392	393	16.0	72.3
2025-09-03T07:14	10	29	0.2	28	29	393	0.6	392	394	16.0	73.0
2025-09-03T07:15	10	30	0.3	29	30	394	0.2	393	394	16.0	73.5
2025-09-03T07:16	10	31	0.3	30	31	394	0.3	394	395	16.0	73.3
2025-09-03T07:17	10	32	0.3	31	32	395	0.2	394	395	16.1	72.6
2025-09-03T07:18	10	33	0.7	32	34	395	0.3	394	396	16.2	71.1
2025-09-03T07:19	10	33	0.3	32	34	395	0.3	394	395	16.2	71.3
2025-09-03T07:20	10	33	0.1	33	33	395	0.3	394	396	16.2	71.1
2025-09-03T07:21	10	33	0.3	33	34	395	0.3	394	395	16.3	70.1
2025-09-03T07:22	10	35	0.2	34	35	395	0.3	394	396	16.3	70.8
2025-09-03T07:23	10	36	1.2	35	39	396	0.4	395	397	16.2	71.5
2025-09-03T07:24	10	40	2.7	37	46	397	0.3	396	397	16.3	70.8
2025-09-03T07:25	10	45	1.1	43	47	397	0.3	396	398	16.4	69.9
2025-09-03T07:26	10	46	1.5	44	49	397	0.3	396	398	16.4	69.3
2025-09-03T07:27	10	47	1.6	44	50	398	0.6	397	400	16.5	69.7
2025-09-03T07:28	10	55	5.0	50	63	400	0.8	399	402	16.5	69.9
2025-09-03T07:29	10	48	0.9	48	51	400	0.4	400	401	16.5	69.6
2025-09-03T07:30	10	56	9.2	48	86	401	0.6	400	402	16.5	70.3
2025-09-03T07:31	10	106	4.4	88	110	406	2.6	401	410	16.6	69.8
2025-09-03T07:32	10	66	13.9	53	105	406	2.0	403	410	16.6	69.6
2025-09-03T07:33	10	48	2.0	45	52	403	1.3	401	405	16.6	70.3
2025-09-03T07:34	10	44	0.7	43	46	400	0.6	399	401	16.6	68.9
2025-09-03T07:35	10	42	0.6	41	43	399	0.7	398	401	16.6	70.1
2025-09-03T07:36	10	42	0.6	41	43	398	0.4	398	399	16.6	70.2
2025-09-03T07:37	10	45	1.6	43	48	399	0.5	398	400	16.5	70.6
2025-09-03T07:38	10	45	0.5	44	46	400	0.4	399	401	16.6	72.1
2025-09-03T07:39	10	47	0.9	46	49	400	0.4	399	401	16.6	70.2
2025-09-03T07:40	10	52	2.5	49	59	400	0.8	399	402	16.6	70.9
2025-09-03T07:41	10	98	16.6	60	123	406	3.7	401	412	16.7	70.6
2025-09-03T07:42	10	97	19.0	69	126	411	1.1	409	413	16.8	71.9
2025-09-03T07:43	10	126	7.1	112	135	413	0.8	411	414	16.8	70.8
2025-09-03T07:44	10	105	13.3	82	124	414	0.6	412	415	16.9	69.8
2025-09-03T07:45	10	98	8.1	85	113	412	0.4	412	414	16.9	69.5
2025-09-03T07:46	10	89	6.2	73	98	412	0.6	411	414	17.0	68.8
2025-09-03T07:47	10	67	14.2	53	96	410	1.4	408	413	17.1	69.8
2025-09-03T07:48	10	90	13.5	67	115	411	1.0	409	412	17.1	68.7
2025-09-03T07:49	10	105	24.2	57	129	412	1.3	409	414	17.0	67.8
2025-09-03T07:50	10	48	2.2	46	55	406	2.5	402	411	17.1	67.9
2025-09-03T07:51	10	45	0.7	44	47	402	0.9	401	404	17.1	68.5
2025-09-03T07:52	10	45	1.0	43	46	401	0.4	400	402	17.0	67.6
2025-09-03T07:53	10	46	3.6	44	61	400	0.3	400	401	17.0	66.3
2025-09-03T07:54	10	76	14.3	53	93	404	2.2	400	407	17.0	67.3
2025-09-03T07:55	10	57	3.9	52	68	405	0.4	404	406	17.0	68.5
2025-09-03T07:56	10	76	7.0	58	87	407	0.7	405	408	17.0	67.7
2025-09-03T07:57	10	87	19.9	56	114	407	1.8	405	411	17.0	67.7
2025-09-03T07:58	10	132	6.1	117	138	415	2.7	409	418	17.1	67.8
2025-09-03T07:59	10	76	26.5	48	119	413	3.3	407	418	17.2	68.0
2025-09-03T08:00	10	50	1.3	48	54	406	1.2	405	409	17.2	66.8
2025-09-03T08:01	10	104	29.5	55	134	409	3.1	404	413	17.3	67.4
2025-09-03T08:02	10	131	3.1	124	134	414	1.5	412	416	17.3	65.7
2025-09-03T08:03	10	120	6.3	110	131	415	1.0	413	417	17.2	66.9
2025-09-03T08:04	10	129	2.5	123	130	416	1.0	415	418	17.4	66.4
2025-09-03T08:05	10	96	30.5	50	130	414	3.3	408	418	17.4	65.3
2025-09-03T08:06	10	52	15.4	38	81	407	2.9	402	411	17.4	65.4
2025-09-03T08:07	10	53	26.2	36	113	403	1.4	401	407	17.4	65.7
2025-09-03T08:08	10	51	16.1	36	101	403	1.9	402	407	17.4	65.9
2025-09-03T08:09	10	63	24.3	35	97	404	1.5	401	406	17.4	65.7
2025-09-03T08:10	10	52	16.5	35	90	403	1.5	401	406	17.4	66.6
2025-09-03T08:11	10	95	18.2	54	119	410	3.1	403	413	17.5	67.1
2025-09-03T08:12	10	79	27.3	35	120	409	1.4	406	412	17.5	66.1
2025-09-03T08:13	10	93	18.2	65	121	412	1.5	408	413	17.5	64.9
2025-09-03T08:14	10	64	27.4	22	104	408	2.2	403	410	17.5	65.5
2025-09-03T08:15	10	22	0.5	21	23	400	2.2	397	405	17.4	65.7
2025-09-03T08:16	10	25	2.5	21	29	398	0.2	397	398	17.4	65.9
2025-09-03T08:17	10	31	7.4	23	52	398	0.3	398	399	17.4	65.9
2025-09-03T08:18	10	101	18.3	54	116	404	4.0	397	410	17.4	65.3
2025-09-03T08:19	10	115	0.2	115	116	412	1.8	408	414	17.4	65.5
2025-09-03T08:20	10	93	21.0	58	115	413	1.1	410	414	17.5	65.9
2025-09-03T08:21	10	102	15.7	61	115	413	2.2	410	416	17.5	65.6
2025-09-03T08:22	10	114	0.5	113	115	416	0.4	415	417	17.6	65.4
2025-09-03T08:23	10	113	0.4	112	113	416	0.5	414	417	17.8	65.1
2025-09-03T08:24	10	112	0.2	111	112	414	1.0	413	416	17.8	64.2
2025-09-03T08:25	10	111	0.1	111	112	416	0.3	415	417	18.0	65.3
2025-09-03T08:26	10	111	0.1	111	111	415	0.8	414	417	18.0	62.5
2025-09-03T08:27	10	111	0.1	111	111	417	0.5	416	417	18.0	63.3
2025-09-03T08:28	10	111	0.1	111	111	416	0.3	415	417	18.1	63.3
2025-09-03T08:29	10	111	0.1	111	111	418	0.9	417	420	18.1	62.9
2025-09-03T08:30	10	111	0.1	111	111	420	0.5	419	421	18.1	62.9
2025-09-03T08:31	10	111	0.1	111	111	421	0.6	420	422	18.1	62.9
2025-09-03T08:32	10	111	0.1	111	111	421	0.4	420	422	18.1	62.9
2025-09-03T08:33	10	111	0.1	111	111	420	0.4	420	421	18.1	62.9
2025-09-03T08:34	10	111	0.1	111	112	421	1.0	419	423	18.1	62.9
2025-09-03T08:35	10	112	0.1	111	112	419	0.4	418	420	18.1	62.9
2025-09-03T08:36	10	112	0.1	111	112	422	1.1	419	423	18.3	63.8
2025-09-03T08:37	10	112	0.1	112	112	422	0.6	421	424	18.6	63.6
2025-09-03T08:38	10	112	0.1	112	113	420	1.3	417	422	18.5	62.1
2025-09-03T08:39	10	112	0.1	112	113	420	1.5	418	422	18.6	63.1
2025-09-03T08:40	10	113	0.1	112	113	421	0.7	420	423	18.6	62.2
2025-09-03T08:41	10	113	0.1	113	113	421	0.7	420	422	18.5	61.9
2025-09-03T08:42	10	113	0.1	113	113	421	0.7	420	423	18.6	61.6
2025-09-03T08:43	10	113	0.1	113	114	424	1.3	421	425	18.7	61.7
2025-09-03T08:44	10	114	0.1	113	114	424	0.9	422	425	18.8	61.5
2025-09-03T08:45	10	114	0.1	114	114	421	0.7	420	423	18.5	60.4
2025-09-03T08:46	10	114	0.1	114	115	424	0.6	422	425	18.7	62.1
2025-09-03T08:47	10	115	0.1	114	115	424	0.5	424	425	18.7	61.7
2025-09-03T08:48	10	115	0.1	115	115	423	1.7	421	426	18.6	61.2
2025-09-03T08:49	10	115	0.1	115	115	422	0.4	421	423	18.5	61.1
2025-09-03T08:50	10	116	0.1	115	116	423	0.4	423	425	18.7	61.5
2025-09-03T08:51	10	116	0.1	116	116	425	0.4	424	426	18.9	62.7
2025-09-03T08:52	10	116	0.1	116	116	423	1.2	421	425	18.8	61.4
2025-09-03T08:53	10	116	0.1	116	117	423	0.4	422	423	18.6	61.2
2025-09-03T08:54	10	117	0.1	116	117	422	0.8	421	424	18.6	60.9
2025-09-03T08:55	10	117	0.2	117	117	424	0.7	423	425	18.7	61.2
2025-09-03T08:56	10	117	0.2	117	118	424	0.9	423	426	18.8	61.2
2025-09-03T08:57	10	118	0.1	117	118	423	0.4	422	424	18.7	60.7
2025-09-03T08:58	10	118	0.1	118	118	425	1.2	423	427	18.7	61.5
2025-09-03T08:59	10	118	0.1	118	118	425	0.8	424	427	18.8	61.3
2025-09-03T09:00	10	118	0.2	118	119	426	0.4	425	427	18.9	60.9
2025-09-03T09:01	10	119	0.2	118	119	428	1.0	426	430	19.0	61.6
2025-09-03T09:02	10	119	0.2	119	119	430	1.0	428	431	19.2	61.8
2025-09-03T09:03	10	119	0.1	119	120	427	0.7	426	429	19.0	60.7
2025-09-03T09:04	10	120	0.2	119	120	428	0.3	427	429	19.0	60.3
2025-09-03T09:05	10	120	0.1	120	120	429	1.8	427	433	19.1	61.5
2025-09-03T09:06	10	120	0.1	120	120	430	1.3	428	432	19.3	61.2
2025-09-03T09:07	10	120	0.1	120	120	431	1.6	428	433	19.3	61.1
2025-09-03T09:08	10	120	0.1	120	121	433	1.2	431	434	19.5	61.8
2025-09-03T09:09	10	121	0.2	121	121	431	0.7	430	432	19.3	60.5
2025-09-03T09:10	10	121	0.1	121	122	431	1.1	429	433	19.4	61.5
2025-09-03T09:11	10	122	0.1	121	122	432	0.5	431	433	19.4	61.1
2025-09-03T09:12	10	122	0.1	122	122	434	0.6	432	435	19.4	61.2
2025-09-03T09:13	10	122	0.2	122	123	435	0.3	434	435	19.4	61.7
2025-09-03T09:14	10	123	0.1	123	123	434	0.9	433	436	19.5	60.4
2025-09-03T09:15	10	123	0.1	123	123	433	0.6	432	434	19.4	60.1
2025-09-03T09:16	10	123	0.1	123	123	432	0.6	432	434	19.4	60.3
2025-09-03T09:17	10	123	0.1	123	123	433	0.5	431	434	19.4	60.5
2025-09-03T09:18	10	123	0.1	123	124	434	0.4	433	435	19.4	60.5
2025-09-03T09:19	10	124	0.1	123	124	435	0.6	434	436	19.3	60.3
2025-09-03T09:20	10	124	0.1	124	124	435	0.6	434	437	19.6	59.9
2025-09-03T09:21	10	124	0.1	124	124	436	0.8	434	438	19.5	58.6
2025-09-03T09:22	10	124	0.1	124	125	438	0.5	437	439	19.8	61.6
2025-09-03T09:23	10	125	0.1	124	125	439	1.1	437	440	20.0	62.1
2025-09-03T09:24	10	125	0.1	125	125	436	0.9	435	439	19.9	59.3
2025-09-03T09:25	10	125	0.1	125	125	440	1.1	438	441	19.9	61.0
2025-09-03T09:26	10	125	0.1	125	126	440	1.8	438	442	20.0	60.1
2025-09-03T09:27	10	126	0.1	125	126	437	1.0	435	439	19.9	59.4
2025-09-03T09:28	10	126	0.1	126	126	436	1.2	435	438	19.8	60.1
2025-09-03T09:29	10	126	0.1	126	126	438	1.0	437	440	20.0	60.2
2025-09-03T09:30	10	126	0.1	126	126	437	0.8	436	439	19.8	58.8
2025-09-03T09:31	10	126	0.1	126	127	438	1.0	437	440	19.9	59.3
2025-09-03T09:32	10	127	0.1	126	127	437	0.3	437	438	19.8	58.8
2025-09-03T09:33	10	127	0.1	126	127	437	0.9	436	439	19.7	58.8
2025-09-03T09:34	10	127	0.1	126	127	442	1.4	439	444	20.1	61.7
2025-09-03T09:35	10	127	0.2	127	128	440	0.4	439	441	20.0	58.8
2025-09-03T09:36	10	127	0.2	127	128	440	0.8	438	441	20.0	58.9
2025-09-03T09:37	10	128	0.2	127	128	440	0.8	439	441	19.9	57.4
2025-09-03T09:38	10	128	0.2	127	128	441	1.1	439	443	19.9	57.6
2025-09-03T09:39	10	128	1.1	128	135	442	0.8	441	444	20.0	58.5
2025-09-03T09:40	10	128	0.2	128	129	442	1.2	440	444	20.4	60.5
2025-09-03T09:41	10	128	0.2	128	129	442	0.6	440	443	20.5	60.0
2025-09-03T09:42	10	129	0.2	128	129	442	0.4	441	443	20.4	58.1
2025-09-03T09:43	10	129	0.1	129	129	444	0.8	442	445	20.3	58.0
2025-09-03T09:44	10	129	0.1	129	130	445	0.3	444	446	20.3	57.7
2025-09-03T09:45	10	129	0.1	129	130	444	0.7	442	445	20.4	58.7
2025-09-03T09:46	10	130	0.1	129	130	444	0.8	443	446	20.5	59.2
2025-09-03T09:47	10	130	0.1	130	130	444	0.6	443	446	20.5	58.0
2025-09-03T09:48	10	130	0.2	130	130	446	0.7	445	447	20.6	59.1
2025-09-03T09:49	10	130	0.1	130	130	446	1.1	444	447	20.6	57.3
2025-09-03T09:50	10	130	0.1	130	131	444	0.7	443	446	20.5	58.5
2025-09-03T09:51	10	130	0.1	130	130	444	0.5	443	445	20.6	58.8
2025-09-03T09:52	10	130	0.1	130	131	446	1.2	444	448	20.9	58.7
2025-09-03T09:53	10	131	0.1	130	131	444	1.7	441	448	20.8	55.6
2025-09-03T09:54	10	131	0.1	131	131	441	0.8	440	443	20.5	53.6
2025-09-03T09:55	10	131	0.1	131	131	443	1.0	441	445	20.5	54.4
2025-09-03T09:56	10	131	0.1	131	131	443	0.6	442	444	20.6	54.2
2025-09-03T09:57	10	131	0.1	131	131	442	1.2	440	444	20.6	54.4
2025-09-03T09:58	10	131	0.1	131	131	440	0.3	439	441	20.4	53.9
2025-09-03T09:59	10	131	0.1	131	131	441	1.0	439	442	20.3	53.6
2025-09-03T10:00	10	131	0.1	131	132	442	0.9	440	444	20.2	53.5
2025-09-03T10:01	10	131	0.1	131	132	444	0.4	443	445	20.5	54.7
2025-09-03T10:02	10	132	0.2	131	132	445	0.3	444	445	20.5	52.8
2025-09-03T10:03	10	132	0.1	132	132	443	1.7	440	445	20.6	53.8
2025-09-03T10:04	10	132	0.2	132	132	442	0.8	440	443	20.5	53.6
2025-09-03T10:05	10	132	0.1	132	132	444	0.8	442	445	20.6	53.7
2025-09-03T10:06	10	133	1.2	132	141	447	1.2	444	449	20.9	54.1
2025-09-03T10:07	10	133	0.1	133	133	450	0.9	449	452	20.8	53.6
2025-09-03T10:08	10	133	0.1	133	134	448	0.6	446	449	20.9	54.1
2025-09-03T10:09	10	134	0.1	134	134	444	2.9	441	450	20.6	53.0
2025-09-03T10:10	10	134	0.1	134	134	443	0.6	442	445	20.5	53.4
2025-09-03T10:11	10	134	0.1	134	134	444	0.6	443	445	20.6	52.7
2025-09-03T10:12	10	134	0.1	134	134	446	0.8	445	448	20.7	53.7
2025-09-03T10:13	10	134	0.1	134	134	443	0.7	442	445	20.6	52.9
2025-09-03T10:14	10	134	0.1	134	134	444	1.0	443	446	20.6	53.0
2025-09-03T10:15	10	135	0.1	134	135	445	0.4	445	446	20.7	53.7
2025-09-03T10:16	10	135	0.1	135	135	443	1.0	442	445	20.7	52.8
2025-09-03T10:17	10	135	0.1	135	135	445	1.1	443	447	20.8	54.0
2025-09-03T10:18	10	135	0.1	135	135	446	0.6	445	447	20.8	53.0
2025-09-03T10:19	10	136	0.1	135	136	447	0.5	446	448	20.9	53.3
2025-09-03T10:20	10	136	0.1	136	136	447	0.4	446	448	20.8	53.2
2025-09-03T10:21	10	136	0.1	136	136	448	0.7	446	449	20.9	53.7
2025-09-03T10:22	10	136	0.2	136	136	450	1.6	448	453	21.0	53.9
2025-09-03T10:23	10	136	0.1	136	136	452	0.4	451	453	21.1	53.9
2025-09-03T10:24	10	136	0.1	136	137	451	1.2	449	453	21.2	54.4
2025-09-03T10:25	10	137	0.1	137	137	452	1.1	450	454	21.2	53.9
2025-09-03T10:26	10	137	0.1	137	137	451	1.6	449	454	21.2	53.4
2025-09-03T10:27	10	137	0.1	137	137	451	1.0	449	452	21.0	53.2
2025-09-03T10:28	10	137	0.1	137	137	450	1.2	449	453	21.1	53.9
2025-09-03T10:29	10	137	0.1	137	138	450	1.0	448	451	21.2	54.4
2025-09-03T10:30	10	137	0.1	137	138	449	1.2	447	451	21.2	53.2
2025-09-03T10:31	10	137	0.1	137	138	449	0.5	448	450	21.0	53.0
2025-09-03T10:32	10	138	0.1	137	138	450	1.3	447	451	21.2	54.2
2025-09-03T10:33	10	138	0.1	138	138	448	0.7	447	449	21.0	52.4
2025-09-03T10:34	10	138	0.1	138	138	452	1.8	449	455	20.8	51.8
2025-09-03T10:35	10	138	0.2	138	138	456	1.3	454	458	21.0	52.7
2025-09-03T10:36	10	138	0.1	138	139	455	1.6	453	458	21.3	53.6
2025-09-03T10:37	10	138	0.1	138	139	453	1.2	451	455	21.0	52.2
2025-09-03T10:38	10	139	0.1	138	139	449	0.9	448	451	21.1	53.0
2025-09-03T10:39	10	139	0.1	138	139	449	0.7	448	451	21.0	52.6
2025-09-03T10:40	10	139	0.1	138	139	451	0.8	449	452	20.9	51.8
2025-09-03T10:41	10	139	0.1	138	139	452	0.7	451	453	21.2	53.0
2025-09-03T10:42	10	139	0.1	139	139	451	0.8	450	453	21.3	53.1
2025-09-03T10:43	10	139	0.1	139	139	451	0.4	451	452	21.3	52.0
2025-09-03T10:44	10	139	0.1	139	139	452	0.3	452	453	21.3	52.4
2025-09-03T10:45	10	139	0.1	139	139	453	0.5	452	454	21.3	52.5
2025-09-03T10:46	10	139	0.1	139	140	452	0.8	451	454	21.1	52.2
2025-09-03T10:47	10	140	0.1	140	140	453	0.4	452	454	21.3	52.4
2025-09-03T10:48	10	140	0.1	139	140	452	1.1	451	454	21.2	52.4
2025-09-03T10:49	10	140	0.1	139	140	454	1.3	452	456	21.1	52.8
2025-09-03T10:50	10	140	0.1	139	140	456	0.4	456	457	21.2	53.7
2025-09-03T10:51	10	140	0.1	140	140	458	0.6	457	459	21.2	52.4
2025-09-03T10:52	10	140	0.2	140	141	459	0.2	458	459	21.3	52.8
2025-09-03T10:53	10	140	0.1	140	140	460	0.9	459	462	21.4	53.3
2025-09-03T10:54	10	141	0.2	140	141	460	0.8	458	462	21.5	54.5
2025-09-03T10:55	10	141	0.1	141	141	455	2.3	453	460	21.5	52.0
2025-09-03T10:56	10	141	0.1	141	141	453	0.8	452	455	21.3	52.0
2025-09-03T10:57	10	141	0.1	140	141	455	1.6	452	457	21.1	51.8
2025-09-03T10:58	10	141	0.1	140	141	458	0.4	457	459	21.4	53.7
2025-09-03T10:59	10	141	0.2	140	141	460	1.2	457	462	21.5	53.6
2025-09-03T11:00	10	141	0.1	141	141	461	0.5	460	462	21.6	53.2
2025-09-03T11:01	10	141	0.1	141	141	460	0.7	459	462	21.5	53.6
2025-09-03T11:02	10	141	0.1	141	141	462	0.5	461	463	21.7	53.2
2025-09-03T11:03	10	141	0.2	141	142	461	1.5	458	463	21.9	55.2
2025-09-03T11:04	10	142	0.1	141	142	458	0.8	457	460	21.8	54.2
2025-09-03T11:05	10	142	0.1	142	142	458	0.6	457	459	21.5	52.6
2025-09-03T11:06	10	142	0.1	141	142	457	0.4	457	458	21.4	52.7
2025-09-03T11:07	10	141	0.1	141	142	459	0.6	458	461	21.4	53.7
2025-09-03T11:08	10	141	0.1	141	142	459	2.2	455	462	21.6	53.5
2025-09-03T11:09	10	141	0.1	141	142	456	0.5	455	458	21.5	52.0
2025-09-03T11:10	10	141	0.1	141	142	460	1.5	457	462	21.6	53.2
2025-09-03T11:11	10	141	0.1	141	142	461	0.4	461	462	21.9	53.2
2025-09-03T11:12	10	141	0.1	141	142	463	0.6	461	464	21.9	52.9
2025-09-03T11:13	10	142	0.1	141	142	464	0.4	462	464	21.9	53.6
2025-09-03T11:14	10	142	0.1	142	142	460	1.7	458	463	22.2	53.3
2025-09-03T11:15	10	142	0.1	142	142	459	0.8	457	461	22.0	51.4
2025-09-03T11:16	10	142	0.1	142	142	457	1.0	455	458	21.7	50.9
2025-09-03T11:17	10	142	0.1	142	142	456	0.8	454	457	21.7	50.7
2025-09-03T11:18	10	142	0.1	142	142	457	1.0	455	458	21.6	50.4
2025-09-03T11:19	10	142	0.1	142	142	459	0.8	457	461	21.6	50.2
2025-09-03T11:20	10	142	0.2	141	142	461	0.3	460	462	21.7	50.7
2025-09-03T11:21	10	142	0.1	142	142	461	0.2	461	462	21.9	51.2
2025-09-03T11:22	10	142	0.1	142	142	460	1.0	458	462	21.8	49.7
2025-09-03T11:23	10	142	0.1	142	142	461	1.3	459	463	21.8	49.4
2025-09-03T11:24	10	142	0.1	142	142	461	1.0	460	463	21.9	49.5
2025-09-03T11:25	10	142	0.1	142	143	461	0.6	461	463	22.3	51.0
2025-09-03T11:26	10	143	0.1	142	143	458	1.1	457	461	22.1	48.3
2025-09-03T11:27	10	142	0.1	142	143	460	0.5	458	460	22.0	49.3
2025-09-03T11:28	10	142	0.1	142	142	460	0.8	459	461	22.1	50.1
2025-09-03T11:29	10	142	0.1	142	143	460	0.6	459	461	22.1	50.0
2025-09-03T11:30	10	142	0.1	142	143	461	0.3	460	461	22.4	50.5
2025-09-03T11:31	10	143	0.1	142	143	460	0.9	458	461	22.3	49.6
2025-09-03T11:32	10	143	0.1	142	143	457	1.3	455	459	22.1	49.6
2025-09-03T11:33	10	143	0.1	142	143	459	1.1	457	461	21.9	49.6
2025-09-03T11:34	10	143	0.1	142	143	463	1.3	461	465	22.0	49.0
2025-09-03T11:35	10	143	0.1	142	143	464	1.5	461	466	22.3	49.9
2025-09-03T11:36	10	143	0.1	143	143	459	1.7	457	462	22.3	47.4
2025-09-03T11:37	10	143	0.1	142	143	459	1.1	457	460	22.1	48.3
2025-09-03T11:38	10	143	0.1	142	143	461	0.9	459	462	22.2	47.3
2025-09-03T11:39	10	143	0.2	142	143	464	0.7	462	465	22.2	48.3
2025-09-03T11:40	10	143	0.2	142	143	466	1.2	462	467	22.4	50.1
2025-09-03T11:41	10	143	0.2	142	143	463	0.9	461	464	22.8	50.6
2025-09-03T11:42	10	143	0.2	142	143	464	0.5	463	465	22.8	49.8
2025-09-03T11:43	10	143	0.2	142	143	466	0.7	464	467	22.7	49.7
2025-09-03T11:44	10	143	0.2	142	144	462	2.1	459	466	22.6	48.3
2025-09-03T11:45	10	143	0.2	143	143	461	0.8	460	463	22.2	47.1
2025-09-03T11:46	10	143	0.2	142	143	464	0.4	463	465	22.2	48.4
2025-09-03T11:47	10	143	0.1	143	143	464	0.8	462	465	22.2	47.8
2025-09-03T11:48	10	143	0.2	143	143	465	1.0	463	466	22.2	47.5
2025-09-03T11:49	10	143	0.1	143	143	465	0.6	464	466	22.3	48.3
2025-09-03T11:50	10	143	0.1	143	143	466	0.6	465	467	22.5	48.9
2025-09-03T11:51	10	143	0.1	143	143	464	1.4	461	466	22.7	50.3
2025-09-03T11:52	10	143	0.1	143	144	460	1.3	458	464	22.4	48.0
2025-09-03T11:53	10	143	0.1	143	144	461	0.7	459	462	22.4	49.2
2025-09-03T11:54	10	143	0.2	143	143	460	0.4	459	461	22.3	47.7
2025-09-03T11:55	10	143	0.1	142	143	464	1.8	461	466	22.3	47.8
2025-09-03T11:56	10	143	0.1	143	143	467	0.5	466	468	22.6	50.1
2025-09-03T11:57	10	143	0.1	143	143	466	2.0	461	468	22.9	49.1
2025-09-03T11:58	10	143	0.1	143	143	461	0.6	460	462	22.5	48.0
2025-09-03T11:59	10	143	0.1	142	143	462	0.6	461	463	22.3	47.6
2025-09-03T12:00	10	143	0.1	142	143	465	1.3	463	467	22.4	48.0
2025-09-03T12:01	10	143	0.1	143	143	465	1.7	461	467	22.6	48.0
2025-09-03T12:02	10	143	0.1	143	143	462	0.6	460	463	22.6	47.8
2025-09-03T12:03	10	143	0.1	143	143	461	0.8	460	463	22.6	47.8
2025-09-03T12:04	10	143	0.1	143	143	461	0.9	459	462	22.5	47.7
2025-09-03T12:05	10	143	0.1	143	143	460	1.2	458	462	22.4	47.7
2025-09-03T12:06	10	143	0.1	143	143	461	0.5	460	463	22.5	47.3
2025-09-03T12:07	10	143	0.1	143	143	464	0.8	462	465	22.5	47.7
2025-09-03T12:08	10	143	0.1	143	143	465	1.1	463	467	22.6	47.1
2025-09-03T12:09	10	143	0.1	143	143	466	0.6	464	466	22.7	48.0
2025-09-03T12:10	10	143	0.1	143	143	462	1.8	460	465	22.8	47.7
2025-09-03T12:11	10	143	0.1	143	143	463	1.4	460	465	22.5	46.9
2025-09-03T12:12	10	143	0.2	142	143	465	0.3	464	465	22.6	47.1
2025-09-03T12:13	10	143	0.1	142	143	467	0.8	465	468	22.5	46.9
2025-09-03T12:14	10	143	0.2	142	143	467	0.3	467	468	22.6	46.1
2025-09-03T12:15	10	143	0.1	142	143	468	0.4	467	469	22.8	47.3
2025-09-03T12:16	10	143	0.1	142	143	468	0.5	468	470	23.0	46.9
2025-09-03T12:17	10	143	0.1	142	143	468	2.0	464	470	23.1	48.6
2025-09-03T12:18	10	143	0.1	142	143	464	0.7	463	465	22.9	47.0
2025-09-03T12:19	10	142	0.1	142	143	464	0.4	463	465	22.7	47.5
2025-09-03T12:20	10	142	0.1	142	142	463	0.5	462	464	22.7	47.6
2025-09-03T12:21	10	142	0.1	142	142	465	1.2	462	466	22.7	48.0
2025-09-03T12:22	10	142	0.1	142	142	467	0.4	466	468	22.7	47.6
2025-09-03T12:23	10	142	0.1	142	142	467	0.9	465	469	23.0	47.6
2025-09-03T12:24	10	142	0.1	142	142	464	0.7	462	466	22.9	47.4
2025-09-03T12:25	10	142	0.1	141	142	463	0.7	462	465	23.0	49.2
2025-09-03T12:26	10	141	0.2	141	142	463	1.5	461	466	23.0	48.6
2025-09-03T12:27	10	141	0.1	141	141	466	0.7	465	468	22.9	48.3
2025-09-03T12:28	10	141	0.1	141	141	468	0.4	467	469	23.0	49.5
2025-09-03T12:29	10	141	0.1	141	141	468	0.3	467	468	23.3	49.9
2025-09-03T12:30	10	141	0.2	141	142	468	0.7	465	469	23.4	48.7
2025-09-03T12:31	10	141	0.1	141	142	463	1.1	461	466	23.1	48.0
2025-09-03T12:32	10	141	0.1	141	142	465	0.5	464	466	23.0	49.2
2025-09-03T12:33	10	141	0.2	141	141	463	0.6	462	464	23.0	49.0
2025-09-03T12:34	10	141	0.1	140	141	464	0.5	463	465	22.9	48.4
2025-09-03T12:35	10	141	0.2	140	141	465	0.4	464	466	23.0	48.7
2025-09-03T12:36	10	141	0.1	140	141	466	0.4	465	467	23.0	48.3
2025-09-03T12:37	10	141	0.2	140	141	467	0.5	465	468	23.1	49.4
2025-09-03T12:38	10	141	0.2	140	141	467	0.6	466	469	23.3	51.1
2025-09-03T12:39	10	141	0.2	140	141	465	0.4	464	466	23.3	49.8
2025-09-03T12:40	10	140	0.2	140	141	464	0.6	463	466	23.3	50.4
2025-09-03T12:41	10	140	0.2	139	140	466	0.4	465	466	23.5	50.9
2025-09-03T12:42	10	140	0.2	139	140	465	0.7	464	466	23.7	50.9
2025-09-03T12:43	10	139	0.1	139	140	466	0.4	465	467	23.5	50.4
2025-09-03T12:44	10	140	0.1	139	140	463	1.2	462	466	23.4	49.9
2025-09-03T12:45	10	139	0.2	139	140	464	1.1	462	466	23.0	49.2
2025-09-03T12:46	10	139	0.1	139	139	466	0.3	466	467	23.2	50.2
2025-09-03T12:47	10	139	0.1	139	139	464	0.7	464	466	23.4	50.1
2025-09-03T12:48	10	139	0.1	139	139	465	0.5	464	466	23.3	49.1
2025-09-03T12:49	10	139	0.1	139	139	464	0.5	463	465	23.2	49.6
2025-09-03T12:50	10	139	0.1	138	139	465	0.6	464	466	23.1	50.4
2025-09-03T12:51	10	139	0.1	138	139	466	0.5	465	467	23.2	50.1
2025-09-03T12:52	10	139	0.1	138	139	464	0.7	463	466	23.2	49.7
2025-09-03T12:53	10	139	0.2	138	139	466	0.7	465	467	23.1	49.7
2025-09-03T12:54	10	139	0.1	138	139	467	0.8	466	469	23.2	50.6
2025-09-03T12:55	10	139	0.1	138	139	468	0.4	467	469	23.3	50.7
2025-09-03T12:56	10	138	0.1	138	139	467	0.9	465	468	23.3	50.2
2025-09-03T12:57	10	139	0.1	139	139	467	1.1	464	468	23.5	50.2
2025-09-03T12:58	10	139	0.1	139	139	465	0.6	463	466	23.4	48.9
2025-09-03T12:59	10	139	0.1	139	140	463	0.7	462	465	23.4	48.4
2025-09-03T13:00	10	140	0.1	139	140	464	0.6	463	465	23.2	48.9
2025-09-03T13:01	10	140	0.1	140	140	464	0.4	463	465	23.2	48.5
2025-09-03T13:02	10	140	0.2	140	140	466	1.3	464	468	23.2	48.7
2025-09-03T13:03	10	140	0.1	140	140	468	0.4	467	469	23.3	49.2
2025-09-03T13:04	10	140	0.1	140	140	467	1.5	465	469	23.5	49.0
2025-09-03T13:05	10	141	0.4	141	142	462	1.7	460	466	23.3	49.2
2025-09-03T13:06	10	139	1.5	136	142	462	1.9	460	466	23.2	48.7
2025-09-03T13:07	10	140	1.3	138	142	464	1.0	462	466	23.3	48.6
2025-09-03T13:08	10	142	2.2	137	145	466	1.0	464	468	23.3	49.0
2025-09-03T13:09	10	134	17.1	93	148	466	1.8	461	468	23.4	49.0
2025-09-03T13:10	10	110	16.7	85	145	462	1.7	460	465	23.3	48.6
2025-09-03T13:11	10	102	17.7	70	125	460	1.3	457	462	23.5	48.6
2025-09-03T13:12	10	113	10.3	91	130	462	0.8	461	464	23.5	49.3
2025-09-03T13:13	10	125	3.7	115	131	466	0.9	463	467	23.4	49.4
2025-09-03T13:14	10	135	0.7	132	136	466	0.6	465	467	23.5	48.8
2025-09-03T13:15	10	135	0.2	134	135	468	0.3	467	468	23.6	49.5
2025-09-03T13:16	10	134	0.2	134	134	468	0.6	467	470	23.7	49.1
2025-09-03T13:17	10	134	0.1	134	134	469	0.3	468	469	23.9	49.5
2025-09-03T13:18	10	134	0.1	134	134	467	1.2	465	469	23.9	49.8
2025-09-03T13:19	10	134	0.2	133	134	464	1.4	461	465	23.8	49.6
2025-09-03T13:20	10	133	0.1	133	134	462	1.2	460	464	23.8	48.4
2025-09-03T13:21	10	133	0.1	133	134	465	0.6	464	466	23.6	49.0
2025-09-03T13:22	10	134	0.2	133	134	466	0.4	465	466	23.6	48.0
2025-09-03T13:23	10	134	0.3	134	135	465	0.3	465	466	23.6	48.7
2025-09-03T13:24	10	135	0.2	135	136	464	0.9	463	466	23.6	48.5
2025-09-03T13:25	10	131	6.4	112	136	466	0.7	464	467	23.5	49.0
2025-09-03T13:26	10	122	10.1	100	132	466	1.6	463	468	23.6	49.4
2025-09-03T13:27	10	89	6.7	80	100	459	2.2	456	464	23.6	47.9
2025-09-03T13:28	10	90	5.1	82	99	456	1.0	454	458	23.5	47.5
2025-09-03T13:29	10	109	7.9	98	124	457	2.0	454	460	23.6	48.0
2025-09-03T13:30	10	126	5.4	116	135	461	0.7	459	462	23.6	48.1
2025-09-03T13:31	10	135	0.8	134	136	460	0.9	459	462	23.7	46.5
2025-09-03T13:32	10	133	0.5	132	134	464	1.2	461	465	23.7	47.7
2025-09-03T13:33	10	132	0.2	131	132	462	0.9	461	465	23.9	47.6
2025-09-03T13:34	10	131	0.3	130	132	462	0.7	461	463	23.9	47.7
2025-09-03T13:35	10	130	0.3	130	131	461	1.1	459	463	23.8	48.0
2025-09-03T13:36	10	130	0.3	129	130	460	0.9	459	463	23.7	47.5
2025-09-03T13:37	10	130	0.2	129	130	462	0.3	462	463	23.7	48.0
2025-09-03T13:38	10	129	0.2	129	130	463	1.1	461	465	23.8	47.7
2025-09-03T13:39	10	129	0.2	129	130	465	0.6	463	466	23.9	48.5
2025-09-03T13:40	10	129	0.2	129	130	465	0.7	464	466	23.8	45.6
2025-09-03T13:41	10	129	0.2	129	129	466	0.4	465	467	23.8	46.8
2025-09-03T13:42	10	129	0.2	129	129	466	0.2	466	467	24.0	47.1
2025-09-03T13:43	10	129	0.1	128	129	466	0.3	466	467	24.1	47.7
2025-09-03T13:44	10	129	0.1	128	129	464	1.9	461	467	24.1	47.3
2025-09-03T13:45	10	128	0.2	128	129	461	0.6	461	463	24.0	46.5
2025-09-03T13:46	10	128	0.1	128	128	464	0.7	462	465	24.0	48.8
2025-09-03T13:47	10	128	0.1	128	128	463	1.1	461	464	24.2	48.2
2025-09-03T13:48	10	128	0.1	128	128	462	0.9	461	463	24.0	47.0
2025-09-03T13:49	10	128	0.1	127	128	463	0.5	462	464	24.0	46.0
2025-09-03T13:50	10	127	0.1	127	128	463	0.5	463	464	24.0	46.2
2025-09-03T13:51	10	127	0.1	127	127	465	0.6	463	466	24.1	46.6
2025-09-03T13:52	10	127	0.1	127	127	462	1.4	460	464	24.1	46.7
2025-09-03T13:53	10	127	0.1	127	127	460	0.9	459	463	23.9	45.6
2025-09-03T13:54	10	127	0.1	126	127	463	0.5	462	464	23.9	46.6
2025-09-03T13:55	10	126	0.1	126	127	463	0.3	463	464	23.9	45.5
2025-09-03T13:56	10	126	0.1	126	126	465	0.5	464	466	23.9	45.4
2025-09-03T13:57	10	126	0.1	126	126	465	0.3	464	466	24.1	45.9
2025-09-03T13:58	10	126	0.1	126	126	465	0.6	464	466	24.1	45.6
2025-09-03T13:59	10	126	0.1	126	126	462	0.9	460	464	24.1	45.3
2025-09-03T14:00	10	126	0.1	126	126	461	0.7	460	463	24.1	45.1
2025-09-03T14:01	10	126	0.2	125	126	462	1.0	460	464	24.0	45.0
2025-09-03T14:02	10	125	0.1	125	126	465	0.6	463	466	24.2	46.3
2025-09-03T14:03	10	125	0.1	125	126	462	1.4	460	465	24.3	45.4
2025-09-03T14:04	10	125	0.1	125	125	460	0.5	459	461	24.1	44.7
2025-09-03T14:05	10	125	0.1	125	125	461	0.3	461	462	24.1	44.3
2025-09-03T14:06	10	125	0.1	125	125	463	0.6	462	464	24.2	44.5
2025-09-03T14:07	10	125	0.2	125	126	462	0.7	461	464	24.3	44.7
2025-09-03T14:08	10	124	0.3	124	125	461	0.5	461	463	24.3	45.7
2025-09-03T14:09	10	123	0.9	121	124	463	0.8	461	464	24.4	45.2
2025-09-03T14:10	10	120	0.5	119	121	461	1.1	460	463	24.4	44.7
2025-09-03T14:11	10	119	0.7	118	120	460	0.4	459	461	24.4	45.6
2025-09-03T14:12	10	118	0.2	118	119	460	0.6	460	461	24.5	46.5
2025-09-03T14:13	10	117	0.7	116	118	459	1.1	457	461	24.4	45.5
2025-09-03T14:14	10	116	0.4	116	117	460	0.5	458	461	24.3	45.0
2025-09-03T14:15	10	114	1.6	111	116	459	0.8	458	461	24.4	44.8
2025-09-03T14:16	10	109	3.8	99	114	457	1.0	455	459	24.2	44.6
2025-09-03T14:17	10	94	3.8	88	99	455	0.5	454	456	24.1	44.4
2025-09-03T14:18	10	82	2.1	79	88	455	0.6	454	456	24.2	45.3
2025-09-03T14:19	10	84	0.5	83	84	452	2.0	450	455	24.4	46.0
2025-09-03T14:20	10	84	1.8	79	87	451	0.5	450	452	24.2	45.3
2025-09-03T14:21	10	72	3.8	66	79	451	0.5	450	452	24.4	47.2
2025-09-03T14:22	10	73	2.3	67	75	451	0.4	450	452	24.4	45.8
2025-09-03T14:23	10	63	4.2	54	68	451	0.5	450	452	24.4	45.8
2025-09-03T14:24	10	50	0.8	50	54	447	1.5	444	450	24.4	46.0
2025-09-03T14:25	10	48	1.6	46	50	444	1.1	442	446	24.4	48.5
2025-09-03T14:26	10	51	3.1	46	55	442	0.3	442	443	24.2	46.4
2025-09-03T14:27	10	47	1.4	43	48	441	0.2	441	442	24.1	46.0
2025-09-03T14:28	10	41	0.9	39	43	441	0.3	440	442	24.1	45.7
2025-09-03T14:29	10	40	0.3	39	40	439	0.3	439	440	24.0	45.8
2025-09-03T14:30	10	40	0.6	38	41	439	0.3	438	440	24.1	47.2
2025-09-03T14:31	10	37	0.5	37	38	439	0.3	439	440	24.1	47.4
2025-09-03T14:32	10	36	0.3	36	37	438	0.2	438	439	24.1	47.3
2025-09-03T14:33	10	37	0.2	37	38	438	0.6	437	439	24.1	47.3
2025-09-03T14:34	10	39	0.6	38	40	437	0.5	436	438	24.0	46.5
2025-09-03T14:35	10	40	0.3	40	41	439	0.4	438	439	24.0	47.6
2025-09-03T14:36	10	43	0.7	41	44	437	1.0	436	439	24.0	47.0
2025-09-03T14:37	10	45	2.3	43	51	437	0.8	435	438	23.9	46.8
2025-09-03T14:38	10	54	2.9	50	59	439	0.6	438	440	23.9	46.6
2025-09-03T14:39	10	66	4.8	59	73	441	1.4	439	444	23.9	46.7
2025-09-03T14:40	10	71	1.6	66	73	444	0.9	442	445	23.9	46.1
2025-09-03T14:41	10	59	2.9	54	65	444	0.6	443	445	24.0	47.5
2025-09-03T14:42	10	52	2.1	49	55	443	0.4	442	444	24.0	48.1
2025-09-03T14:43	10	47	0.7	46	49	441	0.5	440	442	24.0	47.1
2025-09-03T14:44	10	45	0.8	44	46	441	0.4	440	442	24.0	47.8
2025-09-03T14:45	10	43	0.7	42	44	440	0.2	439	440	24.0	47.4
2025-09-03T14:46	10	40	0.7	39	42	438	0.9	437	440	24.0	47.5
2025-09-03T14:47	10	39	0.6	37	40	437	0.3	436	437	23.9	46.8
2025-09-03T14:48	10	37	0.3	37	38	436	0.3	435	436	23.9	47.8
2025-09-03T14:49	10	36	0.1	36	37	436	0.4	435	437	23.9	49.1
2025-09-03T14:50	10	37	0.3	36	37	437	0.5	436	438	23.9	49.0
2025-09-03T14:51	10	37	0.1	36	37	437	0.2	436	437	24.0	48.5
2025-09-03T14:52	10	37	0.2	36	37	436	0.4	435	437	24.0	49.1
2025-09-03T14:53	10	38	0.3	37	38	435	0.5	434	436	23.9	48.7
2025-09-03T14:54	10	39	0.3	38	39	435	0.3	434	435	23.9	49.0
2025-09-03T14:55	10	40	0.4	39	40	435	0.5	435	436	23.9	49.3
2025-09-03T14:56	10	41	0.3	40	42	436	0.3	436	437	23.9	49.6
2025-09-03T14:57	10	43	0.7	42	44	436	0.4	435	437	23.8	49.1
2025-09-03T14:58	10	45	0.7	44	46	437	0.3	436	437	23.9	46.7
2025-09-03T14:59	10	47	0.4	46	48	437	0.6	436	438	24.0	47.1
2025-09-03T15:00	10	47	0.5	46	48	438	0.4	437	438	24.0	47.9
2025-09-03T15:01	10	45	0.6	44	46	436	0.4	435	437	23.9	48.5
2025-09-03T15:02	10	44	0.2	44	45	436	0.3	435	437	23.8	49.3
2025-09-03T15:03	10	44	0.3	43	44	436	0.3	436	437	23.8	50.0
2025-09-03T15:04	10	43	0.2	43	44	436	0.3	435	436	23.8	50.4
2025-09-03T15:05	10	44	0.1	44	44	435	0.3	435	436	23.8	50.5
2025-09-03T15:06	10	45	0.3	44	45	435	0.4	434	436	23.7	51.0
2025-09-03T15:07	10	48	2.2	45	52	436	0.5	435	437	23.8	51.4
2025-09-03T15:08	10	55	2.2	52	60	436	0.3	435	437	23.7	50.9
2025-09-03T15:09	10	61	0.8	59	62	437	1.0	436	439	23.7	50.8
2025-09-03T15:10	10	59	1.0	57	60	439	0.4	438	439	23.7	51.5
2025-09-03T15:11	10	63	1.7	60	69	439	0.4	438	439	23.8	47.9
2025-09-03T15:12	10	82	6.7	69	92	438	1.1	436	440	23.9	44.5
2025-09-03T15:13	10	91	4.4	82	96	441	1.5	439	443	23.9	49.0
2025-09-03T15:14	10	77	5.0	71	89	443	0.7	442	444	23.9	50.9
2025-09-03T15:15	10	104	9.8	89	122	444	1.1	442	447	23.9	48.0
2025-09-03T15:16	10	127	1.3	122	128	448	0.7	446	449	23.9	44.8
2025-09-03T15:17	10	126	0.7	125	127	450	0.9	448	452	24.0	44.9
2025-09-03T15:18	10	123	1.5	121	125	451	0.6	450	452	24.0	45.9
2025-09-03T15:19	10	121	0.1	120	121	450	0.4	449	451	24.0	46.6
2025-09-03T15:20	10	119	0.6	118	120	452	0.7	450	453	24.1	48.1
2025-09-03T15:21	10	117	0.4	117	118	453	0.2	453	454	24.2	48.3
2025-09-03T15:22	10	114	4.0	102	117	452	1.3	449	454	24.3	48.6
2025-09-03T15:23	10	88	6.6	77	101	448	1.8	444	451	24.3	48.0
2025-09-03T15:24	10	102	7.0	84	111	447	1.2	445	449	24.2	49.1
2025-09-03T15:25	10	106	5.7	94	114	449	1.2	448	451	24.2	49.3
2025-09-03T15:26	10	62	11.8	46	93	445	3.7	441	452	24.3	47.9
2025-09-03T15:27	10	68	15.8	45	90	441	1.4	438	443	24.3	44.9
2025-09-03T15:28	10	99	3.7	89	103	445	1.4	442	447	24.2	49.1
2025-09-03T15:29	10	100	3.0	94	103	444	0.8	443	446	24.2	40.9
2025-09-03T15:30	10	100	1.3	98	102	444	0.6	442	445	24.2	43.8
2025-09-03T15:31	10	99	0.9	97	101	446	0.6	444	446	24.3	46.9
2025-09-03T15:32	10	84	5.5	77	97	444	1.4	441	446	24.2	46.8
2025-09-03T15:33	10	76	4.5	69	83	442	0.4	441	443	24.2	48.5
2025-09-03T15:34	10	67	7.2	60	82	441	1.6	438	444	24.2	45.9
2025-09-03T15:35	10	74	4.9	66	83	439	0.5	438	439	24.1	45.9
2025-09-03T15:36	10	77	3.5	72	84	439	0.4	438	440	24.2	45.6
2025-09-03T15:37	10	92	3.1	85	96	442	1.5	439	444	24.2	47.2
2025-09-03T15:38	10	94	1.4	93	97	444	1.1	443	446	24.3	47.7
2025-09-03T15:39	10	88	7.8	78	97	446	0.5	445	447	24.4	49.1
2025-09-03T15:40	10	81	2.3	78	84	444	1.4	441	446	24.4	47.6
2025-09-03T15:41	10	75	1.5	73	79	441	0.5	440	442	24.3	47.6
2025-09-03T15:42	10	76	1.4	73	78	441	0.6	440	442	24.3	49.7
2025-09-03T15:43	10	77	1.7	74	80	442	0.7	441	443	24.3	48.0
2025-09-03T15:44	10	71	3.0	62	74	440	0.6	439	442	24.3	45.8
2025-09-03T15:45	10	65	4.0	61	76	438	0.2	438	439	24.3	47.2
2025-09-03T15:46	10	82	3.2	76	89	439	0.5	438	440	24.3	44.8
2025-09-03T15:47	10	86	4.6	79	92	440	0.3	440	441	24.3	45.2
2025-09-03T15:48	10	89	1.1	86	90	441	0.5	440	442	24.3	43.8
2025-09-03T15:49	10	83	1.3	81	86	440	0.3	439	441	24.3	43.2
2025-09-03T15:50	10	80	5.6	73	91	440	0.3	440	441	24.4	44.2
2025-09-03T15:51	10	91	0.3	91	92	441	0.5	440	442	24.4	44.3
2025-09-03T15:52	10	90	0.5	89	91	442	0.3	441	442	24.4	43.3
2025-09-03T15:53	10	89	1.0	87	90	442	0.3	441	442	24.4	42.4
2025-09-03T15:54	10	88	0.9	87	89	442	0.4	441	443	24.4	43.0
2025-09-03T15:55	10	89	0.2	88	89	443	0.5	442	444	24.5	43.7
2025-09-03T15:56	10	88	0.2	88	89	444	0.8	442	445	24.5	43.9
2025-09-03T15:57	10	88	0.3	87	88	445	0.5	444	446	24.6	44.7
2025-09-03T15:58	10	82	2.6	79	87	444	0.4	444	446	24.7	43.8
2025-09-03T15:59	10	76	2.1	71	79	444	1.0	442	445	24.8	44.8
2025-09-03T16:00	10	63	5.6	55	71	439	1.7	436	443	24.6	42.7
2025-09-03T16:01	10	63	1.2	60	65	436	0.6	435	437	24.5	42.3
2025-09-03T16:02	10	65	0.9	64	66	436	0.3	435	436	24.4	42.7
2025-09-03T16:03	10	73	4.6	64	78	437	0.7	435	438	24.4	41.7
2025-09-03T16:04	10	81	1.5	78	83	438	0.3	437	438	24.4	41.8
2025-09-03T16:05	10	80	1.5	78	82	438	0.4	437	439	24.4	42.0
2025-09-03T16:06	10	80	0.4	79	81	437	0.4	437	438	24.3	41.1
2025-09-03T16:07	10	80	0.2	80	81	438	0.2	437	438	24.4	43.1
2025-09-03T16:08	10	79	0.4	78	80	438	0.5	436	439	24.4	42.3
2025-09-03T16:09	10	79	0.2	78	79	439	0.5	438	440	24.4	43.5
2025-09-03T16:10	10	78	0.2	78	79	439	0.3	438	439	24.5	42.8
2025-09-03T16:11	10	77	0.2	77	78	439	0.3	438	439	24.5	43.1
2025-09-03T16:12	10	77	0.2	77	77	438	0.8	436	439	24.4	42.8
2025-09-03T16:13	10	76	0.6	74	77	438	0.6	437	439	24.4	43.6
2025-09-03T16:14	10	74	0.5	74	75	438	0.2	438	439	24.4	43.8
2025-09-03T16:15	10	75	0.1	74	75	438	0.6	437	439	24.4	43.4
2025-09-03T16:16	10	74	0.2	74	74	437	0.4	436	438	24.4	44.2
2025-09-03T16:17	10	74	0.1	73	74	437	0.2	437	438	24.4	44.1
2025-09-03T16:18	10	72	0.5	71	73	437	0.3	436	437	24.4	43.8
2025-09-03T16:19	10	70	1.0	67	71	436	0.5	435	437	24.4	44.8
2025-09-03T16:20	10	59	4.6	52	67	435	0.5	434	436	24.3	44.1
2025-09-03T16:21	10	40	6.5	31	51	433	1.1	431	435	24.3	45.1
2025-09-03T16:22	10	34	3.0	30	39	430	0.5	429	432	24.3	44.8
2025-09-03T16:23	10	35	2.2	32	39	429	0.5	428	430	24.2	45.1
2025-09-03T16:24	10	29	1.2	27	31	428	0.7	427	430	24.1	46.0
2025-09-03T16:25	10	43	7.2	31	55	428	1.1	427	431	24.1	46.0
2025-09-03T16:26	10	63	3.2	55	66	432	1.4	429	434	24.1	46.5
2025-09-03T16:27	10	64	1.2	62	66	433	0.4	432	434	24.1	45.5
2025-09-03T16:28	10	56	2.9	51	61	432	0.5	431	433	24.1	45.0
2025-09-03T16:29	10	45	4.3	36	51	430	0.5	429	431	24.1	44.7
2025-09-03T16:30	10	31	3.0	27	36	429	0.6	428	430	24.2	45.5
2025-09-03T16:31	10	33	1.5	30	35	428	0.3	427	428	24.1	45.4
2025-09-03T16:32	10	34	5.9	29	46	427	0.4	426	428	24.1	45.5
2025-09-03T16:33	10	44	2.8	40	50	428	0.5	427	429	24.0	46.1
2025-09-03T16:34	10	51	0.6	50	52	430	0.7	428	431	24.0	45.9
2025-09-03T16:35	10	54	1.7	52	58	431	0.6	430	432	24.0	46.3
2025-09-03T16:36	10	56	1.3	55	58	432	0.4	431	433	24.0	46.4
2025-09-03T16:37	10	56	0.6	55	56	433	0.3	432	433	24.0	47.5
2025-09-03T16:38	10	58	1.6	56	61	433	0.3	432	433	24.0	48.0
2025-09-03T16:39	10	60	0.4	59	61	433	0.3	432	434	24.0	48.5
2025-09-03T16:40	10	59	0.6	58	60	433	0.2	432	433	24.0	47.8
2025-09-03T16:41	10	53	2.5	50	58	432	0.5	431	433	24.0	48.2
2025-09-03T16:42	10	54	1.5	52	56	432	0.2	431	432	24.0	48.4
2025-09-03T16:43	10	54	1.7	52	57	432	0.2	431	432	24.0	48.2
2025-09-03T16:44	10	58	0.5	57	59	432	0.2	432	433	23.9	48.7
2025-09-03T16:45	10	58	0.3	58	59	432	0.3	431	432	24.0	47.1
2025-09-03T16:46	10	57	0.4	56	58	431	0.3	430	432	24.0	47.8
2025-09-03T16:47	10	46	7.6	34	56	430	0.8	429	431	23.9	48.1
2025-09-03T16:48	10	36	2.4	33	40	428	0.5	427	429	23.9	47.3
2025-09-03T16:49	10	33	3.0	30	39	427	0.6	426	428	23.9	46.8
2025-09-03T16:50	10	36	4.1	31	43	426	0.3	426	427	23.9	46.4
2025-09-03T16:51	10	45	0.7	44	46	428	0.3	427	428	23.9	46.4
2025-09-03T16:52	10	45	3.1	37	48	428	0.3	427	428	23.9	47.4
2025-09-03T16:53	10	29	2.8	26	36	427	0.8	425	428	23.9	47.0
2025-09-03T16:54	10	40	5.7	30	48	426	0.5	425	427	23.9	47.2
2025-09-03T16:55	10	49	0.5	48	50	427	0.5	426	428	23.9	47.2
2025-09-03T16:56	10	44	2.5	39	48	427	0.3	427	428	23.8	47.9
2025-09-03T16:57	10	33	2.9	30	39	426	0.6	425	427	23.8	49.1
2025-09-03T16:58	10	34	2.1	31	37	425	0.2	425	426	23.8	47.9
2025-09-03T16:59	10	34	1.6	32	37	425	0.2	425	425	23.8	47.8
2025-09-03T17:00	10	32	0.4	31	32	424	0.2	424	425	23.8	47.8
2025-09-03T17:01	10	29	0.7	28	31	424	0.3	423	425	23.8	47.9
2025-09-03T17:02	10	34	2.6	30	38	424	0.4	423	425	23.8	48.8
2025-09-03T17:03	10	39	0.5	38	40	425	0.4	424	426	23.8	48.5
2025-09-03T17:04	10	43	1.1	41	44	425	0.3	424	426	23.7	49.3
2025-09-03T17:05	10	43	0.5	43	44	425	0.2	425	426	23.6	49.7
2025-09-03T17:06	10	42	0.1	42	43	425	0.2	425	426	23.7	48.9
2025-09-03T17:07	10	42	0.3	41	43	425	0.3	424	425	23.7	48.5
2025-09-03T17:08	10	41	0.3	40	42	425	0.2	424	425	23.7	50.3
2025-09-03T17:09	10	41	0.2	40	41	425	0.2	424	425	23.6	51.1
2025-09-03T17:10	10	40	0.2	40	40	425	0.2	424	425	23.6	51.2
2025-09-03T17:11	10	39	0.2	39	40	425	0.3	424	425	23.6	50.9
2025-09-03T17:12	10	39	0.2	38	39	425	0.2	424	425	23.6	51.1
2025-09-03T17:13	10	38	0.2	38	38	425	0.3	425	426	23.6	50.1
2025-09-03T17:14	10	37	0.2	37	38	425	0.2	424	425	23.6	49.8
2025-09-03T17:15	10	37	0.2	37	37	424	0.4	423	425	23.6	50.2
2025-09-03T17:16	10	35	1.8	31	37	424	0.2	423	424	23.6	51.2
2025-09-03T17:17	10	23	3.9	18	30	423	0.8	421	424	23.6	51.0
2025-09-03T17:18	10	16	0.6	15	17	421	0.6	420	422	23.6	51.0
2025-09-03T17:19	10	14	1.0	12	15	420	0.4	419	420	23.6	50.9
2025-09-03T17:20	10	10	0.8	9	12	418	0.4	417	419	23.6	50.2
2025-09-03T17:21	10	9	0.5	7	9	417	0.3	417	418	23.6	49.6
2025-09-03T17:22	10	6	0.4	6	7	417	0.3	416	417	23.6	50.6
2025-09-03T17:23	10	6	0.2	5	6	416	0.4	415	417	23.5	50.8
2025-09-03T17:24	10	5	0.1	5	6	415	0.3	414	416	23.5	51.8
2025-09-03T17:25	10	5	0.1	5	5	415	0.3	414	415	23.3	52.9
2025-09-03T17:26	10	5	0.1	5	5	414	0.3	413	415	23.3	52.8
2025-09-03T17:27	10	6	0.4	5	6	413	0.2	413	414	23.2	53.2
2025-09-03T17:28	10	7	0.6	7	9	413	0.3	412	414	23.1	54.0
2025-09-03T17:29	10	10	0.9	9	12	413	0.3	412	414	23.0	53.4
2025-09-03T17:30	10	12	0.4	12	13	414	0.3	413	414	23.0	53.4
2025-09-03T17:31	10	9	1.2	7	11	414	0.2	413	414	23.0	53.5
2025-09-03T17:32	10	7	0.2	6	7	413	0.4	412	414	23.1	52.2
2025-09-03T17:33	10	10	2.3	7	14	413	0.2	412	413	23.1	52.1
2025-09-03T17:34	10	17	1.1	14	18	413	0.4	412	413	23.0	53.2
2025-09-03T17:35	10	11	2.8	7	16	413	0.2	412	413	22.9	53.7
2025-09-03T17:36	10	5	0.7	4	7	412	0.4	411	412	22.9	53.8
2025-09-03T17:37	10	4	0.2	3	4	411	0.2	410	411	22.8	55.0
2025-09-03T17:38	10	4	0.1	3	4	410	0.2	409	411	22.7	54.8
2025-09-03T17:39	10	4	0.2	4	4	410	0.3	409	411	22.7	54.5
2025-09-03T17:40	10	4	0.2	4	4	409	0.3	408	410	22.6	54.8
2025-09-03T17:41	10	3	0.3	3	4	409	0.3	408	409	22.6	54.5
2025-09-03T17:42	10	3	0.1	2	3	409	0.2	408	409	22.6	54.8
2025-09-03T17:43	10	2	0.1	2	3	408	0.2	408	409	22.6	54.7
2025-09-03T17:44	10	2	0.1	2	2	408	0.2	407	408	22.5	55.3
2025-09-03T17:45	10	2	0.1	2	2	408	0.2	407	408	22.5	55.4
2025-09-03T17:46	10	2	0.1	2	2	408	0.2	407	408	22.5	54.8
2025-09-03T17:47	10	2	0.1	2	2	407	0.3	406	407	22.5	55.1
2025-09-03T17:48	10	2	0.1	2	2	406	0.2	406	407	22.4	55.8
2025-09-03T17:49	10	2	0.1	1	2	406	0.2	405	406	22.3	56.1
2025-09-03T17:50	10	2	0.1	1	2	406	0.2	405	406	22.3	56.0
2025-09-03T17:51	10	1	0.1	1	2	406	0.3	405	406	22.3	55.9
2025-09-03T17:52	10	1	0.1	1	1	406	0.2	405	406	22.3	55.7
2025-09-03T17:53	10	1	0.1	1	2	405	0.2	405	406	22.3	56.4
2025-09-03T17:54	10	1	0.1	1	1	405	0.2	404	405	22.2	56.4
2025-09-03T17:55	10	1	0.1	1	1	405	0.2	404	405	22.2	56.3
2025-09-03T17:56	10	1	0.2	1	2	404	0.2	403	404	22.1	56.9
2025-09-03T17:57	10	1	0.2	1	1	403	0.4	402	404	22.1	57.3
2025-09-03T17:58	10	1	0.2	0	1	403	0.3	402	403	22.0	58.0
2025-09-03T17:59	10	1	0.2	1	1	403	0.3	402	403	21.9	58.3
2025-09-03T18:00	10	1	0.2	0	1	402	0.2	402	402	21.9	59.0
2025-09-03T18:01	10	1	0.2	0	1	402	0.2	401	402	21.8	59.6
2025-09-03T18:02	10	1	0.1	0	1	402	0.3	401	402	21.7	60.1
2025-09-03T18:03	10	0	0.1	0	1	402	0.2	401	402	21.6	60.4
2025-09-03T18:04	10	0	0.1	0	1	402	0.3	401	402	21.5	61.3
2025-09-03T18:05	10	0	0.1	0	1	403	0.3	402	403	21.4	61.8
2025-09-03T18:06	10	0	0.1	0	1	403	0.3	402	404	21.3	62.3
2025-09-03T18:07	10	0	0.0	0	1	403	0.2	402	403	21.3	62.0
2025-09-03T18:08	10	0	0.1	0	1	402	0.2	402	403	21.3	61.4
2025-09-03T18:09	10	0	0.0	0	0	402	0.3	401	402	21.4	60.6
2025-09-03T18:10	10	0	0.0	0	0	402	0.5	401	403	21.5	59.7
2025-09-03T18:11	10	0	0.1	0	1	402	0.2	402	403	21.6	59.2
2025-09-03T18:12	10	0	0.1	0	0	402	0.2	401	402	21.7	59.0
2025-09-03T18:13	10	0	0.0	0	0	402	0.3	401	402	21.6	59.0
2025-09-03T18:14	10	0	0.0	0	0	401	0.2	401	402	21.7	58.1
2025-09-03T18:15	10	0	0.1	0	0	401	0.2	401	402	21.8	57.8
2025-09-03T18:16	10	0	0.1	0	0	402	0.3	401	402	21.8	58.3
2025-09-03T18:17	10	0	0.1	0	0	401	0.3	401	402	21.8	58.8
2025-09-03T18:18	10	0	0.1	0	0	400	0.4	399	401	21.7	60.0
2025-09-03T18:19	10	0	0.1	0	0	400	0.2	399	400	21.7	61.0
2025-09-03T18:20	10	0	0.1	0	0	399	0.3	399	400	21.7	61.4
2025-09-03T18:21	10	0	0.1	0	0	399	0.2	399	400	21.6	61.8
2025-09-03T18:22	10	0	0.1	0	0	400	0.2	399	400	21.6	62.3
2025-09-03T18:23	10	0	0.1	0	0	400	0.2	399	400	21.6	62.5
2025-09-03T18:24	10	0	0.1	0	0	400	0.2	399	400	21.5	62.8
2025-09-03T18:25	10	0	0.1	0	0	400	0.3	399	400	21.5	63.0
2025-09-03T18:26	10	0	0.1	0	0	400	0.3	399	400	21.5	62.9
2025-09-03T18:27	10	0	0.1	0	0	399	0.2	399	400	21.5	63.1
2025-09-03T18:28	10	0	0.1	0	0	399	0.2	399	400	21.4	63.6
2025-09-03T18:29	10	0	0.1	0	0	399	0.3	398	399	21.4	63.8
2025-09-03T18:30	10	0	0.1	0	0	399	0.3	398	400	21.3	63.9
2025-09-03T18:31	10	0	0.1	0	0	400	0.2	399	400	21.2	63.8
2025-09-03T18:32	10	0	0.1	0	0	400	0.3	399	400	21.2	63.1
2025-09-03T18:33	10	0	0.1	0	0	399	0.3	399	400	21.2	63.5
2025-09-03T18:34	10	0	0.1	0	0	399	0.2	398	399	21.1	64.0
2025-09-03T18:35	10	0	0.1	0	0	399	0.2	398	399	20.9	64.4
2025-09-03T18:36	10	0	0.1	0	0	398	0.2	398	399	20.9	64.6
2025-09-03T18:37	10	0	0.1	0	0	399	0.2	398	399	20.9	64.7
2025-09-03T18:38	10	0	0.1	0	0	398	0.2	398	399	20.8	64.9
2025-09-03T18:39	10	0	0.1	0	1	398	0.3	397	399	20.8	65.0
2025-09-03T18:40	10	0	0.2	0	1	398	0.3	397	398	20.8	64.9
2025-09-03T18:41	10	0	0.2	0	1	398	0.3	397	398	20.8	65.0
2025-09-03T18:42	10	0	0.2	0	1	397	0.3	396	398	20.6	65.3
2025-09-03T18:43	10	0	0.2	0	1	397	0.3	397	398	20.2	67.3
2025-09-03T18:44	10	0	0.2	0	1	397	0.4	396	398	20.2	66.5
2025-09-03T18:45	10	0	0.2	-1	0	398	0.4	397	398	20.3	65.1
2025-09-03T18:46	10	0	0.1	0	0	397	0.2	397	398	20.4	63.3
2025-09-03T18:47	10	0	0.1	0	0	398	0.2	397	398	20.5	62.6
2025-09-03T18:48	10	0	0.1	0	0	397	0.2	397	398	20.5	61.8
2025-09-03T18:49	10	0	0.1	0	0	397	0.3	397	398	20.6	61.0
2025-09-03T18:50	10	0	0.1	0	0	397	0.2	397	398	20.7	60.2
2025-09-03T18:51	10	0	0.1	0	0	397	0.2	396	397	20.8	59.8
2025-09-03T18:52	10	0	0.1	0	0	397	0.2	396	397	20.8	59.8
2025-09-03T18:53	10	0	0.0	0	0	396	0.2	396	397	20.9	59.6
2025-09-03T18:54	10	0	0.0	0	0	396	0.2	396	397	20.9	59.2
2025-09-03T18:55	10	0	0.0	0	0	396	0.2	396	397	20.9	59.5
2025-09-03T18:56	10	0	0.1	0	0	396	0.2	396	397	20.9	59.3
2025-09-03T18:57	10	0	0.1	0	0	396	0.2	396	397	20.9	59.2
2025-09-03T18:58	10	0	0.1	0	0	396	0.4	395	397	20.9	59.1
2025-09-03T18:59	10	0	0.1	0	0	395	0.5	394	396	20.9	59.5
2025-09-03T19:00	10	0	0.1	0	0	395	0.3	395	396	20.8	59.9
2025-09-03T19:01	10	0	0.1	0	0	395	0.3	394	396	20.6	61.1
2025-09-03T19:02	10	0	0.1	0	0	395	0.3	394	395	20.4	61.6
2025-09-03T19:03	10	0	0.1	0	0	395	0.2	395	396	20.4	61.4
2025-09-03T19:04	10	0	0.1	0	0	395	0.3	394	396	20.4	61.1
2025-09-03T19:05	10	0	0.1	0	0	394	0.2	394	395	20.4	61.3
2025-09-03T19:06	10	0	0.1	0	0	394	0.3	394	395	20.3	61.9
2025-09-03T19:07	10	0	0.1	0	0	394	0.3	394	395	20.3	61.8
2025-09-03T19:08	10	0	0.1	0	0	395	0.3	394	395	20.3	61.6
2025-09-03T19:09	10	0	0.1	0	0	395	0.3	394	395	20.4	60.7
2025-09-03T19:10	10	0	0.1	0	0	395	0.2	394	395	20.3	61.1
2025-09-03T19:11	10	0	0.1	0	0	394	0.3	393	395	20.1	62.0
2025-09-03T19:12	10	0	0.1	0	0	394	0.3	393	395	20.1	62.0
2025-09-03T19:13	10	0	0.1	0	0	394	0.3	393	394	20.0	62.9
2025-09-03T19:14	10	0	0.1	0	0	394	0.2	393	394	19.9	63.1
2025-09-03T19:15	10	0	0.1	0	0	394	0.2	393	394	19.8	63.7
2025-09-03T19:16	10	0	0.1	0	0	394	0.2	393	394	19.7	64.3
2025-09-03T19:17	10	0	0.1	0	0	394	0.3	394	395	19.7	64.1
2025-09-03T19:18	10	0	0.1	0	0	394	0.2	393	394	19.9	62.5
2025-09-03T19:19	10	0	0.1	0	0	393	0.3	392	394	20.0	62.7
2025-09-03T19:20	10	0	0.1	0	0	393	0.4	392	394	19.9	63.5
2025-09-03T19:21	10	0	0.1	0	0	393	0.3	392	394	20.0	62.5
2025-09-03T19:22	10	0	0.1	0	0	393	0.3	392	393	20.0	62.0
2025-09-03T19:23	10	0	0.1	0	0	393	0.3	392	393	20.1	61.9
2025-09-03T19:24	10	0	0.1	0	0	392	0.4	392	393	20.0	62.0
2025-09-03T19:25	10	0	0.0	0	0	393	0.3	392	394	20.1	61.6
2025-09-03T19:26	10	0	0.1	0	0	393	0.2	393	394	20.3	60.4
2025-09-03T19:27	10	0	0.1	0	0	393	0.3	393	394	20.1	61.3
2025-09-03T19:28	10	0	0.0	0	0	394	0.4	394	395	20.1	61.6
2025-09-03T19:29	10	0	0.0	0	0	395	0.4	394	395	20.2	60.6
2025-09-03T19:30	10	0	0.0	0	0	394	0.5	393	395	20.3	60.3
2025-09-03T19:31	10	0	0.1	0	0	393	0.4	392	394	19.8	63.3
2025-09-03T19:32	10	0	0.1	0	1	392	0.5	391	393	19.4	65.7
2025-09-03T19:33	10	0	0.1	0	1	392	0.2	391	392	19.2	66.6
2025-09-03T19:34	10	0	0.1	0	0	392	0.3	391	392	19.2	66.5
2025-09-03T19:35	10	0	0.1	0	1	392	0.3	391	392	19.1	67.6
2025-09-03T19:36	10	0	0.2	0	1	392	0.4	391	392	19.1	66.5
2025-09-03T19:37	10	0	0.1	0	0	391	0.2	391	392	19.3	65.8
2025-09-03T19:38	10	0	0.2	0	0	391	0.2	390	391	19.1	66.7
2025-09-03T19:39	10	0	0.2	0	1	391	0.4	390	392	19.3	65.2
2025-09-03T19:40	10	0	0.1	0	0	390	0.4	390	391	19.4	65.3
2025-09-03T19:41	10	0	0.1	0	0	390	0.7	389	391	19.1	67.8
2025-09-03T19:42	10	0	0.1	0	0	390	0.3	390	391	18.2	75.1
2025-09-03T19:43	10	0	0.1	0	0	390	0.2	390	391	18.0	75.0
2025-09-03T19:44	10	0	0.1	0	0	390	0.6	389	391	18.3	73.3
2025-09-03T19:45	10	0	0.1	0	0	390	0.5	389	391	18.7	69.1
2025-09-03T19:46	10	0	0.1	0	0	390	0.4	389	391	19.1	66.7
2025-09-03T19:47	10	0	0.1	0	0	390	0.4	389	391	19.3	65.9
2025-09-03T19:48	10	0	0.1	0	0	390	0.3	389	390	19.3	66.1
2025-09-03T19:49	10	0	0.1	0	0	390	0.2	389	390	18.9	68.4
2025-09-03T19:50	10	0	0.1	0	0	389	0.2	389	390	18.7	69.3
2025-09-03T19:51	10	0	0.1	0	0	389	0.2	389	390	18.5	70.2
2025-09-03T19:52	10	0	0.1	0	0	389	0.2	388	389	18.5	70.7
2025-09-03T19:53	10	0	0.1	0	0	389	0.3	388	390	18.5	69.3
2025-09-03T19:54	10	0	0.1	0	0	388	0.2	388	389	18.5	70.6
2025-09-03T19:55	10	0	0.1	0	0	388	0.3	388	389	18.5	70.8
2025-09-03T19:56	10	0	0.1	0	0	388	0.3	388	389	18.6	68.5
2025-09-03T19:57	10	0	0.1	0	0	388	0.3	388	389	18.8	67.7
2025-09-03T19:58	10	0	0.1	0	0	388	0.3	388	389	18.6	68.8
2025-09-03T19:59	10	0	0.1	0	0	389	0.2	388	389	18.6	68.5
2025-09-03T20:00	10	0	0.1	0	0	389	0.3	388	389	18.5	69.0
2025-09-03T20:01	10	0	0.1	0	0	389	0.4	388	389	18.5	69.5
2025-09-03T20:02	10	0	0.1	0	0	389	0.3	388	389	18.6	68.6
2025-09-03T20:03	10	0	0.1	0	0	388	0.3	388	389	18.6	68.7
2025-09-03T20:04	10	0	0.1	0	0	388	0.3	387	388	18.5	70.2
2025-09-03T20:05	10	0	0.1	0	0	388	0.2	387	388	18.4	70.4
2025-09-03T20:06	10	0	0.1	0	0	387	0.3	387	388	18.4	69.6
2025-09-03T20:07	10	0	0.1	0	0	387	0.2	387	388	18.5	69.1
2025-09-03T20:08	10	0	0.1	0	0	387	0.3	386	388	18.5	68.6
2025-09-03T20:09	10	0	0.1	0	0	387	0.3	386	388	18.6	67.9
2025-09-03T20:10	10	0	0.1	0	0	387	0.3	386	387	18.6	67.6
2025-09-03T20:11	10	0	0.1	0	0	386	0.3	386	387	18.5	68.5
2025-09-03T20:12	10	0	0.1	0	0	386	0.2	386	387	18.5	69.1
2025-09-03T20:13	10	0	0.1	0	0	386	0.3	385	386	18.3	70.4
2025-09-03T20:14	10	0	0.1	0	0	385	0.3	385	386	18.1	71.8
2025-09-03T20:15	10	0	0.1	0	0	385	0.3	385	386	18.0	72.8
2025-09-03T20:16	10	0	0.1	0	0	386	0.3	385	386	18.0	72.4
2025-09-03T20:17	10	0	0.1	0	0	386	0.2	385	387	18.0	72.0
2025-09-03T20:18	10	0	0.1	0	0	386	0.4	386	387	18.0	71.7
2025-09-03T20:19	10	0	0.1	0	0	387	0.3	387	388	18.0	71.6
2025-09-03T20:20	10	0	0.1	0	0	387	0.2	387	388	18.0	72.4
2025-09-03T20:21	10	0	0.1	0	0	387	0.3	387	388	18.0	72.6
2025-09-03T20:22	10	0	0.1	0	0	387	0.2	387	388	18.1	72.3
2025-09-03T20:23	10	0	0.1	0	0	387	0.2	387	388	18.0	73.1
2025-09-03T20:24	10	0	0.1	0	0	387	0.3	387	388	17.7	74.8
2025-09-03T20:25	10	0	0.1	0	0	387	0.2	386	387	17.5	76.4
2025-09-03T20:26	10	0	0.1	0	0	386	0.2	386	387	17.4	77.3
2025-09-03T20:27	10	0	0.1	0	1	387	0.2	386	387	17.2	78.1
2025-09-03T20:28	10	0	0.1	0	1	387	0.2	386	387	17.2	75.6
2025-09-03T20:29	10	0	0.1	0	1	386	0.3	386	387	17.2	78.2
2025-09-03T20:30	10	0	0.1	0	1	386	0.2	386	387	17.0	75.5
2025-09-03T20:31	10	0	0.1	0	1	386	0.4	385	387	17.2	77.0
2025-09-03T20:32	10	0	0.1	0	0	386	0.2	386	387	17.2	78.2
2025-09-03T20:33	10	0	0.1	0	0	386	0.2	385	386	17.2	78.2
2025-09-03T20:34	10	0	0.1	0	0	386	0.2	385	386	17.2	78.2
2025-09-03T20:35	10	0	0.1	0	1	386	0.3	385	387	17.1	78.9
2025-09-03T20:36	10	0	0.1	0	1	386	0.3	386	387	17.0	79.7
2025-09-03T20:37	10	0	0.1	0	1	387	0.4	386	388	17.2	78.9
2025-09-03T20:38	10	0	0.1	0	0	387	0.2	387	388	17.2	78.1
2025-09-03T20:39	10	0	0.1	0	0	387	0.2	387	387	17.2	77.0
2025-09-03T20:40	10	0	0.1	0	0	387	0.2	386	388	17.3	76.0
2025-09-03T20:41	10	0	0.1	0	0	387	0.2	386	387	17.3	75.6
2025-09-03T20:42	10	0	0.1	0	1	387	0.3	386	387	17.4	75.2
2025-09-03T20:43	10	0	0.1	0	1	386	0.3	386	387	17.4	74.7
2025-09-03T20:44	10	0	0.1	0	1	386	0.3	386	387	17.5	74.4
2025-09-03T20:45	10	0	0.2	0	1	386	0.3	386	387	17.5	74.2
2025-09-03T20:46	10	0	0.2	0	1	387	0.2	386	387	17.6	73.5
2025-09-03T20:47	10	0	0.2	0	1	387	0.4	386	388	17.6	73.3
2025-09-03T20:48	10	0	0.1	0	0	387	0.3	386	387	17.7	73.0
2025-09-03T20:49	10	0	0.1	0	1	387	0.2	386	387	17.6	73.4
2025-09-03T20:50	10	0	0.1	0	1	387	0.2	386	387	17.6	73.6
2025-09-03T20:51	10	0	0.1	0	1	386	0.2	386	387	17.6	73.3
2025-09-03T20:52	10	0	0.1	0	1	387	0.2	386	387	17.6	73.7
2025-09-03T20:53	10	0	0.1	0	0	386	0.4	385	387	17.5	74.3
2025-09-03T20:54	10	0	0.1	0	1	385	0.4	385	386	17.3	75.9
2025-09-03T20:55	10	0	0.1	0	1	385	0.2	384	386	17.3	76.0
2025-09-03T20:56	10	0	0.0	0	0	385	0.2	385	385	17.3	76.0
2025-09-03T20:57	10	0	0.1	0	0	385	0.2	384	385	17.3	76.1
2025-09-03T20:58	10	0	0.0	0	0	385	0.2	385	386	17.3	76.2
2025-09-03T20:59	10	0	0.0	0	0	385	0.2	384	385	17.3	76.1
2025-09-03T21:00	10	0	0.0	0	0	385	0.2	385	386	17.2	76.3
2025-09-03T21:01	10	0	0.0	0	0	385	0.3	384	386	17.2	76.7
2025-09-03T21:02	10	0	0.1	0	0	385	0.2	384	385	17.1	77.1
2025-09-03T21:03	10	0	0.0	0	0	385	0.3	384	386	17.0	77.8
2025-09-03T21:04	10	0	0.0	0	0	385	0.3	385	386	17.0	78.0
2025-09-03T21:05	10	0	0.0	0	0	386	0.3	385	386	17.0	78.3
2025-09-03T21:06	10	0	0.0	0	0	386	0.3	385	387	16.9	78.6
2025-09-03T21:07	10	0	0.1	0	0	385	0.3	384	386	16.8	79.4
2025-09-03T21:08	10	0	0.0	0	0	385	0.3	384	386	16.7	80.1
2025-09-03T21:09	10	0	0.1	0	1	385	0.3	384	386	16.5	81.0
2025-09-03T21:10	10	0	0.1	0	0	386	0.2	385	386	16.6	80.7
2025-09-03T21:11	10	0	0.1	0	0	386	0.4	385	387	16.6	80.6
2025-09-03T21:12	10	0	0.0	0	0	386	0.2	386	387	16.6	80.6
2025-09-03T21:13	10	0	0.0	0	1	387	0.4	386	387	16.4	81.6
2025-09-03T21:14	10	0	0.1	0	1	387	0.3	387	388	16.5	81.0
2025-09-03T21:15	10	0	0.1	0	0	387	0.3	387	388	16.7	79.5
2025-09-03T21:16	10	0	0.1	0	0	388	0.3	387	388	16.8	78.2
2025-09-03T21:17	10	0	0.1	0	1	388	0.2	387	388	16.9	78.0
2025-09-03T21:18	10	0	0.1	0	0	388	0.4	387	389	17.0	77.5
2025-09-03T21:19	10	0	0.1	0	0	389	0.4	388	390	17.1	76.9
2025-09-03T21:20	10	0	0.1	0	0	389	0.3	388	390	17.3	75.4
2025-09-03T21:21	10	0	0.1	0	0	389	0.3	389	390	17.2	76.1
2025-09-03T21:22	10	0	0.1	0	0	390	0.2	390	390	17.2	76.4
2025-09-03T21:23	10	0	0.1	0	0	390	0.2	390	391	17.1	76.9
2025-09-03T21:24	10	0	0.1	0	1	391	0.3	390	391	17.2	76.7
2025-09-03T21:25	10	0	0.1	0	0	391	0.2	390	391	17.1	77.7
2025-09-03T21:26	10	0	0.1	0	1	391	0.2	390	391	17.0	78.3
2025-09-03T21:27	10	0	0.1	0	0	391	0.3	391	392	17.1	77.5
2025-09-03T21:28	10	0	0.1	0	1	391	0.3	391	392	17.0	78.2
2025-09-03T21:29	10	0	0.1	0	1	392	0.3	391	392	17.0	78.3
2025-09-03T21:30	10	0	0.1	0	1	392	0.2	391	392	17.0	78.4
2025-09-03T21:31	10	0	0.1	0	1	391	0.2	391	392	16.9	79.2
2025-09-03T21:32	10	0	0.1	0	0	392	0.2	391	392	16.9	79.4
2025-09-03T21:33	10	0	0.1	0	1	392	0.3	391	392	16.9	79.6
2025-09-03T21:34	10	0	0.1	0	0	392	0.2	392	393	16.9	79.6
2025-09-03T21:35	10	0	0.1	0	0	392	0.2	392	393	16.9	79.9
2025-09-03T21:36	10	0	0.1	0	0	392	0.2	392	393	16.9	79.8
2025-09-03T21:37	10	0	0.1	0	0	392	0.2	392	393	16.9	80.4
2025-09-03T21:38	10	0	0.1	0	1	393	0.2	392	393	16.8	81.1
2025-09-03T21:39	10	0	0.1	0	0	392	0.2	392	393	16.7	81.8
2025-09-03T21:40	10	0	0.1	0	0	393	0.2	392	393	16.6	82.7
2025-09-03T21:41	10	0	0.1	0	1	393	0.3	392	394	16.6	83.6
2025-09-03T21:42	10	0	0.1	0	0	393	0.2	392	393	16.6	83.8
2025-09-03T21:43	10	0	0.1	0	0	393	0.2	392	393	16.6	83.8
2025-09-03T21:44	10	0	0.1	0	0	393	0.2	392	393	16.6	83.7
2025-09-03T21:45	10	0	0.1	0	0	393	0.2	392	393	16.5	83.3
2025-09-03T21:46	10	0	0.1	0	0	393	0.2	392	393	16.5	83.7
2025-09-03T21:47	10	0	0.1	0	0	393	0.2	392	393	16.5	84.0
2025-09-03T21:48	10	0	0.1	0	0	393	0.2	393	393	16.5	83.7
2025-09-03T21:49	10	0	0.1	0	0	393	0.2	393	394	16.5	83.6
2025-09-03T21:50	10	0	0.1	0	0	393	0.2	393	394	16.6	83.3
2025-09-03T21:51	10	0	0.1	0	0	393	0.3	392	394	16.6	83.2
2025-09-03T21:52	10	0	0.1	0	0	393	0.2	393	394	16.6	83.1
2025-09-03T21:53	10	0	0.1	0	0	393	0.3	392	394	16.7	82.8
2025-09-03T21:54	10	0	0.1	0	0	393	0.3	393	394	16.7	82.7
2025-09-03T21:55	10	0	0.1	0	0	393	0.2	393	394	16.8	82.5
2025-09-03T21:56	10	0	0.1	0	0	394	0.3	393	394	16.8	83.1
2025-09-03T21:57	10	0	0.1	0	0	394	0.3	393	395	16.8	82.0
2025-09-03T21:58	10	0	0.1	0	0	394	0.3	393	394	16.9	82.2
2025-09-03T21:59	10	0	0.1	0	1	394	0.3	394	395	16.9	82.1
2025-09-03T22:00	10	0	0.1	0	1	394	0.2	394	395	16.9	81.8
2025-09-03T22:01	10	0	0.1	0	0	395	0.2	394	395	17.0	81.5
2025-09-03T22:02	10	0	0.1	0	0	395	0.2	394	395	17.0	80.7
2025-09-03T22:03	10	0	0.1	0	0	394	0.2	394	395	17.1	80.4
2025-09-03T22:04	10	0	0.1	0	0	395	0.3	394	395	17.1	80.5
2025-09-03T22:05	10	0	0.1	0	1	395	0.2	394	395	17.1	79.7
2025-09-03T22:06	10	0	0.1	0	1	395	0.3	394	395	17.2	80.0
2025-09-03T22:07	10	0	0.1	0	0	395	0.2	394	395	17.2	79.9
2025-09-03T22:08	10	0	0.1	0	0	394	0.3	394	395	17.1	80.6
2025-09-03T22:09	10	0	0.1	0	1	395	0.3	394	395	17.0	82.0
2025-09-03T22:10	10	0	0.1	0	1	394	0.2	394	395	16.9	82.7
2025-09-03T22:11	10	0	0.1	0	0	394	0.2	394	395	16.8	83.9
2025-09-03T22:12	10	0	0.1	0	0	395	0.3	394	395	17.0	81.7
2025-09-03T22:13	10	0	0.1	0	1	395	0.2	395	396	17.3	79.3
2025-09-03T22:14	10	0	0.1	0	0	394	0.3	394	395	17.3	80.1
2025-09-03T22:15	10	0	0.1	0	1	394	0.3	393	394	17.2	81.0
2025-09-03T22:16	10	0	0.1	0	0	393	0.5	392	394	17.1	81.8
2025-09-03T22:17	10	0	0.1	0	1	393	0.2	393	394	17.2	81.8
2025-09-03T22:18	10	0	0.0	0	1	394	0.3	393	394	17.3	80.2
2025-09-03T22:19	10	0	0.1	0	1	394	0.5	393	395	17.6	78.7
2025-09-03T22:20	10	0	0.1	0	1	394	0.4	394	395	17.8	78.2
2025-09-03T22:21	10	0	0.0	0	1	394	0.4	393	395	17.5	81.7
2025-09-03T22:22	10	0	0.1	0	1	394	0.2	393	395	17.3	82.5
2025-09-03T22:23	10	0	0.1	0	1	394	0.2	394	395	17.4	81.2
2025-09-03T22:24	10	0	0.1	0	1	395	0.3	394	395	17.5	80.5
2025-09-03T22:25	10	0	0.1	0	1	395	0.3	394	396	17.5	81.0
2025-09-03T22:26	10	0	0.1	0	0	395	0.3	394	395	17.4	81.8
2025-09-03T22:27	10	0	0.1	0	1	394	0.2	394	395	17.1	84.8
2025-09-03T22:28	10	0	0.1	0	1	394	0.5	393	396	17.0	85.6
2025-09-03T22:29	10	0	0.1	0	1	395	0.3	395	396	17.2	84.1
2025-09-03T22:30	10	0	0.1	0	1	396	0.3	395	396	17.4	83.3
2025-09-03T22:31	10	0	0.1	0	1	396	0.3	395	396	17.4	83.7
2025-09-03T22:32	10	0	0.1	0	0	396	0.2	395	396	17.4	83.8
2025-09-03T22:33	10	0	0.1	0	1	396	0.3	395	396	17.2	85.3
2025-09-03T22:34	10	0	0.1	0	1	396	0.3	395	396	17.2	85.3
2025-09-03T22:35	10	0	0.1	0	0	395	0.3	394	396	17.1	86.8
2025-09-03T22:36	10	0	0.1	0	1	394	0.4	394	395	16.8	88.6
2025-09-03T22:37	10	0	0.1	0	1	394	0.3	394	395	16.6	89.0
2025-09-03T22:38	10	0	0.1	0	1	394	0.2	393	394	16.5	89.8
2025-09-03T22:39	10	0	0.1	0	1	394	0.2	393	394	16.4	89.8
2025-09-03T22:40	10	0	0.1	0	0	394	0.2	393	394	16.3	90.4
2025-09-03T22:41	10	0	0.0	0	0	394	0.2	394	395	16.3	91.1
2025-09-03T22:42	10	0	0.1	0	0	394	0.2	393	395	16.3	91.0
2025-09-03T22:43	10	0	0.0	0	0	394	0.2	393	394	16.3	90.9
2025-09-03T22:44	10	0	0.1	0	0	394	0.2	393	394	16.2	91.4
2025-09-03T22:45	10	0	0.1	0	1	394	0.3	393	394	16.2	91.8
2025-09-03T22:46	10	0	0.1	0	0	394	0.2	393	394	16.2	92.0
2025-09-03T22:47	10	0	0.0	0	0	394	0.2	393	394	16.1	92.0
2025-09-03T22:48	10	0	0.1	0	1	394	0.2	393	394	16.1	92.8
2025-09-03T22:49	10	0	0.1	0	1	394	0.2	393	394	16.1	92.9
2025-09-03T22:50	10	0	0.1	0	0	394	0.2	393	394	16.0	93.1
2025-09-03T22:51	10	0	0.1	0	0	393	0.2	393	394	16.0	93.3
2025-09-03T22:52	10	0	0.1	0	0	393	0.2	393	394	16.0	93.5
2025-09-03T22:53	10	0	0.0	0	0	393	0.2	393	394	16.0	94.0
2025-09-03T22:54	10	0	0.1	0	0	393	0.2	393	394	16.0	94.5
2025-09-03T22:55	10	0	0.1	0	0	394	0.2	393	394	16.0	95.0
2025-09-03T22:56	10	0	0.1	0	1	394	0.2	393	394	16.0	95.6
2025-09-03T22:57	10	0	0.1	0	0	394	0.2	393	394	16.1	95.7
2025-09-03T22:58	10	0	0.1	0	0	394	0.3	393	395	16.2	96.1
2025-09-03T22:59	10	0	0.1	0	0	394	0.2	394	395	16.2	96.4
2025-09-03T23:00	10	0	0.1	0	0	394	0.3	394	395	16.2	96.3
2025-09-03T23:01	10	0	0.1	0	0	395	0.3	394	395	16.2	95.8
2025-09-03T23:02	10	0	0.1	0	0	395	0.2	394	396	16.5	93.6
2025-09-03T23:03	10	0	0.1	0	0	395	0.2	395	396	16.6	93.2
2025-09-03T23:04	10	0	0.1	0	0	395	0.2	394	395	16.6	93.1
2025-09-03T23:05	10	0	0.1	0	0	395	0.2	395	396	16.5	93.0
2025-09-03T23:06	10	0	0.1	0	1	395	0.2	395	396	16.6	92.5
2025-09-03T23:07	10	0	0.1	0	0	396	0.3	395	396	16.6	92.9
2025-09-03T23:08	10	0	0.1	0	0	396	0.2	395	396	16.6	93.0
2025-09-03T23:09	10	0	0.1	0	0	396	0.2	395	396	16.6	93.2
2025-09-03T23:10	10	0	0.1	0	1	396	0.2	396	396	16.6	93.0
2025-09-03T23:11	10	0	0.1	0	0	396	0.2	395	396	16.6	93.3
2025-09-03T23:12	10	0	0.1	0	0	396	0.2	395	396	16.6	92.6
2025-09-03T23:13	10	0	0.1	0	0	396	0.2	395	396	16.7	92.5
2025-09-03T23:14	10	0	0.1	0	1	396	0.2	396	397	16.6	92.6
2025-09-03T23:15	10	0	0.1	0	1	396	0.2	396	397	16.7	91.7
2025-09-03T23:16	10	0	0.1	0	0	397	0.2	396	397	16.8	90.5
2025-09-03T23:17	10	0	0.1	0	0	396	0.2	396	397	16.8	90.5
2025-09-03T23:18	10	0	0.1	0	0	397	0.2	396	397	16.8	90.3
2025-09-03T23:19	10	0	0.1	0	1	396	0.2	396	397	16.8	89.9
2025-09-03T23:20	10	0	0.1	0	1	396	0.2	396	397	16.8	89.8
2025-09-03T23:21	10	0	0.1	0	1	396	0.2	396	397	16.8	90.0
2025-09-03T23:22	10	0	0.1	0	1	396	0.2	396	397	16.8	90.7
2025-09-03T23:23	10	0	0.1	0	1	396	0.2	396	397	16.8	90.3
2025-09-03T23:24	10	0	0.1	0	1	396	0.2	396	397	16.8	90.9
2025-09-03T23:25	10	0	0.1	0	0	396	0.2	396	397	16.8	91.3
2025-09-03T23:26	10	0	0.1	0	1	396	0.2	396	397	16.7	90.7
2025-09-03T23:27	10	0	0.1	0	1	396	0.3	396	397	16.7	90.0
2025-09-03T23:28	10	0	0.2	0	1	396	0.2	396	397	16.7	90.7
2025-09-03T23:29	10	0	0.2	0	1	396	0.2	395	397	16.7	90.7
2025-09-03T23:30	10	0	0.1	0	0	396	0.2	395	396	16.7	91.2
2025-09-03T23:31	10	0	0.1	0	1	396	0.2	395	396	16.7	91.1
2025-09-03T23:32	10	0	0.1	0	1	396	0.2	395	396	16.7	90.8
2025-09-03T23:33	10	0	0.1	0	1	396	0.3	395	396	16.8	90.5
2025-09-03T23:34	10	0	0.1	0	1	395	0.3	395	396	16.8	91.7
2025-09-03T23:35	10	0	0.1	0	0	395	0.2	395	396	16.7	93.4
2025-09-03T23:36	10	0	0.1	0	0	395	0.3	395	396	16.6	93.0
2025-09-03T23:37	10	0	0.1	0	1	396	0.2	395	396	16.7	92.3
2025-09-03T23:38	10	0	0.1	0	1	396	0.3	395	396	16.7	92.0
2025-09-03T23:39	10	0	0.1	0	0	396	0.3	395	396	16.7	92.4
2025-09-03T23:40	10	0	0.1	0	0	396	0.2	395	396	16.8	92.7
2025-09-03T23:41	10	0	0.1	0	1	396	0.3	395	396	16.8	92.5
2025-09-03T23:42	10	0	0.2	0	1	396	0.3	395	396	16.8	93.2
2025-09-03T23:43	10	0	0.1	0	1	395	0.3	395	396	16.7	94.1
2025-09-03T23:44	10	0	0.1	0	1	395	0.3	394	395	16.7	94.8
2025-09-03T23:45	10	0	0.1	0	0	395	0.3	394	395	16.6	95.3
2025-09-03T23:46	10	0	0.1	0	1	395	0.2	394	395	16.6	94.7
2025-09-03T23:47	10	0	0.1	0	0	395	0.2	394	395	16.6	93.8
2025-09-03T23:48	10	0	0.1	0	1	394	0.2	394	395	16.7	93.4
2025-09-03T23:49	10	0	0.1	0	0	395	0.2	394	395	16.7	93.1
2025-09-03T23:50	10	0	0.1	0	1	395	0.2	394	395	16.8	93.2
2025-09-03T23:51	10	0	0.1	0	0	395	0.2	394	395	16.8	93.7
2025-09-03T23:52	10	0	0.1	0	0	395	0.2	394	395	16.7	94.4
2025-09-03T23:53	10	0	0.1	0	0	395	0.3	394	395	16.7	94.2
2025-09-03T23:54	10	0	0.1	0	0	395	0.2	394	395	16.7	94.5
2025-09-03T23:55	10	0	0.1	0	0	395	0.2	394	395	16.7	95.1
2025-09-03T23:56	10	0	0.2	0	1	395	0.2	395	396	16.6	95.2
2025-09-03T23:57	10	0	0.1	0	0	395	0.2	395	396	16.6	94.7
2025-09-03T23:58	10	0	0.1	0	0	395	0.2	395	396	16.6	94.5
2025-09-03T23:59	10	0	0.1	0	1	396	0.2	395	396	16.6	93.1
2025-09-04T00:00	10	0	0.1	0	0	396	0.2	395	396	16.7	92.6
2025-09-04T00:01	10	0	0.1	0	1	396	0.2	395	396	16.7	92.2
2025-09-04T00:02	10	0	0.1	0	0	396	0.3	395	396	16.8	91.3
2025-09-04T00:03	10	0	0.1	0	0	396	0.2	395	396	16.8	91.4
2025-09-04T00:04	10	0	0.1	0	0	396	0.2	395	396	16.8	92.1
2025-09-04T00:05	10	0	0.1	0	0	396	0.2	395	396	16.8	93.5
2025-09-04T00:06	10	0	0.1	0	0	396	0.2	395	396	16.7	94.1
2025-09-04T00:07	10	0	0.1	0	0	396	0.2	395	396	16.6	94.3
2025-09-04T00:08	10	0	0.1	0	1	396	0.3	395	396	16.7	93.5
2025-09-04T00:09	10	0	0.1	0	1	395	0.2	395	396	16.8	94.1
2025-09-04T00:10	10	0	0.1	0	0	395	0.2	395	396	16.7	93.9
2025-09-04T00:11	10	0	0.1	0	1	395	0.2	395	396	16.8	93.2
2025-09-04T00:12	10	0	0.1	0	0	396	0.3	395	396	16.8	93.9
2025-09-04T00:13	10	0	0.1	0	1	396	0.3	395	397	16.7	92.1
2025-09-04T00:14	10	0	0.1	0	1	396	0.2	396	397	16.8	92.3
2025-09-04T00:15	10	0	0.1	0	1	396	0.2	396	397	16.8	91.5
2025-09-04T00:16	10	0	0.1	0	0	396	0.2	396	397	16.9	90.6
2025-09-04T00:17	10	0	0.1	0	0	396	0.2	395	396	16.9	90.4
2025-09-04T00:18	10	0	0.2	0	1	396	0.3	395	396	16.9	91.3
2025-09-04T00:19	10	0	0.1	0	1	396	0.2	395	396	16.8	91.8
2025-09-04T00:20	10	0	0.1	0	1	396	0.2	395	396	16.8	93.8
2025-09-04T00:21	10	0	0.2	0	1	396	0.2	395	396	16.7	94.4
2025-09-04T00:22	10	0	0.1	0	1	396	0.3	395	397	16.7	93.3
2025-09-04T00:23	10	0	0.2	0	1	396	0.3	395	396	16.7	93.5
2025-09-04T00:24	10	0	0.1	0	0	395	0.3	395	396	16.7	93.6
2025-09-04T00:25	10	0	0.1	0	1	395	0.2	395	396	16.7	94.2
2025-09-04T00:26	10	0	0.1	0	1	395	0.3	394	396	16.7	94.4
2025-09-04T00:27	10	0	0.1	0	1	395	0.3	394	395	16.6	95.4
2025-09-04T00:28	10	0	0.1	0	1	395	0.3	395	396	16.6	95.4
2025-09-04T00:29	10	0	0.1	0	0	395	0.3	395	396	16.5	96.3
2025-09-04T00:30	10	0	0.1	0	1	395	0.2	395	396	16.5	95.7
2025-09-04T00:31	10	0	0.1	0	1	396	0.2	395	396	16.5	95.6
2025-09-04T00:32	10	0	0.1	0	1	396	0.3	395	396	16.6	94.4
2025-09-04T00:33	10	0	0.1	0	1	396	0.2	395	396	16.7	93.3
2025-09-04T00:34	10	0	0.1	0	0	396	0.4	395	396	16.7	94.2
2025-09-04T00:35	10	0	0.1	0	0	396	0.2	396	396	16.7	93.7
2025-09-04T00:36	10	0	0.1	0	1	396	0.2	396	397	16.8	93.3
2025-09-04T00:37	10	0	0.1	0	1	396	0.3	396	397	16.9	92.4
2025-09-04T00:38	10	0	0.1	0	1	397	0.3	396	397	17.0	92.2
2025-09-04T00:39	10	0	0.1	0	0	397	0.2	396	397	17.0	91.3
2025-09-04T00:40	10	0	0.1	0	0	397	0.2	396	397	17.1	91.2
2025-09-04T00:41	10	0	0.1	0	1	397	0.2	396	397	17.1	91.3
2025-09-04T00:42	10	0	0.1	0	1	397	0.3	396	398	17.1	90.6
2025-09-04T00:43	10	0	0.1	0	1	397	0.3	396	398	17.2	90.3
2025-09-04T00:44	10	0	0.2	0	1	397	0.2	397	398	17.2	90.6
2025-09-04T00:45	10	0	0.1	0	1	397	0.3	397	398	17.3	89.8
2025-09-04T00:46	10	0	0.2	0	1	397	0.2	397	398	17.2	90.4
2025-09-04T00:47	10	0	0.1	0	1	398	0.2	397	398	17.3	89.9
2025-09-04T00:48	10	0	0.1	0	1	398	0.2	397	398	17.3	90.3
2025-09-04T00:49	10	0	0.1	0	1	398	0.2	397	398	17.2	90.9
2025-09-04T00:50	10	0	0.1	0	1	398	0.2	397	398	17.2	91.3
2025-09-04T00:51	10	0	0.1	0	1	398	0.3	397	398	17.2	90.6
2025-09-04T00:52	10	0	0.1	0	1	398	0.3	397	398	17.2	90.4
2025-09-04T00:53	10	0	0.1	0	1	398	0.3	397	398	17.2	90.9
2025-09-04T00:54	10	0	0.1	0	1	398	0.3	397	398	17.3	90.3
2025-09-04T00:55	10	0	0.2	0	1	398	0.3	397	398	17.2	90.5
2025-09-04T00:56	10	0	0.1	0	1	398	0.2	397	398	17.3	90.1
2025-09-04T00:57	10	0	0.2	0	1	398	0.3	397	399	17.2	90.7
2025-09-04T00:58	10	0	0.1	0	1	398	0.2	397	398	17.2	91.1
2025-09-04T00:59	10	0	0.2	0	1	398	0.2	397	398	17.2	90.7
2025-09-04T01:00	10	0	0.2	0	1	397	0.2	397	398	17.2	90.6
2025-09-04T01:01	10	0	0.1	0	1	398	0.3	397	398	17.1	90.8
2025-09-04T01:02	10	0	0.2	0	1	398	0.3	397	398	17.1	91.3
2025-09-04T01:03	10	0	0.2	0	1	397	0.3	397	398	17.0	92.3
2025-09-04T01:04	10	0	0.2	0	1	397	0.4	396	398	17.0	93.3
2025-09-04T01:05	10	0	0.1	0	1	397	0.2	397	398	16.9	94.0
2025-09-04T01:06	10	0	0.2	0	1	397	0.2	397	397	16.9	93.6
2025-09-04T01:07	10	0	0.2	0	1	397	0.2	397	397	17.0	92.6
2025-09-04T01:08	10	0	0.1	0	1	397	0.3	397	398	17.0	92.5
2025-09-04T01:09	10	0	0.2	0	1	397	0.2	396	398	17.0	92.9
2025-09-04T01:10	10	0	0.1	0	1	397	0.2	396	398	17.0	93.1
2025-09-04T01:11	10	0	0.1	0	1	397	0.3	396	398	17.0	93.2
2025-09-04T01:12	10	0	0.2	0	1	397	0.3	396	397	17.0	93.9
2025-09-04T01:13	10	0	0.1	0	1	397	0.4	396	397	16.9	94.8
2025-09-04T01:14	10	0	0.2	0	1	396	0.3	395	397	16.7	96.0
2025-09-04T01:15	10	0	0.1	0	1	396	0.3	396	397	16.6	96.8
2025-09-04T01:16	10	0	0.2	0	1	396	0.3	395	396	16.6	97.2
2025-09-04T01:17	10	0	0.1	0	1	396	0.3	395	396	16.5	97.3
2025-09-04T01:18	10	0	0.1	0	1	396	0.2	395	396	16.5	97.3
2025-09-04T01:19	10	0	0.1	0	1	395	0.2	395	396	16.4	97.5
2025-09-04T01:20	10	0	0.1	0	0	395	0.2	395	396	16.4	97.6
2025-09-04T01:21	10	0	0.1	0	0	395	0.2	395	396	16.3	97.7
2025-09-04T01:22	10	0	0.1	0	0	395	0.2	395	396	16.3	97.9
2025-09-04T01:23	10	0	0.1	0	1	395	0.2	394	395	16.3	97.8
2025-09-04T01:24	10	0	0.1	0	1	395	0.2	395	396	16.3	97.9
2025-09-04T01:25	10	0	0.1	0	1	395	0.2	394	395	16.3	97.8
2025-09-04T01:26	10	0	0.1	0	0	395	0.2	394	396	16.3	97.7
2025-09-04T01:27	10	0	0.1	0	0	395	0.3	395	396	16.3	97.8
2025-09-04T01:28	10	0	0.1	0	1	395	0.2	395	396	16.3	97.7
2025-09-04T01:29	10	0	0.1	0	1	395	0.2	395	396	16.3	97.7
2025-09-04T01:30	10	0	0.1	0	0	395	0.2	395	396	16.3	97.8
2025-09-04T01:31	10	0	0.1	0	1	395	0.2	395	396	16.3	97.8
2025-09-04T01:32	10	0	0.1	0	1	395	0.2	395	396	16.4	97.7
2025-09-04T01:33	10	0	0.1	0	1	395	0.2	395	396	16.4	97.7
2025-09-04T01:34	10	0	0.1	0	1	396	0.2	395	396	16.4	97.7
2025-09-04T01:35	10	0	0.1	0	0	395	0.2	395	396	16.4	97.7
2025-09-04T01:36	10	0	0.1	0	1	396	0.2	395	396	16.4	97.9
2025-09-04T01:37	10	0	0.1	0	1	395	0.2	395	396	16.4	98.2
2025-09-04T01:38	10	0	0.1	0	0	396	0.2	395	396	16.4	98.0
2025-09-04T01:39	10	0	0.1	0	1	395	0.2	395	396	16.4	97.5
2025-09-04T01:40	10	0	0.1	0	1	396	0.2	395	396	16.5	97.5
2025-09-04T01:41	10	0	0.1	0	0	395	0.2	395	396	16.5	97.9
2025-09-04T01:42	10	0	0.1	0	1	395	0.1	395	396	16.5	98.1
2025-09-04T01:43	10	0	0.1	0	1	395	0.3	395	396	16.5	98.1
2025-09-04T01:44	10	0	0.1	0	1	395	0.2	395	396	16.6	97.9
2025-09-04T01:45	10	0	0.1	0	0	396	0.2	395	396	16.6	96.9
2025-09-04T01:46	10	0	0.1	0	0	395	0.2	395	396	16.7	96.8
2025-09-04T01:47	10	0	0.1	0	1	396	0.3	395	396	16.7	96.7
2025-09-04T01:48	10	0	0.1	0	1	396	0.2	395	396	16.7	96.7
2025-09-04T01:49	10	0	0.1	0	0	396	0.2	396	397	16.7	96.6
2025-09-04T01:50	10	0	0.1	0	1	396	0.3	396	397	16.8	95.2
2025-09-04T01:51	10	0	0.1	0	0	397	0.2	396	397	17.1	91.8
2025-09-04T01:52	10	0	0.1	0	1	396	0.2	396	397	17.2	91.9
2025-09-04T01:53	10	0	0.1	0	1	396	0.2	396	397	17.1	92.6
2025-09-04T01:54	10	0	0.1	0	1	396	0.2	396	397	17.2	91.3
2025-09-04T01:55	10	0	0.1	0	1	397	0.2	396	397	17.2	90.9
2025-09-04T01:56	10	0	0.1	0	0	396	0.2	396	397	17.2	91.0
2025-09-04T01:57	10	0	0.1	0	1	396	0.2	396	397	17.3	90.6
2025-09-04T01:58	10	0	0.1	0	0	396	0.2	396	397	17.3	90.6
2025-09-04T01:59	10	0	0.1	0	0	396	0.2	395	396	17.3	90.8
2025-09-04T02:00	10	0	0.1	0	0	397	0.2	396	397	17.3	90.3
2025-09-04T02:01	10	0	0.1	0	0	397	0.2	396	397	17.3	89.9
2025-09-04T02:02	10	0	0.1	0	0	396	0.2	396	396	17.3	89.8
2025-09-04T02:03	10	0	0.1	0	0	396	0.2	396	396	17.3	90.1
2025-09-04T02:04	10	0	0.1	0	0	396	0.2	396	397	17.4	88.9
2025-09-04T02:05	10	0	0.1	0	0	396	0.3	395	397	17.4	88.5
2025-09-04T02:06	10	0	0.1	0	1	396	0.3	395	396	17.4	89.2
2025-09-04T02:07	10	0	0.1	0	1	395	0.3	394	396	17.2	91.1
2025-09-04T02:08	10	0	0.1	0	1	395	0.2	395	396	17.0	92.8
2025-09-04T02:09	10	0	0.2	0	1	395	0.2	394	395	16.9	93.8
2025-09-04T02:10	10	0	0.1	0	1	394	0.3	394	395	16.8	94.1
2025-09-04T02:11	10	0	0.1	0	1	394	0.3	393	394	16.8	94.8
2025-09-04T02:12	10	0	0.1	0	1	393	0.3	393	394	16.7	95.5
2025-09-04T02:13	10	0	0.1	0	1	393	0.3	392	394	16.7	96.1
2025-09-04T02:14	10	0	0.1	0	1	392	0.3	391	392	16.7	96.5
2025-09-04T02:15	10	0	0.1	0	1	392	0.3	391	392	16.6	96.8
2025-09-04T02:16	10	0	0.2	0	1	391	0.3	390	392	16.6	96.7
2025-09-04T02:17	10	0	0.1	0	1	390	0.3	390	391	16.6	96.7
2025-09-04T02:18	10	0	0.1	0	1	390	0.3	390	391	16.6	96.7
2025-09-04T02:19	10	0	0.1	0	1	390	0.2	389	391	16.5	96.8
2025-09-04T02:20	10	0	0.1	0	0	390	0.2	389	390	16.5	96.9
2025-09-04T02:21	10	0	0.1	0	1	390	0.3	389	390	16.5	96.9
2025-09-04T02:22	10	0	0.1	0	1	389	0.2	389	390	16.5	97.1
2025-09-04T02:23	10	0	0.1	0	0	390	0.3	389	390	16.6	97.0
2025-09-04T02:24	10	0	0.1	0	0	390	0.2	389	390	16.6	96.9
2025-09-04T02:25	10	0	0.2	0	1	390	0.2	389	390	16.5	97.1
2025-09-04T02:26	10	0	0.1	0	1	390	0.2	389	390	16.5	97.2
2025-09-04T02:27	10	0	0.1	0	0	390	0.2	389	390	16.5	96.7
2025-09-04T02:28	10	0	0.1	0	1	390	0.3	389	391	16.5	96.4
2025-09-04T02:29	10	0	0.1	0	0	390	0.3	389	391	16.5	96.7
2025-09-04T02:30	10	0	0.2	0	1	390	0.2	390	391	16.5	96.9
2025-09-04T02:31	10	0	0.2	0	1	390	0.3	390	391	16.5	97.0
2025-09-04T02:32	10	0	0.2	0	1	390	0.3	390	391	16.5	97.2
2025-09-04T02:33	10	0	0.2	0	1	390	0.3	389	390	16.5	97.6
2025-09-04T02:34	10	0	0.2	0	1	390	0.2	389	390	16.5	98.0
2025-09-04T02:35	10	0	0.1	0	1	390	0.3	390	391	16.4	98.2
2025-09-04T02:36	10	0	0.1	0	1	390	0.2	389	391	16.4	98.3
2025-09-04T02:37	10	0	0.2	0	1	390	0.3	390	391	16.4	98.5
2025-09-04T02:38	10	0	0.2	0	1	390	0.2	389	390	16.4	98.7
2025-09-04T02:39	10	0	0.2	0	1	390	0.2	389	390	16.4	99.0
2025-09-04T02:40	10	0	0.1	0	1	390	0.3	389	390	16.3	99.0
2025-09-04T02:41	10	0	0.1	0	0	390	0.2	390	390	16.3	98.8
2025-09-04T02:42	10	0	0.1	0	1	390	0.3	389	391	16.3	98.8
2025-09-04T02:43	10	0	0.2	0	1	390	0.3	390	391	16.4	98.8
2025-09-04T02:44	10	0	0.1	0	1	390	0.2	390	391	16.4	98.7
2025-09-04T02:45	10	0	0.1	0	0	390	0.2	389	391	16.3	98.6
2025-09-04T02:46	10	0	0.1	0	1	390	0.2	390	390	16.3	98.4
2025-09-04T02:47	10	0	0.1	0	1	390	0.2	389	390	16.4	98.4
2025-09-04T02:48	10	0	0.2	0	1	389	0.2	389	390	16.4	98.6
2025-09-04T02:49	10	0	0.1	0	1	389	0.2	388	389	16.4	98.8
2025-09-04T02:50	10	0	0.1	0	1	389	0.2	388	390	16.4	99.3
2025-09-04T02:51	10	0	0.1	0	0	389	0.2	388	390	16.4	99.4
2025-09-04T02:52	10	0	0.1	0	0	389	0.2	388	389	16.4	99.3
2025-09-04T02:53	10	0	0.1	0	0	388	0.3	388	389	16.4	99.1
2025-09-04T02:54	10	0	0.2	0	1	388	0.2	388	389	16.4	99.1
2025-09-04T02:55	10	0	0.1	0	1	388	0.3	388	389	16.3	99.1
2025-09-04T02:56	10	0	0.1	0	1	388	0.3	388	389	16.3	99.1
2025-09-04T02:57	10	0	0.2	0	1	389	0.3	388	390	16.2	99.1
2025-09-04T02:58	10	0	0.1	0	1	389	0.2	388	389	16.2	98.5
2025-09-04T02:59	10	0	0.1	0	1	389	0.3	389	390	16.3	98.5
2025-09-04T03:00	10	0	0.1	0	0	389	0.2	389	390	16.3	98.8
2025-09-04T03:01	10	0	0.1	0	1	389	0.2	389	390	16.2	99.1
2025-09-04T03:02	10	0	0.1	0	1	390	0.2	389	390	16.2	98.9
2025-09-04T03:03	10	0	0.1	0	1	390	0.3	389	390	16.2	99.0
2025-09-04T03:04	10	0	0.1	0	0	390	0.3	389	390	16.2	99.3
2025-09-04T03:05	10	0	0.2	0	1	389	0.2	389	389	16.2	99.9
2025-09-04T03:06	10	0	0.1	0	1	389	0.2	389	389	16.2	99.9
2025-09-04T03:07	10	0	0.1	0	1	389	0.2	389	390	16.2	99.4
2025-09-04T03:08	10	0	0.1	0	1	389	0.2	389	389	16.1	99.4
2025-09-04T03:09	10	0	0.1	0	0	389	0.2	389	389	16.1	99.3
2025-09-04T03:10	10	0	0.1	0	0	389	0.2	389	390	16.1	99.1
2025-09-04T03:11	10	0	0.1	0	1	389	0.2	389	390	16.2	99.2
2025-09-04T03:12	10	0	0.1	0	1	390	0.3	389	390	16.2	99.2
2025-09-04T03:13	10	0	0.1	0	0	390	0.2	389	390	16.2	99.3
2025-09-04T03:14	10	0	0.1	0	1	390	0.2	389	391	16.2	99.2
2025-09-04T03:15	10	0	0.1	0	0	390	0.2	390	390	16.1	99.2
2025-09-04T03:16	10	0	0.1	0	0	390	0.2	390	390	16.1	99.1
2025-09-04T03:17	10	0	0.1	0	1	390	0.2	389	391	16.1	99.2
2025-09-04T03:18	10	0	0.1	0	0	390	0.2	389	390	16.1	99.3
2025-09-04T03:19	10	0	0.1	0	1	389	0.3	389	390	16.1	99.3
2025-09-04T03:20	10	0	0.1	0	1	389	0.2	388	389	16.0	99.4
2025-09-04T03:21	10	0	0.1	0	0	389	0.3	388	389	16.0	99.5
2025-09-04T03:22	10	0	0.1	0	1	388	0.3	388	389	16.0	99.4
2025-09-04T03:23	10	0	0.1	0	1	388	0.3	387	388	16.0	99.6
2025-09-04T03:24	10	0	0.1	0	0	387	0.2	387	388	16.0	99.8
2025-09-04T03:25	10	0	0.1	0	0	387	0.2	386	387	15.9	99.7
2025-09-04T03:26	10	0	0.1	0	0	387	0.2	386	387	16.0	99.7
2025-09-04T03:27	10	0	0.1	0	0	386	0.2	386	387	16.0	99.6
2025-09-04T03:28	10	0	0.1	0	0	386	0.2	386	387	16.0	99.4
2025-09-04T03:29	10	0	0.1	0	0	386	0.2	386	387	16.0	99.3
2025-09-04T03:30	10	0	0.1	0	0	386	0.2	385	386	15.9	99.4
2025-09-04T03:31	10	0	0.1	0	0	386	0.3	385	386	15.9	99.6
2025-09-04T03:32	10	0	0.1	0	0	385	0.3	384	386	15.9	99.8
2025-09-04T03:33	10	0	0.1	0	0	385	0.2	385	385	15.9	99.7
2025-09-04T03:34	10	0	0.1	0	0	385	0.2	384	385	15.9	99.9
2025-09-04T03:35	10	0	0.1	0	0	385	0.2	384	385	15.9	100.3
2025-09-04T03:36	10	0	0.0	0	0	385	0.3	385	386	15.9	100.9
2025-09-04T03:37	10	0	0.1	0	0	386	0.3	385	387	15.9	100.6
2025-09-04T03:38	10	0	0.1	0	0	387	0.2	386	387	15.9	99.8
2025-09-04T03:39	10	0	0.1	0	0	387	0.3	387	388	15.8	99.5
2025-09-04T03:40	10	0	0.1	0	0	388	0.2	387	388	15.9	99.6
2025-09-04T03:41	10	0	0.1	0	0	388	0.3	388	389	15.9	99.7
2025-09-04T03:42	10	0	0.1	0	0	388	0.2	387	388	15.9	99.8
2025-09-04T03:43	10	0	0.1	0	0	388	0.2	388	388	15.9	99.8
2025-09-04T03:44	10	0	0.1	0	0	388	0.3	387	388	15.9	99.9
2025-09-04T03:45	10	0	0.1	0	0	387	0.4	386	388	15.9	100.0
2025-09-04T03:46	10	0	0.1	0	0	386	0.3	385	387	15.9	100.4
2025-09-04T03:47	10	0	0.1	0	0	385	0.3	384	386	15.8	100.4
2025-09-04T03:48	10	0	0.1	0	1	384	0.3	384	385	15.9	100.0
2025-09-04T03:49	10	0	0.1	0	0	384	0.3	383	384	15.9	100.1
2025-09-04T03:50	10	0	0.1	0	0	384	0.3	383	384	15.9	100.0
2025-09-04T03:51	10	0	0.1	0	0	383	0.2	382	384	15.9	99.8
2025-09-04T03:52	10	0	0.0	0	0	383	0.2	383	384	15.9	99.8
2025-09-04T03:53	10	0	0.1	0	0	383	0.2	383	384	16.0	99.8
2025-09-04T03:54	10	0	0.1	0	0	383	0.2	383	384	16.0	99.7
2025-09-04T03:55	10	0	0.0	0	0	383	0.2	382	383	15.9	99.7
2025-09-04T03:56	10	0	0.1	0	0	383	0.3	382	383	16.0	99.6
2025-09-04T03:57	10	0	0.1	0	0	382	0.3	382	383	15.9	99.7
2025-09-04T03:58	10	0	0.1	0	0	382	0.2	382	383	15.9	99.6
2025-09-04T03:59	10	0	0.1	0	0	382	0.2	382	382	15.9	99.6
2025-09-04T04:00	10	0	0.1	0	0	382	0.2	381	382	15.9	99.8
2025-09-04T04:01	10	0	0.1	0	0	382	0.2	381	382	15.9	99.9
2025-09-04T04:02	10	0	0.1	0	0	382	0.3	381	382	15.8	99.9
2025-09-04T04:03	10	0	0.1	0	0	382	0.3	381	382	15.8	100.1
2025-09-04T04:04	10	0	0.1	0	0	382	0.2	382	383	15.7	99.8
2025-09-04T04:05	10	0	0.0	0	0	382	0.2	382	383	15.7	99.6
2025-09-04T04:06	10	0	0.1	0	0	382	0.2	382	383	15.7	99.6
2025-09-04T04:07	10	0	0.1	0	0	383	0.3	382	383	15.7	99.9
2025-09-04T04:08	10	0	0.1	0	0	383	0.3	382	383	15.8	99.8
2025-09-04T04:09	10	0	0.0	0	0	383	0.2	383	384	15.7	99.9
2025-09-04T04:10	10	0	0.0	0	0	384	0.3	383	384	15.7	100.0
2025-09-04T04:11	10	0	0.1	0	0	384	0.3	384	385	15.7	100.0
2025-09-04T04:12	10	0	0.1	0	0	384	0.2	384	385	15.7	100.0
2025-09-04T04:13	10	0	0.1	0	0	384	0.2	384	385	15.7	100.0
2025-09-04T04:14	10	0	0.1	0	0	384	0.3	383	384	15.6	100.2
2025-09-04T04:15	10	0	0.1	0	0	383	0.2	383	383	15.6	100.3
2025-09-04T04:16	10	0	0.1	0	0	383	0.2	382	384	15.6	100.1
2025-09-04T04:17	10	0	0.1	0	0	383	0.2	382	383	15.5	100.1
2025-09-04T04:18	10	0	0.1	0	0	382	0.2	382	383	15.5	100.1
2025-09-04T04:19	10	0	0.0	0	0	382	0.3	382	383	15.5	100.2
2025-09-04T04:20	10	0	0.1	0	0	382	0.2	382	382	15.5	100.2
2025-09-04T04:21	10	0	0.1	0	0	382	0.2	382	383	15.4	100.6
2025-09-04T04:22	10	0	0.1	0	0	383	0.2	382	383	15.5	100.9
2025-09-04T04:23	10	0	0.1	0	0	383	0.2	382	383	15.5	100.7
2025-09-04T04:24	10	0	0.1	0	0	383	0.3	382	384	15.5	100.5
2025-09-04T04:25	10	0	0.1	0	0	383	0.2	382	383	15.5	100.2
2025-09-04T04:26	10	0	0.1	0	0	383	0.2	383	384	15.6	100.2
2025-09-04T04:27	10	0	0.1	0	0	383	0.2	383	383	15.6	100.0
2025-09-04T04:28	10	0	0.1	0	0	383	0.3	383	384	15.5	100.1
2025-09-04T04:29	10	0	0.1	0	0	384	0.2	383	384	15.5	100.2
2025-09-04T04:30	10	0	0.1	0	0	384	0.2	383	384	15.5	100.5
2025-09-04T04:31	10	0	0.1	0	0	384	0.2	384	384	15.5	100.3
2025-09-04T04:32	10	0	0.1	0	0	384	0.2	384	385	15.5	100.2
2025-09-04T04:33	10	0	0.1	0	0	384	0.2	384	385	15.5	100.2
2025-09-04T04:34	10	0	0.1	0	0	384	0.2	384	385	15.5	100.3
2025-09-04T04:35	10	0	0.1	0	0	384	0.2	384	384	15.5	100.3
2025-09-04T04:36	10	0	0.1	0	0	384	0.2	384	385	15.4	100.1
2025-09-04T04:37	10	0	0.1	0	1	384	0.2	384	384	15.5	99.9
2025-09-04T04:38	10	0	0.1	0	0	384	0.2	383	384	15.5	100.0
2025-09-04T04:39	10	0	0.1	0	0	384	0.2	383	384	15.5	100.2
2025-09-04T04:40	10	0	0.0	0	0	383	0.2	383	384	15.5	100.5
2025-09-04T04:41	10	0	0.1	0	0	383	0.2	383	384	15.5	100.7
2025-09-04T04:42	10	0	0.1	0	1	384	0.3	383	384	15.4	100.5
2025-09-04T04:43	10	0	0.1	0	1	383	0.3	383	384	15.4	100.2
2025-09-04T04:44	10	0	0.1	0	1	384	0.3	383	384	15.4	100.4
2025-09-04T04:45	10	0	0.1	0	1	383	0.2	383	384	15.4	100.3
2025-09-04T04:46	10	0	0.1	0	1	383	0.3	383	384	15.4	100.6
2025-09-04T04:47	10	0	0.1	0	1	383	0.2	383	384	15.4	100.5
2025-09-04T04:48	10	0	0.1	0	1	383	0.2	383	384	15.4	100.5
2025-09-04T04:49	10	1	0.1	0	1	383	0.2	383	384	15.5	100.5
2025-09-04T04:50	10	1	0.1	0	1	384	0.2	383	384	15.5	100.2
2025-09-04T04:51	10	1	0.1	1	1	383	0.2	383	384	15.5	100.4
2025-09-04T04:52	10	1	0.1	1	1	384	0.2	383	384	15.4	100.3
2025-09-04T04:53	10	1	0.1	1	2	383	0.3	383	384	15.4	100.7
2025-09-04T04:54	10	2	0.1	1	2	384	0.3	383	384	15.4	100.8
2025-09-04T04:55	10	2	0.1	2	2	384	0.2	383	384	15.4	100.8
2025-09-04T04:56	10	2	0.1	2	2	384	0.2	384	385	15.4	100.9
2025-09-04T04:57	10	2	0.1	2	2	384	0.2	384	385	15.4	101.0
2025-09-04T04:58	10	2	0.1	2	2	385	0.3	384	385	15.3	100.7
2025-09-04T04:59	10	2	0.1	2	2	385	0.2	384	385	15.3	100.7
2025-09-04T05:00	10	2	0.1	2	2	385	0.3	384	386	15.3	100.0
2025-09-04T05:01	10	2	0.1	2	2	385	0.2	385	386	15.4	99.6
2025-09-04T05:02	10	2	0.1	1	2	385	0.2	385	386	15.5	99.7
2025-09-04T05:03	10	1	0.1	1	2	386	0.2	385	386	15.5	100.0
2025-09-04T05:04	10	1	0.1	1	2	386	0.2	385	386	15.5	100.4
2025-09-04T05:05	10	1	0.1	1	2	385	0.3	385	386	15.5	100.2
2025-09-04T05:06	10	1	0.1	1	2	386	0.3	385	386	15.5	99.9
2025-09-04T05:07	10	1	0.1	1	2	386	0.2	385	387	15.5	99.8
2025-09-04T05:08	10	1	0.1	1	1	386	0.2	386	387	15.5	99.8
2025-09-04T05:09	10	1	0.1	1	2	386	0.2	386	387	15.4	99.8
2025-09-04T05:10	10	2	0.1	2	2	387	0.2	386	387	15.4	99.8
2025-09-04T05:11	10	2	0.2	2	3	387	0.2	386	387	15.4	99.9
2025-09-04T05:12	10	3	0.2	2	3	387	0.3	386	387	15.4	99.9
2025-09-04T05:13	10	3	0.1	3	3	387	0.3	386	388	15.3	100.0
2025-09-04T05:14	10	3	0.1	3	3	387	0.2	387	388	15.3	100.1
2025-09-04T05:15	10	3	0.1	3	3	387	0.3	387	388	15.3	100.1
2025-09-04T05:16	10	3	0.2	3	4	388	0.3	387	388	15.3	100.3
2025-09-04T05:17	10	5	0.2	4	5	388	0.2	387	388	15.3	100.2
2025-09-04T05:18	10	5	0.2	4	5	388	0.2	387	388	15.3	100.3
2025-09-04T05:19	10	4	0.3	3	4	387	0.2	387	388	15.3	100.5
2025-09-04T05:20	10	4	0.2	3	4	388	0.2	387	388	15.3	100.7
2025-09-04T05:21	10	4	0.2	4	5	388	0.2	387	388	15.3	100.8
2025-09-04T05:22	10	5	0.3	4	5	388	0.3	387	389	15.3	100.1
2025-09-04T05:23	10	6	0.2	5	6	388	0.3	387	389	15.3	99.7
2025-09-04T05:24	10	6	0.3	6	7	389	0.3	388	389	15.4	99.7
2025-09-04T05:25	10	7	0.3	7	8	389	0.2	388	389	15.4	100.0
2025-09-04T05:26	10	8	0.2	8	9	389	0.3	388	390	15.4	100.5
2025-09-04T05:27	10	9	0.3	8	9	389	0.3	389	390	15.4	100.8
2025-09-04T05:28	10	10	0.2	9	10	389	0.3	389	390	15.4	100.6
2025-09-04T05:29	10	11	0.9	10	13	390	0.2	389	391	15.4	100.0
2025-09-04T05:30	10	14	0.9	13	16	390	0.3	390	391	15.4	99.9
2025-09-04T05:31	10	17	0.7	16	18	391	0.3	390	392	15.4	99.8
2025-09-04T05:32	10	19	0.3	18	19	391	0.3	391	392	15.4	99.9
2025-09-04T05:33	10	19	0.1	19	19	392	0.2	391	392	15.4	99.8
2025-09-04T05:34	10	18	0.4	17	19	392	0.3	391	393	15.4	99.7
2025-09-04T05:35	10	15	1.3	13	17	392	0.2	391	392	15.3	99.6
2025-09-04T05:36	10	13	0.4	12	14	391	0.3	391	392	15.3	99.7
2025-09-04T05:37	10	11	0.9	10	13	391	0.2	391	392	15.3	99.6
2025-09-04T05:38	10	10	0.1	10	10	391	0.2	391	392	15.3	99.6
2025-09-04T05:39	10	10	0.1	10	10	392	0.3	391	392	15.4	99.7
2025-09-04T05:40	10	10	0.1	10	11	392	0.2	391	393	15.4	99.9
2025-09-04T05:41	10	11	0.1	10	11	392	0.2	392	393	15.4	100.0
2025-09-04T05:42	10	11	0.1	11	11	392	0.2	392	393	15.5	100.0
2025-09-04T05:43	10	11	0.1	11	11	393	0.2	392	393	15.5	100.0
2025-09-04T05:44	10	11	0.1	11	11	393	0.3	392	394	15.5	99.8
2025-09-04T05:45	10	11	0.1	11	11	393	0.2	393	394	15.5	99.8
2025-09-04T05:46	10	11	0.1	11	11	393	0.3	393	394	15.5	99.9
2025-09-04T05:47	10	11	0.1	11	11	393	0.3	392	394	15.5	99.8
2025-09-04T05:48	10	11	0.1	11	11	393	0.2	392	393	15.4	99.7
2025-09-04T05:49	10	11	0.1	11	11	393	0.2	393	394	15.5	99.7
2025-09-04T05:50	10	11	0.1	10	11	393	0.2	393	394	15.5	99.8
2025-09-04T05:51	10	11	0.1	10	11	393	0.2	392	393	15.4	99.8
2025-09-04T05:52	10	10	0.1	10	11	393	0.2	393	394	15.5	99.7
2025-09-04T05:53	10	10	0.1	10	11	393	0.2	392	393	15.5	99.9
2025-09-04T05:54	10	10	0.1	10	10	393	0.2	392	393	15.4	99.8
2025-09-04T05:55	10	10	0.1	10	10	393	0.2	392	393	15.4	99.7
2025-09-04T05:56	10	9	0.1	9	10	393	0.2	392	393	15.4	99.9
2025-09-04T05:57	10	9	0.1	9	9	393	0.2	392	393	15.4	99.9
2025-09-04T05:58	10	9	0.1	9	9	393	0.2	392	393	15.4	99.8
2025-09-04T05:59	10	9	0.1	9	9	393	0.3	392	393	15.4	99.8
2025-09-04T06:00	10	8	0.2	8	9	393	0.2	393	393	15.4	99.8
2025-09-04T06:01	10	8	0.2	7	8	393	0.2	393	394	15.5	99.9
2025-09-04T06:02	10	7	0.2	7	8	393	0.3	393	394	15.5	99.6
2025-09-04T06:03	10	7	0.1	6	7	393	0.3	392	394	15.5	99.3
2025-09-04T06:04	10	6	0.2	6	6	392	0.2	392	393	15.5	99.3
2025-09-04T06:05	10	6	0.1	6	6	392	0.3	392	393	15.5	99.1
2025-09-04T06:06	10	6	0.1	5	6	392	0.2	392	393	15.5	99.1
2025-09-04T06:07	10	5	0.1	5	5	392	0.2	392	392	15.5	99.0
2025-09-04T06:08	10	5	0.1	5	5	392	0.2	392	393	15.6	99.0
2025-09-04T06:09	10	5	0.1	5	6	392	0.2	392	393	15.6	99.0
2025-09-04T06:10	10	5	0.1	5	6	392	0.2	392	393	15.6	99.0
2025-09-04T06:11	10	5	0.1	5	6	392	0.2	392	393	15.6	98.9
2025-09-04T06:12	10	6	0.1	5	6	392	0.2	392	393	15.6	99.0
2025-09-04T06:13	10	6	0.1	5	6	392	0.2	392	393	15.6	99.0
2025-09-04T06:14	10	6	0.1	6	6	392	0.2	392	393	15.6	99.0
2025-09-04T06:15	10	6	0.1	6	6	393	0.2	392	393	15.6	98.9
2025-09-04T06:16	10	6	0.1	6	6	392	0.2	392	393	15.6	98.9
2025-09-04T06:17	10	6	0.1	6	6	393	0.2	392	393	15.6	98.9
2025-09-04T06:18	10	6	0.1	6	7	393	0.2	392	393	15.6	98.9
2025-09-04T06:19	10	6	0.1	6	7	393	0.3	392	393	15.6	98.8
2025-09-04T06:20	10	6	0.1	6	7	393	0.2	392	393	15.6	98.6
2025-09-04T06:21	10	6	0.1	6	6	393	0.2	392	393	15.6	98.6
2025-09-04T06:22	10	6	0.1	6	6	393	0.3	392	394	15.6	98.8
2025-09-04T06:23	10	6	0.2	5	6	393	0.2	393	394	15.6	98.8
2025-09-04T06:24	10	5	0.2	5	5	393	0.2	393	394	15.6	98.7
2025-09-04T06:25	10	5	0.1	5	5	393	0.3	393	394	15.6	98.7
2025-09-04T06:26	10	5	0.1	4	5	393	0.2	393	394	15.6	98.7
2025-09-04T06:27	10	4	0.1	4	5	393	0.2	393	394	15.6	98.6
2025-09-04T06:28	10	4	0.1	4	5	393	0.2	393	394	15.6	98.6
2025-09-04T06:29	10	5	0.1	4	5	393	0.3	393	394	15.6	98.6
2025-09-04T06:30	10	5	0.1	4	5	393	0.2	393	394	15.7	98.6
2025-09-04T06:31	10	5	0.1	4	5	393	0.2	393	394	15.7	98.7
2025-09-04T06:32	10	5	0.1	5	5	394	0.3	393	394	15.7	98.7
2025-09-04T06:33	10	5	0.1	5	5	394	0.3	393	395	15.7	98.8
2025-09-04T06:34	10	6	0.2	5	6	394	0.2	394	394	15.7	98.7
2025-09-04T06:35	10	6	0.2	6	7	394	0.2	393	394	15.7	98.6
2025-09-04T06:36	10	7	0.2	7	8	394	0.2	394	394	15.7	98.7
2025-09-04T06:37	10	8	0.1	7	8	394	0.2	394	395	15.7	98.7
2025-09-04T06:38	10	8	0.1	8	8	395	0.2	394	395	15.7	98.8
2025-09-04T06:39	10	8	0.1	8	8	395	0.2	394	395	15.7	98.6
2025-09-04T06:40	10	8	0.1	8	9	395	0.3	394	395	15.7	98.8
2025-09-04T06:41	10	9	0.1	8	9	395	0.2	395	396	15.7	98.9
2025-09-04T06:42	10	9	0.1	9	9	396	0.2	395	396	15.7	99.0
2025-09-04T06:43	10	9	0.1	9	9	396	0.2	395	396	15.8	99.1
2025-09-04T06:44	10	9	0.1	9	9	396	0.2	395	396	15.8	99.0
2025-09-04T06:45	10	9	0.1	9	10	396	0.2	396	397	15.8	98.8
2025-09-04T06:46	10	10	0.2	9	10	396	0.2	396	397	15.8	98.8
2025-09-04T06:47	10	11	0.3	10	11	396	0.2	396	397	15.8	98.8
2025-09-04T06:48	10	12	0.3	11	12	397	0.3	396	398	15.8	98.7
2025-09-04T06:49	10	13	0.4	12	14	397	0.2	397	398	15.9	98.8
2025-09-04T06:50	10	14	0.2	13	14	397	0.2	397	398	15.9	98.9
2025-09-04T06:51	10	14	0.1	14	15	398	0.2	397	398	15.9	98.8
2025-09-04T06:52	10	15	0.1	14	15	398	0.2	397	398	15.9	98.9
2025-09-04T06:53	10	15	0.2	15	16	398	0.3	398	399	15.9	99.1
2025-09-04T06:54	10	16	0.2	15	16	399	0.3	398	399	16.0	99.1
2025-09-04T06:55	10	16	0.2	16	17	399	0.2	398	399	16.0	99.6
2025-09-04T06:56	10	17	0.3	17	18	399	0.2	399	400	16.1	99.5
2025-09-04T06:57	10	18	0.2	18	18	399	0.3	399	400	16.0	99.3
2025-09-04T06:58	10	19	0.2	18	19	400	0.4	399	401	16.0	98.7
2025-09-04T06:59	10	19	0.1	19	19	400	0.2	399	400	16.0	98.5
2025-09-04T07:00	10	19	0.1	19	20	400	0.2	399	401	16.0	98.5
2025-09-04T07:01	10	20	0.1	19	20	400	0.3	400	401	16.0	98.4
2025-09-04T07:02	10	20	0.1	20	20	400	0.2	400	401	16.1	98.6
2025-09-04T07:03	10	20	0.1	20	20	400	0.3	400	401	16.1	98.7
2025-09-04T07:04	10	20	0.1	20	21	401	0.2	400	401	16.1	98.7
2025-09-04T07:05	10	21	0.1	21	21	401	0.2	400	401	16.2	98.7
2025-09-04T07:06	10	21	0.1	21	21	401	0.2	400	401	16.1	98.9
2025-09-04T07:07	10	21	0.1	21	21	401	0.2	401	402	16.1	98.8
2025-09-04T07:08	10	21	0.1	21	21	401	0.3	400	402	16.1	98.8
2025-09-04T07:09	10	20	0.2	20	21	401	0.3	401	402	16.1	98.7
2025-09-04T07:10	10	20	0.1	20	20	401	0.2	400	402	16.1	98.6
2025-09-04T07:11	10	20	0.1	20	20	401	0.2	401	401	16.1	98.7
2025-09-04T07:12	10	20	0.2	20	20	401	0.2	400	402	16.2	98.7
2025-09-04T07:13	10	21	0.2	20	21	401	0.2	401	402	16.2	98.7
2025-09-04T07:14	10	21	0.3	21	22	402	0.2	401	402	16.2	98.6
2025-09-04T07:15	10	22	0.2	22	22	402	0.2	402	403	16.2	98.7
2025-09-04T07:16	10	23	0.1	22	23	403	0.2	402	403	16.3	98.6
2025-09-04T07:17	10	23	0.3	23	24	403	0.2	403	404	16.4	98.5
2025-09-04T07:18	10	25	0.4	24	26	403	0.2	403	404	16.4	98.6
2025-09-04T07:19	10	27	0.7	26	28	404	0.2	404	404	16.3	98.5
2025-09-04T07:20	10	30	0.9	28	31	405	0.3	404	405	16.3	98.4
2025-09-04T07:21	10	33	1.0	31	35	406	0.4	405	406	16.5	98.3
2025-09-04T07:22	10	36	1.3	35	39	407	0.2	406	407	16.4	98.4
2025-09-04T07:23	10	37	0.6	37	39	407	0.3	407	408	16.5	98.5
2025-09-04T07:24	10	36	0.4	36	37	408	0.4	407	409	16.6	98.4
2025-09-04T07:25	10	35	0.3	35	36	408	0.3	407	408	16.5	97.6
2025-09-04T07:26	10	34	0.6	33	35	407	0.2	407	408	16.5	97.3
2025-09-04T07:27	10	32	0.6	31	33	407	0.2	407	408	16.5	97.5
2025-09-04T07:28	10	30	0.7	29	31	407	0.3	407	408	16.5	97.2
2025-09-04T07:29	10	28	0.7	27	29	406	0.5	405	408	16.5	97.1
2025-09-04T07:30	10	26	0.4	25	27	406	0.4	405	407	16.6	97.0
2025-09-04T07:31	10	25	0.2	25	25	405	0.3	405	406	16.6	96.9
2025-09-04T07:32	10	25	0.2	24	25	405	0.4	404	405	16.6	97.1
2025-09-04T07:33	10	24	0.2	23	24	403	0.3	403	404	16.6	96.8
2025-09-04T07:34	10	23	0.1	23	24	403	0.2	403	404	16.6	96.6
2025-09-04T07:35	10	23	0.1	23	24	403	0.2	403	404	16.6	96.8
2025-09-04T07:36	10	24	0.2	24	24	404	0.3	403	405	16.6	96.9
2025-09-04T07:37	10	25	0.4	24	25	405	0.3	404	405	16.7	97.1
2025-09-04T07:38	10	26	0.4	25	27	405	0.2	404	405	16.6	97.3
2025-09-04T07:39	10	27	0.2	27	28	405	0.2	404	405	16.6	96.9
2025-09-04T07:40	10	27	0.2	27	28	405	0.2	404	405	16.6	96.7
2025-09-04T07:41	10	28	0.1	27	28	405	0.3	404	405	16.6	96.8
2025-09-04T07:42	10	27	0.2	27	27	405	0.2	404	406	16.7	96.8
2025-09-04T07:43	10	27	0.2	26	27	405	0.2	405	405	16.7	96.9
2025-09-04T07:44	10	26	0.2	26	27	405	0.2	405	406	16.7	97.0
2025-09-04T07:45	10	26	0.1	26	26	405	0.2	404	405	16.6	96.8
2025-09-04T07:46	10	27	0.4	26	28	405	0.2	405	406	16.6	96.6
2025-09-04T07:47	10	28	0.7	27	29	406	0.4	405	407	16.7	96.9
2025-09-04T07:48	10	30	0.3	29	31	407	0.3	406	407	16.7	96.9
2025-09-04T07:49	10	30	0.2	30	31	407	0.3	407	408	16.8	96.9
2025-09-04T07:50	10	29	0.2	29	30	408	0.2	407	408	16.9	96.8
2025-09-04T07:51	10	30	0.3	29	30	408	0.2	407	408	16.9	96.8
2025-09-04T07:52	10	31	0.5	30	32	408	0.4	407	409	16.9	96.8
2025-09-04T07:53	10	33	0.2	32	33	408	0.2	408	408	16.9	96.7
2025-09-04T07:54	10	33	0.2	32	33	408	0.2	407	408	16.9	96.6
2025-09-04T07:55	10	32	0.5	32	33	408	0.2	408	409	16.9	96.4
2025-09-04T07:56	10	32	0.5	31	32	408	0.2	408	409	17.1	96.4
2025-09-04T07:57	10	30	0.2	30	31	408	0.2	408	409	17.1	96.6
2025-09-04T07:58	10	31	0.3	30	31	408	0.2	408	409	17.1	96.1
2025-09-04T07:59	10	32	0.1	31	32	408	0.2	408	409	17.1	95.9
2025-09-04T08:00	10	33	0.5	32	34	408	0.2	408	409	17.1	95.8
2025-09-04T08:01	10	36	1.4	34	38	409	0.3	408	409	17.1	96.0
2025-09-04T08:02	10	40	1.1	38	41	409	0.3	409	410	17.1	96.1
2025-09-04T08:03	10	43	1.3	41	47	410	0.3	409	411	17.0	95.6
2025-09-04T08:04	10	86	25.1	47	120	414	3.1	409	418	17.0	94.9
2025-09-04T08:05	10	61	8.9	52	81	416	0.5	415	417	17.2	94.7
2025-09-04T08:06	10	61	10.6	42	83	416	0.6	415	417	17.4	95.3
2025-09-04T08:07	10	37	1.4	35	41	414	1.2	412	416	17.3	94.6
2025-09-04T08:08	10	34	0.6	34	36	412	0.4	411	412	17.3	94.8
2025-09-04T08:09	10	34	0.3	33	34	412	0.3	411	412	17.4	94.9
2025-09-04T08:10	10	34	0.4	33	35	411	0.5	409	412	17.4	94.8
2025-09-04T08:11	10	34	0.3	34	35	410	0.3	410	411	17.2	94.1
2025-09-04T08:12	10	35	0.3	35	36	410	0.3	410	411	17.3	94.5
2025-09-04T08:13	10	37	0.5	36	38	410	0.4	409	411	17.3	94.8
2025-09-04T08:14	10	39	0.5	38	39	409	0.3	409	410	17.2	94.6
2025-09-04T08:15	10	40	0.2	39	40	410	0.2	409	410	17.2	94.8
2025-09-04T08:16	10	40	0.1	40	40	410	0.4	409	411	17.1	94.5
2025-09-04T08:17	10	40	0.1	40	40	410	0.2	409	410	17.2	94.3
2025-09-04T08:18	10	40	0.1	39	40	409	0.4	408	410	17.2	94.4
2025-09-04T08:19	10	40	0.3	39	41	409	0.3	409	410	17.2	94.6
2025-09-04T08:20	10	42	0.6	40	43	410	0.3	410	411	17.3	94.8
2025-09-04T08:21	10	44	1.1	42	46	411	0.5	410	412	17.3	95.0
2025-09-04T08:22	10	46	0.7	45	47	412	0.4	411	413	17.4	95.3
2025-09-04T08:23	10	56	7.1	47	71	413	0.7	412	415	17.5	95.4
2025-09-04T08:24	10	56	7.4	50	74	415	0.5	414	416	17.5	95.2
2025-09-04T08:25	10	52	1.1	50	54	415	0.3	414	416	17.5	93.6
2025-09-04T08:26	10	52	1.2	50	54	415	0.2	414	415	17.7	93.9
2025-09-04T08:27	10	55	5.9	48	66	417	0.9	415	418	17.7	93.9
2025-09-04T08:28	10	45	1.2	43	47	417	0.3	416	418	17.7	93.9
2025-09-04T08:29	10	42	0.5	41	43	416	0.6	415	417	17.7	90.8
2025-09-04T08:30	10	42	0.4	41	42	415	0.4	415	417	17.7	92.3
2025-09-04T08:31	10	42	0.4	41	43	415	0.5	413	416	17.7	93.9
2025-09-04T08:32	10	42	0.4	41	43	414	0.2	414	415	17.7	93.9
2025-09-04T08:33	10	43	0.4	42	44	414	0.5	413	415	17.7	93.9
2025-09-04T08:34	10	44	0.1	44	44	413	0.3	412	413	17.9	89.9
2025-09-04T08:35	10	44	0.2	44	45	414	0.3	413	414	18.0	85.6
2025-09-04T08:36	10	45	0.4	44	46	414	0.3	413	415	18.1	87.3
2025-09-04T08:37	10	46	0.3	46	47	414	0.3	413	415	18.1	87.0
2025-09-04T08:38	10	47	0.3	47	48	415	0.5	414	416	18.2	87.6
2025-09-04T08:39	10	46	0.3	46	47	415	0.3	415	416	18.2	87.6
2025-09-04T08:40	10	46	0.1	46	46	415	0.4	414	416	18.2	87.8
2025-09-04T08:41	10	45	0.2	45	46	415	0.5	414	416	18.1	88.3
2025-09-04T08:42	10	45	0.1	45	45	414	0.5	413	415	18.1	88.4
2025-09-04T08:43	10	46	0.9	45	48	414	0.2	413	414	18.1	89.0
2025-09-04T08:44	10	51	2.9	48	58	414	0.2	414	415	18.1	88.1
2025-09-04T08:45	10	58	3.2	55	67	415	0.6	414	417	18.1	87.3
2025-09-04T08:46	10	100	17.6	67	120	420	2.9	416	425	18.2	88.3
2025-09-04T08:47	10	119	7.0	106	129	426	0.8	424	427	18.2	87.8
2025-09-04T08:48	10	119	11.4	102	136	427	0.9	426	429	18.3	87.2
2025-09-04T08:49	10	85	9.5	72	101	426	1.3	424	428	18.5	87.7
2025-09-04T08:50	10	74	15.8	58	98	425	1.6	423	428	18.6	88.6
2025-09-04T08:51	10	57	0.7	56	58	421	1.6	419	424	18.7	88.2
2025-09-04T08:52	10	89	20.8	57	121	421	2.2	419	425	18.5	87.1
2025-09-04T08:53	10	102	11.9	77	117	424	0.5	424	425	18.5	87.3
2025-09-04T08:54	10	88	10.2	64	104	426	1.2	424	427	18.6	88.5
2025-09-04T08:55	10	61	3.2	56	68	424	0.9	422	426	18.8	88.2
2025-09-04T08:56	10	59	5.2	53	72	421	1.0	420	423	18.7	88.2
2025-09-04T08:57	10	54	3.4	50	60	419	1.2	418	421	18.6	88.1
2025-09-04T08:58	10	75	12.6	52	96	419	0.9	417	421	18.4	87.5
2025-09-04T08:59	10	87	4.0	82	95	422	0.6	420	423	18.5	88.1
2025-09-04T09:00	10	83	1.7	81	87	423	0.4	422	424	18.5	87.7
2025-09-04T09:01	10	78	4.6	69	83	422	0.4	421	423	18.5	88.4
2025-09-04T09:02	10	70	5.0	61	78	420	0.5	420	422	18.6	87.9
2025-09-04T09:03	10	86	3.6	78	91	421	0.6	420	423	18.5	87.6
2025-09-04T09:04	10	87	6.3	73	99	422	0.3	422	423	18.6	87.7
2025-09-04T09:05	10	66	10.1	54	84	421	1.6	418	423	18.7	87.2
2025-09-04T09:06	10	59	3.5	55	66	419	0.3	419	420	18.7	87.5
2025-09-04T09:07	10	88	15.8	67	112	422	1.9	419	425	18.8	88.0
2025-09-04T09:08	10	105	6.5	96	114	426	0.9	424	428	19.0	88.2
2025-09-04T09:09	10	101	6.6	89	111	427	0.5	426	428	18.9	86.5
2025-09-04T09:10	10	113	5.0	98	117	428	1.2	426	430	19.0	86.9
2025-09-04T09:11	10	119	2.3	115	123	432	1.5	429	434	19.2	86.4
2025-09-04T09:12	10	122	4.7	107	126	433	0.5	432	434	19.2	85.6
2025-09-04T09:13	10	125	0.8	123	127	435	0.9	433	436	19.3	85.4
2025-09-04T09:14	10	126	2.2	122	128	434	0.8	433	435	19.2	84.9
2025-09-04T09:15	10	129	0.6	128	130	435	0.5	434	436	19.3	84.3
2025-09-04T09:16	10	131	0.3	130	131	435	0.8	434	437	19.3	84.8
2025-09-04T09:17	10	129	1.3	127	131	435	1.2	433	437	19.5	84.3
2025-09-04T09:18	10	131	1.4	129	133	434	0.4	434	436	19.4	83.8
2025-09-04T09:19	10	134	1.2	132	137	435	1.4	433	437	19.4	83.8
2025-09-04T09:20	10	125	15.3	99	143	433	1.3	431	435	19.3	84.1
2025-09-04T09:21	10	144	2.1	137	145	437	0.7	435	438	19.4	83.6
2025-09-04T09:22	10	147	1.0	145	150	438	1.0	436	439	19.5	83.2
2025-09-04T09:23	10	116	34.1	62	152	437	2.0	433	439	19.8	83.5
2025-09-04T09:24	10	78	11.2	61	100	431	1.5	430	435	19.7	81.8
2025-09-04T09:25	10	71	13.3	49	89	430	1.2	427	431	19.6	82.9
2025-09-04T09:26	10	53	7.6	47	68	426	1.3	424	428	19.6	83.4
2025-09-04T09:27	10	60	3.8	55	69	424	0.8	423	426	19.4	81.8
2025-09-04T09:28	10	69	11.5	58	92	424	1.0	423	427	19.3	82.5
2025-09-04T09:29	10	99	20.9	75	143	428	2.5	425	433	19.3	82.8
2025-09-04T09:30	10	112	11.8	87	137	432	1.0	431	434	19.5	83.2
2025-09-04T09:31	10	138	13.4	110	153	436	2.1	433	441	19.5	82.3
2025-09-04T09:32	10	136	13.7	108	151	440	1.3	437	441	19.9	82.8
2025-09-04T09:33	10	101	22.4	66	129	437	1.9	434	440	19.8	81.1
2025-09-04T09:34	10	105	11.5	82	124	436	1.0	435	438	19.9	81.3
2025-09-04T09:35	10	96	13.6	77	124	435	0.8	434	437	19.7	80.8
2025-09-04T09:36	10	136	17.0	108	154	439	2.3	436	443	19.8	81.3
2025-09-04T09:37	10	151	1.9	146	153	443	0.4	442	444	20.0	79.4
2025-09-04T09:38	10	151	0.3	150	151	444	0.6	443	445	20.0	76.4
2025-09-04T09:39	10	122	44.7	39	152	442	3.7	433	445	19.9	76.3
2025-09-04T09:40	10	95	55.7	39	157	434	3.7	429	441	20.0	77.7
2025-09-04T09:41	10	157	2.9	152	162	442	0.9	439	443	19.9	76.9
2025-09-04T09:42	10	129	28.9	66	162	443	1.7	439	444	19.9	78.8
2025-09-04T09:43	10	154	20.8	98	170	445	2.3	439	447	20.0	77.4
2025-09-04T09:44	10	126	43.7	63	178	442	2.5	437	446	19.8	76.6
2025-09-04T09:45	10	63	3.5	60	74	435	2.4	431	440	19.8	76.8
2025-09-04T09:46	10	59	0.5	58	60	431	1.3	428	433	19.9	77.1
2025-09-04T09:47	10	69	13.7	59	114	429	0.6	428	431	19.8	76.1
2025-09-04T09:48	10	61	14.3	52	106	430	1.3	428	432	19.8	77.2
2025-09-04T09:49	10	51	0.6	50	52	428	0.5	427	429	19.9	77.0
2025-09-04T09:50	10	49	0.3	49	50	428	0.2	427	428	19.9	77.4
2025-09-04T09:51	10	49	0.2	49	50	427	0.4	426	428	19.9	76.9
2025-09-04T09:52	10	55	10.8	50	109	426	0.4	425	426	19.9	76.5
2025-09-04T09:53	10	112	45.0	55	166	432	2.8	425	436	19.8	74.9
2025-09-04T09:54	10	56	2.8	54	65	429	0.6	429	431	19.8	74.8
2025-09-04T09:55	10	62	13.8	52	105	429	0.7	428	431	19.9	76.8
2025-09-04T09:56	10	52	0.5	52	54	426	1.0	425	429	19.9	76.7
2025-09-04T09:57	10	84	44.3	54	171	427	3.2	425	436	19.9	76.6
2025-09-04T09:58	10	99	37.8	63	176	431	2.7	428	437	19.9	76.4
2025-09-04T09:59	10	63	6.6	58	99	429	3.0	425	436	19.9	76.0
2025-09-04T10:00	10	57	0.5	56	58	426	0.5	424	426	19.8	76.8
2025-09-04T10:01	10	57	0.5	57	58	424	0.3	423	425	19.8	77.7
2025-09-04T10:02	10	61	1.7	58	64	425	0.5	424	426	19.7	77.5
2025-09-04T10:03	10	92	22.9	64	132	429	3.1	425	434	19.8	78.4
2025-09-04T10:04	10	79	13.1	71	134	430	1.8	428	433	19.7	77.6
2025-09-04T10:05	10	76	10.3	66	101	430	0.8	428	431	19.8	78.5
2025-09-04T10:06	10	66	0.3	65	66	428	0.5	427	429	19.8	77.9
2025-09-04T10:07	10	67	0.5	66	68	427	0.3	426	428	19.8	79.3
2025-09-04T10:08	10	101	30.2	68	171	430	3.2	426	435	19.7	79.8
2025-09-04T10:09	10	76	7.0	71	106	431	1.2	430	435	19.7	79.6
2025-09-04T10:10	10	71	1.7	69	75	431	0.3	431	432	20.0	80.4
2025-09-04T10:11	10	68	0.2	68	69	430	0.4	429	431	20.2	80.2
2025-09-04T10:12	10	70	1.7	68	73	429	0.4	429	430	19.9	79.9
2025-09-04T10:13	10	91	31.6	68	168	433	2.3	429	437	20.0	80.6
2025-09-04T10:14	10	87	17.1	67	131	433	1.6	430	435	20.2	80.1
2025-09-04T10:15	10	63	2.1	62	71	431	1.7	429	434	20.0	80.1
2025-09-04T10:16	10	68	14.7	56	114	430	1.0	428	432	19.8	80.4
2025-09-04T10:17	10	54	1.3	52	56	427	1.7	425	430	19.8	81.1
2025-09-04T10:18	10	52	0.2	52	53	425	0.2	425	426	19.8	82.0
2025-09-04T10:19	10	58	13.3	49	99	426	1.0	425	428	19.9	81.4
2025-09-04T10:20	10	49	0.3	48	50	425	0.5	424	426	19.9	81.1
2025-09-04T10:21	10	49	0.3	48	50	425	0.4	424	426	19.8	80.9
2025-09-04T10:22	10	119	50.8	50	178	430	5.5	424	440	19.8	80.8
2025-09-04T10:23	10	77	26.7	58	169	432	3.9	427	440	19.6	80.6
2025-09-04T10:24	10	65	13.9	57	111	428	1.3	426	430	19.8	80.9
2025-09-04T10:25	10	66	9.1	58	99	426	0.8	425	428	19.6	81.3
2025-09-04T10:26	10	115	25.6	74	152	433	2.3	426	437	19.8	81.2
2025-09-04T10:27	10	94	13.5	77	125	433	0.8	432	435	19.9	80.4
2025-09-04T10:28	10	114	12.8	93	145	435	0.9	434	437	20.0	81.2
2025-09-04T10:29	10	153	12.4	112	170	440	1.7	435	441	19.9	80.5
2025-09-04T10:30	10	124	17.1	97	163	438	1.2	436	440	19.7	80.1
2025-09-04T10:31	10	156	13.5	114	173	444	3.0	438	448	20.0	81.1
2025-09-04T10:32	10	120	16.7	94	148	443	3.2	439	448	20.2	79.4
2025-09-04T10:33	10	93	13.8	72	131	438	2.2	435	442	20.2	79.6
2025-09-04T10:34	10	107	27.8	80	163	440	2.2	436	443	20.2	79.3
2025-09-04T10:35	10	88	9.1	76	105	435	2.4	432	440	19.9	78.9
2025-09-04T10:36	10	60	5.0	57	84	430	2.0	428	435	19.7	78.5
2025-09-04T10:37	10	58	3.1	56	69	427	0.9	426	429	19.8	77.4
2025-09-04T10:38	10	56	2.2	54	67	426	0.6	425	427	19.8	76.6
2025-09-04T10:39	10	71	13.9	56	102	427	1.5	425	430	19.8	77.0
2025-09-04T10:40	10	119	22.5	75	153	433	3.5	428	439	19.8	77.4
2025-09-04T10:41	10	127	29.8	75	177	440	1.3	437	443	20.0	77.2
2025-09-04T10:42	10	180	4.2	165	184	446	2.1	441	449	20.2	72.9
2025-09-04T10:43	10	177	6.1	153	182	449	1.1	447	450	20.2	71.8
2025-09-04T10:44	10	145	33.3	89	180	445	2.6	441	449	20.3	70.5
2025-09-04T10:45	10	170	19.6	119	183	447	1.0	445	448	20.3	69.6
2025-09-04T10:46	10	107	28.6	64	150	443	4.1	435	447	20.4	69.6
2025-09-04T10:47	10	111	39.0	64	184	440	3.7	434	445	20.1	69.4
2025-09-04T10:48	10	99	50.8	58	184	439	4.1	432	446	20.3	72.4
2025-09-04T10:49	10	85	25.8	59	140	434	2.5	431	439	20.1	71.6
2025-09-04T10:50	10	152	23.1	100	186	445	4.6	437	451	20.3	72.3
2025-09-04T10:51	10	161	27.7	90	191	446	1.5	443	449	20.2	72.2
2025-09-04T10:52	10	172	18.6	133	188	450	1.5	447	452	20.3	72.6
2025-09-04T10:53	10	87	26.7	63	161	444	4.2	438	451	20.3	72.6
2025-09-04T10:54	10	59	2.5	57	66	437	2.3	433	440	20.5	72.2
2025-09-04T10:55	10	54	1.1	53	57	432	1.4	430	434	20.4	70.4
2025-09-04T10:56	10	88	41.6	54	173	432	3.0	428	437	20.2	66.7
2025-09-04T10:57	10	60	5.9	54	73	430	1.4	427	432	20.1	70.1
2025-09-04T10:58	10	78	30.8	54	152	429	2.0	427	435	20.2	70.8
2025-09-04T10:59	10	143	35.1	83	183	438	4.9	431	446	20.1	70.8
2025-09-04T11:00	10	179	1.0	178	182	449	2.7	444	453	20.3	71.4
2025-09-04T11:01	10	145	50.9	54	182	451	3.4	443	455	20.5	70.1
2025-09-04T11:02	10	54	1.2	53	58	438	3.2	434	445	20.6	70.3
2025-09-04T11:03	10	113	44.1	58	187	441	4.3	433	446	20.6	70.1
2025-09-04T11:04	10	133	34.2	83	198	444	2.4	440	448	20.7	69.5
2025-09-04T11:05	10	148	21.9	102	195	448	3.3	442	451	20.5	68.4
2025-09-04T11:06	10	150	28.8	100	192	450	1.5	447	453	20.7	69.7
2025-09-04T11:07	10	95	48.7	63	193	444	6.2	436	453	20.5	68.2
2025-09-04T11:08	10	64	2.3	62	70	435	1.3	433	438	20.6	68.4
2025-09-04T11:09	10	116	48.3	67	194	436	4.0	432	445	20.5	68.3
2025-09-04T11:10	10	122	40.1	68	191	443	2.2	438	447	20.6	69.5
2025-09-04T11:11	10	100	38.4	68	189	438	2.8	436	444	20.5	68.9
2025-09-04T11:12	10	147	33.8	85	188	445	3.3	439	450	20.5	71.7
2025-09-04T11:13	10	100	26.2	65	160	444	3.5	440	451	20.5	73.3
2025-09-04T11:14	10	94	33.6	61	163	441	2.6	437	445	20.5	73.0
2025-09-04T11:15	10	106	37.2	52	177	444	1.9	441	448	20.6	73.5
2025-09-04T11:16	10	129	54.7	51	180	444	5.4	437	452	20.8	74.1
2025-09-04T11:17	10	111	40.4	67	179	447	4.1	441	453	20.9	74.8
2025-09-04T11:18	10	126	40.5	75	177	446	2.5	442	451	21.1	74.8
2025-09-04T11:19	10	175	0.8	174	176	455	2.5	449	458	21.0	73.3
2025-09-04T11:20	10	119	49.9	56	179	451	7.4	441	460	21.1	71.5
2025-09-04T11:21	10	169	19.0	112	178	451	4.8	442	457	20.8	70.0
2025-09-04T11:22	10	167	17.5	126	181	456	1.2	454	459	21.1	70.9
2025-09-04T11:23	10	131	41.3	59	184	452	3.0	445	457	20.7	68.9
2025-09-04T11:24	10	59	0.9	58	61	441	3.3	437	448	20.8	70.6
2025-09-04T11:25	10	69	17.2	59	121	437	1.2	435	439	20.8	68.2
2025-09-04T11:26	10	77	5.7	67	90	437	0.7	436	439	20.7	67.3
2025-09-04T11:27	10	74	20.0	63	141	436	1.2	434	439	20.7	66.8
2025-09-04T11:28	10	73	7.5	66	92	437	0.8	436	439	20.7	66.9
2025-09-04T11:29	10	67	1.4	66	70	436	0.5	435	437	20.8	67.0
2025-09-04T11:30	10	73	6.3	68	90	437	0.4	436	438	20.9	67.9
2025-09-04T11:31	10	72	5.3	70	90	436	0.6	435	437	20.7	65.4
2025-09-04T11:32	10	71	2.8	69	82	437	0.4	436	438	20.7	66.5
2025-09-04T11:33	10	70	2.9	69	83	438	0.2	438	439	20.8	67.6
2025-09-04T11:34	10	70	1.8	68	75	438	0.3	437	439	20.9	67.9
2025-09-04T11:35	10	70	1.4	68	74	439	0.5	438	440	21.0	68.4
2025-09-04T11:36	10	68	0.1	68	69	438	0.9	436	439	21.0	67.0
2025-09-04T11:37	10	68	0.1	68	69	436	0.2	435	436	20.9	65.3
2025-09-04T11:38	10	68	0.3	67	69	436	0.2	436	437	20.9	65.8
2025-09-04T11:39	10	69	2.1	67	79	436	0.4	435	437	20.9	66.6
2025-09-04T11:40	10	70	2.5	69	80	439	0.5	438	440	21.0	67.3
2025-09-04T11:41	10	71	1.1	69	73	438	0.2	438	439	21.0	67.6
2025-09-04T11:42	10	77	2.8	73	82	440	0.9	438	441	21.0	68.9
2025-09-04T11:43	10	85	1.4	82	87	441	0.3	440	442	21.0	67.8
2025-09-04T11:44	10	88	0.5	87	89	441	0.4	440	442	20.9	67.1
2025-09-04T11:45	10	89	0.6	88	90	441	0.4	440	442	20.9	67.2
2025-09-04T11:46	10	102	8.4	90	118	443	1.6	441	447	21.0	67.0
2025-09-04T11:47	10	133	27.7	97	190	449	3.1	444	453	21.1	67.9
2025-09-04T11:48	10	94	1.5	92	97	447	1.1	446	449	21.3	67.9
2025-09-04T11:49	10	109	11.8	95	134	446	0.4	445	447	21.3	68.2
2025-09-04T11:50	10	143	18.2	117	179	449	1.6	446	452	21.1	67.6
2025-09-04T11:51	10	110	31.5	75	155	449	3.8	442	454	21.1	67.6
2025-09-04T11:52	10	70	2.2	67	75	442	0.9	441	444	21.2	66.9
2025-09-04T11:53	10	67	0.2	67	68	440	1.2	438	443	21.3	64.8
2025-09-04T11:54	10	71	1.8	68	75	439	0.3	438	439	21.1	63.4
2025-09-04T11:55	10	77	1.0	75	79	440	0.8	439	442	21.2	63.9
2025-09-04T11:56	10	77	1.3	75	79	442	0.4	441	443	21.4	64.7
2025-09-04T11:57	10	72	1.2	71	75	442	0.8	440	443	21.5	65.6
2025-09-04T11:58	10	71	0.7	70	73	440	0.3	440	441	21.3	64.2
2025-09-04T11:59	10	69	0.3	68	70	440	0.4	440	441	21.3	64.6
2025-09-04T12:00	10	70	0.6	69	71	440	0.3	440	441	21.3	65.1
2025-09-04T12:01	10	72	0.4	71	72	440	0.3	440	440	21.4	64.4
2025-09-04T12:02	10	71	0.9	69	72	441	0.2	440	441	21.6	64.8
2025-09-04T12:03	10	68	0.8	66	69	441	0.5	440	442	21.6	66.4
2025-09-04T12:04	10	65	0.5	65	66	439	0.8	438	441	21.6	61.7
2025-09-04T12:05	10	65	0.2	65	66	439	0.3	438	439	21.5	60.8
2025-09-04T12:06	10	69	2.6	66	74	439	0.9	438	441	21.5	60.4
2025-09-04T12:07	10	77	2.0	74	80	441	0.6	440	442	21.6	60.6
2025-09-04T12:08	10	82	1.1	80	84	442	0.6	441	443	21.6	61.0
2025-09-04T12:09	10	81	1.6	79	84	443	0.4	443	444	21.8	62.1
2025-09-04T12:10	10	78	0.4	78	79	443	0.2	442	443	21.8	61.7
2025-09-04T12:11	10	77	0.9	75	78	442	0.7	441	444	21.9	63.2
2025-09-04T12:12	10	75	1.0	73	76	441	0.4	440	442	21.8	61.5
2025-09-04T12:13	10	72	1.1	71	76	441	0.2	441	442	21.8	62.5
2025-09-04T12:14	10	84	4.2	76	89	442	1.0	441	445	21.7	62.5
2025-09-04T12:15	10	89	1.1	87	91	444	0.3	443	445	21.7	62.1
2025-09-04T12:16	10	98	9.0	90	124	444	0.8	443	446	21.6	61.7
2025-09-04T12:17	10	153	14.6	125	180	452	3.4	446	458	21.7	61.6
2025-09-04T12:18	10	177	13.4	149	194	460	1.5	456	462	21.8	61.2
2025-09-04T12:19	10	114	17.4	100	149	457	2.7	453	461	22.1	61.8
2025-09-04T12:20	10	102	4.0	96	109	453	0.9	451	455	22.4	63.6
2025-09-04T12:21	10	94	1.5	92	97	451	1.1	449	453	22.3	63.0
2025-09-04T12:22	10	83	4.3	76	92	449	1.1	447	450	22.3	64.1
2025-09-04T12:23	10	73	3.6	67	79	446	1.2	444	448	22.2	63.7
2025-09-04T12:24	10	64	2.0	61	67	443	1.0	442	445	22.1	62.9
2025-09-04T12:25	10	59	1.1	57	61	442	0.5	440	443	22.1	63.3
2025-09-04T12:26	10	55	1.1	53	57	440	0.9	439	441	21.9	60.0
2025-09-04T12:27	10	51	1.5	48	53	438	0.7	437	439	21.8	59.8
2025-09-04T12:28	10	46	1.3	44	48	437	0.6	436	438	21.8	59.9
2025-09-04T12:29	10	42	0.8	41	44	436	0.3	435	436	21.8	60.6
2025-09-04T12:30	10	41	0.3	40	41	436	0.3	435	436	21.9	60.6
2025-09-04T12:31	10	41	0.2	40	41	435	0.3	434	435	21.9	60.6
2025-09-04T12:32	10	40	0.5	39	41	435	0.2	434	435	21.9	60.7
2025-09-04T12:33	10	38	0.6	37	40	434	0.3	434	435	21.9	61.2
2025-09-04T12:34	10	37	0.4	36	37	434	0.2	434	435	21.9	63.8
2025-09-04T12:35	10	35	0.4	35	36	434	0.4	433	435	21.9	64.0
2025-09-04T12:36	10	34	0.5	33	35	433	0.4	432	434	21.9	61.1
2025-09-04T12:37	10	32	0.6	31	33	433	0.3	433	434	22.0	62.0
2025-09-04T12:38	10	30	0.4	29	31	432	0.3	432	433	21.9	60.4
2025-09-04T12:39	10	29	0.4	28	30	432	0.3	431	432	21.9	60.6
2025-09-04T12:40	10	28	0.4	27	29	431	0.3	430	432	21.8	61.2
2025-09-04T12:41	10	27	0.2	26	27	430	0.3	430	431	21.8	61.7
2025-09-04T12:42	10	26	0.1	26	26	429	0.3	429	430	21.7	61.4
2025-09-04T12:43	10	27	0.4	26	28	429	0.3	428	430	21.7	61.4
2025-09-04T12:44	10	30	1.6	28	32	429	0.3	429	430	21.7	61.7
2025-09-04T12:45	10	32	0.2	31	33	430	0.3	429	431	21.7	62.0
2025-09-04T12:46	10	33	0.3	32	33	431	0.4	430	432	21.8	62.6
2025-09-04T12:47	10	33	0.2	33	33	431	0.3	430	431	21.7	62.2
2025-09-04T12:48	10	32	0.6	31	33	430	0.2	430	431	21.7	61.9
2025-09-04T12:49	10	29	0.8	28	31	431	0.3	430	431	21.7	62.7
2025-09-04T12:50	10	27	0.7	25	28	430	0.2	429	430	21.7	62.6
2025-09-04T12:51	10	25	0.5	24	25	429	0.4	428	430	21.7	62.4
2025-09-04T12:52	10	23	0.3	23	24	428	0.2	427	429	21.7	62.8
2025-09-04T12:53	10	23	0.1	23	23	428	0.2	427	428	21.7	63.9
2025-09-04T12:54	10	23	0.1	22	23	427	0.2	427	428	21.6	63.4
2025-09-04T12:55	10	22	0.2	22	22	427	0.2	427	427	21.6	64.1
2025-09-04T12:56	10	21	0.2	21	22	427	0.2	426	427	21.6	65.1
2025-09-04T12:57	10	20	0.3	20	21	427	0.3	426	427	21.6	64.3
2025-09-04T12:58	10	19	0.5	18	20	426	0.2	425	426	21.6	64.9
2025-09-04T12:59	10	17	0.5	16	18	426	0.2	426	427	21.6	64.7
2025-09-04T13:00	10	15	0.5	15	16	426	0.2	425	426	21.6	63.3
2025-09-04T13:01	10	14	0.4	13	15	425	0.2	425	426	21.6	63.8
2025-09-04T13:02	10	12	0.4	12	13	425	0.3	424	425	21.6	64.3
2025-09-04T13:03	10	11	0.5	10	12	424	0.2	423	424	21.6	65.2
2025-09-04T13:04	10	10	0.3	9	10	423	0.7	422	424	21.6	66.1
2025-09-04T13:05	10	9	0.1	9	9	422	0.3	421	422	21.5	65.6
2025-09-04T13:06	10	9	0.1	9	9	421	0.2	420	422	21.5	67.1
2025-09-04T13:07	10	9	0.1	9	9	421	0.2	420	421	21.5	65.3
2025-09-04T13:08	10	9	0.1	9	10	421	0.3	420	421	21.4	67.0
2025-09-04T13:09	10	9	0.1	9	10	420	0.6	419	421	21.4	67.4
2025-09-04T13:10	10	9	0.1	9	9	418	0.4	417	418	21.3	66.2
2025-09-04T13:11	10	9	0.1	9	9	416	0.2	416	417	21.1	68.7
2025-09-04T13:12	10	8	0.2	8	9	416	0.2	415	416	21.0	70.2
2025-09-04T13:13	10	8	0.2	7	8	416	0.3	415	417	21.0	70.7
2025-09-04T13:14	10	8	0.1	7	8	416	0.3	415	416	21.0	70.8
2025-09-04T13:15	10	9	0.5	8	10	416	0.5	415	417	21.0	71.5
2025-09-04T13:16	10	11	1.0	10	13	418	0.7	417	419	20.9	71.4
2025-09-04T13:17	10	15	1.2	13	17	419	1.0	418	421	21.0	71.3
2025-09-04T13:18	10	19	1.5	17	22	421	0.9	420	423	21.0	70.6
2025-09-04T13:19	10	24	1.5	22	27	423	0.8	422	425	21.0	70.0
2025-09-04T13:20	10	30	1.7	27	32	425	0.7	424	426	21.1	71.2
2025-09-04T13:21	10	33	0.2	33	33	426	0.4	425	427	21.1	71.7
2025-09-04T13:22	10	33	0.4	32	33	427	0.3	426	427	21.1	73.3
2025-09-04T13:23	10	30	1.3	27	32	426	0.4	425	427	21.1	74.4
2025-09-04T13:24	10	25	1.6	22	27	425	0.7	424	426	21.1	73.7
2025-09-04T13:25	10	19	1.6	16	22	423	0.8	421	424	21.1	72.6
2025-09-04T13:26	10	14	1.3	12	16	420	1.8	415	422	21.1	72.8
2025-09-04T13:27	10	10	1.0	8	12	411	2.6	407	416	19.7	72.2
2025-09-04T13:28	10	8	0.7	6	9	407	0.9	406	409	18.9	73.1
2025-09-04T13:29	10	6	0.4	6	7	407	0.3	406	407	18.8	75.5
2025-09-04T13:30	10	5	0.2	5	6	407	0.3	406	408	18.9	75.6
2025-09-04T13:31	10	6	0.2	5	6	407	0.2	406	407	18.8	75.9
2025-09-04T13:32	10	6	0.1	6	6	406	0.3	405	407	18.8	75.3
2025-09-04T13:33	10	6	0.2	6	7	406	0.4	405	407	18.8	75.0
2025-09-04T13:34	10	7	0.2	7	7	406	0.2	405	406	18.9	70.9
2025-09-04T13:35	10	7	0.1	7	8	405	0.4	405	406	18.9	71.1
2025-09-04T13:36	10	7	0.2	7	8	404	0.3	404	405	18.8	69.2
2025-09-04T13:37	10	6	0.4	5	7	402	0.6	401	403	18.5	71.3
2025-09-04T13:38	10	5	0.4	4	6	401	0.2	401	402	18.4	73.0
2025-09-04T13:39	10	4	0.4	3	4	401	0.3	400	402	18.3	74.6
2025-09-04T13:40	10	3	0.3	2	3	401	0.2	400	401	18.2	74.8
2025-09-04T13:41	10	2	0.2	1	2	400	0.3	399	401	18.1	75.8
2025-09-04T13:42	10	1	0.1	1	2	399	0.3	399	400	17.9	76.1
2025-09-04T13:43	10	2	0.2	1	2	398	0.4	398	399	17.7	78.1
2025-09-04T13:44	10	2	0.4	2	3	398	0.4	398	399	17.6	78.8
2025-09-04T13:45	10	4	0.5	3	5	399	0.6	398	400	17.5	79.9
2025-09-04T13:46	10	5	0.5	5	6	399	0.6	398	401	17.5	80.8
2025-09-04T13:47	10	6	0.1	6	7	400	0.4	399	401	17.4	81.0
2025-09-04T13:48	10	6	0.1	6	7	400	0.3	399	401	17.4	81.4
2025-09-04T13:49	10	6	0.2	5	6	400	0.2	400	401	17.3	81.2
2025-09-04T13:50	10	5	0.4	4	5	399	0.3	398	400	17.1	82.6
2025-09-04T13:51	10	3	0.5	3	4	399	0.3	398	399	17.0	84.7
2025-09-04T13:52	10	2	0.3	2	3	398	0.2	398	399	16.9	85.8
2025-09-04T13:53	10	2	0.1	2	2	398	0.2	398	398	16.8	86.5
2025-09-04T13:54	10	2	0.1	1	2	398	0.2	397	398	16.8	86.1
2025-09-04T13:55	10	2	0.1	2	2	398	0.3	397	398	16.8	86.3
2025-09-04T13:56	10	2	0.2	2	3	398	0.3	397	398	16.8	87.0
2025-09-04T13:57	10	3	0.3	2	4	398	0.2	397	398	16.7	87.4
2025-09-04T13:58	10	4	0.3	3	4	397	0.3	397	398	16.7	86.6
2025-09-04T13:59	10	5	0.6	4	6	398	0.5	397	399	16.7	86.3
2025-09-04T14:00	10	7	0.8	6	9	399	0.4	398	400	16.7	86.6
2025-09-04T14:01	10	10	0.9	9	12	399	0.3	399	400	16.8	86.9
2025-09-04T14:02	10	13	0.8	12	15	399	0.3	399	400	16.7	87.3
2025-09-04T14:03	10	16	0.6	15	17	400	0.5	399	401	16.7	87.6
2025-09-04T14:04	10	17	0.2	17	18	402	0.6	400	403	16.7	88.6
2025-09-04T14:05	10	17	0.4	16	17	403	0.4	402	403	16.7	88.1
2025-09-04T14:06	10	15	0.8	13	16	404	0.4	403	404	16.8	89.8
2025-09-04T14:07	10	12	0.7	11	13	404	0.3	403	404	16.8	90.7
2025-09-04T14:08	10	10	0.6	9	11	403	0.3	402	404	16.8	89.1
2025-09-04T14:09	10	8	0.5	7	9	402	0.5	401	403	16.8	89.5
2025-09-04T14:10	10	6	0.7	5	7	400	0.5	399	401	16.7	88.9
2025-09-04T14:11	10	4	0.4	4	5	399	0.3	399	400	16.7	90.0
2025-09-04T14:12	10	3	0.2	3	4	399	0.2	399	400	16.8	89.6
2025-09-04T14:13	10	3	0.2	2	3	399	0.5	399	400	16.8	89.4
2025-09-04T14:14	10	2	0.1	2	2	400	0.2	400	401	17.3	83.5
2025-09-04T14:15	10	2	0.1	2	2	400	0.2	399	401	17.6	81.7
2025-09-04T14:16	10	2	0.1	1	2	400	0.4	399	401	17.7	81.6
2025-09-04T14:17	10	2	0.1	2	2	400	0.3	399	400	17.8	81.9
2025-09-04T14:18	10	2	0.1	2	2	399	0.3	399	400	17.5	84.4
2025-09-04T14:19	10	2	0.1	2	2	399	0.3	399	400	17.4	85.8
2025-09-04T14:20	10	2	0.1	2	2	399	0.2	399	399	17.3	86.4
2025-09-04T14:21	10	2	0.1	2	2	399	0.2	399	400	17.3	86.7
2025-09-04T14:22	10	2	0.1	2	2	399	0.4	398	400	17.3	86.1
2025-09-04T14:23	10	2	0.1	2	2	399	0.3	398	399	17.3	86.9
2025-09-04T14:24	10	2	0.2	2	3	399	0.3	398	399	17.3	86.8
2025-09-04T14:25	10	3	0.1	2	3	399	0.2	398	399	17.2	85.8
2025-09-04T14:26	10	3	0.1	3	3	398	0.2	398	399	17.2	83.7
2025-09-04T14:27	10	3	0.1	3	3	398	0.2	397	398	17.2	85.3
2025-09-04T14:28	10	3	0.1	3	3	397	0.4	397	398	17.0	86.3
2025-09-04T14:29	10	3	0.1	3	3	396	0.8	395	397	16.8	85.9
2025-09-04T14:30	10	3	0.1	3	3	395	0.4	394	395	16.7	85.3
2025-09-04T14:31	10	3	0.2	2	3	394	0.3	393	394	16.6	86.4
2025-09-04T14:32	10	2	0.2	2	3	394	0.3	393	395	16.5	88.1
2025-09-04T14:33	10	2	0.2	2	3	394	0.3	393	394	16.4	87.7
2025-09-04T14:34	10	2	0.1	1	2	394	0.2	394	395	16.4	88.5
2025-09-04T14:35	10	2	0.1	2	2	394	0.2	393	394	16.3	88.7
2025-09-04T14:36	10	2	0.1	2	2	394	0.3	393	394	16.3	88.9
2025-09-04T14:37	10	2	0.1	2	2	394	0.3	393	395	16.3	89.4
2025-09-04T14:38	10	2	0.1	2	3	394	0.3	393	395	16.2	89.5
2025-09-04T14:39	10	2	0.1	2	3	394	0.2	394	395	16.2	89.4
2025-09-04T14:40	10	2	0.1	2	2	394	0.2	393	395	16.2	88.8
2025-09-04T14:41	10	2	0.1	2	3	394	0.2	394	395	16.2	89.3
2025-09-04T14:42	10	3	0.1	2	3	394	0.2	394	395	16.2	87.6
2025-09-04T14:43	10	3	0.1	3	3	395	0.3	394	395	16.2	89.3
2025-09-04T14:44	10	3	0.1	3	3	394	0.2	394	395	16.1	89.2
2025-09-04T14:45	10	3	0.1	3	3	394	0.3	394	395	16.2	87.0
2025-09-04T14:46	10	3	0.1	3	3	394	0.2	394	394	16.1	89.1
2025-09-04T14:47	10	3	0.1	3	3	394	0.3	393	395	16.1	89.2
2025-09-04T14:48	10	3	0.1	3	3	394	0.2	393	395	16.1	88.0
2025-09-04T14:49	10	3	0.1	3	3	394	0.4	393	395	16.1	88.9
2025-09-04T14:50	10	3	0.1	3	3	394	0.2	394	395	16.1	88.9
2025-09-04T14:51	10	3	0.1	3	3	395	0.2	394	395	16.1	86.9
2025-09-04T14:52	10	3	0.1	3	4	395	0.3	395	396	16.2	87.0
2025-09-04T14:53	10	4	0.1	3	4	395	0.2	395	396	16.2	87.7
2025-09-04T14:54	10	4	0.1	4	4	395	0.2	395	396	16.2	88.0
2025-09-04T14:55	10	4	0.1	4	4	396	0.2	395	396	16.2	88.7
2025-09-04T14:56	10	4	0.1	4	4	396	0.3	395	396	16.2	89.5
2025-09-04T14:57	10	4	0.1	4	4	395	0.3	394	396	16.2	89.0
2025-09-04T14:58	10	4	0.1	4	4	394	0.3	394	395	16.1	89.7
2025-09-04T14:59	10	4	0.1	4	4	394	0.4	393	394	16.1	90.1
2025-09-04T15:00	10	4	0.1	3	4	393	0.3	392	393	16.0	89.8
2025-09-04T15:01	10	3	0.2	3	4	392	0.3	392	393	16.0	89.9
2025-09-04T15:02	10	3	0.1	3	3	392	0.2	392	393	16.0	89.6
2025-09-04T15:03	10	3	0.1	3	3	392	0.2	392	393	15.9	90.2
2025-09-04T15:04	10	3	0.1	2	3	393	0.2	392	393	15.9	90.0
2025-09-04T15:05	10	3	0.1	2	3	393	0.2	393	394	15.9	90.0
2025-09-04T15:06	10	2	0.1	2	3	393	0.3	393	394	15.9	90.5
2025-09-04T15:07	10	2	0.1	2	3	393	0.2	393	394	15.9	91.0
2025-09-04T15:08	10	2	0.1	2	3	394	0.3	393	394	15.9	91.0
2025-09-04T15:09	10	2	0.1	2	3	394	0.2	393	394	15.9	91.1
2025-09-04T15:10	10	3	0.1	2	3	394	0.2	393	395	15.9	91.4
2025-09-04T15:11	10	3	0.1	3	3	393	0.5	392	394	15.9	90.7
2025-09-04T15:12	10	3	0.2	3	3	392	0.3	392	393	15.9	91.1
2025-09-04T15:13	10	4	0.1	3	4	393	0.2	392	393	15.9	90.7
2025-09-04T15:14	10	4	0.1	4	4	393	0.2	392	393	15.9	90.5
2025-09-04T15:15	10	4	0.1	4	4	393	0.2	392	393	16.0	89.8
2025-09-04T15:16	10	4	0.1	4	4	393	0.2	393	393	16.0	89.1
2025-09-04T15:17	10	4	0.1	4	4	393	0.2	393	394	16.0	89.8
2025-09-04T15:18	10	4	0.1	4	4	393	0.2	393	394	16.0	90.5
2025-09-04T15:19	10	4	0.1	4	4	393	0.2	393	394	15.9	91.8
2025-09-04T15:20	10	4	0.1	4	5	393	0.2	393	394	15.9	91.3
2025-09-04T15:21	10	5	0.1	5	5	393	0.2	393	394	15.9	90.8
2025-09-04T15:22	10	5	0.1	5	5	393	0.2	393	394	16.0	90.1
2025-09-04T15:23	10	5	0.1	5	5	393	0.3	393	394	15.9	91.4
2025-09-04T15:24	10	5	0.1	5	5	394	0.2	393	394	15.9	91.6
2025-09-04T15:25	10	5	0.1	5	5	394	0.3	393	394	15.9	91.8
2025-09-04T15:26	10	5	0.1	4	5	394	0.2	394	395	16.0	90.9
2025-09-04T15:27	10	4	0.1	4	5	394	0.2	393	394	16.0	91.1
2025-09-04T15:28	10	4	0.1	4	4	393	0.2	393	394	15.9	92.3
2025-09-04T15:29	10	4	0.1	3	4	393	0.2	393	394	15.9	92.6
2025-09-04T15:30	10	3	0.1	3	3	393	0.2	393	394	15.9	93.2
2025-09-04T15:31	10	3	0.1	3	3	394	0.3	393	394	15.8	93.3
2025-09-04T15:32	10	3	0.1	3	3	394	0.2	394	394	15.9	91.8
2025-09-04T15:33	10	3	0.1	3	3	394	0.2	393	395	16.0	90.4
2025-09-04T15:34	10	3	0.1	3	3	394	0.3	394	395	16.2	89.2
2025-09-04T15:35	10	3	0.2	2	3	394	0.3	393	395	16.2	89.0
2025-09-04T15:36	10	2	0.1	2	3	394	0.2	393	394	16.2	89.3
2025-09-04T15:37	10	2	0.1	2	3	394	0.2	393	394	16.2	88.4
2025-09-04T15:38	10	2	0.2	2	3	393	0.3	393	394	16.2	88.5
2025-09-04T15:39	10	2	0.2	2	3	393	0.3	393	394	16.2	88.8
2025-09-04T15:40	10	2	0.2	2	3	393	0.3	393	394	16.2	89.4
2025-09-04T15:41	10	2	0.2	2	2	393	0.2	393	394	16.1	90.1
2025-09-04T15:42	10	2	0.1	1	2	393	0.2	393	394	16.1	91.1
2025-09-04T15:43	10	2	0.2	1	2	393	0.3	392	393	16.1	90.9
2025-09-04T15:44	10	1	0.1	1	2	393	0.2	392	393	16.1	91.6
2025-09-04T15:45	10	1	0.2	1	2	393	0.3	392	394	16.0	91.6
2025-09-04T15:46	10	1	0.1	1	2	393	0.3	392	394	16.1	91.4
2025-09-04T15:47	10	1	0.2	1	2	393	0.3	392	393	16.1	91.1
2025-09-04T15:48	10	1	0.1	1	2	392	0.3	391	393	16.1	91.1
2025-09-04T15:49	10	1	0.2	1	2	392	0.2	392	393	16.1	91.8
2025-09-04T15:50	10	1	0.2	1	1	392	0.2	392	393	16.0	92.1
2025-09-04T15:51	10	1	0.1	1	1	392	0.3	392	393	16.0	92.4
2025-09-04T15:52	10	1	0.1	1	1	392	0.3	391	393	16.0	92.1
2025-09-04T15:53	10	1	0.2	1	2	392	0.2	392	393	16.0	92.1
2025-09-04T15:54	10	1	0.2	1	2	392	0.2	392	393	16.0	91.5
2025-09-04T15:55	10	1	0.1	1	1	392	0.2	391	392	16.0	90.3
2025-09-04T15:56	10	1	0.2	1	2	392	0.2	391	392	16.1	89.0
2025-09-04T15:57	10	1	0.1	1	1	392	0.2	391	392	16.1	89.0
2025-09-04T15:58	10	1	0.1	1	1	392	0.3	391	392	16.2	88.2
2025-09-04T15:59	10	1	0.2	1	2	392	0.3	391	393	16.2	87.4
2025-09-04T16:00	10	1	0.1	1	1	392	0.3	391	392	16.2	87.5
2025-09-04T16:01	10	1	0.1	1	1	392	0.3	391	392	16.2	87.3
2025-09-04T16:02	10	1	0.1	1	1	392	0.2	391	392	16.2	86.7
2025-09-04T16:03	10	1	0.1	1	1	392	0.2	391	392	16.2	87.6
2025-09-04T16:04	10	1	0.1	1	1	392	0.3	391	392	16.1	87.5
2025-09-04T16:05	10	1	0.1	1	1	392	0.2	391	392	16.2	86.2
2025-09-04T16:06	10	1	0.1	1	1	392	0.2	391	392	16.2	86.2
2025-09-04T16:07	10	1	0.0	1	1	392	0.3	391	392	16.2	86.4
2025-09-04T16:08	10	1	0.1	1	2	391	0.3	391	392	16.2	85.8
2025-09-04T16:09	10	1	0.1	1	1	392	0.2	392	392	16.2	86.0
2025-09-04T16:10	10	1	0.1	1	1	392	0.3	391	393	16.4	83.6
2025-09-04T16:11	10	1	0.1	1	1	392	0.3	391	392	16.4	83.4
2025-09-04T16:12	10	1	0.1	1	1	391	0.3	390	392	16.2	86.2
2025-09-04T16:13	10	1	0.1	1	1	391	0.2	390	391	16.0	88.7
2025-09-04T16:14	10	1	0.1	1	1	391	0.3	390	391	15.9	91.1
2025-09-04T16:15	10	1	0.1	1	2	391	0.3	390	391	15.7	91.8
2025-09-04T16:16	10	1	0.1	1	2	391	0.2	390	391	15.7	92.9
2025-09-04T16:17	10	2	1.3	1	9	391	0.2	390	391	15.7	91.5
2025-09-04T16:18	10	2	0.1	2	2	391	0.2	390	391	15.7	91.2
2025-09-04T16:19	10	2	0.1	2	2	391	0.3	390	391	15.8	89.7
2025-09-04T16:20	10	2	0.1	2	2	391	0.2	390	391	15.8	89.7
2025-09-04T16:21	10	2	0.0	2	2	391	0.2	390	391	15.8	88.9
2025-09-04T16:22	10	2	0.1	2	2	390	0.2	390	391	15.8	88.5
2025-09-04T16:23	10	2	0.1	2	2	390	0.3	390	391	15.9	88.3
2025-09-04T16:24	10	2	0.1	2	2	390	0.2	389	390	15.8	89.4
2025-09-04T16:25	10	2	0.1	2	2	390	0.2	390	390	15.7	90.3
2025-09-04T16:26	10	2	0.1	2	2	390	0.3	389	390	15.7	90.8
2025-09-04T16:27	10	2	0.1	1	2	390	0.3	389	391	15.7	90.8
2025-09-04T16:28	10	2	0.1	1	2	390	0.2	390	391	15.8	89.8
2025-09-04T16:29	10	1	0.1	1	2	390	0.2	389	390	15.7	90.8
2025-09-04T16:30	10	1	0.1	1	2	390	0.2	389	390	15.7	91.6
2025-09-04T16:31	10	1	0.1	1	1	390	0.3	389	390	15.6	92.1
2025-09-04T16:32	10	1	0.1	1	1	390	0.2	389	390	15.6	92.4
2025-09-04T16:33	10	1	0.1	1	1	390	0.3	389	390	15.6	92.8
2025-09-04T16:34	10	1	0.1	1	1	390	0.3	389	390	15.5	92.9
2025-09-04T16:35	10	1	0.1	1	1	390	0.3	389	390	15.6	92.4
2025-09-04T16:36	10	1	0.1	1	1	390	0.2	389	390	15.6	91.1
2025-09-04T16:37	10	1	0.1	1	1	389	0.2	389	390	15.7	90.8
2025-09-04T16:38	10	1	0.1	1	1	389	0.2	389	390	15.7	90.6
2025-09-04T16:39	10	1	0.1	1	1	389	0.2	389	389	15.7	89.8
2025-09-04T16:40	10	1	0.1	0	1	389	0.2	388	389	15.7	90.5
2025-09-04T16:41	10	1	0.1	0	1	388	0.2	388	389	15.5	91.5
2025-09-04T16:42	10	0	0.1	0	1	389	0.3	388	389	15.4	92.7
2025-09-04T16:43	10	1	0.1	0	1	388	0.2	388	389	15.3	93.4
2025-09-04T16:44	10	1	0.0	0	1	388	0.2	388	389	15.3	93.5
2025-09-04T16:45	10	1	0.1	0	1	388	0.2	388	389	15.3	93.6
2025-09-04T16:46	10	1	0.1	0	1	388	0.2	388	389	15.3	93.9
2025-09-04T16:47	10	1	0.1	0	1	388	0.2	388	389	15.3	93.0
2025-09-04T16:48	10	1	0.1	1	1	389	0.2	388	389	15.4	92.8
2025-09-04T16:49	10	1	0.1	1	1	389	0.2	388	389	15.6	90.9
2025-09-04T16:50	10	1	0.1	1	1	388	0.2	388	389	15.5	92.1
2025-09-04T16:51	10	1	0.1	0	1	389	0.2	388	389	15.5	92.1
2025-09-04T16:52	10	1	0.1	1	1	389	0.2	388	389	15.5	91.8
2025-09-04T16:53	10	1	0.1	1	1	389	0.3	388	389	15.5	91.6
2025-09-04T16:54	10	1	0.1	1	1	389	0.2	388	389	15.5	92.0
2025-09-04T16:55	10	1	0.1	1	1	388	0.3	388	389	15.4	92.5
2025-09-04T16:56	10	1	0.1	1	1	388	0.2	387	388	15.4	93.4
2025-09-04T16:57	10	1	0.1	1	1	388	0.3	388	389	15.4	91.8
2025-09-04T16:58	10	1	0.1	1	1	388	0.3	388	389	15.7	88.9
2025-09-04T16:59	10	1	0.1	1	1	388	0.3	388	389	15.7	87.8
2025-09-04T17:00	10	1	0.1	0	1	388	0.2	387	389	15.7	87.9
2025-09-04T17:01	10	1	0.1	0	1	388	0.2	387	388	15.7	88.1
2025-09-04T17:02	10	0	0.1	0	1	388	0.3	387	389	15.7	88.1
2025-09-04T17:03	10	0	0.1	0	1	388	0.2	388	389	15.8	86.4
2025-09-04T17:04	10	0	0.1	0	1	388	0.3	387	389	15.7	87.9
2025-09-04T17:05	10	0	0.1	0	0	388	0.3	387	388	15.6	87.9
2025-09-04T17:06	10	0	0.1	0	0	388	0.2	387	388	15.6	87.9
2025-09-04T17:07	10	0	0.1	0	0	388	0.3	387	388	15.6	88.3
2025-09-04T17:08	10	0	0.1	0	0	388	0.3	387	388	15.7	86.5
2025-09-04T17:09	10	0	0.1	0	0	388	0.3	387	388	15.9	84.7
2025-09-04T17:10	10	0	0.1	0	0	388	0.3	387	389	15.8	85.7
2025-09-04T17:11	10	0	0.1	0	0	388	0.3	387	388	15.9	85.1
2025-09-04T17:12	10	0	0.1	0	0	388	0.2	387	388	15.7	86.1
2025-09-04T17:13	10	0	0.1	0	0	388	0.2	387	389	15.8	85.6
2025-09-04T17:14	10	0	0.1	0	0	388	0.2	387	388	15.8	85.5
2025-09-04T17:15	10	0	0.1	-1	0	388	0.4	387	388	15.6	87.2
2025-09-04T17:16	10	0	0.1	-1	0	388	0.2	387	388	15.7	86.6
2025-09-04T17:17	10	0	0.1	0	0	388	0.3	387	388	15.8	86.4
2025-09-04T17:18	10	0	0.1	0	0	387	0.2	387	388	15.7	86.8
2025-09-04T17:19	10	0	0.1	0	0	388	0.3	387	388	15.6	88.1
2025-09-04T17:20	10	0	0.1	-1	0	387	0.2	387	388	15.5	88.6
2025-09-04T17:21	10	0	0.1	0	0	387	0.2	387	388	15.5	88.5
2025-09-04T17:22	10	0	0.0	0	0	387	0.3	387	388	15.6	87.4
2025-09-04T17:23	10	0	0.1	0	0	387	0.2	387	388	15.7	85.8
2025-09-04T17:24	10	0	0.1	0	0	387	0.3	386	387	15.5	88.6
2025-09-04T17:25	10	0	0.1	0	0	387	0.2	386	387	15.5	87.8
2025-09-04T17:26	10	0	0.1	0	0	387	0.2	387	388	15.7	85.3
2025-09-04T17:27	10	0	0.1	0	0	387	0.2	387	387	15.9	83.2
2025-09-04T17:28	10	0	0.1	0	0	387	0.2	386	387	15.9	83.6
2025-09-04T17:29	10	0	0.1	0	0	387	0.3	386	388	15.9	82.1
2025-09-04T17:30	10	0	0.1	0	0	387	0.3	386	388	16.1	80.7
2025-09-04T17:31	10	0	0.1	0	0	387	0.3	386	388	16.0	81.2
2025-09-04T17:32	10	0	0.1	0	1	387	0.3	386	388	16.1	80.5
2025-09-04T17:33	10	0	0.1	0	1	387	0.2	387	388	16.0	81.1
2025-09-04T17:34	10	1	0.1	0	1	387	0.3	386	388	16.0	80.5
2025-09-04T17:35	10	1	0.1	0	1	387	0.3	386	387	16.0	81.7
2025-09-04T17:36	10	1	0.1	1	1	387	0.2	386	387	15.9	82.6
2025-09-04T17:37	10	1	0.1	1	1	387	0.2	386	387	15.9	83.3
2025-09-04T17:38	10	1	0.1	1	1	387	0.2	386	387	15.8	83.6
2025-09-04T17:39	10	1	0.1	1	1	387	0.2	386	388	15.8	83.7
2025-09-04T17:40	10	2	0.9	1	4	387	0.2	386	387	15.8	83.0
2025-09-04T17:41	10	3	0.7	2	4	387	0.3	386	387	15.9	83.6
2025-09-04T17:42	10	5	0.7	3	6	387	0.3	386	387	15.8	84.7
2025-09-04T17:43	10	3	0.3	2	3	387	0.3	387	388	15.8	83.8
2025-09-04T17:44	10	2	0.2	2	3	387	0.3	386	387	15.8	84.1
2025-09-04T17:45	10	2	0.1	2	2	387	0.3	386	388	16.0	82.3
2025-09-04T17:46	10	2	0.1	2	2	387	0.2	386	387	15.9	83.5
2025-09-04T17:47	10	2	0.1	2	2	387	0.3	386	387	15.8	83.8
2025-09-04T17:48	10	2	0.1	2	2	387	0.2	386	387	15.8	84.6
2025-09-04T17:49	10	2	0.1	2	2	386	0.2	386	387	15.6	86.3
2025-09-04T17:50	10	2	0.1	1	2	386	0.2	386	387	15.5	87.6
2025-09-04T17:51	10	2	0.1	1	2	386	0.3	386	387	15.5	87.9
2025-09-04T17:52	10	1	0.1	1	2	386	0.2	386	387	15.5	88.5
2025-09-04T17:53	10	1	0.1	1	2	386	0.2	386	387	15.4	89.3
2025-09-04T17:54	10	1	0.1	1	1	387	0.3	386	387	15.5	89.0
2025-09-04T17:55	10	1	0.1	1	1	387	0.2	386	387	15.5	88.3
2025-09-04T17:56	10	1	0.1	1	1	386	0.2	386	387	15.5	88.9
2025-09-04T17:57	10	1	0.1	0	1	386	0.3	386	387	15.5	89.2
2025-09-04T17:58	10	0	0.1	0	1	386	0.2	386	387	15.4	89.8
2025-09-04T17:59	10	0	0.1	0	1	386	0.3	386	387	15.4	89.3
2025-09-04T18:00	10	0	0.1	0	1	387	0.2	386	387	15.5	88.4
2025-09-04T18:01	10	0	0.1	0	1	387	0.3	386	387	15.7	85.9
2025-09-04T18:02	10	0	0.1	0	1	387	0.2	386	387	15.7	86.2
2025-09-04T18:03	10	0	0.1	0	0	387	0.3	386	387	15.7	86.6
2025-09-04T18:04	10	0	0.1	0	0	387	0.2	386	387	15.6	87.2
2025-09-04T18:05	10	0	0.1	0	0	387	0.2	386	387	15.6	87.7
2025-09-04T18:06	10	0	0.1	0	0	387	0.3	386	387	15.6	87.0
2025-09-04T18:07	10	0	0.1	0	0	387	0.2	386	387	15.6	87.3
2025-09-04T18:08	10	0	0.1	0	0	387	0.2	386	387	15.6	87.4
2025-09-04T18:09	10	0	0.1	0	0	387	0.2	386	387	15.6	87.4
2025-09-04T18:10	10	0	0.1	0	0	387	0.2	386	387	15.6	86.6
2025-09-04T18:11	10	0	0.1	0	0	387	0.2	386	387	15.6	86.9
2025-09-04T18:12	10	0	0.1	0	0	387	0.2	386	387	15.5	87.3
2025-09-04T18:13	10	0	0.1	0	0	387	0.2	386	387	15.5	87.3
2025-09-04T18:14	10	0	0.1	0	0	387	0.2	386	387	15.5	87.1
2025-09-04T18:15	10	0	0.1	0	0	386	0.2	386	387	15.5	87.4
2025-09-04T18:16	10	0	0.1	0	0	386	0.2	386	387	15.5	87.9
2025-09-04T18:17	10	0	0.1	0	0	386	0.2	386	387	15.5	88.3
2025-09-04T18:18	10	0	0.1	0	0	386	0.2	386	387	15.5	88.7
2025-09-04T18:19	10	0	0.1	0	0	386	0.3	386	387	15.4	88.9
2025-09-04T18:20	10	0	0.1	0	0	386	0.2	386	387	15.4	89.1
2025-09-04T18:21	10	0	0.1	0	0	386	0.2	386	387	15.4	89.3
2025-09-04T18:22	10	0	0.1	0	0	386	0.2	386	387	15.5	89.1
2025-09-04T18:23	10	0	0.1	0	0	386	0.2	386	386	15.5	89.5
2025-09-04T18:24	10	0	0.1	0	0	386	0.2	386	387	15.4	89.7
2025-09-04T18:25	10	0	0.1	0	0	386	0.2	386	386	15.4	89.9
2025-09-04T18:26	10	0	0.1	0	0	386	0.2	386	386	15.4	90.2
2025-09-04T18:27	10	0	0.1	0	0	386	0.3	385	386	15.4	90.1
2025-09-04T18:28	10	0	0.1	0	0	386	0.2	385	386	15.4	90.8
2025-09-04T18:29	10	0	0.1	0	0	386	0.2	385	386	15.4	90.6
2025-09-04T18:30	10	0	0.1	0	0	386	0.2	386	387	15.4	90.2
2025-09-04T18:31	10	0	0.1	0	0	386	0.2	385	386	15.4	90.4
2025-09-04T18:32	10	0	0.1	0	0	386	0.2	385	386	15.4	90.8
2025-09-04T18:33	10	0	0.1	0	0	386	0.2	385	386	15.4	90.9
2025-09-04T18:34	10	0	0.1	0	0	386	0.2	385	386	15.4	90.4
2025-09-04T18:35	10	0	0.1	0	0	386	0.3	385	387	15.4	90.5
2025-09-04T18:36	10	0	0.1	0	0	386	0.3	385	386	15.4	90.8
2025-09-04T18:37	10	0	0.1	0	0	385	0.2	385	386	15.4	91.2
2025-09-04T18:38	10	0	0.1	0	0	385	0.2	385	386	15.4	91.2
2025-09-04T18:39	10	0	0.1	0	0	385	0.2	384	385	15.4	91.3
2025-09-04T18:40	10	0	0.1	0	0	385	0.2	384	385	15.4	91.3
2025-09-04T18:41	10	0	0.1	0	0	385	0.2	384	385	15.4	91.2
2025-09-04T18:42	10	0	0.1	0	0	385	0.2	385	385	15.4	90.9
2025-09-04T18:43	10	0	0.1	0	0	385	0.2	384	385	15.4	91.1
2025-09-04T18:44	10	0	0.1	0	0	385	0.2	384	386	15.3	91.7
2025-09-04T18:45	10	0	0.1	0	0	385	0.3	384	385	15.4	91.4
2025-09-04T18:46	10	0	0.1	0	0	385	0.2	385	385	15.4	91.5
2025-09-04T18:47	10	0	0.1	0	0	385	0.3	384	385	15.3	92.1
2025-09-04T18:48	10	0	0.1	0	0	385	0.3	385	386	15.3	91.8
2025-09-04T18:49	10	0	0.1	0	0	385	0.2	385	386	15.3	92.2
2025-09-04T18:50	10	0	0.1	0	0	386	0.3	385	387	15.3	91.8
2025-09-04T18:51	10	0	0.1	0	0	387	0.3	386	387	15.4	90.3
2025-09-04T18:52	10	0	0.1	0	0	387	0.2	386	387	15.5	90.0
2025-09-04T18:53	10	0	0.1	0	0	387	0.2	386	387	15.5	89.3
2025-09-04T18:54	10	0	0.1	0	0	387	0.3	386	388	15.6	87.4
2025-09-04T18:55	10	0	0.1	0	0	387	0.2	387	388	15.7	86.9
2025-09-04T18:56	10	0	0.1	0	0	387	0.2	387	388	15.6	88.7
2025-09-04T18:57	10	0	0.1	0	0	387	0.3	387	388	15.6	89.7
2025-09-04T18:58	10	0	0.1	0	0	388	0.2	387	388	15.5	89.2
2025-09-04T18:59	10	0	0.1	0	0	388	0.2	388	389	15.5	88.7
2025-09-04T19:00	10	0	0.1	0	0	388	0.2	388	389	15.6	87.6
2025-09-04T19:01	10	0	0.1	0	0	388	0.2	388	389	15.6	87.4
2025-09-04T19:02	10	0	0.1	0	0	388	0.3	388	389	15.6	88.1
2025-09-04T19:03	10	0	0.1	0	0	388	0.4	387	389	15.5	90.7
2025-09-04T19:04	10	0	0.1	0	0	388	0.2	387	388	15.2	92.1
2025-09-04T19:05	10	0	0.1	0	0	388	0.3	387	388	15.2	91.7
2025-09-04T19:06	10	0	0.1	0	0	388	0.2	387	388	15.2	91.9
2025-09-04T19:07	10	0	0.1	0	0	387	0.2	387	388	15.3	91.6
2025-09-04T19:08	10	0	0.1	0	0	388	0.2	387	388	15.2	92.6
2025-09-04T19:09	10	0	0.1	0	0	388	0.2	387	388	15.2	92.2
2025-09-04T19:10	10	0	0.1	0	0	388	0.3	387	388	15.2	92.7
2025-09-04T19:11	10	0	0.1	0	0	388	0.2	387	388	15.1	93.3
2025-09-04T19:12	10	0	0.1	0	0	388	0.2	387	388	15.1	91.4
2025-09-04T19:13	10	0	0.1	0	1	387	0.2	387	388	15.3	90.4
2025-09-04T19:14	10	0	0.1	0	1	387	0.2	387	388	15.2	90.6
2025-09-04T19:15	10	0	0.1	0	1	387	0.3	386	387	15.2	91.5
2025-09-04T19:16	10	0	0.1	0	1	387	0.3	386	388	15.2	90.3
2025-09-04T19:17	10	0	0.1	0	0	387	0.2	386	388	15.2	90.7
2025-09-04T19:18	10	0	0.1	0	0	387	0.2	386	387	15.3	89.9
2025-09-04T19:19	10	0	0.1	0	1	387	0.2	387	387	15.3	90.1
2025-09-04T19:20	10	0	0.1	0	1	387	0.2	386	387	15.3	89.7
2025-09-04T19:21	10	0	0.1	0	1	387	0.2	386	387	15.3	89.8
2025-09-04T19:22	10	0	0.1	0	0	386	0.2	386	387	15.2	90.1
2025-09-04T19:23	10	0	0.1	0	1	387	0.2	386	387	15.2	90.4
2025-09-04T19:24	10	0	0.1	0	0	386	0.3	386	387	15.2	90.4
2025-09-04T19:25	10	0	0.1	0	0	386	0.2	386	387	15.2	89.9
2025-09-04T19:26	10	0	0.1	0	0	386	0.2	386	387	15.2	89.8
2025-09-04T19:27	10	0	0.1	0	1	386	0.2	386	387	15.2	90.0
2025-09-04T19:28	10	0	0.1	0	0	386	0.2	386	387	15.1	90.1
2025-09-04T19:29	10	0	0.1	0	0	386	0.2	385	386	15.2	90.0
2025-09-04T19:30	10	0	0.1	0	0	386	0.3	385	387	15.1	90.0
2025-09-04T19:31	10	0	0.1	0	0	386	0.2	385	386	15.2	89.9
2025-09-04T19:32	10	0	0.1	0	1	385	0.3	385	386	15.2	89.6
2025-09-04T19:33	10	0	0.1	0	1	385	0.3	384	386	15.1	90.2
2025-09-04T19:34	10	0	0.1	0	1	385	0.2	384	385	15.1	89.7
2025-09-04T19:35	10	0	0.1	0	1	385	0.2	384	385	15.1	90.0
2025-09-04T19:36	10	0	0.1	0	0	384	0.2	384	385	15.1	90.1
2025-09-04T19:37	10	0	0.1	0	0	384	0.3	384	385	15.1	90.2
2025-09-04T19:38	10	0	0.1	0	0	384	0.3	383	385	15.1	90.1
2025-09-04T19:39	10	0	0.1	0	0	384	0.2	383	384	15.1	90.0
2025-09-04T19:40	10	0	0.1	0	0	384	0.2	383	384	15.1	89.7
2025-09-04T19:41	10	0	0.1	0	0	383	0.2	383	384	15.1	89.7
2025-09-04T19:42	10	0	0.1	0	0	383	0.2	383	384	15.1	89.8
2025-09-04T19:43	10	0	0.1	0	0	383	0.3	383	384	15.1	89.7
2025-09-04T19:44	10	0	0.1	0	1	383	0.2	383	384	15.1	89.3
2025-09-04T19:45	10	0	0.1	0	0	383	0.2	383	384	15.2	88.5
2025-09-04T19:46	10	0	0.1	0	0	383	0.2	383	384	15.3	87.6
2025-09-04T19:47	10	0	0.1	0	0	383	0.2	383	384	15.3	87.7
2025-09-04T19:48	10	0	0.1	0	0	383	0.3	382	384	15.3	87.9
2025-09-04T19:49	10	0	0.1	0	0	383	0.3	382	383	15.3	88.0
2025-09-04T19:50	10	0	0.1	0	0	383	0.2	382	383	15.3	88.0
2025-09-04T19:51	10	0	0.1	0	0	382	0.3	382	383	15.3	87.9
2025-09-04T19:52	10	0	0.1	0	0	382	0.2	381	382	15.1	89.4
2025-09-04T19:53	10	0	0.1	0	0	381	0.3	380	382	15.1	89.7
2025-09-04T19:54	10	0	0.1	0	0	381	0.3	380	382	15.0	90.4
2025-09-04T19:55	10	0	0.0	0	0	381	0.2	380	381	14.9	91.6
2025-09-04T19:56	10	0	0.0	0	0	381	0.2	380	381	14.8	92.8
2025-09-04T19:57	10	0	0.0	0	0	381	0.2	380	381	14.6	93.7
2025-09-04T19:58	10	0	0.0	0	0	381	0.3	380	381	14.6	94.4
2025-09-04T19:59	10	0	0.1	0	0	381	0.2	381	382	14.6	94.6
2025-09-04T20:00	10	0	0.1	0	0	381	0.2	381	382	14.6	94.7
2025-09-04T20:01	10	0	0.1	0	0	381	0.2	380	382	14.6	94.9
2025-09-04T20:02	10	0	0.1	0	0	381	0.2	380	381	14.6	94.9
2025-09-04T20:03	10	0	0.0	0	0	381	0.2	380	381	14.6	94.6
2025-09-04T20:04	10	0	0.0	0	0	381	0.2	380	381	14.7	94.5
2025-09-04T20:05	10	0	0.0	0	0	380	0.3	379	381	14.7	94.0
2025-09-04T20:06	10	0	0.1	0	0	379	0.2	379	380	14.8	92.9
2025-09-04T20:07	10	0	0.1	0	0	379	0.3	378	379	14.9	91.7
2025-09-04T20:08	10	0	0.0	0	0	378	0.2	378	379	14.9	91.6
2025-09-04T20:09	10	0	0.1	0	0	378	0.2	377	378	14.9	92.0
2025-09-04T20:10	10	0	0.1	0	0	378	0.2	377	378	14.9	92.3
2025-09-04T20:11	10	0	0.1	0	0	378	0.2	377	378	14.9	91.5
2025-09-04T20:12	10	0	0.0	0	0	378	0.3	377	378	15.0	91.1
2025-09-04T20:13	10	0	0.1	0	0	378	0.4	377	378	14.9	91.4
2025-09-04T20:14	10	0	0.0	0	0	377	0.2	377	378	14.8	92.3
2025-09-04T20:15	10	0	0.1	0	0	378	0.3	377	379	14.7	92.9
2025-09-04T20:16	10	0	0.0	0	0	378	0.2	378	379	14.7	93.4
2025-09-04T20:17	10	0	0.0	0	0	378	0.2	378	379	14.7	93.6
2025-09-04T20:18	10	0	0.1	0	0	378	0.3	378	379	14.6	94.0
2025-09-04T20:19	10	0	0.1	0	0	380	0.3	379	380	14.7	93.0
2025-09-04T20:20	10	0	0.1	0	0	380	0.3	379	380	14.8	92.4
2025-09-04T20:21	10	0	0.1	0	0	380	0.3	379	381	14.7	92.9
2025-09-04T20:22	10	0	0.1	0	0	381	0.7	380	382	14.7	92.7
2025-09-04T20:23	10	0	0.1	0	0	382	0.4	381	383	14.9	90.8
2025-09-04T20:24	10	0	0.1	0	0	382	0.3	381	383	14.9	91.1
2025-09-04T20:25	10	0	0.1	0	0	382	0.4	381	383	14.7	88.9
2025-09-04T20:26	10	0	0.1	0	0	382	0.3	381	383	14.8	91.8
2025-09-04T20:27	10	0	0.1	0	0	382	0.2	382	383	14.8	88.8
2025-09-04T20:28	10	0	0.1	0	0	383	0.3	382	384	14.8	91.8
2025-09-04T20:29	10	0	0.1	0	0	383	0.3	383	384	14.8	91.8
2025-09-04T20:30	10	0	0.1	0	0	383	0.2	383	384	14.8	91.8
2025-09-04T20:31	10	0	0.1	0	0	383	0.2	383	384	14.8	91.8
2025-09-04T20:32	10	0	0.1	0	0	383	0.2	383	384	14.8	91.8
2025-09-04T20:33	10	0	0.1	0	0	384	0.2	383	384	14.8	91.4
2025-09-04T20:34	10	0	0.1	0	1	384	0.2	384	384	14.9	90.8
2025-09-04T20:35	10	0	0.1	0	1	384	0.2	384	385	14.9	90.2
2025-09-04T20:36	10	0	0.1	0	1	384	0.3	383	385	14.9	90.8
2025-09-04T20:37	10	0	0.1	0	1	384	0.2	384	385	15.0	90.0
2025-09-04T20:38	10	0	0.1	0	1	384	0.2	384	385	15.0	90.1
2025-09-04T20:39	10	0	0.1	0	1	384	0.2	384	385	15.0	90.2
2025-09-04T20:40	10	0	0.1	0	1	384	0.2	384	385	15.0	90.7
2025-09-04T20:41	10	0	0.1	0	1	384	0.2	384	385	15.0	90.9
2025-09-04T20:42	10	0	0.1	0	0	384	0.3	384	385	15.0	90.8
2025-09-04T20:43	10	0	0.1	0	0	384	0.3	383	385	14.9	91.9
2025-09-04T20:44	10	0	0.1	0	0	384	0.2	384	385	14.8	92.0
2025-09-04T20:45	10	0	0.1	0	1	384	0.2	384	385	14.9	91.3
2025-09-04T20:46	10	0	0.1	0	0	384	0.2	384	385	14.9	91.6
2025-09-04T20:47	10	0	0.1	0	0	384	0.2	384	385	14.8	91.9
2025-09-04T20:48	10	0	0.1	0	1	384	0.2	383	384	14.7	92.6
2025-09-04T20:49	10	0	0.1	0	0	384	0.2	384	385	14.7	92.3
2025-09-04T20:50	10	0	0.1	0	0	384	0.3	384	385	14.7	92.4
2025-09-04T20:51	10	0	0.0	0	0	384	0.2	384	385	14.8	91.9
2025-09-04T20:52	10	0	0.1	0	0	385	0.2	384	385	14.9	90.6
2025-09-04T20:53	10	0	0.1	0	1	385	0.3	384	385	15.0	89.7
2025-09-04T20:54	10	0	0.1	0	1	385	0.3	384	386	15.1	87.9
2025-09-04T20:55	10	0	0.2	0	1	385	0.3	384	385	15.1	88.6
2025-09-04T20:56	10	0	0.1	0	0	385	0.3	384	385	15.0	88.9
2025-09-04T20:57	10	0	0.1	0	1	385	0.3	384	386	15.0	89.1
2025-09-04T20:58	10	0	0.1	0	1	385	0.2	384	385	15.0	89.3
2025-09-04T20:59	10	0	0.1	0	1	384	0.2	384	385	15.0	89.3
2025-09-04T21:00	10	0	0.1	0	1	384	0.2	384	385	14.9	90.3
2025-09-04T21:01	10	0	0.1	0	0	384	0.3	384	385	14.8	91.1
2025-09-04T21:02	10	0	0.1	0	1	384	0.2	384	385	14.8	91.2
2025-09-04T21:03	10	0	0.1	0	1	384	0.2	384	384	14.8	90.8
2025-09-04T21:04	10	0	0.1	0	1	384	0.2	384	385	14.8	90.5
2025-09-04T21:05	10	0	0.1	0	1	384	0.3	384	385	14.9	90.2
2025-09-04T21:06	10	0	0.1	0	0	384	0.3	384	385	14.9	89.7
2025-09-04T21:07	10	0	0.1	0	1	384	0.2	384	385	15.0	89.1
2025-09-04T21:08	10	0	0.2	0	1	384	0.2	384	385	15.0	89.1
2025-09-04T21:09	10	0	0.1	0	1	384	0.2	384	385	15.0	89.2
2025-09-04T21:10	10	0	0.1	0	1	384	0.3	384	385	14.9	89.8
2025-09-04T21:11	10	0	0.1	0	1	385	0.2	384	385	14.9	89.3
2025-09-04T21:12	10	0	0.1	0	1	384	0.3	384	385	14.9	89.1
2025-09-04T21:13	10	0	0.1	0	1	385	0.2	384	385	14.9	89.2
2025-09-04T21:14	10	0	0.1	0	1	384	0.2	384	385	14.9	89.4
2025-09-04T21:15	10	0	0.1	0	1	384	0.3	384	385	14.9	89.9
2025-09-04T21:16	10	0	0.1	0	1	384	0.2	384	385	14.8	90.0
2025-09-04T21:17	10	0	0.1	0	1	384	0.2	384	385	14.9	89.5
2025-09-04T21:18	10	0	0.1	0	1	384	0.2	384	385	14.8	89.9
2025-09-04T21:19	10	0	0.1	0	1	384	0.2	384	385	14.9	89.4
2025-09-04T21:20	10	0	0.1	0	1	384	0.3	384	385	14.9	89.5
2025-09-04T21:21	10	0	0.1	0	1	384	0.2	384	385	14.8	90.3
2025-09-04T21:22	10	0	0.1	0	1	384	0.2	384	385	14.9	89.7
2025-09-04T21:23	10	0	0.1	0	1	384	0.3	384	385	14.9	89.6
2025-09-04T21:24	10	0	0.1	0	1	384	0.2	384	385	14.9	89.8
2025-09-04T21:25	10	0	0.1	0	1	384	0.2	383	384	14.8	90.1
2025-09-04T21:26	10	0	0.1	0	1	384	0.3	383	384	14.7	91.2
2025-09-04T21:27	10	0	0.1	0	1	384	0.3	383	384	14.7	91.6
2025-09-04T21:28	10	0	0.1	0	0	384	0.2	383	384	14.7	91.8
2025-09-04T21:29	10	0	0.0	0	0	384	0.2	384	384	14.7	91.9
2025-09-04T21:30	10	0	0.1	0	1	384	0.3	383	384	14.8	91.4
2025-09-04T21:31	10	0	0.1	0	1	384	0.3	383	384	14.8	91.1
2025-09-04T21:32	10	0	0.1	0	1	384	0.3	383	384	14.8	91.5
2025-09-04T21:33	10	0	0.1	0	0	384	0.2	384	384	14.8	91.3
2025-09-04T21:34	10	0	0.1	0	1	384	0.3	383	384	14.8	91.0
2025-09-04T21:35	10	0	0.1	0	1	384	0.3	383	384	14.7	91.5
2025-09-04T21:36	10	0	0.1	0	1	384	0.2	383	384	14.7	91.6
2025-09-04T21:37	10	0	0.1	0	1	384	0.2	383	384	14.7	91.7
2025-09-04T21:38	10	0	0.1	0	1	383	0.2	383	384	14.7	91.5
2025-09-04T21:39	10	0	0.1	0	1	383	0.2	383	384	14.7	91.5
2025-09-04T21:40	10	0	0.1	0	1	383	0.3	383	384	14.7	91.4
2025-09-04T21:41	10	0	0.1	0	1	383	0.3	383	384	14.7	91.8
2025-09-04T21:42	10	0	0.1	0	1	384	0.3	383	384	14.6	92.6
2025-09-04T21:43	10	0	0.1	0	0	383	0.3	383	384	14.6	92.5
2025-09-04T21:44	10	0	0.1	0	1	384	0.2	383	384	14.7	92.0
2025-09-04T21:45	10	0	0.1	0	1	384	0.2	383	384	14.7	91.9
2025-09-04T21:46	10	0	0.1	0	1	384	0.2	383	384	14.7	91.6
2025-09-04T21:47	10	0	0.1	0	1	384	0.2	383	384	14.8	91.1
2025-09-04T21:48	10	0	0.2	0	1	384	0.2	383	384	14.8	90.6
2025-09-04T21:49	10	0	0.1	0	1	384	0.3	383	385	14.8	90.5
2025-09-04T21:50	10	0	0.2	0	1	384	0.3	384	385	15.0	89.1
2025-09-04T21:51	10	0	0.1	0	1	384	0.3	383	385	15.0	89.8
2025-09-04T21:52	10	0	0.1	0	1	384	0.3	383	385	15.0	89.4
2025-09-04T21:53	10	0	0.1	0	1	384	0.3	384	385	15.0	88.7
2025-09-04T21:54	10	0	0.1	0	1	384	0.3	384	385	15.2	86.6
2025-09-04T21:55	10	0	0.1	0	1	384	0.2	384	385	15.3	86.0
2025-09-04T21:56	10	0	0.2	0	1	384	0.2	384	384	15.2	87.1
2025-09-04T21:57	10	0	0.1	0	1	384	0.3	384	385	15.2	86.8
2025-09-04T21:58	10	0	0.2	0	1	384	0.2	384	385	15.3	86.4
2025-09-04T21:59	10	0	0.2	0	1	384	0.3	383	384	15.2	87.8
2025-09-04T22:00	10	0	0.2	0	1	384	0.2	383	384	15.1	88.3
2025-09-04T22:01	10	0	0.2	0	1	384	0.3	383	385	15.1	88.1
2025-09-04T22:02	10	0	0.2	0	1	383	0.3	383	384	15.1	88.6
2025-09-04T22:03	10	0	0.2	0	1	384	0.3	383	384	15.2	87.6
2025-09-04T22:04	10	0	0.1	0	1	383	0.3	383	384	15.1	88.4
2025-09-04T22:05	10	0	0.2	0	1	383	0.3	383	384	15.1	88.9
2025-09-04T22:06	10	0	0.1	0	1	383	0.3	382	383	15.1	88.4
2025-09-04T22:07	10	0	0.1	0	1	383	0.3	383	384	15.2	88.0
2025-09-04T22:08	10	1	0.2	0	1	383	0.2	383	384	15.2	87.7
2025-09-04T22:09	10	0	0.2	0	1	383	0.3	383	384	15.2	87.7
2025-09-04T22:10	10	1	0.2	0	1	383	0.3	383	384	15.1	88.1
2025-09-04T22:11	10	1	0.2	0	1	384	0.3	383	384	15.1	87.9
2025-09-04T22:12	10	0	0.2	0	1	383	0.3	383	384	15.2	87.6
2025-09-04T22:13	10	0	0.2	0	1	384	0.3	383	384	15.1	88.2
2025-09-04T22:14	10	0	0.2	0	1	384	0.2	383	384	15.1	88.4
2025-09-04T22:15	10	0	0.2	0	1	384	0.3	383	384	15.1	88.2
2025-09-04T22:16	10	0	0.2	0	1	384	0.2	383	384	15.1	88.6
2025-09-04T22:17	10	0	0.1	0	1	383	0.2	383	384	15.0	89.1
2025-09-04T22:18	10	0	0.1	0	1	384	0.3	383	384	15.0	89.4
2025-09-04T22:19	10	0	0.1	0	1	384	0.3	383	384	15.0	89.2
2025-09-04T22:20	10	0	0.1	0	1	383	0.2	383	384	15.0	89.2
2025-09-04T22:21	10	0	0.1	0	1	384	0.3	383	384	15.0	89.3
2025-09-04T22:22	10	0	0.1	0	1	383	0.2	383	384	15.0	89.1
2025-09-04T22:23	10	0	0.1	0	1	384	0.2	383	384	15.0	89.4
2025-09-04T22:24	10	0	0.1	0	1	383	0.3	383	384	15.0	89.8
2025-09-04T22:25	10	0	0.1	0	1	383	0.2	383	384	14.9	90.3
2025-09-04T22:26	10	0	0.2	0	1	383	0.3	383	384	14.9	90.0
2025-09-04T22:27	10	0	0.1	0	1	383	0.2	383	383	14.9	89.9
2025-09-04T22:28	10	0	0.1	0	1	383	0.2	383	384	14.9	89.8
2025-09-04T22:29	10	0	0.1	0	1	383	0.3	382	384	14.9	89.9
2025-09-04T22:30	10	0	0.2	0	1	383	0.2	383	384	14.9	89.8
2025-09-04T22:31	10	0	0.1	0	1	383	0.3	383	384	14.9	89.8
2025-09-04T22:32	10	0	0.1	0	1	383	0.2	383	384	14.9	89.7
2025-09-04T22:33	10	0	0.1	0	1	383	0.2	383	384	15.0	89.5
2025-09-04T22:34	10	0	0.2	0	1	383	0.3	382	384	14.9	89.8
2025-09-04T22:35	10	0	0.1	0	1	383	0.2	382	383	14.9	89.6
2025-09-04T22:36	10	0	0.1	0	1	383	0.2	383	384	14.9	89.6
2025-09-04T22:37	10	0	0.1	0	1	383	0.2	383	384	15.0	89.6
2025-09-04T22:38	10	0	0.1	0	1	383	0.2	383	384	14.9	89.9
2025-09-04T22:39	10	0	0.1	0	1	383	0.2	383	384	14.9	89.9
2025-09-04T22:40	10	0	0.1	0	1	383	0.3	382	384	14.9	90.2
2025-09-04T22:41	10	0	0.1	0	1	383	0.2	383	384	14.9	90.3
2025-09-04T22:42	10	0	0.2	0	1	384	0.3	383	384	14.9	90.1
2025-09-04T22:43	10	0	0.1	0	0	384	0.2	383	384	15.0	89.9
2025-09-04T22:44	10	0	0.1	0	1	384	0.3	383	384	15.0	89.4
2025-09-04T22:45	10	0	0.1	0	0	384	0.2	383	384	15.1	89.4
2025-09-04T22:46	10	0	0.1	0	1	384	0.3	383	384	15.0	89.9
2025-09-04T22:47	10	0	0.1	0	1	384	0.2	383	384	15.0	89.7
2025-09-04T22:48	10	0	0.1	0	1	384	0.2	383	385	15.0	89.8
2025-09-04T22:49	10	0	0.1	0	1	384	0.2	383	384	14.9	90.5
2025-09-04T22:50	10	0	0.2	0	1	384	0.3	383	385	15.0	90.3
2025-09-04T22:51	10	0	0.2	0	1	384	0.2	384	384	15.0	90.2
2025-09-04T22:52	10	0	0.1	0	1	384	0.3	384	385	15.0	90.2
2025-09-04T22:53	10	0	0.1	0	1	384	0.2	384	385	15.0	90.3
2025-09-04T22:54	10	0	0.1	0	1	384	0.2	383	384	14.9	90.7
2025-09-04T22:55	10	0	0.1	0	1	384	0.3	384	385	15.0	90.5
2025-09-04T22:56	10	0	0.1	0	1	384	0.3	384	385	15.0	90.6
2025-09-04T22:57	10	0	0.1	0	1	384	0.3	383	385	15.0	90.3
2025-09-04T22:58	10	0	0.1	0	1	384	0.2	384	385	15.0	90.0
2025-09-04T22:59	10	0	0.1	0	1	384	0.2	384	385	15.1	89.7
2025-09-04T23:00	10	0	0.1	0	1	384	0.3	384	385	15.1	89.7
2025-09-04T23:01	10	0	0.1	0	0	384	0.2	384	385	15.1	90.1
2025-09-04T23:02	10	0	0.1	0	1	385	0.2	384	385	15.1	89.5
2025-09-04T23:03	10	0	0.1	0	0	384	0.2	384	385	15.1	89.7
2025-09-04T23:04	10	0	0.1	0	1	384	0.2	384	385	15.0	90.4
2025-09-04T23:05	10	0	0.1	0	1	384	0.2	384	385	15.0	90.5
2025-09-04T23:06	10	0	0.1	0	1	384	0.2	384	385	15.0	90.3
2025-09-04T23:07	10	0	0.1	0	1	384	0.3	384	385	15.0	90.8
2025-09-04T23:08	10	0	0.1	0	1	384	0.2	384	385	15.0	90.6
2025-09-04T23:09	10	0	0.1	0	1	384	0.3	383	385	15.1	90.1
2025-09-04T23:10	10	0	0.1	0	0	384	0.2	384	385	15.1	89.9
2025-09-04T23:11	10	0	0.1	0	1	385	0.2	384	385	15.1	90.1
2025-09-04T23:12	10	0	0.1	0	1	384	0.2	384	385	15.1	90.3
2025-09-04T23:13	10	0	0.1	0	1	384	0.3	384	385	15.1	89.9
2025-09-04T23:14	10	0	0.1	0	0	384	0.2	384	385	15.1	90.1
2025-09-04T23:15	10	0	0.1	0	1	384	0.2	384	385	15.0	90.1
2025-09-04T23:16	10	0	0.1	0	0	384	0.2	384	385	15.1	89.7
2025-09-04T23:17	10	0	0.1	0	1	384	0.2	384	385	15.0	90.2
2025-09-04T23:18	10	0	0.1	0	1	384	0.2	384	385	15.0	90.5
2025-09-04T23:19	10	0	0.1	0	1	384	0.2	383	384	15.0	90.3
2025-09-04T23:20	10	0	0.1	0	1	384	0.2	383	385	15.0	90.4
2025-09-04T23:21	10	0	0.1	0	0	384	0.2	383	384	15.0	90.5
2025-09-04T23:22	10	0	0.1	0	0	384	0.2	383	384	15.0	90.4
2025-09-04T23:23	10	0	0.1	0	1	384	0.2	384	385	15.0	90.3
2025-09-04T23:24	10	0	0.1	0	1	384	0.2	383	384	15.0	90.6
2025-09-04T23:25	10	0	0.1	0	1	384	0.2	384	385	15.0	90.9
2025-09-04T23:26	10	0	0.1	0	1	384	0.2	383	384	14.9	91.1
2025-09-04T23:27	10	0	0.1	0	1	384	0.2	383	385	15.0	90.8
2025-09-04T23:28	10	0	0.1	0	1	384	0.2	383	384	14.9	90.9
2025-09-04T23:29	10	0	0.1	0	1	384	0.2	383	384	15.0	90.5
2025-09-04T23:30	10	0	0.1	0	0	384	0.3	383	384	15.0	90.9
2025-09-04T23:31	10	0	0.1	0	0	384	0.2	383	384	14.9	91.1
2025-09-04T23:32	10	0	0.1	0	1	384	0.3	383	385	14.9	91.1
2025-09-04T23:33	10	0	0.1	0	1	384	0.3	383	384	14.9	91.1
2025-09-04T23:34	10	0	0.1	0	1	384	0.2	383	384	14.9	91.5
2025-09-04T23:35	10	0	0.1	0	1	384	0.2	383	384	14.9	91.8
2025-09-04T23:36	10	0	0.1	0	0	384	0.2	383	384	14.9	91.5
2025-09-04T23:37	10	0	0.1	0	0	384	0.2	383	384	14.9	91.5
2025-09-04T23:38	10	0	0.1	0	1	384	0.2	383	384	14.8	91.8
2025-09-04T23:39	10	0	0.1	0	0	384	0.2	383	384	14.8	91.8
2025-09-04T23:40	10	0	0.1	0	0	384	0.2	383	384	14.8	92.0
2025-09-04T23:41	10	0	0.1	0	1	383	0.2	383	384	14.8	92.3
2025-09-04T23:42	10	0	0.1	0	1	383	0.2	383	384	14.8	92.3
2025-09-04T23:43	10	0	0.1	0	1	384	0.2	383	384	14.8	92.2
2025-09-04T23:44	10	0	0.1	0	1	383	0.2	383	383	14.8	92.4
2025-09-04T23:45	10	0	0.1	0	1	383	0.2	383	384	14.8	92.3
2025-09-04T23:46	10	0	0.1	0	1	383	0.2	383	384	14.8	92.3
2025-09-04T23:47	10	0	0.1	0	1	383	0.3	383	384	14.8	92.2
2025-09-04T23:48	10	0	0.1	0	1	383	0.2	383	384	14.8	92.5
2025-09-04T23:49	10	0	0.1	0	0	383	0.2	383	384	14.8	92.4
2025-09-04T23:50	10	0	0.1	0	0	383	0.2	383	383	14.7	92.6
2025-09-04T23:51	10	0	0.1	0	0	384	0.2	383	384	14.7	92.6
2025-09-04T23:52	10	0	0.1	0	1	384	0.2	383	384	14.8	92.1
2025-09-04T23:53	10	0	0.1	0	1	384	0.2	383	384	14.9	91.7
2025-09-04T23:54	10	0	0.1	0	0	384	0.2	383	384	14.9	91.5
2025-09-04T23:55	10	0	0.1	0	0	384	0.2	383	384	14.9	91.8
2025-09-04T23:56	10	0	0.1	0	0	384	0.3	383	384	14.8	92.4
2025-09-04T23:57	10	0	0.1	0	0	384	0.2	383	384	14.8	92.4
2025-09-04T23:58	10	0	0.0	0	0	384	0.2	383	384	14.9	91.7
2025-09-04T23:59	10	0	0.1	0	1	384	0.2	383	384	14.9	91.6
2025-09-05T00:00	10	0	0.1	0	0	384	0.3	383	384	14.9	91.7
2025-09-05T00:01	10	0	0.1	0	0	384	0.3	383	384	14.9	91.9
2025-09-05T00:02	10	0	0.1	0	1	384	0.3	383	384	14.9	91.6
2025-09-05T00:03	10	0	0.1	0	0	384	0.2	383	384	14.9	91.6
2025-09-05T00:04	10	0	0.1	0	1	384	0.3	383	384	14.9	91.5
2025-09-05T00:05	10	0	0.1	0	1	384	0.2	384	385	14.9	91.2
2025-09-05T00:06	10	0	0.1	0	0	384	0.3	383	384	14.9	91.0
2025-09-05T00:07	10	0	0.1	0	1	384	0.3	383	385	14.9	91.1
2025-09-05T00:08	10	0	0.1	0	1	384	0.3	384	385	14.9	91.2
2025-09-05T00:09	10	0	0.1	0	1	384	0.3	383	385	15.0	90.1
2025-09-05T00:10	10	0	0.1	0	1	384	0.3	383	384	15.1	88.6
2025-09-05T00:11	10	0	0.1	0	1	384	0.3	383	384	15.1	89.5
2025-09-05T00:12	10	0	0.1	0	1	384	0.2	384	385	15.1	89.2
2025-09-05T00:13	10	0	0.1	0	1	384	0.2	384	385	15.1	88.9
2025-09-05T00:14	10	0	0.1	0	1	384	0.2	384	385	15.1	88.9
2025-09-05T00:15	10	0	0.1	0	0	384	0.3	384	385	15.1	89.5
2025-09-05T00:16	10	0	0.1	0	0	384	0.2	384	385	15.1	88.9
2025-09-05T00:17	10	0	0.1	0	0	384	0.3	383	385	15.2	88.5
2025-09-05T00:18	10	0	0.1	0	0	384	0.2	384	385	15.2	87.7
2025-09-05T00:19	10	0	0.1	0	0	384	0.2	384	385	15.2	88.1
2025-09-05T00:20	10	0	0.1	0	0	384	0.2	384	385	15.2	87.9
2025-09-05T00:21	10	0	0.1	0	0	384	0.2	383	385	15.1	88.3
2025-09-05T00:22	10	0	0.1	0	0	384	0.2	384	385	15.1	88.6
2025-09-05T00:23	10	0	0.1	0	1	384	0.2	384	385	15.1	87.8
2025-09-05T00:24	10	0	0.1	0	0	384	0.2	384	385	15.1	87.9
2025-09-05T00:25	10	0	0.1	0	1	384	0.2	384	385	15.1	87.5
2025-09-05T00:26	10	0	0.1	0	1	384	0.2	384	385	15.1	87.6
2025-09-05T00:27	10	0	0.1	0	0	384	0.2	384	385	15.1	87.8
2025-09-05T00:28	10	0	0.1	0	0	384	0.3	384	385	15.1	87.9
2025-09-05T00:29	10	0	0.1	0	0	384	0.2	384	385	15.2	87.7
2025-09-05T00:30	10	0	0.1	0	0	384	0.2	384	385	15.1	88.3
2025-09-05T00:31	10	0	0.1	0	0	384	0.2	384	385	15.1	89.0
2025-09-05T00:32	10	0	0.1	0	0	384	0.2	384	385	15.1	89.2
2025-09-05T00:33	10	0	0.1	0	0	384	0.2	384	384	15.1	89.6
2025-09-05T00:34	10	0	0.1	0	0	384	0.2	384	385	15.1	89.6
2025-09-05T00:35	10	0	0.1	0	0	384	0.2	384	385	15.1	89.5
2025-09-05T00:36	10	0	0.1	0	0	384	0.2	384	385	15.0	89.9
2025-09-05T00:37	10	0	0.1	0	0	384	0.2	384	385	15.0	90.1
2025-09-05T00:38	10	0	0.1	0	0	384	0.2	383	384	15.0	90.2
2025-09-05T00:39	10	0	0.1	0	0	384	0.2	384	385	15.0	90.4
2025-09-05T00:40	10	0	0.1	0	0	384	0.2	384	385	15.0	90.6
2025-09-05T00:41	10	0	0.1	0	0	384	0.2	384	385	14.9	90.9
2025-09-05T00:42	10	0	0.1	0	0	384	0.2	383	384	14.9	91.3
2025-09-05T00:43	10	0	0.1	0	0	384	0.2	383	384	14.9	91.2
2025-09-05T00:44	10	0	0.1	0	0	384	0.2	383	384	14.9	91.6
2025-09-05T00:45	10	0	0.1	0	0	384	0.3	383	385	14.9	91.1
2025-09-05T00:46	10	0	0.1	0	0	384	0.2	384	385	14.9	91.3
2025-09-05T00:47	10	0	0.1	0	0	384	0.2	384	385	14.9	91.1
2025-09-05T00:48	10	0	0.1	0	0	384	0.2	384	385	14.9	91.4
2025-09-05T00:49	10	0	0.1	0	0	384	0.2	384	384	14.9	91.1
2025-09-05T00:50	10	0	0.1	0	0	384	0.2	383	384	14.9	91.4
2025-09-05T00:51	10	0	0.1	0	0	384	0.2	384	385	14.9	91.2
2025-09-05T00:52	10	0	0.1	0	0	384	0.2	384	384	14.9	91.3
2025-09-05T00:53	10	0	0.1	0	0	384	0.2	384	384	14.9	91.4
2025-09-05T00:54	10	0	0.0	0	0	384	0.2	384	384	14.9	91.9
2025-09-05T00:55	10	0	0.1	0	0	384	0.2	383	384	14.8	92.0
2025-09-05T00:56	10	0	0.1	0	0	384	0.2	384	384	14.8	92.1
2025-09-05T00:57	10	0	0.1	0	0	384	0.2	383	384	14.8	92.1
2025-09-05T00:58	10	0	0.1	0	0	384	0.2	383	384	14.8	92.0
2025-09-05T00:59	10	0	0.0	0	0	384	0.2	383	384	14.8	92.0
2025-09-05T01:00	10	0	0.1	0	0	384	0.2	383	384	14.8	92.2
2025-09-05T01:01	10	0	0.1	0	0	384	0.2	383	384	14.8	92.3
2025-09-05T01:02	10	0	0.1	0	0	384	0.2	383	384	14.8	92.5
2025-09-05T01:03	10	0	0.1	0	0	384	0.2	383	384	14.7	92.6
2025-09-05T01:04	10	0	0.0	0	0	384	0.2	383	384	14.7	92.7
2025-09-05T01:05	10	0	0.1	0	0	384	0.2	383	384	14.7	93.2
2025-09-05T01:06	10	0	0.1	0	0	384	0.2	383	384	14.7	93.7
2025-09-05T01:07	10	0	0.1	0	0	384	0.2	383	384	14.7	93.5
2025-09-05T01:08	10	0	0.1	0	0	384	0.2	383	384	14.7	93.5
2025-09-05T01:09	10	0	0.0	0	0	384	0.2	383	384	14.7	93.1
2025-09-05T01:10	10	0	0.1	0	0	384	0.2	383	384	14.7	93.5
2025-09-05T01:11	10	0	0.1	0	0	384	0.3	383	384	14.7	93.3
2025-09-05T01:12	10	0	0.1	0	0	384	0.2	383	384	14.7	93.1
2025-09-05T01:13	10	0	0.1	0	0	383	0.2	383	384	14.7	93.2
2025-09-05T01:14	10	0	0.1	0	0	384	0.2	383	384	14.7	93.0
2025-09-05T01:15	10	0	0.1	0	0	384	0.2	383	384	14.7	92.8
2025-09-05T01:16	10	0	0.1	0	0	384	0.3	383	384	14.8	92.5
2025-09-05T01:17	10	0	0.1	0	0	384	0.2	383	384	14.8	92.5
2025-09-05T01:18	10	0	0.1	0	0	384	0.2	383	384	14.8	92.4
2025-09-05T01:19	10	0	0.1	0	0	384	0.2	383	384	14.8	92.4
2025-09-05T01:20	10	0	0.1	0	0	384	0.3	383	384	14.8	92.7
2025-09-05T01:21	10	0	0.1	0	0	384	0.3	383	384	14.8	92.7
2025-09-05T01:22	10	0	0.1	0	0	384	0.2	383	384	14.7	93.1
2025-09-05T01:23	10	0	0.1	0	0	383	0.3	383	384	14.7	93.1
2025-09-05T01:24	10	0	0.1	0	0	383	0.2	383	384	14.7	92.7
2025-09-05T01:25	10	0	0.1	0	0	384	0.2	383	384	14.8	92.8
2025-09-05T01:26	10	0	0.1	0	0	384	0.2	383	384	14.8	92.7
2025-09-05T01:27	10	0	0.1	0	0	384	0.2	383	384	14.7	93.1
2025-09-05T01:28	10	0	0.1	0	0	384	0.2	383	384	14.7	93.1
2025-09-05T01:29	10	0	0.1	0	0	384	0.2	383	384	14.7	92.9
2025-09-05T01:30	10	0	0.1	0	0	384	0.3	383	384	14.8	92.8
2025-09-05T01:31	10	0	0.1	0	1	384	0.2	383	384	14.8	92.3
2025-09-05T01:32	10	0	0.1	0	0	384	0.2	383	384	14.8	92.2
2025-09-05T01:33	10	0	0.1	0	0	384	0.2	384	385	14.8	92.3
2025-09-05T01:34	10	0	0.1	0	0	384	0.2	383	384	14.8	92.4
2025-09-05T01:35	10	0	0.1	0	1	384	0.2	383	384	14.8	92.4
2025-09-05T01:36	10	0	0.1	0	1	384	0.2	383	384	14.8	92.3
2025-09-05T01:37	10	0	0.1	0	0	384	0.2	383	384	14.8	92.4
2025-09-05T01:38	10	0	0.1	0	1	384	0.2	383	384	14.8	93.0
2025-09-05T01:39	10	0	0.1	0	0	384	0.2	383	384	14.8	93.0
2025-09-05T01:40	10	0	0.1	0	0	384	0.2	383	384	14.8	93.2
2025-09-05T01:41	10	0	0.1	0	1	384	0.3	383	384	14.8	92.6
2025-09-05T01:42	10	0	0.1	0	1	384	0.2	383	384	14.8	92.2
2025-09-05T01:43	10	0	0.1	0	0	384	0.2	383	384	14.9	91.8
2025-09-05T01:44	10	0	0.1	0	0	384	0.2	383	384	14.9	91.7
2025-09-05T01:45	10	0	0.1	0	1	383	0.3	383	384	14.9	91.4
2025-09-05T01:46	10	0	0.1	0	1	383	0.2	383	384	14.9	90.6
2025-09-05T01:47	10	0	0.1	0	1	383	0.2	383	384	14.9	90.6
2025-09-05T01:48	10	0	0.1	0	1	383	0.3	382	383	14.9	90.9
2025-09-05T01:49	10	0	0.1	0	0	383	0.2	382	383	14.9	90.5
2025-09-05T01:50	10	0	0.0	0	0	383	0.3	382	384	15.0	89.5
2025-09-05T01:51	10	0	0.1	0	0	383	0.3	382	384	15.1	87.9
2025-09-05T01:52	10	0	0.1	0	0	382	0.3	382	383	15.1	88.5
2025-09-05T01:53	10	0	0.1	0	0	383	0.2	382	383	15.0	89.4
2025-09-05T01:54	10	0	0.1	0	0	383	0.2	382	383	15.1	89.5
2025-09-05T01:55	10	0	0.1	0	0	383	0.2	382	383	15.1	89.3
2025-09-05T01:56	10	0	0.1	0	0	383	0.2	382	383	15.0	89.5
2025-09-05T01:57	10	0	0.1	0	0	383	0.2	382	383	15.0	89.8
2025-09-05T01:58	10	0	0.1	0	1	383	0.2	382	383	15.0	89.8
2025-09-05T01:59	10	0	0.2	0	1	383	0.3	382	384	15.1	88.7
2025-09-05T02:00	10	0	0.1	0	0	383	0.3	382	383	15.1	88.7
2025-09-05T02:01	10	0	0.1	0	1	383	0.3	382	383	15.1	89.0
2025-09-05T02:02	10	0	0.1	0	0	382	0.3	382	383	15.0	89.5
2025-09-05T02:03	10	0	0.1	0	0	382	0.3	381	383	15.0	89.6
2025-09-05T02:04	10	0	0.1	0	0	382	0.3	381	382	15.0	89.7
2025-09-05T02:05	10	0	0.1	0	1	382	0.3	381	382	14.9	90.3
2025-09-05T02:06	10	0	0.1	0	0	382	0.2	381	382	14.9	90.6
2025-09-05T02:07	10	0	0.1	0	1	382	0.2	382	383	14.9	90.6
2025-09-05T02:08	10	0	0.1	0	0	382	0.2	382	383	14.9	91.0
2025-09-05T02:09	10	0	0.1	0	1	382	0.2	382	383	14.8	91.1
2025-09-05T02:10	10	0	0.1	0	0	382	0.2	382	383	14.8	91.2
2025-09-05T02:11	10	0	0.1	0	1	383	0.2	382	383	14.8	91.1
2025-09-05T02:12	10	0	0.1	0	1	383	0.2	382	383	14.8	91.0
2025-09-05T02:13	10	0	0.0	0	0	383	0.2	382	383	14.8	90.8
2025-09-05T02:14	10	0	0.1	0	1	383	0.3	382	383	14.9	89.9
2025-09-05T02:15	10	0	0.1	0	0	382	0.2	382	383	14.9	90.0
2025-09-05T02:16	10	0	0.0	0	0	382	0.2	381	382	14.9	89.6
2025-09-05T02:17	10	0	0.1	0	0	381	0.2	381	382	14.9	90.1
2025-09-05T02:18	10	0	0.1	0	0	382	0.3	381	382	14.9	90.2
2025-09-05T02:19	10	0	0.1	0	0	381	0.2	381	382	14.9	89.5
2025-09-05T02:20	10	0	0.1	0	0	381	0.2	381	382	14.9	90.1
2025-09-05T02:21	10	0	0.1	0	1	382	0.2	381	382	14.9	89.8
2025-09-05T02:22	10	0	0.1	0	0	382	0.2	381	382	14.9	89.7
2025-09-05T02:23	10	0	0.1	0	0	382	0.2	381	382	14.9	89.6
2025-09-05T02:24	10	0	0.1	0	0	381	0.3	381	382	14.8	89.8
2025-09-05T02:25	10	0	0.1	0	1	381	0.2	380	382	14.8	89.9
2025-09-05T02:26	10	0	0.1	0	1	381	0.2	380	381	14.8	89.9
2025-09-05T02:27	10	0	0.1	0	1	380	0.2	380	381	14.8	90.1
2025-09-05T02:28	10	0	0.1	0	0	380	0.2	380	381	14.7	90.6
2025-09-05T02:29	10	0	0.1	0	1	380	0.2	380	381	14.8	90.3
2025-09-05T02:30	10	0	0.1	0	1	380	0.2	380	381	14.7	90.5
2025-09-05T02:31	10	0	0.1	0	1	381	0.2	380	382	14.7	90.5
2025-09-05T02:32	10	0	0.1	0	0	381	0.2	380	381	14.7	90.7
2025-09-05T02:33	10	0	0.1	0	0	381	0.2	381	382	14.7	90.4
2025-09-05T02:34	10	0	0.1	0	0	381	0.2	381	382	14.7	90.7
2025-09-05T02:35	10	0	0.1	0	0	382	0.2	381	382	14.7	90.6
2025-09-05T02:36	10	0	0.1	0	0	382	0.3	382	383	14.7	90.6
2025-09-05T02:37	10	0	0.1	0	0	382	0.2	382	383	14.7	90.9
2025-09-05T02:38	10	0	0.1	0	1	382	0.2	382	383	14.6	91.4
2025-09-05T02:39	10	0	0.1	0	0	382	0.2	382	383	14.6	91.7
2025-09-05T02:40	10	0	0.1	0	0	382	0.2	381	382	14.6	91.8
2025-09-05T02:41	10	0	0.1	0	1	382	0.2	381	382	14.6	91.9
2025-09-05T02:42	10	0	0.2	0	1	381	0.3	381	382	14.6	91.8
2025-09-05T02:43	10	0	0.1	0	0	381	0.3	380	381	14.6	91.9
2025-09-05T02:44	10	0	0.2	0	1	380	0.3	380	381	14.6	92.1
2025-09-05T02:45	10	0	0.1	0	1	380	0.4	379	381	14.6	92.2
2025-09-05T02:46	10	0	0.1	0	1	379	0.4	378	380	14.5	92.1
2025-09-05T02:47	10	0	0.1	0	1	379	0.2	378	379	14.5	92.3
2025-09-05T02:48	10	0	0.1	0	0	379	0.3	378	379	14.5	92.3
2025-09-05T02:49	10	0	0.1	0	0	379	0.3	378	380	14.5	92.5
2025-09-05T02:50	10	0	0.1	0	0	379	0.3	379	380	14.5	92.5
2025-09-05T02:51	10	0	0.2	0	1	380	0.2	379	380	14.5	92.3
2025-09-05T02:52	10	0	0.1	0	1	380	0.2	380	380	14.6	92.3
2025-09-05T02:53	10	0	0.1	0	0	380	0.3	380	381	14.5	92.6
2025-09-05T02:54	10	0	0.1	0	0	380	0.2	380	381	14.5	92.9
2025-09-05T02:55	10	0	0.1	0	0	381	0.2	380	381	14.5	92.8
2025-09-05T02:56	10	0	0.1	0	0	381	0.2	380	381	14.5	92.9
2025-09-05T02:57	10	0	0.1	0	1	381	0.2	380	381	14.5	92.8
2025-09-05T02:58	10	0	0.1	0	0	381	0.3	380	381	14.5	92.9
2025-09-05T02:59	10	0	0.1	0	0	381	0.2	381	382	14.4	93.1
2025-09-05T03:00	10	0	0.2	0	1	381	0.2	380	381	14.4	93.2
2025-09-05T03:01	10	0	0.1	0	0	381	0.2	381	382	14.4	93.3
2025-09-05T03:02	10	0	0.1	0	0	381	0.2	381	382	14.4	93.1
2025-09-05T03:03	10	0	0.1	0	0	381	0.2	381	382	14.4	93.2
2025-09-05T03:04	10	0	0.1	0	0	381	0.2	381	382	14.4	92.8
2025-09-05T03:05	10	0	0.1	0	0	381	0.2	381	382	14.4	93.0
2025-09-05T03:06	10	0	0.1	0	0	381	0.2	381	382	14.4	92.8
2025-09-05T03:07	10	0	0.1	0	0	382	0.3	381	382	14.4	92.8
2025-09-05T03:08	10	0	0.1	0	1	382	0.3	381	382	14.4	93.0
2025-09-05T03:09	10	0	0.1	0	0	381	0.3	381	382	14.4	93.1
2025-09-05T03:10	10	0	0.2	0	1	382	0.3	381	383	14.4	92.9
2025-09-05T03:11	10	0	0.2	0	1	382	0.3	381	383	14.4	93.1
2025-09-05T03:12	10	0	0.2	0	1	382	0.3	381	382	14.4	93.4
2025-09-05T03:13	10	0	0.1	0	1	382	0.2	381	383	14.4	93.0
2025-09-05T03:14	10	0	0.1	0	0	382	0.2	381	382	14.4	92.8
2025-09-05T03:15	10	0	0.1	0	1	382	0.2	381	382	14.4	93.0
2025-09-05T03:16	10	0	0.1	0	1	382	0.2	381	382	14.4	92.7
2025-09-05T03:17	10	0	0.1	0	1	382	0.3	381	383	14.4	92.7
2025-09-05T03:18	10	0	0.1	0	1	382	0.3	381	383	14.4	91.9
2025-09-05T03:19	10	0	0.1	0	1	382	0.2	382	383	14.5	91.3
2025-09-05T03:20	10	0	0.1	0	1	382	0.2	381	383	14.6	90.1
2025-09-05T03:21	10	0	0.1	0	1	382	0.2	381	382	14.6	90.0
2025-09-05T03:22	10	0	0.2	0	1	382	0.2	381	382	14.6	90.2
2025-09-05T03:23	10	0	0.1	0	1	382	0.3	381	382	14.6	89.9
2025-09-05T03:24	10	0	0.1	0	1	382	0.2	382	382	14.6	89.9
2025-09-05T03:25	10	0	0.1	0	1	382	0.2	382	382	14.6	89.0
2025-09-05T03:26	10	0	0.1	0	0	382	0.2	381	382	14.6	89.1
2025-09-05T03:27	10	0	0.1	0	1	382	0.2	381	382	14.6	89.6
2025-09-05T03:28	10	0	0.1	0	1	382	0.3	381	382	14.6	89.8
2025-09-05T03:29	10	0	0.2	0	1	382	0.2	381	383	14.6	89.5
2025-09-05T03:30	10	0	0.1	0	1	382	0.3	381	383	14.6	89.2
2025-09-05T03:31	10	0	0.1	0	1	382	0.2	381	382	14.6	89.1
2025-09-05T03:32	10	0	0.1	0	1	382	0.3	381	383	14.6	88.9
2025-09-05T03:33	10	0	0.1	0	1	382	0.3	381	382	14.6	88.9
2025-09-05T03:34	10	0	0.2	0	1	382	0.2	381	382	14.6	88.5
2025-09-05T03:35	10	0	0.2	0	1	382	0.3	381	382	14.6	89.0
2025-09-05T03:36	10	0	0.2	0	1	382	0.3	381	382	14.6	88.6
2025-09-05T03:37	10	0	0.1	0	0	382	0.3	381	382	14.6	88.6
2025-09-05T03:38	10	0	0.1	0	0	382	0.3	381	382	14.6	88.8
2025-09-05T03:39	10	0	0.1	0	0	382	0.2	381	382	14.6	88.7
2025-09-05T03:40	10	0	0.2	0	1	382	0.4	381	383	14.6	86.2
2025-09-05T03:41	10	0	0.2	0	1	382	0.4	381	382	14.8	83.9
2025-09-05T03:42	10	0	0.1	0	1	381	0.3	381	382	14.8	84.3
2025-09-05T03:43	10	0	0.1	0	0	382	0.3	381	382	14.8	83.0
2025-09-05T03:44	10	0	0.1	0	1	381	0.3	381	382	14.8	83.4
2025-09-05T03:45	10	0	0.1	0	1	382	0.2	381	382	14.8	83.9
2025-09-05T03:46	10	0	0.1	0	1	382	0.3	381	382	14.7	84.6
2025-09-05T03:47	10	0	0.2	0	1	382	0.2	381	382	14.7	84.3
2025-09-05T03:48	10	0	0.1	0	1	382	0.2	381	382	14.7	84.7
2025-09-05T03:49	10	0	0.2	0	1	382	0.2	381	382	14.7	84.6
2025-09-05T03:50	10	0	0.2	0	1	381	0.2	381	382	14.7	85.7
2025-09-05T03:51	10	0	0.2	0	1	382	0.2	381	382	14.7	86.5
2025-09-05T03:52	10	0	0.2	0	1	382	0.2	381	382	14.7	87.0
2025-09-05T03:53	10	0	0.1	0	0	382	0.2	382	383	14.7	87.1
2025-09-05T03:54	10	0	0.1	0	1	382	0.3	381	383	14.7	86.4
2025-09-05T03:55	10	0	0.1	0	0	382	0.2	381	382	14.7	86.5
2025-09-05T03:56	10	0	0.1	0	1	382	0.2	381	382	14.6	87.2
2025-09-05T03:57	10	0	0.1	0	1	382	0.2	381	382	14.7	85.5
2025-09-05T03:58	10	0	0.2	0	1	382	0.2	381	382	14.8	84.3
2025-09-05T03:59	10	0	0.2	0	1	382	0.2	381	382	14.7	85.1
2025-09-05T04:00	10	0	0.2	0	1	382	0.2	381	382	14.7	85.1
2025-09-05T04:01	10	0	0.1	0	1	382	0.2	381	382	14.7	85.7
2025-09-05T04:02	10	0	0.1	0	0	382	0.2	381	382	14.7	85.6
2025-09-05T04:03	10	0	0.1	0	1	382	0.2	381	382	14.7	85.4
2025-09-05T04:04	10	0	0.1	0	0	382	0.2	381	382	14.7	85.3
2025-09-05T04:05	10	0	0.1	0	1	382	0.2	381	382	14.6	86.0
2025-09-05T04:06	10	0	0.2	0	1	382	0.2	381	382	14.6	86.2
2025-09-05T04:07	10	0	0.2	0	1	382	0.3	381	382	14.6	86.7
2025-09-05T04:08	10	0	0.2	0	1	382	0.2	381	382	14.6	86.2
2025-09-05T04:09	10	0	0.1	0	0	381	0.2	381	382	14.6	86.8
2025-09-05T04:10	10	0	0.1	0	1	381	0.2	381	382	14.5	86.8
2025-09-05T04:11	10	0	0.1	0	0	381	0.2	381	382	14.5	86.4
2025-09-05T04:12	10	0	0.1	0	0	381	0.2	381	382	14.6	85.8
2025-09-05T04:13	10	0	0.1	0	0	381	0.3	380	382	14.6	85.4
2025-09-05T04:14	10	0	0.1	0	1	381	0.3	380	382	14.6	85.8
2025-09-05T04:15	10	0	0.1	0	1	381	0.2	381	382	14.5	86.3
2025-09-05T04:16	10	0	0.1	0	1	381	0.2	380	381	14.5	87.0
2025-09-05T04:17	10	0	0.2	0	1	381	0.2	380	382	14.4	87.6
2025-09-05T04:18	10	0	0.1	0	0	381	0.3	381	382	14.4	87.3
2025-09-05T04:19	10	0	0.1	0	1	381	0.2	380	381	14.4	87.8
2025-09-05T04:20	10	0	0.2	0	1	381	0.3	380	382	14.4	88.4
2025-09-05T04:21	10	0	0.2	0	1	381	0.3	380	381	14.4	88.2
2025-09-05T04:22	10	0	0.2	0	1	380	0.3	380	381	14.3	88.7
2025-09-05T04:23	10	0	0.1	0	1	380	0.2	380	381	14.3	88.3
2025-09-05T04:24	10	0	0.2	0	1	380	0.2	380	381	14.3	88.2
2025-09-05T04:25	10	0	0.1	0	1	380	0.3	379	381	14.3	88.4
2025-09-05T04:26	10	0	0.2	0	1	380	0.3	379	381	14.3	87.7
2025-09-05T04:27	10	0	0.1	0	1	380	0.2	380	381	14.3	88.3
2025-09-05T04:28	10	0	0.2	0	1	380	0.3	379	381	14.3	86.9
2025-09-05T04:29	10	0	0.2	0	1	380	0.3	379	380	14.3	86.8
2025-09-05T04:30	10	0	0.2	0	1	379	0.2	379	380	14.4	86.4
2025-09-05T04:31	10	0	0.2	0	1	379	0.3	378	380	14.3	86.5
2025-09-05T04:32	10	0	0.1	0	1	379	0.3	378	379	14.3	85.8
2025-09-05T04:33	10	0	0.1	0	1	378	0.3	378	379	14.4	85.3
2025-09-05T04:34	10	0	0.2	0	1	378	0.2	377	378	14.4	84.4
2025-09-05T04:35	10	0	0.1	0	0	377	0.3	376	378	14.3	85.3
2025-09-05T04:36	10	0	0.2	0	1	377	0.3	376	377	14.3	85.2
2025-09-05T04:37	10	0	0.1	0	0	376	0.4	375	377	14.3	85.8
2025-09-05T04:38	10	0	0.1	0	1	376	0.3	375	376	14.2	85.8
2025-09-05T04:39	10	0	0.1	0	1	375	0.2	375	376	14.3	85.0
2025-09-05T04:40	10	0	0.2	0	1	375	0.3	374	375	14.2	86.1
2025-09-05T04:41	10	0	0.2	0	1	374	0.2	374	375	14.2	85.8
2025-09-05T04:42	10	0	0.2	0	1	374	0.3	373	375	14.2	86.0
2025-09-05T04:43	10	0	0.1	0	1	374	0.3	373	374	14.2	86.4
2025-09-05T04:44	10	0	0.1	0	1	374	0.2	373	374	14.2	86.6
2025-09-05T04:45	10	0	0.1	0	1	374	0.2	373	374	14.1	86.8
2025-09-05T04:46	10	0	0.2	0	1	373	0.3	373	374	14.1	87.8
2025-09-05T04:47	10	0	0.1	0	1	373	0.2	373	374	14.0	88.3
2025-09-05T04:48	10	0	0.2	0	1	373	0.2	372	374	14.0	88.7
2025-09-05T04:49	10	0	0.1	0	1	372	0.3	372	373	13.9	88.8
2025-09-05T04:50	10	0	0.1	0	1	373	0.3	372	374	14.0	86.6
2025-09-05T04:51	10	0	0.1	0	1	373	0.2	372	373	13.9	87.0
2025-09-05T04:52	10	1	0.2	0	1	372	0.3	372	373	13.9	87.3
2025-09-05T04:53	10	1	0.1	0	1	372	0.3	372	373	13.8	88.3
2025-09-05T04:54	10	1	0.2	0	1	373	0.3	372	373	13.8	86.8
2025-09-05T04:55	10	1	0.2	0	1	373	0.3	372	374	13.9	85.0
2025-09-05T04:56	10	1	0.2	0	1	373	0.2	373	374	14.0	83.8
2025-09-05T04:57	10	1	0.2	0	1	373	0.2	373	374	13.9	85.2
2025-09-05T04:58	10	1	0.1	0	1	373	0.2	372	373	13.7	86.2
2025-09-05T04:59	10	1	0.1	0	1	373	0.2	373	374	13.7	86.0
2025-09-05T05:00	10	1	0.1	1	1	373	0.2	373	373	13.6	86.8
2025-09-05T05:01	10	1	0.1	1	1	374	0.3	373	374	13.6	87.4
2025-09-05T05:02	10	1	0.1	1	1	374	0.3	373	374	13.6	87.5
2025-09-05T05:03	10	1	0.1	1	1	374	0.3	374	375	13.5	88.0
2025-09-05T05:04	10	1	0.1	1	1	375	0.3	374	375	13.5	88.1
2025-09-05T05:05	10	1	0.1	1	1	375	0.2	375	376	13.6	87.4
2025-09-05T05:06	10	2	0.2	1	2	375	0.2	375	376	13.6	87.5
2025-09-05T05:07	10	2	0.2	2	2	376	0.2	376	376	13.6	87.9
2025-09-05T05:08	10	3	0.2	2	3	376	0.3	376	377	13.6	87.7
2025-09-05T05:09	10	3	0.3	3	4	377	0.3	376	377	13.7	87.6
2025-09-05T05:10	10	4	0.3	4	5	377	0.3	376	378	13.8	87.3
2025-09-05T05:11	10	5	0.2	5	5	377	0.2	377	378	13.8	87.0
2025-09-05T05:12	10	6	0.2	5	6	378	0.2	378	378	13.9	87.0
2025-09-05T05:13	10	6	0.1	6	7	378	0.2	378	379	13.9	87.4
2025-09-05T05:14	10	7	0.1	6	7	379	0.2	378	379	13.9	87.6
2025-09-05T05:15	10	7	0.2	7	8	379	0.2	378	379	13.9	87.7
2025-09-05T05:16	10	8	0.3	8	8	379	0.2	378	380	13.9	88.1
2025-09-05T05:17	10	9	0.3	8	9	379	0.2	379	379	13.9	88.2
2025-09-05T05:18	10	9	0.2	9	10	379	0.2	379	380	13.9	88.6
2025-09-05T05:19	10	10	0.2	9	10	379	0.3	379	380	13.9	88.3
2025-09-05T05:20	10	11	0.3	10	11	380	0.2	379	381	13.9	88.1
2025-09-05T05:21	10	11	0.1	11	11	380	0.2	379	380	13.9	88.4
2025-09-05T05:22	10	11	0.1	11	12	380	0.3	379	381	13.9	88.2
2025-09-05T05:23	10	11	0.1	11	12	380	0.2	380	381	13.9	88.0
2025-09-05T05:24	10	11	0.1	11	11	381	0.2	380	381	13.9	88.5
2025-09-05T05:25	10	11	0.2	11	11	381	0.3	380	381	14.0	88.1
2025-09-05T05:26	10	10	0.2	10	11	381	0.2	381	382	14.0	88.1
2025-09-05T05:27	10	10	0.1	10	10	381	0.3	381	382	14.1	87.8
2025-09-05T05:28	10	9	0.1	9	10	381	0.2	381	382	14.1	87.9
2025-09-05T05:29	10	9	0.1	9	9	381	0.3	380	382	14.1	87.9
2025-09-05T05:30	10	9	0.1	8	9	381	0.3	381	382	14.2	87.7
2025-09-05T05:31	10	8	0.2	8	9	381	0.2	381	382	14.2	87.5
2025-09-05T05:32	10	7	0.2	7	8	381	0.2	381	382	14.2	87.9
2025-09-05T05:33	10	7	0.3	6	7	381	0.2	381	382	14.2	88.0
2025-09-05T05:34	10	6	0.2	5	6	381	0.2	381	382	14.2	88.2
2025-09-05T05:35	10	5	0.2	5	5	381	0.2	380	382	14.2	88.3
2025-09-05T05:36	10	5	0.1	4	5	381	0.2	381	381	14.2	88.3
2025-09-05T05:37	10	4	0.1	4	4	381	0.3	380	381	14.2	88.1
2025-09-05T05:38	10	4	0.1	4	4	381	0.2	381	381	14.2	88.1
2025-09-05T05:39	10	3	0.1	3	4	381	0.2	380	381	14.2	87.9
2025-09-05T05:40	10	3	0.1	3	3	381	0.2	380	381	14.3	87.5
2025-09-05T05:41	10	3	0.1	3	3	381	0.2	380	381	14.3	87.7
2025-09-05T05:42	10	3	0.1	3	3	380	0.3	380	381	14.2	88.1
2025-09-05T05:43	10	3	0.1	3	3	380	0.3	379	381	14.2	86.7
2025-09-05T05:44	10	3	0.1	2	3	380	0.3	379	380	14.1	87.3
2025-09-05T05:45	10	2	0.1	2	3	379	0.3	378	380	14.0	86.9
2025-09-05T05:46	10	2	0.1	2	2	379	0.2	378	379	14.0	87.7
2025-09-05T05:47	10	2	0.1	2	2	378	0.2	378	379	13.9	88.5
2025-09-05T05:48	10	2	0.1	2	2	378	0.2	378	379	13.7	89.0
2025-09-05T05:49	10	2	0.1	2	2	378	0.2	378	379	13.7	88.5
2025-09-05T05:50	10	2	0.1	2	2	378	0.2	377	378	13.6	88.1
2025-09-05T05:51	10	2	0.1	2	2	377	0.2	377	378	13.6	88.0
2025-09-05T05:52	10	2	0.1	1	2	377	0.2	377	377	13.5	88.7
2025-09-05T05:53	10	2	0.1	2	2	377	0.2	376	377	13.4	89.8
2025-09-05T05:54	10	2	0.1	2	2	377	0.2	376	377	13.4	89.5
2025-09-05T05:55	10	2	0.1	2	2	377	0.2	376	377	13.4	88.7
2025-09-05T05:56	10	2	0.1	2	2	376	0.2	376	377	13.3	88.6
2025-09-05T05:57	10	2	0.1	2	3	376	0.3	376	377	13.3	88.5
2025-09-05T05:58	10	3	0.1	2	3	376	0.3	376	377	13.3	89.1
2025-09-05T05:59	10	3	0.1	3	3	377	0.3	376	377	13.3	88.8
2025-09-05T06:00	10	3	0.1	3	3	377	0.3	376	377	13.4	87.3
2025-09-05T06:01	10	3	0.1	3	3	377	0.2	376	377	13.4	86.7
2025-09-05T06:02	10	3	0.1	3	3	377	0.3	376	377	13.4	86.6
2025-09-05T06:03	10	3	0.1	3	3	376	0.2	376	377	13.4	86.7
2025-09-05T06:04	10	3	0.1	3	3	377	0.2	376	377	13.3	86.9
2025-09-05T06:05	10	3	0.1	3	4	377	0.2	376	377	13.3	86.7
2025-09-05T06:06	10	4	0.1	3	4	376	0.3	375	377	13.3	87.8
2025-09-05T06:07	10	4	0.1	4	4	376	0.2	376	377	13.2	88.7
2025-09-05T06:08	10	4	0.1	4	4	376	0.2	376	377	13.2	88.9
2025-09-05T06:09	10	4	0.1	4	4	376	0.2	376	377	13.2	89.3
2025-09-05T06:10	10	4	0.1	4	4	376	0.3	376	377	13.2	89.8
2025-09-05T06:11	10	4	0.1	4	5	377	0.2	376	377	13.2	89.1
2025-09-05T06:12	10	5	0.1	4	5	377	0.2	376	377	13.2	89.1
2025-09-05T06:13	10	5	0.1	5	5	377	0.2	376	377	13.2	89.5
2025-09-05T06:14	10	5	0.1	5	5	376	0.2	376	377	13.1	90.1
2025-09-05T06:15	10	6	0.1	5	6	376	0.2	376	377	13.2	89.6
2025-09-05T06:16	10	6	0.1	6	6	376	0.2	376	377	13.2	89.7
2025-09-05T06:17	10	6	0.1	6	6	376	0.2	376	377	13.1	89.8
2025-09-05T06:18	10	6	0.1	6	6	376	0.2	376	377	13.1	90.1
2025-09-05T06:19	10	6	0.1	6	7	376	0.2	376	377	13.1	90.6
2025-09-05T06:20	10	6	0.1	6	7	376	0.2	376	376	13.1	90.2
2025-09-05T06:21	10	7	0.1	7	7	376	0.2	376	376	13.1	90.6
2025-09-05T06:22	10	7	0.1	7	7	376	0.2	376	377	13.1	90.3
2025-09-05T06:23	10	7	0.1	7	7	376	0.2	376	377	13.2	89.3
2025-09-05T06:24	10	7	0.1	7	7	376	0.2	376	377	13.2	89.8
2025-09-05T06:25	10	7	0.1	7	8	376	0.2	376	377	13.2	89.5
2025-09-05T06:26	10	8	0.1	8	8	376	0.2	376	377	13.2	90.1
2025-09-05T06:27	10	8	0.2	8	9	376	0.2	375	377	13.1	90.3
2025-09-05T06:28	10	9	0.1	9	9	376	0.2	376	377	13.2	89.4
2025-09-05T06:29	10	9	0.1	9	10	376	0.2	376	377	13.2	89.2
2025-09-05T06:30	10	10	0.2	9	10	376	0.3	375	377	13.2	89.3
2025-09-05T06:31	10	10	0.2	10	11	376	0.3	375	376	13.2	88.5
2025-09-05T06:32	10	11	0.2	11	12	376	0.2	376	377	13.3	88.8
2025-09-05T06:33	10	12	0.2	11	12	376	0.3	375	376	13.2	89.4
2025-09-05T06:34	10	12	0.2	12	13	376	0.2	376	377	13.1	89.9
2025-09-05T06:35	10	13	0.3	12	13	376	0.2	376	377	13.1	90.6
2025-09-05T06:36	10	14	0.5	13	15	377	0.2	376	377	13.1	90.3
2025-09-05T06:37	10	17	1.2	15	19	377	0.2	377	378	13.2	88.9
2025-09-05T06:38	10	17	0.4	17	19	377	0.2	377	378	13.3	88.9
2025-09-05T06:39	10	19	0.3	18	20	378	0.2	377	378	13.3	88.2
2025-09-05T06:40	10	19	0.1	18	19	378	0.3	377	378	13.4	87.8
2025-09-05T06:41	10	18	0.1	18	18	378	0.3	378	379	13.4	89.1
2025-09-05T06:42	10	19	0.8	18	21	379	0.2	379	379	13.4	89.9
2025-09-05T06:43	10	21	4.8	18	32	379	0.2	378	379	13.3	89.8
2025-09-05T06:44	10	20	3.4	17	29	379	0.3	378	380	13.3	89.8
2025-09-05T06:45	10	16	0.3	16	17	379	0.3	378	380	13.3	90.4
2025-09-05T06:46	10	16	0.2	15	16	378	0.2	378	379	13.2	91.1
2025-09-05T06:47	10	15	0.1	15	15	378	0.2	378	379	13.2	91.1
2025-09-05T06:48	10	15	0.1	15	15	378	0.2	377	378	13.2	91.4
2025-09-05T06:49	10	15	0.1	15	15	378	0.3	377	379	13.2	91.6
2025-09-05T06:50	10	15	0.1	15	15	378	0.2	377	378	13.2	92.1
2025-09-05T06:51	10	15	0.2	15	16	378	0.2	377	378	13.2	91.9
2025-09-05T06:52	10	18	1.4	16	20	378	0.3	377	378	13.2	91.8
2025-09-05T06:53	10	17	0.2	17	17	378	0.2	377	378	13.2	92.1
2025-09-05T06:54	10	19	1.2	17	21	378	0.3	377	379	13.2	92.2
2025-09-05T06:55	10	22	1.2	20	24	379	0.4	377	379	13.2	92.2
2025-09-05T06:56	10	25	2.1	24	30	379	0.3	378	380	13.3	92.2
2025-09-05T06:57	10	29	2.1	26	33	380	0.5	379	381	13.3	92.2
2025-09-05T06:58	10	30	3.9	26	36	381	0.3	380	382	13.3	92.7
2025-09-05T06:59	10	27	4.1	24	36	382	0.3	381	382	13.3	92.2
2025-09-05T07:00	10	26	1.3	25	29	381	0.3	381	382	13.4	92.2
2025-09-05T07:01	10	36	5.0	29	47	382	0.6	381	383	13.4	92.2
2025-09-05T07:02	10	68	18.9	34	83	385	2.3	382	389	13.4	92.5
2025-09-05T07:03	10	83	2.6	78	85	389	1.1	388	391	13.5	92.6
2025-09-05T07:04	10	85	0.3	85	86	391	0.5	390	392	13.6	92.2
2025-09-05T07:05	10	85	1.1	83	87	393	0.6	392	394	13.7	92.0
2025-09-05T07:06	10	69	11.0	46	84	392	1.2	390	394	13.8	91.3
2025-09-05T07:07	10	37	2.7	35	45	390	1.0	388	392	13.9	91.8
2025-09-05T07:08	10	36	3.3	31	43	387	1.0	386	389	13.9	90.9
2025-09-05T07:09	10	28	1.4	26	31	386	0.7	384	387	13.9	91.1
2025-09-05T07:10	10	24	0.7	23	26	384	0.3	384	385	13.9	90.4
2025-09-05T07:11	10	22	0.7	21	23	384	0.3	384	385	13.9	91.2
2025-09-05T07:12	10	20	0.5	20	21	384	0.5	383	385	13.9	90.8
2025-09-05T07:13	10	19	0.4	18	20	383	0.3	382	383	13.9	90.6
2025-09-05T07:14	10	18	0.2	17	18	382	0.2	382	383	13.9	90.5
2025-09-05T07:15	10	17	0.2	17	17	382	0.3	381	383	13.9	90.0
2025-09-05T07:16	10	16	0.1	16	17	382	0.2	381	382	13.9	90.2
2025-09-05T07:17	10	16	0.1	16	17	382	0.2	381	382	13.9	90.7
2025-09-05T07:18	10	17	0.2	17	17	381	0.3	381	382	13.9	91.1
2025-09-05T07:19	10	18	0.3	17	18	381	0.2	381	382	13.8	90.6
2025-09-05T07:20	10	19	0.3	18	19	381	0.3	381	382	13.8	91.3
2025-09-05T07:21	10	21	0.9	19	22	381	0.3	381	382	13.8	90.9
2025-09-05T07:22	10	31	14.1	22	76	382	0.6	381	384	13.8	91.5
2025-09-05T07:23	10	87	4.6	76	92	387	2.4	383	391	13.8	91.5
2025-09-05T07:24	10	65	16.0	43	86	390	0.9	389	391	13.9	91.3
2025-09-05T07:25	10	43	11.1	31	66	388	0.7	387	390	13.9	91.0
2025-09-05T07:26	10	48	14.2	35	84	388	0.6	387	390	13.9	89.8
2025-09-05T07:27	10	57	19.8	34	83	389	1.1	387	391	14.0	90.0
2025-09-05T07:28	10	32	5.3	25	40	387	0.7	386	388	14.0	90.3
2025-09-05T07:29	10	29	7.0	24	49	386	0.6	385	387	14.0	90.3
2025-09-05T07:30	10	35	12.5	24	65	386	0.4	385	387	14.1	90.4
2025-09-05T07:31	10	65	16.4	36	87	388	1.1	386	390	14.1	89.6
2025-09-05T07:32	10	49	8.1	35	65	388	0.4	388	389	14.2	89.1
2025-09-05T07:33	10	41	8.4	32	62	389	0.9	387	390	14.2	88.9
2025-09-05T07:34	10	51	11.0	33	74	388	0.5	387	389	14.2	89.5
2025-09-05T07:35	10	68	13.5	35	83	390	1.1	388	392	14.2	88.7
2025-09-05T07:36	10	73	15.6	47	92	391	1.2	389	393	14.3	88.0
2025-09-05T07:37	10	91	0.3	91	92	394	1.1	392	396	14.3	88.3
2025-09-05T07:38	10	90	0.3	90	91	396	0.5	395	397	14.4	88.8
2025-09-05T07:39	10	89	0.1	89	90	397	0.5	395	397	14.5	89.3
2025-09-05T07:40	10	90	0.1	90	90	396	0.4	395	397	14.4	87.7
2025-09-05T07:41	10	90	0.1	90	90	397	0.8	395	398	14.6	88.2
2025-09-05T07:42	10	90	0.1	90	90	398	0.3	397	398	14.6	88.0
2025-09-05T07:43	10	91	0.1	90	91	398	0.8	397	399	14.7	87.0
2025-09-05T07:44	10	91	0.2	91	91	399	0.3	398	399	14.8	87.1
2025-09-05T07:45	10	92	0.2	91	92	399	0.2	398	399	14.8	86.5
2025-09-05T07:46	10	92	0.2	92	93	399	0.5	398	400	14.9	86.2
2025-09-05T07:47	10	93	0.2	92	93	400	0.4	399	400	14.9	85.9
2025-09-05T07:48	10	93	0.4	93	94	400	0.4	400	401	14.9	84.3
2025-09-05T07:49	10	95	0.4	94	95	401	0.5	399	402	15.1	84.8
2025-09-05T07:50	10	95	0.2	95	96	401	0.4	401	402	15.1	82.8
2025-09-05T07:51	10	96	0.2	95	96	403	0.4	402	403	15.3	83.8
2025-09-05T07:52	10	96	0.3	96	97	403	0.5	402	404	15.4	82.6
2025-09-05T07:53	10	97	0.2	97	98	403	0.4	402	404	15.4	81.5
2025-09-05T07:54	10	98	0.3	97	98	404	0.3	403	404	15.6	80.9
2025-09-05T07:55	10	98	0.4	98	99	403	0.7	402	404	15.7	79.5
2025-09-05T07:56	10	99	0.2	99	100	403	0.3	403	404	15.6	79.9
2025-09-05T07:57	10	99	0.1	99	100	404	0.3	404	405	15.6	80.3
2025-09-05T07:58	10	100	0.2	99	100	404	0.3	404	405	15.8	80.9
2025-09-05T07:59	10	101	0.3	100	101	403	1.2	401	405	15.8	79.8
2025-09-05T08:00	10	102	0.6	101	103	403	0.5	402	404	15.7	77.0
2025-09-05T08:01	10	104	0.4	103	105	404	0.3	404	405	15.8	76.7
2025-09-05T08:02	10	105	0.3	105	106	404	0.6	403	406	15.8	73.7
2025-09-05T08:03	10	105	0.3	105	106	403	0.5	402	404	15.9	73.7
2025-09-05T08:04	10	105	0.1	104	105	403	0.4	402	404	15.9	73.0
2025-09-05T08:05	10	104	0.1	104	104	404	0.5	403	405	15.9	74.3
2025-09-05T08:06	10	104	0.2	104	105	403	0.7	402	405	15.8	73.8
2025-09-05T08:07	10	105	0.2	105	106	404	0.5	403	405	15.9	74.7
2025-09-05T08:08	10	107	0.5	106	108	404	0.2	403	404	15.8	74.3
2025-09-05T08:09	10	109	0.7	107	110	404	0.6	403	405	15.8	74.2
2025-09-05T08:10	10	112	1.1	110	114	405	0.4	404	405	15.9	74.2
2025-09-05T08:11	10	116	1.3	114	118	405	1.0	404	407	15.9	74.2
2025-09-05T08:12	10	120	0.9	118	121	408	0.7	407	409	15.9	75.6
2025-09-05T08:13	10	121	1.1	119	123	410	0.5	409	411	16.0	76.0
2025-09-05T08:14	10	107	17.7	77	126	410	1.1	408	412	16.2	75.6
2025-09-05T08:15	10	106	15.3	76	130	409	0.5	408	410	16.2	74.2
2025-09-05T08:16	10	116	21.6	64	134	410	1.2	407	411	16.2	70.2
2025-09-05T08:17	10	132	4.0	117	135	411	1.1	408	412	16.2	70.7
2025-09-05T08:18	10	121	20.5	69	137	411	0.8	410	413	16.3	73.5
2025-09-05T08:19	10	91	19.6	60	136	409	2.9	403	413	16.2	71.5
2025-09-05T08:20	10	58	10.8	52	110	403	0.8	403	405	16.0	72.0
2025-09-05T08:21	10	147	6.0	119	151	411	3.1	404	415	16.1	71.8
2025-09-05T08:22	10	109	19.1	80	145	412	1.2	410	414	16.2	68.5
2025-09-05T08:23	10	71	3.3	69	81	409	0.9	408	412	16.3	68.2
2025-09-05T08:24	10	78	3.3	72	85	410	0.5	409	411	16.6	71.7
2025-09-05T08:25	10	73	3.1	70	82	408	2.1	405	411	16.6	70.7
2025-09-05T08:26	10	79	6.6	71	88	407	0.8	405	408	16.6	70.7
2025-09-05T08:27	10	90	3.6	86	98	409	0.9	408	411	16.6	68.1
2025-09-05T08:28	10	103	19.4	80	133	410	1.8	408	413	16.4	68.3
2025-09-05T08:29	10	122	30.1	82	166	416	1.8	412	419	16.6	71.9
2025-09-05T08:30	10	77	4.4	70	82	412	1.7	409	415	16.6	71.9
2025-09-05T08:31	10	68	0.9	67	71	408	1.2	407	411	16.6	71.9
2025-09-05T08:32	10	71	2.3	68	74	408	0.4	407	409	16.5	72.8
2025-09-05T08:33	10	112	41.1	74	167	409	3.3	406	416	16.4	71.2
2025-09-05T08:34	10	88	26.5	67	157	412	2.3	408	415	16.4	69.6
2025-09-05T08:35	10	60	7.0	53	74	407	1.9	405	411	16.5	70.1
2025-09-05T08:36	10	59	4.8	53	69	405	0.5	404	406	16.5	70.7
2025-09-05T08:37	10	53	3.4	49	59	404	0.6	402	405	16.4	69.7
2025-09-05T08:38	10	64	23.7	49	119	403	1.4	401	407	16.4	69.1
2025-09-05T08:39	10	54	20.5	40	112	405	2.0	402	408	16.4	70.2
2025-09-05T08:40	10	39	0.3	39	40	402	0.5	401	403	16.3	70.7
2025-09-05T08:41	10	38	1.3	36	39	401	0.9	399	402	16.4	70.7
2025-09-05T08:42	10	36	0.1	35	36	399	0.3	398	400	16.3	67.9
2025-09-05T08:43	10	36	0.5	35	37	399	0.3	398	400	16.4	70.6
2025-09-05T08:44	10	38	0.6	37	39	398	0.4	397	399	16.3	71.3
2025-09-05T08:45	10	40	0.4	39	40	397	0.4	396	398	16.2	73.4
2025-09-05T08:46	10	41	0.2	40	41	398	0.2	397	398	16.2	72.7
2025-09-05T08:47	10	42	0.5	41	43	398	0.2	398	399	16.2	72.9
2025-09-05T08:48	10	42	0.1	42	42	397	0.3	397	398	16.2	73.3
2025-09-05T08:49	10	42	0.7	41	43	398	0.5	397	399	16.2	74.8
2025-09-05T08:50	10	40	0.4	40	41	398	0.5	397	399	16.2	75.1
2025-09-05T08:51	10	39	0.4	38	40	397	0.2	397	398	16.1	74.2
2025-09-05T08:52	10	38	0.3	37	38	397	0.4	396	398	16.1	72.8
2025-09-05T08:53	10	37	0.2	37	38	397	0.2	397	398	16.2	72.4
2025-09-05T08:54	10	37	0.2	37	38	398	0.3	397	398	16.2	72.0
2025-09-05T08:55	10	38	0.3	37	38	398	0.2	397	398	16.2	72.5
2025-09-05T08:56	10	38	0.2	38	39	398	0.5	397	399	16.2	74.1
2025-09-05T08:57	10	38	0.2	37	38	398	0.5	397	399	16.2	73.5
2025-09-05T08:58	10	38	0.3	37	38	397	0.4	396	398	16.2	73.3
2025-09-05T08:59	10	38	0.2	38	39	398	0.4	397	399	16.2	73.9
2025-09-05T09:00	10	38	0.3	37	38	398	0.4	398	399	16.3	72.4
2025-09-05T09:01	10	37	0.2	37	38	398	0.3	398	399	16.3	72.0
2025-09-05T09:02	10	38	0.4	37	38	399	0.4	398	399	16.4	72.7
2025-09-05T09:03	10	39	0.4	38	40	399	0.3	398	400	16.4	73.3
2025-09-05T09:04	10	40	0.6	39	41	399	0.3	398	399	16.4	74.1
2025-09-05T09:05	10	42	0.8	41	44	399	0.3	398	400	16.4	73.7
2025-09-05T09:06	10	47	4.1	44	60	401	0.5	400	402	16.4	72.3
2025-09-05T09:07	10	49	0.7	47	49	401	0.3	401	402	16.4	71.3
2025-09-05T09:08	10	50	0.3	49	50	403	0.6	401	404	16.5	71.3
2025-09-05T09:09	10	51	0.6	50	52	404	0.4	403	405	16.5	70.8
2025-09-05T09:10	10	53	0.4	52	53	404	0.2	404	405	16.5	70.2
2025-09-05T09:11	10	53	0.3	53	54	405	0.3	404	405	16.5	69.3
2025-09-05T09:12	10	53	0.3	52	53	405	0.2	404	405	16.5	66.5
2025-09-05T09:13	10	52	0.3	52	53	403	1.5	400	405	16.5	65.2
2025-09-05T09:14	10	52	0.2	52	53	399	1.1	397	401	16.3	65.2
2025-09-05T09:15	10	52	0.5	51	52	397	0.7	396	398	15.7	63.8
2025-09-05T09:16	10	49	1.2	47	51	397	0.3	396	398	15.6	65.2
2025-09-05T09:17	10	44	1.3	42	47	397	0.4	396	398	15.6	66.1
2025-09-05T09:18	10	41	0.6	40	42	396	0.4	395	397	15.6	66.6
2025-09-05T09:19	10	39	0.5	38	40	395	0.3	395	396	15.7	66.1
2025-09-05T09:20	10	38	0.4	37	38	395	0.2	394	395	15.7	66.5
2025-09-05T09:21	10	37	0.3	36	37	395	0.4	394	396	15.7	67.2
2025-09-05T09:22	10	37	0.2	36	37	395	0.4	395	396	15.7	68.0
2025-09-05T09:23	10	37	0.5	37	38	396	0.5	395	397	15.7	69.0
2025-09-05T09:24	10	39	0.3	38	39	397	0.4	396	397	15.8	69.4
2025-09-05T09:25	10	39	0.2	39	40	396	0.2	396	397	15.8	68.2
2025-09-05T09:26	10	39	0.2	39	40	395	0.4	394	396	15.8	68.1
2025-09-05T09:27	10	39	0.1	39	40	395	0.3	394	396	15.9	67.9
2025-09-05T09:28	10	39	0.2	38	39	395	0.3	394	395	15.9	68.5
2025-09-05T09:29	10	38	0.3	37	39	395	0.4	394	396	15.9	68.9
2025-09-05T09:30	10	37	0.6	36	38	394	0.2	394	395	15.9	68.9
2025-09-05T09:31	10	35	0.2	35	36	394	0.3	394	395	15.8	69.2
2025-09-05T09:32	10	36	0.4	35	37	394	0.5	394	396	15.8	69.6
2025-09-05T09:33	10	38	0.9	36	39	395	0.5	395	397	15.9	70.9
2025-09-05T09:34	10	40	0.6	39	41	396	0.3	395	396	15.9	71.6
2025-09-05T09:35	10	44	1.9	41	48	396	0.5	395	397	15.8	71.5
2025-09-05T09:36	10	73	19.0	48	111	400	2.5	396	402	15.8	71.9
2025-09-05T09:37	10	60	3.3	56	67	401	0.4	400	401	15.9	71.8
2025-09-05T09:38	10	72	11.2	64	112	402	0.8	400	405	15.9	70.8
2025-09-05T09:39	10	149	23.3	110	170	411	5.1	402	419	16.0	68.7
2025-09-05T09:40	10	168	0.7	167	169	420	1.7	417	424	16.0	67.4
2025-09-05T09:41	10	166	0.3	165	167	425	1.1	422	426	16.4	69.7
2025-09-05T09:42	10	165	0.7	163	166	426	0.5	425	427	16.6	66.3
2025-09-05T09:43	10	161	1.0	160	163	426	0.5	425	427	16.5	65.8
2025-09-05T09:44	10	159	0.6	157	160	427	0.6	426	428	16.8	66.8
2025-09-05T09:45	10	156	0.7	155	158	427	0.4	427	428	16.7	65.5
2025-09-05T09:46	10	155	0.4	154	156	427	1.1	425	429	16.9	65.6
2025-09-05T09:47	10	154	0.2	154	155	426	0.8	425	428	16.9	64.5
2025-09-05T09:48	10	155	0.5	155	157	426	0.8	425	428	16.9	65.0
2025-09-05T09:49	10	158	0.8	156	159	429	0.6	428	430	17.1	63.2
2025-09-05T09:50	10	161	1.2	159	163	429	0.8	428	430	17.0	59.9
2025-09-05T09:51	10	165	1.1	163	167	429	1.3	427	431	17.0	59.8
2025-09-05T09:52	10	170	1.4	167	172	429	0.9	427	430	17.0	58.7
2025-09-05T09:53	10	174	1.7	171	177	428	0.8	426	429	16.9	57.5
2025-09-05T09:54	10	141	20.7	107	177	426	1.6	423	428	16.8	57.3
2025-09-05T09:55	10	140	28.8	104	187	426	2.0	424	431	16.9	59.2
2025-09-05T09:56	10	177	13.9	141	187	431	1.5	429	434	17.1	60.1
2025-09-05T09:57	10	150	12.5	129	169	430	1.0	428	432	17.1	58.9
2025-09-05T09:58	10	163	18.0	137	189	428	1.7	426	432	17.0	57.0
2025-09-05T09:59	10	184	3.3	175	187	432	0.6	431	433	16.9	58.4
2025-09-05T10:00	10	184	4.0	176	187	430	1.1	429	433	16.8	57.8
2025-09-05T10:01	10	177	10.7	152	189	434	0.9	432	436	16.8	58.5
2025-09-05T10:02	10	184	4.9	170	189	436	0.5	434	437	17.1	60.0
2025-09-05T10:03	10	179	7.2	156	188	433	1.7	431	436	17.1	60.0
2025-09-05T10:04	10	133	11.7	115	169	428	2.0	426	433	17.3	61.4
2025-09-05T10:05	10	177	2.6	170	181	430	1.6	426	433	17.1	59.1
2025-09-05T10:06	10	171	9.8	129	175	433	0.6	431	434	17.1	59.9
2025-09-05T10:07	10	115	12.0	96	151	425	4.2	420	433	16.9	60.3
2025-09-05T10:08	10	143	22.2	109	171	425	1.6	421	428	17.0	61.0
2025-09-05T10:09	10	170	5.5	157	178	430	1.7	426	433	17.2	62.0
2025-09-05T10:10	10	118	35.7	68	170	426	4.4	419	431	17.1	60.8
2025-09-05T10:11	10	99	28.5	62	143	420	1.0	418	422	17.2	60.6
2025-09-05T10:12	10	99	16.7	74	135	420	1.2	418	422	16.9	58.8
2025-09-05T10:13	10	90	37.3	58	162	417	2.1	415	423	16.9	59.7
2025-09-05T10:14	10	93	23.3	62	142	419	2.1	416	423	16.9	59.4
2025-09-05T10:15	10	152	16.1	104	164	424	2.3	418	427	16.8	59.1
2025-09-05T10:16	10	130	26.9	86	163	423	2.5	420	429	16.7	59.1
2025-09-05T10:17	10	150	4.8	139	156	429	1.1	427	432	16.9	59.4
2025-09-05T10:18	10	152	0.1	152	153	431	0.5	431	432	17.0	59.6
2025-09-05T10:19	10	152	0.1	152	152	429	0.8	428	431	17.0	59.5
2025-09-05T10:20	10	152	0.1	152	152	430	0.3	429	431	16.9	58.6
2025-09-05T10:21	10	152	0.1	152	152	431	0.5	430	432	16.9	58.8
2025-09-05T10:22	10	151	0.1	151	152	431	0.5	430	432	17.1	58.6
2025-09-05T10:23	10	151	0.1	151	151	430	0.4	429	431	17.0	57.8
2025-09-05T10:24	10	151	0.1	151	151	432	0.5	431	433	16.9	57.7
2025-09-05T10:25	10	151	0.1	151	151	434	0.5	433	434	17.0	59.6
2025-09-05T10:26	10	151	0.1	151	151	432	0.7	431	434	17.0	58.1
2025-09-05T10:27	10	151	0.1	151	151	432	0.5	431	433	16.9	56.0
2025-09-05T10:28	10	151	0.1	151	151	434	0.5	433	434	17.1	57.1
2025-09-05T10:29	10	151	0.1	151	151	433	1.0	431	434	17.1	54.8
2025-09-05T10:30	10	151	0.1	151	152	432	0.3	431	433	17.0	53.6
2025-09-05T10:31	10	152	0.1	151	152	433	0.5	432	433	17.1	54.9
2025-09-05T10:32	10	152	0.3	152	153	434	0.5	433	435	17.4	56.6
2025-09-05T10:33	10	154	0.6	153	155	432	1.5	430	435	17.5	54.7
2025-09-05T10:34	10	156	0.8	155	158	433	1.4	430	434	17.6	55.0
2025-09-05T10:35	10	159	3.7	150	163	435	0.8	433	436	17.4	53.8
2025-09-05T10:36	10	163	4.9	148	168	437	0.6	436	438	17.4	53.3
2025-09-05T10:37	10	163	14.8	133	175	438	1.5	436	440	17.5	54.6
2025-09-05T10:38	10	179	2.2	175	182	441	0.8	440	442	17.6	56.0
2025-09-05T10:39	10	182	2.1	179	185	440	0.5	439	440	17.5	53.9
2025-09-05T10:40	10	186	2.1	182	189	442	1.2	440	445	17.4	54.2
2025-09-05T10:41	10	184	7.2	166	190	444	1.1	442	445	17.5	54.8
2025-09-05T10:42	10	155	16.2	137	185	441	2.5	437	445	17.5	57.0
2025-09-05T10:43	10	188	22.1	140	207	441	2.8	437	445	17.6	56.3
2025-09-05T10:44	10	195	7.8	181	209	444	1.1	441	445	17.5	55.5
2025-09-05T10:45	10	137	40.5	85	200	441	5.7	431	448	17.5	54.2
2025-09-05T10:46	10	84	2.4	80	88	430	1.8	427	434	17.5	55.8
2025-09-05T10:47	10	106	22.2	82	145	429	2.1	426	434	17.5	57.5
2025-09-05T10:48	10	123	19.9	102	161	431	1.5	428	434	17.6	56.4
2025-09-05T10:49	10	187	29.6	138	212	438	5.5	431	446	17.6	54.9
2025-09-05T10:50	10	209	0.3	208	209	446	0.4	444	446	17.7	56.4
2025-09-05T10:51	10	203	11.3	168	209	445	1.1	443	447	17.8	55.6
2025-09-05T10:52	10	196	11.3	165	208	446	0.8	444	447	17.9	57.1
2025-09-05T10:53	10	120	31.4	77	192	439	4.8	432	448	17.7	55.5
2025-09-05T10:54	10	73	1.4	71	77	428	2.6	425	434	17.7	56.6
2025-09-05T10:55	10	103	23.7	72	151	427	2.0	424	431	17.7	56.8
2025-09-05T10:56	10	174	22.9	128	199	438	4.8	429	443	17.7	56.4
2025-09-05T10:57	10	123	35.3	84	179	433	5.2	427	444	17.6	56.4
2025-09-05T10:58	10	128	23.6	103	177	434	2.6	430	437	17.6	56.5
2025-09-05T10:59	10	133	25.1	90	174	435	2.6	431	439	17.6	56.2
2025-09-05T11:00	10	130	31.7	96	177	434	2.8	431	440	17.9	57.5
2025-09-05T11:01	10	187	4.9	172	192	444	2.9	438	447	17.9	56.5
2025-09-05T11:02	10	177	6.4	167	186	446	0.8	444	447	18.1	58.3
2025-09-05T11:03	10	168	23.7	116	185	444	1.8	438	446	18.3	58.7
2025-09-05T11:04	10	140	20.2	107	183	437	1.8	433	439	18.2	56.0
2025-09-05T11:05	10	151	16.1	123	182	438	0.8	437	439	18.2	57.1
2025-09-05T11:06	10	97	12.0	81	127	429	3.8	424	438	18.0	56.0
2025-09-05T11:07	10	131	15.5	89	166	428	1.6	424	432	17.8	55.6
2025-09-05T11:08	10	149	16.7	118	178	432	1.0	430	434	17.6	55.4
2025-09-05T11:09	10	106	10.2	90	123	428	1.6	426	431	17.5	54.6
2025-09-05T11:10	10	119	13.8	91	144	430	1.5	426	432	17.6	54.8
2025-09-05T11:11	10	139	32.3	88	176	432	4.1	427	439	17.7	54.4
2025-09-05T11:12	10	175	0.3	175	176	440	1.5	437	442	17.7	53.7
2025-09-05T11:13	10	175	0.1	175	175	444	1.5	441	446	17.8	54.2
2025-09-05T11:14	10	176	0.8	175	178	446	1.1	444	447	18.2	55.8
2025-09-05T11:15	10	179	0.6	178	180	443	0.9	442	445	18.1	55.0
2025-09-05T11:16	10	155	17.8	133	180	444	1.8	441	446	18.4	57.0
2025-09-05T11:17	10	127	18.8	99	164	437	4.0	433	443	18.4	54.4
2025-09-05T11:18	10	181	4.5	165	184	440	2.6	434	443	18.0	52.7
2025-09-05T11:19	10	145	21.4	111	176	441	2.4	436	444	17.9	52.3
2025-09-05T11:20	10	115	7.8	100	134	436	0.9	434	438	17.9	53.3
2025-09-05T11:21	10	119	31.1	77	165	437	3.2	431	441	18.0	53.7
2025-09-05T11:22	10	94	22.2	75	145	430	1.5	428	434	18.0	52.7
2025-09-05T11:23	10	172	20.2	136	191	437	3.0	432	441	18.0	53.4
2025-09-05T11:24	10	176	13.2	151	192	442	0.9	440	443	17.9	51.4
2025-09-05T11:25	10	171	12.9	152	189	445	2.1	442	448	18.0	52.3
2025-09-05T11:26	10	161	15.6	131	183	445	1.3	443	447	18.3	51.7
2025-09-05T11:27	10	186	2.3	176	188	447	1.2	445	449	18.2	51.2
2025-09-05T11:28	10	186	0.2	186	186	449	0.5	448	450	18.1	52.2
2025-09-05T11:29	10	186	0.3	186	187	450	0.6	449	451	18.3	52.5
2025-09-05T11:30	10	187	0.2	187	188	449	0.4	448	450	18.3	51.7
2025-09-05T11:31	10	187	0.1	187	188	449	0.4	449	450	18.2	51.8
2025-09-05T11:32	10	186	6.8	169	191	450	0.3	449	451	18.2	51.6
2025-09-05T11:33	10	130	29.0	86	169	445	4.3	437	451	18.2	52.0
2025-09-05T11:34	10	76	4.6	71	86	434	3.1	429	440	18.3	53.7
2025-09-05T11:35	10	73	2.9	69	78	429	1.3	427	431	18.3	53.8
2025-09-05T11:36	10	64	2.7	62	73	425	1.5	423	428	18.3	53.0
2025-09-05T11:37	10	66	2.3	62	70	422	1.0	421	424	18.0	53.6
2025-09-05T11:38	10	66	2.5	64	71	420	0.5	419	421	17.8	54.3
2025-09-05T11:39	10	73	4.7	69	83	421	0.7	420	422	17.9	54.6
2025-09-05T11:40	10	129	44.1	82	202	427	6.0	421	440	17.8	53.0
2025-09-05T11:41	10	202	1.0	200	204	444	3.9	436	449	18.0	53.0
2025-09-05T11:42	10	198	1.3	195	199	450	1.6	447	452	18.3	54.8
2025-09-05T11:43	10	199	0.2	198	199	453	1.2	450	455	18.6	56.8
2025-09-05T11:44	10	198	0.2	198	199	455	0.7	454	456	18.9	55.0
2025-09-05T11:45	10	187	17.1	147	202	454	2.6	449	457	18.8	54.9
2025-09-05T11:46	10	197	2.6	194	202	453	1.1	450	454	18.6	55.3
2025-09-05T11:47	10	192	4.7	177	195	452	0.6	450	453	18.5	53.1
2025-09-05T11:48	10	175	20.8	116	196	450	1.6	447	452	18.5	53.9
2025-09-05T11:49	10	128	32.7	75	174	443	3.9	437	448	18.6	53.5
2025-09-05T11:50	10	167	35.1	87	196	443	4.7	436	450	18.4	52.5
2025-09-05T11:51	10	191	0.4	191	193	450	1.4	448	452	18.5	53.3
2025-09-05T11:52	10	102	60.4	49	195	444	8.9	430	454	18.3	52.3
2025-09-05T11:53	10	47	1.2	46	49	428	3.3	423	434	18.2	53.7
2025-09-05T11:54	10	44	1.0	42	46	422	1.7	419	424	18.1	53.2
2025-09-05T11:55	10	41	0.5	41	43	417	1.2	416	419	17.9	52.5
2025-09-05T11:56	10	41	0.1	41	41	416	0.2	416	417	17.9	53.2
2025-09-05T11:57	10	41	0.2	41	42	416	0.3	415	417	17.9	54.8
2025-09-05T11:58	10	43	0.7	42	44	415	0.3	415	416	18.0	54.6
2025-09-05T11:59	10	45	0.2	44	45	416	0.6	414	417	18.1	55.2
2025-09-05T12:00	10	43	0.8	42	44	416	0.2	415	416	18.1	54.6
2025-09-05T12:01	10	41	0.5	40	42	415	0.9	413	416	18.1	55.6
2025-09-05T12:02	10	40	0.3	39	41	414	0.3	413	414	18.1	55.8
2025-09-05T12:03	10	39	0.1	39	40	413	0.2	413	414	18.0	55.2
2025-09-05T12:04	10	40	0.1	39	40	413	0.3	412	413	17.9	54.7
2025-09-05T12:05	10	39	0.2	39	39	412	0.2	412	413	17.9	54.6
2025-09-05T12:06	10	39	0.3	38	39	412	0.2	411	412	17.8	54.4
2025-09-05T12:07	10	37	0.3	37	38	411	0.3	410	412	17.9	55.2
2025-09-05T12:08	10	37	0.3	37	38	411	0.3	410	412	18.0	55.3
2025-09-05T12:09	10	40	1.0	38	41	412	0.6	411	413	18.1	54.9
2025-09-05T12:10	10	43	1.0	41	45	414	0.7	412	415	18.1	55.9
2025-09-05T12:11	10	47	1.2	45	49	415	0.3	414	416	18.1	56.0
2025-09-05T12:12	10	51	1.7	49	54	415	0.6	414	416	18.1	53.7
2025-09-05T12:13	10	63	11.3	54	91	417	1.5	415	420	18.1	53.5
2025-09-05T12:14	10	61	6.8	55	76	418	0.6	417	420	18.1	52.5
2025-09-05T12:15	10	97	16.8	73	126	422	2.2	418	425	18.0	52.3
2025-09-05T12:16	10	118	54.1	67	202	425	5.8	420	438	18.0	52.5
2025-09-05T12:17	10	197	1.9	193	201	442	3.1	434	446	18.2	52.2
2025-09-05T12:18	10	192	0.6	191	193	447	1.8	444	449	18.5	53.4
2025-09-05T12:19	10	189	1.0	188	191	449	0.5	448	450	18.5	52.2
2025-09-05T12:20	10	148	52.6	53	188	447	4.6	435	451	18.6	53.4
2025-09-05T12:21	10	45	2.6	41	52	428	4.9	421	439	18.5	52.1
2025-09-05T12:22	10	40	0.7	39	42	421	1.6	418	424	18.5	54.2
2025-09-05T12:23	10	40	0.6	39	41	418	1.2	416	420	18.4	54.2
2025-09-05T12:24	10	43	0.4	41	43	416	0.7	414	417	18.4	55.4
2025-09-05T12:25	10	44	3.1	41	53	415	0.5	413	415	18.3	55.7
2025-09-05T12:26	10	37	2.1	34	42	413	1.2	411	414	18.1	54.0
2025-09-05T12:27	10	33	0.7	32	34	410	0.9	408	411	18.1	53.8
2025-09-05T12:28	10	32	0.2	32	33	408	0.3	408	409	18.0	54.5
2025-09-05T12:29	10	32	0.2	32	33	408	0.4	407	409	18.1	54.2
2025-09-05T12:30	10	32	0.2	31	32	407	0.2	407	408	18.0	52.6
2025-09-05T12:31	10	31	0.2	31	32	408	0.5	407	409	18.0	52.0
2025-09-05T12:32	10	33	1.1	31	35	409	0.5	408	410	18.0	52.8
2025-09-05T12:33	10	37	1.5	35	40	410	0.3	409	410	18.0	52.5
2025-09-05T12:34	10	42	1.1	40	43	411	1.0	409	413	18.0	52.2
2025-09-05T12:35	10	44	0.5	43	45	413	0.4	412	414	18.1	54.0
2025-09-05T12:36	10	46	0.5	45	47	414	0.5	413	415	18.1	53.5
2025-09-05T12:37	10	48	1.2	46	50	413	0.5	412	414	18.1	53.8
2025-09-05T12:38	10	66	17.4	50	118	415	2.0	413	420	18.1	53.2
2025-09-05T12:39	10	145	44.9	57	190	430	5.7	417	437	18.2	54.3
2025-09-05T12:40	10	98	41.3	55	186	424	2.6	422	432	18.2	52.3
2025-09-05T12:41	10	175	6.9	160	186	437	3.2	430	441	18.3	51.5
2025-09-05T12:42	10	174	3.0	169	178	442	1.1	440	444	18.5	51.1
2025-09-05T12:43	10	172	2.5	168	176	444	0.6	443	445	18.7	53.4
2025-09-05T12:44	10	167	0.6	166	168	445	0.4	444	446	18.9	53.8
2025-09-05T12:45	10	166	0.2	166	167	445	0.3	444	446	18.7	51.5
2025-09-05T12:46	10	166	0.7	165	167	445	0.5	444	446	18.5	51.7
2025-09-05T12:47	10	151	21.6	101	168	443	2.3	439	446	18.5	51.8
2025-09-05T12:48	10	163	0.4	162	164	443	0.5	442	444	18.5	51.0
2025-09-05T12:49	10	163	0.1	163	163	444	0.3	444	445	18.4	50.7
2025-09-05T12:50	10	163	0.1	163	163	445	0.3	444	446	18.5	50.5
2025-09-05T12:51	10	161	1.3	159	163	446	0.3	445	446	18.8	52.2
2025-09-05T12:52	10	158	0.4	157	159	445	0.2	445	446	19.0	48.6
2025-09-05T12:53	10	157	0.2	157	158	446	0.3	445	446	19.2	50.4
2025-09-05T12:54	10	157	0.1	157	157	447	0.2	446	447	19.4	49.3
2025-09-05T12:55	10	157	0.1	156	157	447	0.8	445	448	19.1	51.2
2025-09-05T12:56	10	158	0.8	157	159	445	0.4	444	446	18.8	50.3
2025-09-05T12:57	10	162	1.6	159	165	447	0.9	446	449	18.9	53.4
2025-09-05T12:58	10	122	40.5	66	165	443	5.2	433	449	18.9	51.7
2025-09-05T12:59	10	108	25.5	68	143	436	2.1	432	440	18.6	51.5
2025-09-05T13:00	10	78	18.6	62	135	431	1.3	429	434	18.5	51.1
2025-09-05T13:01	10	159	8.1	139	168	440	3.7	431	443	18.6	50.4
2025-09-05T13:02	10	164	5.7	149	168	444	1.6	441	447	18.9	50.1
2025-09-05T13:03	10	165	3.7	155	168	448	0.6	446	449	19.2	50.2
2025-09-05T13:04	10	163	2.6	155	165	448	0.3	447	448	19.0	49.8
2025-09-05T13:05	10	165	0.2	164	165	449	0.2	448	449	19.0	50.3
2025-09-05T13:06	10	165	0.2	164	165	449	0.2	448	450	19.0	50.8
2025-09-05T13:07	10	164	0.2	164	165	450	0.3	449	450	19.0	50.7
2025-09-05T13:08	10	164	0.3	163	164	448	0.6	447	449	18.9	51.0
2025-09-05T13:09	10	162	0.5	161	163	449	0.3	448	449	19.0	50.2
2025-09-05T13:10	10	161	0.4	160	161	449	0.3	448	449	19.1	49.5
2025-09-05T13:11	10	160	0.2	159	160	449	0.4	449	450	19.2	49.8
2025-09-05T13:12	10	159	0.2	159	160	449	0.3	449	450	19.4	49.6
2025-09-05T13:13	10	158	0.4	157	159	449	0.7	447	450	19.3	49.2
2025-09-05T13:14	10	157	0.4	156	158	448	0.7	446	449	19.3	49.0
2025-09-05T13:15	10	155	0.5	155	156	447	0.4	446	447	19.1	49.1
2025-09-05T13:16	10	154	0.3	154	155	446	0.4	446	447	19.2	51.5
2025-09-05T13:17	10	154	0.1	153	154	447	0.4	447	448	19.4	49.3
2025-09-05T13:18	10	154	0.4	154	155	448	0.7	446	449	19.3	46.1
2025-09-05T13:19	10	156	0.4	155	156	447	0.6	446	448	19.0	45.1
2025-09-05T13:20	10	157	0.4	156	158	449	0.5	447	450	19.2	46.5
2025-09-05T13:21	10	158	0.1	157	158	449	0.5	448	450	19.2	46.3
2025-09-05T13:22	10	158	0.1	157	158	447	1.0	446	449	19.0	46.2
2025-09-05T13:23	10	158	0.2	158	158	447	0.6	446	448	19.0	46.0
2025-09-05T13:24	10	158	0.2	158	159	447	0.3	446	448	18.9	45.3
2025-09-05T13:25	10	160	0.5	159	160	449	0.8	447	450	19.0	46.4
2025-09-05T13:26	10	161	0.7	160	163	449	0.8	447	451	19.1	44.6
2025-09-05T13:27	10	158	4.6	144	163	449	0.4	448	450	19.2	45.8
2025-09-05T13:28	10	130	12.4	115	154	445	2.0	442	449	19.4	46.8
2025-09-05T13:29	10	160	2.7	154	162	448	1.5	445	450	19.8	45.2
2025-09-05T13:30	10	164	1.5	162	166	449	0.8	448	450	19.9	48.0
2025-09-05T13:31	10	153	10.1	135	166	446	2.5	442	450	19.7	45.9
2025-09-05T13:32	10	146	12.0	128	159	444	1.8	442	448	19.4	45.7
2025-09-05T13:33	10	137	14.1	120	158	445	2.8	441	449	19.5	46.9
2025-09-05T13:34	10	143	7.3	125	150	443	1.3	440	445	19.4	46.4
2025-09-05T13:35	10	148	4.9	140	153	442	0.9	441	444	18.9	45.9
2025-09-05T13:36	10	151	1.4	149	153	445	0.5	443	445	18.8	46.3
2025-09-05T13:37	10	153	0.1	152	153	445	0.4	444	446	18.8	46.3
2025-09-05T13:38	10	152	0.3	152	153	445	0.7	444	447	19.1	46.7
2025-09-05T13:39	10	151	0.5	150	152	442	0.8	440	444	19.4	47.5
2025-09-05T13:40	10	150	0.4	149	150	441	0.3	440	442	18.9	45.5
2025-09-05T13:41	10	149	0.2	148	149	441	0.5	440	442	18.8	45.1
2025-09-05T13:42	10	148	0.1	148	149	443	1.2	441	445	18.8	45.1
2025-09-05T13:43	10	148	0.1	148	148	445	0.4	445	446	19.0	46.5
2025-09-05T13:44	10	148	0.1	148	148	446	0.2	445	446	19.1	44.8
2025-09-05T13:45	10	148	0.1	148	148	446	0.8	444	447	19.3	45.0
2025-09-05T13:46	10	147	0.1	147	148	446	0.7	445	447	19.2	44.8
2025-09-05T13:47	10	147	0.2	147	147	446	0.7	444	447	19.2	44.6
2025-09-05T13:48	10	146	0.3	146	147	447	0.8	446	449	19.5	46.9
2025-09-05T13:49	10	145	0.2	145	146	446	0.4	445	447	19.4	43.4
2025-09-05T13:50	10	145	0.4	144	146	447	0.4	446	447	19.5	43.7
2025-09-05T13:51	10	144	0.3	143	145	445	0.3	445	446	19.9	41.5
2025-09-05T13:52	10	143	0.4	142	144	445	0.3	444	446	19.9	43.4
2025-09-05T13:53	10	142	0.3	141	142	446	0.4	445	446	19.8	44.2
2025-09-05T13:54	10	141	0.2	140	142	444	0.4	444	445	19.8	42.6
2025-09-05T13:55	10	140	0.3	140	141	444	0.3	444	445	19.9	43.4
2025-09-05T13:56	10	139	0.2	139	140	445	0.3	445	446	19.8	46.4
2025-09-05T13:57	10	139	0.2	138	140	446	0.4	445	446	19.9	45.9
2025-09-05T13:58	10	139	0.2	138	139	445	0.8	443	446	19.6	44.0
2025-09-05T13:59	10	139	0.2	139	139	444	0.3	443	444	19.5	42.5
2025-09-05T14:00	10	139	0.2	139	139	444	0.4	443	445	19.4	42.4
2025-09-05T14:01	10	139	0.1	139	140	443	1.0	441	444	19.4	43.5
2025-09-05T14:02	10	139	0.1	139	139	443	0.8	441	444	19.6	44.1
2025-09-05T14:03	10	139	0.1	138	139	444	0.3	443	444	19.6	42.2
2025-09-05T14:04	10	138	0.1	138	138	443	0.2	442	443	19.7	44.3
2025-09-05T14:05	10	138	0.3	137	138	444	0.6	443	445	19.8	41.5
2025-09-05T14:06	10	137	0.1	137	137	445	0.3	444	446	19.8	43.8
2025-09-05T14:07	10	137	0.1	137	137	443	1.3	441	445	19.4	42.5
2025-09-05T14:08	10	135	4.1	125	137	441	0.3	440	442	19.3	42.5
2025-09-05T14:09	10	136	0.7	135	137	442	0.4	441	442	19.3	43.2
2025-09-05T14:10	10	136	0.4	135	137	443	0.5	442	444	19.4	43.3
2025-09-05T14:11	10	137	0.2	137	137	442	0.2	442	442	19.3	42.2
2025-09-05T14:12	10	137	0.3	137	138	443	0.4	442	444	19.4	42.2
2025-09-05T14:13	10	137	0.7	135	138	444	0.3	443	444	19.5	43.2
2025-09-05T14:14	10	138	0.4	137	139	444	0.4	443	445	19.7	46.7
2025-09-05T14:15	10	134	5.1	123	139	443	0.9	442	444	19.8	46.2
2025-09-05T14:16	10	135	2.8	130	139	443	1.0	440	444	19.8	46.6
2025-09-05T14:17	10	110	15.3	86	136	436	2.6	433	441	20.0	50.1
2025-09-05T14:18	10	88	20.4	56	117	432	2.4	429	437	20.0	44.5
2025-09-05T14:19	10	104	9.4	86	120	434	0.8	433	436	19.8	43.6
2025-09-05T14:20	10	128	7.5	116	136	438	1.8	435	441	19.9	47.3
2025-09-05T14:21	10	94	38.5	30	136	437	3.9	429	441	20.0	47.4
2025-09-05T14:22	10	22	1.8	21	29	424	4.1	417	432	19.9	44.6
2025-09-05T14:23	10	21	0.3	20	21	417	0.9	416	419	19.5	43.6
2025-09-05T14:24	10	21	0.6	20	22	414	0.6	413	416	19.5	43.9
2025-09-05T14:25	10	32	8.3	22	52	414	1.0	413	416	19.3	43.5
2025-09-05T14:26	10	105	27.4	54	135	424	6.5	414	434	19.4	43.8
2025-09-05T14:27	10	132	1.4	131	134	434	1.1	431	436	19.4	43.1
2025-09-05T14:28	10	131	0.2	131	132	437	1.0	435	438	19.5	42.9
2025-09-05T14:29	10	130	0.5	129	131	439	0.8	437	440	19.6	44.0
2025-09-05T14:30	10	128	0.8	126	129	438	0.3	438	439	19.8	42.2
2025-09-05T14:31	10	127	1.5	124	129	439	0.8	438	441	19.8	43.4
2025-09-05T14:32	10	129	0.2	128	129	439	0.5	438	440	20.0	45.3
2025-09-05T14:33	10	130	0.3	129	130	439	0.3	439	440	20.0	44.2
2025-09-05T14:34	10	131	0.2	130	131	441	0.4	440	441	20.0	43.0
2025-09-05T14:35	10	131	0.1	131	131	440	0.6	438	441	20.0	41.4
2025-09-05T14:36	10	131	0.1	131	132	440	0.3	440	441	20.0	41.3
2025-09-05T14:37	10	132	0.2	131	132	441	0.4	440	442	20.0	44.3
2025-09-05T14:38	10	132	0.1	132	132	442	0.4	441	443	20.1	43.2
2025-09-05T14:39	10	132	0.1	132	132	441	0.8	440	443	20.1	42.2
2025-09-05T14:40	10	132	0.2	132	132	441	0.2	441	442	20.0	41.7
2025-09-05T14:41	10	131	0.2	131	132	441	0.3	441	442	20.2	42.0
2025-09-05T14:42	10	131	0.1	131	131	441	0.3	441	442	20.2	43.5
2025-09-05T14:43	10	131	0.1	130	131	441	0.7	439	442	19.8	44.6
2025-09-05T14:44	10	130	0.1	130	131	440	0.4	439	441	19.8	44.7
2025-09-05T14:45	10	131	0.1	131	131	441	0.3	440	441	19.8	45.0
2025-09-05T14:46	10	131	0.1	131	131	441	0.6	440	442	19.8	46.1
2025-09-05T14:47	10	131	0.1	131	132	441	0.8	440	442	19.9	45.7
2025-09-05T14:48	10	132	0.1	131	132	441	0.5	440	442	19.8	45.9
2025-09-05T14:49	10	132	0.2	132	132	441	1.0	438	442	20.0	47.7
2025-09-05T14:50	10	133	0.2	132	133	439	0.4	438	439	19.9	45.5
2025-09-05T14:51	10	133	0.1	133	133	439	0.3	438	440	19.9	45.4
2025-09-05T14:52	10	133	0.1	133	133	440	0.3	439	440	19.8	45.0
2025-09-05T14:53	10	134	0.2	133	134	441	0.5	440	442	19.8	45.1
2025-09-05T14:54	10	135	0.3	134	135	442	0.6	441	444	20.0	47.3
2025-09-05T14:55	10	136	0.4	135	136	442	0.2	441	442	20.0	44.4
2025-09-05T14:56	10	136	0.1	136	137	441	0.6	440	442	19.9	45.3
2025-09-05T14:57	10	136	0.1	136	137	440	0.4	440	441	19.7	43.0
2025-09-05T14:58	10	136	0.1	136	136	440	0.5	439	441	19.7	44.3
2025-09-05T14:59	10	136	0.1	135	136	441	0.8	439	442	19.8	44.8
2025-09-05T15:00	10	136	0.2	135	136	441	1.0	439	443	19.6	44.1
2025-09-05T15:01	10	135	0.3	134	136	442	0.8	441	443	19.7	45.2
2025-09-05T15:02	10	134	0.4	133	134	441	0.3	441	441	19.7	45.0
2025-09-05T15:03	10	133	0.2	132	133	441	0.3	440	442	19.8	45.3
2025-09-05T15:04	10	132	0.3	132	133	443	0.5	442	444	20.1	47.4
2025-09-05T15:05	10	132	0.2	131	132	444	0.4	443	445	20.2	45.7
2025-09-05T15:06	10	131	0.2	131	132	444	0.3	443	445	20.2	47.2
2025-09-05T15:07	10	131	0.2	131	132	442	1.7	439	444	20.2	45.9
2025-09-05T15:08	10	130	0.3	130	131	439	0.8	438	440	19.9	44.6
2025-09-05T15:09	10	130	0.3	129	130	439	0.6	438	440	19.9	46.1
2025-09-05T15:10	10	129	0.2	129	130	437	0.7	436	439	19.7	45.1
2025-09-05T15:11	10	129	0.3	128	129	436	0.5	435	437	19.5	44.8
2025-09-05T15:12	10	127	0.3	127	128	436	0.9	435	438	19.6	45.7
2025-09-05T15:13	10	127	0.3	126	128	435	0.5	434	436	19.4	45.4
2025-09-05T15:14	10	126	0.3	126	127	435	0.3	434	435	19.6	46.0
2025-09-05T15:15	10	126	0.2	126	127	434	0.6	433	436	19.6	45.5
2025-09-05T15:16	10	126	0.3	126	127	436	0.6	435	438	19.6	45.8
2025-09-05T15:17	10	127	0.3	126	127	438	0.8	436	440	19.7	45.9
2025-09-05T15:18	10	127	0.4	127	128	437	0.3	436	438	19.7	46.4
2025-09-05T15:19	10	128	0.3	127	129	438	0.7	437	439	19.9	47.3
2025-09-05T15:20	10	129	0.4	128	130	439	0.4	438	440	20.3	48.8
2025-09-05T15:21	10	129	0.2	129	130	437	0.6	435	438	19.8	45.1
2025-09-05T15:22	10	129	0.2	129	130	436	0.4	436	437	19.7	45.3
2025-09-05T15:23	10	129	0.2	128	129	437	0.8	435	439	19.6	45.2
2025-09-05T15:24	10	129	0.2	128	129	436	1.0	435	438	19.5	45.3
2025-09-05T15:25	10	128	0.5	127	128	437	0.5	436	438	19.7	46.2
2025-09-05T15:26	10	126	0.4	126	127	435	0.5	434	436	19.7	45.7
2025-09-05T15:27	10	125	0.5	124	127	434	0.6	433	436	19.5	45.1
2025-09-05T15:28	10	123	1.2	120	125	435	0.9	434	436	19.7	46.6
2025-09-05T15:29	10	111	3.5	105	119	436	0.6	435	437	19.8	46.0
2025-09-05T15:30	10	98	5.9	83	105	432	2.1	428	435	19.6	45.2
2025-09-05T15:31	10	63	10.2	50	83	426	2.1	423	430	19.5	45.7
2025-09-05T15:32	10	49	1.5	47	53	422	0.9	421	424	19.5	46.8
2025-09-05T15:33	10	60	3.2	53	63	422	0.4	421	423	19.5	49.1
2025-09-05T15:34	10	68	5.0	63	79	422	0.5	421	424	19.4	47.6
2025-09-05T15:35	10	90	6.4	79	100	425	1.5	422	427	19.4	48.6
2025-09-05T15:36	10	106	3.0	100	110	428	1.1	425	430	19.4	48.0
2025-09-05T15:37	10	98	8.1	83	109	428	0.6	427	429	19.3	47.0
2025-09-05T15:38	10	79	4.7	73	92	426	0.7	425	427	19.4	48.5
2025-09-05T15:39	10	101	2.4	92	103	428	1.2	425	429	19.6	48.7
2025-09-05T15:40	10	98	3.1	95	104	429	0.3	428	429	19.7	47.0
2025-09-05T15:41	10	75	23.2	41	104	426	2.5	421	429	19.6	47.3
2025-09-05T15:42	10	42	3.3	36	45	419	1.5	417	422	19.6	47.8
2025-09-05T15:43	10	46	8.1	36	64	417	0.5	416	418	19.6	47.4
2025-09-05T15:44	10	77	5.7	65	88	420	1.4	417	422	19.5	45.4
2025-09-05T15:45	10	98	4.2	89	103	425	2.2	421	428	19.5	46.2
2025-09-05T15:46	10	103	0.2	103	103	428	0.5	427	429	19.6	44.8
2025-09-05T15:47	10	103	0.2	103	104	428	0.3	427	428	19.4	44.0
2025-09-05T15:48	10	103	0.1	103	104	429	0.7	427	430	19.4	44.3
2025-09-05T15:49	10	103	0.2	103	104	428	0.5	427	429	19.4	44.5
2025-09-05T15:50	10	103	0.3	103	104	427	0.2	426	427	19.3	43.6
2025-09-05T15:51	10	102	0.4	102	103	428	0.5	427	429	19.4	44.4
2025-09-05T15:52	10	101	0.2	101	102	429	0.3	428	429	19.5	44.3
2025-09-05T15:53	10	101	0.1	100	101	428	0.3	428	429	19.4	44.0
2025-09-05T15:54	10	100	0.2	100	101	428	0.3	428	429	19.4	43.8
2025-09-05T15:55	10	99	0.2	99	100	429	0.4	428	430	19.6	46.1
2025-09-05T15:56	10	99	0.3	98	99	429	0.2	429	430	19.9	46.8
2025-09-05T15:57	10	98	0.3	97	98	428	0.9	426	429	19.8	44.5
2025-09-05T15:58	10	97	0.3	96	97	427	0.4	427	428	19.6	44.2
2025-09-05T15:59	10	95	0.3	95	96	426	1.3	424	428	19.5	43.6
2025-09-05T16:00	10	94	0.4	94	95	424	0.4	423	425	19.4	43.4
2025-09-05T16:01	10	93	0.3	93	94	424	0.4	423	425	19.5	44.6
2025-09-05T16:02	10	92	0.2	92	93	424	0.3	424	425	19.5	44.4
2025-09-05T16:03	10	92	0.3	91	92	424	0.2	424	425	19.5	44.0
2025-09-05T16:04	10	91	0.2	90	91	424	0.9	422	425	19.5	44.5
2025-09-05T16:05	10	90	0.2	90	90	423	0.3	422	423	19.3	44.0
2025-09-05T16:06	10	90	0.2	89	90	424	0.2	423	424	19.3	44.0
2025-09-05T16:07	10	89	0.2	89	89	425	0.4	424	425	19.4	44.5
2025-09-05T16:08	10	88	0.2	88	89	425	0.2	425	426	19.5	43.8
2025-09-05T16:09	10	88	0.3	87	88	425	0.3	424	425	19.5	44.0
2025-09-05T16:10	10	87	0.2	87	88	424	0.3	424	425	19.5	43.6
2025-09-05T16:11	10	87	0.3	86	87	425	0.4	424	425	19.5	44.8
2025-09-05T16:12	10	85	0.5	84	86	423	0.8	422	424	19.6	46.4
2025-09-05T16:13	10	83	0.5	83	84	420	1.1	418	422	19.5	44.7
2025-09-05T16:14	10	82	0.4	81	83	420	0.5	419	421	19.4	46.0
2025-09-05T16:15	10	81	0.4	80	82	420	0.6	419	421	19.5	45.7
2025-09-05T16:16	10	80	0.3	79	80	420	0.2	419	420	19.5	46.5
2025-09-05T16:17	10	79	0.3	78	79	419	0.3	418	419	19.5	45.6
2025-09-05T16:18	10	78	0.3	77	78	419	0.3	418	419	19.6	46.7
2025-09-05T16:19	10	77	0.2	77	77	417	0.6	416	419	19.5	46.0
2025-09-05T16:20	10	76	0.2	76	77	417	0.4	416	417	19.4	46.1
2025-09-05T16:21	10	75	0.3	75	76	415	0.3	415	416	19.3	45.6
2025-09-05T16:22	10	74	0.5	73	75	416	0.2	416	417	19.4	46.9
2025-09-05T16:23	10	72	0.5	71	73	416	0.3	416	417	19.4	46.8
2025-09-05T16:24	10	71	0.4	70	71	416	0.5	415	417	19.5	47.5
2025-09-05T16:25	10	70	0.3	69	70	416	0.4	415	417	19.5	47.8
2025-09-05T16:26	10	69	0.2	68	69	415	0.6	413	416	19.3	46.9
2025-09-05T16:27	10	68	0.2	68	68	413	0.3	412	414	19.3	46.7
2025-09-05T16:28	10	67	0.3	67	68	412	0.3	411	413	19.2	46.9
2025-09-05T16:29	10	66	0.3	66	67	412	0.3	411	413	19.2	46.7
2025-09-05T16:30	10	65	0.3	65	66	412	0.2	411	412	19.1	46.1
2025-09-05T16:31	10	64	0.2	64	65	411	0.3	411	412	19.1	46.0
2025-09-05T16:32	10	63	0.2	63	64	411	0.3	410	412	19.2	46.0
2025-09-05T16:33	10	63	0.3	62	63	411	0.2	410	411	19.1	45.9
2025-09-05T16:34	10	62	0.2	61	62	411	0.3	410	412	19.1	46.5
2025-09-05T16:35	10	61	0.3	60	61	411	0.2	410	411	19.2	47.5
2025-09-05T16:36	10	60	0.2	60	61	411	0.2	410	412	19.2	46.7
2025-09-05T16:37	10	60	0.2	59	60	411	0.5	410	411	19.3	46.2
2025-09-05T16:38	10	59	0.2	59	59	409	0.2	409	410	19.2	45.5
2025-09-05T16:39	10	58	0.3	58	59	410	0.2	409	410	19.2	45.7
2025-09-05T16:40	10	57	0.3	56	58	409	0.3	408	410	19.2	46.2
2025-09-05T16:41	10	56	0.3	56	57	410	0.4	409	410	19.2	47.1
2025-09-05T16:42	10	55	0.2	55	56	409	0.2	409	409	19.2	46.2
2025-09-05T16:43	10	55	0.2	54	55	409	0.3	408	410	19.2	47.7
2025-09-05T16:44	10	54	0.2	54	55	409	0.2	409	410	19.2	47.4
2025-09-05T16:45	10	54	0.2	53	54	409	0.3	408	409	19.3	47.5
2025-09-05T16:46	10	53	0.3	52	53	408	0.4	408	409	19.3	47.2
2025-09-05T16:47	10	52	0.2	52	53	407	0.2	407	408	19.1	46.3
2025-09-05T16:48	10	51	0.3	51	52	407	0.4	406	408	19.1	46.2
2025-09-05T16:49	10	51	0.3	50	51	406	0.2	406	407	19.1	47.1
2025-09-05T16:50	10	50	0.2	49	50	407	0.3	406	407	19.2	47.8
2025-09-05T16:51	10	49	0.2	49	50	407	0.2	407	407	19.2	48.3
2025-09-05T16:52	10	48	0.2	48	49	406	0.3	406	407	19.1	47.7
2025-09-05T16:53	10	48	0.3	47	48	406	0.2	405	406	19.1	49.9
2025-09-05T16:54	10	47	0.2	47	47	406	0.3	406	407	19.1	49.4
2025-09-05T16:55	10	46	0.2	46	47	406	0.2	406	407	19.2	49.2
2025-09-05T16:56	10	46	0.2	45	46	405	0.2	405	406	19.1	48.4
2025-09-05T16:57	10	45	0.2	44	45	405	0.3	404	405	19.1	48.6
2025-09-05T16:58	10	44	0.2	44	45	404	0.2	404	405	19.1	48.8
2025-09-05T16:59	10	43	0.2	43	44	404	0.2	403	404	19.0	49.0
2025-09-05T17:00	10	43	0.3	42	43	403	0.3	403	404	19.0	47.9
2025-09-05T17:01	10	42	0.2	41	42	403	0.2	402	403	19.0	47.8
2025-09-05T17:02	10	41	0.2	41	41	403	0.2	402	403	19.0	48.0
2025-09-05T17:03	10	40	0.2	40	41	402	0.2	402	403	19.0	47.5
2025-09-05T17:04	10	39	0.2	39	40	402	0.3	401	402	19.0	47.9
2025-09-05T17:05	10	39	0.2	38	39	402	0.2	402	403	19.0	47.9
2025-09-05T17:06	10	38	0.2	38	38	402	0.2	401	402	19.0	48.5
2025-09-05T17:07	10	37	0.2	37	38	402	0.3	401	402	19.0	48.7
2025-09-05T17:08	10	37	0.3	36	37	401	0.3	401	402	18.9	49.3
2025-09-05T17:09	10	36	0.2	35	36	401	0.2	401	402	18.9	50.5
2025-09-05T17:10	10	35	0.3	34	35	401	0.2	401	401	18.9	49.8
2025-09-05T17:11	10	34	0.3	33	35	401	0.2	400	401	18.9	49.5
2025-09-05T17:12	10	33	0.3	33	34	400	0.3	400	401	18.9	49.6
2025-09-05T17:13	10	33	0.3	32	34	400	0.2	400	401	18.8	49.8
2025-09-05T17:14	10	32	0.3	31	32	400	0.3	399	400	18.8	50.1
2025-09-05T17:15	10	31	0.2	31	31	399	0.2	399	400	18.8	50.4
2025-09-05T17:16	10	30	0.2	30	31	399	0.2	398	400	18.7	50.5
2025-09-05T17:17	10	29	0.2	29	30	399	0.2	398	399	18.7	50.9
2025-09-05T17:18	10	29	0.3	28	29	399	0.2	398	399	18.7	50.5
2025-09-05T17:19	10	28	0.2	28	28	398	0.3	398	399	18.7	51.1
2025-09-05T17:20	10	27	0.2	27	28	398	0.3	397	399	18.7	51.5
2025-09-05T17:21	10	27	0.2	26	27	398	0.3	397	398	18.7	51.6
2025-09-05T17:22	10	26	0.3	25	26	398	0.2	397	398	18.7	52.0
2025-09-05T17:23	10	25	0.2	24	25	397	0.2	397	398	18.6	52.7
2025-09-05T17:24	10	24	0.2	24	25	397	0.2	396	397	18.6	53.4
2025-09-05T17:25	10	23	0.2	23	24	397	0.2	396	397	18.6	52.8
2025-09-05T17:26	10	23	0.2	22	23	396	0.2	396	397	18.5	53.4
2025-09-05T17:27	10	22	0.2	21	23	396	0.2	396	397	18.5	53.6
2025-09-05T17:28	10	21	0.2	21	22	396	0.2	395	396	18.5	53.5
2025-09-05T17:29	10	21	0.3	20	21	396	0.2	395	396	18.5	53.8
2025-09-05T17:30	10	20	0.3	19	20	396	0.3	395	396	18.4	54.1
2025-09-05T17:31	10	19	0.3	18	19	395	0.3	395	396	18.5	53.3
2025-09-05T17:32	10	18	0.3	17	19	395	0.3	395	396	18.5	53.3
2025-09-05T17:33	10	17	0.3	16	18	395	0.3	394	396	18.4	53.5
2025-09-05T17:34	10	16	0.3	15	16	395	0.2	394	395	18.4	53.8
2025-09-05T17:35	10	15	0.4	14	16	394	0.2	394	395	18.4	53.8
2025-09-05T17:36	10	13	0.4	12	14	394	0.2	394	395	18.3	54.1
2025-09-05T17:37	10	12	0.4	11	12	394	0.3	393	395	18.3	54.4
2025-09-05T17:38	10	11	0.3	10	11	393	0.2	393	394	18.3	55.1
2025-09-05T17:39	10	10	0.3	9	10	393	0.3	392	393	18.2	55.4
2025-09-05T17:40	10	9	0.2	8	9	392	0.3	392	393	18.2	55.2
2025-09-05T17:41	10	8	0.2	8	9	392	0.2	392	393	18.2	55.6
2025-09-05T17:42	10	8	0.2	7	8	392	0.3	392	393	18.2	55.3
2025-09-05T17:43	10	7	0.2	7	7	392	0.3	391	393	18.1	55.5
2025-09-05T17:44	10	7	0.1	6	7	391	0.3	391	392	18.0	56.3
2025-09-05T17:45	10	6	0.2	6	7	390	0.2	390	391	18.0	56.5
2025-09-05T17:46	10	6	0.1	6	6	391	0.3	390	391	18.0	56.5
2025-09-05T17:47	10	5	0.2	5	6	390	0.2	390	391	18.0	56.7
2025-09-05T17:48	10	5	0.3	4	5	390	0.3	389	390	17.9	57.4
2025-09-05T17:49	10	3	0.4	3	4	389	0.3	388	389	17.9	56.9
2025-09-05T17:50	10	2	0.2	2	3	388	0.3	388	389	17.9	57.4
2025-09-05T17:51	10	2	0.1	2	2	388	0.3	387	388	17.7	58.2
2025-09-05T17:52	10	2	0.2	1	2	388	0.3	388	389	17.8	57.2
2025-09-05T17:53	10	2	0.2	1	2	388	0.4	387	389	17.7	58.4
2025-09-05T17:54	10	2	0.2	1	2	387	0.3	386	388	17.6	58.6
2025-09-05T17:55	10	2	0.2	1	2	387	0.3	387	388	17.5	58.8
2025-09-05T17:56	10	1	0.2	1	2	387	0.3	386	387	17.5	58.7
2025-09-05T17:57	10	1	0.1	1	2	387	0.2	386	387	17.5	58.7
2025-09-05T17:58	10	1	0.1	1	2	386	0.3	385	386	17.4	59.5
2025-09-05T17:59	10	1	0.1	1	1	386	0.3	385	387	17.4	59.0
2025-09-05T18:00	10	1	0.1	1	1	386	0.2	385	386	17.3	59.8
2025-09-05T18:01	10	1	0.1	1	1	385	0.3	385	386	17.3	59.8
2025-09-05T18:02	10	1	0.1	1	1	386	0.3	385	386	17.3	59.2
2025-09-05T18:03	10	1	0.1	1	1	386	0.4	385	386	17.3	59.5
2025-09-05T18:04	10	1	0.1	1	1	385	0.2	385	386	17.2	59.8
2025-09-05T18:05	10	1	0.1	1	1	385	0.2	384	386	17.2	59.9
2025-09-05T18:06	10	1	0.1	1	1	385	0.2	384	385	17.1	60.3
2025-09-05T18:07	10	1	0.1	1	1	384	0.2	384	385	17.1	60.4
2025-09-05T18:08	10	1	0.1	0	1	383	0.4	383	384	17.0	61.0
2025-09-05T18:09	10	1	0.1	0	1	382	0.3	382	383	16.9	61.7
2025-09-05T18:10	10	0	0.1	0	1	382	0.2	382	383	16.9	61.7
2025-09-05T18:11	10	0	0.1	0	1	382	0.2	382	383	17.0	61.3
2025-09-05T18:12	10	0	0.1	0	1	383	0.4	382	384	17.0	60.6
2025-09-05T18:13	10	0	0.1	0	1	383	0.3	383	384	17.0	61.3
2025-09-05T18:14	10	0	0.1	0	0	383	0.4	383	384	17.0	61.2
2025-09-05T18:15	10	0	0.1	0	0	383	0.2	382	384	16.9	61.9
2025-09-05T18:16	10	0	0.1	0	1	383	0.3	382	383	16.8	62.6
2025-09-05T18:17	10	0	0.1	0	0	383	0.3	382	383	16.7	63.3
2025-09-05T18:18	10	0	0.1	0	0	382	0.2	381	382	16.7	63.2
2025-09-05T18:19	10	0	0.1	0	0	382	0.2	381	382	16.7	63.4
2025-09-05T18:20	10	0	0.1	0	0	381	0.3	380	381	16.6	63.7
2025-09-05T18:21	10	0	0.1	0	0	380	0.3	379	381	16.5	64.9
2025-09-05T18:22	10	0	0.1	0	0	379	0.3	378	380	16.4	64.8
2025-09-05T18:23	10	0	0.1	0	0	378	0.3	378	379	16.4	65.2
2025-09-05T18:24	10	0	0.1	0	0	378	0.4	377	379	16.3	65.8
2025-09-05T18:25	10	0	0.1	0	0	378	0.3	378	379	16.4	65.2
2025-09-05T18:26	10	0	0.1	0	0	378	0.2	377	378	16.4	65.5
2025-09-05T18:27	10	0	0.1	0	0	378	0.3	377	378	16.3	66.0
2025-09-05T18:28	10	0	0.0	0	0	378	0.3	377	379	16.3	66.4
2025-09-05T18:29	10	0	0.1	0	0	378	0.3	378	379	16.3	66.7
2025-09-05T18:30	10	0	0.1	0	0	379	0.3	378	379	16.3	66.8
2025-09-05T18:31	10	0	0.1	0	0	379	0.3	378	379	16.2	67.7
2025-09-05T18:32	10	0	0.1	0	0	379	0.3	378	379	16.1	67.9
2025-09-05T18:33	10	0	0.1	0	0	379	0.5	378	380	16.1	68.2
2025-09-05T18:34	10	0	0.1	0	0	379	0.2	378	379	16.2	68.2
2025-09-05T18:35	10	0	0.1	0	0	380	0.5	378	380	16.2	67.7
2025-09-05T18:36	10	0	0.1	0	0	380	0.4	379	381	16.2	67.8
2025-09-05T18:37	10	0	0.2	0	0	380	0.3	379	380	16.2	67.7
2025-09-05T18:38	10	0	0.1	0	0	379	0.4	378	380	16.1	67.8
2025-09-05T18:39	10	0	0.2	0	0	378	0.3	378	379	16.0	68.4
2025-09-05T18:40	10	0	0.1	0	0	378	0.3	378	379	15.9	68.7
2025-09-05T18:41	10	0	0.1	0	0	378	0.3	377	378	15.8	69.6
2025-09-05T18:42	10	0	0.2	0	1	378	0.2	377	378	15.8	69.5
2025-09-05T18:43	10	0	0.1	0	0	377	0.3	376	378	15.8	69.7
2025-09-05T18:44	10	0	0.1	0	0	377	0.2	376	377	15.8	69.7
2025-09-05T18:45	10	0	0.1	0	0	377	0.3	376	377	15.8	69.8
2025-09-05T18:46	10	0	0.1	0	0	376	0.3	376	377	15.7	70.1
2025-09-05T18:47	10	0	0.1	0	0	376	0.3	375	377	15.8	69.9
2025-09-05T18:48	10	0	0.1	0	0	376	0.3	376	377	15.8	69.8
2025-09-05T18:49	10	0	0.1	0	0	376	0.2	375	376	15.8	69.6
2025-09-05T18:50	10	0	0.1	0	0	377	0.9	375	378	16.0	68.5
2025-09-05T18:51	10	0	0.1	0	0	378	0.2	377	378	16.0	68.7
2025-09-05T18:52	10	0	0.1	0	0	378	0.3	377	378	16.0	68.2
2025-09-05T18:53	10	0	0.1	0	0	378	0.4	377	379	16.0	68.9
2025-09-05T18:54	10	0	0.0	0	0	376	0.4	376	377	15.9	69.8
2025-09-05T18:55	10	0	0.1	0	0	376	0.3	375	377	15.8	70.0
2025-09-05T18:56	10	0	0.1	0	0	375	0.5	374	376	15.8	69.5
2025-09-05T18:57	10	0	0.1	0	0	375	0.3	374	375	15.7	70.7
2025-09-05T18:58	10	0	0.1	0	0	375	0.4	374	376	15.6	70.4
2025-09-05T18:59	10	0	0.1	0	0	375	0.3	375	376	15.6	70.3
2025-09-05T19:00	10	0	0.1	0	0	375	0.2	375	376	15.6	70.3
2025-09-05T19:01	10	0	0.1	0	0	374	0.3	374	375	15.5	71.4
2025-09-05T19:02	10	0	0.1	0	0	374	0.3	374	375	15.4	72.1
2025-09-05T19:03	10	0	0.1	0	0	375	0.3	374	376	15.4	71.4
2025-09-05T19:04	10	0	0.1	0	0	375	0.2	374	375	15.4	71.3
2025-09-05T19:05	10	0	0.1	0	0	374	0.2	374	375	15.4	71.5
2025-09-05T19:06	10	0	0.1	0	0	375	0.6	374	376	15.5	70.7
2025-09-05T19:07	10	0	0.0	0	0	375	0.3	375	376	15.5	71.0
2025-09-05T19:08	10	0	0.1	0	0	375	0.3	374	376	15.5	71.0
2025-09-05T19:09	10	0	0.1	0	0	375	0.2	374	375	15.4	71.6
2025-09-05T19:10	10	0	0.1	0	0	374	0.3	374	375	15.4	71.6
2025-09-05T19:11	10	0	0.1	0	0	374	0.3	373	374	15.3	72.1
2025-09-05T19:12	10	0	0.1	0	0	374	0.3	373	374	15.4	71.1
2025-09-05T19:13	10	0	0.1	0	0	374	0.2	374	375	15.5	70.8
2025-09-05T19:14	10	0	0.0	0	0	374	0.2	374	375	15.4	71.2
2025-09-05T19:15	10	0	0.0	0	0	374	0.2	374	374	15.4	70.8
2025-09-05T19:16	10	0	0.1	0	0	374	0.2	374	375	15.4	71.2
2025-09-05T19:17	10	0	0.0	0	0	374	0.3	374	375	15.4	71.4
2025-09-05T19:18	10	0	0.1	0	0	374	0.3	373	374	15.3	71.7
2025-09-05T19:19	10	0	0.1	0	0	374	0.3	373	374	15.2	71.9
2025-09-05T19:20	10	0	0.0	0	0	374	0.2	373	374	15.2	72.1
2025-09-05T19:21	10	0	0.1	0	0	373	0.3	373	374	15.1	72.7
2025-09-05T19:22	10	0	0.1	0	0	374	0.3	373	374	15.1	72.8
2025-09-05T19:23	10	0	0.1	0	0	374	0.4	374	375	15.0	72.9
2025-09-05T19:24	10	0	0.1	0	0	374	0.2	374	375	15.0	72.9
2025-09-05T19:25	10	0	0.1	0	0	375	0.2	375	376	15.1	72.7
2025-09-05T19:26	10	0	0.1	0	0	375	0.2	374	375	15.1	72.4
2025-09-05T19:27	10	0	0.1	0	0	375	0.3	374	375	15.1	72.5
2025-09-05T19:28	10	0	0.2	0	0	375	0.2	374	375	15.1	72.1
2025-09-05T19:29	10	0	0.1	0	0	375	0.3	374	375	15.1	72.1
2025-09-05T19:30	10	0	0.1	0	0	375	0.3	374	376	15.1	71.5
2025-09-05T19:31	10	0	0.1	0	0	376	0.3	375	376	15.2	70.9
2025-09-05T19:32	10	0	0.1	0	0	376	0.3	375	376	15.3	70.2
2025-09-05T19:33	10	0	0.2	0	1	376	0.6	375	378	15.3	70.3
2025-09-05T19:34	10	0	0.1	0	0	377	0.2	376	377	15.4	69.5
2025-09-05T19:35	10	0	0.1	0	0	377	0.2	376	377	15.4	69.5
2025-09-05T19:36	10	0	0.2	0	1	376	0.3	375	377	15.3	69.4
2025-09-05T19:37	10	0	0.1	0	0	376	0.3	375	376	15.3	69.7
2025-09-05T19:38	10	0	0.1	0	0	375	0.3	374	376	15.3	69.7
2025-09-05T19:39	10	0	0.1	0	0	375	0.2	375	376	15.3	69.4
2025-09-05T19:40	10	0	0.0	0	0	375	0.3	375	376	15.2	70.1
2025-09-05T19:41	10	0	0.1	0	0	375	0.3	374	375	15.1	70.7
2025-09-05T19:42	10	0	0.1	0	0	375	0.4	374	376	15.1	70.3
2025-09-05T19:43	10	0	0.0	0	0	375	0.3	374	376	15.2	70.2
2025-09-05T19:44	10	0	0.0	0	0	375	0.2	374	375	15.1	70.6
2025-09-05T19:45	10	0	0.0	0	0	375	0.3	374	375	15.1	70.7
2025-09-05T19:46	10	0	0.0	0	0	375	0.3	374	375	15.1	70.7
2025-09-05T19:47	10	0	0.0	0	0	375	0.3	375	376	15.2	69.8
2025-09-05T19:48	10	0	0.0	0	0	375	0.4	374	376	15.2	69.7
2025-09-05T19:49	10	0	0.1	0	0	375	0.3	374	375	15.1	70.0
2025-09-05T19:50	10	0	0.1	0	0	375	0.3	374	375	15.0	70.6
2025-09-05T19:51	10	0	0.0	0	0	375	0.2	374	375	15.1	70.1
2025-09-05T19:52	10	0	0.0	0	0	375	0.3	374	375	15.1	70.1
2025-09-05T19:53	10	0	0.0	0	0	375	0.2	374	375	15.1	70.3
2025-09-05T19:54	10	0	0.0	0	0	375	0.2	374	375	15.0	70.7
2025-09-05T19:55	10	0	0.0	0	0	375	0.2	374	375	14.9	71.1
2025-09-05T19:56	10	0	0.1	0	0	375	0.2	374	375	15.0	70.7
2025-09-05T19:57	10	0	0.1	0	0	375	0.3	374	375	15.0	70.7
2025-09-05T19:58	10	0	0.0	0	0	375	0.2	374	375	15.0	70.4
2025-09-05T19:59	10	0	0.0	0	0	375	0.3	374	375	15.1	69.8
2025-09-05T20:00	10	0	0.1	0	0	375	0.3	374	376	15.1	69.6
2025-09-05T20:01	10	0	0.0	0	0	375	0.2	374	375	15.1	69.8
2025-09-05T20:02	10	0	0.1	0	0	375	0.3	374	375	15.1	69.7
2025-09-05T20:03	10	0	0.1	0	0	374	0.4	374	375	15.1	69.5
2025-09-05T20:04	10	0	0.1	0	0	374	0.2	374	375	15.2	69.3
2025-09-05T20:05	10	0	0.1	0	0	374	0.3	373	375	15.0	70.4
2025-09-05T20:06	10	0	0.1	0	0	374	0.3	373	374	15.0	70.8
2025-09-05T20:07	10	0	0.1	0	0	373	0.2	373	374	15.0	71.1
2025-09-05T20:08	10	0	0.1	0	0	373	0.3	372	374	15.0	70.9
2025-09-05T20:09	10	0	0.1	0	0	373	0.2	373	374	15.1	70.2
2025-09-05T20:10	10	0	0.1	0	0	373	0.2	373	374	15.0	70.7
2025-09-05T20:11	10	0	0.1	0	0	373	0.3	373	374	15.1	70.3
2025-09-05T20:12	10	0	0.1	0	0	373	0.3	373	374	15.0	70.6
2025-09-05T20:13	10	0	0.1	0	0	373	0.3	373	374	15.0	70.8
2025-09-05T20:14	10	0	0.1	0	0	373	0.3	372	374	15.0	70.2
2025-09-05T20:15	10	0	0.1	0	0	374	0.3	373	374	15.1	70.1
2025-09-05T20:16	10	0	0.1	0	0	374	0.2	373	374	15.0	70.3
2025-09-05T20:17	10	0	0.1	0	0	373	0.3	373	374	15.0	70.3
2025-09-05T20:18	10	0	0.1	0	0	373	0.3	372	373	14.9	71.1
2025-09-05T20:19	10	0	0.1	0	0	373	0.3	372	373	14.9	71.2
2025-09-05T20:20	10	0	0.1	0	0	373	0.3	372	373	14.8	71.5
2025-09-05T20:21	10	0	0.1	0	0	373	0.3	372	373	14.9	71.3
2025-09-05T20:22	10	0	0.1	0	0	372	0.2	372	373	14.8	71.6
2025-09-05T20:23	10	0	0.1	0	0	372	0.2	371	372	14.8	71.9
2025-09-05T20:24	10	0	0.1	0	0	372	0.3	371	372	14.7	70.7
2025-09-05T20:25	10	0	0.1	0	0	372	0.3	371	372	14.7	69.5
2025-09-05T20:26	10	0	0.1	0	0	371	0.4	370	372	14.7	71.9
2025-09-05T20:27	10	0	0.1	0	0	371	0.2	370	371	14.7	71.9
2025-09-05T20:28	10	0	0.1	0	0	370	0.3	370	371	14.7	71.9
2025-09-05T20:29	10	0	0.1	0	0	370	0.2	369	370	14.7	71.9
2025-09-05T20:30	10	0	0.1	0	0	370	0.3	369	371	14.7	71.9
2025-09-05T20:31	10	0	0.1	0	0	370	0.3	370	371	14.7	72.3
2025-09-05T20:32	10	0	0.1	0	0	370	0.3	369	371	14.6	72.8
2025-09-05T20:33	10	0	0.1	0	0	370	0.5	369	371	14.6	73.2
2025-09-05T20:34	10	0	0.1	0	0	371	0.2	370	371	14.6	73.1
2025-09-05T20:35	10	0	0.1	0	0	371	0.2	370	372	14.6	73.1
2025-09-05T20:36	10	0	0.1	0	0	372	0.4	371	372	14.7	72.7
2025-09-05T20:37	10	0	0.0	0	0	372	0.2	371	372	14.7	72.6
2025-09-05T20:38	10	0	0.1	0	0	372	0.3	371	372	14.6	73.2
2025-09-05T20:39	10	0	0.1	0	0	371	0.2	371	372	14.6	73.2
2025-09-05T20:40	10	0	0.0	0	0	371	0.2	370	371	14.6	73.5
2025-09-05T20:41	10	0	0.1	0	0	371	0.2	370	371	14.5	73.8
2025-09-05T20:42	10	0	0.1	0	0	370	0.2	369	370	14.5	74.1
2025-09-05T20:43	10	0	0.1	0	0	370	0.2	369	371	14.4	74.6
2025-09-05T20:44	10	0	0.1	0	0	370	0.2	369	370	14.3	74.9
2025-09-05T20:45	10	0	0.1	0	0	370	0.2	370	370	14.4	74.7
2025-09-05T20:46	10	0	0.1	0	0	370	0.2	369	370	14.3	75.0
2025-09-05T20:47	10	0	0.1	0	0	370	0.4	369	371	14.3	75.1
2025-09-05T20:48	10	0	0.1	0	0	371	0.3	370	371	14.3	75.1
2025-09-05T20:49	10	0	0.1	0	0	371	0.2	370	371	14.3	75.0
2025-09-05T20:50	10	0	0.0	0	0	371	0.3	370	371	14.3	75.2
2025-09-05T20:51	10	0	0.1	0	0	371	0.2	370	371	14.3	75.2
2025-09-05T20:52	10	0	0.0	0	0	371	0.4	370	372	14.3	75.1
2025-09-05T20:53	10	0	0.1	0	0	372	0.3	371	372	14.2	75.4
2025-09-05T20:54	10	0	0.1	0	0	372	0.2	371	372	14.1	76.3
2025-09-05T20:55	10	0	0.0	0	0	371	0.2	371	371	14.1	76.4
2025-09-05T20:56	10	0	0.1	0	1	371	0.3	370	371	14.1	76.4
2025-09-05T20:57	10	0	0.1	0	0	370	0.3	369	371	14.0	77.1
2025-09-05T20:58	10	0	0.1	0	0	369	0.3	369	370	13.9	77.3
2025-09-05T20:59	10	0	0.1	0	0	369	0.3	369	370	13.9	77.6
2025-09-05T21:00	10	0	0.1	0	0	369	0.2	368	369	13.8	78.2
2025-09-05T21:01	10	0	0.1	0	0	368	0.3	368	369	13.7	78.4
2025-09-05T21:02	10	0	0.1	0	0	368	0.3	367	368	13.8	77.9
2025-09-05T21:03	10	0	0.1	0	0	368	0.4	367	368	13.8	77.6
2025-09-05T21:04	10	0	0.1	0	0	368	0.3	367	368	13.8	77.6
2025-09-05T21:05	10	0	0.1	0	0	368	0.3	367	369	13.9	77.5
2025-09-05T21:06	10	0	0.1	0	0	368	0.3	367	369	13.8	77.6
2025-09-05T21:07	10	0	0.1	0	0	368	0.3	367	369	13.8	77.8
2025-09-05T21:08	10	0	0.1	0	0	369	0.6	367	369	13.9	76.8
2025-09-05T21:09	10	0	0.1	0	0	369	0.4	368	369	13.9	77.1
2025-09-05T21:10	10	0	0.1	0	0	369	0.2	368	369	13.9	77.0
2025-09-05T21:11	10	0	0.1	0	0	369	0.3	368	369	13.9	77.1
2025-09-05T21:12	10	0	0.1	0	0	368	0.2	368	369	13.9	76.9
2025-09-05T21:13	10	0	0.1	0	0	369	0.3	368	369	13.9	76.8
2025-09-05T21:14	10	0	0.1	0	0	369	0.3	368	369	14.0	76.6
2025-09-05T21:15	10	0	0.1	0	0	369	0.3	368	369	14.0	76.6
2025-09-05T21:16	10	0	0.2	0	0	369	0.4	368	370	14.0	76.5
2025-09-05T21:17	10	0	0.1	0	0	368	0.4	368	369	13.9	76.7
2025-09-05T21:18	10	0	0.1	0	0	368	0.2	367	369	13.9	76.9
2025-09-05T21:19	10	0	0.1	0	1	369	0.7	368	370	14.0	76.5
2025-09-05T21:20	10	0	0.2	0	0	369	0.5	368	370	14.0	76.4
2025-09-05T21:21	10	0	0.1	0	0	368	0.3	367	368	13.9	76.9
2025-09-05T21:22	10	0	0.1	0	0	367	0.3	367	368	13.9	77.2
2025-09-05T21:23	10	0	0.2	0	0	367	0.4	366	368	13.9	77.3
2025-09-05T21:24	10	0	0.2	0	1	366	0.3	366	367	13.8	77.8
2025-09-05T21:25	10	0	0.1	0	0	367	0.3	366	367	13.8	77.7
2025-09-05T21:26	10	0	0.1	0	0	366	0.2	366	367	13.8	77.8
2025-09-05T21:27	10	0	0.1	0	0	366	0.3	366	367	13.8	77.6
2025-09-05T21:28	10	0	0.1	0	0	366	0.3	365	366	13.8	77.8
2025-09-05T21:29	10	0	0.1	0	0	365	0.2	365	366	13.7	78.2
2025-09-05T21:30	10	0	0.1	0	0	365	0.2	364	366	13.7	78.3
2025-09-05T21:31	10	0	0.1	0	0	365	0.3	365	366	13.6	78.7
2025-09-05T21:32	10	0	0.2	-1	1	365	0.2	364	365	13.6	78.8
2025-09-05T21:33	10	0	0.1	0	0	364	0.2	364	365	13.6	79.1
2025-09-05T21:34	10	0	0.1	0	0	364	0.2	364	365	13.5	79.3
2025-09-05T21:35	10	0	0.1	0	0	364	0.3	364	365	13.4	79.8
2025-09-05T21:36	10	0	0.6	0	4	364	0.3	364	365	13.5	79.4
2025-09-05T21:37	10	0	0.1	0	0	365	0.7	364	366	13.6	78.9
2025-09-05T21:38	10	0	0.1	0	0	366	0.2	365	366	13.7	78.8
2025-09-05T21:39	10	0	0.1	0	0	366	0.2	365	366	13.5	79.4
2025-09-05T21:40	10	0	0.1	0	0	365	0.3	364	366	13.5	79.6
2025-09-05T21:41	10	0	0.1	0	0	364	0.2	364	365	13.5	79.6
2025-09-05T21:42	10	0	0.1	0	0	364	0.3	363	364	13.5	79.6
2025-09-05T21:43	10	0	0.1	0	0	363	0.2	363	364	13.5	79.3
2025-09-05T21:44	10	0	0.1	0	0	363	0.3	363	364	13.5	79.3
2025-09-05T21:45	10	0	0.1	0	0	363	0.2	363	364	13.6	79.1
2025-09-05T21:46	10	0	0.0	0	0	364	0.2	363	364	13.4	79.8
2025-09-05T21:47	10	0	0.1	0	0	363	0.2	363	364	13.5	79.7
2025-09-05T21:48	10	0	0.1	0	0	363	0.3	362	364	13.4	80.3
2025-09-05T21:49	10	0	0.1	0	0	363	0.2	362	363	13.3	80.8
2025-09-05T21:50	10	0	0.1	0	0	362	0.2	362	363	13.2	81.3
2025-09-05T21:51	10	0	0.1	0	0	362	0.3	361	363	13.2	81.3
2025-09-05T21:52	10	0	0.1	0	0	362	0.2	362	363	13.2	81.3
2025-09-05T21:53	10	0	0.1	0	0	362	0.2	361	362	13.2	81.3
2025-09-05T21:54	10	0	0.0	0	0	362	0.2	361	362	13.3	81.1
2025-09-05T21:55	10	0	0.1	0	0	362	0.2	361	362	13.3	81.2
2025-09-05T21:56	10	0	0.1	0	0	361	0.2	361	362	13.2	81.2
2025-09-05T21:57	10	0	0.1	0	0	361	0.3	361	362	13.2	81.6
2025-09-05T21:58	10	0	0.1	0	0	361	0.2	361	362	13.2	81.7
2025-09-05T21:59	10	0	0.1	0	0	361	0.2	361	362	13.1	81.9
2025-09-05T22:00	10	0	0.1	0	0	361	0.2	361	362	13.1	82.0
2025-09-05T22:01	10	0	0.1	0	0	362	0.2	361	362	13.2	81.7
2025-09-05T22:02	10	0	0.1	0	0	361	0.2	361	362	13.2	81.8
2025-09-05T22:03	10	0	0.1	0	0	362	0.2	361	362	13.2	81.8
2025-09-05T22:04	10	0	0.1	0	0	362	0.2	361	362	13.1	82.3
2025-09-05T22:05	10	0	0.1	0	0	361	0.3	361	362	13.0	82.6
2025-09-05T22:06	10	0	0.1	0	0	361	0.3	360	362	13.0	82.7
2025-09-05T22:07	10	0	0.1	0	0	361	0.2	360	361	12.9	83.1
2025-09-05T22:08	10	0	0.1	0	0	361	0.3	360	361	12.9	83.3
2025-09-05T22:09	10	0	0.1	0	0	360	0.3	360	361	12.9	83.4
2025-09-05T22:10	10	0	0.1	0	0	360	0.3	360	361	12.7	83.7
2025-09-05T22:11	10	0	0.1	0	0	361	0.3	360	362	12.5	85.0
2025-09-05T22:12	10	0	0.1	0	0	361	0.3	360	362	12.6	84.7
2025-09-05T22:13	10	0	0.1	0	0	360	0.3	360	361	12.4	86.1
2025-09-05T22:14	10	0	0.1	0	0	360	0.3	359	360	12.3	87.0
2025-09-05T22:15	10	0	0.1	0	0	359	0.2	359	360	12.2	87.4
2025-09-05T22:16	10	0	0.1	0	0	360	0.2	359	360	12.0	88.1
2025-09-05T22:17	10	0	0.1	0	0	360	0.3	359	360	12.1	87.8
2025-09-05T22:18	10	0	0.1	0	0	360	0.3	359	360	12.0	87.8
2025-09-05T22:19	10	0	0.1	0	0	360	0.4	359	361	12.0	87.8
2025-09-05T22:20	10	0	0.1	0	0	360	0.3	359	361	12.3	86.2
2025-09-05T22:21	10	0	0.1	0	0	360	0.3	360	361	12.1	87.4
2025-09-05T22:22	10	0	0.1	0	0	360	0.4	359	361	12.0	87.4
2025-09-05T22:23	10	0	0.1	0	0	360	0.3	360	361	12.0	87.6
2025-09-05T22:24	10	0	0.1	0	0	360	0.3	360	361	12.0	87.6
2025-09-05T22:25	10	0	0.1	0	0	361	0.3	360	361	12.1	87.2
2025-09-05T22:26	10	0	0.1	0	0	360	0.3	360	361	12.0	87.5
2025-09-05T22:27	10	0	0.1	0	0	360	0.2	360	361	12.0	87.6
2025-09-05T22:28	10	0	0.1	0	0	360	0.3	360	361	11.9	88.1
2025-09-05T22:29	10	0	0.1	0	0	360	0.2	359	361	12.0	87.6
2025-09-05T22:30	10	0	0.1	0	0	360	0.2	359	360	12.1	87.2
2025-09-05T22:31	10	0	0.1	0	0	359	0.3	358	360	12.0	87.3
2025-09-05T22:32	10	0	0.1	0	0	359	0.3	358	360	12.1	86.8
2025-09-05T22:33	10	0	0.4	0	2	359	0.3	359	360	12.3	86.1
2025-09-05T22:34	10	0	0.1	0	0	359	0.3	359	360	12.4	85.5
2025-09-05T22:35	10	0	0.1	0	0	359	0.3	359	360	12.3	85.5
2025-09-05T22:36	10	0	0.1	0	0	359	0.3	358	360	12.4	85.4
2025-09-05T22:37	10	0	0.1	0	0	360	0.2	359	360	12.3	85.5
2025-09-05T22:38	10	0	0.1	0	0	359	0.3	358	360	12.3	85.4
2025-09-05T22:39	10	0	0.1	0	0	359	0.3	358	359	12.4	85.2
2025-09-05T22:40	10	0	0.1	0	0	358	0.3	358	359	12.4	85.0
2025-09-05T22:41	10	0	0.1	0	0	358	0.2	357	358	12.4	85.1
2025-09-05T22:42	10	0	0.1	0	0	359	0.2	358	359	12.3	85.4
2025-09-05T22:43	10	0	0.1	0	0	359	0.3	358	359	12.4	84.7
2025-09-05T22:44	10	0	0.1	0	0	358	0.2	358	359	12.7	83.6
2025-09-05T22:45	10	0	0.1	0	0	359	0.3	358	359	12.9	82.7
2025-09-05T22:46	10	0	0.1	0	0	359	0.3	359	360	13.0	81.8
2025-09-05T22:47	10	0	0.1	0	0	359	0.3	358	360	13.0	81.9
2025-09-05T22:48	10	0	0.1	0	0	359	0.2	358	359	12.9	82.7
2025-09-05T22:49	10	0	0.1	0	0	359	0.3	358	359	12.5	84.2
2025-09-05T22:50	10	0	0.1	0	0	359	0.2	358	359	12.4	85.1
2025-09-05T22:51	10	0	0.1	0	0	359	0.3	358	360	12.3	85.4
2025-09-05T22:52	10	0	0.1	0	0	359	0.4	358	359	12.2	86.0
2025-09-05T22:53	10	0	0.1	0	0	358	0.3	357	359	12.1	86.3
2025-09-05T22:54	10	0	0.1	0	0	358	0.3	357	358	12.1	86.8
2025-09-05T22:55	10	0	0.1	0	0	358	0.2	357	358	12.1	86.8
2025-09-05T22:56	10	0	0.1	0	0	358	0.3	357	358	12.0	87.1
2025-09-05T22:57	10	0	0.1	0	0	358	0.2	357	358	12.0	87.4
2025-09-05T22:58	10	0	0.1	0	0	358	0.2	358	359	11.9	88.4
2025-09-05T22:59	10	0	0.1	0	0	359	0.2	358	359	11.9	88.3
2025-09-05T23:00	10	0	0.1	0	0	359	0.3	358	359	11.9	87.8
2025-09-05T23:01	10	0	0.1	0	0	359	0.3	358	360	12.1	86.9
2025-09-05T23:02	10	0	0.1	0	0	359	0.3	359	360	12.3	85.9
2025-09-05T23:03	10	0	0.1	0	0	359	0.2	358	359	12.4	85.3
2025-09-05T23:04	10	0	0.1	0	0	359	0.3	359	360	12.4	84.7
2025-09-05T23:05	10	0	0.1	0	0	359	0.3	358	359	12.5	84.6
2025-09-05T23:06	10	0	0.1	0	0	358	0.4	357	359	12.4	84.8
2025-09-05T23:07	10	0	0.1	0	0	357	0.4	357	358	12.4	85.2
2025-09-05T23:08	10	0	0.1	0	0	357	0.3	357	358	12.3	85.4
2025-09-05T23:09	10	0	0.1	0	0	357	0.2	357	357	12.3	85.6
2025-09-05T23:10	10	0	0.1	0	0	357	0.3	356	357	12.3	85.6
2025-09-05T23:11	10	0	0.1	0	0	356	0.3	356	357	12.4	85.4
2025-09-05T23:12	10	0	0.1	0	0	357	0.2	356	357	12.4	84.9
2025-09-05T23:13	10	0	0.0	0	0	357	0.2	356	357	12.4	84.8
2025-09-05T23:14	10	0	0.1	0	0	357	0.3	356	357	12.4	84.7
2025-09-05T23:15	10	0	0.1	0	0	357	0.2	356	357	12.4	85.1
2025-09-05T23:16	10	0	0.1	0	0	357	0.2	356	357	12.4	84.8
2025-09-05T23:17	10	0	0.1	0	0	357	0.2	357	357	12.6	84.0
2025-09-05T23:18	10	0	0.1	0	0	357	0.2	356	357	12.6	84.0
2025-09-05T23:19	10	0	0.1	0	0	357	0.2	357	357	12.5	84.5
2025-09-05T23:20	10	0	0.1	0	0	357	0.2	356	357	12.5	84.8
2025-09-05T23:21	10	0	0.1	0	0	357	0.2	356	357	12.5	85.1
2025-09-05T23:22	10	0	0.1	0	0	356	0.3	356	357	12.4	85.5
2025-09-05T23:23	10	0	0.1	0	0	357	0.2	356	357	12.3	86.2
2025-09-05T23:24	10	0	0.1	0	0	357	0.2	356	357	12.2	86.4
2025-09-05T23:25	10	0	0.1	0	0	357	0.2	356	358	12.2	86.5
2025-09-05T23:26	10	0	0.1	0	0	357	0.2	356	357	12.2	86.5
2025-09-05T23:27	10	0	0.1	0	0	357	0.2	356	358	12.1	86.6
2025-09-05T23:28	10	0	0.1	0	0	357	0.3	356	357	12.1	86.6
2025-09-05T23:29	10	0	0.1	0	0	357	0.2	356	357	11.9	87.4
2025-09-05T23:30	10	0	0.1	0	0	356	0.2	356	357	11.7	88.2
2025-09-05T23:31	10	0	0.1	0	0	356	0.3	355	357	11.6	89.0
2025-09-05T23:32	10	0	0.1	0	0	355	0.2	355	356	11.5	89.8
2025-09-05T23:33	10	0	0.1	0	0	355	0.2	355	356	11.5	90.5
2025-09-05T23:34	10	0	0.1	0	0	355	0.2	354	356	11.4	90.9
2025-09-05T23:35	10	0	0.1	0	0	355	0.3	354	356	11.4	91.0
2025-09-05T23:36	10	0	0.1	0	0	355	0.2	354	355	11.5	90.7
2025-09-05T23:37	10	0	0.1	0	0	356	0.4	355	356	11.6	89.8
2025-09-05T23:38	10	0	0.1	0	0	356	0.4	355	357	11.9	88.5
2025-09-05T23:39	10	0	0.1	0	0	356	0.3	356	357	12.0	87.5
2025-09-05T23:40	10	0	0.1	0	0	356	0.2	356	357	12.1	87.0
2025-09-05T23:41	10	0	0.1	0	0	356	0.2	356	357	12.2	86.6
2025-09-05T23:42	10	0	0.1	0	0	356	0.2	356	357	12.2	86.5
2025-09-05T23:43	10	0	0.1	0	0	357	0.2	356	357	12.2	86.4
2025-09-05T23:44	10	0	0.1	0	0	357	0.3	356	357	12.2	86.6
2025-09-05T23:45	10	0	0.1	0	0	357	0.3	356	357	12.2	86.6
2025-09-05T23:46	10	0	0.1	0	0	357	0.2	356	357	12.2	86.7
2025-09-05T23:47	10	0	0.1	0	0	356	0.3	356	357	12.3	86.4
2025-09-05T23:48	10	0	0.1	0	0	356	0.3	356	357	12.3	86.2
2025-09-05T23:49	10	0	0.1	0	0	356	0.2	355	356	12.3	86.3
2025-09-05T23:50	10	0	0.1	0	0	355	0.3	355	356	12.2	86.5
2025-09-05T23:51	10	0	0.1	0	0	355	0.2	355	355	12.1	86.9
2025-09-05T23:52	10	0	0.1	0	0	355	0.3	354	356	12.0	87.4
2025-09-05T23:53	10	0	0.1	-1	0	355	0.3	354	355	11.9	87.8
2025-09-05T23:54	10	0	0.2	-1	0	354	0.2	354	355	11.8	88.2
2025-09-05T23:55	10	0	0.2	0	0	355	0.2	354	355	11.8	88.3
2025-09-05T23:56	10	0	0.2	0	0	354	0.3	353	355	11.7	88.8
2025-09-05T23:57	10	0	0.1	0	0	354	0.3	354	355	11.5	89.6
2025-09-05T23:58	10	0	0.1	0	0	354	0.2	353	355	11.4	90.4
2025-09-05T23:59	10	0	0.1	0	0	354	0.3	354	355	11.2	91.1
2025-09-06T00:00	10	0	0.2	0	0	354	0.3	353	355	11.1	91.7
2025-09-06T00:01	10	0	0.2	0	0	354	0.2	353	354	11.1	92.3
2025-09-06T00:02	10	0	0.1	0	0	354	0.3	353	355	11.1	92.7
2025-09-06T00:03	10	0	0.1	0	0	354	0.2	353	354	11.0	93.1
2025-09-06T00:04	10	0	0.2	0	0	353	0.3	352	354	10.9	93.6
2025-09-06T00:05	10	0	0.2	0	0	353	0.2	353	354	10.9	93.9
2025-09-06T00:06	10	0	0.2	0	0	353	0.2	353	353	10.9	93.9
2025-09-06T00:07	10	0	0.1	0	0	353	0.2	352	354	10.9	93.9
2025-09-06T00:08	10	0	0.1	0	0	353	0.3	352	353	10.8	93.9
2025-09-06T00:09	10	0	0.1	0	0	353	0.2	352	353	10.8	93.9
2025-09-06T00:10	10	0	0.1	-1	0	353	0.2	352	353	10.8	93.9
2025-09-06T00:11	10	0	0.1	0	0	353	0.2	352	353	10.8	94.1
2025-09-06T00:12	10	0	0.1	0	0	352	0.3	352	353	10.8	94.2
2025-09-06T00:13	10	0	0.1	-1	0	352	0.3	352	353	10.9	93.9
2025-09-06T00:14	10	0	0.2	-1	0	352	0.3	352	353	11.1	93.4
2025-09-06T00:15	10	0	0.1	0	0	352	0.2	352	353	11.1	92.8
2025-09-06T00:16	10	0	0.1	-1	0	352	0.3	352	353	11.1	92.7
2025-09-06T00:17	10	0	0.1	-1	0	352	0.2	352	353	11.1	92.7
2025-09-06T00:18	10	0	0.1	0	0	353	0.3	352	354	11.1	92.9
2025-09-06T00:19	10	0	0.1	0	0	353	0.2	352	353	11.0	93.3
2025-09-06T00:20	10	0	0.1	0	0	353	0.3	352	354	10.9	93.8
2025-09-06T00:21	10	0	0.1	0	0	352	0.2	352	353	10.9	93.9
2025-09-06T00:22	10	0	0.1	0	0	352	0.3	351	353	10.9	93.9
2025-09-06T00:23	10	0	0.5	0	3	352	0.2	351	352	10.9	94.1
2025-09-06T00:24	10	0	0.1	0	0	351	0.2	351	352	10.9	94.1
2025-09-06T00:25	10	0	0.1	0	0	351	0.2	351	352	10.9	94.2
2025-09-06T00:26	10	0	0.1	0	0	352	0.2	351	352	10.9	94.2
2025-09-06T00:27	10	0	0.1	0	0	352	0.2	351	352	10.9	94.3
2025-09-06T00:28	10	0	0.1	0	0	352	0.3	351	352	10.9	94.4
2025-09-06T00:29	10	0	0.1	0	0	351	0.2	351	352	10.9	94.5
2025-09-06T00:30	10	0	0.1	0	0	351	0.2	351	352	10.9	94.6
2025-09-06T00:31	10	0	0.1	0	0	351	0.2	351	352	10.9	94.8
2025-09-06T00:32	10	0	0.1	0	0	351	0.2	351	351	10.8	94.9
2025-09-06T00:33	10	0	0.1	0	0	351	0.2	351	351	10.8	95.0
2025-09-06T00:34	10	0	0.1	0	0	351	0.2	350	351	10.8	94.9
2025-09-06T00:35	10	0	0.0	0	0	351	0.2	351	352	10.9	94.8
2025-09-06T00:36	10	0	0.1	0	0	351	0.2	351	352	10.9	94.9
2025-09-06T00:37	10	0	0.1	0	0	351	0.2	351	352	10.9	94.8
2025-09-06T00:38	10	0	0.1	0	0	351	0.2	350	351	10.8	94.8
2025-09-06T00:39	10	0	0.1	0	0	351	0.2	350	351	10.8	94.8
2025-09-06T00:40	10	0	0.1	0	0	351	0.2	350	351	10.8	94.9
2025-09-06T00:41	10	0	0.1	0	0	351	0.2	350	351	10.8	95.0
2025-09-06T00:42	10	0	0.0	0	0	350	0.2	350	351	10.8	95.2
2025-09-06T00:43	10	0	0.1	0	0	351	0.2	350	351	10.8	95.2
2025-09-06T00:44	10	0	0.0	0	0	351	0.2	350	351	10.8	95.1
2025-09-06T00:45	10	0	0.1	0	0	351	0.3	350	351	10.9	94.9
2025-09-06T00:46	10	0	0.1	0	0	351	0.2	351	351	10.9	94.7
2025-09-06T00:47	10	0	0.1	0	0	351	0.2	350	351	10.9	94.8
2025-09-06T00:48	10	0	0.1	0	0	351	0.3	350	351	10.8	94.9
2025-09-06T00:49	10	0	0.1	0	0	351	0.2	351	352	10.7	94.9
2025-09-06T00:50	10	0	0.0	0	0	351	0.2	351	352	10.7	95.1
2025-09-06T00:51	10	0	0.1	0	0	351	0.3	351	352	10.7	95.3
2025-09-06T00:52	10	0	0.1	0	0	351	0.2	351	352	10.7	95.7
2025-09-06T00:53	10	0	0.1	0	0	352	0.2	351	352	10.6	95.6
2025-09-06T00:54	10	0	0.1	0	0	352	0.2	351	352	10.7	95.3
2025-09-06T00:55	10	0	0.1	0	0	352	0.2	351	352	10.7	95.4
2025-09-06T00:56	10	0	0.1	0	0	351	0.2	351	352	10.6	95.7
2025-09-06T00:57	10	0	0.1	0	0	352	0.2	351	352	10.6	95.8
2025-09-06T00:58	10	0	0.1	0	0	352	0.3	351	352	10.4	95.8
2025-09-06T00:59	10	0	0.1	0	0	352	0.2	352	353	10.4	95.8
2025-09-06T01:00	10	0	0.1	0	0	352	0.3	351	352	10.5	96.0
2025-09-06T01:01	10	0	0.1	0	0	352	0.2	352	353	10.6	96.3
2025-09-06T01:02	10	0	0.1	0	0	352	0.3	351	353	10.5	96.4
2025-09-06T01:03	10	0	0.1	0	0	352	0.3	351	353	10.6	96.5
2025-09-06T01:04	10	0	0.1	0	0	352	0.3	352	353	10.5	96.5
2025-09-06T01:05	10	0	0.1	0	0	352	0.3	352	353	10.4	96.2
2025-09-06T01:06	10	0	0.1	0	0	352	0.2	351	352	10.4	96.1
2025-09-06T01:07	10	0	0.1	0	0	352	0.3	352	353	10.4	95.9
2025-09-06T01:08	10	0	0.1	0	0	353	0.2	352	353	10.5	96.0
2025-09-06T01:09	10	0	0.1	0	0	353	0.2	352	353	10.4	96.0
2025-09-06T01:10	10	0	0.1	0	0	352	0.3	352	353	10.5	95.6
2025-09-06T01:11	10	0	0.1	0	0	352	0.3	352	353	10.5	95.3
2025-09-06T01:12	10	0	0.1	0	0	352	0.3	351	352	10.6	94.9
2025-09-06T01:13	10	0	0.1	0	0	352	0.2	351	352	10.7	94.6
2025-09-06T01:14	10	0	0.1	0	0	351	0.3	350	352	10.7	94.4
2025-09-06T01:15	10	0	0.1	0	0	350	0.4	350	351	10.6	94.2
2025-09-06T01:16	10	0	0.1	0	0	350	0.3	350	351	10.5	94.1
2025-09-06T01:17	10	0	0.1	0	0	350	0.2	350	351	10.7	93.9
2025-09-06T01:18	10	0	0.1	0	0	351	0.3	350	351	10.8	93.7
2025-09-06T01:19	10	0	0.1	0	0	351	0.2	350	351	10.9	93.3
2025-09-06T01:20	10	0	0.1	0	0	350	0.4	350	351	10.8	93.4
2025-09-06T01:21	10	0	0.1	0	0	350	0.2	350	350	10.8	93.5
2025-09-06T01:22	10	0	0.1	0	0	350	0.2	349	350	10.7	93.6
2025-09-06T01:23	10	0	0.1	0	0	349	0.3	348	350	10.5	93.8
2025-09-06T01:24	10	0	0.1	0	0	349	0.4	348	350	10.4	93.9
2025-09-06T01:25	10	0	0.1	0	0	350	0.2	349	350	10.6	94.6
2025-09-06T01:26	10	0	0.1	0	0	350	0.4	349	350	10.7	94.8
2025-09-06T01:27	10	0	0.1	0	0	350	0.3	349	351	10.6	94.2
2025-09-06T01:28	10	0	0.1	0	0	350	0.2	350	351	10.6	94.0
2025-09-06T01:29	10	0	0.1	0	0	351	0.2	350	351	10.5	94.5
2025-09-06T01:30	10	0	0.1	-1	0	351	0.3	350	351	10.4	94.6
2025-09-06T01:31	10	0	0.1	0	0	351	0.3	350	352	10.4	94.7
2025-09-06T01:32	10	0	0.1	-1	0	350	0.2	350	351	10.4	95.0
2025-09-06T01:33	10	0	0.1	0	0	350	0.3	349	350	10.2	95.3
2025-09-06T01:34	10	0	0.1	0	0	350	0.2	349	350	10.2	95.4
2025-09-06T01:35	10	0	0.1	0	0	349	0.3	349	350	10.3	95.7
2025-09-06T01:36	10	0	0.1	-1	0	349	0.3	349	350	10.5	95.6
2025-09-06T01:37	10	0	0.1	0	0	349	0.2	349	350	10.5	95.6
2025-09-06T01:38	10	0	0.1	0	0	349	0.2	348	349	10.4	95.9
2025-09-06T01:39	10	0	0.1	0	0	349	0.2	349	349	10.3	96.4
2025-09-06T01:40	10	0	0.1	0	0	349	0.2	348	349	10.2	96.6
2025-09-06T01:41	10	0	0.1	0	0	349	0.2	348	349	10.1	96.7
2025-09-06T01:42	10	0	0.1	0	0	349	0.2	349	350	10.1	96.8
2025-09-06T01:43	10	0	0.1	0	0	349	0.2	349	350	10.2	97.3
2025-09-06T01:44	10	0	0.1	0	0	349	0.2	348	349	10.2	97.1
2025-09-06T01:45	10	0	0.1	0	0	349	0.3	348	349	10.1	97.4
2025-09-06T01:46	10	0	0.1	0	0	348	0.2	348	349	9.9	97.4
2025-09-06T01:47	10	0	0.1	0	0	349	0.2	348	349	10.0	97.0
2025-09-06T01:48	10	0	0.1	0	0	349	0.3	348	349	9.9	97.2
2025-09-06T01:49	10	0	0.1	0	0	349	0.2	349	349	10.0	97.0
2025-09-06T01:50	10	0	0.1	0	0	349	0.2	348	349	10.0	97.3
2025-09-06T01:51	10	0	0.1	0	0	349	0.2	348	349	10.0	97.2
2025-09-06T01:52	10	0	0.1	0	0	349	0.3	348	349	10.1	97.0
2025-09-06T01:53	10	0	0.1	0	0	349	0.2	348	349	10.2	97.1
2025-09-06T01:54	10	0	0.1	0	0	348	0.2	348	349	10.4	96.3
2025-09-06T01:55	10	0	0.1	0	0	348	0.3	347	349	10.4	95.8
2025-09-06T01:56	10	0	0.1	0	0	348	0.2	348	349	10.2	96.0
2025-09-06T01:57	10	0	0.1	0	0	348	0.2	348	349	10.3	95.6
2025-09-06T01:58	10	0	0.1	0	0	348	0.3	347	349	10.3	95.5
2025-09-06T01:59	10	0	0.1	0	0	348	0.2	348	349	10.3	95.5
2025-09-06T02:00	10	0	0.1	0	0	349	0.4	348	349	10.3	95.0
2025-09-06T02:01	10	0	0.1	0	0	349	0.2	348	349	10.4	95.1
2025-09-06T02:02	10	0	0.1	0	0	348	0.3	347	349	10.4	94.9
2025-09-06T02:03	10	0	0.1	0	0	347	0.3	347	348	10.3	94.7
2025-09-06T02:04	10	0	0.1	0	0	347	0.2	347	348	10.2	94.6
2025-09-06T02:05	10	0	0.1	0	0	348	0.3	347	348	10.2	94.5
2025-09-06T02:06	10	0	0.0	0	0	348	0.2	348	348	10.1	94.5
2025-09-06T02:07	10	0	0.1	0	0	348	0.2	347	348	10.1	94.6
2025-09-06T02:08	10	0	0.1	0	0	348	0.2	347	348	9.9	95.4
2025-09-06T02:09	10	0	0.1	0	0	348	0.2	347	348	9.9	96.0
2025-09-06T02:10	10	0	0.1	0	0	348	0.3	347	348	9.9	96.3
2025-09-06T02:11	10	0	0.1	0	0	348	0.2	347	348	10.0	96.2
2025-09-06T02:12	10	0	0.1	0	0	348	0.2	347	348	10.0	96.1
2025-09-06T02:13	10	0	0.1	0	0	348	0.3	347	348	10.0	95.7
2025-09-06T02:14	10	0	0.1	0	0	348	0.3	347	348	9.9	95.9
2025-09-06T02:15	10	0	0.1	0	0	348	0.3	347	348	9.9	96.1
2025-09-06T02:16	10	0	0.1	0	0	348	0.2	348	349	9.8	96.0
2025-09-06T02:17	10	0	0.1	0	0	348	0.2	348	349	9.6	95.9
2025-09-06T02:18	10	0	0.1	0	0	348	0.2	348	349	9.4	96.3
2025-09-06T02:19	10	0	0.1	0	0	348	0.3	347	348	9.3	96.7
2025-09-06T02:20	10	0	0.1	0	0	347	0.2	347	348	9.2	97.0
2025-09-06T02:21	10	0	0.1	0	0	347	0.2	347	348	9.2	97.2
2025-09-06T02:22	10	0	0.1	0	0	347	0.2	347	347	9.3	97.2
2025-09-06T02:23	10	0	0.0	0	0	347	0.3	346	347	9.2	97.3
2025-09-06T02:24	10	0	0.1	0	0	347	0.2	347	348	9.3	97.4
2025-09-06T02:25	10	0	0.1	0	0	347	0.2	346	347	9.4	97.9
2025-09-06T02:26	10	0	0.1	0	0	347	0.3	346	347	9.3	98.1
2025-09-06T02:27	10	0	0.1	0	0	347	0.2	346	347	9.2	97.7
2025-09-06T02:28	10	0	0.0	0	0	347	0.2	346	347	9.2	97.8
2025-09-06T02:29	10	0	0.1	0	0	346	0.2	346	347	9.2	97.7
2025-09-06T02:30	10	0	0.1	0	0	346	0.2	346	347	9.2	97.9
2025-09-06T02:31	10	0	0.1	0	0	346	0.2	345	347	9.2	98.1
2025-09-06T02:32	10	0	0.1	0	0	346	0.3	345	346	9.2	98.1
2025-09-06T02:33	10	0	0.1	0	0	345	0.3	345	346	9.3	98.2
2025-09-06T02:34	10	0	0.1	0	0	345	0.2	345	346	9.3	98.2
2025-09-06T02:35	10	0	0.1	0	0	345	0.2	345	346	9.3	98.3
2025-09-06T02:36	10	0	0.1	0	0	345	0.2	345	346	9.3	98.6
2025-09-06T02:37	10	0	0.1	0	0	345	0.2	345	346	9.4	98.5
2025-09-06T02:38	10	0	0.1	0	0	345	0.2	345	346	9.5	98.3
2025-09-06T02:39	10	0	0.1	0	0	345	0.4	344	346	9.5	98.4
2025-09-06T02:40	10	0	0.1	0	0	345	0.2	344	345	9.4	98.5
2025-09-06T02:41	10	0	0.1	0	0	345	0.2	344	345	9.3	98.5
2025-09-06T02:42	10	0	0.1	0	0	345	0.2	344	345	9.2	98.3
2025-09-06T02:43	10	0	0.1	0	0	345	0.2	344	345	9.4	97.9
2025-09-06T02:44	10	0	0.1	0	0	345	0.2	344	345	9.5	98.1
2025-09-06T02:45	10	0	0.1	0	0	345	0.2	344	345	9.5	98.1
2025-09-06T02:46	10	0	0.1	0	0	345	0.2	344	345	9.5	97.7
2025-09-06T02:47	10	0	0.1	0	0	344	0.3	344	345	9.4	97.8
2025-09-06T02:48	10	0	0.1	0	0	344	0.2	344	345	9.3	98.0
2025-09-06T02:49	10	0	0.1	0	0	344	0.2	343	344	9.2	98.0
2025-09-06T02:50	10	0	0.1	0	0	344	0.2	343	344	9.1	98.1
2025-09-06T02:51	10	0	0.1	0	0	344	0.2	343	345	9.1	98.4
2025-09-06T02:52	10	0	0.0	0	0	344	0.2	343	344	9.1	98.6
2025-09-06T02:53	10	0	0.1	0	0	343	0.2	343	344	9.1	98.5
2025-09-06T02:54	10	0	0.1	0	0	343	0.3	343	344	9.0	98.7
2025-09-06T02:55	10	0	0.1	0	0	343	0.2	343	344	9.0	98.5
2025-09-06T02:56	10	0	0.1	0	0	344	0.2	343	344	9.0	98.3
2025-09-06T02:57	10	0	0.0	0	0	344	0.2	343	344	9.0	98.1
2025-09-06T02:58	10	0	0.1	0	0	344	0.3	343	345	9.2	98.2
2025-09-06T02:59	10	0	0.1	0	0	344	0.2	343	344	9.1	98.6
2025-09-06T03:00	10	0	0.1	0	0	344	0.2	343	344	9.1	98.7
2025-09-06T03:01	10	0	0.1	-1	0	344	0.3	343	344	9.0	98.9
2025-09-06T03:02	10	0	0.1	0	0	344	0.2	343	344	9.0	98.9
2025-09-06T03:03	10	0	0.1	-1	0	344	0.3	343	345	9.0	98.9
2025-09-06T03:04	10	0	0.1	-1	0	344	0.2	344	345	9.0	98.9
2025-09-06T03:05	10	0	0.1	-1	0	344	0.2	344	345	9.0	98.9
2025-09-06T03:06	10	0	0.1	-1	0	344	0.2	344	345	9.0	98.9
2025-09-06T03:07	10	0	0.1	-1	0	345	0.2	344	345	9.1	98.9
2025-09-06T03:08	10	0	0.1	-1	0	345	0.3	345	346	9.2	98.7
2025-09-06T03:09	10	0	0.1	-1	0	346	0.3	345	346	9.3	98.8
2025-09-06T03:10	10	0	0.1	-1	0	345	0.2	345	346	9.4	98.8
2025-09-06T03:11	10	0	0.1	-1	0	345	0.3	345	346	9.4	99.0
2025-09-06T03:12	10	0	0.1	-1	0	345	0.2	345	346	9.4	99.1
2025-09-06T03:13	10	0	0.1	-1	0	345	0.2	345	346	9.5	98.9
2025-09-06T03:14	10	0	0.1	-1	0	345	0.3	344	346	9.5	98.9
2025-09-06T03:15	10	0	0.1	-1	0	344	0.2	344	345	9.3	98.9
2025-09-06T03:16	10	0	0.2	-1	0	345	0.3	344	345	9.1	98.9
2025-09-06T03:17	10	0	0.1	-1	0	344	0.3	343	345	9.1	98.9
2025-09-06T03:18	10	0	0.1	-1	0	344	0.3	343	344	9.1	98.9
2025-09-06T03:19	10	0	0.2	-1	0	343	0.4	343	344	9.0	98.5
2025-09-06T03:20	10	0	0.1	-1	0	343	0.3	342	344	9.0	98.7
2025-09-06T03:21	10	0	0.2	-1	0	343	0.2	342	343	9.0	98.6
2025-09-06T03:22	10	0	0.2	-1	0	343	0.2	342	344	8.8	98.5
2025-09-06T03:23	10	0	0.1	-1	0	343	0.2	342	344	9.0	98.5
2025-09-06T03:24	10	0	0.2	-1	0	343	0.2	342	343	9.1	99.0
2025-09-06T03:25	10	0	0.1	-1	0	343	0.2	342	344	9.0	98.9
2025-09-06T03:26	10	0	0.1	-1	0	343	0.2	343	344	8.9	98.8
2025-09-06T03:27	10	0	0.2	-1	0	344	0.3	343	344	9.0	98.6
2025-09-06T03:28	10	0	0.2	-1	0	344	0.3	344	345	9.1	98.5
2025-09-06T03:29	10	0	0.2	-1	0	345	0.3	344	346	9.1	98.4
2025-09-06T03:30	10	-1	0.2	-1	0	346	0.4	345	346	9.3	98.2
2025-09-06T03:31	10	0	0.2	-1	0	346	0.2	345	347	9.3	98.2
2025-09-06T03:32	10	0	0.1	-1	0	347	0.3	346	347	9.3	98.0
2025-09-06T03:33	10	0	0.2	-1	0	346	0.2	346	347	9.3	97.8
2025-09-06T03:34	10	0	0.1	-1	0	346	0.2	346	347	9.4	97.6
2025-09-06T03:35	10	0	0.2	-1	0	346	0.4	345	347	9.4	97.5
2025-09-06T03:36	10	0	0.2	-1	0	345	0.3	344	346	9.4	97.4
2025-09-06T03:37	10	0	0.1	-1	0	344	0.4	343	345	9.3	97.7
2025-09-06T03:38	10	0	0.2	-1	0	344	0.3	343	345	9.0	97.5
2025-09-06T03:39	10	0	0.1	-1	0	344	0.3	343	344	9.2	97.8
2025-09-06T03:40	10	0	0.1	-1	0	343	0.6	342	345	9.0	97.8
2025-09-06T03:41	10	0	0.1	-1	0	343	0.3	343	344	9.0	97.3
2025-09-06T03:42	10	0	0.1	-1	0	343	0.3	343	344	9.0	97.5
2025-09-06T03:43	10	0	0.1	-1	0	343	0.3	343	344	8.9	97.6
2025-09-06T03:44	10	0	0.1	-1	0	344	0.3	344	345	9.1	97.4
2025-09-06T03:45	10	0	0.1	-1	0	344	0.3	343	344	9.1	98.1
2025-09-06T03:46	10	0	0.2	-1	0	343	0.2	343	344	8.9	97.8
2025-09-06T03:47	10	0	0.1	-1	0	344	0.4	343	344	9.0	97.2
2025-09-06T03:48	10	0	0.1	-1	0	344	0.3	343	344	9.1	97.9
2025-09-06T03:49	10	0	0.1	-1	0	343	0.2	343	344	9.2	98.1
2025-09-06T03:50	10	0	0.1	-1	0	342	0.5	341	343	9.1	98.4
2025-09-06T03:51	10	0	0.1	0	0	342	0.3	341	342	8.7	98.1
2025-09-06T03:52	10	0	0.1	0	0	342	0.2	341	342	8.7	97.8
2025-09-06T03:53	10	0	0.1	0	0	343	0.6	341	344	8.6	97.6
2025-09-06T03:54	10	0	0.1	-1	0	343	0.3	342	343	8.8	97.8
2025-09-06T03:55	10	0	0.2	-1	0	342	0.2	341	343	8.6	98.1
2025-09-06T03:56	10	0	0.1	-1	0	342	0.2	341	342	8.5	97.9
2025-09-06T03:57	10	0	0.1	-1	0	342	0.3	342	343	8.5	98.1
2025-09-06T03:58	10	0	0.1	0	0	342	0.3	342	343	8.4	98.4
2025-09-06T03:59	10	0	0.1	-1	0	342	0.3	342	343	8.4	98.4
2025-09-06T04:00	10	0	0.1	-1	0	342	0.2	342	343	8.6	98.6
2025-09-06T04:01	10	0	0.1	-1	0	342	0.3	342	343	8.6	98.8
2025-09-06T04:02	10	0	0.1	-1	0	342	0.2	341	342	8.5	99.2
2025-09-06T04:03	10	0	0.1	0	0	342	0.2	341	342	8.4	98.8
2025-09-06T04:04	10	0	0.0	0	0	342	0.2	341	342	8.5	98.4
2025-09-06T04:05	10	0	0.1	-1	0	342	0.2	341	342	8.6	98.7
2025-09-06T04:06	10	0	0.1	0	0	342	0.3	341	342	8.7	98.5
2025-09-06T04:07	10	0	0.1	-1	0	342	0.3	341	343	8.8	98.8
2025-09-06T04:08	10	0	0.1	0	0	342	0.2	341	342	8.9	98.9
2025-09-06T04:09	10	0	0.0	0	0	342	0.2	342	342	8.9	99.2
2025-09-06T04:10	10	0	0.1	0	0	342	0.4	341	342	8.8	99.4
2025-09-06T04:11	10	0	0.0	0	0	341	0.3	341	342	8.6	99.4
2025-09-06T04:12	10	0	0.1	0	0	341	0.2	340	341	8.5	99.0
2025-09-06T04:13	10	0	0.1	0	0	341	0.2	340	341	8.5	99.0
2025-09-06T04:14	10	0	0.1	0	0	341	0.2	341	342	8.5	99.1
2025-09-06T04:15	10	0	0.1	0	0	341	0.3	341	342	8.6	98.8
2025-09-06T04:16	10	0	0.1	-1	0	342	0.2	341	342	8.8	99.1
2025-09-06T04:17	10	0	0.1	-1	0	342	0.2	342	343	8.9	99.2
2025-09-06T04:18	10	0	0.1	0	0	342	0.2	342	342	8.9	99.3
2025-09-06T04:19	10	0	0.1	-1	0	342	0.3	342	343	8.9	99.2
2025-09-06T04:20	10	0	0.1	0	0	343	0.3	342	343	8.9	99.3
2025-09-06T04:21	10	0	0.1	0	0	342	0.2	342	343	8.9	99.5
2025-09-06T04:22	10	0	0.1	0	0	342	0.2	342	343	8.8	99.4
2025-09-06T04:23	10	0	0.1	0	0	343	0.2	342	343	8.9	99.4
2025-09-06T04:24	10	0	0.1	0	0	342	0.2	342	343	8.8	99.7
2025-09-06T04:25	10	0	0.0	0	0	343	0.2	342	343	8.8	99.5
2025-09-06T04:26	10	0	0.0	0	0	343	0.2	342	343	8.8	99.7
2025-09-06T04:27	10	0	0.1	-1	0	342	0.2	342	343	8.9	99.5
2025-09-06T04:28	10	0	0.0	0	0	342	0.3	341	343	9.0	99.4
2025-09-06T04:29	10	0	0.1	-1	0	342	0.3	341	342	8.9	99.8
2025-09-06T04:30	10	0	0.1	0	0	342	0.2	341	342	8.8	99.5
2025-09-06T04:31	10	0	0.1	0	0	342	0.2	341	342	8.8	99.2
2025-09-06T04:32	10	0	0.0	0	0	342	0.2	341	342	8.7	99.2
2025-09-06T04:33	10	0	0.1	0	0	342	0.2	341	342	8.6	99.0
2025-09-06T04:34	10	0	0.1	0	0	342	0.2	341	342	8.5	98.9
2025-09-06T04:35	10	0	0.1	0	0	342	0.2	342	343	8.5	98.7
2025-09-06T04:36	10	0	0.1	0	0	342	0.2	342	343	8.6	98.9
2025-09-06T04:37	10	0	0.1	0	0	342	0.2	342	343	8.5	99.2
2025-09-06T04:38	10	0	0.0	0	0	342	0.2	341	342	8.4	99.2
2025-09-06T04:39	10	0	0.1	0	0	341	0.2	341	342	8.4	99.2
2025-09-06T04:40	10	0	0.1	0	0	341	0.2	341	342	8.5	99.3
2025-09-06T04:41	10	0	0.1	0	0	341	0.2	341	342	8.5	99.4
2025-09-06T04:42	10	0	0.1	0	0	341	0.2	341	342	8.4	99.3
2025-09-06T04:43	10	0	0.1	0	0	341	0.2	341	342	8.4	99.2
2025-09-06T04:44	10	0	0.1	0	0	341	0.3	341	342	8.4	99.4
2025-09-06T04:45	10	0	0.1	0	0	342	0.2	341	342	8.3	99.1
2025-09-06T04:46	10	0	0.0	0	0	341	0.3	340	342	8.4	99.2
2025-09-06T04:47	10	0	0.0	0	0	341	0.2	341	341	8.4	99.4
2025-09-06T04:48	10	0	0.1	0	0	341	0.3	340	342	8.4	99.2
2025-09-06T04:49	10	0	0.1	0	0	341	0.2	340	342	8.5	99.4
2025-09-06T04:50	10	0	0.1	0	0	341	0.3	340	341	8.4	99.8
2025-09-06T04:51	10	0	0.1	0	1	341	0.3	340	341	8.2	99.5
2025-09-06T04:52	10	0	0.1	0	1	341	0.3	340	342	8.3	99.2
2025-09-06T04:53	10	1	0.1	0	1	341	0.4	340	342	8.2	99.3
2025-09-06T04:54	10	1	0.1	0	1	342	0.4	341	343	8.2	99.6
2025-09-06T04:55	10	1	0.1	0	1	342	0.2	341	342	8.4	99.7
2025-09-06T04:56	10	1	0.1	0	1	342	0.3	341	342	8.5	100.1
2025-09-06T04:57	10	1	0.1	0	1	342	0.3	341	342	8.5	100.2
2025-09-06T04:58	10	1	0.1	0	1	342	0.2	341	342	8.6	100.0
2025-09-06T04:59	10	1	0.1	1	1	342	0.3	341	342	8.6	100.1
2025-09-06T05:00	10	1	0.1	1	1	341	0.3	341	342	8.6	99.9
2025-09-06T05:01	10	1	0.1	1	1	341	0.2	341	342	8.6	99.9
2025-09-06T05:02	10	1	0.1	1	1	341	0.2	341	342	8.7	99.8
2025-09-06T05:03	10	1	0.1	1	1	341	0.2	341	342	8.7	99.8
2025-09-06T05:04	10	2	0.1	1	2	341	0.3	341	342	8.7	99.7
2025-09-06T05:05	10	2	0.1	1	2	341	0.2	341	341	8.6	99.6
2025-09-06T05:06	10	2	0.1	2	2	341	0.2	341	342	8.4	99.7
2025-09-06T05:07	10	2	0.1	2	2	341	0.2	341	342	8.2	99.1
2025-09-06T05:08	10	2	0.1	2	2	342	0.2	341	342	8.3	98.9
2025-09-06T05:09	10	2	0.1	2	3	342	0.2	342	342	8.3	99.2
2025-09-06T05:10	10	3	0.2	2	3	342	0.2	341	342	8.3	99.1
2025-09-06T05:11	10	4	0.2	3	4	342	0.3	341	342	8.3	99.2
2025-09-06T05:12	10	4	0.1	4	4	342	0.3	341	342	8.2	99.1
2025-09-06T05:13	10	4	0.2	4	5	342	0.3	341	343	8.3	98.8
2025-09-06T05:14	10	5	0.2	5	5	342	0.3	342	343	8.3	98.6
2025-09-06T05:15	10	5	0.2	5	6	343	0.3	342	343	8.4	99.1
2025-09-06T05:16	10	6	0.1	6	6	343	0.2	342	343	8.4	99.3
2025-09-06T05:17	10	6	0.1	6	6	343	0.2	343	344	8.4	99.1
2025-09-06T05:18	10	6	0.1	6	7	343	0.3	342	343	8.4	99.1
2025-09-06T05:19	10	7	0.1	7	7	343	0.2	343	344	8.5	99.7
2025-09-06T05:20	10	7	0.1	7	7	343	0.2	343	344	8.4	99.8
2025-09-06T05:21	10	8	0.2	7	8	344	0.3	343	344	8.3	99.2
2025-09-06T05:22	10	8	0.2	8	8	344	0.4	343	345	8.4	99.5
2025-09-06T05:23	10	9	0.2	8	9	344	0.2	344	345	8.6	99.0
2025-09-06T05:24	10	9	0.2	9	10	344	0.2	344	344	8.7	98.9
2025-09-06T05:25	10	10	0.1	9	10	344	0.2	344	345	8.5	99.3
2025-09-06T05:26	10	10	0.2	10	11	344	0.2	344	345	8.3	98.9
2025-09-06T05:27	10	11	0.3	11	11	345	0.3	344	345	8.3	98.8
2025-09-06T05:28	10	12	0.3	11	12	345	0.2	344	346	8.4	98.6
2025-09-06T05:29	10	13	0.3	12	14	345	0.2	345	346	8.5	98.4
2025-09-06T05:30	10	14	0.3	13	14	346	0.3	345	346	8.4	98.6
2025-09-06T05:31	10	15	0.2	14	15	346	0.2	345	346	8.2	98.5
2025-09-06T05:32	10	16	0.2	15	16	346	0.3	346	347	8.1	98.4
2025-09-06T05:33	10	16	0.2	16	17	347	0.3	347	348	8.1	98.3
2025-09-06T05:34	10	17	0.2	17	18	348	0.3	347	349	8.0	98.0
2025-09-06T05:35	10	18	0.2	17	18	349	0.4	348	349	8.1	98.1
2025-09-06T05:36	10	18	0.2	18	19	349	0.2	348	349	8.3	98.6
2025-09-06T05:37	10	19	0.2	19	20	349	0.2	348	349	8.2	98.7
2025-09-06T05:38	10	19	0.1	19	19	349	0.2	349	350	8.1	98.6
2025-09-06T05:39	10	19	0.3	18	19	349	0.2	349	350	8.0	98.3
2025-09-06T05:40	10	16	1.1	14	18	349	0.3	349	350	8.1	98.0
2025-09-06T05:41	10	13	0.8	12	14	349	0.2	349	350	8.1	98.3
2025-09-06T05:42	10	12	0.4	11	13	350	0.2	349	350	8.1	98.0
2025-09-06T05:43	10	13	0.3	12	14	350	0.2	349	350	8.1	98.1
2025-09-06T05:44	10	14	0.3	14	15	350	0.3	350	351	8.1	98.3
2025-09-06T05:45	10	16	0.6	15	17	351	0.3	350	351	8.2	98.2
2025-09-06T05:46	10	15	0.7	14	17	351	0.2	350	351	8.2	98.1
2025-09-06T05:47	10	15	0.5	14	16	351	0.2	351	352	8.3	97.9
2025-09-06T05:48	10	17	0.6	16	18	351	0.3	351	352	8.4	97.9
2025-09-06T05:49	10	18	0.2	18	19	352	0.4	351	353	8.4	97.6
2025-09-06T05:50	10	19	0.2	19	19	352	0.2	352	353	8.6	97.2
2025-09-06T05:51	10	20	0.3	19	20	353	0.2	353	354	8.6	96.8
2025-09-06T05:52	10	20	0.7	20	22	353	0.2	353	354	8.7	96.5
2025-09-06T05:53	10	23	0.7	22	24	353	0.2	353	354	8.7	96.2
2025-09-06T05:54	10	24	0.1	24	25	354	0.3	353	355	8.6	96.1
2025-09-06T05:55	10	24	0.2	24	25	354	0.2	354	355	8.6	95.9
2025-09-06T05:56	10	22	0.7	21	24	355	0.2	354	355	8.6	96.0
2025-09-06T05:57	10	22	0.1	21	22	355	0.2	354	355	8.6	95.8
2025-09-06T05:58	10	23	1.4	22	26	355	0.3	354	356	8.7	96.0
2025-09-06T05:59	10	29	1.3	26	30	356	0.4	355	356	8.7	96.1
2025-09-06T06:00	10	31	0.4	30	32	356	0.3	355	357	8.8	96.2
2025-09-06T06:01	10	32	0.4	32	33	357	0.2	356	357	8.8	95.9
2025-09-06T06:02	10	33	0.3	33	34	357	0.2	356	358	8.8	95.9
2025-09-06T06:03	10	34	0.5	33	35	358	0.3	357	358	8.8	95.9
2025-09-06T06:04	10	35	0.1	34	35	358	0.2	358	359	8.9	95.8
2025-09-06T06:05	10	34	0.3	33	34	358	0.2	358	359	8.9	96.1
2025-09-06T06:06	10	34	0.2	34	34	359	0.2	358	359	9.0	96.4
2025-09-06T06:07	10	35	0.1	34	35	359	0.2	358	359	9.0	96.6
2025-09-06T06:08	10	36	0.7	35	37	359	0.2	359	360	9.0	96.5
2025-09-06T06:09	10	37	0.3	37	37	360	0.2	359	360	9.0	96.7
2025-09-06T06:10	10	37	0.2	36	37	360	0.2	359	360	9.0	97.0
2025-09-06T06:11	10	38	0.2	37	38	360	0.2	359	360	9.0	96.9
2025-09-06T06:12	10	38	0.2	37	38	360	0.2	360	361	9.1	96.7
2025-09-06T06:13	10	36	0.7	35	37	361	0.2	360	361	9.2	96.8
2025-09-06T06:14	10	36	0.7	35	37	361	0.2	360	361	9.2	96.7
2025-09-06T06:15	10	36	0.2	36	37	361	0.2	361	362	9.2	96.7
2025-09-06T06:16	10	37	1.2	36	40	361	0.2	361	362	9.3	96.3
2025-09-06T06:17	10	42	0.9	40	44	362	0.4	362	363	9.3	95.5
2025-09-06T06:18	10	42	2.3	36	44	363	0.2	362	363	9.4	95.6
2025-09-06T06:19	10	36	1.7	34	39	363	0.2	362	363	9.5	95.3
2025-09-06T06:20	10	42	1.1	39	44	363	0.2	363	363	9.5	95.1
2025-09-06T06:21	10	46	1.3	44	48	364	0.3	363	364	9.6	94.5
2025-09-06T06:22	10	49	0.6	48	50	365	0.4	364	365	9.7	93.5
2025-09-06T06:23	10	50	0.2	49	50	365	0.3	365	366	9.8	93.9
2025-09-06T06:24	10	50	0.2	50	51	366	0.3	365	367	9.9	94.0
2025-09-06T06:25	10	50	0.2	50	50	366	0.3	366	367	9.9	94.3
2025-09-06T06:26	10	50	0.3	50	51	367	0.2	367	367	9.9	95.2
2025-09-06T06:27	10	50	1.7	45	51	367	0.2	366	368	9.8	95.3
2025-09-06T06:28	10	40	3.2	35	45	366	0.6	365	367	9.7	95.8
2025-09-06T06:29	10	48	2.8	44	52	366	0.3	366	367	9.6	96.0
2025-09-06T06:30	10	52	0.3	52	53	367	0.3	367	368	9.7	96.1
2025-09-06T06:31	10	50	1.4	47	52	368	0.3	367	368	9.8	96.5
2025-09-06T06:32	10	43	2.0	40	47	367	0.4	367	368	9.7	96.3
2025-09-06T06:33	10	49	2.7	44	54	367	0.3	367	368	9.8	96.2
2025-09-06T06:34	10	54	0.2	54	55	368	0.2	368	369	9.8	96.1
2025-09-06T06:35	10	53	0.6	52	54	368	0.3	368	369	9.8	95.8
2025-09-06T06:36	10	50	0.5	50	52	368	0.3	368	369	9.8	95.7
2025-09-06T06:37	10	52	1.1	50	54	368	0.2	368	369	9.8	95.6
2025-09-06T06:38	10	56	0.9	54	57	369	0.2	368	369	9.9	95.5
2025-09-06T06:39	10	59	0.6	57	59	369	0.3	369	370	9.9	95.6
2025-09-06T06:40	10	58	1.1	56	59	370	0.2	369	370	10.0	95.9
2025-09-06T06:41	10	59	1.3	57	62	370	0.3	369	371	10.0	95.8
2025-09-06T06:42	10	63	0.3	62	63	371	0.3	370	372	10.0	95.9
2025-09-06T06:43	10	59	1.8	56	62	372	0.2	371	372	10.0	95.9
2025-09-06T06:44	10	55	0.7	54	56	372	0.2	371	372	10.1	95.9
2025-09-06T06:45	10	58	1.8	56	62	372	0.2	372	373	10.1	96.0
2025-09-06T06:46	10	63	1.7	59	64	373	0.2	372	373	10.1	95.8
2025-09-06T06:47	10	52	4.9	46	59	372	0.4	372	374	10.2	95.8
2025-09-06T06:48	10	43	2.2	38	46	372	0.3	371	373	10.3	95.6
2025-09-06T06:49	10	45	6.7	38	55	371	0.4	370	372	10.3	96.0
2025-09-06T06:50	10	55	2.2	53	60	371	0.2	371	372	10.1	95.8
2025-09-06T06:51	10	67	3.1	61	70	372	0.6	371	374	10.1	96.1
2025-09-06T06:52	10	64	2.2	61	69	374	0.2	373	374	10.1	96.5
2025-09-06T06:53	10	71	2.8	65	74	375	0.7	374	376	10.1	96.6
2025-09-06T06:54	10	62	5.4	54	70	376	0.4	375	377	10.1	96.8
2025-09-06T06:55	10	49	4.3	43	55	375	0.6	374	376	10.1	97.1
2025-09-06T06:56	10	43	2.7	41	51	374	0.4	373	375	10.0	97.1
2025-09-06T06:57	10	70	9.5	51	79	375	1.3	373	377	10.0	97.2
2025-09-06T06:58	10	89	5.8	79	98	378	1.1	376	380	10.0	97.1
2025-09-06T06:59	10	95	2.7	87	98	380	0.5	379	381	10.0	97.2
2025-09-06T07:00	10	87	3.7	77	90	380	0.3	379	381	10.1	97.7
2025-09-06T07:01	10	70	2.2	67	76	379	0.5	378	380	9.9	97.8
2025-09-06T07:02	10	67	5.3	60	76	378	0.6	377	379	10.0	98.1
2025-09-06T07:03	10	66	6.5	59	76	378	0.5	377	378	9.9	98.1
2025-09-06T07:04	10	57	3.0	50	60	376	0.4	375	377	9.9	98.2
2025-09-06T07:05	10	49	0.4	48	50	375	0.4	374	376	9.9	98.7
2025-09-06T07:06	10	47	2.3	43	49	375	0.5	374	376	9.8	98.7
2025-09-06T07:07	10	43	0.4	42	44	373	0.5	373	374	9.8	98.7
2025-09-06T07:08	10	43	1.3	41	45	373	0.3	372	373	9.8	99.0
2025-09-06T07:09	10	37	3.9	30	42	372	0.6	371	373	9.9	99.0
2025-09-06T07:10	10	27	1.3	26	30	371	0.7	370	372	9.8	99.4
2025-09-06T07:11	10	25	0.4	24	26	370	0.2	369	370	9.8	99.2
2025-09-06T07:12	10	24	0.1	24	25	370	0.3	369	370	9.7	99.5
2025-09-06T07:13	10	24	0.3	23	24	369	0.2	369	370	9.6	99.5
2025-09-06T07:14	10	25	0.6	24	26	369	0.2	369	370	9.7	99.5
2025-09-06T07:15	10	27	0.2	26	27	369	0.2	368	369	9.6	99.6
2025-09-06T07:16	10	27	0.3	27	28	369	0.3	368	370	9.6	99.5
2025-09-06T07:17	10	27	0.4	27	28	369	0.2	368	369	9.8	99.6
2025-09-06T07:18	10	30	1.1	28	31	369	0.3	369	370	9.7	99.7
2025-09-06T07:19	10	31	0.5	30	32	369	0.2	369	370	9.7	99.5
2025-09-06T07:20	10	29	1.0	28	30	369	0.2	368	369	9.7	99.4
2025-09-06T07:21	10	40	9.0	28	56	370	1.0	368	372	9.7	99.1
2025-09-06T07:22	10	58	5.3	47	64	373	0.9	371	374	9.8	99.0
2025-09-06T07:23	10	52	2.5	47	55	373	0.3	373	374	9.9	98.9
2025-09-06T07:24	10	63	5.6	55	74	374	0.6	373	376	10.0	99.0
2025-09-06T07:25	10	80	5.6	68	87	376	1.0	374	378	10.0	98.8
2025-09-06T07:26	10	66	4.3	61	76	377	0.3	376	378	10.1	98.6
2025-09-06T07:27	10	89	6.6	76	96	379	1.1	377	380	10.2	98.2
2025-09-06T07:28	10	97	1.2	95	99	381	0.6	380	382	10.1	97.5
2025-09-06T07:29	10	94	3.7	89	100	382	0.3	382	383	10.3	97.2
2025-09-06T07:30	10	101	2.6	97	105	384	0.6	382	385	10.3	96.8
2025-09-06T07:31	10	100	1.8	97	104	385	0.3	384	385	10.4	96.0
2025-09-06T07:32	10	98	2.3	93	101	386	0.3	385	386	10.6	95.8
2025-09-06T07:33	10	95	3.3	90	99	385	0.2	385	386	10.6	94.9
2025-09-06T07:34	10	104	1.9	100	106	387	0.7	385	388	10.7	93.5
2025-09-06T07:35	10	104	0.7	103	105	387	0.3	387	388	10.8	93.3
2025-09-06T07:36	10	105	0.2	104	105	388	0.3	387	388	10.9	93.2
2025-09-06T07:37	10	104	0.3	103	104	388	0.3	387	389	10.9	92.2
2025-09-06T07:38	10	98	8.7	81	106	388	0.7	386	389	10.9	91.2
2025-09-06T07:39	10	107	2.5	96	108	388	1.0	386	390	11.2	91.5
2025-09-06T07:40	10	101	2.7	97	107	389	1.0	387	390	11.2	90.7
2025-09-06T07:41	10	86	6.4	78	97	387	1.2	385	389	11.3	90.6
2025-09-06T07:42	10	92	8.0	80	103	386	0.6	385	387	11.2	89.0
2025-09-06T07:43	10	90	6.9	78	102	387	0.4	386	388	11.3	88.9
2025-09-06T07:44	10	89	9.7	77	104	387	0.6	386	388	11.4	88.5
2025-09-06T07:45	10	101	3.6	96	106	388	0.3	387	389	11.4	87.6
2025-09-06T07:46	10	94	3.5	87	97	388	0.8	387	390	11.4	87.9
2025-09-06T07:47	10	87	4.5	79	94	388	0.4	387	388	11.5	87.7
2025-09-06T07:48	10	60	10.4	44	79	385	1.7	382	388	11.5	88.5
2025-09-06T07:49	10	40	1.7	38	43	381	1.4	379	384	11.4	88.8
2025-09-06T07:50	10	54	9.2	42	70	381	0.7	380	382	11.4	88.1
2025-09-06T07:51	10	88	7.8	71	97	384	1.7	381	386	11.4	88.1
2025-09-06T07:52	10	77	8.6	69	90	386	0.5	385	387	11.4	88.0
2025-09-06T07:53	10	80	4.8	70	86	386	0.5	385	387	11.4	86.9
2025-09-06T07:54	10	86	1.2	84	87	387	0.3	386	387	11.5	85.8
2025-09-06T07:55	10	88	6.1	82	100	388	0.5	387	389	11.6	86.7
2025-09-06T07:56	10	105	2.2	100	108	390	0.8	389	391	11.7	86.8
2025-09-06T07:57	10	101	3.1	96	104	391	0.3	391	392	12.1	85.4
2025-09-06T07:58	10	105	4.2	96	109	392	0.5	391	392	12.3	85.5
2025-09-06T07:59	10	109	0.2	109	109	393	0.4	392	393	12.2	83.9
2025-09-06T08:00	10	110	0.3	109	110	393	0.4	393	394	12.2	84.6
2025-09-06T08:01	10	107	1.8	104	109	393	0.4	393	394	12.2	85.0
2025-09-06T08:02	10	109	2.4	104	112	394	0.6	393	395	12.0	85.8
2025-09-06T08:03	10	110	0.2	110	111	395	0.4	394	396	12.3	86.4
2025-09-06T08:04	10	110	0.4	109	111	395	0.2	395	396	12.6	85.4
2025-09-06T08:05	10	109	0.4	109	110	396	0.5	395	397	12.6	85.7
2025-09-06T08:06	10	110	0.3	109	110	395	0.2	395	396	12.3	85.3
2025-09-06T08:07	10	110	0.5	109	110	396	0.2	395	396	12.4	84.6
2025-09-06T08:08	10	110	2.4	105	113	396	0.3	396	397	12.3	85.3
2025-09-06T08:09	10	112	0.1	112	113	397	0.3	396	397	12.3	85.6
2025-09-06T08:10	10	113	0.3	113	114	397	0.3	397	398	12.5	85.2
2025-09-06T08:11	10	114	0.3	113	114	397	0.3	396	397	12.6	83.9
2025-09-06T08:12	10	113	0.1	113	113	398	0.3	397	398	12.7	83.5
2025-09-06T08:13	10	114	0.4	113	114	398	0.3	397	399	13.0	82.9
2025-09-06T08:14	10	114	0.3	113	114	399	0.2	399	400	13.1	82.5
2025-09-06T08:15	10	112	0.8	110	113	399	0.3	398	399	13.0	81.4
2025-09-06T08:16	10	110	0.8	108	111	399	0.4	398	399	13.2	80.6
2025-09-06T08:17	10	111	0.8	109	112	398	0.2	398	399	13.0	81.7
2025-09-06T08:18	10	114	1.2	112	117	399	0.3	398	400	12.9	82.6
2025-09-06T08:19	10	116	1.4	113	117	400	0.3	400	401	13.0	83.7
2025-09-06T08:20	10	109	2.0	106	113	400	0.3	400	401	12.9	83.3
2025-09-06T08:21	10	110	1.0	107	112	400	0.3	400	401	12.9	84.0
2025-09-06T08:22	10	114	1.0	111	115	401	0.4	400	402	13.2	85.4
2025-09-06T08:23	10	114	0.8	112	115	401	0.2	401	401	13.2	84.9
2025-09-06T08:24	10	108	2.3	106	112	400	0.5	400	401	13.2	84.9
2025-09-06T08:25	10	108	1.3	105	109	400	0.3	399	401	12.6	80.9
2025-09-06T08:26	10	108	1.4	105	111	401	0.2	400	401	13.2	83.5
2025-09-06T08:27	10	107	1.8	104	110	401	0.3	400	401	13.2	84.9
2025-09-06T08:28	10	112	2.2	109	117	401	0.3	400	402	13.2	84.9
2025-09-06T08:29	10	117	1.2	115	120	401	0.3	401	402	13.2	84.9
2025-09-06T08:30	10	119	0.9	117	120	403	0.5	401	404	13.1	83.5
2025-09-06T08:31	10	122	1.2	118	123	404	0.4	403	405	13.2	82.8
2025-09-06T08:32	10	110	7.4	96	118	402	1.5	400	405	13.0	81.1
2025-09-06T08:33	10	107	5.5	97	116	400	0.4	400	402	12.8	81.5
2025-09-06T08:34	10	113	2.3	110	117	402	0.4	401	404	12.9	81.7
2025-09-06T08:35	10	118	1.1	115	120	405	0.5	403	405	13.1	81.6
2025-09-06T08:36	10	115	2.1	111	120	405	0.5	404	406	13.4	82.4
2025-09-06T08:37	10	118	2.3	114	121	404	0.2	404	405	13.2	80.0
2025-09-06T08:38	10	115	2.9	111	120	405	0.6	404	406	13.4	80.2
2025-09-06T08:39	10	113	5.7	100	120	406	1.0	404	408	13.5	81.1
2025-09-06T08:40	10	98	5.3	89	104	404	0.4	403	405	13.8	81.9
2025-09-06T08:41	10	102	3.1	97	108	402	1.2	400	404	13.9	80.3
2025-09-06T08:42	10	111	3.2	103	118	402	0.8	401	404	13.8	79.6
2025-09-06T08:43	10	117	3.2	110	120	404	0.3	403	405	13.8	79.8
2025-09-06T08:44	10	109	0.9	107	110	405	0.3	404	406	13.6	80.4
2025-09-06T08:45	10	114	2.7	110	119	406	0.5	405	407	13.8	80.1
2025-09-06T08:46	10	118	1.2	115	119	407	0.3	406	408	14.1	80.8
2025-09-06T08:47	10	120	0.9	118	121	407	0.7	406	408	13.6	79.4
2025-09-06T08:48	10	121	0.5	120	122	407	0.3	406	407	13.5	80.5
2025-09-06T08:49	10	117	5.5	105	121	407	0.3	406	408	13.6	80.5
2025-09-06T08:50	10	118	0.8	117	120	406	0.3	405	407	13.4	79.6
2025-09-06T08:51	10	119	0.9	118	120	407	0.3	406	407	13.4	79.5
2025-09-06T08:52	10	120	0.4	119	121	407	0.4	407	408	13.4	79.5
2025-09-06T08:53	10	119	0.6	118	120	408	0.9	405	409	13.5	80.4
2025-09-06T08:54	10	121	1.0	118	122	405	0.3	404	406	13.2	80.1
2025-09-06T08:55	10	119	0.8	118	120	405	0.6	404	406	13.2	80.8
2025-09-06T08:56	10	119	0.5	118	120	407	0.4	406	408	13.4	80.9
2025-09-06T08:57	10	122	0.8	120	123	408	0.5	407	409	13.6	80.6
2025-09-06T08:58	10	123	1.1	121	124	409	0.6	408	410	13.8	81.3
2025-09-06T08:59	10	124	1.6	121	127	410	0.2	410	411	13.9	79.9
2025-09-06T09:00	10	129	1.3	127	131	411	0.5	410	412	14.0	79.1
2025-09-06T09:01	10	131	1.1	129	132	411	0.5	410	412	13.9	79.6
2025-09-06T09:02	10	130	1.1	128	132	410	0.4	409	411	13.8	78.8
2025-09-06T09:03	10	129	1.9	125	131	409	0.5	408	411	13.7	78.8
2025-09-06T09:04	10	132	0.6	131	133	412	0.6	411	413	13.9	79.5
2025-09-06T09:05	10	133	0.7	131	134	413	0.3	412	413	14.1	78.4
2025-09-06T09:06	10	132	1.0	130	133	413	0.4	412	414	14.3	78.6
2025-09-06T09:07	10	130	0.6	129	131	413	0.3	412	414	14.1	76.6
2025-09-06T09:08	10	132	0.6	131	134	414	0.5	413	415	14.1	78.9
2025-09-06T09:09	10	134	0.6	133	135	413	1.1	411	415	14.0	77.9
2025-09-06T09:10	10	135	0.3	135	136	413	0.5	412	414	13.8	78.0
2025-09-06T09:11	10	135	0.6	134	136	412	0.9	411	414	14.1	79.1
2025-09-06T09:12	10	135	1.2	132	137	412	0.5	411	413	13.8	77.4
2025-09-06T09:13	10	114	14.4	85	132	412	1.2	409	413	13.9	77.9
2025-09-06T09:14	10	94	6.0	85	111	409	0.9	407	410	14.0	78.6
2025-09-06T09:15	10	123	4.9	110	127	410	0.6	408	411	14.1	78.8
2025-09-06T09:16	10	95	4.3	91	109	407	1.6	404	409	14.1	77.7
2025-09-06T09:17	10	109	6.0	99	125	406	0.4	405	407	13.9	77.3
2025-09-06T09:18	10	134	2.4	126	136	410	1.7	406	412	13.8	77.3
2025-09-06T09:19	10	134	1.5	132	137	413	0.6	411	414	13.9	77.4
2025-09-06T09:20	10	137	2.9	133	141	413	0.5	412	414	13.9	76.4
2025-09-06T09:21	10	134	4.6	125	141	415	0.4	414	416	14.0	76.6
2025-09-06T09:22	10	125	4.0	117	130	413	0.5	412	415	14.0	76.1
2025-09-06T09:23	10	121	6.9	104	128	413	0.6	411	414	14.0	75.7
2025-09-06T09:24	10	120	7.7	102	126	412	0.7	411	413	14.0	75.6
2025-09-06T09:25	10	129	4.0	122	137	414	0.7	412	415	14.2	75.0
2025-09-06T09:26	10	140	2.4	135	142	416	0.7	415	417	14.4	75.0
2025-09-06T09:27	10	143	0.9	141	145	418	0.6	417	419	14.5	74.6
2025-09-06T09:28	10	143	1.8	141	146	419	0.6	418	420	14.5	74.0
2025-09-06T09:29	10	143	1.0	140	144	420	0.4	419	421	14.5	75.3
2025-09-06T09:30	10	129	3.9	125	139	417	1.1	416	420	14.3	74.3
2025-09-06T09:31	10	136	5.0	126	143	417	0.5	416	418	14.3	75.5
2025-09-06T09:32	10	141	1.2	138	142	417	0.6	416	419	14.4	75.8
2025-09-06T09:33	10	141	1.2	138	143	419	0.5	418	419	14.4	74.9
2025-09-06T09:34	10	142	2.1	135	144	419	0.5	418	420	14.5	75.3
2025-09-06T09:35	10	140	4.3	133	145	419	0.8	418	420	14.5	74.2
2025-09-06T09:36	10	144	0.8	143	145	418	0.7	417	420	14.3	74.7
2025-09-06T09:37	10	138	2.8	134	143	420	0.3	419	421	14.4	76.2
2025-09-06T09:38	10	138	1.5	136	141	420	0.5	419	421	14.7	75.7
2025-09-06T09:39	10	139	2.9	135	144	420	0.6	419	421	14.5	74.8
2025-09-06T09:40	10	145	1.4	143	148	422	0.7	420	423	14.8	74.6
2025-09-06T09:41	10	146	1.7	143	148	422	0.5	421	422	14.6	74.9
2025-09-06T09:42	10	145	2.9	141	149	422	0.5	421	423	14.7	75.7
2025-09-06T09:43	10	144	0.8	142	145	421	0.4	420	422	14.6	75.1
2025-09-06T09:44	10	124	16.0	103	144	419	2.8	414	422	14.5	74.0
2025-09-06T09:45	10	106	15.7	69	127	415	1.0	413	417	14.5	74.6
2025-09-06T09:46	10	58	2.5	55	67	408	2.6	405	414	14.5	74.0
2025-09-06T09:47	10	98	22.0	62	130	408	2.5	405	413	14.5	74.0
2025-09-06T09:48	10	114	6.7	107	129	413	1.1	411	416	14.6	73.8
2025-09-06T09:49	10	119	5.7	109	128	417	1.2	415	419	14.7	75.2
2025-09-06T09:50	10	129	1.2	125	131	419	0.8	417	420	15.1	76.1
2025-09-06T09:51	10	125	3.4	118	129	418	0.7	417	419	15.2	74.8
2025-09-06T09:52	10	132	5.2	124	141	418	0.5	417	419	15.1	72.9
2025-09-06T09:53	10	142	1.1	139	143	420	1.2	417	422	14.8	72.2
2025-09-06T09:54	10	140	1.2	138	142	422	0.3	421	422	15.0	73.2
2025-09-06T09:55	10	140	1.0	138	142	422	0.4	421	423	14.9	72.7
2025-09-06T09:56	10	145	2.6	141	149	424	0.8	422	425	15.0	73.1
2025-09-06T09:57	10	150	1.1	147	151	426	0.4	425	427	15.1	72.0
2025-09-06T09:58	10	149	0.8	148	151	426	0.4	425	427	15.3	71.0
2025-09-06T09:59	10	149	2.0	147	154	427	0.4	426	428	15.6	70.6
2025-09-06T10:00	10	151	1.6	146	154	429	0.4	428	429	15.8	71.1
2025-09-06T10:01	10	134	4.6	129	146	427	1.1	425	429	15.7	72.7
2025-09-06T10:02	10	133	1.7	129	135	426	0.5	425	427	15.9	73.0
2025-09-06T10:03	10	133	1.8	131	137	426	0.3	426	427	15.6	72.2
2025-09-06T10:04	10	142	3.4	136	147	427	0.4	426	427	15.7	72.4
2025-09-06T10:05	10	146	1.9	140	149	427	0.6	426	428	15.6	72.3
2025-09-06T10:06	10	138	0.7	137	139	425	0.9	424	427	15.4	72.0
2025-09-06T10:07	10	141	2.6	137	145	426	0.9	425	428	15.4	72.6
2025-09-06T10:08	10	142	0.6	141	143	427	0.3	427	428	15.9	73.1
2025-09-06T10:09	10	140	0.8	138	141	425	0.6	424	427	15.3	71.6
2025-09-06T10:10	10	136	1.4	135	139	425	0.4	424	426	15.4	73.0
2025-09-06T10:11	10	141	1.3	138	143	424	0.9	422	425	15.2	72.1
2025-09-06T10:12	10	143	0.8	141	144	422	1.0	421	424	14.9	71.9
2025-09-06T10:13	10	144	3.3	139	149	420	0.6	419	422	14.8	72.5
2025-09-06T10:14	10	149	0.6	148	150	424	0.7	422	425	14.9	72.7
2025-09-06T10:15	10	150	1.0	148	152	425	0.5	424	426	14.9	72.0
2025-09-06T10:16	10	156	1.9	153	158	427	0.9	425	428	15.1	72.6
2025-09-06T10:17	10	156	0.8	154	157	428	0.3	427	429	15.1	71.7
2025-09-06T10:18	10	155	1.3	152	157	429	1.0	427	431	15.4	72.5
2025-09-06T10:19	10	152	2.1	148	155	429	0.6	428	430	15.4	71.5
2025-09-06T10:20	10	135	8.2	118	148	425	1.7	423	429	15.1	71.6
2025-09-06T10:21	10	111	4.7	104	118	422	1.0	421	424	15.2	72.3
2025-09-06T10:22	10	141	11.7	117	154	424	2.3	421	428	15.2	69.4
2025-09-06T10:23	10	155	1.3	152	156	429	0.9	426	430	15.4	70.2
2025-09-06T10:24	10	153	0.6	151	153	431	0.8	429	432	15.6	70.9
2025-09-06T10:25	10	150	1.9	146	152	432	0.3	431	433	16.0	72.8
2025-09-06T10:26	10	149	0.8	148	151	429	2.0	426	432	15.4	73.0
2025-09-06T10:27	10	142	4.5	135	149	426	0.5	424	427	15.1	73.8
2025-09-06T10:28	10	135	2.1	131	139	427	0.5	426	428	15.2	74.5
2025-09-06T10:29	10	134	3.2	128	138	427	0.7	424	427	15.5	74.5
2025-09-06T10:30	10	130	3.1	125	138	423	0.9	422	425	15.2	72.9
2025-09-06T10:31	10	141	6.9	129	148	427	2.2	424	430	15.4	73.9
2025-09-06T10:32	10	149	1.4	146	151	429	0.6	428	430	15.8	73.5
2025-09-06T10:33	10	146	3.7	142	151	429	0.6	427	430	15.7	71.9
2025-09-06T10:34	10	145	1.9	142	148	429	0.6	428	430	15.6	71.9
2025-09-06T10:35	10	146	1.4	144	148	430	0.9	428	431	15.8	72.7
2025-09-06T10:36	10	147	1.8	145	150	429	0.5	428	430	15.5	72.2
2025-09-06T10:37	10	144	1.9	140	147	427	0.8	426	428	15.2	73.0
2025-09-06T10:38	10	142	1.3	139	143	428	0.6	427	429	15.2	72.6
2025-09-06T10:39	10	137	1.6	135	141	429	0.5	429	430	15.4	73.3
2025-09-06T10:40	10	137	4.0	133	144	428	0.7	427	430	15.6	71.4
2025-09-06T10:41	10	140	1.0	139	142	428	0.3	427	429	15.4	71.4
2025-09-06T10:42	10	141	1.1	139	143	429	0.5	428	430	15.8	73.7
2025-09-06T10:43	10	142	0.9	140	144	428	0.8	427	430	15.8	70.9
2025-09-06T10:44	10	144	0.5	143	145	427	0.5	426	428	15.7	70.8
2025-09-06T10:45	10	149	1.5	146	152	428	0.5	427	429	15.6	70.1
2025-09-06T10:46	10	151	1.0	149	152	428	0.7	427	430	15.4	70.2
2025-09-06T10:47	10	152	1.5	149	154	431	1.1	429	433	15.7	72.2
2025-09-06T10:48	10	156	0.5	154	156	435	1.1	432	436	16.0	71.8
2025-09-06T10:49	10	157	1.0	155	159	433	1.5	429	435	16.0	70.8
2025-09-06T10:50	10	157	1.8	153	159	431	1.1	429	433	15.9	70.1
2025-09-06T10:51	10	154	1.1	151	155	430	1.0	428	432	15.6	69.9
2025-09-06T10:52	10	155	1.5	151	156	430	0.6	429	431	15.4	70.2
2025-09-06T10:53	10	151	2.9	147	156	431	0.4	430	432	15.4	70.3
2025-09-06T10:54	10	155	0.8	153	156	432	0.6	431	433	15.6	70.4
2025-09-06T10:55	10	152	3.9	146	156	432	0.9	430	433	15.4	68.3
2025-09-06T10:56	10	152	1.2	148	153	432	0.9	431	434	15.5	68.8
2025-09-06T10:57	10	152	0.4	152	153	434	0.6	433	435	15.6	69.5
2025-09-06T10:58	10	151	1.7	148	153	434	0.3	433	435	15.9	70.9
2025-09-06T10:59	10	146	5.3	138	155	434	0.3	433	435	15.9	68.9
2025-09-06T11:00	10	140	3.1	136	145	433	0.6	432	435	16.1	69.5
2025-09-06T11:01	10	143	3.7	136	148	433	0.6	432	434	16.3	68.1
2025-09-06T11:02	10	158	1.7	150	160	436	0.9	434	437	16.4	67.7
2025-09-06T11:03	10	159	0.5	158	160	436	0.5	435	437	16.3	66.9
2025-09-06T11:04	10	160	0.2	160	160	435	0.8	434	436	16.1	66.2
2025-09-06T11:05	10	160	0.3	159	160	437	0.9	435	438	16.2	67.1
2025-09-06T11:06	10	159	0.6	158	160	438	0.9	436	439	16.6	67.1
2025-09-06T11:07	10	158	0.4	157	159	437	0.8	435	437	16.4	64.4
2025-09-06T11:08	10	156	1.1	154	158	435	0.6	434	436	16.2	61.7
2025-09-06T11:09	10	158	0.7	156	159	437	0.4	436	438	16.4	64.1
2025-09-06T11:10	10	157	1.3	155	159	436	0.9	434	437	16.3	63.5
2025-09-06T11:11	10	149	3.8	143	154	436	0.6	434	436	16.3	62.4
2025-09-06T11:12	10	152	1.0	149	153	436	0.5	435	437	16.4	61.8
2025-09-06T11:13	10	143	4.7	129	149	437	0.5	435	438	16.6	65.2
2025-09-06T11:14	10	121	2.9	116	128	431	2.7	428	436	16.4	63.7
2025-09-06T11:15	10	103	7.7	92	120	427	2.0	423	430	16.3	63.0
2025-09-06T11:16	10	114	6.3	101	122	425	0.6	424	426	16.1	63.6
2025-09-06T11:17	10	133	5.4	122	141	428	1.0	426	430	16.3	65.7
2025-09-06T11:18	10	138	7.2	125	150	429	0.4	428	430	16.2	63.2
2025-09-06T11:19	10	144	2.2	141	150	431	0.7	430	433	16.1	61.7
2025-09-06T11:20	10	148	6.0	140	156	433	1.4	431	435	16.1	63.2
2025-09-06T11:21	10	144	6.1	136	157	434	0.5	433	435	16.2	63.0
2025-09-06T11:22	10	160	0.9	157	161	437	0.9	435	438	16.5	61.9
2025-09-06T11:23	10	161	0.5	160	162	438	0.4	437	439	16.7	61.4
2025-09-06T11:24	10	161	1.1	158	162	439	0.5	438	440	16.7	63.3
2025-09-06T11:25	10	158	1.4	154	160	440	0.4	439	441	16.9	63.5
2025-09-06T11:26	10	155	0.6	154	156	439	1.2	437	441	16.7	65.5
2025-09-06T11:27	10	153	1.5	151	156	436	1.0	434	438	16.4	65.1
2025-09-06T11:28	10	153	2.2	149	156	435	0.8	434	436	16.2	65.7
2025-09-06T11:29	10	152	2.0	149	155	437	1.0	435	438	16.3	66.8
2025-09-06T11:30	10	154	0.9	151	155	438	0.4	437	438	16.4	65.6
2025-09-06T11:31	10	146	4.0	138	151	437	1.1	435	439	16.4	65.4
2025-09-06T11:32	10	139	2.3	134	143	436	0.4	435	436	16.5	65.8
2025-09-06T11:33	10	136	3.0	131	140	435	0.4	434	436	16.6	65.5
2025-09-06T11:34	10	135	3.4	130	140	436	0.3	435	437	16.8	65.5
2025-09-06T11:35	10	149	3.7	136	152	437	1.0	436	439	16.8	66.2
2025-09-06T11:36	10	145	3.7	137	149	439	0.4	438	440	17.0	67.1
2025-09-06T11:37	10	135	1.3	133	137	438	1.0	436	440	17.2	67.1
2025-09-06T11:38	10	144	9.8	130	154	436	1.2	435	439	16.8	65.1
2025-09-06T11:39	10	151	0.9	148	152	438	1.2	436	439	17.1	66.9
2025-09-06T11:40	10	142	2.0	139	147	436	0.3	436	437	16.9	66.2
2025-09-06T11:41	10	138	1.5	136	141	436	0.3	435	437	17.0	65.8
2025-09-06T11:42	10	145	1.8	140	146	438	0.8	436	439	17.1	65.9
2025-09-06T11:43	10	147	1.1	145	148	438	0.4	437	439	16.8	64.5
2025-09-06T11:44	10	146	1.6	144	149	436	0.8	435	438	16.8	63.6
2025-09-06T11:45	10	150	1.5	146	151	436	0.5	435	437	16.7	63.8
2025-09-06T11:46	10	145	2.1	140	148	437	1.2	435	438	16.8	64.2
2025-09-06T11:47	10	149	2.1	146	152	434	0.5	433	435	16.6	63.5
2025-09-06T11:48	10	154	1.4	151	156	436	1.5	433	438	16.6	64.2
2025-09-06T11:49	10	156	0.7	155	157	440	0.8	438	441	17.3	66.5
2025-09-06T11:50	10	157	0.3	156	157	441	0.6	440	442	17.3	63.7
2025-09-06T11:51	10	156	0.6	156	157	438	1.3	435	440	17.1	63.5
2025-09-06T11:52	10	157	0.2	157	158	437	1.0	436	439	16.6	61.6
2025-09-06T11:53	10	158	0.2	158	158	440	1.1	438	441	16.7	62.5
2025-09-06T11:54	10	157	0.4	156	158	440	1.1	438	441	17.0	61.8
2025-09-06T11:55	10	157	0.5	156	158	441	1.1	439	443	17.2	62.6
2025-09-06T11:56	10	156	0.5	155	157	439	0.5	438	440	16.9	61.3
2025-09-06T11:57	10	157	0.3	156	157	440	0.8	439	442	16.9	61.6
2025-09-06T11:58	10	157	0.2	157	157	438	0.7	437	440	16.9	61.1
2025-09-06T11:59	10	156	0.5	155	157	442	0.9	440	443	17.4	62.3
2025-09-06T12:00	10	157	0.8	156	158	441	1.3	439	443	17.6	60.5
2025-09-06T12:01	10	158	0.3	157	158	438	0.7	437	439	17.2	59.2
2025-09-06T12:02	10	157	1.0	155	158	438	0.3	438	439	17.0	58.6
2025-09-06T12:03	10	156	0.3	156	157	438	0.6	437	440	16.9	58.3
2025-09-06T12:04	10	157	0.6	156	158	440	1.4	438	442	17.0	58.0
2025-09-06T12:05	10	155	0.8	154	157	442	0.5	441	443	17.4	59.8
2025-09-06T12:06	10	157	0.6	155	158	441	0.6	439	442	17.4	56.8
2025-09-06T12:07	10	157	0.5	156	158	442	0.4	441	443	17.5	57.3
2025-09-06T12:08	10	155	1.7	151	158	441	0.9	440	442	17.8	56.3
2025-09-06T12:09	10	155	2.0	151	157	440	1.1	438	442	17.5	54.0
2025-09-06T12:10	10	158	0.3	157	158	439	0.5	438	440	17.2	52.6
2025-09-06T12:11	10	159	0.3	158	159	440	0.7	438	441	17.1	53.5
2025-09-06T12:12	10	156	1.9	153	158	439	0.4	439	440	17.1	54.7
2025-09-06T12:13	10	148	1.8	145	152	439	0.6	437	440	17.3	56.5
2025-09-06T12:14	10	152	1.4	149	154	438	0.3	437	439	17.2	55.2
2025-09-06T12:15	10	145	1.8	142	148	437	1.0	436	440	17.2	53.5
2025-09-06T12:16	10	146	3.4	140	152	438	0.4	437	438	17.2	52.5
2025-09-06T12:17	10	152	1.6	150	155	439	1.1	436	441	17.2	53.5
2025-09-06T12:18	10	149	4.2	140	154	440	0.4	439	441	17.4	52.6
2025-09-06T12:19	10	143	1.1	140	145	440	0.3	440	441	17.5	53.1
2025-09-06T12:20	10	148	1.8	143	151	440	0.4	439	442	17.5	53.3
2025-09-06T12:21	10	146	1.7	143	149	439	0.6	438	440	17.5	53.6
2025-09-06T12:22	10	148	1.6	146	151	441	1.2	438	443	17.8	54.7
2025-09-06T12:23	10	155	2.5	151	159	437	0.7	436	438	17.4	52.1
2025-09-06T12:24	10	159	1.3	154	160	440	1.4	438	442	17.6	54.4
2025-09-06T12:25	10	155	0.9	154	157	440	0.4	439	441	17.4	52.5
2025-09-06T12:26	10	156	1.3	154	158	440	0.6	439	441	17.3	53.2
2025-09-06T12:27	10	160	0.5	159	161	443	0.6	441	444	17.7	53.4
2025-09-06T12:28	10	160	0.3	159	161	442	0.5	441	443	17.5	49.6
2025-09-06T12:29	10	159	0.6	158	161	443	0.2	443	444	17.6	49.5
2025-09-06T12:30	10	158	0.4	157	159	444	0.5	443	445	17.7	50.7
2025-09-06T12:31	10	155	2.7	151	159	443	0.3	442	443	17.7	51.4
2025-09-06T12:32	10	150	9.7	127	158	444	0.7	443	445	18.0	53.3
2025-09-06T12:33	10	145	2.3	141	148	442	1.0	440	444	18.1	53.4
2025-09-06T12:34	10	149	1.4	146	151	441	0.6	440	442	18.0	53.7
2025-09-06T12:35	10	146	3.7	140	152	441	0.8	440	443	17.9	53.1
2025-09-06T12:36	10	156	1.2	153	157	443	0.7	442	444	18.1	54.9
2025-09-06T12:37	10	157	0.5	156	158	442	1.3	440	444	17.9	55.0
2025-09-06T12:38	10	152	8.8	133	159	440	1.3	438	442	17.8	54.6
2025-09-06T12:39	10	157	0.2	156	157	442	1.2	440	444	17.8	53.2
2025-09-06T12:40	10	155	1.4	152	157	444	0.5	443	445	18.0	53.2
2025-09-06T12:41	10	153	1.6	148	154	442	0.5	441	443	17.9	53.7
2025-09-06T12:42	10	158	1.1	154	159	445	1.1	443	447	18.1	55.6
2025-09-06T12:43	10	158	0.4	157	158	446	0.7	445	448	18.2	54.2
2025-09-06T12:44	10	155	1.7	152	157	445	1.2	443	447	18.2	54.3
2025-09-06T12:45	10	155	0.8	154	156	444	0.5	443	445	18.0	55.0
2025-09-06T12:46	10	155	1.5	152	156	446	0.7	445	447	18.2	57.3
2025-09-06T12:47	10	154	1.5	152	156	445	1.2	443	447	18.4	54.3
2025-09-06T12:48	10	154	0.8	152	155	443	1.1	441	445	18.2	55.0
2025-09-06T12:49	10	154	1.4	152	156	440	0.9	439	442	18.0	55.9
2025-09-06T12:50	10	153	0.8	151	154	441	0.5	441	443	18.1	55.0
2025-09-06T12:51	10	149	1.7	146	152	444	0.6	442	445	18.3	55.5
2025-09-06T12:52	10	146	2.7	142	150	444	0.3	443	444	18.3	53.6
2025-09-06T12:53	10	152	2.0	149	155	443	0.5	442	444	18.3	53.0
2025-09-06T12:54	10	153	0.4	153	154	444	0.8	442	445	18.2	53.2
2025-09-06T12:55	10	152	0.8	150	153	444	0.4	443	445	18.3	54.8
2025-09-06T12:56	10	151	0.4	150	152	443	0.4	443	444	18.2	54.4
2025-09-06T12:57	10	151	0.4	151	152	445	0.7	444	446	18.5	55.2
2025-09-06T12:58	10	147	3.6	142	152	443	1.1	441	445	18.7	52.2
2025-09-06T12:59	10	144	1.7	142	147	441	0.6	440	442	18.6	49.8
2025-09-06T13:00	10	146	0.6	145	147	441	0.4	440	442	18.5	49.7
2025-09-06T13:01	10	146	0.8	145	147	442	0.8	440	443	18.6	50.2
2025-09-06T13:02	10	146	0.8	144	147	440	0.4	440	441	18.4	47.9
2025-09-06T13:03	10	150	2.0	146	152	442	1.0	440	443	18.3	48.4
2025-09-06T13:04	10	152	1.3	148	153	444	0.9	443	446	18.4	48.5
2025-09-06T13:05	10	150	1.4	147	152	445	0.6	443	445	18.7	49.0
2025-09-06T13:06	10	150	0.6	150	152	443	0.4	443	444	18.5	48.2
2025-09-06T13:07	10	151	1.2	149	153	444	0.3	443	444	18.4	47.0
2025-09-06T13:08	10	153	0.1	153	153	445	0.5	444	446	18.5	46.9
2025-09-06T13:09	10	153	0.1	153	153	446	0.5	445	447	18.7	46.7
2025-09-06T13:10	10	153	0.1	153	153	446	0.3	446	447	18.8	46.9
2025-09-06T13:11	10	153	0.1	153	153	447	0.3	447	448	18.9	47.3
2025-09-06T13:12	10	152	0.3	152	153	447	0.2	447	447	18.9	48.3
2025-09-06T13:13	10	151	0.6	150	152	447	0.4	446	448	19.2	51.3
2025-09-06T13:14	10	149	1.5	146	151	446	0.3	446	447	19.2	49.9
2025-09-06T13:15	10	149	0.6	148	150	447	0.5	446	448	19.2	50.4
2025-09-06T13:16	10	146	0.9	144	148	447	0.5	446	448	19.1	50.8
2025-09-06T13:17	10	148	0.6	147	149	445	1.2	442	447	19.2	52.1
2025-09-06T13:18	10	150	0.4	149	151	443	0.3	442	443	19.1	50.8
2025-09-06T13:19	10	147	1.2	145	149	443	0.5	442	444	18.9	49.9
2025-09-06T13:20	10	149	1.6	145	150	443	0.4	443	444	18.7	49.9
2025-09-06T13:21	10	150	0.6	149	151	445	0.8	444	447	19.0	49.2
2025-09-06T13:22	10	150	0.5	149	151	447	0.2	446	448	19.1	49.9
2025-09-06T13:23	10	149	1.0	148	152	447	0.4	447	448	19.2	51.5
2025-09-06T13:24	10	152	0.3	151	152	449	0.5	448	450	19.6	53.8
2025-09-06T13:25	10	150	2.0	143	152	448	0.7	446	449	19.9	53.3
2025-09-06T13:26	10	146	2.4	141	149	445	1.0	443	446	19.5	49.4
2025-09-06T13:27	10	142	2.6	137	146	443	0.8	442	444	19.1	49.1
2025-09-06T13:28	10	134	1.4	131	137	441	0.9	440	443	19.2	47.6
2025-09-06T13:29	10	132	1.8	130	136	441	0.5	440	442	19.1	47.1
2025-09-06T13:30	10	131	2.5	126	136	442	0.6	440	443	19.1	46.0
2025-09-06T13:31	10	127	2.4	122	131	440	0.6	440	442	19.1	47.5
2025-09-06T13:32	10	130	1.0	129	132	441	0.6	441	443	19.1	46.4
2025-09-06T13:33	10	134	2.0	130	137	442	0.6	440	443	19.1	47.2
2025-09-06T13:34	10	131	3.2	128	137	443	0.4	442	443	19.4	48.4
2025-09-06T13:35	10	124	5.9	115	132	441	1.2	439	443	19.3	47.5
2025-09-06T13:36	10	128	6.9	116	135	440	0.9	439	442	19.3	46.0
2025-09-06T13:37	10	131	1.5	128	134	442	0.3	442	443	19.4	46.0
2025-09-06T13:38	10	129	0.7	128	130	442	0.4	442	443	19.5	45.8
2025-09-06T13:39	10	131	0.7	129	132	442	0.3	442	443	19.5	46.3
2025-09-06T13:40	10	131	1.3	130	136	443	0.3	442	444	19.4	46.3
2025-09-06T13:41	10	140	2.8	136	145	444	0.9	442	445	19.5	46.4
2025-09-06T13:42	10	144	0.9	143	146	445	0.2	445	446	19.6	46.7
2025-09-06T13:43	10	145	1.0	143	147	445	0.4	444	446	19.7	46.9
2025-09-06T13:44	10	145	0.7	144	147	446	0.6	445	447	20.0	50.4
2025-09-06T13:45	10	146	0.2	145	146	447	0.4	446	448	19.8	50.5
2025-09-06T13:46	10	145	0.6	144	146	444	2.7	440	447	19.6	51.7
2025-09-06T13:47	10	143	0.7	141	144	442	1.0	440	443	19.5	51.7
2025-09-06T13:48	10	134	2.2	132	141	443	0.9	442	444	19.6	51.6
2025-09-06T13:49	10	133	0.7	132	134	441	1.4	439	443	19.4	51.6
2025-09-06T13:50	10	128	1.3	127	132	440	0.6	439	441	19.2	52.0
2025-09-06T13:51	10	129	0.8	128	131	440	0.3	439	441	19.4	53.0
2025-09-06T13:52	10	129	1.2	127	131	438	0.9	436	440	19.1	52.8
2025-09-06T13:53	10	132	1.9	128	134	437	0.9	435	438	19.0	52.9
2025-09-06T13:54	10	131	1.5	129	133	437	0.3	437	438	19.1	53.4
2025-09-06T13:55	10	133	0.8	131	134	438	0.4	437	438	19.0	53.2
2025-09-06T13:56	10	138	1.1	135	139	439	0.7	438	440	19.2	54.0
2025-09-06T13:57	10	138	0.5	138	139	438	0.5	437	440	19.1	52.3
2025-09-06T13:58	10	136	0.6	135	138	439	0.7	438	441	19.2	53.1
2025-09-06T13:59	10	137	0.8	135	138	441	0.3	441	442	19.3	52.4
2025-09-06T14:00	10	134	0.6	133	135	442	0.5	441	443	19.3	52.9
2025-09-06T14:01	10	133	0.5	132	134	442	0.3	441	443	19.3	52.3
2025-09-06T14:02	10	134	0.9	132	136	443	0.5	442	444	19.4	52.5
2025-09-06T14:03	10	131	1.8	128	135	441	2.0	438	444	19.4	52.7
2025-09-06T14:04	10	130	1.2	128	132	438	0.4	438	439	19.3	52.3
2025-09-06T14:05	10	129	0.5	129	130	440	0.7	438	441	19.4	52.6
2025-09-06T14:06	10	131	2.5	127	135	439	0.8	438	441	19.4	52.6
2025-09-06T14:07	10	139	1.8	136	142	439	0.5	438	440	19.4	53.8
2025-09-06T14:08	10	141	1.4	138	144	439	0.5	438	440	19.6	53.6
2025-09-06T14:09	10	140	1.9	136	143	440	0.4	439	441	19.3	52.7
2025-09-06T14:10	10	136	1.0	134	138	440	0.5	440	442	19.4	53.4
2025-09-06T14:11	10	132	3.0	127	136	441	0.7	440	443	19.3	52.9
2025-09-06T14:12	10	137	1.4	135	140	443	0.5	442	444	19.5	53.4
2025-09-06T14:13	10	125	9.4	108	135	442	1.3	439	443	19.5	52.5
2025-09-06T14:14	10	99	2.7	96	108	438	1.1	437	441	19.8	53.6
2025-09-06T14:15	10	102	3.7	98	109	437	0.5	436	438	19.8	52.4
2025-09-06T14:16	10	105	2.9	101	110	434	1.4	432	437	19.6	51.8
2025-09-06T14:17	10	108	3.2	103	113	431	0.5	431	433	19.5	51.9
2025-09-06T14:18	10	107	2.4	103	113	432	0.7	430	433	19.3	51.3
2025-09-06T14:19	10	98	2.5	94	102	433	0.5	432	434	19.4	52.0
2025-09-06T14:20	10	93	3.3	89	102	434	0.4	433	435	19.6	52.4
2025-09-06T14:21	10	108	3.1	102	115	436	0.9	434	437	20.0	54.7
2025-09-06T14:22	10	117	1.4	111	118	436	0.3	436	437	19.9	53.8
2025-09-06T14:23	10	103	2.9	99	111	435	0.5	434	436	19.8	54.5
2025-09-06T14:24	10	94	1.8	93	99	432	1.9	429	435	19.9	54.8
2025-09-06T14:25	10	91	2.2	88	95	430	0.4	429	431	19.6	55.8
2025-09-06T14:26	10	91	1.8	89	94	429	0.3	429	430	19.6	55.5
2025-09-06T14:27	10	102	5.6	93	111	431	1.5	429	434	19.4	55.1
2025-09-06T14:28	10	110	0.9	109	113	435	0.4	433	435	19.5	56.5
2025-09-06T14:29	10	114	1.0	113	116	433	0.7	433	435	19.6	54.8
2025-09-06T14:30	10	110	1.8	107	113	434	0.4	433	435	19.6	55.2
2025-09-06T14:31	10	103	2.5	98	107	431	1.2	430	434	19.5	54.7
2025-09-06T14:32	10	106	1.7	103	108	432	1.4	430	434	19.4	54.4
2025-09-06T14:33	10	108	1.4	106	110	435	0.7	434	436	19.6	54.7
2025-09-06T14:34	10	103	1.1	102	106	435	1.0	433	436	19.7	56.5
2025-09-06T14:35	10	104	1.2	102	106	434	0.3	433	435	19.7	59.0
2025-09-06T14:36	10	104	0.6	103	105	435	0.5	434	436	19.9	59.1
2025-09-06T14:37	10	104	1.3	102	106	435	0.7	434	436	20.1	58.0
2025-09-06T14:38	10	101	2.0	98	104	433	1.1	431	435	19.6	52.8
2025-09-06T14:39	10	105	2.6	99	108	432	0.6	431	433	19.8	55.7
2025-09-06T14:40	10	106	1.4	104	108	430	1.2	428	432	19.7	55.1
2025-09-06T14:41	10	105	1.5	104	108	430	0.4	429	430	19.5	56.4
2025-09-06T14:42	10	108	1.6	105	110	430	0.9	429	432	19.6	56.7
2025-09-06T14:43	10	109	0.7	107	110	432	0.7	431	433	19.7	56.9
2025-09-06T14:44	10	105	0.8	104	107	433	0.4	432	434	19.8	56.6
2025-09-06T14:45	10	107	3.1	102	111	433	0.8	432	435	19.6	55.9
2025-09-06T14:46	10	106	0.7	105	108	433	0.8	431	434	19.6	56.6
2025-09-06T14:47	10	106	1.0	105	108	433	0.6	432	434	19.6	56.3
2025-09-06T14:48	10	106	0.9	105	108	434	0.5	433	435	19.8	56.4
2025-09-06T14:49	10	106	0.7	105	107	433	0.4	432	434	19.9	55.9
2025-09-06T14:50	10	106	1.2	104	108	432	0.8	430	433	19.8	56.3
2025-09-06T14:51	10	105	0.7	104	106	431	0.4	430	432	19.7	57.0
2025-09-06T14:52	10	104	2.0	101	107	431	0.4	430	432	19.8	57.0
2025-09-06T14:53	10	99	3.3	95	106	430	0.4	429	432	19.6	55.5
2025-09-06T14:54	10	95	4.1	89	102	430	0.3	430	431	19.6	54.8
2025-09-06T14:55	10	91	3.5	88	97	428	0.8	427	430	19.6	56.0
2025-09-06T14:56	10	91	3.1	87	97	428	0.4	427	429	19.6	55.8
2025-09-06T14:57	10	88	1.1	86	90	428	0.4	427	429	19.7	55.3
2025-09-06T14:58	10	93	1.6	90	95	427	0.4	427	428	19.6	55.6
2025-09-06T14:59	10	90	1.3	88	93	428	0.3	427	428	19.6	56.4
2025-09-06T15:00	10	93	2.0	90	95	429	0.3	428	430	19.6	56.0
2025-09-06T15:01	10	94	1.5	92	96	430	0.6	428	431	19.6	56.4
2025-09-06T15:02	10	95	1.8	91	96	429	0.4	428	430	19.6	56.1
2025-09-06T15:03	10	88	4.9	83	96	429	0.3	429	430	19.7	56.4
2025-09-06T15:04	10	86	1.8	83	88	430	0.4	429	431	19.9	57.0
2025-09-06T15:05	10	81	2.8	77	85	427	1.4	425	431	19.8	56.6
2025-09-06T15:06	10	77	1.0	75	78	425	0.8	424	426	19.8	58.8
2025-09-06T15:07	10	75	1.5	72	78	424	0.3	424	425	19.7	59.2
2025-09-06T15:08	10	67	2.0	65	72	424	0.3	424	425	19.6	59.8
2025-09-06T15:09	10	67	1.0	65	69	425	0.2	425	426	19.7	60.3
2025-09-06T15:10	10	68	0.2	68	69	423	1.0	422	425	19.7	59.6
2025-09-06T15:11	10	69	0.4	68	69	423	0.3	422	423	19.7	60.2
2025-09-06T15:12	10	70	0.7	69	71	423	0.3	422	423	19.7	60.7
2025-09-06T15:13	10	73	1.1	71	75	423	0.6	422	424	19.7	60.5
2025-09-06T15:14	10	75	1.8	74	81	424	0.3	424	426	19.7	60.0
2025-09-06T15:15	10	82	1.0	80	83	424	0.3	424	425	19.6	60.0
2025-09-06T15:16	10	79	1.2	77	81	425	0.7	424	426	19.6	60.4
2025-09-06T15:17	10	78	0.9	77	80	425	0.2	425	426	19.8	61.0
2025-09-06T15:18	10	77	1.5	76	80	424	0.3	424	425	19.7	60.1
2025-09-06T15:19	10	77	0.5	76	78	425	0.4	424	425	19.7	60.2
2025-09-06T15:20	10	76	1.0	73	77	425	0.2	425	426	19.7	60.4
2025-09-06T15:21	10	74	2.2	71	77	424	0.4	423	425	19.8	59.5
2025-09-06T15:22	10	70	2.2	68	75	424	0.5	423	425	19.8	58.8
2025-09-06T15:23	10	70	0.6	68	71	423	0.8	421	424	19.7	58.7
2025-09-06T15:24	10	72	0.8	71	73	422	0.3	422	423	19.7	59.0
2025-09-06T15:25	10	72	1.2	70	74	423	0.3	422	423	19.8	59.4
2025-09-06T15:26	10	71	1.0	70	73	422	0.4	422	423	19.8	59.2
2025-09-06T15:27	10	77	2.0	74	81	422	0.4	421	423	19.7	58.0
2025-09-06T15:28	10	79	0.8	77	80	423	0.4	422	424	19.7	57.8
2025-09-06T15:29	10	79	1.8	76	82	422	0.4	421	423	19.6	56.9
2025-09-06T15:30	10	78	2.2	74	82	422	0.2	421	423	19.7	57.4
2025-09-06T15:31	10	72	0.8	70	74	423	0.4	422	424	19.8	57.6
2025-09-06T15:32	10	70	1.4	67	72	424	0.3	423	425	19.9	58.0
2025-09-06T15:33	10	64	1.9	61	67	423	0.6	422	424	19.8	57.4
2025-09-06T15:34	10	58	1.4	56	61	421	0.6	420	423	19.9	57.3
2025-09-06T15:35	10	56	1.3	53	57	421	0.5	420	421	19.9	57.0
2025-09-06T15:36	10	52	0.6	51	53	419	0.6	418	420	19.8	56.6
2025-09-06T15:37	10	57	3.7	52	64	419	0.4	418	420	19.8	57.1
2025-09-06T15:38	10	70	2.4	64	73	421	0.9	419	422	19.8	56.5
2025-09-06T15:39	10	73	0.9	72	74	422	0.4	421	423	19.8	56.3
2025-09-06T15:40	10	77	0.8	74	77	423	0.7	422	425	19.9	57.1
2025-09-06T15:41	10	78	0.6	77	79	424	0.6	422	425	20.0	55.9
2025-09-06T15:42	10	78	1.4	76	81	423	0.2	422	423	19.9	56.2
2025-09-06T15:43	10	78	1.5	75	80	422	0.6	421	423	20.0	55.4
2025-09-06T15:44	10	73	1.1	71	75	421	0.5	420	422	19.9	54.8
2025-09-06T15:45	10	72	1.3	69	74	422	0.3	421	422	19.9	55.0
2025-09-06T15:46	10	70	0.4	69	71	422	0.3	421	423	19.9	55.1
2025-09-06T15:47	10	73	1.6	71	77	421	0.2	421	422	19.8	53.8
2025-09-06T15:48	10	73	1.0	72	76	420	0.6	419	421	19.8	54.4
2025-09-06T15:49	10	74	1.2	72	76	421	0.5	420	422	19.8	54.8
2025-09-06T15:50	10	78	1.1	76	80	422	0.5	421	423	19.9	54.8
2025-09-06T15:51	10	76	0.5	75	78	422	0.8	420	423	20.0	55.1
2025-09-06T15:52	10	73	1.5	70	76	421	0.3	420	421	19.9	54.4
2025-09-06T15:53	10	65	2.6	62	70	420	0.8	419	421	19.9	54.8
2025-09-06T15:54	10	66	1.0	64	68	419	0.3	418	420	19.8	55.0
2025-09-06T15:55	10	66	0.5	65	67	420	0.5	419	421	19.9	55.0
2025-09-06T15:56	10	64	1.5	61	66	421	0.3	420	421	20.0	55.4
2025-09-06T15:57	10	58	1.8	55	61	420	0.5	419	421	20.1	54.4
2025-09-06T15:58	10	53	1.3	50	55	418	0.7	417	420	20.0	52.9
2025-09-06T15:59	10	48	0.7	47	50	416	0.8	415	418	20.0	53.1
2025-09-06T16:00	10	50	0.8	49	52	415	0.6	414	416	20.0	53.0
2025-09-06T16:01	10	55	1.4	52	57	415	0.2	414	415	19.8	52.6
2025-09-06T16:02	10	54	0.9	53	56	415	0.3	414	416	19.7	52.7
2025-09-06T16:03	10	54	0.5	53	55	415	0.4	414	416	19.8	53.1
2025-09-06T16:04	10	54	0.6	53	56	415	0.3	415	416	19.8	52.8
2025-09-06T16:05	10	55	1.2	53	57	415	0.4	414	416	19.8	53.7
2025-09-06T16:06	10	51	2.2	47	54	414	0.6	412	415	19.8	52.9
2025-09-06T16:07	10	46	0.6	44	47	412	0.5	411	413	19.7	51.3
2025-09-06T16:08	10	48	0.8	47	50	412	0.4	411	413	19.7	52.0
2025-09-06T16:09	10	45	0.8	44	47	412	0.3	412	413	19.8	51.9
2025-09-06T16:10	10	53	2.9	47	56	413	0.6	411	414	19.8	52.0
2025-09-06T16:11	10	58	0.7	56	60	414	0.6	413	415	19.8	52.3
2025-09-06T16:12	10	55	1.9	52	58	414	0.3	413	414	19.8	52.3
2025-09-06T16:13	10	52	0.5	51	54	413	0.3	413	414	19.8	53.3
2025-09-06T16:14	10	55	0.6	53	56	413	0.3	412	414	19.8	53.5
2025-09-06T16:15	10	51	1.1	49	54	413	0.2	412	413	19.7	53.7
2025-09-06T16:16	10	45	2.9	40	49	412	0.5	411	413	19.7	53.9
2025-09-06T16:17	10	36	2.4	32	40	411	0.5	410	412	19.8	54.0
2025-09-06T16:18	10	30	0.8	29	32	410	0.5	409	411	19.8	53.9
2025-09-06T16:19	10	31	1.9	29	35	409	0.2	408	410	19.7	54.6
2025-09-06T16:20	10	43	3.9	35	47	410	0.6	409	411	19.7	54.5
2025-09-06T16:21	10	46	0.5	45	47	411	0.5	410	412	19.7	55.8
2025-09-06T16:22	10	44	0.9	42	46	412	0.2	411	412	19.7	55.5
2025-09-06T16:23	10	42	0.4	41	43	411	0.3	410	412	19.7	55.0
2025-09-06T16:24	10	45	1.3	43	47	411	0.3	410	411	19.7	56.2
2025-09-06T16:25	10	47	0.4	46	47	412	0.4	411	413	19.7	56.1
2025-09-06T16:26	10	44	1.3	42	46	411	0.5	410	412	19.7	54.6
2025-09-06T16:27	10	49	5.5	42	58	411	0.6	410	412	19.7	54.1
2025-09-06T16:28	10	62	1.6	58	64	412	0.7	411	414	19.7	53.7
2025-09-06T16:29	10	64	0.4	64	65	414	0.4	413	414	19.7	53.5
2025-09-06T16:30	10	62	2.5	57	65	414	0.3	414	415	19.8	54.2
2025-09-06T16:31	10	57	1.6	56	60	413	0.3	413	414	19.9	54.3
2025-09-06T16:32	10	63	1.1	61	64	414	0.5	413	415	19.9	54.5
2025-09-06T16:33	10	62	0.3	62	63	415	0.3	415	416	19.9	54.5
2025-09-06T16:34	10	64	1.7	62	67	415	0.2	415	416	19.9	54.6
2025-09-06T16:35	10	66	0.6	65	67	415	0.3	414	415	19.9	52.8
2025-09-06T16:36	10	64	0.7	63	65	415	0.3	414	415	19.9	52.7
2025-09-06T16:37	10	63	0.2	62	63	414	0.4	413	415	19.9	52.9
2025-09-06T16:38	10	60	1.4	58	63	413	0.6	412	414	19.9	51.9
2025-09-06T16:39	10	61	1.1	59	62	413	0.4	412	413	19.9	52.4
2025-09-06T16:40	10	62	0.3	61	62	413	0.5	412	414	19.9	51.4
2025-09-06T16:41	10	61	0.2	60	61	412	0.3	412	413	19.8	50.9
2025-09-06T16:42	10	60	0.5	58	60	412	0.3	411	413	19.8	51.6
2025-09-06T16:43	10	56	1.8	53	59	411	0.5	410	412	19.8	51.5
2025-09-06T16:44	10	51	0.5	51	53	411	0.3	410	412	19.8	52.1
2025-09-06T16:45	10	53	0.8	52	54	410	0.3	409	410	19.8	52.2
2025-09-06T16:46	10	56	0.7	54	57	410	0.4	409	411	19.8	52.8
2025-09-06T16:47	10	56	0.4	55	57	411	0.2	410	411	19.8	53.3
2025-09-06T16:48	10	55	0.2	54	55	411	0.3	410	411	19.8	54.0
2025-09-06T16:49	10	54	0.2	54	55	411	0.3	410	411	19.8	53.2
2025-09-06T16:50	10	54	0.1	54	54	410	0.2	410	411	19.8	54.2
2025-09-06T16:51	10	54	0.3	53	54	410	0.3	409	411	19.8	53.6
2025-09-06T16:52	10	52	0.5	51	53	410	0.3	409	411	19.8	53.7
2025-09-06T16:53	10	50	0.5	50	51	410	0.3	409	410	19.9	54.3
2025-09-06T16:54	10	49	0.2	49	50	410	0.3	409	410	19.8	53.7
2025-09-06T16:55	10	48	0.9	46	49	409	0.2	409	410	19.8	53.9
2025-09-06T16:56	10	45	0.4	45	46	408	0.4	407	409	19.8	54.0
2025-09-06T16:57	10	46	0.2	45	46	408	0.3	407	408	19.8	54.2
2025-09-06T16:58	10	45	0.4	44	46	407	0.2	407	408	19.8	54.0
2025-09-06T16:59	10	45	0.4	44	45	407	0.3	407	408	19.7	54.4
2025-09-06T17:00	10	45	0.2	44	45	408	0.3	407	408	19.7	55.3
2025-09-06T17:01	10	45	0.1	45	45	408	0.2	407	408	19.7	56.1
2025-09-06T17:02	10	45	0.2	44	45	407	0.3	407	408	19.7	56.2
2025-09-06T17:03	10	44	0.1	44	44	407	0.3	407	408	19.7	56.1
2025-09-06T17:04	10	44	0.1	43	44	407	0.3	407	408	19.7	56.1
2025-09-06T17:05	10	43	0.2	43	43	407	0.4	405	407	19.7	56.2
2025-09-06T17:06	10	42	0.3	42	43	406	0.2	406	406	19.6	56.7
2025-09-06T17:07	10	41	0.4	40	42	406	0.2	405	406	19.6	55.4
2025-09-06T17:08	10	40	0.4	39	40	405	0.3	405	406	19.6	55.2
2025-09-06T17:09	10	37	0.7	36	39	405	0.3	404	405	19.6	54.7
2025-09-06T17:10	10	37	0.3	36	37	404	0.2	404	405	19.6	54.8
2025-09-06T17:11	10	37	0.2	36	37	404	0.2	403	404	19.6	54.9
2025-09-06T17:12	10	36	0.3	35	36	404	0.3	403	404	19.6	53.6
2025-09-06T17:13	10	35	0.4	34	35	403	0.2	403	404	19.6	54.3
2025-09-06T17:14	10	34	0.2	34	34	403	0.2	403	404	19.6	55.6
2025-09-06T17:15	10	34	0.2	34	34	403	0.2	403	404	19.5	56.3
2025-09-06T17:16	10	33	0.3	33	34	403	0.3	402	403	19.5	56.8
2025-09-06T17:17	10	32	0.3	31	33	402	0.3	402	403	19.5	56.3
2025-09-06T17:18	10	31	0.2	31	32	402	0.2	401	402	19.5	57.0
2025-09-06T17:19	10	30	0.5	29	31	402	0.3	401	402	19.4	57.0
2025-09-06T17:20	10	28	0.5	27	29	401	0.3	401	402	19.4	57.1
2025-09-06T17:21	10	27	0.1	27	27	401	0.3	400	401	19.4	56.9
2025-09-06T17:22	10	28	0.2	27	28	400	0.2	400	401	19.4	56.4
2025-09-06T17:23	10	28	0.2	27	28	400	0.2	400	401	19.4	56.3
2025-09-06T17:24	10	27	0.2	27	27	400	0.3	399	401	19.4	56.8
2025-09-06T17:25	10	26	0.3	26	27	399	0.2	399	400	19.3	57.4
2025-09-06T17:26	10	25	0.3	25	26	399	0.2	399	400	19.4	56.8
2025-09-06T17:27	10	24	0.4	23	25	399	0.3	399	399	19.3	57.0
2025-09-06T17:28	10	23	0.3	23	23	399	0.2	398	399	19.3	57.1
2025-09-06T17:29	10	22	0.5	21	23	398	0.3	398	399	19.2	57.6
2025-09-06T17:30	10	20	0.6	19	21	397	0.3	397	398	19.2	58.2
2025-09-06T17:31	10	18	0.3	18	19	397	0.3	397	398	19.2	58.5
2025-09-06T17:32	10	17	0.5	16	18	396	0.2	396	397	19.1	59.3
2025-09-06T17:33	10	15	0.5	14	16	396	0.2	396	397	19.1	59.5
2025-09-06T17:34	10	12	0.9	11	14	396	0.3	396	397	19.0	59.8
2025-09-06T17:35	10	10	0.2	10	11	396	0.3	395	396	19.0	60.1
2025-09-06T17:36	10	11	0.4	10	11	395	0.3	395	396	19.0	60.4
2025-09-06T17:37	10	11	0.2	10	11	395	0.2	395	396	19.1	60.2
2025-09-06T17:38	10	10	0.2	10	11	395	0.3	394	396	19.1	60.4
2025-09-06T17:39	10	9	0.3	9	10	395	0.3	394	396	19.0	61.0
2025-09-06T17:40	10	8	0.5	7	9	395	0.2	394	395	19.1	60.9
2025-09-06T17:41	10	6	0.6	5	7	395	0.4	394	395	19.0	61.3
2025-09-06T17:42	10	4	0.4	4	5	394	0.2	394	394	19.0	61.6
2025-09-06T17:43	10	4	0.1	3	4	394	0.2	393	394	18.9	61.9
2025-09-06T17:44	10	4	0.2	4	4	394	0.2	393	394	18.9	62.0
2025-09-06T17:45	10	4	0.1	4	5	393	0.3	393	394	18.9	62.1
2025-09-06T17:46	10	4	0.1	4	4	393	0.3	393	394	18.8	62.7
2025-09-06T17:47	10	4	0.2	3	4	392	0.2	392	393	18.8	63.0
2025-09-06T17:48	10	3	0.2	2	3	392	0.3	391	392	18.8	62.9
2025-09-06T17:49	10	2	0.1	2	3	392	0.2	391	392	18.8	63.2
2025-09-06T17:50	10	2	0.1	2	2	391	0.2	390	391	18.8	63.3
2025-09-06T17:51	10	2	0.1	2	2	391	0.2	390	391	18.7	63.6
2025-09-06T17:52	10	2	0.1	1	2	390	0.2	390	391	18.7	63.4
2025-09-06T17:53	10	2	0.1	1	2	390	0.3	389	391	18.6	64.1
2025-09-06T17:54	10	2	0.1	1	2	389	0.3	388	390	18.6	64.0
2025-09-06T17:55	10	2	0.1	1	2	388	0.2	388	389	18.6	64.2
2025-09-06T17:56	10	1	0.1	1	2	388	0.2	387	388	18.5	64.4
2025-09-06T17:57	10	1	0.1	1	2	388	0.3	387	388	18.5	64.7
2025-09-06T17:58	10	1	0.1	1	1	388	0.3	387	389	18.5	64.6
2025-09-06T17:59	10	1	0.1	1	1	387	0.3	387	388	18.5	64.9
2025-09-06T18:00	10	1	0.1	1	1	386	0.3	386	387	18.3	65.9
2025-09-06T18:01	10	1	0.1	1	1	386	0.3	385	386	18.1	66.9
2025-09-06T18:02	10	1	0.1	0	1	385	0.3	384	385	18.0	68.1
2025-09-06T18:03	10	1	0.1	1	1	384	0.3	383	385	18.0	68.4
2025-09-06T18:04	10	1	0.1	0	1	383	0.3	382	384	18.0	68.4
2025-09-06T18:05	10	1	0.1	0	1	383	0.3	382	383	17.9	68.8
2025-09-06T18:06	10	0	0.1	0	1	382	0.2	382	383	17.8	69.6
2025-09-06T18:07	10	0	0.0	0	1	382	0.3	382	383	17.7	70.1
2025-09-06T18:08	10	0	0.0	0	1	382	0.2	381	382	17.7	70.3
2025-09-06T18:09	10	0	0.0	0	0	382	0.3	382	383	17.7	70.5
2025-09-06T18:10	10	0	0.0	0	0	383	0.4	382	383	17.7	70.3
2025-09-06T18:11	10	0	0.1	0	0	383	0.1	382	383	17.8	69.8
2025-09-06T18:12	10	0	0.1	0	1	382	0.3	382	383	17.8	69.3
2025-09-06T18:13	10	0	0.1	0	1	382	0.2	382	383	17.8	69.2
2025-09-06T18:14	10	0	0.1	0	1	382	0.2	381	382	17.8	68.9
2025-09-06T18:15	10	0	0.2	0	1	381	0.3	381	382	17.8	68.8
2025-09-06T18:16	10	0	0.0	0	0	381	0.2	381	381	17.7	69.3
2025-09-06T18:17	10	0	0.1	0	1	381	0.3	381	382	17.6	69.9
2025-09-06T18:18	10	0	0.1	0	0	381	0.3	381	382	17.6	69.8
2025-09-06T18:19	10	0	0.2	0	1	381	0.2	381	382	17.5	70.0
2025-09-06T18:20	10	0	0.2	0	1	381	0.3	380	382	17.6	69.8
2025-09-06T18:21	10	0	0.2	0	0	381	0.3	381	382	17.5	70.1
2025-09-06T18:22	10	0	0.1	0	1	381	0.3	381	382	17.5	69.8
2025-09-06T18:23	10	0	0.1	0	1	380	0.4	379	381	17.5	70.1
2025-09-06T18:24	10	0	0.1	0	0	380	0.2	379	380	17.4	71.8
2025-09-06T18:25	10	0	0.1	0	0	379	0.2	379	380	17.2	72.4
2025-09-06T18:26	10	0	0.1	0	0	379	0.2	378	379	17.1	72.8
2025-09-06T18:27	10	0	0.1	0	0	379	0.3	378	379	17.1	73.1
2025-09-06T18:28	10	0	0.1	0	0	379	0.2	379	379	17.1	72.5
2025-09-06T18:29	10	0	0.1	0	0	379	0.2	378	379	17.1	72.5
2025-09-06T18:30	10	0	0.1	0	0	378	0.3	378	379	17.1	72.5
2025-09-06T18:31	10	0	0.1	0	0	379	0.3	378	379	17.1	72.3
2025-09-06T18:32	10	0	0.1	0	0	379	0.2	378	379	17.0	72.6
2025-09-06T18:33	10	0	0.1	0	0	378	0.2	378	379	17.0	72.8
2025-09-06T18:34	10	0	0.1	0	0	378	0.2	378	379	17.0	72.6
2025-09-06T18:35	10	0	0.1	0	0	378	0.3	378	379	17.0	72.2
2025-09-06T18:36	10	0	0.1	0	0	378	0.2	378	379	17.0	71.8
2025-09-06T18:37	10	0	0.1	0	0	378	0.3	378	379	17.0	71.4
2025-09-06T18:38	10	0	0.1	0	0	378	0.2	378	379	17.1	71.1
2025-09-06T18:39	10	0	0.1	0	0	378	0.2	378	379	17.0	71.4
2025-09-06T18:40	10	0	0.1	0	0	378	0.2	377	378	17.0	71.6
2025-09-06T18:41	10	0	0.1	0	0	378	0.2	377	378	17.0	71.7
2025-09-06T18:42	10	0	0.1	0	0	378	0.3	377	378	17.0	71.6
2025-09-06T18:43	10	0	0.1	0	0	378	0.2	377	378	17.0	71.5
2025-09-06T18:44	10	0	0.1	0	0	377	0.3	377	378	16.9	71.7
2025-09-06T18:45	10	0	0.1	0	0	377	0.3	377	378	16.9	71.6
2025-09-06T18:46	10	0	0.1	0	0	377	0.2	376	377	17.0	71.5
2025-09-06T18:47	10	0	0.1	0	0	377	0.2	376	377	16.9	72.2
2025-09-06T18:48	10	0	0.1	0	0	377	0.3	376	377	16.8	72.8
2025-09-06T18:49	10	0	0.1	0	0	377	0.2	376	377	16.7	73.3
2025-09-06T18:50	10	0	0.1	0	0	377	0.2	376	377	16.6	73.7
2025-09-06T18:51	10	0	0.1	0	0	377	0.3	376	377	16.6	73.5
2025-09-06T18:52	10	0	0.1	0	0	377	0.3	376	377	16.8	72.6
2025-09-06T18:53	10	0	0.1	0	0	377	0.2	376	377	16.9	72.0
2025-09-06T18:54	10	0	0.1	0	0	377	0.2	376	377	16.9	71.8
2025-09-06T18:55	10	0	0.1	0	0	376	0.2	376	377	16.9	71.7
2025-09-06T18:56	10	0	0.1	0	0	376	0.2	376	377	16.9	71.6
2025-09-06T18:57	10	0	0.1	0	0	377	0.2	376	377	16.9	71.6
2025-09-06T18:58	10	0	0.1	0	0	376	0.2	375	376	16.8	72.8
2025-09-06T18:59	10	0	0.1	0	0	376	0.3	375	377	16.7	73.1
2025-09-06T19:00	10	0	0.1	0	1	376	0.2	376	377	16.8	72.5
2025-09-06T19:01	10	0	0.1	0	1	376	0.3	375	377	16.9	72.0
2025-09-06T19:02	10	0	0.1	0	1	376	0.3	376	377	16.9	71.8
2025-09-06T19:03	10	0	0.2	0	1	376	0.3	375	377	16.9	72.0
2025-09-06T19:04	10	0	0.2	0	1	376	0.3	375	376	16.8	72.1
2025-09-06T19:05	10	0	0.2	0	1	376	0.3	374	377	16.8	72.4
2025-09-06T19:06	10	0	0.1	0	1	375	0.2	375	376	16.8	72.6
2025-09-06T19:07	10	0	0.1	0	1	375	0.3	374	375	16.7	72.8
2025-09-06T19:08	10	0	0.1	0	0	375	0.2	374	375	16.7	72.8
2025-09-06T19:09	10	0	0.1	0	1	374	0.3	374	375	16.7	72.8
2025-09-06T19:10	10	0	0.1	0	0	374	0.2	374	374	16.7	73.1
2025-09-06T19:11	10	0	0.1	0	0	374	0.2	373	374	16.6	73.3
2025-09-06T19:12	10	0	0.1	0	0	374	0.3	373	374	16.5	73.8
2025-09-06T19:13	10	0	0.1	0	0	374	0.2	373	374	16.5	74.1
2025-09-06T19:14	10	0	0.1	0	0	374	0.2	373	374	16.4	74.5
2025-09-06T19:15	10	0	0.0	0	0	373	0.2	373	374	16.2	75.4
2025-09-06T19:16	10	0	0.1	0	0	373	0.3	373	374	16.0	76.3
2025-09-06T19:17	10	0	0.1	0	0	373	0.2	372	373	15.7	78.9
2025-09-06T19:18	10	0	0.1	0	0	373	0.3	372	373	15.7	79.2
2025-09-06T19:19	10	0	0.1	0	0	372	0.2	372	373	15.7	78.8
2025-09-06T19:20	10	0	0.1	0	0	372	0.2	372	373	15.7	78.7
2025-09-06T19:21	10	0	0.1	0	0	372	0.2	372	373	15.7	78.5
2025-09-06T19:22	10	0	0.1	0	0	372	0.2	372	373	15.9	77.4
2025-09-06T19:23	10	0	0.1	0	0	373	0.3	372	373	15.9	77.6
2025-09-06T19:24	10	0	0.1	0	0	373	0.4	372	373	15.8	78.4
2025-09-06T19:25	10	0	0.1	0	0	373	0.4	373	374	15.6	78.9
2025-09-06T19:26	10	0	0.1	0	0	374	0.2	373	374	15.6	79.1
2025-09-06T19:27	10	0	0.1	0	0	374	0.2	373	374	15.5	79.9
2025-09-06T19:28	10	0	0.1	0	0	373	0.2	373	374	15.4	81.0
2025-09-06T19:29	10	0	0.1	0	0	373	0.2	373	374	15.4	80.6
2025-09-06T19:30	10	0	0.1	0	0	373	0.2	372	373	15.4	80.3
2025-09-06T19:31	10	0	0.1	0	1	372	0.2	372	373	15.5	79.9
2025-09-06T19:32	10	0	0.1	0	1	372	0.2	372	373	15.5	79.8
2025-09-06T19:33	10	0	0.1	0	1	372	0.2	371	372	15.5	79.4
2025-09-06T19:34	10	0	0.1	0	0	372	0.2	371	372	15.6	79.4
2025-09-06T19:35	10	0	0.1	0	0	371	0.2	371	372	15.6	79.2
2025-09-06T19:36	10	0	0.1	0	0	371	0.3	370	372	15.6	78.8
2025-09-06T19:37	10	0	0.1	0	0	371	0.3	371	372	15.6	79.2
2025-09-06T19:38	10	0	0.1	0	0	372	0.4	371	372	15.6	79.2
2025-09-06T19:39	10	0	0.1	0	0	372	0.2	372	373	15.6	79.0
2025-09-06T19:40	10	0	0.1	0	0	372	0.2	372	373	15.6	79.0
2025-09-06T19:41	10	0	0.1	0	0	372	0.3	371	372	15.5	79.5
2025-09-06T19:42	10	0	0.1	0	0	371	0.2	371	372	15.5	79.8
2025-09-06T19:43	10	0	0.1	0	0	371	0.3	371	372	15.5	79.8
2025-09-06T19:44	10	0	0.1	0	0	371	0.2	370	371	15.5	79.6
2025-09-06T19:45	10	0	0.1	0	0	371	0.2	370	371	15.6	79.2
2025-09-06T19:46	10	0	0.1	0	0	370	0.2	370	371	15.4	79.9
2025-09-06T19:47	10	0	0.1	0	0	370	0.2	370	371	15.4	80.4
2025-09-06T19:48	10	0	0.1	0	0	370	0.2	370	371	15.3	80.8
2025-09-06T19:49	10	0	0.1	0	0	370	0.3	369	370	15.2	81.3
2025-09-06T19:50	10	0	0.1	0	0	370	0.2	369	370	15.1	81.9
2025-09-06T19:51	10	0	0.1	0	0	370	0.3	369	370	15.1	82.3
2025-09-06T19:52	10	0	0.1	0	0	369	0.2	369	370	15.0	82.6
2025-09-06T19:53	10	0	0.1	0	0	369	0.2	368	369	14.9	83.2
2025-09-06T19:54	10	0	0.1	0	0	368	0.3	368	369	14.8	83.9
2025-09-06T19:55	10	0	0.1	0	0	369	0.2	368	369	14.7	84.4
2025-09-06T19:56	10	0	0.1	0	0	369	0.3	368	369	14.7	84.7
2025-09-06T19:57	10	0	0.1	0	0	369	0.2	368	369	14.6	85.0
2025-09-06T19:58	10	0	0.1	0	0	368	0.2	368	369	14.6	85.2
2025-09-06T19:59	10	0	0.1	0	0	368	0.2	368	368	14.6	85.5
2025-09-06T20:00	10	0	0.1	0	0	368	0.2	367	368	14.4	86.4
2025-09-06T20:01	10	0	0.1	0	1	368	0.3	367	368	14.3	87.3
2025-09-06T20:02	10	0	0.1	0	1	368	0.2	367	368	14.3	87.2
2025-09-06T20:03	10	0	0.1	0	0	367	0.3	367	368	14.3	87.3
2025-09-06T20:04	10	0	0.2	0	1	368	0.3	367	368	14.2	87.3
2025-09-06T20:05	10	0	0.1	0	1	368	0.3	367	368	14.4	86.0
2025-09-06T20:06	10	0	0.1	0	1	367	0.2	367	368	14.5	85.6
2025-09-06T20:07	10	0	0.1	0	1	367	0.3	367	368	14.4	86.1
2025-09-06T20:08	10	0	0.1	0	1	367	0.3	366	368	14.3	86.7
2025-09-06T20:09	10	0	0.1	0	0	367	0.2	367	368	14.2	87.2
2025-09-06T20:10	10	0	0.1	0	1	367	0.2	367	368	14.1	87.8
2025-09-06T20:11	10	0	0.1	0	0	367	0.2	366	367	14.0	88.2
2025-09-06T20:12	10	0	0.1	0	1	367	0.2	366	367	13.9	88.6
2025-09-06T20:13	10	0	0.1	0	0	367	0.2	366	367	13.8	88.9
2025-09-06T20:14	10	0	0.1	0	0	366	0.2	365	367	13.8	89.3
2025-09-06T20:15	10	0	0.1	0	0	366	0.2	366	367	13.7	89.7
2025-09-06T20:16	10	0	0.1	0	0	367	0.2	366	367	13.6	90.1
2025-09-06T20:17	10	0	0.1	0	0	367	0.3	366	367	13.6	90.3
2025-09-06T20:18	10	0	0.1	0	1	367	0.4	366	368	13.7	90.1
2025-09-06T20:19	10	0	0.1	0	0	367	0.3	367	368	13.8	89.6
2025-09-06T20:20	10	0	0.1	0	1	368	0.3	367	368	13.8	89.3
2025-09-06T20:21	10	0	0.0	0	0	368	0.3	367	369	13.8	86.3
2025-09-06T20:22	10	0	0.1	0	0	368	0.2	367	368	13.8	89.3
2025-09-06T20:23	10	0	0.1	0	0	368	0.3	367	369	13.8	89.3
2025-09-06T20:24	10	0	0.0	0	0	368	0.2	368	369	13.8	89.3
2025-09-06T20:25	10	0	0.0	0	0	369	0.3	368	369	13.8	86.3
2025-09-06T20:26	10	0	0.0	0	0	369	0.2	368	369	13.8	89.3
2025-09-06T20:27	10	0	0.1	0	0	369	0.3	368	370	13.8	89.3
2025-09-06T20:28	10	0	0.0	0	0	369	0.3	369	370	13.8	89.3
2025-09-06T20:29	10	0	0.0	0	0	369	0.2	369	370	14.1	87.5
2025-09-06T20:30	10	0	0.1	0	0	369	0.3	369	370	14.5	85.4
2025-09-06T20:31	10	0	0.1	0	0	369	0.2	369	370	14.5	85.5
2025-09-06T20:32	10	0	0.1	0	0	369	0.4	368	370	14.6	85.6
2025-09-06T20:33	10	0	0.1	0	0	369	0.4	368	369	14.5	85.9
2025-09-06T20:34	10	0	0.1	0	0	368	0.3	367	369	14.4	86.6
2025-09-06T20:35	10	0	0.1	0	0	367	0.4	367	368	14.3	86.9
2025-09-06T20:36	10	0	0.0	0	0	367	0.4	366	368	14.2	87.4
2025-09-06T20:37	10	0	0.1	0	0	366	0.2	366	367	14.1	88.0
2025-09-06T20:38	10	0	0.1	0	0	366	0.3	365	367	14.1	88.1
2025-09-06T20:39	10	0	0.1	0	0	366	0.2	365	367	14.1	88.2
2025-09-06T20:40	10	0	0.1	0	0	366	0.2	365	366	14.1	88.2
2025-09-06T20:41	10	0	0.1	0	0	366	0.3	365	366	14.2	87.9
2025-09-06T20:42	10	0	0.1	0	0	366	0.2	365	366	14.3	87.5
2025-09-06T20:43	10	0	0.1	0	0	366	0.2	365	366	14.2	87.5
2025-09-06T20:44	10	0	0.1	0	0	365	0.3	364	366	14.1	87.8
2025-09-06T20:45	10	0	0.1	0	0	365	0.3	364	365	14.0	88.3
2025-09-06T20:46	10	0	0.1	0	0	365	0.3	364	365	13.9	88.9
2025-09-06T20:47	10	0	0.1	0	0	365	0.3	364	365	13.8	89.4
2025-09-06T20:48	10	0	0.1	0	0	365	0.2	364	365	13.7	90.1
2025-09-06T20:49	10	0	0.1	0	0	365	0.4	365	366	13.8	89.9
2025-09-06T20:50	10	0	0.1	0	0	367	0.4	366	368	13.8	90.0
2025-09-06T20:51	10	0	0.1	0	1	368	0.4	367	369	13.8	89.9
2025-09-06T20:52	10	0	0.1	0	0	369	0.4	368	370	13.7	90.0
2025-09-06T20:53	10	0	0.1	0	0	370	0.3	369	370	13.6	90.3
2025-09-06T20:54	10	0	0.1	0	0	370	0.3	369	370	13.6	90.3
2025-09-06T20:55	10	0	0.1	0	0	370	0.3	369	371	13.6	90.2
2025-09-06T20:56	10	0	0.1	0	0	370	0.2	370	370	13.6	90.2
2025-09-06T20:57	10	0	0.1	0	0	369	0.5	368	370	13.4	90.6
2025-09-06T20:58	10	0	0.1	0	0	369	0.6	368	370	13.4	90.4
2025-09-06T20:59	10	0	0.1	0	0	369	0.3	369	370	13.9	89.4
2025-09-06T21:00	10	0	0.1	0	0	369	0.2	369	370	13.9	89.3
2025-09-06T21:01	10	0	0.1	0	0	369	0.3	368	369	13.7	89.7
2025-09-06T21:02	10	0	0.0	0	0	369	0.4	368	370	13.7	89.8
2025-09-06T21:03	10	0	0.0	0	0	370	0.2	369	370	13.9	89.1
2025-09-06T21:04	10	0	0.1	0	0	369	0.5	368	370	13.6	90.2
2025-09-06T21:05	10	0	0.1	0	0	367	0.4	367	368	13.4	91.3
2025-09-06T21:06	10	0	0.1	0	0	367	0.3	366	367	13.3	91.9
2025-09-06T21:07	10	0	0.1	0	0	366	0.3	366	367	13.3	91.7
2025-09-06T21:08	10	0	0.1	0	0	366	0.3	365	367	13.3	91.7
2025-09-06T21:09	10	0	0.1	0	0	366	0.3	365	366	13.3	91.6
2025-09-06T21:10	10	0	0.1	0	0	366	0.6	365	367	13.3	91.4
2025-09-06T21:11	10	0	0.1	0	0	367	0.2	366	367	13.5	90.9
2025-09-06T21:12	10	0	0.1	0	0	367	0.5	367	369	13.6	90.4
2025-09-06T21:13	10	0	0.1	0	0	369	0.4	368	370	14.0	88.7
2025-09-06T21:14	10	0	0.0	0	0	369	0.2	369	370	14.1	88.0
2025-09-06T21:15	10	0	0.0	0	0	370	0.4	369	370	14.0	88.0
2025-09-06T21:16	10	0	0.1	0	0	370	0.3	370	371	14.1	87.8
2025-09-06T21:17	10	0	0.1	0	0	370	0.2	370	371	14.0	88.2
2025-09-06T21:18	10	0	0.1	0	0	371	0.3	370	372	14.0	88.3
2025-09-06T21:19	10	0	0.1	0	0	371	0.3	370	371	14.0	88.3
2025-09-06T21:20	10	0	0.0	0	0	371	0.2	371	372	13.9	88.5
2025-09-06T21:21	10	0	0.1	0	0	372	0.2	371	372	13.9	88.4
2025-09-06T21:22	10	0	0.1	0	0	372	0.2	371	373	14.1	88.1
2025-09-06T21:23	10	0	0.1	0	0	372	0.2	371	373	14.0	88.1
2025-09-06T21:24	10	0	0.0	0	0	372	0.2	371	372	13.9	88.5
2025-09-06T21:25	10	0	0.1	0	0	372	0.2	371	372	13.9	88.9
2025-09-06T21:26	10	0	0.1	0	0	372	0.3	371	373	13.9	88.9
2025-09-06T21:27	10	0	0.1	0	0	372	0.2	371	372	13.8	89.2
2025-09-06T21:28	10	0	0.1	0	1	372	0.3	371	372	13.7	89.5
2025-09-06T21:29	10	0	0.0	0	0	372	0.2	371	372	13.7	89.7
2025-09-06T21:30	10	0	0.1	0	0	371	0.2	371	372	13.7	89.8
2025-09-06T21:31	10	0	0.1	0	0	371	0.2	370	372	13.6	90.0
2025-09-06T21:32	10	0	0.1	0	0	371	0.2	371	371	13.6	90.2
2025-09-06T21:33	10	0	0.1	0	0	371	0.3	370	371	13.6	90.3
2025-09-06T21:34	10	0	0.1	0	0	371	0.2	370	371	13.6	90.5
2025-09-06T21:35	10	0	0.1	0	0	371	0.2	371	372	13.5	90.8
2025-09-06T21:36	10	0	0.1	0	0	371	0.2	371	372	13.4	91.1
2025-09-06T21:37	10	0	0.0	0	0	371	0.2	371	372	13.3	91.5
2025-09-06T21:38	10	0	0.1	0	0	371	0.3	370	372	13.3	91.8
2025-09-06T21:39	10	0	0.1	0	0	372	0.2	371	372	13.3	91.9
2025-09-06T21:40	10	0	0.1	0	0	371	0.2	371	372	13.3	92.1
2025-09-06T21:41	10	0	0.1	0	0	371	0.2	371	372	13.3	92.0
2025-09-06T21:42	10	0	0.1	0	0	371	0.2	371	372	13.3	91.9
2025-09-06T21:43	10	0	0.1	0	0	372	0.3	371	372	13.3	91.8
2025-09-06T21:44	10	0	0.1	0	1	371	0.2	371	372	13.3	91.9
2025-09-06T21:45	10	0	0.1	0	0	371	0.3	370	371	13.2	92.2
2025-09-06T21:46	10	0	0.1	0	1	371	0.2	370	371	13.1	92.4
2025-09-06T21:47	10	0	0.1	0	1	371	0.3	370	372	13.1	92.6
2025-09-06T21:48	10	0	0.1	0	0	371	0.3	370	371	13.1	92.7
2025-09-06T21:49	10	0	0.1	0	1	371	0.2	370	371	13.1	92.8
2025-09-06T21:50	10	0	0.2	0	1	371	0.3	370	372	13.1	92.5
2025-09-06T21:51	10	0	0.2	0	1	371	0.3	370	372	13.1	92.3
2025-09-06T21:52	10	0	0.1	0	0	372	0.2	371	372	13.2	92.1
2025-09-06T21:53	10	0	0.1	0	1	371	0.2	371	372	13.2	92.1
2025-09-06T21:54	10	0	0.1	0	1	372	0.2	371	372	13.2	91.9
2025-09-06T21:55	10	0	0.1	0	0	372	0.3	371	372	13.2	91.9
2025-09-06T21:56	10	0	0.1	0	1	372	0.2	371	372	13.3	91.7
2025-09-06T21:57	10	0	0.2	0	1	371	0.3	371	372	13.3	91.6
2025-09-06T21:58	10	0	0.1	0	0	371	0.3	371	372	13.3	91.4
2025-09-06T21:59	10	0	0.1	0	1	371	0.2	371	372	13.3	91.6
2025-09-06T22:00	10	0	0.2	0	1	371	0.3	370	371	13.2	91.7
2025-09-06T22:01	10	0	0.1	0	0	371	0.2	371	372	13.3	91.6
2025-09-06T22:02	10	0	0.1	0	0	371	0.2	371	372	13.3	91.4
2025-09-06T22:03	10	0	0.1	0	0	371	0.2	371	372	13.4	91.2
2025-09-06T22:04	10	0	0.1	0	0	371	0.2	371	372	13.3	91.3
2025-09-06T22:05	10	0	0.1	0	0	371	0.2	371	372	13.3	91.2
2025-09-06T22:06	10	0	0.1	0	0	371	0.1	371	371	13.3	91.3
2025-09-06T22:07	10	0	0.1	0	0	371	0.2	370	371	13.3	91.2
2025-09-06T22:08	10	0	0.0	0	0	371	0.2	370	371	13.4	91.1
2025-09-06T22:09	10	0	0.0	0	0	370	0.2	370	371	13.3	91.2
2025-09-06T22:10	10	0	0.1	0	0	370	0.2	369	370	13.4	90.9
2025-09-06T22:11	10	0	0.0	0	0	369	0.4	368	370	13.4	90.9
2025-09-06T22:12	10	0	0.1	0	0	369	0.2	368	369	13.4	91.0
2025-09-06T22:13	10	0	0.1	0	0	369	0.2	368	369	13.4	90.6
2025-09-06T22:14	10	0	0.1	0	0	369	0.3	368	369	13.5	90.3
2025-09-06T22:15	10	0	0.1	0	0	368	0.2	368	369	13.6	90.0
2025-09-06T22:16	10	0	0.1	0	0	368	0.3	368	369	13.6	89.7
2025-09-06T22:17	10	0	0.0	0	0	369	0.2	368	369	13.7	89.0
2025-09-06T22:18	10	0	0.0	0	0	369	0.2	368	369	13.8	88.5
2025-09-06T22:19	10	0	0.0	0	0	369	0.3	368	369	13.8	88.4
2025-09-06T22:20	10	0	0.1	0	0	368	0.2	368	369	13.7	88.7
2025-09-06T22:21	10	0	0.0	0	0	368	0.2	368	369	13.7	89.1
2025-09-06T22:22	10	0	0.0	0	0	368	0.2	368	369	13.6	89.3
2025-09-06T22:23	10	0	0.0	0	0	369	0.2	368	369	13.5	89.8
2025-09-06T22:24	10	0	0.1	0	0	369	0.2	369	369	13.4	90.5
2025-09-06T22:25	10	0	0.0	0	0	369	0.3	368	369	13.2	91.0
2025-09-06T22:26	10	0	0.1	0	0	368	0.2	368	369	13.0	91.9
2025-09-06T22:27	10	0	0.1	0	0	368	0.3	368	369	13.0	92.2
2025-09-06T22:28	10	0	0.0	0	0	368	0.3	367	369	13.0	92.1
2025-09-06T22:29	10	0	0.1	0	0	367	0.2	367	368	13.1	92.1
2025-09-06T22:30	10	0	0.1	0	0	366	0.5	365	367	13.0	92.5
2025-09-06T22:31	10	0	0.1	0	0	366	0.3	365	366	12.8	92.8
2025-09-06T22:32	10	0	0.1	0	0	364	0.3	364	365	12.8	93.2
2025-09-06T22:33	10	0	0.1	0	0	364	0.3	363	364	12.7	93.6
2025-09-06T22:34	10	0	0.1	0	0	363	0.3	363	364	12.6	94.0
2025-09-06T22:35	10	0	0.1	0	0	363	0.2	362	364	12.6	94.2
2025-09-06T22:36	10	0	0.1	0	0	363	0.2	363	363	12.5	94.7
2025-09-06T22:37	10	0	0.1	0	0	363	0.3	363	364	12.3	95.2
2025-09-06T22:38	10	0	0.1	0	0	363	0.2	363	364	12.2	95.7
2025-09-06T22:39	10	0	0.1	0	0	363	0.3	363	364	12.2	95.9
2025-09-06T22:40	10	0	0.1	0	0	363	0.2	362	364	12.2	95.9
2025-09-06T22:41	10	0	0.1	0	0	363	0.2	362	363	12.2	95.8
2025-09-06T22:42	10	0	0.1	0	0	363	0.2	362	363	12.2	95.7
2025-09-06T22:43	10	0	0.1	0	0	362	0.3	362	363	12.3	95.3
2025-09-06T22:44	10	0	0.1	0	0	361	0.5	361	362	12.3	95.4
2025-09-06T22:45	10	0	0.1	0	0	361	0.3	360	362	12.0	95.4
2025-09-06T22:46	10	0	0.1	0	0	361	0.3	360	361	11.9	95.6
2025-09-06T22:47	10	0	0.1	0	0	361	0.3	361	362	11.9	95.8
2025-09-06T22:48	10	0	0.1	0	0	361	0.3	361	362	11.9	95.9
2025-09-06T22:49	10	0	0.1	0	0	361	0.2	361	362	11.9	96.1
2025-09-06T22:50	10	0	0.1	0	0	361	0.2	360	362	11.8	96.2
2025-09-06T22:51	10	0	0.1	0	0	361	0.2	360	361	11.8	96.2
2025-09-06T22:52	10	0	0.1	0	0	361	0.2	360	361	11.8	96.5
2025-09-06T22:53	10	0	0.1	0	0	360	0.3	359	361	11.8	96.6
2025-09-06T22:54	10	0	0.1	0	0	360	0.3	359	361	11.8	96.5
2025-09-06T22:55	10	0	0.1	0	0	360	0.2	360	361	12.0	96.1
2025-09-06T22:56	10	0	0.1	0	0	361	0.3	360	362	12.0	96.1
2025-09-06T22:57	10	0	0.1	0	0	361	0.3	360	361	12.2	95.8
2025-09-06T22:58	10	0	0.1	0	0	361	0.3	360	361	12.2	95.7
2025-09-06T22:59	10	0	0.1	0	0	361	0.3	360	361	12.1	95.7
2025-09-06T23:00	10	0	0.1	0	0	361	0.4	361	362	12.1	95.7
2025-09-06T23:01	10	0	0.1	0	0	363	0.7	362	364	12.1	95.9
2025-09-06T23:02	10	0	0.1	0	0	364	0.4	364	365	12.2	95.9
2025-09-06T23:03	10	0	0.1	0	0	366	0.3	365	366	12.2	95.6
2025-09-06T23:04	10	0	0.1	0	0	366	0.2	366	367	12.2	95.5
2025-09-06T23:05	10	0	0.1	0	0	366	0.2	366	367	12.3	95.4
2025-09-06T23:06	10	0	0.1	0	0	366	0.2	366	367	12.4	95.2
2025-09-06T23:07	10	0	0.1	0	0	366	0.2	366	367	12.4	95.0
2025-09-06T23:08	10	0	0.1	0	0	366	0.3	365	366	12.4	95.0
2025-09-06T23:09	10	0	0.1	0	0	366	0.2	366	367	12.4	94.9
2025-09-06T23:10	10	0	0.1	0	0	367	0.3	366	368	12.4	94.8
2025-09-06T23:11	10	0	0.1	0	0	367	0.3	366	368	12.5	94.2
2025-09-06T23:12	10	0	0.1	0	0	367	0.3	366	368	12.5	93.9
2025-09-06T23:13	10	0	0.1	0	0	367	0.3	366	368	12.5	93.8
2025-09-06T23:14	10	0	0.1	0	0	367	0.2	366	367	12.6	93.6
2025-09-06T23:15	10	0	0.1	0	0	367	0.3	367	368	12.6	93.1
2025-09-06T23:16	10	0	0.1	0	0	367	0.2	366	367	12.7	92.8
2025-09-06T23:17	10	0	0.1	0	0	367	0.3	366	368	12.7	92.8
2025-09-06T23:18	10	0	0.1	0	0	368	0.3	367	369	12.6	93.2
2025-09-06T23:19	10	0	0.1	0	0	368	0.3	367	368	12.6	93.3
2025-09-06T23:20	10	0	0.1	0	0	367	0.3	367	368	12.5	93.3
2025-09-06T23:21	10	0	0.1	0	0	367	0.3	366	368	12.5	93.3
2025-09-06T23:22	10	0	0.1	0	0	366	0.6	365	367	12.4	93.8
2025-09-06T23:23	10	0	0.1	0	0	366	0.2	365	366	12.3	94.2
2025-09-06T23:24	10	0	0.1	0	0	365	0.2	365	366	12.5	93.8
2025-09-06T23:25	10	0	0.1	0	0	364	0.5	363	366	12.5	93.4
2025-09-06T23:26	10	0	0.1	0	0	363	0.3	362	364	12.5	93.4
2025-09-06T23:27	10	0	0.1	0	0	363	0.3	363	364	12.5	93.4
2025-09-06T23:28	10	0	0.1	0	0	363	0.3	362	364	12.5	93.3
2025-09-06T23:29	10	0	0.1	0	0	362	0.2	362	363	12.4	93.5
2025-09-06T23:30	10	0	0.1	0	0	362	0.5	361	363	12.4	93.7
2025-09-06T23:31	10	0	0.1	0	0	362	0.3	361	362	12.3	94.1
2025-09-06T23:32	10	0	0.1	0	0	361	0.3	361	362	12.2	94.6
2025-09-06T23:33	10	0	0.1	0	0	361	0.3	360	361	12.0	95.0
2025-09-06T23:34	10	0	0.1	0	0	360	0.3	360	361	11.9	95.2
2025-09-06T23:35	10	0	0.1	0	0	360	0.2	360	360	11.8	95.6
2025-09-06T23:36	10	0	0.1	0	0	359	0.2	359	360	11.8	95.8
2025-09-06T23:37	10	0	0.1	0	0	359	0.2	359	360	11.8	95.9
2025-09-06T23:38	10	0	0.1	0	0	359	0.3	359	360	11.8	96.0
2025-09-06T23:39	10	0	0.1	0	0	359	0.2	359	360	11.7	96.2
2025-09-06T23:40	10	0	0.1	0	0	360	0.2	359	360	11.7	96.2
2025-09-06T23:41	10	0	0.1	0	0	360	0.3	359	360	11.8	96.2
2025-09-06T23:42	10	0	0.1	0	0	360	0.4	359	360	11.8	96.4
2025-09-06T23:43	10	0	0.1	0	0	360	0.3	359	360	11.7	96.5
2025-09-06T23:44	10	0	0.1	0	0	360	0.3	359	360	11.7	96.6
2025-09-06T23:45	10	0	0.1	0	0	360	0.3	359	360	11.7	96.6
2025-09-06T23:46	10	0	0.1	0	0	359	0.2	359	360	11.6	96.7
2025-09-06T23:47	10	0	0.1	0	0	360	0.3	359	361	11.6	96.9
2025-09-06T23:48	10	0	0.1	0	0	361	0.4	360	361	11.8	96.7
2025-09-06T23:49	10	0	0.1	0	0	361	0.2	360	361	11.9	96.8
2025-09-06T23:50	10	0	0.1	0	0	362	0.4	361	362	11.9	96.6
2025-09-06T23:51	10	0	0.1	0	0	363	0.3	362	364	12.0	96.2
2025-09-06T23:52	10	0	0.1	0	0	364	0.4	363	365	12.0	95.8
2025-09-06T23:53	10	0	0.1	0	0	365	0.3	364	365	12.1	95.4
2025-09-06T23:54	10	0	0.1	0	0	365	0.2	364	365	12.1	95.4
2025-09-06T23:55	10	0	0.1	0	0	365	0.2	365	366	12.2	95.1
2025-09-06T23:56	10	0	0.0	0	0	365	0.2	365	366	12.2	94.9
2025-09-06T23:57	10	0	0.0	0	0	365	0.2	365	366	12.2	94.7
2025-09-06T23:58	10	0	0.0	0	0	366	0.2	365	366	12.3	94.6
2025-09-06T23:59	10	0	0.0	0	0	366	0.2	365	366	12.3	94.5
2025-09-07T00:00	10	0	0.0	0	0	365	0.3	364	366	12.3	94.5
2025-09-07T00:01	10	0	0.0	0	0	365	0.2	364	365	12.2	94.7
2025-09-07T00:02	10	0	0.0	0	0	365	0.2	364	365	12.2	94.7
2025-09-07T00:03	10	0	0.0	0	0	365	0.3	364	365	12.3	94.6
2025-09-07T00:04	10	0	0.0	0	0	364	0.3	364	365	12.2	94.7
2025-09-07T00:05	10	0	0.0	0	0	364	0.2	363	364	12.2	94.5
2025-09-07T00:06	10	0	0.1	0	0	363	0.3	363	364	12.3	94.4
2025-09-07T00:07	10	0	0.1	0	0	362	0.4	361	363	12.2	94.4
2025-09-07T00:08	10	0	0.1	0	0	362	0.2	361	362	12.2	94.3
2025-09-07T00:09	10	0	0.1	0	0	361	0.3	360	362	12.3	94.4
2025-09-07T00:10	10	0	0.1	0	0	361	0.2	360	361	12.2	94.5
2025-09-07T00:11	10	0	0.1	0	0	360	0.3	360	361	12.1	94.8
2025-09-07T00:12	10	0	0.1	0	0	360	0.2	359	360	12.1	95.0
2025-09-07T00:13	10	0	0.1	0	0	359	0.2	359	360	11.9	95.3
2025-09-07T00:14	10	0	0.1	0	0	359	0.3	358	360	11.9	95.4
2025-09-07T00:15	10	0	0.1	0	0	359	0.2	358	359	11.8	95.8
2025-09-07T00:16	10	0	0.1	0	0	359	0.2	358	359	11.8	95.9
2025-09-07T00:17	10	0	0.1	0	0	358	0.3	358	359	11.8	96.2
2025-09-07T00:18	10	0	0.1	0	0	358	0.3	357	358	11.7	96.2
2025-09-07T00:19	10	0	0.1	0	0	357	0.2	357	358	11.6	96.3
2025-09-07T00:20	10	0	0.1	0	0	357	0.2	357	358	11.6	96.4
2025-09-07T00:21	10	0	0.0	0	0	357	0.3	357	358	11.6	96.6
2025-09-07T00:22	10	0	0.1	0	0	357	0.3	357	358	11.6	96.7
2025-09-07T00:23	10	0	0.1	0	0	357	0.2	356	358	11.6	96.6
2025-09-07T00:24	10	0	0.1	0	0	357	0.2	356	357	11.5	96.7
2025-09-07T00:25	10	0	0.1	0	0	357	0.2	357	357	11.6	96.6
2025-09-07T00:26	10	0	0.1	0	0	357	0.2	357	357	11.6	96.5
2025-09-07T00:27	10	0	0.1	0	0	357	0.2	357	358	11.7	96.6
2025-09-07T00:28	10	0	0.1	0	0	357	0.2	357	358	11.7	96.6
2025-09-07T00:29	10	0	0.1	0	0	358	0.3	357	358	11.7	96.6
2025-09-07T00:30	10	0	0.1	0	0	358	0.2	358	359	11.8	96.5
2025-09-07T00:31	10	0	0.1	0	0	359	0.4	358	360	11.8	96.1
2025-09-07T00:32	10	0	0.1	0	0	360	0.2	359	360	11.9	95.9
2025-09-07T00:33	10	0	0.1	0	0	360	0.3	359	360	11.9	95.7
2025-09-07T00:34	10	0	0.1	0	0	359	0.2	359	360	11.9	95.8
2025-09-07T00:35	10	0	0.1	0	0	359	0.3	358	360	11.9	95.7
2025-09-07T00:36	10	0	0.1	0	0	359	0.2	358	359	11.8	95.6
2025-09-07T00:37	10	0	0.1	0	0	359	0.2	358	359	11.8	95.6
2025-09-07T00:38	10	0	0.1	0	0	358	0.2	358	359	11.9	95.8
2025-09-07T00:39	10	0	0.1	0	0	358	0.2	358	359	11.9	95.7
2025-09-07T00:40	10	0	0.1	0	0	358	0.2	358	359	11.8	95.8
2025-09-07T00:41	10	0	0.1	0	0	358	0.2	357	358	11.8	95.8
2025-09-07T00:42	10	0	0.1	0	0	357	0.3	357	358	11.7	95.8
2025-09-07T00:43	10	0	0.1	0	0	357	0.2	357	357	11.7	96.0
2025-09-07T00:44	10	0	0.1	0	0	357	0.2	356	357	11.6	96.1
2025-09-07T00:45	10	0	0.1	0	0	356	0.2	356	357	11.6	96.0
2025-09-07T00:46	10	0	0.1	0	0	356	0.3	355	356	11.6	96.1
2025-09-07T00:47	10	0	0.2	0	1	356	0.2	355	356	11.6	96.1
2025-09-07T00:48	10	0	0.2	0	1	356	0.3	355	356	11.6	96.2
2025-09-07T00:49	10	0	0.2	0	1	355	0.3	355	356	11.5	96.5
2025-09-07T00:50	10	0	0.1	0	0	355	0.2	355	356	11.4	96.7
2025-09-07T00:51	10	0	0.1	0	0	355	0.2	354	356	11.4	96.6
2025-09-07T00:52	10	0	0.2	0	1	355	0.2	354	355	11.3	96.7
2025-09-07T00:53	10	0	0.2	0	0	355	0.3	354	356	11.3	96.6
2025-09-07T00:54	10	0	0.1	0	0	355	0.3	354	355	11.3	96.7
2025-09-07T00:55	10	0	0.1	0	0	355	0.4	354	356	11.2	96.9
2025-09-07T00:56	10	0	0.2	0	0	355	0.4	355	356	11.2	96.9
2025-09-07T00:57	10	0	0.2	0	0	356	0.3	355	356	11.2	97.1
2025-09-07T00:58	10	0	0.1	0	0	356	0.4	355	357	11.3	97.3
2025-09-07T00:59	10	0	0.2	0	0	357	0.4	356	358	11.3	97.2
2025-09-07T01:00	10	0	0.1	0	0	357	0.3	356	358	11.3	97.4
2025-09-07T01:01	10	0	0.1	0	0	357	0.4	356	358	11.2	97.6
2025-09-07T01:02	10	0	0.1	0	0	357	0.3	357	358	11.3	97.5
2025-09-07T01:03	10	0	0.2	-1	0	358	0.3	357	359	11.3	97.5
2025-09-07T01:04	10	0	0.2	0	0	358	0.3	357	359	11.3	97.7
2025-09-07T01:05	10	0	0.1	0	0	358	0.3	357	359	11.3	97.4
2025-09-07T01:06	10	0	0.1	0	0	359	0.4	358	360	11.3	97.2
2025-09-07T01:07	10	0	0.1	0	0	359	0.2	358	359	11.4	97.4
2025-09-07T01:08	10	0	0.1	0	0	359	0.3	358	360	11.4	97.4
2025-09-07T01:09	10	0	0.2	0	0	358	0.3	358	359	11.4	97.3
2025-09-07T01:10	10	0	0.1	0	0	358	0.2	357	358	11.3	97.3
2025-09-07T01:11	10	0	0.1	0	0	357	0.3	357	358	11.3	97.2
2025-09-07T01:12	10	0	0.1	0	0	357	0.2	356	357	11.2	97.3
2025-09-07T01:13	10	0	0.2	-1	0	357	0.2	356	357	11.2	97.1
2025-09-07T01:14	10	0	0.1	0	0	357	0.3	357	358	11.3	97.0
2025-09-07T01:15	10	0	0.1	0	0	358	0.3	357	358	11.4	97.5
2025-09-07T01:16	10	0	0.1	0	0	357	0.2	357	358	11.4	97.9
2025-09-07T01:17	10	0	0.1	0	0	357	0.3	356	358	11.4	97.8
2025-09-07T01:18	10	0	0.1	0	0	357	0.2	356	357	11.4	97.7
2025-09-07T01:19	10	0	0.1	0	0	356	0.3	355	357	11.4	97.7
2025-09-07T01:20	10	0	0.1	0	0	355	0.3	354	356	11.4	97.5
2025-09-07T01:21	10	0	0.1	0	0	355	0.3	354	355	11.4	97.4
2025-09-07T01:22	10	0	0.1	0	0	354	0.2	354	355	11.2	97.3
2025-09-07T01:23	10	0	0.1	0	0	354	0.3	353	355	11.1	97.2
2025-09-07T01:24	10	0	0.1	0	0	354	0.2	353	354	11.1	97.3
2025-09-07T01:25	10	0	0.1	0	0	353	0.2	353	354	11.1	97.2
2025-09-07T01:26	10	0	0.1	0	0	353	0.2	353	354	11.2	97.2
2025-09-07T01:27	10	0	0.1	0	0	353	0.3	353	354	11.2	97.2
2025-09-07T01:28	10	0	0.1	0	0	353	0.2	353	354	11.2	97.1
2025-09-07T01:29	10	0	0.1	0	0	353	0.2	353	354	11.1	97.0
2025-09-07T01:30	10	0	0.1	0	0	354	0.2	353	354	11.1	96.9
2025-09-07T01:31	10	0	0.1	0	0	354	0.3	353	354	11.2	96.8
2025-09-07T01:32	10	0	0.1	0	0	354	0.2	354	355	11.2	96.8
2025-09-07T01:33	10	0	0.1	0	0	354	0.3	354	355	11.2	96.8
2025-09-07T01:34	10	0	0.0	0	0	355	0.3	355	356	11.3	96.5
2025-09-07T01:35	10	0	0.1	0	0	356	0.2	355	356	11.3	96.3
2025-09-07T01:36	10	0	0.1	0	0	356	0.2	355	356	11.2	96.3
2025-09-07T01:37	10	0	0.1	0	0	356	0.2	355	356	11.2	96.4
2025-09-07T01:38	10	0	0.1	0	0	355	0.2	354	355	11.1	96.6
2025-09-07T01:39	10	0	0.1	0	0	354	0.2	354	355	11.1	96.9
2025-09-07T01:40	10	0	0.1	0	0	354	0.2	354	355	11.0	97.0
2025-09-07T01:41	10	0	0.1	0	0	354	0.3	354	355	10.9	97.0
2025-09-07T01:42	10	0	0.1	0	0	354	0.3	353	354	10.9	96.9
2025-09-07T01:43	10	0	0.1	0	0	353	0.2	353	354	10.8	97.0
2025-09-07T01:44	10	0	0.1	0	0	353	0.2	353	354	10.8	97.2
2025-09-07T01:45	10	0	0.1	0	0	353	0.2	353	354	10.8	97.4
2025-09-07T01:46	10	0	0.1	0	0	353	0.2	353	354	10.9	97.4
2025-09-07T01:47	10	0	0.1	0	0	353	0.3	353	354	10.9	97.4
2025-09-07T01:48	10	0	0.1	0	0	353	0.2	353	354	10.9	97.2
2025-09-07T01:49	10	0	0.1	0	0	353	0.2	353	354	10.8	97.2
2025-09-07T01:50	10	0	0.1	0	0	353	0.2	353	354	10.8	97.2
2025-09-07T01:51	10	0	0.1	0	0	353	0.3	352	354	10.7	97.3
2025-09-07T01:52	10	0	0.1	0	0	353	0.2	352	353	10.7	97.4
2025-09-07T01:53	10	0	0.1	0	0	353	0.2	352	353	10.7	97.6
2025-09-07T01:54	10	0	0.1	0	0	352	0.2	352	353	10.7	97.9
2025-09-07T01:55	10	0	0.1	0	0	352	0.2	351	352	10.7	97.8
2025-09-07T01:56	10	0	0.1	0	0	352	0.3	351	352	10.7	97.8
2025-09-07T01:57	10	0	0.1	0	0	352	0.3	351	352	10.8	97.8
2025-09-07T01:58	10	0	0.1	0	0	351	0.3	351	352	10.8	98.1
2025-09-07T01:59	10	0	0.1	0	0	351	0.2	351	352	10.8	98.4
2025-09-07T02:00	10	0	0.1	0	0	351	0.2	351	352	10.7	98.5
2025-09-07T02:01	10	0	0.1	0	0	351	0.2	351	352	10.7	98.1
2025-09-07T02:02	10	0	0.1	0	0	351	0.2	351	352	10.8	98.3
2025-09-07T02:03	10	0	0.1	0	0	352	0.2	351	352	10.8	98.1
2025-09-07T02:04	10	0	0.1	0	0	352	0.2	351	352	10.9	98.2
2025-09-07T02:05	10	0	0.1	0	0	351	0.2	351	352	10.9	98.1
2025-09-07T02:06	10	0	0.1	0	0	351	0.3	351	352	11.0	97.8
2025-09-07T02:07	10	0	0.1	0	0	351	0.2	351	352	11.0	97.9
2025-09-07T02:08	10	0	0.1	0	0	351	0.2	351	352	11.0	98.1
2025-09-07T02:09	10	0	0.0	0	0	351	0.3	350	351	11.0	98.0
2025-09-07T02:10	10	0	0.0	0	0	351	0.3	350	351	10.9	97.7
2025-09-07T02:11	10	0	0.1	0	0	351	0.4	350	352	10.8	97.7
2025-09-07T02:12	10	0	0.1	0	0	352	0.4	351	352	10.9	97.7
2025-09-07T02:13	10	0	0.1	0	0	352	0.3	351	352	10.9	98.2
2025-09-07T02:14	10	0	0.0	0	0	352	0.2	351	352	10.9	98.4
2025-09-07T02:15	10	0	0.1	0	0	351	0.2	351	352	10.8	98.4
2025-09-07T02:16	10	0	0.1	0	0	351	0.2	351	352	10.9	98.1
2025-09-07T02:17	10	0	0.1	0	0	351	0.3	351	352	11.0	98.0
2025-09-07T02:18	10	0	0.1	0	0	351	0.3	351	352	11.0	98.2
2025-09-07T02:19	10	0	0.1	0	0	351	0.2	351	352	11.0	98.4
2025-09-07T02:20	10	0	0.1	0	0	351	0.3	351	352	11.1	98.2
2025-09-07T02:21	10	0	0.1	0	0	351	0.3	350	352	11.1	98.2
2025-09-07T02:22	10	0	0.1	0	0	351	0.2	350	351	11.0	98.3
2025-09-07T02:23	10	0	0.1	0	0	351	0.2	350	351	10.9	98.3
2025-09-07T02:24	10	0	0.1	0	0	350	0.3	350	351	10.9	98.4
2025-09-07T02:25	10	0	0.1	0	0	350	0.2	350	351	10.9	98.3
2025-09-07T02:26	10	0	0.1	0	0	351	0.3	350	351	10.8	98.1
2025-09-07T02:27	10	0	0.1	0	0	351	0.2	350	351	10.9	98.3
2025-09-07T02:28	10	0	0.1	0	0	350	0.3	350	351	10.9	98.3
2025-09-07T02:29	10	0	0.0	0	0	350	0.2	350	350	10.9	98.2
2025-09-07T02:30	10	0	0.1	0	0	350	0.3	350	351	10.8	98.2
2025-09-07T02:31	10	0	0.1	0	0	350	0.2	350	351	10.8	98.1
2025-09-07T02:32	10	0	0.1	0	0	350	0.2	350	351	10.9	97.8
2025-09-07T02:33	10	0	0.1	0	0	350	0.2	350	351	10.8	97.9
2025-09-07T02:34	10	0	0.1	0	0	351	0.4	350	352	10.7	97.7
2025-09-07T02:35	10	0	0.1	0	0	352	0.2	351	352	10.8	97.6
2025-09-07T02:36	10	0	0.1	0	0	353	0.4	352	354	10.6	97.6
2025-09-07T02:37	10	0	0.1	0	0	354	0.4	353	355	10.5	97.3
2025-09-07T02:38	10	0	0.1	0	0	354	0.2	354	355	10.5	97.4
2025-09-07T02:39	10	0	0.1	0	0	354	0.2	353	355	10.5	97.6
2025-09-07T02:40	10	0	0.1	0	0	354	0.3	353	354	10.6	97.5
2025-09-07T02:41	10	0	0.1	0	0	354	0.2	353	354	10.7	97.5
2025-09-07T02:42	10	0	0.1	0	0	354	0.3	353	354	10.8	97.1
2025-09-07T02:43	10	0	0.1	0	0	353	0.2	353	354	10.7	97.1
2025-09-07T02:44	10	0	0.1	0	0	353	0.2	353	354	10.6	97.1
2025-09-07T02:45	10	0	0.1	0	0	354	0.3	353	354	10.5	97.2
2025-09-07T02:46	10	0	0.1	0	0	354	0.2	353	354	10.6	97.5
2025-09-07T02:47	10	0	0.1	0	0	353	0.2	353	354	10.7	97.8
2025-09-07T02:48	10	0	0.1	0	0	354	0.2	353	354	10.7	98.0
2025-09-07T02:49	10	0	0.1	0	0	353	0.2	353	354	10.7	98.2
2025-09-07T02:50	10	0	0.1	0	0	354	0.2	353	354	10.6	98.4
2025-09-07T02:51	10	0	0.1	0	0	354	0.4	354	355	10.6	98.3
2025-09-07T02:52	10	0	0.1	0	0	354	0.3	354	355	10.6	98.2
2025-09-07T02:53	10	0	0.1	0	0	354	0.2	354	355	10.5	98.3
2025-09-07T02:54	10	0	0.1	0	0	354	0.3	354	355	10.4	98.2
2025-09-07T02:55	10	0	0.1	0	0	354	0.2	353	355	10.4	98.0
2025-09-07T02:56	10	0	0.1	0	0	354	0.3	354	355	10.4	97.9
2025-09-07T02:57	10	0	0.1	0	0	355	0.2	354	355	10.4	98.0
2025-09-07T02:58	10	0	0.1	0	0	355	0.3	354	355	10.5	98.0
2025-09-07T02:59	10	0	0.1	0	0	355	0.3	354	355	10.6	97.9
2025-09-07T03:00	10	0	0.1	0	0	354	0.3	354	355	10.5	97.8
2025-09-07T03:01	10	0	0.1	0	0	354	0.2	354	354	10.5	97.7
2025-09-07T03:02	10	0	0.1	0	0	354	0.2	353	354	10.7	97.7
2025-09-07T03:03	10	0	0.1	0	0	354	0.3	353	354	10.6	98.0
2025-09-07T03:04	10	0	0.1	0	0	354	0.3	353	354	10.5	97.9
2025-09-07T03:05	10	0	0.1	0	0	354	0.3	353	355	10.5	97.6
2025-09-07T03:06	10	0	0.1	0	0	354	0.3	354	355	10.6	97.6
2025-09-07T03:07	10	0	0.1	0	0	355	0.2	354	356	10.7	97.6
2025-09-07T03:08	10	0	0.1	0	0	355	0.2	355	355	10.7	97.7
2025-09-07T03:09	10	0	0.1	0	0	355	0.3	354	355	10.7	97.7
2025-09-07T03:10	10	0	0.1	0	0	355	0.2	354	355	10.8	97.7
2025-09-07T03:11	10	0	0.1	0	0	355	0.2	354	355	10.8	97.5
2025-09-07T03:12	10	0	0.1	0	0	354	0.3	354	355	10.8	97.6
2025-09-07T03:13	10	0	0.1	0	0	354	0.2	354	355	10.8	97.3
2025-09-07T03:14	10	0	0.1	0	0	354	0.2	354	355	10.8	97.3
2025-09-07T03:15	10	0	0.1	0	0	354	0.2	354	354	10.8	97.3
2025-09-07T03:16	10	0	0.1	0	0	354	0.2	354	355	10.8	97.1
2025-09-07T03:17	10	0	0.1	0	0	354	0.2	354	355	10.9	96.9
2025-09-07T03:18	10	0	0.1	0	0	354	0.2	354	355	10.9	96.8
2025-09-07T03:19	10	0	0.1	0	0	354	0.3	353	354	10.9	96.8
2025-09-07T03:20	10	0	0.1	0	0	353	0.3	353	354	10.9	96.8
2025-09-07T03:21	10	0	0.1	0	0	353	0.3	352	354	11.0	96.6
2025-09-07T03:22	10	0	0.1	0	0	352	0.3	352	353	10.9	96.8
2025-09-07T03:23	10	0	0.1	0	0	352	0.2	352	353	10.8	96.8
2025-09-07T03:24	10	0	0.1	0	0	352	0.3	352	352	10.8	96.8
2025-09-07T03:25	10	0	0.1	0	0	351	0.4	350	352	10.7	97.1
2025-09-07T03:26	10	0	0.1	0	0	351	0.4	350	351	10.5	97.1
2025-09-07T03:27	10	0	0.1	0	0	350	0.2	349	350	10.4	97.2
2025-09-07T03:28	10	0	0.1	0	0	350	0.2	349	350	10.4	97.3
2025-09-07T03:29	10	0	0.1	0	0	350	0.2	349	350	10.4	97.7
2025-09-07T03:30	10	0	0.1	0	0	350	0.2	349	350	10.3	98.1
2025-09-07T03:31	10	0	0.1	0	0	350	0.2	350	351	10.3	97.9
2025-09-07T03:32	10	0	0.1	0	0	350	0.2	350	351	10.3	97.8
2025-09-07T03:33	10	0	0.1	0	0	350	0.5	350	351	10.2	97.7
2025-09-07T03:34	10	0	0.1	0	0	351	0.2	351	352	10.1	97.7
2025-09-07T03:35	10	0	0.1	0	0	351	0.3	351	352	10.1	97.8
2025-09-07T03:36	10	0	0.1	0	0	351	0.2	351	352	10.2	98.0
2025-09-07T03:37	10	0	0.1	0	0	351	0.2	350	351	10.1	98.3
2025-09-07T03:38	10	0	0.1	0	0	351	0.3	350	351	10.1	98.6
2025-09-07T03:39	10	0	0.1	0	0	351	0.2	350	351	10.1	98.6
2025-09-07T03:40	10	0	0.1	0	0	351	0.2	350	351	10.0	98.7
2025-09-07T03:41	10	0	0.1	0	0	351	0.2	350	351	10.0	98.6
2025-09-07T03:42	10	0	0.1	0	0	350	0.3	350	351	10.0	98.6
2025-09-07T03:43	10	0	0.1	0	0	350	0.2	349	351	10.0	98.8
2025-09-07T03:44	10	0	0.1	0	0	350	0.4	349	351	10.0	98.7
2025-09-07T03:45	10	0	0.1	0	0	350	0.4	349	351	10.3	98.4
2025-09-07T03:46	10	0	0.1	-1	0	350	0.2	349	350	10.2	99.1
2025-09-07T03:47	10	0	0.1	0	0	350	0.3	349	350	10.1	98.9
2025-09-07T03:48	10	0	0.1	0	0	349	0.2	349	350	10.0	98.8
2025-09-07T03:49	10	0	0.1	0	0	350	0.3	349	350	10.1	98.4
2025-09-07T03:50	10	0	0.1	0	0	350	0.3	349	351	10.2	98.6
2025-09-07T03:51	10	0	0.1	-1	0	350	0.2	350	351	10.5	98.6
2025-09-07T03:52	10	0	0.1	0	0	350	0.4	349	351	10.2	99.1
2025-09-07T03:53	10	0	0.1	0	0	350	0.3	349	350	10.1	98.9
2025-09-07T03:54	10	0	0.1	0	0	349	0.3	348	349	10.1	98.8
2025-09-07T03:55	10	0	0.1	0	0	349	0.3	348	349	10.0	98.8
2025-09-07T03:56	10	0	0.1	0	0	348	0.2	348	349	9.9	98.9
2025-09-07T03:57	10	0	0.1	0	0	349	0.2	348	349	9.9	98.9
2025-09-07T03:58	10	0	0.1	0	0	348	0.2	348	349	9.8	98.9
2025-09-07T03:59	10	0	0.1	0	0	348	0.2	348	348	9.8	99.1
2025-09-07T04:00	10	0	0.1	0	0	348	0.2	347	348	9.8	98.7
2025-09-07T04:01	10	0	0.1	0	0	348	0.3	348	349	9.9	98.4
2025-09-07T04:02	10	0	0.1	0	0	348	0.3	348	349	9.9	98.7
2025-09-07T04:03	10	0	0.1	0	0	348	0.2	347	348	9.8	99.3
2025-09-07T04:04	10	0	0.1	0	0	348	0.2	347	348	9.9	99.5
2025-09-07T04:05	10	0	0.1	0	0	348	0.3	347	348	9.8	99.8
2025-09-07T04:06	10	0	0.1	0	0	348	0.2	347	348	9.8	99.4
2025-09-07T04:07	10	0	0.1	0	0	348	0.2	347	348	9.9	99.1
2025-09-07T04:08	10	0	0.1	-1	0	348	0.2	347	349	10.0	99.0
2025-09-07T04:09	10	0	0.1	0	0	348	0.2	347	348	10.1	99.0
2025-09-07T04:10	10	0	0.1	0	0	348	0.2	347	348	10.1	99.1
2025-09-07T04:11	10	0	0.1	0	0	348	0.2	347	348	10.1	98.7
2025-09-07T04:12	10	0	0.1	0	0	348	0.3	347	348	10.1	99.2
2025-09-07T04:13	10	0	0.1	0	0	348	0.3	347	348	10.0	99.3
2025-09-07T04:14	10	0	0.1	0	0	347	0.3	347	348	10.0	99.1
2025-09-07T04:15	10	0	0.1	0	0	347	0.2	347	348	10.0	98.9
2025-09-07T04:16	10	0	0.1	0	0	348	0.2	347	348	10.2	98.6
2025-09-07T04:17	10	0	0.1	0	0	348	0.2	347	348	10.2	98.7
2025-09-07T04:18	10	0	0.1	0	0	347	0.3	347	348	10.2	98.5
2025-09-07T04:19	10	0	0.1	0	0	348	0.2	347	348	10.3	98.4
2025-09-07T04:20	10	0	0.1	0	0	348	0.3	347	349	10.3	98.3
2025-09-07T04:21	10	0	0.1	0	0	347	0.2	347	348	10.2	98.0
2025-09-07T04:22	10	0	0.1	0	0	348	0.2	347	348	10.1	97.9
2025-09-07T04:23	10	0	0.1	0	0	348	0.3	347	348	10.1	97.9
2025-09-07T04:24	10	0	0.1	0	0	347	0.2	347	348	9.9	98.1
2025-09-07T04:25	10	0	0.0	0	0	347	0.2	347	348	9.8	97.9
2025-09-07T04:26	10	0	0.1	0	0	347	0.2	347	348	9.8	97.9
2025-09-07T04:27	10	0	0.0	0	0	347	0.2	347	348	9.8	98.2
2025-09-07T04:28	10	0	0.1	0	0	347	0.2	347	348	9.7	98.1
2025-09-07T04:29	10	0	0.1	0	0	347	0.2	347	348	9.7	98.1
2025-09-07T04:30	10	0	0.1	0	0	347	0.2	347	348	9.7	98.1
2025-09-07T04:31	10	0	0.1	0	0	347	0.3	347	348	9.8	98.1
2025-09-07T04:32	10	0	0.1	0	0	347	0.2	347	348	9.7	98.2
2025-09-07T04:33	10	0	0.1	0	0	348	0.2	347	348	9.7	98.2
2025-09-07T04:34	10	0	0.1	0	0	348	0.2	347	348	9.7	98.2
2025-09-07T04:35	10	0	0.1	0	0	348	0.3	348	349	9.7	98.3
2025-09-07T04:36	10	0	0.1	0	0	348	0.3	348	349	9.7	98.2
2025-09-07T04:37	10	0	0.1	0	0	348	0.2	348	349	9.8	98.4
2025-09-07T04:38	10	0	0.1	0	0	348	0.2	348	349	9.7	98.2
2025-09-07T04:39	10	0	0.1	0	0	349	0.2	348	349	9.7	97.8
2025-09-07T04:40	10	0	0.1	0	0	349	0.4	348	350	9.7	97.8
2025-09-07T04:41	10	0	0.1	0	0	350	0.3	349	350	9.7	97.9
2025-09-07T04:42	10	0	0.1	0	0	350	0.3	349	351	9.6	97.4
2025-09-07T04:43	10	0	0.1	0	0	351	0.2	350	351	9.6	97.2
2025-09-07T04:44	10	0	0.1	0	0	350	0.3	350	351	9.6	97.2
2025-09-07T04:45	10	0	0.1	0	0	350	0.3	349	350	9.5	97.6
2025-09-07T04:46	10	0	0.1	0	0	349	0.2	348	350	9.5	97.7
2025-09-07T04:47	10	0	0.1	0	0	349	0.3	348	349	9.5	97.4
2025-09-07T04:48	10	0	0.1	0	0	348	0.2	348	349	9.5	97.3
2025-09-07T04:49	10	0	0.1	0	0	348	0.2	348	349	9.7	97.2
2025-09-07T04:50	10	0	0.1	0	0	348	0.2	347	349	9.7	97.6
2025-09-07T04:51	10	0	0.1	0	0	348	0.2	348	348	9.6	97.7
2025-09-07T04:52	10	0	0.0	0	0	348	0.2	347	348	9.6	97.4
2025-09-07T04:53	10	0	0.1	0	0	348	0.3	347	348	9.6	97.4
2025-09-07T04:54	10	0	0.1	0	0	347	0.2	347	348	9.6	97.6
2025-09-07T04:55	10	0	0.1	0	0	347	0.2	347	348	9.6	97.5
2025-09-07T04:56	10	0	0.0	0	0	347	0.2	347	348	9.6	97.7
2025-09-07T04:57	10	0	0.1	0	0	348	0.3	347	348	9.6	97.5
2025-09-07T04:58	10	0	0.0	0	0	348	0.2	347	348	9.5	97.5
2025-09-07T04:59	10	0	0.0	0	0	348	0.2	347	348	9.3	97.8
2025-09-07T05:00	10	0	0.1	0	0	348	0.3	347	349	9.3	97.5
2025-09-07T05:01	10	0	0.1	0	1	348	0.3	348	349	9.3	97.6
2025-09-07T05:02	10	0	0.1	0	1	348	0.3	347	348	9.4	97.4
2025-09-07T05:03	10	1	0.1	0	1	348	0.2	347	348	9.4	97.9
2025-09-07T05:04	10	1	0.1	0	1	347	0.2	347	348	9.5	98.2
2025-09-07T05:05	10	1	0.1	1	1	347	0.2	347	348	9.4	98.1
2025-09-07T05:06	10	1	0.1	1	1	347	0.2	347	348	9.4	98.1
2025-09-07T05:07	10	1	0.1	1	2	348	0.3	347	348	9.5	97.7
2025-09-07T05:08	10	1	0.1	1	2	349	0.4	348	350	9.6	97.7
2025-09-07T05:09	10	2	0.1	1	2	349	0.2	349	349	9.7	97.7
2025-09-07T05:10	10	2	0.1	2	2	349	0.2	349	350	9.6	97.8
2025-09-07T05:11	10	2	0.1	2	2	349	0.3	349	350	9.5	97.9
2025-09-07T05:12	10	2	0.1	2	3	349	0.2	349	350	9.4	98.2
2025-09-07T05:13	10	3	0.1	3	3	349	0.2	349	350	9.4	98.5
2025-09-07T05:14	10	3	0.1	3	3	350	0.2	349	350	9.3	98.6
2025-09-07T05:15	10	3	0.1	3	3	350	0.2	349	350	9.4	98.6
2025-09-07T05:16	10	3	0.1	3	4	349	0.2	349	350	9.4	98.3
2025-09-07T05:17	10	4	0.1	3	4	349	0.2	349	350	9.4	98.5
2025-09-07T05:18	10	4	0.1	4	4	349	0.2	349	350	9.4	98.2
2025-09-07T05:19	10	4	0.1	4	4	349	0.2	349	350	9.5	98.1
2025-09-07T05:20	10	4	0.1	4	4	350	0.3	349	350	9.5	98.3
2025-09-07T05:21	10	4	0.1	4	5	350	0.2	349	350	9.5	98.2
2025-09-07T05:22	10	5	0.1	4	5	351	0.3	350	351	9.5	98.4
2025-09-07T05:23	10	5	0.1	5	5	351	0.2	350	351	9.5	98.5
2025-09-07T05:24	10	5	0.1	5	5	351	0.2	351	352	9.5	98.6
2025-09-07T05:25	10	6	0.1	5	6	351	0.2	351	352	9.5	98.9
2025-09-07T05:26	10	6	0.1	6	6	352	0.2	351	352	9.5	98.8
2025-09-07T05:27	10	6	0.2	6	7	352	0.3	352	353	9.4	98.8
2025-09-07T05:28	10	7	0.2	7	7	352	0.2	352	353	9.4	98.6
2025-09-07T05:29	10	8	0.2	7	8	353	0.2	352	353	9.4	98.8
2025-09-07T05:30	10	8	0.1	8	8	353	0.2	352	353	9.4	98.7
2025-09-07T05:31	10	8	0.1	8	9	353	0.3	353	354	9.5	98.7
2025-09-07T05:32	10	9	0.1	9	9	354	0.3	353	354	9.6	99.0
2025-09-07T05:33	10	9	0.1	9	9	354	0.2	354	355	9.5	98.8
2025-09-07T05:34	10	9	0.1	9	10	356	0.5	355	357	9.6	98.6
2025-09-07T05:35	10	10	0.1	10	10	357	0.6	356	359	9.7	98.4
2025-09-07T05:36	10	10	0.1	9	10	359	0.5	358	360	9.8	98.4
2025-09-07T05:37	10	9	0.1	9	10	361	0.5	360	362	9.8	98.3
2025-09-07T05:38	10	9	0.1	9	9	362	0.3	361	363	9.9	98.1
2025-09-07T05:39	10	9	0.1	9	9	363	0.2	362	363	9.9	98.2
2025-09-07T05:40	10	9	0.1	9	9	363	0.2	363	364	9.9	98.0
2025-09-07T05:41	10	9	0.2	8	9	364	0.2	363	364	9.8	98.0
2025-09-07T05:42	10	8	0.2	8	8	365	0.4	364	365	9.9	97.5
2025-09-07T05:43	10	8	0.1	7	8	365	0.3	364	366	9.9	97.6
2025-09-07T05:44	10	8	0.2	8	8	365	0.2	364	365	9.8	97.3
2025-09-07T05:45	10	9	0.1	8	9	365	0.2	365	365	9.9	97.3
2025-09-07T05:46	10	8	0.2	8	9	365	0.2	365	366	9.9	97.4
2025-09-07T05:47	10	8	0.2	7	8	366	0.3	365	366	9.8	97.5
2025-09-07T05:48	10	7	0.1	7	8	365	0.2	365	366	9.9	97.4
2025-09-07T05:49	10	7	0.1	7	7	366	0.2	365	366	9.9	97.4
2025-09-07T05:50	10	8	0.2	7	8	366	0.3	365	366	10.0	97.4
2025-09-07T05:51	10	8	0.2	8	9	366	0.2	366	367	10.1	97.3
2025-09-07T05:52	10	9	0.1	9	9	367	0.2	366	367	10.1	97.3
2025-09-07T05:53	10	9	0.1	8	9	367	0.2	367	367	10.0	97.5
2025-09-07T05:54	10	8	0.1	8	8	367	0.2	367	368	10.0	97.4
2025-09-07T05:55	10	9	0.3	8	9	367	0.2	367	368	10.1	97.1
2025-09-07T05:56	10	10	0.4	9	11	368	0.3	367	369	10.1	97.7
2025-09-07T05:57	10	11	0.3	11	12	368	0.2	368	369	10.1	97.8
2025-09-07T05:58	10	12	0.4	12	13	369	0.3	368	370	10.2	98.2
2025-09-07T05:59	10	13	0.2	13	14	370	0.3	369	370	10.3	97.9
2025-09-07T06:00	10	13	0.4	12	13	370	0.2	370	370	10.3	97.8
2025-09-07T06:01	10	12	0.3	11	12	370	0.2	370	371	10.4	97.4
2025-09-07T06:02	10	11	0.2	11	11	370	0.2	370	371	10.4	97.0
2025-09-07T06:03	10	11	0.1	10	11	370	0.3	369	371	10.5	97.6
2025-09-07T06:04	10	11	0.2	10	11	370	0.2	370	371	10.5	97.6
2025-09-07T06:05	10	12	0.4	11	12	370	0.2	370	371	10.6	97.8
2025-09-07T06:06	10	13	0.5	12	14	371	0.2	370	371	10.7	98.2
2025-09-07T06:07	10	15	0.5	14	16	371	0.3	370	372	10.8	97.9
2025-09-07T06:08	10	16	0.1	15	16	372	0.3	371	373	10.8	97.4
2025-09-07T06:09	10	15	0.3	14	16	373	0.2	372	373	10.7	96.6
2025-09-07T06:10	10	14	0.1	14	15	373	0.2	372	373	10.7	96.2
2025-09-07T06:11	10	14	0.4	13	14	373	0.2	372	374	10.8	96.3
2025-09-07T06:12	10	12	0.2	12	13	373	0.3	372	373	10.8	96.4
2025-09-07T06:13	10	13	0.5	12	14	373	0.3	372	373	10.8	96.5
2025-09-07T06:14	10	15	0.5	14	15	373	0.2	373	373	10.9	96.3
2025-09-07T06:15	10	15	0.1	15	16	374	0.2	373	374	10.9	96.3
2025-09-07T06:16	10	16	0.2	15	16	374	0.2	374	374	11.0	96.2
2025-09-07T06:17	10	17	0.2	16	17	374	0.3	373	375	11.0	96.2
2025-09-07T06:18	10	16	0.4	16	17	374	0.4	373	374	11.0	95.8
2025-09-07T06:19	10	15	0.2	15	16	373	0.2	373	374	10.9	95.4
2025-09-07T06:20	10	17	0.6	16	18	373	0.3	373	374	11.0	95.6
2025-09-07T06:21	10	18	0.1	18	18	373	0.2	373	374	11.0	95.9
2025-09-07T06:22	10	18	0.1	18	18	374	0.3	373	375	11.1	96.0
2025-09-07T06:23	10	18	0.2	18	19	374	0.3	374	375	11.1	96.0
2025-09-07T06:24	10	19	0.2	19	19	374	0.2	374	375	11.1	96.2
2025-09-07T06:25	10	20	0.6	19	21	375	0.3	374	376	11.2	96.2
2025-09-07T06:26	10	22	0.5	21	23	376	0.3	375	376	11.2	95.5
2025-09-07T06:27	10	23	0.2	22	23	376	0.3	375	377	11.3	95.2
2025-09-07T06:28	10	24	0.5	23	25	377	0.3	376	377	11.3	95.2
2025-09-07T06:29	10	25	0.2	25	26	377	0.3	376	377	11.3	95.2
2025-09-07T06:30	10	24	0.3	24	25	377	0.2	376	377	11.3	95.3
2025-09-07T06:31	10	24	0.3	24	25	376	0.3	376	377	11.4	94.8
2025-09-07T06:32	10	26	0.5	25	26	377	0.3	376	378	11.4	94.9
2025-09-07T06:33	10	26	0.3	25	26	377	0.2	377	378	11.4	94.8
2025-09-07T06:34	10	26	0.5	25	27	377	0.2	377	378	11.5	95.0
2025-09-07T06:35	10	28	0.5	27	29	378	0.3	377	378	11.6	95.5
2025-09-07T06:36	10	28	0.3	28	29	378	0.3	377	378	11.6	95.4
2025-09-07T06:37	10	27	0.6	26	28	378	0.3	378	379	11.5	95.3
2025-09-07T06:38	10	27	0.5	26	27	378	0.2	378	379	11.5	95.2
2025-09-07T06:39	10	27	0.1	27	28	378	0.3	378	379	11.6	95.2
2025-09-07T06:40	10	27	0.2	27	28	379	0.3	378	380	11.6	95.6
2025-09-07T06:41	10	29	0.7	28	30	379	0.2	378	379	11.7	95.6
2025-09-07T06:42	10	32	1.1	30	34	379	0.3	379	380	11.7	95.5
2025-09-07T06:43	10	34	0.1	33	34	380	0.2	379	380	11.7	95.5
2025-09-07T06:44	10	34	0.1	33	34	380	0.2	379	380	11.8	95.6
2025-09-07T06:45	10	34	0.7	33	36	381	0.2	380	381	11.8	96.0
2025-09-07T06:46	10	35	0.7	34	36	381	0.2	380	381	11.8	96.5
2025-09-07T06:47	10	34	0.7	33	36	381	0.2	380	381	11.8	96.4
2025-09-07T06:48	10	37	0.3	36	37	381	0.2	381	382	11.8	96.4
2025-09-07T06:49	10	35	1.5	32	37	381	0.2	381	382	11.8	96.5
2025-09-07T06:50	10	31	0.8	29	32	381	0.3	380	382	11.8	96.7
2025-09-07T06:51	10	29	0.4	29	31	381	0.3	380	381	11.8	97.1
2025-09-07T06:52	10	32	1.0	31	34	381	0.3	380	382	11.8	97.1
2025-09-07T06:53	10	34	0.4	33	34	381	0.3	381	382	11.8	97.6
2025-09-07T06:54	10	31	0.9	30	33	382	0.2	382	382	11.9	97.8
2025-09-07T06:55	10	30	0.6	29	31	382	0.3	381	383	12.0	98.1
2025-09-07T06:56	10	34	1.2	31	35	382	0.4	381	383	11.9	98.3
2025-09-07T06:57	10	36	0.4	35	37	382	0.3	382	383	11.9	98.4
2025-09-07T06:58	10	36	0.2	36	37	383	0.3	382	383	11.9	98.8
2025-09-07T06:59	10	38	1.0	37	40	383	0.4	382	384	11.9	99.1
2025-09-07T07:00	10	39	0.8	37	40	382	0.3	382	383	11.9	99.3
2025-09-07T07:01	10	36	0.3	36	37	382	0.4	381	383	12.0	99.8
2025-09-07T07:02	10	36	0.4	36	38	382	0.4	381	383	11.9	100.1
2025-09-07T07:03	10	40	1.3	38	42	382	0.5	381	384	11.9	100.1
2025-09-07T07:04	10	39	0.7	39	41	383	0.3	382	383	11.9	100.3
2025-09-07T07:05	10	47	5.5	39	57	383	0.4	383	384	11.9	100.4
2025-09-07T07:06	10	69	5.3	58	75	385	1.2	383	387	12.0	100.1
2025-09-07T07:07	10	65	2.3	62	70	387	0.3	387	388	12.0	100.2
2025-09-07T07:08	10	63	1.1	60	64	387	0.3	387	388	12.0	100.4
2025-09-07T07:09	10	54	3.3	50	60	387	0.2	387	388	12.0	100.4
2025-09-07T07:10	10	49	1.7	47	54	387	0.3	386	388	12.0	100.4
2025-09-07T07:11	10	58	1.6	54	60	388	0.4	387	389	12.1	100.1
2025-09-07T07:12	10	54	2.4	51	59	386	0.6	385	388	12.1	100.5
2025-09-07T07:13	10	53	1.7	51	56	387	0.3	386	388	12.2	100.3
2025-09-07T07:14	10	59	1.1	57	61	388	0.6	387	390	12.3	100.8
2025-09-07T07:15	10	61	1.3	58	63	389	0.3	388	389	12.3	100.9
2025-09-07T07:16	10	66	1.1	63	67	389	0.2	388	389	12.3	100.6
2025-09-07T07:17	10	60	2.9	56	65	389	0.2	389	390	12.2	100.3
2025-09-07T07:18	10	57	0.9	56	59	389	0.3	389	390	12.4	100.0
2025-09-07T07:19	10	60	1.7	57	63	389	1.0	387	391	12.3	100.9
2025-09-07T07:20	10	53	1.4	51	56	386	0.6	385	388	12.1	100.8
2025-09-07T07:21	10	49	1.0	48	52	385	0.5	384	386	12.1	100.7
2025-09-07T07:22	10	47	0.4	46	48	386	0.3	386	387	12.1	100.6
2025-09-07T07:23	10	52	3.0	48	59	386	0.7	385	387	12.1	100.9
2025-09-07T07:24	10	63	1.4	59	65	387	0.3	386	387	12.2	100.8
2025-09-07T07:25	10	61	2.3	56	63	387	0.2	386	387	12.1	100.9
2025-09-07T07:26	10	54	1.0	52	56	386	0.7	385	387	12.3	100.6
2025-09-07T07:27	10	50	1.1	49	52	385	0.6	384	386	12.2	100.9
2025-09-07T07:28	10	48	0.2	48	49	384	0.3	383	385	12.1	100.6
2025-09-07T07:29	10	50	1.6	49	54	384	0.3	383	384	12.1	100.8
2025-09-07T07:30	10	60	4.0	54	66	385	0.8	384	387	12.2	100.6
2025-09-07T07:31	10	69	1.2	66	70	386	0.5	385	387	12.2	100.8
2025-09-07T07:32	10	65	2.3	61	69	387	0.3	387	388	12.3	100.6
2025-09-07T07:33	10	56	3.1	51	61	388	0.3	387	389	12.4	101.2
2025-09-07T07:34	10	49	1.1	47	51	387	1.0	385	389	12.3	101.5
2025-09-07T07:35	10	47	0.6	45	47	385	0.4	384	386	12.1	101.1
2025-09-07T07:36	10	45	0.2	45	45	385	0.3	385	386	12.1	101.2
2025-09-07T07:37	10	48	1.7	45	51	385	0.3	385	386	12.1	101.0
2025-09-07T07:38	10	51	1.0	50	53	386	0.5	385	387	12.1	101.1
2025-09-07T07:39	10	53	0.3	52	53	387	0.5	386	388	12.1	101.3
2025-09-07T07:40	10	51	0.8	50	52	387	0.4	386	388	12.4	100.9
2025-09-07T07:41	10	52	1.1	50	54	387	0.2	386	387	12.3	101.3
2025-09-07T07:42	10	53	0.6	52	54	388	0.4	387	389	12.5	101.4
2025-09-07T07:43	10	53	1.3	52	56	389	0.4	388	389	12.4	102.0
2025-09-07T07:44	10	63	4.6	56	71	389	0.5	388	390	12.6	101.7
2025-09-07T07:45	10	72	1.2	69	74	391	0.8	390	393	12.5	101.5
2025-09-07T07:46	10	65	1.9	63	69	392	0.4	391	393	12.3	100.9
2025-09-07T07:47	10	61	1.1	59	63	392	0.3	391	392	12.5	100.8
2025-09-07T07:48	10	57	1.0	56	59	391	0.3	391	392	12.4	101.4
2025-09-07T07:49	10	55	0.4	54	56	391	0.4	391	392	12.6	101.0
2025-09-07T07:50	10	52	1.0	51	54	391	0.4	391	392	12.7	101.2
2025-09-07T07:51	10	49	0.8	48	51	391	0.8	390	392	12.6	101.9
2025-09-07T07:52	10	47	0.3	47	48	390	0.3	390	391	12.4	102.1
2025-09-07T07:53	10	48	0.3	47	48	390	0.3	390	391	12.4	101.9
2025-09-07T07:54	10	48	0.3	47	48	390	0.2	390	391	12.4	101.9
2025-09-07T07:55	10	47	0.1	47	47	390	0.2	390	391	12.3	101.9
2025-09-07T07:56	10	47	0.1	47	48	390	0.3	390	391	12.3	101.8
2025-09-07T07:57	10	48	0.3	47	48	391	0.2	390	391	12.4	101.6
2025-09-07T07:58	10	46	0.2	46	47	391	0.3	390	391	12.4	101.7
2025-09-07T07:59	10	46	0.4	46	47	391	0.3	390	391	12.4	101.5
2025-09-07T08:00	10	50	1.2	47	52	390	0.3	390	391	12.4	101.7
2025-09-07T08:01	10	55	2.5	52	60	391	0.6	390	392	12.7	100.9
2025-09-07T08:02	10	61	0.5	60	62	393	0.5	392	394	12.7	101.5
2025-09-07T08:03	10	64	1.5	62	67	394	0.4	393	395	12.7	100.9
2025-09-07T08:04	10	67	0.1	67	67	395	0.2	394	395	12.6	101.1
2025-09-07T08:05	10	68	0.6	67	69	395	0.3	395	396	12.4	101.4
2025-09-07T08:06	10	64	1.7	62	68	396	0.3	395	396	12.5	101.5
2025-09-07T08:07	10	62	0.4	62	63	395	0.3	394	395	12.5	101.6
2025-09-07T08:08	10	66	2.3	63	71	395	0.3	394	395	12.7	101.9
2025-09-07T08:09	10	73	1.6	71	76	396	0.4	395	397	12.9	102.3
2025-09-07T08:10	10	83	4.5	76	89	398	1.0	396	400	13.1	102.2
2025-09-07T08:11	10	91	1.1	89	93	400	0.5	399	401	13.3	101.4
2025-09-07T08:12	10	98	2.3	93	101	401	0.6	400	402	13.4	100.9
2025-09-07T08:13	10	97	0.7	96	99	403	0.3	402	403	13.2	100.4
2025-09-07T08:14	10	105	3.0	99	109	404	0.5	403	404	13.2	100.0
2025-09-07T08:15	10	93	4.2	89	103	404	0.6	403	405	13.4	100.1
2025-09-07T08:16	10	90	2.1	87	94	403	0.3	403	404	13.2	99.8
2025-09-07T08:17	10	93	1.0	91	94	404	0.3	404	405	13.2	99.7
2025-09-07T08:18	10	91	1.1	89	93	404	0.9	403	406	13.2	99.8
2025-09-07T08:19	10	85	2.5	81	89	403	0.5	402	404	13.1	100.0
2025-09-07T08:20	10	77	2.5	73	81	401	1.0	400	403	12.9	99.9
2025-09-07T08:21	10	71	1.8	68	74	400	0.3	400	401	12.9	99.8
2025-09-07T08:22	10	65	1.5	62	68	400	0.5	399	401	12.9	99.8
2025-09-07T08:23	10	61	0.8	60	63	398	0.6	397	400	12.9	99.8
2025-09-07T08:24	10	58	0.7	57	59	397	0.4	397	398	12.9	98.2
2025-09-07T08:25	10	58	0.5	57	59	397	0.3	396	397	12.9	99.8
2025-09-07T08:26	10	61	1.1	59	63	397	0.3	396	397	12.9	99.8
2025-09-07T08:27	10	68	2.8	63	71	396	0.4	396	397	12.9	99.8
2025-09-07T08:28	10	77	4.0	71	82	398	0.5	397	399	12.9	99.3
2025-09-07T08:29	10	89	5.3	82	101	398	0.7	398	400	12.9	98.4
2025-09-07T08:30	10	110	4.1	101	119	401	1.0	399	403	13.1	98.9
2025-09-07T08:31	10	127	3.1	119	131	404	1.3	402	406	13.0	98.8
2025-09-07T08:32	10	132	0.6	131	133	407	0.9	405	409	13.2	98.5
2025-09-07T08:33	10	134	1.6	132	136	408	0.3	408	409	13.3	98.3
2025-09-07T08:34	10	136	0.2	136	137	409	0.3	409	410	13.2	98.0
2025-09-07T08:35	10	134	0.8	133	136	410	0.4	410	411	13.6	97.5
2025-09-07T08:36	10	132	0.6	131	133	410	0.3	409	411	13.4	96.8
2025-09-07T08:37	10	130	0.5	129	131	410	0.5	409	411	13.6	96.7
2025-09-07T08:38	10	129	0.3	128	129	412	0.4	410	412	13.9	96.9
2025-09-07T08:39	10	128	0.5	127	128	411	0.3	410	411	13.7	96.7
2025-09-07T08:40	10	127	0.2	126	127	410	0.8	409	412	13.9	96.4
2025-09-07T08:41	10	126	0.2	126	127	409	0.3	409	410	13.5	95.6
2025-09-07T08:42	10	127	0.2	127	127	410	0.3	410	411	13.5	95.5
2025-09-07T08:43	10	127	0.1	127	128	410	0.3	410	411	13.6	95.5
2025-09-07T08:44	10	127	0.3	126	127	411	0.5	410	412	13.6	95.4
2025-09-07T08:45	10	126	0.2	126	127	412	0.4	411	413	13.7	95.3
2025-09-07T08:46	10	126	0.5	125	127	412	0.3	411	412	13.9	95.1
2025-09-07T08:47	10	125	0.3	125	126	412	0.3	412	413	14.0	94.8
2025-09-07T08:48	10	124	0.4	124	125	413	0.3	412	414	14.1	94.1
2025-09-07T08:49	10	125	0.2	125	126	413	0.3	412	413	14.1	93.6
2025-09-07T08:50	10	124	0.4	123	125	413	0.3	412	413	14.3	93.0
2025-09-07T08:51	10	125	0.2	125	125	414	0.3	413	415	14.6	92.3
2025-09-07T08:52	10	125	0.5	124	126	414	0.3	413	415	14.4	90.8
2025-09-07T08:53	10	126	0.2	126	127	414	0.3	414	415	14.4	90.9
2025-09-07T08:54	10	126	0.1	126	127	414	0.3	413	415	14.4	90.1
2025-09-07T08:55	10	126	0.1	126	127	414	0.3	414	415	14.6	91.2
2025-09-07T08:56	10	126	0.2	126	127	414	0.4	413	415	14.6	91.1
2025-09-07T08:57	10	127	0.2	127	127	413	0.3	413	414	14.5	90.3
2025-09-07T08:58	10	127	0.1	126	127	414	0.4	413	415	14.6	90.5
2025-09-07T08:59	10	127	0.3	127	128	416	0.4	415	416	14.8	90.6
2025-09-07T09:00	10	128	0.1	127	128	416	0.3	415	417	14.9	90.1
2025-09-07T09:01	10	128	0.2	128	128	417	0.9	415	419	15.1	90.1
2025-09-07T09:02	10	128	0.2	128	129	415	0.5	415	416	14.9	88.4
2025-09-07T09:03	10	129	0.4	129	130	416	0.3	415	417	14.8	88.3
2025-09-07T09:04	10	130	0.2	130	131	417	0.5	416	418	14.9	87.3
2025-09-07T09:05	10	131	0.2	130	131	418	0.3	417	419	15.0	86.0
2025-09-07T09:06	10	131	0.1	131	131	419	0.2	418	419	15.1	85.9
2025-09-07T09:07	10	132	0.1	131	132	419	0.2	419	420	15.2	84.0
2025-09-07T09:08	10	132	0.1	132	132	420	0.5	419	421	15.5	85.3
2025-09-07T09:09	10	132	0.2	132	132	421	0.7	420	423	15.7	86.0
2025-09-07T09:10	10	132	0.1	132	133	422	0.7	421	423	15.7	84.8
2025-09-07T09:11	10	133	0.1	133	134	421	0.2	421	422	15.7	83.0
2025-09-07T09:12	10	134	0.1	134	134	422	0.3	421	423	15.9	82.8
2025-09-07T09:13	10	134	0.2	134	135	423	0.3	422	423	16.0	82.7
2025-09-07T09:14	10	134	0.1	134	135	423	0.2	422	423	16.2	82.6
2025-09-07T09:15	10	134	0.3	134	135	424	0.2	423	424	16.2	82.2
2025-09-07T09:16	10	134	0.2	134	135	423	0.6	422	424	15.9	80.7
2025-09-07T09:17	10	134	0.2	133	134	423	0.3	422	423	15.8	81.5
2025-09-07T09:18	10	134	0.2	134	134	423	0.6	422	425	15.9	81.6
2025-09-07T09:19	10	135	0.3	134	135	424	0.3	424	425	16.0	80.9
2025-09-07T09:20	10	135	0.2	135	135	425	0.4	424	426	16.2	81.9
2025-09-07T09:21	10	135	0.2	135	136	426	0.5	425	427	16.5	82.0
2025-09-07T09:22	10	136	0.2	135	136	425	0.8	424	427	16.5	80.6
2025-09-07T09:23	10	136	0.5	135	137	425	0.4	424	425	16.4	79.5
2025-09-07T09:24	10	138	0.4	137	138	425	0.3	424	426	16.3	79.2
2025-09-07T09:25	10	138	0.3	137	139	426	0.2	425	426	16.4	79.1
2025-09-07T09:26	10	136	0.8	135	138	427	0.3	426	428	16.5	79.1
2025-09-07T09:27	10	134	0.8	133	136	427	0.4	427	428	16.6	79.0
2025-09-07T09:28	10	133	1.1	131	134	427	0.7	426	428	16.8	78.5
2025-09-07T09:29	10	130	0.7	128	131	427	0.3	426	428	17.0	76.0
2025-09-07T09:30	10	131	1.3	128	132	427	0.4	426	428	16.8	73.6
2025-09-07T09:31	10	131	0.6	129	132	426	0.4	426	427	16.7	73.1
2025-09-07T09:32	10	130	0.9	129	132	426	0.7	425	427	16.7	71.6
2025-09-07T09:33	10	128	1.0	125	130	425	0.5	425	426	16.9	73.6
2025-09-07T09:34	10	125	2.3	122	129	426	0.4	425	427	16.8	74.4
2025-09-07T09:35	10	131	1.1	129	133	426	0.5	425	427	16.6	74.4
2025-09-07T09:36	10	134	1.0	132	136	425	0.3	424	426	16.5	73.6
2025-09-07T09:37	10	132	1.3	131	134	426	0.4	425	427	16.5	71.8
2025-09-07T09:38	10	133	3.2	130	140	427	0.5	426	428	16.6	71.2
2025-09-07T09:39	10	143	1.9	140	146	429	0.7	427	430	16.7	68.6
2025-09-07T09:40	10	146	0.1	146	146	430	0.3	430	431	16.8	70.2
2025-09-07T09:41	10	146	0.3	145	146	431	0.3	430	431	16.9	70.1
2025-09-07T09:42	10	146	0.4	145	146	431	0.3	431	432	17.0	70.6
2025-09-07T09:43	10	144	0.6	143	145	431	0.4	431	432	17.1	70.3
2025-09-07T09:44	10	142	0.5	141	143	431	0.3	431	432	17.4	69.7
2025-09-07T09:45	10	139	1.1	138	142	432	0.3	431	432	17.7	68.6
2025-09-07T09:46	10	137	0.4	137	138	433	0.3	432	433	17.8	69.1
2025-09-07T09:47	10	139	1.1	137	141	433	0.2	433	434	17.6	68.7
2025-09-07T09:48	10	129	5.7	119	138	432	0.8	430	433	17.5	68.6
2025-09-07T09:49	10	117	1.5	114	119	429	1.2	427	431	17.4	70.2
2025-09-07T09:50	10	115	1.0	114	116	428	0.3	428	429	17.3	71.3
2025-09-07T09:51	10	123	5.8	116	133	428	0.4	428	429	17.4	71.0
2025-09-07T09:52	10	135	1.5	133	137	430	0.5	429	431	17.3	68.5
2025-09-07T09:53	10	132	2.8	128	137	431	0.4	430	432	17.4	68.7
2025-09-07T09:54	10	139	1.9	134	141	432	1.0	431	434	17.5	68.3
2025-09-07T09:55	10	140	1.1	138	141	434	0.3	433	434	17.8	68.5
2025-09-07T09:56	10	136	1.1	134	138	434	0.4	433	435	18.0	68.7
2025-09-07T09:57	10	137	1.0	135	138	435	0.2	435	436	17.9	66.7
2025-09-07T09:58	10	138	0.2	137	138	435	0.3	434	436	17.8	66.9
2025-09-07T09:59	10	140	1.0	138	141	435	0.3	435	436	17.9	68.1
2025-09-07T10:00	10	141	0.7	139	141	436	0.2	436	436	18.1	66.9
2025-09-07T10:01	10	136	2.0	132	139	435	0.5	434	436	18.1	66.8
2025-09-07T10:02	10	130	2.4	125	132	435	0.4	435	436	18.1	67.9
2025-09-07T10:03	10	123	0.7	122	125	434	0.6	433	435	17.9	67.8
2025-09-07T10:04	10	129	2.3	124	131	435	0.6	433	436	18.0	69.1
2025-09-07T10:05	10	130	0.4	129	131	437	0.2	436	437	18.2	69.5
2025-09-07T10:06	10	128	0.6	127	129	436	0.7	435	437	18.4	68.0
2025-09-07T10:07	10	127	0.6	126	128	435	0.4	435	436	18.2	67.8
2025-09-07T10:08	10	130	1.3	128	132	435	0.2	435	436	18.2	68.5
2025-09-07T10:09	10	134	1.6	132	136	436	0.3	436	437	18.0	68.1
2025-09-07T10:10	10	136	0.3	135	137	436	0.3	435	436	18.0	68.1
2025-09-07T10:11	10	139	0.5	137	139	437	0.2	437	438	18.0	68.0
2025-09-07T10:12	10	141	1.1	139	143	438	0.5	437	439	18.1	68.1
2025-09-07T10:13	10	142	0.5	142	143	438	0.4	437	439	18.2	68.0
2025-09-07T10:14	10	144	0.2	143	144	440	0.5	439	441	18.5	68.7
2025-09-07T10:15	10	142	1.1	141	144	440	0.5	439	441	18.8	68.5
2025-09-07T10:16	10	142	0.8	139	143	441	0.6	440	442	18.7	68.0
2025-09-07T10:17	10	137	1.1	136	139	440	0.3	439	441	18.4	66.6
2025-09-07T10:18	10	142	2.5	138	146	440	0.5	439	441	18.5	67.2
2025-09-07T10:19	10	146	0.8	144	147	440	0.3	439	440	18.5	65.1
2025-09-07T10:20	10	143	1.4	141	145	439	0.3	439	440	18.6	63.7
2025-09-07T10:21	10	139	1.6	137	141	440	0.3	439	441	18.8	62.7
2025-09-07T10:22	10	136	0.7	135	137	439	0.3	439	440	19.0	62.6
2025-09-07T10:23	10	139	3.4	134	144	440	0.7	439	442	19.0	64.3
2025-09-07T10:24	10	144	0.2	143	144	442	0.4	441	443	19.1	65.4
2025-09-07T10:25	10	143	0.9	141	144	443	0.4	441	444	18.9	64.5
2025-09-07T10:26	10	140	1.2	138	142	441	0.4	441	442	18.6	64.5
2025-09-07T10:27	10	142	0.7	141	143	442	0.2	441	442	18.5	65.0
2025-09-07T10:28	10	143	0.9	141	144	442	0.3	442	443	18.7	65.0
2025-09-07T10:29	10	145	0.9	144	147	443	0.3	442	443	19.0	64.4
2025-09-07T10:30	10	149	0.7	147	150	444	0.3	443	444	19.1	64.1
2025-09-07T10:31	10	149	0.4	148	150	445	0.4	444	445	19.2	62.5
2025-09-07T10:32	10	148	0.8	146	149	445	0.2	444	445	19.5	61.3
2025-09-07T10:33	10	143	1.1	142	146	444	0.4	444	445	19.6	62.0
2025-09-07T10:34	10	143	0.9	141	144	445	0.3	445	446	19.6	62.5
2025-09-07T10:35	10	141	0.4	141	142	444	0.9	442	445	19.3	62.1
2025-09-07T10:36	10	139	0.9	138	141	443	0.4	442	444	19.2	63.9
2025-09-07T10:37	10	141	1.7	138	143	443	0.7	442	445	19.2	62.8
2025-09-07T10:38	10	139	0.9	138	141	444	0.6	443	445	19.3	63.1
2025-09-07T10:39	10	142	0.7	140	143	443	0.3	443	444	19.1	62.5
2025-09-07T10:40	10	142	0.7	140	143	444	0.4	444	445	19.1	63.0
2025-09-07T10:41	10	140	0.5	139	140	444	0.2	444	445	19.2	62.8
2025-09-07T10:42	10	140	0.9	139	141	445	0.3	444	446	19.4	63.6
2025-09-07T10:43	10	141	1.4	139	143	445	0.4	444	445	19.5	62.3
2025-09-07T10:44	10	144	1.1	143	146	445	0.3	444	445	19.5	62.0
2025-09-07T10:45	10	144	0.8	143	146	445	0.2	445	445	19.4	61.0
2025-09-07T10:46	10	144	0.4	143	145	446	0.8	445	447	19.7	61.5
2025-09-07T10:47	10	146	0.4	145	147	448	0.3	447	448	20.0	62.0
2025-09-07T10:48	10	148	1.4	147	151	448	0.4	447	448	19.8	61.1
2025-09-07T10:49	10	153	0.9	151	154	448	0.8	447	450	19.7	60.8
2025-09-07T10:50	10	155	0.2	155	155	450	0.6	449	451	19.7	62.0
2025-09-07T10:51	10	154	0.3	154	155	449	0.6	448	450	19.7	61.6
2025-09-07T10:52	10	154	0.6	152	154	450	0.4	449	450	19.7	61.5
2025-09-07T10:53	10	152	0.3	151	152	450	0.8	449	451	19.8	62.6
2025-09-07T10:54	10	153	1.0	152	155	449	0.6	448	450	19.6	62.9
2025-09-07T10:55	10	155	0.1	155	155	449	0.4	448	450	19.6	61.6
2025-09-07T10:56	10	155	0.1	155	155	450	0.5	449	451	19.6	62.8
2025-09-07T10:57	10	155	0.1	155	155	449	0.3	449	450	19.6	62.3
2025-09-07T10:58	10	155	0.1	155	155	450	0.8	449	451	19.7	63.1
2025-09-07T10:59	10	155	0.1	155	155	452	0.6	451	453	19.9	63.3
2025-09-07T11:00	10	156	0.2	155	156	452	0.6	451	453	20.0	63.4
2025-09-07T11:01	10	155	0.6	154	156	451	0.7	450	452	19.9	63.0
2025-09-07T11:02	10	155	0.2	155	156	450	0.5	449	451	19.8	62.0
2025-09-07T11:03	10	155	0.3	154	156	451	0.7	450	453	19.8	62.3
2025-09-07T11:04	10	155	0.5	154	156	452	1.0	450	454	20.0	62.7
2025-09-07T11:05	10	154	0.3	153	154	450	0.4	449	451	19.9	62.8
2025-09-07T11:06	10	154	0.6	153	155	451	0.3	450	451	19.8	63.0
2025-09-07T11:07	10	154	0.4	153	155	451	0.5	451	453	19.9	62.8
2025-09-07T11:08	10	153	0.4	153	154	451	0.8	449	453	20.0	62.8
2025-09-07T11:09	10	155	0.5	154	156	452	1.3	449	454	20.0	62.4
2025-09-07T11:10	10	156	0.3	155	156	452	1.2	449	454	20.1	62.8
2025-09-07T11:11	10	156	0.3	155	156	452	1.1	450	454	20.2	60.7
2025-09-07T11:12	10	153	1.0	152	155	454	0.5	453	455	20.2	61.1
2025-09-07T11:13	10	156	1.1	154	158	456	0.8	454	457	20.5	63.7
2025-09-07T11:14	10	154	1.2	153	157	455	0.5	454	457	20.6	62.0
2025-09-07T11:15	10	155	1.0	153	157	456	0.4	455	456	20.5	62.1
2025-09-07T11:16	10	153	0.7	151	154	455	1.4	452	457	20.5	61.9
2025-09-07T11:17	10	153	1.1	151	155	452	0.8	450	453	20.2	61.5
2025-09-07T11:18	10	152	1.8	149	155	454	0.8	452	455	20.2	60.7
2025-09-07T11:19	10	149	0.5	148	150	453	0.6	452	454	20.2	61.0
2025-09-07T11:20	10	150	0.9	148	151	452	0.8	451	454	20.4	61.3
2025-09-07T11:21	10	150	1.4	148	152	452	0.4	451	453	20.4	61.8
2025-09-07T11:22	10	147	1.2	146	150	452	0.6	451	453	20.4	61.7
2025-09-07T11:23	10	152	1.3	149	154	453	0.4	452	454	20.5	61.8
2025-09-07T11:24	10	147	1.9	144	150	452	0.3	451	453	20.2	61.7
2025-09-07T11:25	10	149	2.1	146	152	452	0.6	451	453	20.3	61.6
2025-09-07T11:26	10	153	0.9	151	154	453	0.6	452	454	20.5	62.5
2025-09-07T11:27	10	151	0.5	149	152	455	0.9	453	456	20.8	61.8
2025-09-07T11:28	10	149	0.5	147	150	455	0.3	455	456	20.9	61.6
2025-09-07T11:29	10	148	1.0	146	149	456	0.6	455	457	21.0	59.2
2025-09-07T11:30	10	143	1.5	141	146	454	0.7	453	456	20.7	57.3
2025-09-07T11:31	10	142	0.4	141	143	454	0.3	454	455	20.7	57.5
2025-09-07T11:32	10	141	1.9	138	143	454	0.7	452	455	20.9	58.7
2025-09-07T11:33	10	144	2.5	140	148	451	1.3	449	453	20.8	58.4
2025-09-07T11:34	10	143	1.5	140	144	450	0.4	449	450	20.6	59.3
2025-09-07T11:35	10	144	0.5	143	145	451	0.7	450	452	20.5	58.7
2025-09-07T11:36	10	145	0.5	144	146	453	0.8	452	455	20.6	56.6
2025-09-07T11:37	10	144	0.9	142	146	454	0.4	453	455	20.9	57.9
2025-09-07T11:38	10	145	0.4	144	146	456	0.7	455	457	21.0	57.7
2025-09-07T11:39	10	143	1.0	142	145	456	1.4	453	457	21.2	59.8
2025-09-07T11:40	10	143	1.9	138	145	453	0.4	452	454	21.1	60.0
2025-09-07T11:41	10	138	1.2	136	140	452	0.8	451	454	21.1	59.6
2025-09-07T11:42	10	138	1.9	136	141	452	0.7	451	454	21.0	58.1
2025-09-07T11:43	10	142	1.6	140	144	454	0.9	453	456	21.0	60.3
2025-09-07T11:44	10	142	1.6	140	144	455	0.5	454	456	21.1	58.2
2025-09-07T11:45	10	142	2.1	139	145	455	0.6	454	456	21.0	57.7
2025-09-07T11:46	10	145	0.3	144	145	457	0.7	456	458	21.3	58.0
2025-09-07T11:47	10	143	0.4	143	144	457	0.3	457	458	21.6	58.5
2025-09-07T11:48	10	146	1.1	144	148	458	0.4	457	459	21.6	59.7
2025-09-07T11:49	10	147	0.5	146	148	456	2.2	453	459	21.5	58.8
2025-09-07T11:50	10	145	0.8	143	146	455	0.5	454	456	21.1	58.3
2025-09-07T11:51	10	142	2.1	137	144	456	0.3	455	457	21.5	60.0
2025-09-07T11:52	10	134	1.5	133	138	453	1.7	451	457	21.3	59.2
2025-09-07T11:53	10	136	1.9	133	138	453	1.0	451	454	21.1	59.1
2025-09-07T11:54	10	136	1.8	133	138	454	0.5	453	455	21.1	59.8
2025-09-07T11:55	10	141	1.7	139	143	453	0.6	452	454	21.2	59.3
2025-09-07T11:56	10	145	0.7	143	146	455	1.1	453	456	21.2	59.3
2025-09-07T11:57	10	144	2.4	141	148	457	0.9	456	459	21.4	60.8
2025-09-07T11:58	10	146	2.4	141	150	457	1.3	455	459	21.6	59.3
2025-09-07T11:59	10	152	0.7	150	154	456	0.6	456	458	21.3	59.0
2025-09-07T12:00	10	153	0.2	152	153	457	0.7	455	458	21.3	59.7
2025-09-07T12:01	10	153	0.3	153	154	457	0.8	456	459	21.4	60.3
2025-09-07T12:02	10	154	0.3	153	154	459	0.5	458	460	21.6	60.6
2025-09-07T12:03	10	154	0.4	153	154	457	1.1	455	459	21.5	60.5
2025-09-07T12:04	10	154	0.1	154	155	457	0.8	456	459	21.7	61.1
2025-09-07T12:05	10	154	0.2	154	155	458	0.8	456	459	21.4	59.7
2025-09-07T12:06	10	154	0.2	154	154	456	0.7	455	457	21.2	60.7
2025-09-07T12:07	10	153	0.5	152	154	455	1.0	453	456	21.2	61.3
2025-09-07T12:08	10	152	0.4	151	152	454	0.8	453	455	21.0	60.9
2025-09-07T12:09	10	151	1.0	150	153	457	1.1	455	459	21.1	61.9
2025-09-07T12:10	10	152	1.1	150	154	458	0.9	456	459	21.3	61.3
2025-09-07T12:11	10	154	0.1	154	154	460	0.6	459	461	21.4	61.6
2025-09-07T12:12	10	154	0.1	153	154	461	0.5	460	462	21.8	61.9
2025-09-07T12:13	10	153	0.1	153	154	461	0.5	460	462	22.2	63.4
2025-09-07T12:14	10	153	0.1	153	154	460	0.6	459	461	21.9	59.1
2025-09-07T12:15	10	154	0.1	153	154	462	0.5	461	463	22.2	61.9
2025-09-07T12:16	10	153	0.1	153	153	458	2.4	456	462	22.1	60.5
2025-09-07T12:17	10	153	0.1	153	153	457	0.3	457	458	21.7	60.0
2025-09-07T12:18	10	153	0.1	153	153	458	0.7	457	459	21.5	60.2
2025-09-07T12:19	10	153	0.1	153	153	460	0.5	459	461	21.5	60.4
2025-09-07T12:20	10	153	0.1	153	153	458	0.7	457	459	21.4	60.9
2025-09-07T12:21	10	153	0.1	152	153	459	0.9	457	461	21.5	62.1
2025-09-07T12:22	10	153	0.1	152	153	461	0.7	460	462	21.9	61.8
2025-09-07T12:23	10	153	0.2	152	153	459	1.2	458	462	21.7	61.0
2025-09-07T12:24	10	152	0.1	152	153	460	0.8	459	461	21.6	60.9
2025-09-07T12:25	10	152	0.1	152	153	461	0.3	460	461	21.6	60.9
2025-09-07T12:26	10	152	0.2	152	153	461	0.3	460	462	21.7	61.2
2025-09-07T12:27	10	152	0.1	152	153	461	0.4	460	462	21.9	60.1
2025-09-07T12:28	10	152	0.1	152	152	463	0.4	462	463	22.1	61.3
2025-09-07T12:29	10	152	0.1	152	152	461	0.7	460	462	22.0	60.8
2025-09-07T12:30	10	152	0.1	152	152	460	0.6	459	461	22.3	62.3
2025-09-07T12:31	10	152	0.2	151	152	458	1.1	456	460	22.2	60.9
2025-09-07T12:32	10	151	0.1	151	151	457	0.2	457	458	21.9	60.5
2025-09-07T12:33	10	151	0.1	151	151	457	1.0	456	459	21.8	60.6
2025-09-07T12:34	10	151	0.2	151	151	458	1.3	456	461	21.7	60.5
2025-09-07T12:35	10	151	0.1	150	151	461	0.5	460	462	22.0	61.5
2025-09-07T12:36	10	150	0.1	150	150	463	0.9	461	464	22.3	62.7
2025-09-07T12:37	10	149	0.3	149	150	462	1.3	460	464	22.5	60.3
2025-09-07T12:38	10	149	0.1	149	149	460	0.2	460	461	22.1	59.0
2025-09-07T12:39	10	149	0.1	149	149	461	0.3	460	462	22.3	59.4
2025-09-07T12:40	10	149	0.2	149	150	461	0.4	460	462	22.4	59.9
2025-09-07T12:41	10	149	0.1	149	149	460	1.0	459	462	22.4	58.9
2025-09-07T12:42	10	149	0.1	149	150	461	0.5	460	462	22.2	58.7
2025-09-07T12:43	10	149	0.2	149	150	459	0.7	458	461	22.2	59.6
2025-09-07T12:44	10	149	0.2	148	149	458	0.8	457	460	22.2	58.7
2025-09-07T12:45	10	149	0.2	148	149	460	0.5	459	461	22.1	59.6
2025-09-07T12:46	10	149	0.2	148	149	461	0.5	460	462	22.3	59.1
2025-09-07T12:47	10	149	0.1	148	149	460	0.2	460	461	22.1	58.9
2025-09-07T12:48	10	148	0.1	148	149	461	0.6	460	463	22.2	59.7
2025-09-07T12:49	10	148	0.2	148	149	462	0.7	460	463	22.5	59.7
2025-09-07T12:50	10	148	0.1	148	148	459	1.0	458	461	22.7	59.3
2025-09-07T12:51	10	147	0.1	147	148	459	0.7	457	460	22.4	59.6
2025-09-07T12:52	10	147	0.1	147	147	460	0.5	459	461	22.5	59.4
2025-09-07T12:53	10	147	0.1	146	147	461	0.8	460	463	22.6	59.6
2025-09-07T12:54	10	147	0.1	146	147	460	0.4	459	461	22.4	58.5
2025-09-07T12:55	10	147	0.1	146	147	461	0.8	459	462	22.3	58.7
2025-09-07T12:56	10	147	0.1	146	147	462	0.4	461	463	22.4	59.2
2025-09-07T12:57	10	147	0.1	147	147	462	0.4	461	463	22.5	58.1
2025-09-07T12:58	10	147	0.1	146	147	463	0.6	462	464	22.5	59.0
2025-09-07T12:59	10	147	0.1	146	147	463	1.2	461	465	22.7	58.5
2025-09-07T13:00	10	146	0.3	146	147	460	1.4	457	462	22.5	58.3
2025-09-07T13:01	10	146	0.2	145	146	461	0.9	459	462	22.6	58.5
2025-09-07T13:02	10	145	0.1	145	145	462	0.5	461	462	22.9	60.1
2025-09-07T13:03	10	145	0.1	145	145	462	0.8	461	464	23.1	58.7
2025-09-07T13:04	10	145	0.2	144	145	462	1.2	461	464	22.8	57.3
2025-09-07T13:05	10	145	0.1	144	145	462	0.4	461	463	22.9	59.2
2025-09-07T13:06	10	144	0.1	144	145	462	0.5	462	464	23.1	58.2
2025-09-07T13:07	10	144	0.1	144	144	462	0.3	462	463	23.1	57.5
2025-09-07T13:08	10	144	0.1	144	144	461	0.3	461	462	22.9	56.2
2025-09-07T13:09	10	144	0.3	143	144	462	0.7	461	463	22.9	57.3
2025-09-07T13:10	10	143	0.3	142	143	459	1.3	457	461	22.5	57.2
2025-09-07T13:11	10	142	0.6	141	143	461	0.8	458	462	22.7	58.2
2025-09-07T13:12	10	140	0.5	139	140	460	0.6	459	461	23.0	58.2
2025-09-07T13:13	10	138	0.3	137	139	460	1.5	457	462	23.0	57.2
2025-09-07T13:14	10	138	0.2	138	138	459	1.1	457	460	22.7	57.5
2025-09-07T13:15	10	137	0.5	136	138	460	0.3	459	460	22.8	57.7
2025-09-07T13:16	10	139	0.9	137	140	459	0.4	459	461	22.8	57.6
2025-09-07T13:17	10	140	0.1	140	140	460	0.5	460	461	22.9	57.3
2025-09-07T13:18	10	139	0.7	138	140	459	0.9	458	461	22.8	56.9
2025-09-07T13:19	10	138	0.4	138	139	457	0.7	456	458	22.6	56.5
2025-09-07T13:20	10	136	0.6	135	137	456	0.4	455	457	22.8	57.1
2025-09-07T13:21	10	139	0.8	137	140	457	0.3	456	458	22.8	56.0
2025-09-07T13:22	10	139	0.5	138	140	459	0.8	458	461	22.8	56.7
2025-09-07T13:23	10	138	0.3	137	138	459	0.4	459	460	22.8	56.7
2025-09-07T13:24	10	137	0.2	137	138	460	0.3	459	460	22.9	56.2
2025-09-07T13:25	10	137	0.5	136	138	459	0.4	459	460	23.0	56.4
2025-09-07T13:26	10	136	0.8	134	137	459	1.1	457	461	22.9	55.6
2025-09-07T13:27	10	133	0.3	133	134	459	1.1	457	461	22.9	56.1
2025-09-07T13:28	10	134	0.6	133	135	459	0.6	457	460	22.8	55.1
2025-09-07T13:29	10	135	0.2	134	135	459	0.4	458	460	22.9	56.0
2025-09-07T13:30	10	135	0.4	134	135	458	0.4	457	459	22.9	55.1
2025-09-07T13:31	10	136	0.4	135	136	460	0.7	458	461	23.1	56.4
2025-09-07T13:32	10	137	0.2	136	137	459	0.5	458	460	23.3	55.7
2025-09-07T13:33	10	137	0.5	136	138	460	0.9	458	461	23.4	56.4
2025-09-07T13:34	10	137	0.6	136	138	460	0.4	459	460	23.1	54.5
2025-09-07T13:35	10	139	0.2	138	139	460	0.6	459	461	23.3	56.7
2025-09-07T13:36	10	139	0.2	138	139	460	0.6	459	461	23.5	56.4
2025-09-07T13:37	10	138	0.2	138	139	458	0.4	457	459	23.4	54.3
2025-09-07T13:38	10	138	0.6	137	139	458	0.8	456	459	23.2	54.3
2025-09-07T13:39	10	135	0.7	134	137	457	0.6	456	458	23.2	54.3
2025-09-07T13:40	10	134	0.6	133	135	456	0.4	455	457	23.1	54.4
2025-09-07T13:41	10	134	0.5	133	135	458	0.5	456	459	23.2	54.8
2025-09-07T13:42	10	134	0.2	134	135	456	0.3	455	457	23.1	54.0
2025-09-07T13:43	10	135	0.4	134	135	459	1.1	457	461	23.1	54.3
2025-09-07T13:44	10	133	0.3	133	134	459	0.4	459	460	23.2	54.8
2025-09-07T13:45	10	133	0.5	132	133	460	0.3	460	461	23.5	56.1
2025-09-07T13:46	10	131	0.3	131	132	460	0.6	459	461	23.6	55.1
2025-09-07T13:47	10	131	0.4	130	132	459	0.5	458	460	23.7	54.5
2025-09-07T13:48	10	130	0.6	129	131	457	0.6	456	459	23.5	54.1
2025-09-07T13:49	10	129	0.2	128	129	457	0.3	456	457	23.4	53.8
2025-09-07T13:50	10	129	0.2	128	129	458	0.6	456	459	23.5	53.7
2025-09-07T13:51	10	128	0.2	128	129	457	0.8	456	459	23.4	53.7
2025-09-07T13:52	10	128	0.2	128	128	458	0.4	457	458	23.6	54.0
2025-09-07T13:53	10	128	0.1	127	128	455	1.3	454	459	23.3	53.3
2025-09-07T13:54	10	127	0.2	127	128	454	0.6	453	456	23.1	53.3
2025-09-07T13:55	10	127	0.1	127	127	456	0.4	455	457	23.4	54.2
2025-09-07T13:56	10	127	0.1	127	127	457	0.5	456	458	23.6	54.5
2025-09-07T13:57	10	126	0.3	126	127	457	0.4	456	457	23.5	54.1
2025-09-07T13:58	10	125	0.7	124	126	457	0.5	456	458	23.7	54.5
2025-09-07T13:59	10	124	0.2	123	124	457	0.3	456	457	23.5	53.2
2025-09-07T14:00	10	122	0.4	122	123	455	0.9	453	456	23.5	54.3
2025-09-07T14:01	10	121	0.3	121	122	456	0.9	454	457	23.6	54.2
2025-09-07T14:02	10	120	0.3	120	121	455	0.4	454	456	23.5	52.8
2025-09-07T14:03	10	120	0.2	119	120	456	0.7	455	457	23.4	53.7
2025-09-07T14:04	10	120	0.4	120	121	456	0.3	456	457	23.4	53.5
2025-09-07T14:05	10	120	0.1	120	121	457	0.3	456	457	23.4	53.0
2025-09-07T14:06	10	120	0.1	120	120	457	0.5	456	458	23.4	52.6
2025-09-07T14:07	10	120	0.2	120	120	458	0.4	457	458	23.5	52.8
2025-09-07T14:08	10	120	0.5	119	121	458	0.5	457	459	23.7	54.1
2025-09-07T14:09	10	121	0.2	121	121	458	0.3	457	458	23.7	52.6
2025-09-07T14:10	10	121	0.2	121	122	458	0.3	458	459	23.8	53.8
2025-09-07T14:11	10	120	0.3	120	121	456	0.6	455	458	23.7	52.6
2025-09-07T14:12	10	121	0.1	120	121	458	0.4	457	458	23.8	54.1
2025-09-07T14:13	10	121	0.9	120	123	457	0.4	456	458	23.8	52.8
2025-09-07T14:14	10	124	0.6	123	125	458	0.5	456	459	23.7	53.5
2025-09-07T14:15	10	122	0.3	122	123	455	0.5	454	456	23.6	53.2
2025-09-07T14:16	10	125	0.8	123	126	455	0.7	454	457	23.5	53.2
2025-09-07T14:17	10	126	0.5	125	127	458	0.6	456	459	23.7	54.0
2025-09-07T14:18	10	126	0.5	125	127	457	0.6	456	458	23.7	52.9
2025-09-07T14:19	10	125	0.3	125	126	457	0.9	455	458	23.7	53.8
2025-09-07T14:20	10	126	0.2	126	126	455	0.5	454	456	23.5	53.2
2025-09-07T14:21	10	123	1.6	120	125	457	0.4	456	458	23.5	54.2
2025-09-07T14:22	10	117	1.5	116	120	456	1.0	453	457	23.6	53.5
2025-09-07T14:23	10	117	1.3	116	120	454	0.5	453	455	23.6	53.8
2025-09-07T14:24	10	121	0.7	120	122	456	1.3	454	458	23.9	54.8
2025-09-07T14:25	10	123	0.4	122	123	458	0.4	458	459	24.2	54.7
2025-09-07T14:26	10	123	0.1	123	124	458	0.3	458	459	24.2	54.7
2025-09-07T14:27	10	125	0.4	124	125	458	0.3	458	459	24.0	53.2
2025-09-07T14:28	10	124	0.4	123	125	457	0.9	456	459	24.0	54.1
2025-09-07T14:29	10	123	0.2	123	123	458	0.3	457	459	24.0	54.3
2025-09-07T14:30	10	124	0.3	123	124	457	0.4	457	458	24.1	54.3
2025-09-07T14:31	10	124	0.3	123	124	459	0.3	458	459	24.3	54.6
2025-09-07T14:32	10	123	0.1	123	123	457	0.9	456	459	24.1	53.2
2025-09-07T14:33	10	123	0.1	123	123	456	0.9	454	458	23.9	53.4
2025-09-07T14:34	10	123	0.2	122	123	456	0.5	455	457	23.8	53.8
2025-09-07T14:35	10	122	0.2	122	122	456	0.4	455	456	23.9	53.4
2025-09-07T14:36	10	121	0.5	120	122	456	0.5	454	456	23.9	53.7
2025-09-07T14:37	10	119	0.7	118	120	456	0.6	455	457	24.1	53.8
2025-09-07T14:38	10	118	0.3	117	118	455	0.4	454	456	24.0	52.7
2025-09-07T14:39	10	116	1.8	112	118	455	0.6	454	456	24.2	53.5
2025-09-07T14:40	10	109	1.6	107	112	456	0.2	455	456	24.0	53.8
2025-09-07T14:41	10	107	0.2	106	107	455	0.4	454	456	24.1	54.8
2025-09-07T14:42	10	109	1.4	107	111	455	0.4	454	456	24.2	54.0
2025-09-07T14:43	10	113	0.6	111	113	454	0.4	453	454	24.0	53.2
2025-09-07T14:44	10	113	0.2	112	113	453	0.4	452	454	23.9	53.1
2025-09-07T14:45	10	112	0.3	111	112	454	0.5	453	455	23.8	53.3
2025-09-07T14:46	10	113	0.7	112	114	453	0.9	451	455	23.7	52.9
2025-09-07T14:47	10	113	0.5	113	114	451	0.3	450	451	23.6	53.3
2025-09-07T14:48	10	113	0.2	113	113	451	0.6	450	453	23.7	53.4
2025-09-07T14:49	10	114	0.4	113	115	453	0.4	452	454	23.8	54.1
2025-09-07T14:50	10	115	0.1	114	115	453	0.4	452	454	23.9	53.5
2025-09-07T14:51	10	115	0.1	114	115	454	0.4	453	454	23.8	53.9
2025-09-07T14:52	10	114	0.3	114	115	453	0.5	452	454	23.8	53.6
2025-09-07T14:53	10	113	0.2	113	114	453	0.3	453	454	23.9	54.4
2025-09-07T14:54	10	113	0.1	112	113	453	0.3	452	454	24.0	54.8
2025-09-07T14:55	10	113	0.1	112	113	452	0.5	451	453	24.0	54.3
2025-09-07T14:56	10	112	0.2	112	113	452	0.7	450	453	23.7	52.8
2025-09-07T14:57	10	112	0.2	111	112	451	0.5	450	452	23.6	53.0
2025-09-07T14:58	10	111	0.4	110	111	452	1.1	449	453	23.9	54.2
2025-09-07T14:59	10	110	0.5	109	110	450	0.4	449	450	23.7	53.7
2025-09-07T15:00	10	108	0.6	107	109	449	0.3	449	451	23.6	53.7
2025-09-07T15:01	10	107	0.3	107	108	449	0.6	448	450	23.6	53.8
2025-09-07T15:02	10	106	1.5	103	108	450	0.7	448	451	23.7	54.1
2025-09-07T15:03	10	101	0.6	101	103	449	0.3	448	449	23.7	55.8
2025-09-07T15:04	10	101	0.5	100	101	449	0.6	447	450	23.8	56.1
2025-09-07T15:05	10	99	0.5	98	100	447	0.5	447	449	23.9	55.7
2025-09-07T15:06	10	99	0.7	98	101	447	0.4	446	448	23.9	55.1
2025-09-07T15:07	10	102	0.3	101	102	447	0.3	446	448	23.6	53.5
2025-09-07T15:08	10	101	0.3	100	101	448	0.5	447	449	23.7	54.5
2025-09-07T15:09	10	101	0.2	100	101	449	0.4	448	449	23.9	54.5
2025-09-07T15:10	10	100	0.5	99	101	447	0.5	447	448	24.0	55.4
2025-09-07T15:11	10	98	0.5	97	99	446	0.8	445	447	23.8	55.0
2025-09-07T15:12	10	98	0.3	97	98	444	0.3	444	445	23.6	53.9
2025-09-07T15:13	10	96	1.3	94	98	446	0.7	444	447	23.6	54.5
2025-09-07T15:14	10	94	0.2	94	95	444	0.8	443	445	23.5	53.6
2025-09-07T15:15	10	96	1.1	94	98	444	1.1	442	446	23.5	54.4
2025-09-07T15:16	10	96	1.2	94	98	446	0.4	445	447	23.7	54.6
2025-09-07T15:17	10	96	1.0	94	97	446	0.3	445	447	23.6	53.9
2025-09-07T15:18	10	96	0.5	95	97	445	0.6	444	446	23.6	54.6
2025-09-07T15:19	10	97	0.5	96	97	445	0.3	444	446	23.6	54.9
2025-09-07T15:20	10	98	0.4	97	99	444	0.4	443	445	23.5	53.8
2025-09-07T15:21	10	99	0.2	98	99	445	0.5	444	446	23.5	54.3
2025-09-07T15:22	10	98	0.2	97	98	444	0.8	443	445	23.5	53.7
2025-09-07T15:23	10	97	0.3	97	98	443	0.2	442	443	23.6	53.8
2025-09-07T15:24	10	97	0.2	97	98	444	0.6	443	445	23.6	53.5
2025-09-07T15:25	10	97	0.3	97	98	445	0.4	444	446	23.7	53.4
2025-09-07T15:26	10	96	0.3	96	97	445	0.4	444	446	23.8	53.8
2025-09-07T15:27	10	96	0.2	95	96	444	0.3	443	445	23.6	53.1
2025-09-07T15:28	10	96	0.2	95	96	444	0.4	443	445	23.5	53.3
2025-09-07T15:29	10	95	0.3	95	96	445	0.6	444	446	23.6	53.8
2025-09-07T15:30	10	95	0.3	94	96	444	0.4	443	446	23.7	54.2
2025-09-07T15:31	10	94	0.2	94	95	443	0.4	443	444	23.6	52.5
2025-09-07T15:32	10	94	0.2	94	95	444	0.4	443	445	23.6	52.9
2025-09-07T15:33	10	94	0.2	93	94	444	0.3	443	444	23.6	53.0
2025-09-07T15:34	10	93	0.2	93	94	444	0.3	443	445	23.7	53.6
2025-09-07T15:35	10	92	0.3	92	93	445	0.4	444	445	23.8	54.2
2025-09-07T15:36	10	92	0.2	92	93	443	0.7	442	444	23.7	52.7
2025-09-07T15:37	10	92	0.2	91	92	443	0.6	442	444	23.9	54.0
2025-09-07T15:38	10	91	0.2	90	91	443	0.3	442	444	23.9	52.5
2025-09-07T15:39	10	90	0.2	90	91	443	0.2	442	443	23.8	52.6
2025-09-07T15:40	10	90	0.3	89	91	443	0.4	442	444	23.8	52.8
2025-09-07T15:41	10	89	0.2	89	90	442	0.3	441	443	23.8	52.4
2025-09-07T15:42	10	89	0.2	88	90	442	0.5	441	443	23.7	53.0
2025-09-07T15:43	10	88	0.4	87	89	443	0.5	442	444	23.8	52.8
2025-09-07T15:44	10	88	0.2	87	88	443	0.2	443	444	23.8	52.3
2025-09-07T15:45	10	87	0.2	86	87	443	0.3	442	444	23.9	52.1
2025-09-07T15:46	10	86	0.2	86	87	442	0.4	441	443	23.8	51.4
2025-09-07T15:47	10	86	0.4	85	87	442	0.3	442	443	23.8	51.2
2025-09-07T15:48	10	85	0.2	85	86	441	0.3	440	442	23.7	51.0
2025-09-07T15:49	10	85	0.3	84	85	441	0.5	440	442	23.8	51.5
2025-09-07T15:50	10	84	0.3	83	84	441	0.3	440	442	23.7	51.5
2025-09-07T15:51	10	83	0.2	82	83	441	0.3	440	441	23.9	52.0
2025-09-07T15:52	10	83	0.2	82	83	441	0.3	440	442	24.0	52.2
2025-09-07T15:53	10	82	0.4	81	83	440	0.8	438	441	23.9	51.4
2025-09-07T15:54	10	81	0.2	81	82	439	0.4	438	439	23.8	51.2
2025-09-07T15:55	10	81	0.2	80	82	439	0.5	438	440	23.8	51.5
2025-09-07T15:56	10	80	0.1	80	81	440	0.3	439	440	23.8	51.5
2025-09-07T15:57	10	80	0.2	80	80	440	0.4	440	441	23.8	51.4
2025-09-07T15:58	10	80	0.2	79	80	440	0.4	439	441	23.9	51.3
2025-09-07T15:59	10	79	0.2	79	80	439	0.2	439	440	23.9	51.7
2025-09-07T16:00	10	79	0.2	78	79	438	0.5	437	439	23.8	51.0
2025-09-07T16:01	10	78	0.3	77	78	439	0.4	438	439	23.9	51.7
2025-09-07T16:02	10	77	0.3	76	77	439	0.4	438	440	24.0	51.0
2025-09-07T16:03	10	76	0.2	76	77	438	0.3	437	439	23.9	51.2
2025-09-07T16:04	10	75	0.2	75	76	439	0.2	438	439	24.0	51.6
2025-09-07T16:05	10	75	0.3	74	75	439	0.3	438	439	24.0	51.5
2025-09-07T16:06	10	74	0.2	73	75	438	0.4	437	439	23.9	50.7
2025-09-07T16:07	10	73	0.2	73	74	437	0.3	437	438	23.9	51.5
2025-09-07T16:08	10	73	0.2	72	73	438	0.3	437	439	24.0	52.3
2025-09-07T16:09	10	73	0.2	72	73	438	0.3	438	439	24.0	52.0
2025-09-07T16:10	10	72	0.2	72	72	438	0.7	436	439	24.0	51.3
2025-09-07T16:11	10	71	0.4	71	73	437	0.3	436	437	23.9	50.6
2025-09-07T16:12	10	71	0.3	70	72	437	0.5	436	438	23.8	50.7
2025-09-07T16:13	10	70	0.3	69	71	437	0.7	436	438	23.8	50.9
2025-09-07T16:14	10	69	0.2	69	70	436	0.3	435	437	23.7	50.8
2025-09-07T16:15	10	69	0.2	68	69	436	0.3	435	437	23.7	50.7
2025-09-07T16:16	10	68	0.3	67	69	436	0.4	435	438	23.8	50.9
2025-09-07T16:17	10	68	0.1	67	68	436	0.3	435	437	23.9	50.9
2025-09-07T16:18	10	67	0.2	66	67	436	0.2	436	436	24.0	51.5
2025-09-07T16:19	10	66	0.3	66	67	436	0.2	436	437	24.0	51.6
2025-09-07T16:20	10	65	0.2	65	66	436	0.3	435	437	24.0	51.1
2025-09-07T16:21	10	65	0.2	64	65	436	0.3	435	437	24.0	51.6
2025-09-07T16:22	10	64	0.2	64	65	436	0.4	435	436	24.0	51.3
2025-09-07T16:23	10	64	0.2	63	64	435	0.3	435	436	23.9	51.2
2025-09-07T16:24	10	63	0.2	63	64	435	0.3	435	436	23.9	51.6
2025-09-07T16:25	10	62	0.2	62	63	434	0.4	434	435	23.9	51.3
2025-09-07T16:26	10	62	0.2	61	62	434	0.4	433	435	23.8	50.7
2025-09-07T16:27	10	61	0.2	61	61	433	0.4	432	434	23.8	50.8
2025-09-07T16:28	10	60	0.2	60	61	432	0.2	432	433	23.8	50.7
2025-09-07T16:29	10	60	0.2	59	60	432	0.2	432	433	23.9	51.5
2025-09-07T16:30	10	59	0.3	59	59	432	0.2	432	432	23.9	52.0
2025-09-07T16:31	10	58	0.2	58	59	432	0.2	431	433	23.8	51.7
2025-09-07T16:32	10	58	0.2	57	58	431	0.3	431	432	23.8	51.2
2025-09-07T16:33	10	57	0.2	57	58	431	0.2	431	431	23.8	51.4
2025-09-07T16:34	10	57	0.2	56	57	431	0.2	430	431	23.8	51.6
2025-09-07T16:35	10	56	0.3	56	57	431	0.3	430	431	23.8	52.9
2025-09-07T16:36	10	55	0.3	55	56	431	0.2	430	432	23.8	52.7
2025-09-07T16:37	10	54	0.2	54	55	430	0.4	429	431	23.7	51.5
2025-09-07T16:38	10	54	0.2	54	54	430	0.2	429	430	23.6	51.8
2025-09-07T16:39	10	53	0.1	53	54	429	0.3	429	430	23.6	51.6
2025-09-07T16:40	10	53	0.2	52	53	429	0.2	429	429	23.6	51.7
2025-09-07T16:41	10	52	0.3	52	53	429	0.3	428	429	23.6	51.8
2025-09-07T16:42	10	51	0.3	51	52	428	0.3	428	429	23.6	51.8
2025-09-07T16:43	10	50	0.3	50	51	428	0.3	427	429	23.6	52.8
2025-09-07T16:44	10	50	0.2	49	50	428	0.3	428	429	23.6	52.4
2025-09-07T16:45	10	49	0.2	49	50	428	0.2	428	428	23.6	53.1
2025-09-07T16:46	10	48	0.4	47	49	428	0.3	427	428	23.6	53.2
2025-09-07T16:47	10	47	0.2	47	48	427	0.3	427	428	23.6	52.7
2025-09-07T16:48	10	47	0.2	46	47	427	0.3	426	428	23.5	54.1
2025-09-07T16:49	10	46	0.3	46	47	427	0.3	427	428	23.5	54.8
2025-09-07T16:50	10	46	0.3	45	46	427	0.3	426	427	23.5	53.6
2025-09-07T16:51	10	45	0.3	44	45	426	0.2	426	427	23.5	52.2
2025-09-07T16:52	10	44	0.3	43	45	426	0.3	425	426	23.5	52.8
2025-09-07T16:53	10	43	0.3	43	44	426	0.3	425	426	23.5	53.3
2025-09-07T16:54	10	43	0.2	42	43	426	0.3	425	426	23.5	54.2
2025-09-07T16:55	10	42	0.2	41	43	425	0.4	424	426	23.5	54.2
2025-09-07T16:56	10	41	0.3	41	42	426	0.3	425	426	23.5	54.8
2025-09-07T16:57	10	41	0.3	40	41	426	0.2	425	426	23.4	54.9
2025-09-07T16:58	10	40	0.3	39	41	425	0.3	424	426	23.4	54.6
2025-09-07T16:59	10	39	0.2	38	40	425	0.2	424	426	23.4	54.1
2025-09-07T17:00	10	38	0.3	38	39	425	0.3	424	425	23.4	54.3
2025-09-07T17:01	10	38	0.2	37	38	424	0.3	423	424	23.3	55.7
2025-09-07T17:02	10	37	0.3	36	37	423	0.3	422	424	23.3	53.4
2025-09-07T17:03	10	36	0.3	35	37	423	0.4	422	423	23.3	53.5
2025-09-07T17:04	10	35	0.3	35	36	422	0.3	421	423	23.3	53.9
2025-09-07T17:05	10	34	0.3	34	35	422	0.3	421	422	23.3	52.9
2025-09-07T17:06	10	34	0.4	33	34	421	0.3	421	422	23.3	53.3
2025-09-07T17:07	10	33	0.3	32	34	421	0.3	420	422	23.3	53.5
2025-09-07T17:08	10	32	0.3	32	33	421	0.3	420	422	23.3	54.1
2025-09-07T17:09	10	31	0.3	31	32	421	0.2	420	421	23.3	54.5
2025-09-07T17:10	10	31	0.3	30	31	420	0.2	420	421	23.2	55.1
2025-09-07T17:11	10	30	0.3	29	31	420	0.2	420	421	23.2	55.2
2025-09-07T17:12	10	29	0.3	28	30	420	0.3	419	421	23.2	55.3
2025-09-07T17:13	10	28	0.4	27	29	420	0.3	419	420	23.2	54.9
2025-09-07T17:14	10	27	0.3	27	28	419	0.2	419	420	23.1	55.0
2025-09-07T17:15	10	26	0.3	26	27	419	0.3	418	419	23.1	54.6
2025-09-07T17:16	10	25	0.8	23	26	419	0.3	418	419	23.1	54.6
2025-09-07T17:17	10	19	2.3	15	23	418	0.3	417	419	23.1	55.0
2025-09-07T17:18	10	13	1.3	11	15	417	0.3	416	418	23.1	55.0
2025-09-07T17:19	10	9	0.8	8	11	416	0.4	416	417	23.1	55.6
2025-09-07T17:20	10	7	0.6	6	8	415	0.3	414	416	23.0	54.9
2025-09-07T17:21	10	5	0.3	5	6	415	0.2	414	415	23.0	53.6
2025-09-07T17:22	10	5	0.2	4	5	414	0.2	414	415	23.0	54.2
2025-09-07T17:23	10	4	0.1	4	4	414	0.2	414	415	23.0	54.7
2025-09-07T17:24	10	4	0.1	4	4	413	0.5	412	414	22.9	55.9
2025-09-07T17:25	10	4	0.1	4	4	412	0.3	412	413	22.7	58.7
2025-09-07T17:26	10	4	0.2	3	4	412	0.2	412	412	22.6	59.9
2025-09-07T17:27	10	3	0.1	3	4	412	0.3	411	412	22.6	60.0
2025-09-07T17:28	10	3	0.1	3	3	412	0.2	411	412	22.5	60.4
2025-09-07T17:29	10	3	0.2	3	3	411	0.4	410	412	22.5	60.4
2025-09-07T17:30	10	2	0.2	2	3	410	0.3	410	411	22.5	60.5
2025-09-07T17:31	10	2	0.1	2	2	410	0.2	409	410	22.4	60.9
2025-09-07T17:32	10	2	0.1	2	2	409	0.3	408	409	22.4	60.5
2025-09-07T17:33	10	2	0.1	1	2	408	0.2	408	409	22.3	61.7
2025-09-07T17:34	10	2	0.1	2	2	408	0.2	407	408	22.2	62.5
2025-09-07T17:35	10	2	0.1	1	2	408	0.2	407	408	22.1	62.9
2025-09-07T17:36	10	1	0.1	1	2	407	0.2	406	407	22.1	63.1
2025-09-07T17:37	10	1	0.1	1	2	406	0.3	405	407	22.0	63.3
2025-09-07T17:38	10	2	0.1	1	2	406	0.3	405	406	22.0	63.4
2025-09-07T17:39	10	2	0.2	1	2	405	0.3	404	406	21.9	63.6
2025-09-07T17:40	10	2	0.1	2	2	404	0.2	404	405	21.9	63.4
2025-09-07T17:41	10	2	0.1	2	2	404	0.2	403	405	21.9	63.0
2025-09-07T17:42	10	2	0.1	1	2	404	0.2	403	404	21.9	63.5
2025-09-07T17:43	10	1	0.1	1	2	403	0.2	403	404	21.9	63.0
2025-09-07T17:44	10	1	0.1	1	1	403	0.2	402	403	21.8	63.5
2025-09-07T17:45	10	1	0.1	1	1	403	0.2	402	403	21.9	63.1
2025-09-07T17:46	10	1	0.1	1	2	402	0.2	402	403	21.8	64.1
2025-09-07T17:47	10	1	0.1	1	1	402	0.3	402	403	21.7	64.4
2025-09-07T17:48	10	1	0.1	1	1	403	0.3	402	403	21.6	64.6
2025-09-07T17:49	10	1	0.1	1	1	403	0.3	403	404	21.6	64.3
2025-09-07T17:50	10	1	0.1	1	1	403	0.2	402	403	21.6	64.4
2025-09-07T17:51	10	1	0.1	1	1	403	0.2	402	403	21.5	64.5
2025-09-07T17:52	10	1	0.1	1	1	402	0.2	402	403	21.5	64.5
2025-09-07T17:53	10	1	0.1	1	1	402	0.3	401	402	21.5	64.6
2025-09-07T17:54	10	1	0.2	1	2	401	0.3	400	401	21.2	67.1
2025-09-07T17:55	10	1	0.1	1	1	401	0.3	400	401	21.0	67.6
2025-09-07T17:56	10	1	0.2	0	1	400	0.2	400	401	21.1	66.1
2025-09-07T17:57	10	1	0.2	0	1	399	0.3	398	400	21.2	65.5
2025-09-07T17:58	10	1	0.1	0	1	398	0.4	398	399	20.9	67.7
2025-09-07T17:59	10	1	0.2	0	1	398	0.3	397	398	20.7	69.6
2025-09-07T18:00	10	0	0.2	0	1	397	0.2	396	397	20.5	70.5
2025-09-07T18:01	10	0	0.1	0	1	397	0.4	396	397	20.4	71.5
2025-09-07T18:02	10	0	0.1	0	1	397	0.2	396	397	20.4	70.2
2025-09-07T18:03	10	0	0.1	0	0	396	0.4	395	397	20.5	70.3
2025-09-07T18:04	10	0	0.1	0	0	396	0.3	396	397	20.4	70.0
2025-09-07T18:05	10	0	0.1	0	0	396	0.3	396	397	20.5	69.6
2025-09-07T18:06	10	0	0.1	0	0	396	0.3	396	397	20.5	70.3
2025-09-07T18:07	10	0	0.1	0	0	396	0.3	396	397	20.5	70.0
2025-09-07T18:08	10	0	0.1	0	0	396	0.4	395	397	20.6	68.9
2025-09-07T18:09	10	1	0.1	0	1	395	0.2	395	396	20.5	70.1
2025-09-07T18:10	10	0	0.1	0	0	395	0.2	395	396	20.4	71.1
2025-09-07T18:11	10	0	0.1	0	0	395	0.3	394	395	20.2	71.6
2025-09-07T18:12	10	0	0.1	0	0	394	0.3	394	395	20.2	71.3
2025-09-07T18:13	10	0	0.1	0	0	394	0.3	393	395	20.1	71.6
2025-09-07T18:14	10	0	0.1	0	0	393	0.3	393	394	20.0	72.4
2025-09-07T18:15	10	0	0.1	0	0	393	0.3	392	394	19.9	72.9
2025-09-07T18:16	10	0	0.1	0	0	393	0.4	393	394	19.8	72.9
2025-09-07T18:17	10	0	0.1	0	0	394	0.2	393	394	19.9	72.1
2025-09-07T18:18	10	0	0.1	0	0	394	0.3	393	394	20.0	71.8
2025-09-07T18:19	10	0	0.1	0	0	393	0.2	393	394	20.1	71.5
2025-09-07T18:20	10	0	0.1	0	0	393	0.2	393	394	20.0	71.8
2025-09-07T18:21	10	0	0.1	0	0	393	0.2	393	394	20.0	72.0
2025-09-07T18:22	10	0	0.1	0	0	393	0.3	392	394	19.9	72.3
2025-09-07T18:23	10	0	0.1	0	0	393	0.3	392	394	19.8	72.7
2025-09-07T18:24	10	0	0.1	0	0	393	0.3	393	394	19.8	72.6
2025-09-07T18:25	10	0	0.1	0	0	394	0.3	393	394	19.8	72.3
2025-09-07T18:26	10	0	0.1	0	0	394	0.2	393	394	19.7	72.9
2025-09-07T18:27	10	0	0.0	0	0	394	0.2	394	394	19.6	73.9
2025-09-07T18:28	10	0	0.1	0	0	394	0.2	393	394	19.5	73.7
2025-09-07T18:29	10	0	0.1	0	1	394	0.2	393	394	19.5	73.6
2025-09-07T18:30	10	0	0.2	0	1	394	0.2	393	394	19.6	73.6
2025-09-07T18:31	10	0	0.2	0	1	393	0.2	392	394	19.6	74.7
2025-09-07T18:32	10	0	0.2	0	1	392	0.2	392	393	19.5	75.5
2025-09-07T18:33	10	0	0.2	0	1	392	0.3	391	393	19.4	76.0
2025-09-07T18:34	10	0	0.2	0	1	392	0.2	391	392	19.3	76.5
2025-09-07T18:35	10	0	0.1	0	1	391	0.2	390	392	19.2	77.4
2025-09-07T18:36	10	0	0.1	0	1	391	0.3	390	391	19.2	77.4
2025-09-07T18:37	10	0	0.1	0	1	391	0.2	391	391	19.2	76.7
2025-09-07T18:38	10	0	0.1	0	0	392	0.3	391	392	19.2	77.0
2025-09-07T18:39	10	0	0.1	0	0	392	0.4	391	392	19.3	75.7
2025-09-07T18:40	10	0	0.1	0	0	392	0.2	391	392	19.5	74.2
2025-09-07T18:41	10	0	0.1	0	1	392	0.2	391	392	19.4	75.3
2025-09-07T18:42	10	0	0.1	0	1	391	0.3	390	392	19.2	77.4
2025-09-07T18:43	10	0	0.1	0	1	391	0.2	391	392	19.1	78.0
2025-09-07T18:44	10	0	0.1	0	0	391	0.3	391	392	19.1	78.0
2025-09-07T18:45	10	0	0.1	0	1	391	0.4	391	392	19.0	77.9
2025-09-07T18:46	10	0	0.1	0	1	391	0.2	390	391	19.0	76.6
2025-09-07T18:47	10	0	0.0	0	1	391	0.3	390	391	19.0	75.7
2025-09-07T18:48	10	0	0.1	0	1	390	0.2	390	391	18.9	75.7
2025-09-07T18:49	10	0	0.1	0	1	390	0.3	389	390	18.9	76.3
2025-09-07T18:50	10	0	0.1	0	1	389	0.3	389	390	18.7	77.9
2025-09-07T18:51	10	0	0.1	0	1	389	0.2	388	389	18.5	79.2
2025-09-07T18:52	10	0	0.1	0	1	389	0.2	388	389	18.4	79.3
2025-09-07T18:53	10	0	0.1	0	1	389	0.3	388	389	18.4	79.1
2025-09-07T18:54	10	0	0.1	0	1	390	0.5	389	391	18.4	78.7
2025-09-07T18:55	10	0	0.1	0	1	390	0.2	389	390	18.5	78.0
2025-09-07T18:56	10	0	0.1	0	1	390	0.3	389	390	18.5	77.1
2025-09-07T18:57	10	0	0.1	0	1	389	0.2	389	390	18.5	76.8
2025-09-07T18:58	10	0	0.1	0	1	389	0.2	389	390	18.5	77.1
2025-09-07T18:59	10	0	0.1	0	1	389	0.2	388	389	18.5	77.3
2025-09-07T19:00	10	0	0.1	0	0	389	0.2	388	389	18.5	77.2
2025-09-07T19:01	10	0	0.1	0	0	388	0.2	388	389	18.4	77.7
2025-09-07T19:02	10	0	0.1	0	0	388	0.2	388	389	18.4	78.3
2025-09-07T19:03	10	0	0.0	0	0	388	0.2	388	389	18.4	78.6
2025-09-07T19:04	10	0	0.1	0	1	388	0.3	388	389	18.4	77.4
2025-09-07T19:05	10	0	0.1	0	0	389	0.3	388	390	18.6	75.7
2025-09-07T19:06	10	0	0.1	0	0	389	0.2	389	389	18.9	74.4
2025-09-07T19:07	10	0	0.0	0	0	389	0.3	388	390	19.0	73.8
2025-09-07T19:08	10	0	0.1	0	0	389	0.3	388	389	19.1	73.2
2025-09-07T19:09	10	0	0.1	0	0	388	0.5	387	389	18.9	74.2
2025-09-07T19:10	10	0	0.1	0	0	387	0.3	387	388	18.7	75.9
2025-09-07T19:11	10	0	0.0	0	0	388	0.2	387	388	18.6	76.3
2025-09-07T19:12	10	0	0.1	0	0	388	0.3	388	389	18.5	76.3
2025-09-07T19:13	10	0	0.0	0	0	389	0.3	389	390	18.5	76.5
2025-09-07T19:14	10	0	0.0	0	0	389	0.4	389	390	18.4	76.7
2025-09-07T19:15	10	0	0.1	0	1	390	0.3	389	391	18.5	76.2
2025-09-07T19:16	10	0	0.1	0	1	390	0.3	389	391	18.5	76.0
2025-09-07T19:17	10	0	0.1	0	1	389	0.4	388	390	18.4	77.0
2025-09-07T19:18	10	0	0.1	0	1	389	0.2	388	389	18.3	77.8
2025-09-07T19:19	10	0	0.1	0	1	388	0.2	388	389	18.3	77.8
2025-09-07T19:20	10	0	0.1	0	1	388	0.3	387	389	18.3	77.3
2025-09-07T19:21	10	0	0.1	0	1	388	0.3	387	388	18.3	78.3
2025-09-07T19:22	10	0	0.1	0	1	387	0.2	387	388	18.2	79.0
2025-09-07T19:23	10	0	0.1	0	1	387	0.3	387	388	18.2	78.6
2025-09-07T19:24	10	0	0.1	0	1	388	0.3	387	388	18.3	78.1
2025-09-07T19:25	10	0	0.0	0	0	388	0.3	387	389	18.5	77.9
2025-09-07T19:26	10	0	0.1	0	0	388	0.3	387	389	18.4	77.9
2025-09-07T19:27	10	0	0.1	0	0	388	0.2	388	389	18.4	77.7
2025-09-07T19:28	10	0	0.1	0	0	388	0.3	388	389	18.3	78.3
2025-09-07T19:29	10	0	0.0	0	1	388	0.2	387	388	18.0	79.9
2025-09-07T19:30	10	0	0.1	0	1	388	0.5	387	389	17.8	81.1
2025-09-07T19:31	10	0	0.1	0	1	388	0.4	387	389	18.1	80.4
2025-09-07T19:32	10	0	0.1	0	0	389	0.5	388	390	18.3	80.2
2025-09-07T19:33	10	0	0.0	0	0	389	0.3	388	389	18.4	80.3
2025-09-07T19:34	10	0	0.1	0	1	389	0.3	388	389	18.4	80.2
2025-09-07T19:35	10	0	0.0	0	0	389	0.3	388	389	18.5	80.1
2025-09-07T19:36	10	0	0.1	0	0	388	0.3	387	388	18.5	79.8
2025-09-07T19:37	10	0	0.0	0	0	387	0.2	387	388	18.4	79.5
2025-09-07T19:38	10	1	1.1	0	7	387	0.5	386	388	18.5	79.6
2025-09-07T19:39	10	0	0.1	0	1	387	0.3	386	388	18.4	79.7
2025-09-07T19:40	10	0	0.1	0	1	387	0.3	386	387	18.3	80.0
2025-09-07T19:41	10	0	0.0	0	0	387	0.2	386	387	18.4	79.5
2025-09-07T19:42	10	0	0.1	0	0	386	0.3	386	387	18.4	79.3
2025-09-07T19:43	10	0	0.1	0	0	386	0.2	386	387	18.3	80.0
2025-09-07T19:44	10	0	0.1	0	0	386	0.3	386	387	18.3	80.3
2025-09-07T19:45	10	0	0.1	0	0	387	0.3	386	387	18.4	80.0
2025-09-07T19:46	10	0	0.1	0	1	387	0.3	386	388	18.4	79.9
2025-09-07T19:47	10	0	0.1	0	1	387	0.2	387	388	18.4	80.1
2025-09-07T19:48	10	0	0.1	0	1	387	0.4	386	388	18.3	80.4
2025-09-07T19:49	10	0	0.1	0	1	387	0.3	387	388	18.3	80.4
2025-09-07T19:50	10	0	0.1	0	1	387	0.2	387	388	18.3	80.4
2025-09-07T19:51	10	0	0.1	0	1	387	0.2	386	388	18.2	80.8
2025-09-07T19:52	10	0	0.1	0	1	387	0.3	387	388	18.1	81.0
2025-09-07T19:53	10	0	0.1	0	0	387	0.3	387	388	18.2	80.8
2025-09-07T19:54	10	0	0.1	0	0	387	0.4	387	388	18.2	80.7
2025-09-07T19:55	10	0	0.1	0	1	387	0.3	386	388	18.3	80.3
2025-09-07T19:56	10	0	0.1	0	0	387	0.3	386	388	18.3	80.1
2025-09-07T19:57	10	0	0.1	0	0	388	0.3	387	388	18.2	80.5
2025-09-07T19:58	10	0	0.1	0	0	387	0.3	386	388	18.1	80.5
2025-09-07T19:59	10	0	0.1	0	1	386	0.4	386	387	18.0	81.0
2025-09-07T20:00	10	0	0.1	0	1	386	0.4	385	387	17.8	81.9
2025-09-07T20:01	10	0	0.1	0	1	386	0.3	385	386	17.6	83.0
2025-09-07T20:02	10	0	0.1	0	1	386	0.3	385	387	17.6	83.1
2025-09-07T20:03	10	0	0.1	0	0	386	0.2	386	387	17.7	82.4
2025-09-07T20:04	10	0	0.1	0	0	386	0.4	385	387	17.8	82.2
2025-09-07T20:05	10	0	0.1	0	0	386	0.3	385	387	17.9	81.4
2025-09-07T20:06	10	0	0.1	0	0	386	0.3	385	387	18.0	81.1
2025-09-07T20:07	10	0	0.1	0	0	386	0.3	385	386	18.0	80.7
2025-09-07T20:08	10	0	0.1	0	0	386	0.3	385	387	18.1	80.3
2025-09-07T20:09	10	0	0.1	0	0	386	0.3	385	386	18.1	80.3
2025-09-07T20:10	10	0	0.0	0	0	386	0.3	385	386	18.1	80.2
2025-09-07T20:11	10	0	0.0	0	0	386	0.3	385	387	18.1	80.4
2025-09-07T20:12	10	0	0.0	0	0	386	0.3	386	387	18.0	81.0
2025-09-07T20:13	10	0	0.0	0	0	386	0.2	386	387	18.0	80.9
2025-09-07T20:14	10	0	0.0	0	0	387	0.2	386	387	17.8	81.5
2025-09-07T20:15	10	0	0.0	0	0	387	0.3	386	388	17.6	82.4
2025-09-07T20:16	10	0	0.1	0	0	387	0.2	386	387	17.4	83.6
2025-09-07T20:17	10	0	0.1	0	1	387	0.2	386	387	17.3	83.9
2025-09-07T20:18	10	0	0.1	0	1	387	0.4	386	388	17.3	83.7
2025-09-07T20:19	10	0	0.2	0	1	387	0.3	387	388	17.4	83.4
2025-09-07T20:20	10	0	0.1	0	1	387	0.4	386	388	17.3	82.0
2025-09-07T20:21	10	0	0.1	0	1	387	0.3	386	387	17.4	83.4
2025-09-07T20:22	10	0	0.1	0	1	387	0.3	386	387	17.4	83.4
2025-09-07T20:23	10	0	0.1	0	1	386	0.3	385	387	17.4	79.2
2025-09-07T20:24	10	0	0.2	0	1	386	0.4	385	387	17.4	83.4
2025-09-07T20:25	10	0	0.2	0	1	386	0.3	385	387	17.4	83.4
2025-09-07T20:26	10	0	0.2	0	1	386	0.3	385	387	17.4	83.4
2025-09-07T20:27	10	0	0.1	0	1	386	0.4	385	387	17.1	84.7
2025-09-07T20:28	10	0	0.2	0	1	386	0.3	386	387	17.0	85.4
2025-09-07T20:29	10	0	0.2	0	1	386	0.2	386	387	17.1	85.9
2025-09-07T20:30	10	0	0.2	0	1	386	0.3	386	387	17.1	86.0
2025-09-07T20:31	10	0	0.2	0	1	386	0.3	385	386	17.0	86.6
2025-09-07T20:32	10	0	0.2	0	1	385	0.3	385	386	17.0	86.9
2025-09-07T20:33	10	0	0.1	0	0	386	0.5	385	387	17.1	86.7
2025-09-07T20:34	10	0	0.1	0	0	387	0.6	386	388	17.2	86.1
2025-09-07T20:35	10	0	0.1	0	1	388	0.6	387	389	17.2	86.2
2025-09-07T20:36	10	0	0.2	0	1	390	0.4	388	390	17.2	86.2
2025-09-07T20:37	10	0	0.1	0	1	390	0.3	389	390	17.2	86.3
2025-09-07T20:38	10	0	0.2	0	1	390	0.3	390	391	17.2	86.2
2025-09-07T20:39	10	0	0.2	0	1	390	0.3	390	391	17.2	86.2
2025-09-07T20:40	10	0	0.2	0	1	390	0.3	389	391	17.1	86.2
2025-09-07T20:41	10	0	0.1	0	1	391	0.2	390	392	17.1	86.2
2025-09-07T20:42	10	0	0.1	0	1	391	0.2	390	391	17.1	86.2
2025-09-07T20:43	10	0	0.1	0	1	390	0.2	390	391	17.0	86.9
2025-09-07T20:44	10	0	0.1	0	1	390	0.3	389	391	16.9	87.4
2025-09-07T20:45	10	0	0.1	0	1	389	0.2	389	389	16.9	87.1
2025-09-07T20:46	10	0	0.1	0	1	389	0.2	388	389	17.0	86.7
2025-09-07T20:47	10	0	0.1	0	1	389	0.2	389	390	17.0	86.6
2025-09-07T20:48	10	0	0.0	0	0	390	0.2	389	390	17.0	86.9
2025-09-07T20:49	10	0	0.1	0	1	390	0.2	390	390	17.0	86.9
2025-09-07T20:50	10	0	0.1	0	0	390	0.3	389	391	17.0	86.6
2025-09-07T20:51	10	0	0.1	0	1	390	0.2	390	391	17.1	86.3
2025-09-07T20:52	10	0	0.1	0	1	391	0.2	390	391	17.1	86.3
2025-09-07T20:53	10	0	0.1	0	1	391	0.2	390	391	17.0	86.3
2025-09-07T20:54	10	0	0.1	0	1	391	0.2	390	391	17.0	86.4
2025-09-07T20:55	10	0	0.1	0	1	391	0.2	391	392	17.0	86.2
2025-09-07T20:56	10	0	0.1	0	0	391	0.3	390	391	17.0	86.1
2025-09-07T20:57	10	0	0.1	0	1	391	0.2	391	392	17.0	86.0
2025-09-07T20:58	10	0	0.1	0	1	391	0.2	390	392	17.1	85.4
2025-09-07T20:59	10	0	0.1	0	1	391	0.3	391	392	17.2	85.2
2025-09-07T21:00	10	0	0.1	0	1	392	0.2	391	392	17.2	84.8
2025-09-07T21:01	10	0	0.1	0	1	391	0.2	390	392	17.1	85.0
2025-09-07T21:02	10	0	0.1	0	1	391	0.2	391	392	17.2	84.8
2025-09-07T21:03	10	0	0.1	0	1	391	0.2	390	392	17.1	85.1
2025-09-07T21:04	10	0	0.1	0	1	391	0.3	390	391	17.0	85.3
2025-09-07T21:05	10	0	0.1	0	1	391	0.3	390	391	17.0	85.4
2025-09-07T21:06	10	0	0.1	0	1	390	0.2	390	391	16.9	86.4
2025-09-07T21:07	10	0	0.1	0	1	390	0.2	390	391	16.9	86.5
2025-09-07T21:08	10	0	0.1	0	0	390	0.2	390	390	16.9	86.5
2025-09-07T21:09	10	0	0.1	0	0	390	0.2	389	390	16.9	86.3
2025-09-07T21:10	10	0	0.1	0	0	390	0.3	389	391	16.9	86.1
2025-09-07T21:11	10	0	0.1	0	0	390	0.2	389	390	16.9	86.3
2025-09-07T21:12	10	0	0.1	0	1	390	0.2	389	391	16.9	86.6
2025-09-07T21:13	10	0	0.1	0	0	391	0.3	390	391	17.0	85.6
2025-09-07T21:14	10	0	0.1	0	0	390	0.2	390	391	17.1	84.9
2025-09-07T21:15	10	0	0.1	0	1	390	0.3	390	391	17.0	84.8
2025-09-07T21:16	10	0	0.1	0	1	390	0.2	389	390	17.1	84.1
2025-09-07T21:17	10	0	0.1	0	0	390	0.3	389	390	17.1	84.3
2025-09-07T21:18	10	0	0.1	0	0	390	0.2	389	390	17.0	84.6
2025-09-07T21:19	10	0	0.1	0	1	389	0.3	389	390	17.0	84.3
2025-09-07T21:20	10	0	0.1	0	0	389	0.3	388	389	17.0	84.4
2025-09-07T21:21	10	0	0.1	0	0	388	0.4	387	388	16.9	85.1
2025-09-07T21:22	10	0	0.1	0	1	387	0.3	386	387	16.8	86.0
2025-09-07T21:23	10	0	0.1	0	0	386	0.3	385	387	16.6	87.1
2025-09-07T21:24	10	0	0.1	0	1	386	0.2	386	387	16.4	88.4
2025-09-07T21:25	10	0	0.0	0	0	386	0.2	386	387	16.3	88.8
2025-09-07T21:26	10	0	0.1	0	0	386	0.2	386	387	16.4	88.4
2025-09-07T21:27	10	0	0.1	0	0	386	0.2	386	387	16.4	88.1
2025-09-07T21:28	10	0	0.1	0	0	385	0.3	385	386	16.3	88.3
2025-09-07T21:29	10	0	0.1	0	1	385	0.3	385	386	16.3	88.5
2025-09-07T21:30	10	0	0.1	0	0	386	0.5	385	387	16.4	88.6
2025-09-07T21:31	10	0	0.1	0	0	386	0.3	386	387	16.4	88.8
2025-09-07T21:32	10	0	0.1	0	1	387	0.4	386	387	16.4	88.7
2025-09-07T21:33	10	0	0.1	0	0	387	0.3	386	388	16.5	88.3
2025-09-07T21:34	10	0	0.1	0	0	386	0.3	386	387	16.4	88.7
2025-09-07T21:35	10	0	0.0	0	0	386	0.2	385	386	16.3	88.8
2025-09-07T21:36	10	0	0.0	0	0	386	0.3	385	387	16.3	88.8
2025-09-07T21:37	10	0	0.1	0	0	385	0.3	385	386	16.3	89.0
2025-09-07T21:38	10	0	0.1	0	0	385	0.2	384	385	16.1	89.9
2025-09-07T21:39	10	0	0.0	0	0	384	0.3	384	385	16.0	90.0
2025-09-07T21:40	10	0	0.0	0	0	385	0.2	384	385	16.0	90.0
2025-09-07T21:41	10	0	0.0	0	0	385	0.3	384	385	16.0	89.7
2025-09-07T21:42	10	0	0.0	0	0	385	0.2	384	385	16.2	88.9
2025-09-07T21:43	10	0	0.1	0	0	385	0.2	384	385	16.2	88.6
2025-09-07T21:44	10	0	0.1	0	0	385	0.2	384	385	16.2	88.3
2025-09-07T21:45	10	0	0.0	0	0	385	0.2	384	385	16.3	88.0
2025-09-07T21:46	10	0	0.1	0	0	385	0.2	384	385	16.3	88.1
2025-09-07T21:47	10	0	0.1	0	0	385	0.2	384	385	16.1	89.3
2025-09-07T21:48	10	0	0.1	0	0	384	0.2	384	385	16.0	90.2
2025-09-07T21:49	10	0	0.1	0	0	384	0.3	383	384	16.0	90.5
2025-09-07T21:50	10	0	0.0	0	0	383	0.3	383	384	16.0	90.6
2025-09-07T21:51	10	0	0.0	0	0	383	0.2	382	383	16.0	90.6
2025-09-07T21:52	10	0	0.0	0	0	382	0.3	381	382	16.0	90.8
2025-09-07T21:53	10	0	0.0	0	0	382	0.2	381	382	16.0	90.9
2025-09-07T21:54	10	0	0.0	0	0	381	0.2	381	382	15.9	91.0
2025-09-07T21:55	10	0	0.0	0	0	381	0.1	381	381	15.9	90.8
2025-09-07T21:56	10	0	0.0	0	0	381	0.2	380	381	15.9	90.6
2025-09-07T21:57	10	0	0.0	0	0	381	0.2	380	381	15.9	90.7
2025-09-07T21:58	10	0	0.0	0	0	380	0.2	380	381	15.9	90.5
2025-09-07T21:59	10	0	0.0	0	0	380	0.2	380	381	15.9	90.3
2025-09-07T22:00	10	0	0.0	0	0	380	0.2	380	381	15.9	89.8
2025-09-07T22:01	10	0	0.0	0	0	380	0.2	380	381	16.0	89.4
2025-09-07T22:02	10	0	0.0	0	0	381	0.3	380	381	16.1	89.0
2025-09-07T22:03	10	0	0.0	0	0	381	0.2	380	381	16.1	88.7
2025-09-07T22:04	10	0	0.1	0	0	381	0.2	380	381	16.2	88.4
2025-09-07T22:05	10	0	0.1	0	0	381	0.2	380	381	16.1	88.5
2025-09-07T22:06	10	0	0.1	0	0	381	0.2	380	381	16.1	88.6
2025-09-07T22:07	10	0	0.1	0	0	381	0.3	380	381	16.1	89.0
2025-09-07T22:08	10	0	0.1	0	0	380	0.3	380	381	16.0	89.4
2025-09-07T22:09	10	0	0.1	0	0	380	0.2	379	380	15.9	89.8
2025-09-07T22:10	10	0	0.0	0	0	379	0.2	379	380	15.9	90.2
2025-09-07T22:11	10	0	0.1	0	0	379	0.2	379	380	15.9	90.2
2025-09-07T22:12	10	0	0.1	0	0	379	0.2	378	379	15.9	90.3
2025-09-07T22:13	10	0	0.1	0	0	379	0.2	378	379	15.8	90.4
2025-09-07T22:14	10	0	0.1	0	0	378	0.2	378	379	15.7	91.1
2025-09-07T22:15	10	0	0.1	0	1	379	0.2	378	379	15.6	91.6
2025-09-07T22:16	10	0	0.1	0	1	379	0.4	378	380	15.6	91.9
2025-09-07T22:17	10	0	0.1	0	1	379	0.2	379	380	15.6	91.8
2025-09-07T22:18	10	0	0.1	0	1	379	0.2	379	380	15.6	92.1
2025-09-07T22:19	10	0	0.1	0	0	379	0.2	379	380	15.6	92.3
2025-09-07T22:20	10	0	0.1	0	1	379	0.2	378	379	15.5	92.4
2025-09-07T22:21	10	0	0.1	0	1	379	0.3	378	379	15.4	92.5
2025-09-07T22:22	10	0	0.1	0	1	378	0.3	378	379	15.4	92.4
2025-09-07T22:23	10	0	0.2	0	1	378	0.3	377	379	15.4	92.7
2025-09-07T22:24	10	0	0.2	0	1	378	0.2	378	379	15.4	92.6
2025-09-07T22:25	10	0	0.1	0	1	378	0.3	377	379	15.4	92.3
2025-09-07T22:26	10	0	0.1	0	1	378	0.3	377	379	15.4	92.2
2025-09-07T22:27	10	0	0.2	0	1	379	0.3	378	380	15.4	91.8
2025-09-07T22:28	10	0	0.1	0	1	379	0.3	378	380	15.5	91.8
2025-09-07T22:29	10	0	0.1	0	0	379	0.2	379	380	15.5	91.7
2025-09-07T22:30	10	0	0.1	0	1	379	0.2	379	380	15.4	91.9
2025-09-07T22:31	10	0	0.2	0	1	379	0.2	379	380	15.4	91.6
2025-09-07T22:32	10	0	0.2	0	1	379	0.2	379	380	15.3	91.6
2025-09-07T22:33	10	0	0.2	0	1	379	0.3	378	380	15.3	91.7
2025-09-07T22:34	10	0	0.1	0	1	379	0.2	378	379	15.3	91.9
2025-09-07T22:35	10	0	0.1	0	0	378	0.2	378	379	15.2	92.1
2025-09-07T22:36	10	0	0.2	0	1	378	0.3	377	378	15.2	92.2
2025-09-07T22:37	10	0	0.2	0	1	377	0.2	377	378	15.2	92.3
2025-09-07T22:38	10	0	0.2	0	1	377	0.3	376	378	15.2	92.4
2025-09-07T22:39	10	0	0.1	0	1	377	0.3	376	377	15.2	91.9
2025-09-07T22:40	10	0	0.1	0	1	377	0.3	376	377	15.2	91.2
2025-09-07T22:41	10	0	0.1	0	1	377	0.4	377	378	15.3	90.6
2025-09-07T22:42	10	0	0.1	0	0	379	0.7	377	380	15.4	90.3
2025-09-07T22:43	10	0	0.1	0	0	380	0.3	379	380	15.7	89.5
2025-09-07T22:44	10	0	0.1	0	0	380	0.3	380	381	15.7	89.3
2025-09-07T22:45	10	0	0.1	0	0	380	0.3	379	381	15.7	89.3
2025-09-07T22:46	10	0	0.1	0	1	380	0.3	379	381	15.6	89.6
2025-09-07T22:47	10	0	0.1	0	0	379	0.2	379	380	15.5	89.9
2025-09-07T22:48	10	0	0.1	0	1	379	0.2	378	379	15.5	90.0
2025-09-07T22:49	10	0	0.1	0	1	379	0.3	378	379	15.5	89.1
2025-09-07T22:50	10	0	0.1	0	1	378	0.4	377	379	15.5	88.8
2025-09-07T22:51	10	0	0.1	0	0	378	0.3	377	379	15.5	88.4
2025-09-07T22:52	10	0	0.0	0	0	378	0.3	378	379	15.6	87.7
2025-09-07T22:53	10	0	0.1	0	0	378	0.3	377	379	15.7	87.9
2025-09-07T22:54	10	0	0.1	0	0	378	0.2	377	379	15.6	88.5
2025-09-07T22:55	10	0	0.1	0	0	378	0.3	377	379	15.5	88.9
2025-09-07T22:56	10	0	0.1	0	0	378	0.2	377	378	15.4	89.3
2025-09-07T22:57	10	0	0.1	0	0	377	0.2	377	378	15.3	89.5
2025-09-07T22:58	10	0	0.1	0	0	377	0.2	377	378	15.4	89.3
2025-09-07T22:59	10	0	0.1	0	0	377	0.2	377	378	15.4	88.8
2025-09-07T23:00	10	0	0.1	0	0	377	0.3	376	377	15.5	88.3
2025-09-07T23:01	10	0	0.1	0	0	376	0.2	376	377	15.5	88.2
2025-09-07T23:02	10	0	0.1	0	0	377	0.3	376	377	15.6	87.2
2025-09-07T23:03	10	0	0.1	0	0	377	0.5	376	378	15.7	87.0
2025-09-07T23:04	10	0	0.1	0	0	379	0.7	378	380	15.7	86.9
2025-09-07T23:05	10	0	0.1	0	0	381	0.5	380	382	15.8	86.1
2025-09-07T23:06	10	0	0.1	0	0	381	0.3	381	382	15.8	86.2
2025-09-07T23:07	10	0	0.0	0	0	381	0.2	381	382	15.8	85.8
2025-09-07T23:08	10	0	0.1	0	0	381	0.2	381	382	15.8	86.3
2025-09-07T23:09	10	0	0.1	0	0	381	0.3	380	382	15.8	86.0
2025-09-07T23:10	10	0	0.1	0	0	380	0.3	380	381	15.8	86.4
2025-09-07T23:11	10	0	0.1	0	0	380	0.2	379	380	15.7	86.6
2025-09-07T23:12	10	0	0.0	0	0	380	0.3	379	380	15.7	86.8
2025-09-07T23:13	10	0	0.1	0	0	380	0.3	379	380	15.6	86.9
2025-09-07T23:14	10	0	0.1	0	0	379	0.3	378	380	15.6	87.2
2025-09-07T23:15	10	0	0.1	0	0	379	0.3	378	379	15.5	87.6
2025-09-07T23:16	10	0	0.0	0	0	378	0.2	378	379	15.5	87.7
2025-09-07T23:17	10	0	0.1	0	0	378	0.3	377	378	15.5	87.7
2025-09-07T23:18	10	0	0.0	0	0	378	0.3	377	378	15.4	88.5
2025-09-07T23:19	10	0	0.0	0	0	378	0.3	377	378	15.3	89.0
2025-09-07T23:20	10	0	0.0	0	0	378	0.2	378	379	15.3	88.9
2025-09-07T23:21	10	0	0.0	0	0	378	0.2	378	379	15.4	88.6
2025-09-07T23:22	10	0	0.1	0	0	378	0.2	378	379	15.4	88.4
2025-09-07T23:23	10	0	0.0	0	0	379	0.2	378	379	15.4	88.5
2025-09-07T23:24	10	0	0.1	0	0	379	0.3	378	380	15.4	88.3
2025-09-07T23:25	10	0	0.1	0	0	379	0.3	378	379	15.4	87.9
2025-09-07T23:26	10	0	0.1	0	0	379	0.2	378	379	15.5	87.7
2025-09-07T23:27	10	0	0.1	0	0	379	0.2	378	379	15.5	87.1
2025-09-07T23:28	10	0	0.1	0	0	379	0.2	378	379	15.5	86.9
2025-09-07T23:29	10	0	0.1	0	0	379	0.3	378	379	15.5	86.5
2025-09-07T23:30	10	0	0.1	0	0	378	0.2	378	379	15.6	85.9
2025-09-07T23:31	10	0	0.1	0	0	378	0.3	377	378	15.7	85.2
2025-09-07T23:32	10	0	0.1	0	0	377	0.3	377	378	15.7	85.4
2025-09-07T23:33	10	0	0.0	0	0	377	0.2	377	377	15.7	85.3
2025-09-07T23:34	10	0	0.1	0	0	377	0.3	377	378	15.7	85.4
2025-09-07T23:35	10	0	0.1	0	0	378	0.2	377	378	15.7	85.3
2025-09-07T23:36	10	0	0.1	0	0	378	0.2	378	379	15.8	84.8
2025-09-07T23:37	10	0	0.1	0	0	378	0.2	378	379	15.8	84.6
2025-09-07T23:38	10	0	0.1	0	0	379	0.3	378	379	15.7	85.3
2025-09-07T23:39	10	0	0.1	0	0	379	0.3	378	380	15.6	86.0
2025-09-07T23:40	10	0	0.1	0	0	378	0.2	378	379	15.5	86.4
2025-09-07T23:41	10	0	0.1	0	0	378	0.3	377	379	15.5	86.5
2025-09-07T23:42	10	0	0.1	0	0	378	0.2	377	378	15.4	87.1
2025-09-07T23:43	10	0	0.1	0	0	378	0.2	377	378	15.3	87.5
2025-09-07T23:44	10	0	0.1	0	0	378	0.3	377	379	15.3	87.9
2025-09-07T23:45	10	0	0.1	0	0	378	0.2	377	378	15.2	88.0
2025-09-07T23:46	10	0	0.1	0	0	378	0.2	377	378	15.2	87.9
2025-09-07T23:47	10	0	0.1	0	0	377	0.3	377	378	15.1	88.2
2025-09-07T23:48	10	0	0.1	0	0	377	0.2	377	378	15.1	88.3
2025-09-07T23:49	10	0	0.1	0	0	378	0.3	377	378	15.2	87.9
2025-09-07T23:50	10	0	0.1	0	0	378	0.3	377	379	15.3	87.5
2025-09-07T23:51	10	0	0.1	0	0	378	0.3	378	379	15.3	87.4
2025-09-07T23:52	10	0	0.1	0	0	378	0.3	378	379	15.2	88.2
2025-09-07T23:53	10	0	0.0	0	0	378	0.3	377	379	15.1	88.5
2025-09-07T23:54	10	0	0.1	0	0	378	0.2	377	378	15.0	88.8
2025-09-07T23:55	10	0	0.1	0	0	377	0.2	377	378	14.9	89.1
2025-09-07T23:56	10	0	0.1	0	0	377	0.3	377	378	14.9	89.2
2025-09-07T23:57	10	0	0.1	0	1	377	0.2	377	378	15.0	88.7
2025-09-07T23:58	10	0	0.1	0	0	377	0.2	377	378	15.0	88.8
2025-09-07T23:59	10	0	0.1	0	0	378	0.3	377	378	14.9	88.9
2025-09-08T00:00	10	0	0.1	0	0	378	0.2	377	378	14.9	89.1
2025-09-08T00:01	10	0	0.1	0	0	378	0.2	377	378	14.9	89.0
2025-09-08T00:02	10	0	0.1	0	0	377	0.3	377	378	14.9	88.8
2025-09-08T00:03	10	0	0.1	0	0	377	0.4	377	378	15.0	88.2
2025-09-08T00:04	10	0	0.1	0	0	378	0.4	377	379	15.1	87.8
2025-09-08T00:05	10	0	0.1	0	0	378	0.4	377	379	15.2	87.3
2025-09-08T00:06	10	0	0.1	0	0	379	0.3	378	379	15.2	86.9
2025-09-08T00:07	10	0	0.1	0	0	379	0.2	378	379	15.4	86.0
2025-09-08T00:08	10	0	0.1	0	0	379	0.3	378	380	15.4	85.6
2025-09-08T00:09	10	0	0.1	0	0	379	0.3	378	380	15.4	85.8
2025-09-08T00:10	10	0	0.1	0	0	379	0.2	378	379	15.4	85.9
2025-09-08T00:11	10	0	0.1	0	1	379	0.3	378	379	15.4	85.9
2025-09-08T00:12	10	0	0.1	0	0	379	0.2	378	379	15.4	86.1
2025-09-08T00:13	10	0	0.1	0	0	379	0.2	378	379	15.4	86.1
2025-09-08T00:14	10	0	0.1	0	0	379	0.3	378	379	15.4	86.2
2025-09-08T00:15	10	0	0.1	0	1	379	0.3	379	380	15.4	86.2
2025-09-08T00:16	10	0	0.1	0	0	380	0.2	379	380	15.3	86.3
2025-09-08T00:17	10	0	0.1	0	0	380	0.4	379	380	15.2	87.0
2025-09-08T00:18	10	0	0.1	0	0	379	0.2	379	380	15.0	88.0
2025-09-08T00:19	10	0	0.1	0	1	379	0.2	379	380	14.9	88.3
2025-09-08T00:20	10	0	0.1	0	0	380	0.3	379	380	15.0	88.2
2025-09-08T00:21	10	0	0.1	0	0	380	0.3	379	381	15.2	86.9
2025-09-08T00:22	10	0	0.1	0	0	381	0.2	380	381	15.3	86.4
2025-09-08T00:23	10	0	0.1	0	0	381	0.3	380	382	15.3	86.2
2025-09-08T00:24	10	0	0.1	0	0	382	0.3	381	382	15.5	85.4
2025-09-08T00:25	10	0	0.1	0	0	382	0.3	381	383	15.7	84.3
2025-09-08T00:26	10	0	0.1	0	0	382	0.3	381	383	15.7	84.7
2025-09-08T00:27	10	0	0.1	0	1	382	0.3	381	382	15.5	85.5
2025-09-08T00:28	10	0	0.1	0	1	382	0.3	381	382	15.5	85.3
2025-09-08T00:29	10	0	0.1	0	1	382	0.3	382	383	15.6	85.2
2025-09-08T00:30	10	0	0.1	0	1	383	0.4	382	383	15.7	84.6
2025-09-08T00:31	10	0	0.1	0	1	384	0.3	383	384	15.8	83.6
2025-09-08T00:32	10	0	0.1	0	1	384	0.3	384	385	15.9	83.0
2025-09-08T00:33	10	0	0.1	0	1	384	0.3	384	385	15.9	83.0
2025-09-08T00:34	10	0	0.1	0	1	384	0.2	384	385	15.9	83.0
2025-09-08T00:35	10	0	0.1	0	1	384	0.3	383	384	15.8	83.7
2025-09-08T00:36	10	0	0.1	0	0	384	0.3	383	385	15.6	84.1
2025-09-08T00:37	10	0	0.1	0	1	383	0.3	383	384	15.5	85.1
2025-09-08T00:38	10	0	0.1	0	1	383	0.2	383	384	15.4	85.6
2025-09-08T00:39	10	0	0.1	0	0	383	0.2	383	384	15.4	85.9
2025-09-08T00:40	10	0	0.1	0	0	383	0.2	383	384	15.4	85.8
2025-09-08T00:41	10	0	0.1	0	0	383	0.2	383	384	15.4	85.8
2025-09-08T00:42	10	0	0.1	0	0	383	0.3	382	384	15.4	85.5
2025-09-08T00:43	10	0	0.1	0	0	383	0.2	383	383	15.5	85.3
2025-09-08T00:44	10	0	0.1	0	0	383	0.3	382	384	15.5	85.7
2025-09-08T00:45	10	0	0.1	0	0	383	0.2	382	383	15.4	86.2
2025-09-08T00:46	10	0	0.1	0	0	382	0.2	382	383	15.4	86.4
2025-09-08T00:47	10	0	0.1	0	0	383	0.2	382	383	15.4	86.3
2025-09-08T00:48	10	0	0.1	0	0	382	0.2	382	383	15.4	86.3
2025-09-08T00:49	10	0	0.1	0	0	383	0.2	382	383	15.5	85.8
2025-09-08T00:50	10	0	0.1	0	0	383	0.3	382	383	15.5	85.5
2025-09-08T00:51	10	0	0.1	0	0	382	0.2	382	383	15.4	86.1
2025-09-08T00:52	10	0	0.1	0	0	382	0.4	381	382	15.4	86.4
2025-09-08T00:53	10	0	0.1	0	1	381	0.2	381	382	15.3	87.5
2025-09-08T00:54	10	0	0.1	0	0	381	0.2	380	381	15.2	88.4
2025-09-08T00:55	10	0	0.1	0	1	381	0.3	380	381	15.1	88.1
2025-09-08T00:56	10	0	0.1	0	0	380	0.1	380	381	15.2	87.9
2025-09-08T00:57	10	0	0.1	0	0	380	0.2	380	381	15.2	87.9
2025-09-08T00:58	10	0	0.1	0	0	380	0.3	380	381	15.1	87.9
2025-09-08T00:59	10	0	0.1	0	0	380	0.2	380	381	15.1	88.0
2025-09-08T01:00	10	0	0.1	0	0	380	0.3	380	381	15.1	88.3
2025-09-08T01:01	10	0	0.1	0	1	380	0.3	379	381	14.9	89.0
2025-09-08T01:02	10	0	0.1	0	0	380	0.3	379	380	14.9	89.7
2025-09-08T01:03	10	0	0.1	0	0	380	0.2	379	380	14.8	90.3
2025-09-08T01:04	10	0	0.1	0	0	380	0.2	379	380	14.8	90.3
2025-09-08T01:05	10	0	0.1	0	0	380	0.2	379	380	14.8	90.6
2025-09-08T01:06	10	0	0.1	0	0	380	0.3	379	380	14.7	90.8
2025-09-08T01:07	10	0	0.1	0	0	379	0.2	379	380	14.7	90.7
2025-09-08T01:08	10	0	0.1	0	0	379	0.3	379	380	14.6	90.6
2025-09-08T01:09	10	0	0.1	0	0	379	0.3	378	379	14.5	91.3
2025-09-08T01:10	10	0	0.1	0	0	379	0.2	378	379	14.4	92.2
2025-09-08T01:11	10	0	0.1	0	0	379	0.6	378	380	14.6	91.8
2025-09-08T01:12	10	0	0.1	0	0	379	0.2	379	380	14.7	91.3
2025-09-08T01:13	10	0	0.1	0	0	379	0.2	378	379	14.7	90.8
2025-09-08T01:14	10	0	0.0	0	0	378	0.5	377	379	14.7	90.7
2025-09-08T01:15	10	0	0.1	0	0	378	0.2	377	378	14.6	90.9
2025-09-08T01:16	10	0	0.0	0	0	377	0.3	377	378	14.6	91.2
2025-09-08T01:17	10	0	0.1	0	0	377	0.2	377	378	14.6	91.2
2025-09-08T01:18	10	0	0.1	0	0	377	0.3	376	377	14.7	90.9
2025-09-08T01:19	10	0	0.0	0	0	376	0.2	376	377	14.6	91.1
2025-09-08T01:20	10	0	0.1	0	0	376	0.2	375	376	14.6	91.5
2025-09-08T01:21	10	0	0.0	0	0	376	0.3	376	377	14.6	91.5
2025-09-08T01:22	10	0	0.1	0	0	376	0.3	376	377	14.5	91.6
2025-09-08T01:23	10	0	0.0	0	0	376	0.2	376	377	14.5	91.8
2025-09-08T01:24	10	0	0.1	0	0	376	0.2	375	376	14.4	91.9
2025-09-08T01:25	10	0	0.1	0	0	376	0.2	375	376	14.4	92.2
2025-09-08T01:26	10	0	0.1	0	0	376	0.3	375	376	14.4	92.2
2025-09-08T01:27	10	0	0.0	0	0	375	0.2	375	376	14.4	92.2
2025-09-08T01:28	10	0	0.0	0	0	376	0.3	375	376	14.4	92.4
2025-09-08T01:29	10	0	0.1	0	0	376	0.2	375	376	14.5	91.9
2025-09-08T01:30	10	0	0.1	0	0	376	0.2	375	376	14.6	91.4
2025-09-08T01:31	10	0	0.0	0	0	376	0.2	375	376	14.7	90.8
2025-09-08T01:32	10	0	0.1	0	0	376	0.3	375	376	14.7	90.6
2025-09-08T01:33	10	0	0.1	0	0	375	0.2	375	376	14.7	90.9
2025-09-08T01:34	10	0	0.1	0	1	376	0.2	375	376	14.6	91.1
2025-09-08T01:35	10	0	0.1	0	0	375	0.3	375	376	14.6	91.3
2025-09-08T01:36	10	0	0.1	0	0	375	0.2	375	376	14.5	91.4
2025-09-08T01:37	10	0	0.1	0	0	376	0.2	376	376	14.6	91.3
2025-09-08T01:38	10	0	0.1	0	0	376	0.3	376	377	14.6	91.1
2025-09-08T01:39	10	0	0.1	0	0	376	0.2	376	377	14.6	90.9
2025-09-08T01:40	10	0	0.1	0	0	377	0.2	376	377	14.6	91.1
2025-09-08T01:41	10	0	0.1	0	0	376	0.2	376	377	14.6	91.0
2025-09-08T01:42	10	0	0.1	0	0	377	0.2	376	377	14.6	90.8
2025-09-08T01:43	10	0	0.1	0	0	377	0.3	376	377	14.6	91.1
2025-09-08T01:44	10	0	0.1	0	0	377	0.2	376	377	14.5	91.5
2025-09-08T01:45	10	0	0.1	0	0	377	0.4	377	378	14.5	91.5
2025-09-08T01:46	10	0	0.1	0	0	378	0.3	377	378	14.6	90.9
2025-09-08T01:47	10	0	0.1	0	0	378	0.3	377	379	14.8	90.3
2025-09-08T01:48	10	0	0.1	0	0	379	0.2	378	379	14.8	89.7
2025-09-08T01:49	10	0	0.1	0	0	378	0.3	378	379	14.9	89.4
2025-09-08T01:50	10	0	0.1	0	0	379	0.2	378	379	14.9	89.1
2025-09-08T01:51	10	0	0.1	0	0	380	0.4	379	381	15.1	88.1
2025-09-08T01:52	10	0	0.1	0	0	380	0.2	380	381	15.3	86.2
2025-09-08T01:53	10	0	0.1	0	0	380	0.3	379	381	15.3	86.1
2025-09-08T01:54	10	0	0.1	0	0	379	0.5	378	380	15.3	86.8
2025-09-08T01:55	10	0	0.1	0	0	379	0.3	378	379	15.1	88.1
2025-09-08T01:56	10	0	0.1	0	0	378	0.2	378	379	14.9	89.1
2025-09-08T01:57	10	0	0.1	0	0	378	0.3	377	378	14.7	90.2
2025-09-08T01:58	10	0	0.1	0	0	378	0.3	377	378	14.5	91.2
2025-09-08T01:59	10	0	0.1	0	0	378	0.2	377	378	14.5	91.7
2025-09-08T02:00	10	0	0.1	0	0	378	0.2	377	378	14.6	91.3
2025-09-08T02:01	10	0	0.0	0	0	378	0.2	377	378	14.6	91.5
2025-09-08T02:02	10	0	0.1	0	0	378	0.2	377	378	14.6	91.1
2025-09-08T02:03	10	0	0.1	0	0	378	0.4	377	379	14.7	90.6
2025-09-08T02:04	10	0	0.1	0	0	379	0.3	378	379	14.9	89.2
2025-09-08T02:05	10	0	0.0	0	0	378	0.6	377	379	15.0	88.9
2025-09-08T02:06	10	0	0.0	0	0	379	0.3	379	380	14.9	89.3
2025-09-08T02:07	10	0	0.1	0	0	379	0.2	379	380	15.1	88.1
2025-09-08T02:08	10	0	0.1	0	0	379	0.2	378	379	15.1	87.7
2025-09-08T02:09	10	0	0.1	0	0	378	0.3	378	379	15.1	88.0
2025-09-08T02:10	10	0	0.0	0	0	378	0.2	378	379	15.0	88.5
2025-09-08T02:11	10	0	0.1	0	0	379	0.4	378	379	15.0	88.0
2025-09-08T02:12	10	0	0.1	0	0	379	0.2	379	380	15.1	87.6
2025-09-08T02:13	10	0	0.1	0	0	380	0.3	379	381	15.1	87.4
2025-09-08T02:14	10	0	0.1	0	0	380	0.2	380	381	15.0	87.6
2025-09-08T02:15	10	0	0.1	0	0	380	0.2	380	381	15.0	87.9
2025-09-08T02:16	10	0	0.1	0	0	380	0.2	380	381	14.9	88.0
2025-09-08T02:17	10	0	0.1	0	0	381	0.2	380	381	14.9	88.3
2025-09-08T02:18	10	0	0.1	0	0	381	0.3	380	381	14.9	88.3
2025-09-08T02:19	10	0	0.1	0	0	381	0.2	380	381	14.9	88.4
2025-09-08T02:20	10	0	0.1	0	0	380	0.3	380	381	14.8	89.1
2025-09-08T02:21	10	0	0.1	0	0	380	0.2	379	381	14.7	89.6
2025-09-08T02:22	10	0	0.1	0	0	380	0.2	379	380	14.6	90.1
2025-09-08T02:23	10	0	0.1	0	0	380	0.2	379	380	14.5	90.8
2025-09-08T02:24	10	0	0.1	0	0	379	0.2	379	380	14.5	91.2
2025-09-08T02:25	10	0	0.1	0	0	379	0.2	379	380	14.4	91.7
2025-09-08T02:26	10	0	0.1	0	0	379	0.2	378	379	14.4	92.0
2025-09-08T02:27	10	0	0.0	0	0	379	0.2	379	380	14.3	92.4
2025-09-08T02:28	10	0	0.0	0	0	380	0.3	379	380	14.3	92.0
2025-09-08T02:29	10	0	0.1	0	0	380	0.3	379	380	14.4	91.6
2025-09-08T02:30	10	0	0.1	0	0	380	0.3	379	381	14.6	90.8
2025-09-08T02:31	10	0	0.1	0	0	381	0.4	380	381	14.8	89.6
2025-09-08T02:32	10	0	0.1	0	0	381	0.2	380	381	14.9	88.6
2025-09-08T02:33	10	0	0.1	0	0	381	0.2	381	382	15.1	87.5
2025-09-08T02:34	10	0	0.1	0	0	381	0.2	381	382	15.2	87.0
2025-09-08T02:35	10	0	0.1	0	0	381	0.2	381	382	15.2	86.9
2025-09-08T02:36	10	0	0.1	0	0	381	0.3	381	382	15.2	86.8
2025-09-08T02:37	10	0	0.1	0	0	381	0.2	381	382	15.2	86.6
2025-09-08T02:38	10	0	0.1	0	0	381	0.2	380	381	15.2	86.9
2025-09-08T02:39	10	0	0.1	0	0	381	0.2	381	382	15.2	86.5
2025-09-08T02:40	10	0	0.1	0	0	382	0.2	381	382	15.4	84.9
2025-09-08T02:41	10	0	0.1	0	0	382	0.2	381	382	15.5	85.2
2025-09-08T02:42	10	0	0.1	0	0	382	0.2	382	382	15.5	84.8
2025-09-08T02:43	10	0	0.0	0	0	382	0.3	381	383	15.5	85.0
2025-09-08T02:44	10	0	0.1	0	0	381	0.5	380	382	15.4	85.7
2025-09-08T02:45	10	0	0.1	0	0	381	0.3	381	382	15.1	87.3
2025-09-08T02:46	10	0	0.1	0	0	381	0.2	381	382	15.1	87.3
2025-09-08T02:47	10	0	0.1	0	0	382	0.2	381	382	15.2	87.1
2025-09-08T02:48	10	0	0.1	0	0	382	0.3	381	382	15.2	87.0
2025-09-08T02:49	10	0	0.1	0	0	382	0.3	381	383	15.1	87.6
2025-09-08T02:50	10	0	0.0	0	0	381	0.2	381	382	15.0	88.4
2025-09-08T02:51	10	0	0.1	0	0	381	0.3	381	382	15.0	88.8
2025-09-08T02:52	10	0	0.1	0	0	382	0.2	381	382	15.0	88.3
2025-09-08T02:53	10	0	0.1	0	0	382	0.3	381	382	15.2	87.5
2025-09-08T02:54	10	0	0.1	0	0	381	0.2	381	382	14.9	89.3
2025-09-08T02:55	10	0	0.1	0	0	381	0.2	381	382	14.9	89.4
2025-09-08T02:56	10	0	0.0	0	0	381	0.2	381	381	14.8	90.3
2025-09-08T02:57	10	0	0.0	0	0	381	0.2	381	382	14.8	90.4
2025-09-08T02:58	10	0	0.0	0	0	381	0.2	380	381	14.8	90.3
2025-09-08T02:59	10	0	0.0	0	0	381	0.2	380	381	14.7	90.8
2025-09-08T03:00	10	0	0.0	0	0	381	0.3	380	381	14.6	91.1
2025-09-08T03:01	10	0	0.0	0	0	381	0.3	380	381	14.8	90.2
2025-09-08T03:02	10	0	0.1	0	0	382	0.4	381	382	15.2	88.0
2025-09-08T03:03	10	0	0.1	0	0	382	0.3	381	382	15.3	87.0
2025-09-08T03:04	10	0	0.1	0	0	382	0.3	381	382	15.4	86.0
2025-09-08T03:05	10	0	0.1	0	0	381	0.3	381	382	15.5	85.3
2025-09-08T03:06	10	0	0.1	0	0	381	0.4	381	382	15.5	85.6
2025-09-08T03:07	10	0	0.1	0	0	381	0.2	381	382	15.3	87.0
2025-09-08T03:08	10	0	0.1	0	0	381	0.2	381	382	15.2	87.4
2025-09-08T03:09	10	0	0.1	0	0	381	0.2	380	381	15.2	88.0
2025-09-08T03:10	10	0	0.1	0	0	381	0.2	381	382	15.1	88.1
2025-09-08T03:11	10	0	0.1	0	0	381	0.2	381	382	15.2	87.7
2025-09-08T03:12	10	0	0.1	0	0	381	0.2	381	381	15.2	87.9
2025-09-08T03:13	10	0	0.1	0	0	381	0.3	380	381	15.1	88.6
2025-09-08T03:14	10	0	0.1	0	0	380	0.2	380	381	15.0	89.4
2025-09-08T03:15	10	0	0.1	0	0	380	0.2	380	381	14.9	89.8
2025-09-08T03:16	10	0	0.0	0	0	381	0.2	381	381	14.9	89.3
2025-09-08T03:17	10	0	0.1	0	0	381	0.3	380	381	15.0	89.1
2025-09-08T03:18	10	0	0.1	0	0	381	0.2	380	381	14.9	89.6
2025-09-08T03:19	10	0	0.0	0	0	381	0.3	380	381	14.8	89.7
2025-09-08T03:20	10	0	0.1	0	0	381	0.3	380	381	14.9	89.2
2025-09-08T03:21	10	0	0.1	0	0	381	0.2	380	381	14.9	89.1
2025-09-08T03:22	10	0	0.1	0	0	381	0.2	380	381	14.8	89.6
2025-09-08T03:23	10	0	0.1	0	0	381	0.2	380	381	14.8	89.8
2025-09-08T03:24	10	0	0.1	0	0	380	0.2	380	381	14.8	89.3
2025-09-08T03:25	10	0	0.1	0	0	380	0.2	380	381	14.9	89.2
2025-09-08T03:26	10	0	0.1	0	0	380	0.2	380	380	14.8	89.6
2025-09-08T03:27	10	0	0.1	0	0	380	0.2	380	381	14.8	89.8
2025-09-08T03:28	10	0	0.1	0	0	380	0.2	380	381	14.8	89.7
2025-09-08T03:29	10	0	0.1	0	0	380	0.2	379	380	14.8	89.7
2025-09-08T03:30	10	0	0.1	0	0	380	0.2	379	380	14.7	90.1
2025-09-08T03:31	10	0	0.1	0	0	380	0.2	379	380	14.7	90.6
2025-09-08T03:32	10	0	0.1	0	0	380	0.3	379	381	14.7	90.4
2025-09-08T03:33	10	0	0.1	0	0	380	0.3	380	381	14.8	90.3
2025-09-08T03:34	10	0	0.1	0	0	380	0.2	380	381	14.7	90.6
2025-09-08T03:35	10	0	0.1	0	0	380	0.2	380	381	14.7	90.7
2025-09-08T03:36	10	0	0.1	0	0	380	0.2	380	381	14.8	90.3
2025-09-08T03:37	10	0	0.1	0	0	380	0.2	380	381	14.8	90.2
2025-09-08T03:38	10	0	0.1	0	0	380	0.1	380	381	14.8	90.4
2025-09-08T03:39	10	0	0.1	0	0	380	0.2	380	381	14.7	90.9
2025-09-08T03:40	10	0	0.1	0	0	380	0.2	380	381	14.7	91.2
2025-09-08T03:41	10	0	0.1	0	0	380	0.2	380	381	14.7	91.4
2025-09-08T03:42	10	0	0.1	0	0	380	0.3	380	381	14.8	91.3
2025-09-08T03:43	10	0	0.1	0	0	380	0.2	379	380	14.7	91.5
2025-09-08T03:44	10	0	0.1	0	0	380	0.2	380	381	14.7	91.7
2025-09-08T03:45	10	0	0.0	0	0	380	0.2	380	381	14.7	91.9
2025-09-08T03:46	10	0	0.1	0	0	380	0.2	380	380	14.7	91.7
2025-09-08T03:47	10	0	0.1	0	0	380	0.2	379	380	14.7	91.5
2025-09-08T03:48	10	0	0.1	0	0	380	0.2	379	380	14.7	91.5
2025-09-08T03:49	10	0	0.1	0	0	380	0.2	379	380	14.6	91.9
2025-09-08T03:50	10	0	0.1	0	0	380	0.2	379	380	14.6	92.1
2025-09-08T03:51	10	0	0.1	0	0	380	0.2	379	380	14.6	92.0
2025-09-08T03:52	10	0	0.1	0	0	380	0.3	379	381	14.6	91.6
2025-09-08T03:53	10	0	0.0	0	0	380	0.2	380	381	14.7	91.2
2025-09-08T03:54	10	0	0.1	0	0	380	0.2	380	381	14.7	91.0
2025-09-08T03:55	10	0	0.1	0	0	381	0.3	380	381	14.7	90.8
2025-09-08T03:56	10	0	0.1	0	0	381	0.3	380	381	14.8	90.3
2025-09-08T03:57	10	0	0.1	0	0	381	0.2	380	381	14.8	90.6
2025-09-08T03:58	10	0	0.1	0	0	381	0.2	380	381	14.8	90.9
2025-09-08T03:59	10	0	0.1	0	0	381	0.3	380	381	14.8	90.9
2025-09-08T04:00	10	0	0.1	0	0	381	0.2	381	382	14.8	90.8
2025-09-08T04:01	10	0	0.0	0	0	381	0.2	381	382	14.7	91.3
2025-09-08T04:02	10	0	0.1	0	0	381	0.2	381	382	14.7	91.2
2025-09-08T04:03	10	0	0.1	0	0	381	0.2	381	382	14.8	91.1
2025-09-08T04:04	10	0	0.1	0	0	382	0.3	381	382	15.0	89.8
2025-09-08T04:05	10	0	0.1	0	0	382	0.2	381	382	15.2	88.2
2025-09-08T04:06	10	0	0.1	0	0	382	0.2	381	382	15.3	87.6
2025-09-08T04:07	10	0	0.1	0	0	381	0.4	381	382	15.2	88.4
2025-09-08T04:08	10	0	0.1	0	0	381	0.3	380	382	15.0	89.7
2025-09-08T04:09	10	0	0.1	0	0	381	0.2	380	381	14.9	90.5
2025-09-08T04:10	10	0	0.1	0	0	381	0.2	380	381	14.8	91.0
2025-09-08T04:11	10	0	0.1	0	0	381	0.2	380	381	14.8	90.9
2025-09-08T04:12	10	0	0.1	0	0	381	0.2	380	381	14.9	90.4
2025-09-08T04:13	10	0	0.1	0	0	381	0.2	380	381	14.8	91.2
2025-09-08T04:14	10	0	0.1	0	0	381	0.2	380	381	14.7	91.7
2025-09-08T04:15	10	0	0.0	0	0	380	0.2	380	381	14.6	92.4
2025-09-08T04:16	10	0	0.1	0	0	380	0.2	380	381	14.6	92.8
2025-09-08T04:17	10	0	0.1	0	0	380	0.2	380	381	14.5	93.0
2025-09-08T04:18	10	0	0.1	0	0	380	0.2	380	381	14.6	92.7
2025-09-08T04:19	10	0	0.1	0	0	380	0.2	379	380	14.6	92.0
2025-09-08T04:20	10	0	0.1	0	0	380	0.2	380	380	14.7	91.7
2025-09-08T04:21	10	0	0.1	0	0	380	0.2	379	381	14.7	91.8
2025-09-08T04:22	10	0	0.1	0	0	380	0.2	380	380	14.7	91.5
2025-09-08T04:23	10	0	0.1	0	0	380	0.2	380	381	14.7	91.5
2025-09-08T04:24	10	0	0.1	0	0	380	0.2	380	380	14.7	91.7
2025-09-08T04:25	10	0	0.1	0	0	380	0.2	379	380	14.7	91.7
2025-09-08T04:26	10	0	0.1	0	0	380	0.2	379	380	14.6	91.8
2025-09-08T04:27	10	0	0.1	0	0	380	0.2	380	381	14.6	91.6
2025-09-08T04:28	10	0	0.0	0	0	381	0.2	380	381	14.7	91.2
2025-09-08T04:29	10	0	0.0	0	0	381	0.2	380	381	14.7	90.3
2025-09-08T04:30	10	0	0.1	0	0	381	0.2	381	381	14.9	89.2
2025-09-08T04:31	10	0	0.1	0	0	381	0.2	381	382	15.0	88.8
2025-09-08T04:32	10	0	0.1	0	0	381	0.2	381	382	15.0	89.1
2025-09-08T04:33	10	0	0.1	0	0	381	0.2	381	382	14.9	89.9
2025-09-08T04:34	10	0	0.1	0	0	381	0.2	381	382	14.9	90.2
2025-09-08T04:35	10	0	0.1	0	0	381	0.2	381	382	14.8	91.1
2025-09-08T04:36	10	0	0.1	0	0	381	0.2	381	382	14.8	90.9
2025-09-08T04:37	10	0	0.1	0	0	381	0.2	381	382	14.8	90.5
2025-09-08T04:38	10	0	0.1	0	0	381	0.2	381	382	14.7	90.6
2025-09-08T04:39	10	0	0.1	0	0	381	0.3	380	382	14.7	91.0
2025-09-08T04:40	10	0	0.1	0	0	381	0.3	380	382	14.7	91.3
2025-09-08T04:41	10	0	0.1	0	0	381	0.2	380	381	14.6	91.9
2025-09-08T04:42	10	0	0.1	0	0	381	0.2	380	381	14.5	92.2
2025-09-08T04:43	10	0	0.1	0	0	381	0.2	381	381	14.5	92.2
2025-09-08T04:44	10	0	0.1	0	1	381	0.2	381	382	14.5	92.1
2025-09-08T04:45	10	0	0.1	0	0	381	0.2	381	382	14.5	92.1
2025-09-08T04:46	10	0	0.1	0	0	381	0.2	381	382	14.5	92.3
2025-09-08T04:47	10	0	0.1	0	0	381	0.2	381	381	14.5	92.7
2025-09-08T04:48	10	0	0.1	0	1	381	0.2	381	382	14.5	92.9
2025-09-08T04:49	10	0	0.1	0	0	381	0.2	381	382	14.4	93.0
2025-09-08T04:50	10	0	0.1	0	1	382	0.3	381	382	14.4	93.3
2025-09-08T04:51	10	1	0.1	0	1	382	0.2	381	382	14.4	93.3
2025-09-08T04:52	10	1	0.1	0	1	382	0.2	382	383	14.5	92.8
2025-09-08T04:53	10	1	0.1	0	1	382	0.2	382	383	14.6	91.4
2025-09-08T04:54	10	1	0.1	0	1	382	0.2	382	383	14.7	91.0
2025-09-08T04:55	10	1	0.1	1	1	383	0.2	382	383	14.6	91.6
2025-09-08T04:56	10	1	0.1	1	1	383	0.2	382	383	14.7	91.3
2025-09-08T04:57	10	1	0.1	1	1	383	0.3	382	383	14.8	91.3
2025-09-08T04:58	10	1	0.1	1	1	383	0.2	383	383	14.8	91.2
2025-09-08T04:59	10	1	0.1	1	1	383	0.2	383	384	14.8	90.9
2025-09-08T05:00	10	1	0.1	0	1	383	0.2	383	384	14.9	89.9
2025-09-08T05:01	10	1	0.1	0	1	383	0.3	383	384	15.0	89.4
2025-09-08T05:02	10	1	0.1	0	1	383	0.2	383	384	14.9	90.4
2025-09-08T05:03	10	1	0.1	0	1	384	0.2	383	384	14.9	90.7
2025-09-08T05:04	10	1	0.1	0	1	384	0.3	383	384	14.8	91.1
2025-09-08T05:05	10	1	0.1	1	1	384	0.3	383	384	14.9	91.3
2025-09-08T05:06	10	1	0.1	1	1	384	0.2	384	384	14.9	91.0
2025-09-08T05:07	10	1	0.1	1	1	384	0.2	384	385	15.0	90.7
2025-09-08T05:08	10	2	0.1	1	2	384	0.2	384	385	15.0	90.7
2025-09-08T05:09	10	2	0.1	2	2	384	0.2	384	385	15.0	91.0
2025-09-08T05:10	10	2	0.1	2	2	385	0.2	384	385	14.9	91.4
2025-09-08T05:11	10	3	0.1	2	3	385	0.2	384	385	14.9	91.6
2025-09-08T05:12	10	3	0.1	2	3	385	0.2	385	385	14.9	91.4
2025-09-08T05:13	10	3	0.1	2	3	386	0.3	385	386	14.9	90.7
2025-09-08T05:14	10	2	0.1	2	3	386	0.2	385	386	15.0	90.3
2025-09-08T05:15	10	2	0.1	2	2	386	0.2	385	387	15.1	89.8
2025-09-08T05:16	10	2	0.1	2	2	386	0.2	386	386	15.1	89.3
2025-09-08T05:17	10	2	0.1	2	2	386	0.2	386	387	15.1	89.2
2025-09-08T05:18	10	2	0.1	2	2	386	0.2	386	387	15.2	88.3
2025-09-08T05:19	10	2	0.1	2	2	387	0.2	386	387	15.2	88.5
2025-09-08T05:20	10	2	0.1	2	2	387	0.2	386	387	15.2	88.1
2025-09-08T05:21	10	2	0.1	2	2	387	0.2	386	387	15.3	87.6
2025-09-08T05:22	10	2	0.1	2	3	387	0.3	386	387	15.3	87.3
2025-09-08T05:23	10	3	0.1	2	3	387	0.2	386	387	15.3	87.2
2025-09-08T05:24	10	3	0.1	3	3	387	0.3	386	387	15.3	87.6
2025-09-08T05:25	10	3	0.1	3	3	387	0.2	386	387	15.2	88.2
2025-09-08T05:26	10	3	0.1	3	3	387	0.2	386	387	15.2	89.1
2025-09-08T05:27	10	3	0.1	3	3	387	0.2	386	387	15.1	89.7
2025-09-08T05:28	10	3	0.1	3	4	387	0.3	386	387	15.1	89.8
2025-09-08T05:29	10	3	0.1	3	4	387	0.2	386	387	15.2	89.2
2025-09-08T05:30	10	4	0.1	3	4	387	0.3	387	388	15.3	88.8
2025-09-08T05:31	10	4	0.1	4	4	388	0.3	387	388	15.3	88.7
2025-09-08T05:32	10	4	0.1	4	4	388	0.3	387	388	15.3	88.7
2025-09-08T05:33	10	4	0.1	4	4	388	0.2	387	388	15.4	88.1
2025-09-08T05:34	10	4	0.1	4	4	388	0.2	388	388	15.4	87.8
2025-09-08T05:35	10	4	0.1	4	5	388	0.2	388	389	15.4	87.8
2025-09-08T05:36	10	4	0.1	4	4	388	0.2	388	389	15.4	88.3
2025-09-08T05:37	10	4	0.1	4	4	388	0.2	388	389	15.4	87.8
2025-09-08T05:38	10	4	0.1	4	4	388	0.2	388	389	15.4	87.5
2025-09-08T05:39	10	4	0.1	4	4	389	0.2	388	389	15.4	87.7
2025-09-08T05:40	10	4	0.1	4	5	388	0.2	388	389	15.4	87.5
2025-09-08T05:41	10	4	0.1	4	4	388	0.2	388	389	15.4	87.4
2025-09-08T05:42	10	4	0.1	4	4	388	0.2	388	389	15.4	87.0
2025-09-08T05:43	10	4	0.1	4	4	388	0.2	388	389	15.4	87.3
2025-09-08T05:44	10	4	0.1	4	4	388	0.2	388	389	15.4	87.6
2025-09-08T05:45	10	4	0.1	4	4	389	0.2	388	389	15.4	87.3
2025-09-08T05:46	10	4	0.1	4	4	389	0.2	388	389	15.4	87.6
2025-09-08T05:47	10	4	0.1	4	4	389	0.2	388	389	15.5	87.9
2025-09-08T05:48	10	4	0.1	4	4	389	0.3	388	389	15.4	88.6
2025-09-08T05:49	10	4	0.1	4	4	389	0.2	389	389	15.4	88.7
2025-09-08T05:50	10	4	0.1	4	4	389	0.2	388	389	15.4	89.3
2025-09-08T05:51	10	4	0.1	4	4	389	0.2	388	389	15.4	89.8
2025-09-08T05:52	10	4	0.1	4	4	389	0.3	389	390	15.4	90.2
2025-09-08T05:53	10	4	0.1	4	5	389	0.2	389	390	15.4	90.5
2025-09-08T05:54	10	5	0.1	5	5	389	0.2	389	389	15.3	90.3
2025-09-08T05:55	10	5	0.1	5	5	389	0.3	388	390	15.3	90.8
2025-09-08T05:56	10	5	0.1	5	6	389	0.2	388	389	15.2	90.6
2025-09-08T05:57	10	6	0.1	5	6	388	0.3	388	389	15.1	90.5
2025-09-08T05:58	10	6	0.1	6	6	388	0.2	388	389	15.0	90.7
2025-09-08T05:59	10	6	0.1	6	6	388	0.2	388	389	15.0	90.4
2025-09-08T06:00	10	6	0.1	6	7	388	0.2	388	389	15.0	91.0
2025-09-08T06:01	10	6	0.1	6	7	388	0.2	388	389	14.9	90.9
2025-09-08T06:02	10	6	0.1	6	7	388	0.2	388	389	15.0	91.0
2025-09-08T06:03	10	7	0.1	6	7	388	0.2	388	389	14.9	91.2
2025-09-08T06:04	10	7	0.1	7	7	388	0.2	388	389	14.9	91.0
2025-09-08T06:05	10	7	0.1	7	7	388	0.2	388	389	15.0	91.2
2025-09-08T06:06	10	7	0.1	7	7	389	0.3	388	389	15.0	91.1
2025-09-08T06:07	10	7	0.1	7	8	389	0.2	389	389	15.0	90.8
2025-09-08T06:08	10	8	0.1	7	8	389	0.2	388	389	15.0	91.1
2025-09-08T06:09	10	8	0.1	8	8	389	0.3	389	390	15.0	91.1
2025-09-08T06:10	10	8	0.1	8	8	389	0.2	389	390	15.1	90.4
2025-09-08T06:11	10	8	0.1	8	8	390	0.2	389	390	15.1	89.1
2025-09-08T06:12	10	8	0.1	8	8	390	0.2	389	390	15.2	88.5
2025-09-08T06:13	10	8	0.1	8	8	390	0.2	389	390	15.3	87.8
2025-09-08T06:14	10	8	0.1	8	9	390	0.2	389	390	15.3	87.8
2025-09-08T06:15	10	9	0.1	8	9	390	0.2	390	391	15.3	87.7
2025-09-08T06:16	10	9	0.1	8	9	390	0.2	390	391	15.3	88.4
2025-09-08T06:17	10	9	0.1	9	9	390	0.2	390	391	15.3	88.9
2025-09-08T06:18	10	9	0.1	9	9	390	0.3	390	391	15.3	89.7
2025-09-08T06:19	10	9	0.1	9	10	391	0.2	390	391	15.3	89.9
2025-09-08T06:20	10	9	0.1	9	9	391	0.2	390	391	15.3	89.9
2025-09-08T06:21	10	10	0.1	9	10	391	0.2	391	392	15.3	90.0
2025-09-08T06:22	10	10	0.1	10	10	391	0.2	391	392	15.3	90.0
2025-09-08T06:23	10	10	0.2	10	11	392	0.2	391	392	15.4	90.0
2025-09-08T06:24	10	11	0.2	10	11	392	0.3	391	393	15.4	90.1
2025-09-08T06:25	10	11	0.2	11	12	393	0.2	392	393	15.5	88.9
2025-09-08T06:26	10	12	0.2	12	12	393	0.2	392	393	15.6	88.9
2025-09-08T06:27	10	13	0.2	12	13	393	0.2	393	394	15.6	88.8
2025-09-08T06:28	10	13	0.2	13	13	394	0.3	393	394	15.7	88.2
2025-09-08T06:29	10	14	0.2	13	14	394	0.3	393	395	15.8	88.0
2025-09-08T06:30	10	14	0.2	14	14	395	0.2	394	395	15.9	87.7
2025-09-08T06:31	10	14	0.1	14	15	395	0.2	394	395	16.0	86.9
2025-09-08T06:32	10	15	0.1	15	15	395	0.3	395	396	16.1	86.8
2025-09-08T06:33	10	15	0.1	15	15	396	0.2	395	396	16.1	86.6
2025-09-08T06:34	10	15	0.1	15	16	396	0.2	395	397	16.2	87.0
2025-09-08T06:35	10	16	0.1	15	16	396	0.3	395	397	16.1	87.7
2025-09-08T06:36	10	16	0.1	16	16	396	0.3	396	397	16.2	87.9
2025-09-08T06:37	10	16	0.1	16	16	396	0.2	396	397	16.2	88.0
2025-09-08T06:38	10	16	0.1	15	16	397	0.2	396	397	16.2	88.9
2025-09-08T06:39	10	15	0.1	15	16	397	0.2	397	398	16.2	88.3
2025-09-08T06:40	10	15	0.1	15	15	397	0.2	397	398	16.3	87.6
2025-09-08T06:41	10	15	0.2	14	15	397	0.2	397	398	16.3	88.4
2025-09-08T06:42	10	14	0.1	14	15	398	0.2	398	398	16.3	86.8
2025-09-08T06:43	10	14	0.2	14	14	398	0.2	398	398	16.4	86.3
2025-09-08T06:44	10	14	0.1	13	14	398	0.2	398	399	16.5	86.3
2025-09-08T06:45	10	13	0.1	13	14	399	0.2	398	399	16.5	85.3
2025-09-08T06:46	10	13	0.1	13	13	399	0.3	398	400	16.6	84.0
2025-09-08T06:47	10	13	0.2	12	13	399	0.3	398	399	16.7	85.9
2025-09-08T06:48	10	12	0.2	12	13	398	0.4	397	399	16.6	85.6
2025-09-08T06:49	10	12	0.2	12	12	398	0.3	397	399	16.6	85.7
2025-09-08T06:50	10	11	0.1	11	12	398	0.2	398	399	16.6	85.4
2025-09-08T06:51	10	11	0.1	11	12	398	0.3	398	399	16.7	85.7
2025-09-08T06:52	10	11	0.1	11	11	398	0.2	398	399	16.7	86.6
2025-09-08T06:53	10	11	0.1	11	11	398	0.4	397	399	16.7	86.7
2025-09-08T06:54	10	11	0.1	11	11	398	0.3	397	398	16.7	87.2
2025-09-08T06:55	10	11	0.1	11	12	398	0.2	397	398	16.7	87.0
2025-09-08T06:56	10	12	0.1	12	12	398	0.2	398	398	16.7	87.3
2025-09-08T06:57	10	12	0.1	12	12	398	0.2	398	399	16.7	87.6
2025-09-08T06:58	10	12	0.1	12	13	398	0.3	397	398	16.6	87.4
2025-09-08T06:59	10	13	0.2	13	13	398	0.2	397	398	16.5	88.1
2025-09-08T07:00	10	13	0.1	13	14	397	0.2	397	398	16.5	87.8
2025-09-08T07:01	10	14	0.1	13	14	398	0.2	397	398	16.5	87.6
2025-09-08T07:02	10	14	0.1	14	14	397	0.2	397	398	16.4	87.3
2025-09-08T07:03	10	14	0.1	14	14	397	0.2	396	397	16.4	87.5
2025-09-08T07:04	10	14	0.1	14	14	397	0.2	397	398	16.4	88.4
2025-09-08T07:05	10	14	0.1	14	14	397	0.3	397	398	16.3	88.6
2025-09-08T07:06	10	15	0.1	14	15	397	0.3	397	398	16.3	88.0
2025-09-08T07:07	10	15	0.1	15	15	397	0.2	397	398	16.4	88.7
2025-09-08T07:08	10	15	0.1	15	15	397	0.2	397	398	16.3	88.7
2025-09-08T07:09	10	15	0.1	15	15	397	0.2	396	397	16.3	89.0
2025-09-08T07:10	10	15	0.1	15	15	396	0.3	396	397	16.3	89.2
2025-09-08T07:11	10	15	0.1	15	15	396	0.2	396	397	16.2	89.2
2025-09-08T07:12	10	15	0.1	15	15	396	0.2	396	397	16.1	89.6
2025-09-08T07:13	10	15	0.1	15	16	397	0.3	396	398	16.1	90.2
2025-09-08T07:14	10	16	0.1	15	16	397	0.3	397	398	16.2	90.3
2025-09-08T07:15	10	16	0.2	16	16	397	0.2	397	398	16.2	90.6
2025-09-08T07:16	10	16	0.2	16	17	397	0.2	397	398	16.2	90.4
2025-09-08T07:17	10	17	0.2	17	17	398	0.3	397	398	16.2	90.0
2025-09-08T07:18	10	18	0.2	17	18	398	0.2	397	398	16.2	90.0
2025-09-08T07:19	10	18	0.1	18	18	398	0.2	397	398	16.2	90.6
2025-09-08T07:20	10	18	0.1	18	19	398	0.3	397	399	16.2	91.1
2025-09-08T07:21	10	19	0.2	19	19	398	0.2	398	399	16.2	91.2
2025-09-08T07:22	10	19	0.1	19	20	398	0.3	397	399	16.2	89.5
2025-09-08T07:23	10	20	0.2	20	20	398	0.2	398	398	16.2	89.3
2025-09-08T07:24	10	20	0.2	20	21	398	0.3	397	399	16.2	89.4
2025-09-08T07:25	10	21	0.2	21	21	398	0.2	398	398	16.2	90.4
2025-09-08T07:26	10	22	0.2	21	22	399	0.4	398	400	16.2	90.6
2025-09-08T07:27	10	22	0.2	22	22	400	0.3	399	400	16.3	90.5
2025-09-08T07:28	10	22	0.1	22	23	400	0.4	399	401	16.4	89.9
2025-09-08T07:29	10	23	0.1	22	23	401	0.3	400	401	16.5	89.8
2025-09-08T07:30	10	23	0.1	23	23	401	0.2	400	401	16.5	89.5
2025-09-08T07:31	10	23	0.1	23	23	401	0.2	400	401	16.6	88.9
2025-09-08T07:32	10	23	0.1	23	23	401	0.2	401	401	16.6	88.8
2025-09-08T07:33	10	23	0.1	22	23	401	0.2	400	401	16.6	88.0
2025-09-08T07:34	10	22	0.1	22	23	401	0.2	400	401	16.6	87.4
2025-09-08T07:35	10	22	0.1	22	22	401	0.2	400	401	16.7	87.0
2025-09-08T07:36	10	22	0.1	22	22	401	0.2	400	401	16.6	86.7
2025-09-08T07:37	10	22	0.2	21	22	401	0.2	400	401	16.6	86.7
2025-09-08T07:38	10	21	0.1	21	21	401	0.3	400	401	16.6	86.5
2025-09-08T07:39	10	21	0.1	21	21	401	0.2	400	401	16.6	85.9
2025-09-08T07:40	10	20	0.2	20	21	400	0.3	400	401	16.7	85.7
2025-09-08T07:41	10	20	0.2	19	20	400	0.2	400	401	16.7	85.2
2025-09-08T07:42	10	19	0.2	19	19	400	0.4	399	401	16.7	85.1
2025-09-08T07:43	10	19	0.1	18	19	399	0.3	399	400	16.7	84.6
2025-09-08T07:44	10	18	0.2	18	18	399	0.2	399	400	16.7	84.7
2025-09-08T07:45	10	18	0.1	17	18	399	0.3	399	400	16.8	85.1
2025-09-08T07:46	10	17	0.2	17	18	399	0.2	399	400	16.8	85.1
2025-09-08T07:47	10	17	0.1	17	18	399	0.2	398	399	16.8	85.3
2025-09-08T07:48	10	17	0.1	17	17	399	0.2	399	399	16.8	85.1
2025-09-08T07:49	10	17	0.1	17	18	399	0.3	398	400	16.8	85.3
2025-09-08T07:50	10	17	0.2	17	18	400	0.3	399	400	16.8	85.8
2025-09-08T07:51	10	17	0.1	17	18	400	0.2	400	401	16.8	85.5
2025-09-08T07:52	10	17	0.1	17	18	400	0.3	399	400	16.8	85.2
2025-09-08T07:53	10	17	0.1	17	18	399	0.3	398	400	16.8	85.7
2025-09-08T07:54	10	17	0.1	17	17	400	0.2	399	400	16.8	86.3
2025-09-08T07:55	10	17	0.2	17	17	400	0.2	399	400	16.8	86.2
2025-09-08T07:56	10	17	0.2	17	18	400	0.3	399	401	16.8	85.6
2025-09-08T07:57	10	17	0.1	17	17	400	0.2	399	400	16.8	85.7
2025-09-08T07:58	10	17	0.2	17	17	400	0.2	399	400	16.8	85.8
2025-09-08T07:59	10	17	0.2	17	18	400	0.3	400	401	16.8	85.9
2025-09-08T08:00	10	18	0.2	17	18	400	0.3	400	401	16.8	86.0
2025-09-08T08:01	10	18	0.2	18	19	400	0.4	400	401	16.8	86.7
2025-09-08T08:02	10	19	0.2	19	20	401	0.3	400	401	16.8	86.9
2025-09-08T08:03	10	20	0.3	19	21	401	0.2	401	402	16.8	86.6
2025-09-08T08:04	10	21	0.3	20	21	401	0.2	401	402	16.9	86.9
2025-09-08T08:05	10	22	0.4	21	23	402	0.3	401	402	16.9	87.2
2025-09-08T08:06	10	23	0.4	22	24	402	0.3	401	403	16.9	87.6
2025-09-08T08:07	10	24	0.4	24	25	402	0.3	402	403	16.9	87.0
2025-09-08T08:08	10	25	0.3	25	26	403	0.2	402	403	16.9	87.3
2025-09-08T08:09	10	26	0.3	26	27	403	0.4	402	404	16.9	86.7
2025-09-08T08:10	10	27	0.3	27	28	404	0.3	403	405	17.0	86.4
2025-09-08T08:11	10	28	0.3	28	29	404	0.3	404	405	17.0	86.6
2025-09-08T08:12	10	29	0.4	29	30	405	0.3	404	406	17.1	87.0
2025-09-08T08:13	10	31	0.4	30	31	405	0.2	404	406	17.1	85.1
2025-09-08T08:14	10	32	0.4	31	33	406	0.3	405	406	17.2	84.3
2025-09-08T08:15	10	33	0.4	33	34	406	0.3	406	407	17.2	84.3
2025-09-08T08:16	10	34	0.3	34	35	407	0.3	406	408	17.3	84.7
2025-09-08T08:17	10	35	0.2	35	36	408	0.2	407	408	17.3	84.6
2025-09-08T08:18	10	36	0.1	35	36	408	0.3	408	409	17.4	84.8
2025-09-08T08:19	10	36	0.2	36	37	409	0.2	408	409	17.4	83.6
2025-09-08T08:20	10	37	0.2	36	37	409	0.2	409	409	17.4	85.0
2025-09-08T08:21	10	37	0.2	37	38	409	0.2	409	410	17.4	85.0
2025-09-08T08:22	10	38	0.2	38	38	410	0.2	409	410	17.4	83.6
2025-09-08T08:23	10	39	0.2	38	39	410	0.3	409	410	17.4	85.0
2025-09-08T08:24	10	39	0.1	39	39	410	0.2	409	410	17.4	85.0
2025-09-08T08:25	10	39	0.1	39	40	410	0.4	409	411	17.4	85.0
2025-09-08T08:26	10	39	0.1	39	39	410	0.2	409	410	17.5	83.8
2025-09-08T08:27	10	39	0.1	39	39	410	0.2	409	410	17.6	81.8
2025-09-08T08:28	10	39	0.1	39	39	410	0.2	410	411	17.7	82.3
2025-09-08T08:29	10	39	0.1	39	39	411	0.2	410	411	17.7	82.8
2025-09-08T08:30	10	39	0.1	39	39	411	0.2	410	411	17.8	83.3
2025-09-08T08:31	10	39	0.2	39	40	410	0.3	410	411	17.8	80.6
2025-09-08T08:32	10	40	0.2	40	40	411	0.2	410	411	17.9	81.8
2025-09-08T08:33	10	41	0.3	40	41	411	0.3	410	412	17.8	82.9
2025-09-08T08:34	10	42	0.3	41	42	411	0.3	410	411	17.8	81.0
2025-09-08T08:35	10	42	0.2	42	43	411	0.3	410	411	17.8	81.4
2025-09-08T08:36	10	44	0.4	43	44	411	0.4	410	412	17.8	81.7
2025-09-08T08:37	10	45	0.4	44	46	413	0.4	412	413	17.9	82.5
2025-09-08T08:38	10	46	0.4	46	47	413	0.3	412	414	17.9	81.9
2025-09-08T08:39	10	48	0.6	47	49	414	0.3	413	414	18.0	81.2
2025-09-08T08:40	10	49	0.3	49	50	414	0.4	413	415	18.0	80.9
2025-09-08T08:41	10	49	0.4	48	49	415	0.3	414	415	18.2	81.6
2025-09-08T08:42	10	48	0.3	47	48	415	0.3	415	416	18.3	80.8
2025-09-08T08:43	10	47	0.1	47	47	415	0.2	414	415	18.3	80.9
2025-09-08T08:44	10	48	0.8	47	50	415	0.3	415	416	18.3	80.5
2025-09-08T08:45	10	50	0.2	50	51	415	0.3	415	416	18.3	79.4
2025-09-08T08:46	10	53	1.2	51	55	416	0.3	415	417	18.3	79.5
2025-09-08T08:47	10	59	2.2	55	61	417	0.5	416	418	18.4	80.7
2025-09-08T08:48	10	64	2.7	61	69	419	0.6	418	420	18.5	79.6
2025-09-08T08:49	10	71	2.0	68	75	421	0.8	419	422	18.6	79.6
2025-09-08T08:50	10	70	2.9	66	75	421	0.3	420	422	18.6	79.2
2025-09-08T08:51	10	70	1.0	69	72	421	0.2	421	422	18.8	80.3
2025-09-08T08:52	10	71	1.4	68	78	422	0.2	421	422	18.8	77.8
2025-09-08T08:53	10	67	1.3	65	69	421	0.3	421	422	18.9	76.8
2025-09-08T08:54	10	66	0.5	66	67	421	0.2	421	422	18.9	77.0
2025-09-08T08:55	10	67	0.9	65	68	422	0.3	421	422	19.0	77.6
2025-09-08T08:56	10	65	0.9	63	66	422	0.3	421	423	19.0	76.4
2025-09-08T08:57	10	59	2.3	57	65	422	0.7	420	423	19.1	78.1
2025-09-08T08:58	10	57	0.2	57	58	421	0.3	420	422	19.2	77.9
2025-09-08T08:59	10	57	1.0	56	59	421	0.3	420	421	19.1	77.5
2025-09-08T09:00	10	54	1.3	52	56	421	0.5	420	421	19.1	76.6
2025-09-08T09:01	10	50	0.8	49	52	420	0.4	419	421	19.0	76.7
2025-09-08T09:02	10	48	0.5	47	49	420	0.3	419	420	19.1	77.0
2025-09-08T09:03	10	47	0.5	46	47	419	0.4	418	420	19.1	75.0
2025-09-08T09:04	10	45	0.4	44	46	419	0.2	418	419	19.1	74.3
2025-09-08T09:05	10	44	0.4	43	44	419	0.2	418	419	19.2	74.0
2025-09-08T09:06	10	43	0.2	43	43	418	0.3	418	419	19.2	75.2
2025-09-08T09:07	10	42	0.2	42	43	418	0.2	418	418	19.3	73.9
2025-09-08T09:08	10	42	0.1	41	42	418	0.2	418	419	19.4	73.6
2025-09-08T09:09	10	41	0.1	41	42	418	0.2	418	418	19.4	74.5
2025-09-08T09:10	10	41	0.1	41	41	418	0.2	418	418	19.4	74.1
2025-09-08T09:11	10	41	0.1	41	41	418	0.2	418	419	19.4	73.6
2025-09-08T09:12	10	41	0.1	41	41	418	0.2	418	419	19.5	72.7
2025-09-08T09:13	10	40	0.1	40	41	418	0.2	418	419	19.5	73.1
2025-09-08T09:14	10	40	0.2	39	40	418	0.2	418	419	19.5	73.7
2025-09-08T09:15	10	39	0.2	39	40	418	0.2	418	419	19.5	73.1
2025-09-08T09:16	10	39	0.2	38	39	419	0.3	418	419	19.5	75.0
2025-09-08T09:17	10	38	0.2	38	39	418	0.2	418	419	19.5	73.9
2025-09-08T09:18	10	38	0.2	37	38	419	0.3	418	419	19.4	75.5
2025-09-08T09:19	10	37	0.3	36	37	418	0.4	417	419	19.4	74.2
2025-09-08T09:20	10	36	0.4	35	37	418	0.3	417	418	19.4	73.9
2025-09-08T09:21	10	35	0.3	34	35	418	0.3	417	418	19.4	74.3
2025-09-08T09:22	10	34	0.3	33	35	418	0.4	417	418	19.4	74.5
2025-09-08T09:23	10	33	0.3	33	34	417	0.3	417	418	19.4	73.9
2025-09-08T09:24	10	33	0.2	32	33	418	0.3	417	418	19.4	75.6
2025-09-08T09:25	10	32	0.2	32	33	417	0.3	417	418	19.4	75.7
2025-09-08T09:26	10	32	0.2	31	32	417	0.2	417	418	19.5	75.2
2025-09-08T09:27	10	31	0.2	31	32	417	0.2	417	418	19.5	75.0
2025-09-08T09:28	10	31	0.3	30	31	417	0.3	416	418	19.4	75.5
2025-09-08T09:29	10	30	0.3	29	30	416	0.2	416	417	19.4	74.9
2025-09-08T09:30	10	28	0.3	28	29	416	0.2	415	416	19.3	75.4
2025-09-08T09:31	10	28	0.2	27	28	415	0.5	414	416	19.4	75.9
2025-09-08T09:32	10	27	0.1	27	27	414	0.4	413	415	19.4	76.0
2025-09-08T09:33	10	27	0.1	27	27	414	0.2	413	414	19.3	76.1
2025-09-08T09:34	10	27	0.1	27	27	414	0.3	414	415	19.3	77.1
2025-09-08T09:35	10	27	0.1	27	27	415	0.3	414	415	19.2	78.5
2025-09-08T09:36	10	27	0.1	27	27	414	0.2	414	415	19.2	78.0
2025-09-08T09:37	10	27	0.1	27	27	415	0.2	414	415	19.2	77.3
2025-09-08T09:38	10	27	0.1	27	27	414	0.3	414	415	19.3	76.4
2025-09-08T09:39	10	27	0.1	27	27	415	0.4	414	416	19.3	76.4
2025-09-08T09:40	10	27	0.1	27	27	414	0.5	413	415	19.5	74.6
2025-09-08T09:41	10	27	0.1	26	27	414	0.3	414	415	19.5	75.3
2025-09-08T09:42	10	26	0.2	26	26	415	0.3	414	415	19.5	76.8
2025-09-08T09:43	10	26	0.2	25	26	415	0.5	413	416	19.4	77.6
2025-09-08T09:44	10	25	0.2	25	25	414	0.3	413	414	19.3	77.0
2025-09-08T09:45	10	25	0.1	24	25	413	0.3	413	414	19.2	77.7
2025-09-08T09:46	10	24	0.2	24	24	413	0.3	413	414	19.2	78.0
2025-09-08T09:47	10	24	0.2	23	24	414	0.5	413	415	19.3	79.0
2025-09-08T09:48	10	23	0.1	23	23	415	0.3	414	415	19.4	79.8
2025-09-08T09:49	10	23	0.1	23	23	415	0.2	414	415	19.4	78.1
2025-09-08T09:50	10	23	0.1	22	23	414	0.3	413	415	19.4	76.8
2025-09-08T09:51	10	23	0.1	23	23	414	0.3	413	415	19.5	78.1
2025-09-08T09:52	10	23	0.2	23	23	414	0.3	413	415	19.5	77.4
2025-09-08T09:53	10	23	0.2	23	24	414	0.2	413	414	19.5	76.4
2025-09-08T09:54	10	24	0.3	24	25	414	0.2	413	414	19.5	77.9
2025-09-08T09:55	10	25	0.3	25	26	414	0.2	413	415	19.5	76.7
2025-09-08T09:56	10	26	0.3	25	27	415	0.4	414	415	19.5	78.8
2025-09-08T09:57	10	27	0.3	27	28	415	0.3	414	416	19.4	78.2
2025-09-08T09:58	10	28	0.3	27	29	416	0.4	415	417	19.4	78.7
2025-09-08T09:59	10	29	0.3	28	29	416	0.2	416	417	19.4	78.5
2025-09-08T10:00	10	30	0.3	29	30	416	0.3	415	417	19.4	77.8
2025-09-08T10:01	10	31	0.2	30	31	416	0.3	415	416	19.5	77.7
2025-09-08T10:02	10	32	0.2	31	32	416	0.2	416	417	19.5	78.2
2025-09-08T10:03	10	32	0.2	32	33	417	0.3	416	418	19.5	78.7
2025-09-08T10:04	10	33	0.2	32	33	417	0.3	416	418	19.5	79.1
2025-09-08T10:05	10	33	0.1	33	33	418	0.2	417	418	19.5	80.1
2025-09-08T10:06	10	33	0.1	33	34	418	0.2	417	418	19.5	79.7
2025-09-08T10:07	10	33	0.1	33	33	418	0.3	417	418	19.5	79.2
2025-09-08T10:08	10	33	0.1	32	33	418	0.2	418	418	19.5	79.4
2025-09-08T10:09	10	32	0.2	32	33	418	0.2	417	419	19.5	79.3
2025-09-08T10:10	10	32	0.1	32	32	418	0.2	418	419	19.6	79.2
2025-09-08T10:11	10	32	0.2	31	32	418	0.2	418	419	19.6	79.0
2025-09-08T10:12	10	31	0.1	31	31	418	0.2	418	419	19.6	78.8
2025-09-08T10:13	10	31	0.2	30	31	418	0.2	418	419	19.6	78.6
2025-09-08T10:14	10	30	0.2	30	31	419	0.2	418	419	19.6	78.5
2025-09-08T10:15	10	30	0.2	29	30	419	0.2	418	419	19.6	78.3
2025-09-08T10:16	10	29	0.2	29	29	419	0.3	418	419	19.6	78.3
2025-09-08T10:17	10	28	0.2	28	29	419	0.2	418	419	19.6	77.8
2025-09-08T10:18	10	28	0.2	27	28	419	0.2	418	419	19.7	77.6
2025-09-08T10:19	10	27	0.2	27	28	419	0.4	418	419	19.7	78.3
2025-09-08T10:20	10	26	0.3	26	27	418	0.2	418	419	19.7	77.8
2025-09-08T10:21	10	25	0.2	25	26	418	0.2	417	418	19.7	77.9
2025-09-08T10:22	10	24	0.3	24	25	418	0.2	417	418	19.7	78.5
2025-09-08T10:23	10	24	0.3	23	24	418	0.2	418	419	19.7	79.3
2025-09-08T10:24	10	23	0.3	22	23	418	0.3	417	419	19.8	79.0
2025-09-08T10:25	10	22	0.2	22	22	418	0.2	417	418	19.8	78.0
2025-09-08T10:26	10	21	0.2	21	22	417	0.2	417	418	19.8	77.6
2025-09-08T10:27	10	21	0.2	20	21	417	0.2	416	417	19.8	78.1
2025-09-08T10:28	10	20	0.2	20	20	417	0.2	416	417	19.8	78.3
2025-09-08T10:29	10	19	0.2	19	20	417	0.3	416	417	19.9	78.1
2025-09-08T10:30	10	19	0.2	18	19	416	0.2	416	417	19.9	76.9
2025-09-08T10:31	10	18	0.2	18	19	417	0.2	416	417	19.9	76.8
2025-09-08T10:32	10	18	0.2	17	18	416	0.3	416	417	19.9	76.5
2025-09-08T10:33	10	17	0.2	17	17	416	0.2	416	417	19.9	77.1
2025-09-08T10:34	10	17	0.1	16	17	416	0.2	416	417	19.9	76.5
2025-09-08T10:35	10	16	0.1	16	17	416	0.2	415	417	19.9	75.8
2025-09-08T10:36	10	16	0.1	16	16	416	0.2	415	416	20.0	76.2
2025-09-08T10:37	10	16	0.1	16	16	416	0.3	415	416	20.0	76.0
2025-09-08T10:38	10	16	0.1	16	16	416	0.2	415	416	20.0	76.0
2025-09-08T10:39	10	16	0.1	16	16	416	0.2	415	416	20.0	78.0
2025-09-08T10:40	10	16	0.1	15	16	416	0.2	415	416	20.0	78.5
2025-09-08T10:41	10	16	0.1	15	16	416	0.3	415	417	20.0	78.3
2025-09-08T10:42	10	16	0.1	15	16	415	0.3	415	416	20.0	78.5
2025-09-08T10:43	10	15	0.1	15	16	415	0.3	414	416	19.9	79.6
2025-09-08T10:44	10	15	0.1	15	16	415	0.2	414	415	19.9	80.0
2025-09-08T10:45	10	15	0.1	15	16	414	0.3	414	415	19.8	80.7
2025-09-08T10:46	10	16	0.1	15	16	414	0.3	413	415	19.8	80.0
2025-09-08T10:47	10	16	0.1	16	16	414	0.2	414	415	19.8	78.6
2025-09-08T10:48	10	16	0.1	16	16	414	0.3	414	415	19.9	77.0
2025-09-08T10:49	10	16	0.1	16	17	415	0.2	414	415	19.9	78.5
2025-09-08T10:50	10	17	0.1	16	17	415	0.2	415	415	19.8	79.4
2025-09-08T10:51	10	17	0.1	17	18	415	0.3	415	416	19.8	79.5
2025-09-08T10:52	10	18	0.1	17	18	416	0.3	415	416	19.9	77.8
2025-09-08T10:53	10	18	0.2	18	18	416	0.2	415	416	19.9	77.7
2025-09-08T10:54	10	18	0.2	18	19	416	0.2	415	416	19.9	77.6
2025-09-08T10:55	10	19	0.1	18	19	415	0.2	415	416	19.9	77.6
2025-09-08T10:56	10	19	0.1	19	19	415	0.3	415	416	19.8	78.7
2025-09-08T10:57	10	19	0.1	19	19	415	0.2	415	416	19.8	79.9
2025-09-08T10:58	10	19	0.1	19	19	415	0.3	415	416	19.8	79.4
2025-09-08T10:59	10	19	0.1	19	19	415	0.3	414	416	19.8	78.8
2025-09-08T11:00	10	19	0.1	18	19	415	0.2	415	415	19.8	79.1
2025-09-08T11:01	10	18	0.1	18	19	415	0.2	415	416	19.8	80.3
2025-09-08T11:02	10	18	0.2	17	18	415	0.2	415	416	19.8	80.8
2025-09-08T11:03	10	17	0.2	17	17	415	0.2	415	416	19.8	79.8
2025-09-08T11:04	10	16	0.2	16	17	415	0.3	414	415	19.9	78.0
2025-09-08T11:05	10	16	0.2	15	16	414	0.2	414	415	19.9	77.1
2025-09-08T11:06	10	15	0.2	15	15	414	0.2	414	415	20.0	78.5
2025-09-08T11:07	10	14	0.2	14	15	414	0.2	413	414	19.9	81.0
2025-09-08T11:08	10	14	0.1	14	14	413	0.2	413	414	19.8	80.0
2025-09-08T11:09	10	14	0.1	14	14	414	0.2	413	414	19.8	79.7
2025-09-08T11:10	10	14	0.1	14	15	414	0.2	413	414	19.8	79.8
2025-09-08T11:11	10	15	0.1	14	15	413	0.4	412	413	19.7	81.4
2025-09-08T11:12	10	15	0.1	15	15	412	0.2	412	413	19.6	82.5
2025-09-08T11:13	10	14	0.1	14	15	412	0.3	412	413	19.6	83.2
2025-09-08T11:14	10	14	0.1	14	14	413	0.2	412	413	19.6	83.7
2025-09-08T11:15	10	13	0.1	13	14	413	0.2	412	413	19.5	84.4
2025-09-08T11:16	10	13	0.2	13	13	413	0.3	412	413	19.5	83.7
2025-09-08T11:17	10	13	0.1	12	13	412	0.2	411	412	19.5	82.7
2025-09-08T11:18	10	12	0.1	12	13	412	0.2	411	412	19.5	82.8
2025-09-08T11:19	10	12	0.1	12	12	411	0.2	411	412	19.5	83.8
2025-09-08T11:20	10	12	0.1	12	12	411	0.3	410	411	19.4	82.9
2025-09-08T11:21	10	12	0.1	12	12	411	0.2	410	411	19.4	82.9
2025-09-08T11:22	10	12	0.1	12	12	411	0.2	410	411	19.4	84.2
2025-09-08T11:23	10	12	0.1	12	12	411	0.2	410	411	19.4	83.1
2025-09-08T11:24	10	12	0.1	12	12	411	0.2	410	411	19.4	82.9
2025-09-08T11:25	10	13	0.2	12	13	410	0.2	409	411	19.4	82.5
2025-09-08T11:26	10	13	0.2	13	13	410	0.4	410	411	19.3	83.0
2025-09-08T11:27	10	14	0.2	13	14	411	0.3	410	411	19.3	82.9
2025-09-08T11:28	10	15	0.3	14	15	411	0.3	410	412	19.3	82.4
2025-09-08T11:29	10	16	0.5	15	17	411	0.3	410	412	19.3	83.3
2025-09-08T11:30	10	18	0.6	17	19	412	0.4	411	413	19.3	82.9
2025-09-08T11:31	10	20	0.5	19	20	413	0.4	412	414	19.3	83.3
2025-09-08T11:32	10	21	0.4	20	22	414	0.4	413	415	19.3	83.5
2025-09-08T11:33	10	23	0.4	22	23	414	0.3	413	415	19.3	83.4
2025-09-08T11:34	10	24	0.4	23	25	415	0.3	414	415	19.3	83.4
2025-09-08T11:35	10	25	0.3	25	26	415	0.2	415	416	19.4	83.3
2025-09-08T11:36	10	26	0.1	26	26	415	0.2	415	416	19.4	85.1
2025-09-08T11:37	10	26	0.1	26	26	415	0.2	415	416	19.3	85.8
2025-09-08T11:38	10	26	0.1	26	27	415	0.2	415	416	19.3	84.8
2025-09-08T11:39	10	27	0.1	26	27	415	0.2	415	416	19.3	86.1
2025-09-08T11:40	10	27	0.1	27	27	415	0.2	415	416	19.2	86.8
2025-09-08T11:41	10	27	0.1	27	27	415	0.2	415	415	19.2	87.9
2025-09-08T11:42	10	27	0.2	27	28	415	0.3	415	416	19.1	86.1
2025-09-08T11:43	10	28	0.2	27	28	415	0.2	415	416	19.2	86.5
2025-09-08T11:44	10	28	0.2	28	29	416	0.2	415	416	19.2	86.9
2025-09-08T11:45	10	29	0.1	29	29	416	0.2	415	416	19.2	87.0
2025-09-08T11:46	10	29	0.1	28	29	416	0.2	415	416	19.2	86.8
2025-09-08T11:47	10	29	0.1	28	29	415	0.2	415	416	19.2	86.1
2025-09-08T11:48	10	28	0.2	28	29	415	0.3	415	416	19.2	85.7
2025-09-08T11:49	10	28	0.1	28	28	415	0.4	414	416	19.3	85.0
2025-09-08T11:50	10	28	0.2	27	28	416	0.2	415	416	19.3	83.9
2025-09-08T11:51	10	28	0.1	27	28	416	0.3	415	416	19.3	84.6
2025-09-08T11:52	10	27	0.1	27	28	416	0.3	415	417	19.4	85.5
2025-09-08T11:53	10	27	0.1	27	28	416	0.2	415	416	19.4	84.1
2025-09-08T11:54	10	28	0.1	27	28	416	0.3	416	417	19.4	83.9
2025-09-08T11:55	10	27	0.1	27	28	416	0.2	416	417	19.4	82.9
2025-09-08T11:56	10	27	0.1	27	27	416	0.2	416	417	19.5	82.6
2025-09-08T11:57	10	27	0.1	27	27	416	0.3	416	417	19.5	83.3
2025-09-08T11:58	10	27	0.1	27	27	416	0.2	416	417	19.5	87.1
2025-09-08T11:59	10	27	0.2	26	27	416	0.3	415	417	19.4	86.9
2025-09-08T12:00	10	26	0.3	25	26	416	0.4	415	416	19.4	86.0
2025-09-08T12:01	10	25	0.3	24	26	415	0.2	414	415	19.4	84.2
2025-09-08T12:02	10	24	0.3	23	24	415	0.3	414	415	19.4	86.2
2025-09-08T12:03	10	23	0.3	22	23	414	0.3	414	415	19.4	87.1
2025-09-08T12:04	10	22	0.2	22	22	414	0.4	413	415	19.4	86.4
2025-09-08T12:05	10	21	0.2	21	22	413	0.4	412	413	19.4	85.8
2025-09-08T12:06	10	21	0.1	20	21	412	0.3	411	412	19.3	84.4
2025-09-08T12:07	10	20	0.1	20	21	411	0.3	410	412	19.3	84.4
2025-09-08T12:08	10	20	0.1	20	20	411	0.2	410	411	19.2	84.6
2025-09-08T12:09	10	20	0.1	20	20	411	0.2	410	411	19.2	83.7
2025-09-08T12:10	10	20	0.1	20	20	411	0.2	410	411	19.2	84.9
2025-09-08T12:11	10	20	0.1	20	20	411	0.2	410	411	19.1	85.2
2025-09-08T12:12	10	20	0.2	20	21	411	0.2	411	411	19.1	85.6
2025-09-08T12:13	10	21	0.2	21	21	411	0.2	411	412	19.1	85.3
2025-09-08T12:14	10	22	0.2	21	22	411	0.2	411	412	19.1	85.6
2025-09-08T12:15	10	23	0.3	22	23	411	0.3	411	412	19.1	86.1
2025-09-08T12:16	10	24	0.3	23	24	412	0.4	411	413	19.1	86.7
2025-09-08T12:17	10	25	0.4	24	25	413	0.2	412	414	19.1	85.5
2025-09-08T12:18	10	26	0.4	25	27	413	0.2	412	413	19.1	85.7
2025-09-08T12:19	10	27	0.3	27	28	414	0.3	413	414	19.1	85.9
2025-09-08T12:20	10	27	0.4	26	28	415	0.3	414	415	19.1	86.8
2025-09-08T12:21	10	25	0.8	24	26	415	0.2	414	415	19.1	86.5
2025-09-08T12:22	10	22	1.0	21	24	415	0.4	414	415	19.1	87.2
2025-09-08T12:23	10	19	0.7	18	21	414	0.4	413	415	19.1	86.6
2025-09-08T12:24	10	18	0.4	17	18	413	0.4	412	414	19.1	86.8
2025-09-08T12:25	10	17	0.1	17	17	413	0.3	412	413	19.1	87.3
2025-09-08T12:26	10	17	0.2	17	17	412	0.3	412	413	19.1	86.4
2025-09-08T12:27	10	18	0.3	17	18	412	0.3	412	413	19.1	87.2
2025-09-08T12:28	10	19	0.4	18	20	413	0.3	412	413	19.1	87.5
2025-09-08T12:29	10	20	0.2	19	20	413	0.3	412	414	19.0	86.3
2025-09-08T12:30	10	20	0.1	20	21	413	0.3	412	413	19.1	86.6
2025-09-08T12:31	10	20	0.1	20	21	413	0.2	412	414	19.1	87.4
2025-09-08T12:32	10	20	0.2	19	20	413	0.2	412	413	19.1	87.2
2025-09-08T12:33	10	19	0.3	19	20	413	0.2	412	413	19.1	87.5
2025-09-08T12:34	10	18	0.2	18	19	412	0.2	412	413	19.1	87.2
2025-09-08T12:35	10	18	0.1	18	18	412	0.3	411	413	19.1	87.3
2025-09-08T12:36	10	18	0.1	17	18	412	0.2	411	412	19.1	87.1
2025-09-08T12:37	10	18	0.2	18	18	411	0.2	411	412	19.1	86.9
2025-09-08T12:38	10	19	0.2	18	19	412	0.3	411	413	19.1	87.2
2025-09-08T12:39	10	19	0.2	19	20	413	0.2	412	413	19.1	87.2
2025-09-08T12:40	10	20	0.1	20	20	413	0.2	412	413	19.1	86.5
2025-09-08T12:41	10	20	0.1	20	20	413	0.2	412	413	19.1	84.7
2025-09-08T12:42	10	21	0.2	20	21	412	0.2	411	413	19.1	85.0
2025-09-08T12:43	10	21	0.3	21	22	411	0.2	411	412	19.1	85.4
2025-09-08T12:44	10	22	0.3	22	23	412	0.2	411	412	19.1	85.5
2025-09-08T12:45	10	23	0.2	22	23	412	0.2	411	412	19.0	84.8
2025-09-08T12:46	10	23	0.2	23	24	412	0.3	411	413	19.0	85.7
2025-09-08T12:47	10	24	0.1	23	24	412	0.2	412	413	19.0	85.5
2025-09-08T12:48	10	24	0.1	24	24	412	0.2	411	412	19.0	86.5
2025-09-08T12:49	10	24	0.1	24	24	412	0.3	412	413	19.0	87.4
2025-09-08T12:50	10	24	0.1	24	24	413	0.2	412	414	19.0	86.8
2025-09-08T12:51	10	24	0.1	24	24	413	0.3	413	414	19.0	87.0
2025-09-08T12:52	10	23	0.2	23	24	413	0.2	413	414	19.0	86.8
2025-09-08T12:53	10	23	0.3	22	23	413	0.3	412	413	19.0	85.9
2025-09-08T12:54	10	21	0.4	21	22	412	0.2	412	413	19.0	86.6
2025-09-08T12:55	10	20	0.3	20	21	413	0.3	412	413	19.0	86.2
2025-09-08T12:56	10	20	0.1	19	20	412	0.2	411	412	19.0	86.3
2025-09-08T12:57	10	19	0.2	19	20	412	0.2	412	413	19.0	86.0
2025-09-08T12:58	10	18	0.3	18	19	412	0.2	411	412	19.0	84.9
2025-09-08T12:59	10	18	0.2	17	18	412	0.2	411	412	19.0	86.2
2025-09-08T13:00	10	17	0.1	17	18	412	0.3	412	413	19.0	85.7
2025-09-08T13:01	10	17	0.1	17	18	412	0.2	411	412	19.0	85.4
2025-09-08T13:02	10	18	0.2	18	19	412	0.2	411	412	19.0	85.2
2025-09-08T13:03	10	19	0.3	19	20	411	0.3	411	412	19.0	84.3
2025-09-08T13:04	10	20	0.4	20	21	411	0.3	411	412	19.0	85.4
2025-09-08T13:05	10	22	0.5	21	23	412	0.3	411	413	19.0	85.8
2025-09-08T13:06	10	24	0.6	23	25	412	0.2	412	413	19.0	85.1
2025-09-08T13:07	10	25	0.4	25	26	413	0.3	412	413	19.0	85.3
2025-09-08T13:08	10	26	0.1	26	26	413	0.3	412	414	19.0	86.0
2025-09-08T13:09	10	25	0.5	24	26	414	0.2	413	414	19.0	86.5
2025-09-08T13:10	10	23	0.7	22	24	414	0.3	413	414	19.0	86.1
2025-09-08T13:11	10	21	0.5	20	22	414	0.2	413	414	19.0	86.6
2025-09-08T13:12	10	19	0.4	19	20	413	0.3	412	414	19.0	86.3
2025-09-08T13:13	10	18	0.3	18	19	413	0.2	412	413	19.0	86.3
2025-09-08T13:14	10	18	0.1	18	18	413	0.2	413	413	19.0	86.4
2025-09-08T13:15	10	18	0.1	17	18	413	0.4	412	414	19.0	86.3
2025-09-08T13:16	10	17	0.1	17	18	412	0.2	412	413	19.0	85.5
2025-09-08T13:17	10	17	0.2	16	17	413	0.2	412	413	19.0	85.6
2025-09-08T13:18	10	16	0.3	15	17	413	0.2	412	413	19.0	86.1
2025-09-08T13:19	10	15	0.3	15	15	413	0.2	412	413	19.0	85.5
2025-09-08T13:20	10	14	0.2	14	15	412	0.3	412	413	19.0	86.3
2025-09-08T13:21	10	14	0.2	13	14	412	0.2	412	412	19.0	86.1
2025-09-08T13:22	10	13	0.1	13	13	412	0.3	411	412	19.0	85.8
2025-09-08T13:23	10	13	0.1	13	13	411	0.2	411	412	19.0	85.3
2025-09-08T13:24	10	13	0.1	13	13	412	0.2	411	412	19.0	85.0
2025-09-08T13:25	10	14	0.2	13	14	412	0.4	412	413	19.0	85.5
2025-09-08T13:26	10	14	0.1	14	14	412	0.2	412	413	19.1	86.4
2025-09-08T13:27	10	15	0.1	14	15	413	0.2	412	413	19.1	87.4
2025-09-08T13:28	10	15	0.2	15	15	413	0.3	412	413	19.0	86.5
2025-09-08T13:29	10	16	0.2	15	16	413	0.3	412	413	19.1	86.7
2025-09-08T13:30	10	16	0.1	16	16	413	0.3	412	413	19.1	86.6
2025-09-08T13:31	10	17	0.2	16	17	413	0.3	412	414	19.1	85.6
2025-09-08T13:32	10	17	0.4	17	18	412	0.2	412	413	19.1	85.8
2025-09-08T13:33	10	18	0.2	18	19	413	0.3	412	413	19.1	85.9
2025-09-08T13:34	10	19	0.1	18	19	413	0.2	412	413	19.0	85.3
2025-09-08T13:35	10	18	0.2	18	18	413	0.2	412	413	19.0	85.6
2025-09-08T13:36	10	18	0.1	18	18	413	0.2	413	413	19.0	85.4
2025-09-08T13:37	10	18	0.1	18	18	413	0.2	412	413	19.0	84.9
2025-09-08T13:38	10	18	0.1	18	18	413	0.3	412	413	19.0	84.8
2025-09-08T13:39	10	18	0.2	17	18	413	0.3	412	413	19.1	85.3
2025-09-08T13:40	10	17	0.2	17	18	413	0.2	412	413	19.1	85.7
2025-09-08T13:41	10	17	0.1	17	17	413	0.3	413	413	19.1	84.9
2025-09-08T13:42	10	17	0.1	17	17	413	0.2	412	413	19.1	84.8
2025-09-08T13:43	10	17	0.1	17	17	413	0.3	412	414	19.1	85.6
2025-09-08T13:44	10	17	0.2	17	17	413	0.2	413	414	19.1	85.4
2025-09-08T13:45	10	18	0.2	17	18	413	0.2	413	414	19.1	84.7
2025-09-08T13:46	10	19	0.3	18	19	414	0.2	413	414	19.1	84.8
2025-09-08T13:47	10	20	0.4	19	20	414	0.3	414	415	19.2	85.6
2025-09-08T13:48	10	21	0.3	20	21	414	0.2	414	415	19.2	85.4
2025-09-08T13:49	10	21	0.1	21	22	414	0.3	414	415	19.2	85.6
2025-09-08T13:50	10	22	0.1	22	22	415	0.2	414	415	19.2	85.2
2025-09-08T13:51	10	22	0.1	22	22	415	0.2	415	416	19.2	85.2
2025-09-08T13:52	10	22	0.1	21	22	415	0.2	415	416	19.2	85.0
2025-09-08T13:53	10	21	0.2	21	22	415	0.3	415	416	19.2	85.3
2025-09-08T13:54	10	21	0.2	20	21	415	0.2	415	416	19.2	86.1
2025-09-08T13:55	10	20	0.3	19	20	415	0.3	415	416	19.2	85.5
2025-09-08T13:56	10	19	0.3	18	19	415	0.2	414	415	19.3	86.9
2025-09-08T13:57	10	18	0.4	17	18	414	0.3	414	415	19.3	86.6
2025-09-08T13:58	10	16	0.2	16	17	413	0.4	413	414	19.2	86.1
2025-09-08T13:59	10	16	0.2	16	16	413	0.2	412	414	19.2	85.8
2025-09-08T14:00	10	15	0.1	15	16	412	0.3	412	413	19.2	85.7
2025-09-08T14:01	10	16	0.1	15	16	412	0.2	411	412	19.1	85.6
2025-09-08T14:02	10	16	0.2	16	17	412	0.2	411	412	19.1	85.8
2025-09-08T14:03	10	17	0.2	17	17	412	0.2	411	413	19.1	85.7
2025-09-08T14:04	10	17	0.1	17	17	412	0.2	411	412	19.1	85.3
2025-09-08T14:05	10	17	0.1	17	17	411	0.2	411	412	19.1	85.0
2025-09-08T14:06	10	17	0.1	17	17	411	0.2	411	412	19.0	84.9
2025-09-08T14:07	10	17	0.2	17	18	411	0.2	411	412	19.0	85.6
2025-09-08T14:08	10	18	0.3	18	19	411	0.2	411	412	19.0	84.9
2025-09-08T14:09	10	19	0.2	19	19	411	0.2	410	411	19.0	85.0
2025-09-08T14:10	10	20	0.1	19	20	411	0.3	411	412	19.0	85.5
2025-09-08T14:11	10	20	0.1	20	20	412	0.2	411	412	19.0	85.9
2025-09-08T14:12	10	20	0.1	20	20	412	0.2	412	413	19.0	86.2
2025-09-08T14:13	10	20	0.1	20	20	412	0.2	412	413	19.0	86.3
2025-09-08T14:14	10	20	0.1	20	20	413	0.3	412	413	19.0	87.2
2025-09-08T14:15	10	20	0.1	20	20	412	0.3	412	413	19.0	87.0
2025-09-08T14:16	10	20	0.1	20	20	412	0.2	412	413	19.0	87.0
2025-09-08T14:17	10	20	0.1	20	20	412	0.3	412	413	19.0	87.0
2025-09-08T14:18	10	20	0.3	19	20	413	0.3	412	414	19.0	87.2
2025-09-08T14:19	10	18	0.4	18	19	413	0.3	412	413	19.0	86.4
2025-09-08T14:20	10	17	0.2	17	18	413	0.2	412	413	19.0	86.3
2025-09-08T14:21	10	17	0.1	17	17	412	0.2	412	413	19.0	86.4
2025-09-08T14:22	10	17	0.1	17	17	412	0.3	412	413	19.0	86.6
2025-09-08T14:23	10	17	0.1	17	17	412	0.2	412	413	19.0	86.6
2025-09-08T14:24	10	17	0.1	17	18	412	0.2	412	413	19.0	86.6
2025-09-08T14:25	10	18	0.1	18	18	413	0.3	412	413	19.0	86.6
2025-09-08T14:26	10	18	0.1	18	18	413	0.3	412	413	19.1	87.0
2025-09-08T14:27	10	18	0.2	18	19	412	0.2	412	413	19.1	86.7
2025-09-08T14:28	10	19	0.2	19	19	412	0.2	412	413	19.0	86.7
2025-09-08T14:29	10	20	0.1	19	20	412	0.2	411	412	19.0	87.3
2025-09-08T14:30	10	20	0.1	20	20	412	0.2	411	412	19.0	87.0
2025-09-08T14:31	10	20	0.1	20	20	412	0.3	411	412	19.0	87.2
2025-09-08T14:32	10	19	0.1	19	20	412	0.3	411	412	19.0	87.2
2025-09-08T14:33	10	19	0.1	19	19	412	0.3	412	413	19.0	87.3
2025-09-08T14:34	10	19	0.1	18	19	412	0.3	412	413	19.0	87.3
2025-09-08T14:35	10	18	0.2	18	18	412	0.3	412	413	19.0	87.2
2025-09-08T14:36	10	17	0.3	17	18	412	0.3	412	413	19.0	87.4
2025-09-08T14:37	10	16	0.3	16	17	413	0.2	412	413	19.0	87.7
2025-09-08T14:38	10	15	0.3	14	16	412	0.4	412	413	19.0	87.5
2025-09-08T14:39	10	14	0.4	13	15	412	0.2	411	412	19.0	87.5
2025-09-08T14:40	10	12	0.4	12	13	411	0.4	411	412	19.0	87.5
2025-09-08T14:41	10	11	0.2	11	12	411	0.3	410	412	19.0	87.6
2025-09-08T14:42	10	11	0.1	11	11	411	0.2	410	411	19.0	87.7
2025-09-08T14:43	10	11	0.2	11	11	411	0.3	410	411	19.0	87.6
2025-09-08T14:44	10	12	0.2	11	12	410	0.2	410	411	19.0	87.9
2025-09-08T14:45	10	12	0.3	12	13	410	0.2	410	411	19.0	88.0
2025-09-08T14:46	10	13	0.4	13	14	411	0.3	410	411	19.0	88.0
2025-09-08T14:47	10	15	0.4	14	15	411	0.3	410	412	19.0	88.2
2025-09-08T14:48	10	16	0.4	15	16	412	0.3	411	412	19.0	88.8
2025-09-08T14:49	10	17	0.3	17	17	412	0.2	412	413	19.0	88.8
2025-09-08T14:50	10	18	0.1	17	18	412	0.2	412	413	19.0	88.9
2025-09-08T14:51	10	18	0.1	18	18	413	0.2	412	413	19.0	88.8
2025-09-08T14:52	10	18	0.1	17	18	413	0.3	412	413	19.0	89.0
2025-09-08T14:53	10	17	0.1	17	18	413	0.2	413	414	19.1	89.3
2025-09-08T14:54	10	17	0.1	17	17	413	0.3	413	414	19.1	89.4
2025-09-08T14:55	10	17	0.1	17	17	413	0.3	412	413	19.1	89.5
2025-09-08T14:56	10	17	0.1	17	17	413	0.3	412	413	19.0	89.1
2025-09-08T14:57	10	17	0.1	17	17	413	0.3	412	413	19.0	89.4
2025-09-08T14:58	10	17	0.1	17	18	412	0.3	412	413	19.0	89.5
2025-09-08T14:59	10	18	0.2	18	18	413	0.3	412	413	19.0	89.5
2025-09-08T15:00	10	19	0.2	18	19	413	0.4	412	413	19.1	89.8
2025-09-08T15:01	10	20	0.4	19	20	413	0.2	413	413	19.0	89.4
2025-09-08T15:02	10	21	0.4	20	22	413	0.3	413	414	19.1	89.6
2025-09-08T15:03	10	22	0.5	22	23	414	0.2	413	414	19.1	89.7
2025-09-08T15:04	10	24	0.6	23	25	414	0.2	414	415	19.0	89.4
2025-09-08T15:05	10	26	0.5	25	27	415	0.3	414	415	19.1	89.6
2025-09-08T15:06	10	28	0.5	27	29	415	0.3	415	416	19.1	89.8
2025-09-08T15:07	10	30	0.5	29	30	415	0.2	415	416	19.1	89.3
2025-09-08T15:08	10	31	0.3	30	31	416	0.4	416	417	19.1	89.7
2025-09-08T15:09	10	31	0.1	31	32	417	0.2	416	417	19.1	89.3
2025-09-08T15:10	10	31	0.2	31	32	417	0.3	416	417	19.1	89.6
2025-09-08T15:11	10	30	0.4	29	31	417	0.3	416	418	19.1	89.4
2025-09-08T15:12	10	29	0.3	28	29	417	0.2	416	417	19.2	89.7
2025-09-08T15:13	10	28	0.2	27	28	416	0.4	415	417	19.2	89.6
2025-09-08T15:14	10	27	0.1	27	27	416	0.2	415	416	19.2	89.3
2025-09-08T15:15	10	27	0.1	26	27	416	0.3	415	416	19.1	89.3
2025-09-08T15:16	10	26	0.1	26	27	416	0.3	416	417	19.2	89.3
2025-09-08T15:17	10	26	0.3	25	26	416	0.2	415	416	19.1	89.2
2025-09-08T15:18	10	24	0.5	23	25	416	0.2	415	416	19.1	89.3
2025-09-08T15:19	10	22	0.5	21	23	415	0.2	415	416	19.1	89.5
2025-09-08T15:20	10	21	0.3	20	22	415	0.4	414	416	19.1	89.7
2025-09-08T15:21	10	20	0.1	20	21	415	0.2	415	416	19.2	89.8
2025-09-08T15:22	10	20	0.1	20	21	416	0.3	415	416	19.2	89.8
2025-09-08T15:23	10	21	0.4	20	22	416	0.2	415	416	19.3	89.6
2025-09-08T15:24	10	23	0.5	22	24	416	0.2	415	416	19.2	88.8
2025-09-08T15:25	10	24	0.4	24	25	416	0.4	415	417	19.2	88.8
2025-09-08T15:26	10	25	0.3	25	26	416	0.3	416	417	19.3	89.1
2025-09-08T15:27	10	26	0.1	26	26	416	0.2	416	417	19.3	88.9
2025-09-08T15:28	10	25	0.4	25	26	417	0.2	417	417	19.3	89.2
2025-09-08T15:29	10	24	0.5	23	25	416	0.5	415	417	19.3	88.6
2025-09-08T15:30	10	22	0.6	21	23	416	0.3	415	416	19.2	88.6
2025-09-08T15:31	10	20	0.4	19	21	416	0.2	415	416	19.2	88.9
2025-09-08T15:32	10	19	0.3	18	19	416	0.4	415	416	19.3	89.0
2025-09-08T15:33	10	18	0.2	18	19	415	0.2	415	415	19.3	88.8
2025-09-08T15:34	10	18	0.1	18	18	415	0.3	414	415	19.2	88.2
2025-09-08T15:35	10	19	0.4	18	19	414	0.3	414	415	19.2	87.3
2025-09-08T15:36	10	21	0.7	20	22	414	0.2	414	415	19.3	87.6
2025-09-08T15:37	10	23	0.5	22	23	415	0.4	414	416	19.3	87.9
2025-09-08T15:38	10	24	0.4	23	25	415	0.2	415	416	19.3	88.7
2025-09-08T15:39	10	25	0.2	25	25	416	0.2	415	416	19.2	89.2
2025-09-08T15:40	10	25	0.1	25	26	416	0.5	415	417	19.3	89.4
2025-09-08T15:41	10	25	0.1	25	25	417	0.3	416	417	19.3	88.1
2025-09-08T15:42	10	25	0.2	25	25	415	0.3	414	416	19.2	86.5
2025-09-08T15:43	10	26	0.4	25	27	415	0.3	415	416	19.3	86.8
2025-09-08T15:44	10	28	0.5	27	28	416	0.2	415	416	19.3	87.2
2025-09-08T15:45	10	29	0.6	28	30	415	0.3	415	416	19.2	87.5
2025-09-08T15:46	10	31	0.5	30	32	416	0.2	415	416	19.2	87.7
2025-09-08T15:47	10	33	0.3	32	33	416	0.3	415	416	19.3	87.8
2025-09-08T15:48	10	34	0.1	33	34	416	0.2	415	416	19.2	88.0
2025-09-08T15:49	10	34	0.1	34	34	415	0.2	415	416	19.2	88.0
2025-09-08T15:50	10	34	0.1	33	34	416	0.4	415	417	19.2	88.3
2025-09-08T15:51	10	34	0.2	34	34	417	0.2	416	417	19.3	88.2
2025-09-08T15:52	10	34	0.3	33	34	416	0.3	415	417	19.3	88.2
2025-09-08T15:53	10	33	0.3	32	33	416	0.4	415	417	19.3	87.4
2025-09-08T15:54	10	31	0.3	31	32	415	0.3	414	416	19.2	86.8
2025-09-08T15:55	10	31	0.3	30	31	415	0.4	415	416	19.2	87.6
2025-09-08T15:56	10	30	0.2	29	30	416	0.2	415	416	19.3	87.8
2025-09-08T15:57	10	29	0.1	29	29	415	0.6	414	416	19.3	87.7
2025-09-08T15:58	10	29	0.1	29	29	414	0.2	414	415	19.2	89.1
2025-09-08T15:59	10	29	0.2	29	30	414	0.2	414	415	19.2	89.5
2025-09-08T16:00	10	29	0.1	29	30	414	0.2	414	415	19.2	89.7
2025-09-08T16:01	10	29	0.4	28	29	414	0.2	414	415	19.1	89.4
2025-09-08T16:02	10	27	0.3	27	28	414	0.2	413	414	19.1	89.4
2025-09-08T16:03	10	27	0.2	27	28	414	0.2	413	414	19.1	89.4
2025-09-08T16:04	10	28	0.3	28	28	414	0.3	413	414	19.1	89.3
2025-09-08T16:05	10	29	0.2	28	29	414	0.4	413	415	19.1	89.6
2025-09-08T16:06	10	29	0.1	29	29	414	0.2	413	414	19.0	89.8
2025-09-08T16:07	10	30	0.1	29	30	414	0.2	414	414	19.0	89.8
2025-09-08T16:08	10	30	0.1	29	30	414	0.3	413	415	19.0	89.6
2025-09-08T16:09	10	30	0.1	29	30	414	0.2	414	415	19.0	89.6
2025-09-08T16:10	10	29	0.1	29	29	415	0.3	414	415	19.0	89.2
2025-09-08T16:11	10	29	0.1	29	29	414	0.2	414	415	19.0	88.1
2025-09-08T16:12	10	29	0.1	29	29	414	0.3	414	415	19.0	88.6
2025-09-08T16:13	10	29	0.2	29	30	415	0.2	415	416	19.1	88.0
2025-09-08T16:14	10	31	0.8	30	32	416	0.4	415	417	19.1	88.2
2025-09-08T16:15	10	34	1.3	32	38	416	0.3	416	417	19.1	88.2
2025-09-08T16:16	10	43	1.8	38	45	417	0.4	416	418	19.2	88.1
2025-09-08T16:17	10	49	3.3	45	56	418	0.5	417	419	19.2	87.1
2025-09-08T16:18	10	65	3.2	57	68	419	0.5	418	420	19.2	85.1
2025-09-08T16:19	10	68	4.3	59	72	420	0.6	419	421	19.3	85.7
2025-09-08T16:20	10	57	1.5	55	61	420	0.2	420	421	19.3	86.2
2025-09-08T16:21	10	62	2.5	59	66	421	0.4	420	422	19.4	86.6
2025-09-08T16:22	10	60	1.8	55	62	421	0.3	420	421	19.4	86.2
2025-09-08T16:23	10	52	0.9	50	55	420	0.5	419	421	19.4	85.6
2025-09-08T16:24	10	57	5.0	50	64	420	0.4	420	421	19.5	86.1
2025-09-08T16:25	10	59	1.7	57	63	421	0.2	421	421	19.4	86.0
2025-09-08T16:26	10	59	2.9	56	64	422	0.3	421	422	19.4	86.9
2025-09-08T16:27	10	57	3.7	52	64	422	0.4	421	423	19.5	87.4
2025-09-08T16:28	10	45	3.8	41	52	420	0.8	419	422	19.5	87.4
2025-09-08T16:29	10	42	1.3	39	43	419	0.5	418	420	19.5	87.4
2025-09-08T16:30	10	46	5.0	40	56	418	0.4	417	419	19.4	85.5
2025-09-08T16:31	10	66	4.9	56	72	420	0.8	418	421	19.5	85.4
2025-09-08T16:32	10	71	0.2	71	72	420	0.2	420	421	19.5	84.3
2025-09-08T16:33	10	71	0.1	71	72	421	0.4	420	421	19.4	84.4
2025-09-08T16:34	10	70	0.5	70	71	421	0.3	420	421	19.5	84.3
2025-09-08T16:35	10	69	0.6	68	70	421	0.2	420	421	19.6	84.6
2025-09-08T16:36	10	67	0.6	65	68	421	0.3	420	421	19.6	83.4
2025-09-08T16:37	10	64	0.8	63	66	421	0.4	420	421	19.8	83.6
2025-09-08T16:38	10	62	0.8	60	63	421	0.5	419	421	19.7	84.0
2025-09-08T16:39	10	59	0.8	58	60	418	0.7	417	420	19.6	84.3
2025-09-08T16:40	10	57	0.7	55	58	418	0.2	418	419	19.5	85.2
2025-09-08T16:41	10	54	0.6	53	55	418	0.4	417	419	19.5	85.8
2025-09-08T16:42	10	53	0.3	52	54	418	0.3	417	418	19.5	86.2
2025-09-08T16:43	10	52	0.1	52	53	416	0.3	416	417	19.5	85.4
2025-09-08T16:44	10	51	0.9	49	52	416	0.4	415	417	19.5	85.0
2025-09-08T16:45	10	52	0.7	50	53	416	0.3	415	416	19.5	85.1
2025-09-08T16:46	10	52	0.1	52	53	415	0.3	414	416	19.4	84.4
2025-09-08T16:47	10	52	0.1	52	53	415	0.2	415	416	19.4	83.9
2025-09-08T16:48	10	52	0.1	52	52	415	0.2	414	416	19.3	84.4
2025-09-08T16:49	10	51	0.5	50	52	415	0.2	415	416	19.3	84.7
2025-09-08T16:50	10	47	2.0	43	50	416	0.2	415	416	19.4	85.1
2025-09-08T16:51	10	41	0.8	40	43	416	0.3	415	416	19.4	85.1
2025-09-08T16:52	10	44	0.7	42	44	416	0.3	416	417	19.5	84.6
2025-09-08T16:53	10	43	0.8	41	44	416	0.2	416	417	19.5	83.9
2025-09-08T16:54	10	37	2.3	34	41	416	0.5	415	417	19.5	83.1
2025-09-08T16:55	10	33	0.8	32	34	414	0.3	413	415	19.5	82.3
2025-09-08T16:56	10	30	1.1	28	32	414	0.2	413	414	19.5	82.9
2025-09-08T16:57	10	31	1.4	27	32	413	0.3	413	414	19.5	83.3
2025-09-08T16:58	10	28	2.5	25	33	413	0.2	412	413	19.5	83.5
2025-09-08T16:59	10	33	2.3	27	35	413	0.2	412	413	19.4	83.9
2025-09-08T17:00	10	20	3.3	16	27	412	0.6	411	413	19.5	84.1
2025-09-08T17:01	10	16	0.3	15	16	411	0.4	411	412	19.5	84.2
2025-09-08T17:02	10	15	0.2	14	15	410	0.3	410	411	19.4	83.7
2025-09-08T17:03	10	14	0.1	14	14	410	0.2	410	411	19.4	84.0
2025-09-08T17:04	10	15	0.2	14	15	410	0.2	409	411	19.4	83.8
2025-09-08T17:05	10	15	0.2	14	15	410	0.3	410	411	19.4	84.0
2025-09-08T17:06	10	14	0.1	14	15	410	0.3	410	411	19.4	84.1
2025-09-08T17:07	10	15	0.1	14	15	410	0.2	410	411	19.4	83.6
2025-09-08T17:08	10	14	0.1	14	15	410	0.2	410	411	19.4	83.5
2025-09-08T17:09	10	14	0.1	14	15	411	0.3	410	411	19.4	83.4
2025-09-08T17:10	10	14	0.1	14	15	411	0.3	411	412	19.4	83.8
2025-09-08T17:11	10	14	0.1	14	15	412	0.3	411	412	19.4	83.9
2025-09-08T17:12	10	15	0.3	14	15	412	0.3	411	412	19.4	83.4
2025-09-08T17:13	10	15	0.2	15	16	412	0.3	411	413	19.4	83.4
2025-09-08T17:14	10	16	0.2	15	16	412	0.2	411	412	19.4	83.6
2025-09-08T17:15	10	16	0.1	16	16	412	0.2	412	412	19.4	83.6
2025-09-08T17:16	10	16	0.1	16	16	412	0.2	412	413	19.4	84.2
2025-09-08T17:17	10	16	0.2	15	16	412	0.3	412	413	19.5	84.4
2025-09-08T17:18	10	15	0.2	14	15	412	0.3	412	413	19.5	84.1
2025-09-08T17:19	10	14	0.3	14	15	412	0.3	411	412	19.4	83.0
2025-09-08T17:20	10	13	0.4	12	14	412	0.3	411	412	19.4	83.1
2025-09-08T17:21	10	12	0.3	11	12	411	0.3	410	412	19.4	83.3
2025-09-08T17:22	10	11	0.3	10	11	410	0.3	410	411	19.4	83.3
2025-09-08T17:23	10	10	0.3	9	10	410	0.2	410	410	19.4	83.1
2025-09-08T17:24	10	9	0.3	8	9	410	0.2	409	410	19.4	83.4
2025-09-08T17:25	10	8	0.2	8	9	410	0.2	409	410	19.4	83.4
2025-09-08T17:26	10	8	0.2	7	8	409	0.2	409	409	19.4	83.5
2025-09-08T17:27	10	7	0.1	7	7	409	0.2	409	409	19.3	83.6
2025-09-08T17:28	10	7	0.2	7	7	409	0.2	408	409	19.3	83.4
2025-09-08T17:29	10	6	0.3	6	7	409	0.2	408	409	19.4	83.8
2025-09-08T17:30	10	5	0.2	5	6	408	0.3	408	409	19.3	84.0
2025-09-08T17:31	10	5	0.2	4	5	408	0.2	408	409	19.3	83.9
2025-09-08T17:32	10	4	0.2	4	5	408	0.2	407	408	19.3	83.7
2025-09-08T17:33	10	4	0.2	3	4	407	0.3	407	408	19.3	83.4
2025-09-08T17:34	10	3	0.2	3	4	407	0.2	407	408	19.3	82.9
2025-09-08T17:35	10	3	0.2	2	3	407	0.2	406	407	19.3	82.7
2025-09-08T17:36	10	2	0.1	2	3	407	0.2	406	407	19.3	82.8
2025-09-08T17:37	10	2	0.1	2	2	406	0.2	406	407	19.3	82.8
2025-09-08T17:38	10	2	0.1	1	2	406	0.2	405	407	19.3	82.1
2025-09-08T17:39	10	2	0.1	1	2	406	0.2	406	406	19.3	82.3
2025-09-08T17:40	10	1	0.1	1	2	405	0.2	405	406	19.3	82.8
2025-09-08T17:41	10	1	0.1	1	2	406	0.2	405	406	19.3	83.0
2025-09-08T17:42	10	2	0.1	1	2	405	0.2	405	406	19.3	83.3
2025-09-08T17:43	10	2	0.1	2	2	405	0.2	405	406	19.2	83.7
2025-09-08T17:44	10	2	0.1	1	2	406	0.2	405	406	19.3	82.8
2025-09-08T17:45	10	1	0.1	1	2	405	0.2	405	406	19.3	82.8
2025-09-08T17:46	10	1	0.1	1	1	405	0.2	405	406	19.3	82.9
2025-09-08T17:47	10	1	0.1	1	1	406	0.2	405	406	19.3	82.9
2025-09-08T17:48	10	1	0.1	1	1	405	0.2	405	406	19.3	83.3
2025-09-08T17:49	10	1	0.1	1	1	405	0.2	405	405	19.2	84.0
2025-09-08T17:50	10	1	0.1	1	1	405	0.3	405	406	19.2	83.7
2025-09-08T17:51	10	1	0.1	1	1	405	0.2	405	405	19.2	83.7
2025-09-08T17:52	10	1	0.1	1	1	405	0.2	405	405	19.2	83.9
2025-09-08T17:53	10	1	0.1	1	1	405	0.3	404	406	19.2	84.2
2025-09-08T17:54	10	1	0.1	1	1	405	0.2	405	406	19.2	84.5
2025-09-08T17:55	10	1	0.1	0	1	405	0.2	404	405	19.1	84.8
2025-09-08T17:56	10	1	0.1	0	1	405	0.2	404	405	19.1	84.9
2025-09-08T17:57	10	1	0.1	0	1	405	0.2	404	405	19.1	85.3
2025-09-08T17:58	10	1	0.1	0	1	405	0.2	404	405	19.1	85.7
2025-09-08T17:59	10	0	0.1	0	1	404	0.2	404	405	19.0	86.1
2025-09-08T18:00	10	1	0.1	0	1	404	0.2	404	405	19.0	86.3
2025-09-08T18:01	10	0	0.1	0	1	404	0.2	404	405	19.0	86.4
2025-09-08T18:02	10	0	0.1	0	1	404	0.2	404	405	19.0	86.9
2025-09-08T18:03	10	0	0.1	0	1	404	0.2	404	405	19.0	87.2
2025-09-08T18:04	10	0	0.1	0	1	404	0.2	404	405	19.0	87.7
2025-09-08T18:05	10	0	0.1	0	1	404	0.2	404	405	19.0	87.9
2025-09-08T18:06	10	0	0.1	0	1	404	0.2	404	405	18.9	88.2
2025-09-08T18:07	10	0	0.1	0	1	404	0.2	404	405	18.9	88.6
2025-09-08T18:08	10	0	0.1	0	1	404	0.2	404	405	18.9	88.8
2025-09-08T18:09	10	0	0.1	0	1	404	0.2	404	405	18.9	89.0
2025-09-08T18:10	10	0	0.1	0	1	404	0.2	403	404	18.9	89.1
2025-09-08T18:11	10	0	0.1	0	1	404	0.2	404	404	18.9	89.2
2025-09-08T18:12	10	0	0.1	0	1	404	0.2	403	404	18.9	89.1
2025-09-08T18:13	10	0	0.1	0	0	404	0.2	403	404	18.8	89.3
2025-09-08T18:14	10	0	0.1	0	1	404	0.2	403	404	18.8	89.4
2025-09-08T18:15	10	0	0.1	0	1	403	0.2	403	404	18.8	89.3
2025-09-08T18:16	10	0	0.1	0	1	403	0.2	403	404	18.8	89.3
2025-09-08T18:17	10	0	0.1	0	1	403	0.2	403	404	18.8	89.4
2025-09-08T18:18	10	0	0.1	0	1	403	0.2	403	403	18.8	89.6
2025-09-08T18:19	10	0	0.1	0	1	403	0.2	402	403	18.8	89.6
2025-09-08T18:20	10	0	0.1	0	1	403	0.2	402	403	18.7	89.8
2025-09-08T18:21	10	0	0.1	0	1	402	0.2	402	403	18.7	90.1
2025-09-08T18:22	10	0	0.1	0	0	402	0.2	401	402	18.6	90.3
2025-09-08T18:23	10	0	0.1	0	0	402	0.3	401	402	18.6	90.4
2025-09-08T18:24	10	0	0.1	0	1	401	0.3	401	402	18.6	90.6
2025-09-08T18:25	10	0	0.1	0	0	401	0.3	400	401	18.5	90.7
2025-09-08T18:26	10	0	0.1	0	0	401	0.2	400	401	18.5	91.0
2025-09-08T18:27	10	0	0.1	0	0	400	0.2	400	401	18.4	91.1
2025-09-08T18:28	10	0	0.1	0	0	400	0.3	399	400	18.4	91.1
2025-09-08T18:29	10	0	0.1	0	0	400	0.2	399	400	18.4	91.1
2025-09-08T18:30	10	0	0.0	0	0	399	0.3	399	400	18.4	91.3
2025-09-08T18:31	10	0	0.1	0	0	399	0.2	398	399	18.3	91.4
2025-09-08T18:32	10	0	0.1	0	0	399	0.2	398	399	18.3	91.6
2025-09-08T18:33	10	0	0.1	0	0	398	0.2	398	399	18.3	91.9
2025-09-08T18:34	10	0	0.1	0	0	398	0.2	397	399	18.3	92.2
2025-09-08T18:35	10	0	0.0	0	0	398	0.3	397	398	18.2	92.4
2025-09-08T18:36	10	0	0.1	0	0	398	0.3	397	398	18.3	92.3
2025-09-08T18:37	10	0	0.1	0	0	397	0.2	396	397	18.2	92.3
2025-09-08T18:38	10	0	0.1	0	0	396	0.2	396	397	18.2	92.2
2025-09-08T18:39	10	0	0.1	0	0	396	0.2	395	396	18.2	92.1
2025-09-08T18:40	10	0	0.1	0	0	396	0.2	395	396	18.2	92.0
2025-09-08T18:41	10	0	0.1	0	0	395	0.2	395	396	18.2	92.0
2025-09-08T18:42	10	0	0.0	0	0	395	0.2	395	396	18.2	92.1
2025-09-08T18:43	10	0	0.0	0	0	395	0.2	394	395	18.2	92.2
2025-09-08T18:44	10	0	0.1	0	0	395	0.2	394	396	18.2	92.3
2025-09-08T18:45	10	0	0.1	0	0	395	0.2	394	395	18.2	92.4
2025-09-08T18:46	10	0	0.1	0	0	395	0.2	394	395	18.1	92.6
2025-09-08T18:47	10	0	0.1	0	0	394	0.3	393	395	18.1	92.5
2025-09-08T18:48	10	0	0.0	0	0	394	0.2	393	394	18.1	92.4
2025-09-08T18:49	10	0	0.1	0	0	393	0.3	393	394	18.1	92.4
2025-09-08T18:50	10	0	0.0	0	0	393	0.2	392	393	18.1	92.5
2025-09-08T18:51	10	0	0.1	0	0	393	0.2	392	393	18.1	92.5
2025-09-08T18:52	10	0	0.0	0	0	392	0.2	392	393	18.1	92.6
2025-09-08T18:53	10	0	0.0	0	0	393	0.2	392	393	18.0	92.7
2025-09-08T18:54	10	0	0.0	0	0	392	0.2	392	393	18.0	93.0
2025-09-08T18:55	10	0	0.0	0	0	393	0.2	392	393	18.0	93.2
2025-09-08T18:56	10	0	0.0	0	0	393	0.3	392	394	17.9	93.4
2025-09-08T18:57	10	0	0.0	0	0	394	0.2	393	394	17.9	93.5
2025-09-08T18:58	10	0	0.0	0	0	394	0.3	393	395	17.9	93.7
2025-09-08T18:59	10	0	0.0	0	0	395	0.3	394	395	17.9	93.6
2025-09-08T19:00	10	0	0.1	0	0	395	0.3	394	396	17.9	93.7
2025-09-08T19:01	10	0	0.1	0	0	396	0.2	395	396	17.9	93.7
2025-09-08T19:02	10	0	0.1	0	0	396	0.2	395	396	17.9	93.7
2025-09-08T19:03	10	0	0.1	0	0	396	0.2	396	396	17.9	93.7
2025-09-08T19:04	10	0	0.1	0	0	396	0.2	396	397	18.0	93.5
2025-09-08T19:05	10	0	0.1	0	1	396	0.2	396	397	18.0	93.5
2025-09-08T19:06	10	0	0.1	0	1	396	0.2	395	396	18.0	93.3
2025-09-08T19:07	10	0	0.1	0	1	396	0.2	396	396	17.9	93.3
2025-09-08T19:08	10	0	0.1	0	1	396	0.2	396	397	17.9	93.3
2025-09-08T19:09	10	0	0.1	0	0	396	0.2	395	396	17.9	93.3
2025-09-08T19:10	10	0	0.1	0	0	396	0.2	395	396	17.9	93.3
2025-09-08T19:11	10	0	0.1	0	1	396	0.3	395	396	18.0	93.3
2025-09-08T19:12	10	0	0.2	0	1	396	0.2	395	396	18.0	93.2
2025-09-08T19:13	10	0	0.2	0	1	396	0.3	395	396	18.0	93.2
2025-09-08T19:14	10	0	0.2	0	1	396	0.2	395	396	18.0	93.2
2025-09-08T19:15	10	0	0.1	0	1	395	0.3	395	396	18.0	93.1
2025-09-08T19:16	10	0	0.1	0	1	395	0.3	394	396	18.0	93.1
2025-09-08T19:17	10	0	0.1	0	1	395	0.3	394	395	18.0	93.1
2025-09-08T19:18	10	0	0.2	0	1	395	0.2	394	395	18.0	93.1
2025-09-08T19:19	10	0	0.1	0	1	394	0.2	394	395	17.9	93.4
2025-09-08T19:20	10	0	0.1	0	1	394	0.3	393	395	17.8	94.0
2025-09-08T19:21	10	0	0.2	0	1	394	0.2	394	395	17.7	94.2
2025-09-08T19:22	10	0	0.2	0	1	393	0.2	393	394	17.8	94.2
2025-09-08T19:23	10	0	0.2	0	1	393	0.3	392	394	17.7	94.4
2025-09-08T19:24	10	0	0.2	0	1	393	0.2	392	393	17.7	94.6
2025-09-08T19:25	10	0	0.2	0	1	392	0.3	392	393	17.7	94.8
2025-09-08T19:26	10	0	0.2	0	1	392	0.3	391	392	17.6	94.9
2025-09-08T19:27	10	0	0.2	0	1	392	0.2	391	392	17.6	95.0
2025-09-08T19:28	10	0	0.1	0	0	391	0.2	391	392	17.6	94.8
2025-09-08T19:29	10	0	0.0	0	0	391	0.2	391	392	17.7	94.7
2025-09-08T19:30	10	0	0.0	0	0	391	0.2	391	392	17.7	94.8
2025-09-08T19:31	10	0	0.0	0	0	391	0.2	391	392	17.7	94.8
2025-09-08T19:32	10	0	0.0	0	0	391	0.3	391	392	17.7	94.7
2025-09-08T19:33	10	0	0.1	0	1	391	0.2	390	391	17.6	94.8
2025-09-08T19:34	10	0	0.1	0	1	391	0.2	390	391	17.6	95.1
2025-09-08T19:35	10	0	0.1	0	0	390	0.2	390	391	17.5	95.5
2025-09-08T19:36	10	0	0.1	0	0	390	0.2	390	390	17.4	95.7
2025-09-08T19:37	10	0	0.1	0	0	390	0.2	390	391	17.4	96.0
2025-09-08T19:38	10	0	0.0	0	0	390	0.2	389	390	17.4	96.3
2025-09-08T19:39	10	0	0.1	0	0	390	0.2	389	390	17.3	96.4
2025-09-08T19:40	10	0	0.1	0	1	390	0.2	389	390	17.3	96.5
2025-09-08T19:41	10	0	0.1	0	0	389	0.2	389	390	17.3	96.6
2025-09-08T19:42	10	0	0.1	0	0	389	0.3	389	390	17.3	96.6
2025-09-08T19:43	10	0	0.1	0	0	390	0.3	389	390	17.4	96.4
2025-09-08T19:44	10	0	0.0	0	0	389	0.2	389	390	17.3	96.5
2025-09-08T19:45	10	0	0.0	0	0	389	0.3	389	390	17.3	96.6
2025-09-08T19:46	10	0	0.0	0	0	390	0.2	389	390	17.4	96.3
2025-09-08T19:47	10	0	0.0	0	0	390	0.2	389	390	17.4	96.0
2025-09-08T19:48	10	0	0.0	0	0	389	0.2	389	390	17.3	96.0
2025-09-08T19:49	10	0	0.0	0	0	389	0.3	389	390	17.3	95.9
2025-09-08T19:50	10	0	0.0	0	0	389	0.2	389	390	17.4	95.7
2025-09-08T19:51	10	0	0.0	0	0	389	0.2	389	390	17.4	95.1
2025-09-08T19:52	10	0	0.0	0	0	389	0.2	389	390	17.4	94.8
2025-09-08T19:53	10	0	0.1	0	0	389	0.2	389	390	17.5	94.5
2025-09-08T19:54	10	0	0.1	0	0	389	0.2	388	389	17.4	94.6
2025-09-08T19:55	10	0	0.0	0	0	389	0.2	389	390	17.3	95.0
2025-09-08T19:56	10	0	0.0	0	0	389	0.3	388	390	17.3	95.0
2025-09-08T19:57	10	0	0.0	0	0	389	0.2	389	390	17.4	94.7
2025-09-08T19:58	10	0	0.1	0	0	389	0.3	388	389	17.4	94.4
2025-09-08T19:59	10	0	0.1	0	0	388	0.2	388	389	17.3	95.1
2025-09-08T20:00	10	0	0.1	0	0	388	0.2	387	388	17.2	95.7
2025-09-08T20:01	10	0	0.0	0	0	388	0.2	387	388	17.1	96.0
2025-09-08T20:02	10	0	0.1	0	0	388	0.2	387	388	17.1	96.4
2025-09-08T20:03	10	0	0.0	0	0	388	0.4	387	389	16.9	96.7
2025-09-08T20:04	10	0	0.0	0	0	388	0.2	388	389	16.9	96.7
2025-09-08T20:05	10	0	0.1	0	0	389	0.3	388	389	16.9	96.7
2025-09-08T20:06	10	0	0.1	0	0	389	0.2	388	389	17.0	96.5
2025-09-08T20:07	10	0	0.1	0	0	388	0.3	388	389	17.0	96.4
2025-09-08T20:08	10	0	0.1	0	0	388	0.2	388	388	17.1	96.2
2025-09-08T20:09	10	0	0.1	0	0	388	0.2	388	389	17.1	95.9
2025-09-08T20:10	10	0	0.0	0	0	388	0.2	388	389	17.2	95.8
2025-09-08T20:11	10	0	0.1	0	0	388	0.2	388	389	17.2	95.7
2025-09-08T20:12	10	0	0.0	0	0	389	0.3	388	390	17.2	95.8
2025-09-08T20:13	10	0	0.0	0	0	390	0.3	389	390	17.1	96.0
2025-09-08T20:14	10	0	0.1	0	0	390	0.4	389	391	17.1	96.0
2025-09-08T20:15	10	0	0.1	0	0	391	0.3	390	391	17.1	96.1
2025-09-08T20:16	10	0	0.1	0	0	391	0.3	391	392	17.0	96.2
2025-09-08T20:17	10	0	0.1	0	0	392	0.2	391	392	17.0	96.4
2025-09-08T20:18	10	0	0.1	0	0	392	0.3	391	392	17.0	96.4
2025-09-08T20:19	10	0	0.1	0	0	391	0.2	391	392	17.0	96.4
2025-09-08T20:20	10	0	0.1	0	0	392	0.3	391	392	17.0	93.2
2025-09-08T20:21	10	0	0.1	0	1	392	0.2	391	392	17.0	96.4
2025-09-08T20:22	10	0	0.1	0	1	392	0.3	391	393	17.0	96.4
2025-09-08T20:23	10	0	0.1	0	1	392	0.3	392	393	17.0	96.4
2025-09-08T20:24	10	0	0.1	0	0	393	0.2	392	393	17.0	96.4
2025-09-08T20:25	10	0	0.1	0	0	393	0.2	392	393	16.9	96.3
2025-09-08T20:26	10	0	0.1	0	1	393	0.2	392	393	16.9	96.4
2025-09-08T20:27	10	0	0.1	0	0	393	0.2	392	393	16.9	96.5
2025-09-08T20:28	10	0	0.1	0	1	393	0.2	392	393	16.9	96.5
2025-09-08T20:29	10	0	0.1	0	1	392	0.2	392	393	16.8	96.7
2025-09-08T20:30	10	0	0.1	0	1	393	0.3	392	393	16.8	96.7
2025-09-08T20:31	10	0	0.1	0	1	393	0.2	392	393	16.8	96.7
2025-09-08T20:32	10	0	0.1	0	1	393	0.2	392	393	16.9	96.7
2025-09-08T20:33	10	0	0.1	0	0	393	0.2	392	393	16.9	96.7
2025-09-08T20:34	10	0	0.1	0	1	393	0.2	392	393	16.8	96.8
2025-09-08T20:35	10	0	0.1	0	0	393	0.2	392	393	16.9	96.7
2025-09-08T20:36	10	0	0.1	0	0	393	0.2	392	393	16.9	96.8
2025-09-08T20:37	10	0	0.1	0	1	393	0.3	392	393	16.9	96.8
2025-09-08T20:38	10	0	0.1	0	1	392	0.2	392	393	16.9	96.7
2025-09-08T20:39	10	0	0.1	0	0	393	0.2	392	393	16.9	96.6
2025-09-08T20:40	10	0	0.1	0	0	393	0.2	392	393	16.9	96.5
2025-09-08T20:41	10	0	0.1	0	1	393	0.2	393	394	16.9	96.5
2025-09-08T20:42	10	0	0.1	0	0	393	0.2	393	394	16.9	96.5
2025-09-08T20:43	10	0	0.1	0	0	393	0.2	393	394	16.9	96.6
2025-09-08T20:44	10	0	0.1	0	0	393	0.3	392	394	16.9	96.6
2025-09-08T20:45	10	0	0.1	0	1	393	0.3	392	394	16.9	96.6
2025-09-08T20:46	10	0	0.1	0	0	393	0.3	392	393	16.9	96.8
2025-09-08T20:47	10	0	0.1	0	0	392	0.2	391	393	16.9	96.8
2025-09-08T20:48	10	0	0.1	0	0	392	0.2	392	393	16.9	96.8
2025-09-08T20:49	10	0	0.1	0	0	392	0.3	391	392	16.9	96.9
2025-09-08T20:50	10	0	0.1	0	0	392	0.3	391	392	16.9	96.9
2025-09-08T20:51	10	0	0.1	0	0	391	0.3	390	392	16.9	96.9
2025-09-08T20:52	10	0	0.1	0	0	390	0.2	390	391	16.9	97.0
2025-09-08T20:53	10	0	0.1	0	1	390	0.3	389	391	16.9	97.0
2025-09-08T20:54	10	0	0.1	0	0	390	0.2	389	390	16.8	97.0
2025-09-08T20:55	10	0	0.1	0	0	389	0.3	388	389	16.8	96.9
2025-09-08T20:56	10	0	0.1	0	0	389	0.2	388	389	16.8	96.8
2025-09-08T20:57	10	0	0.1	0	0	389	0.2	389	389	16.8	96.9
2025-09-08T20:58	10	0	0.1	0	0	389	0.3	389	390	16.8	97.0
2025-09-08T20:59	10	0	0.1	0	0	389	0.3	389	390	16.8	97.0
2025-09-08T21:00	10	0	0.1	0	0	390	0.2	389	390	16.8	97.0
2025-09-08T21:01	10	0	0.1	0	0	390	0.3	389	390	16.9	97.0
2025-09-08T21:02	10	0	0.1	0	0	390	0.2	389	390	16.8	97.0
2025-09-08T21:03	10	0	0.1	0	0	390	0.1	390	390	16.8	97.1
2025-09-08T21:04	10	0	0.1	0	0	390	0.2	390	391	16.8	97.1
2025-09-08T21:05	10	0	0.1	0	0	391	0.2	390	391	16.8	97.1
2025-09-08T21:06	10	0	0.1	0	0	391	0.3	390	391	16.8	97.0
2025-09-08T21:07	10	0	0.1	0	0	391	0.3	391	392	16.8	97.0
2025-09-08T21:08	10	0	0.1	0	0	391	0.3	391	392	16.8	96.9
2025-09-08T21:09	10	0	0.1	0	0	392	0.2	391	392	16.8	96.9
2025-09-08T21:10	10	0	0.1	0	0	392	0.2	392	393	16.8	96.9
2025-09-08T21:11	10	0	0.1	0	0	393	0.2	392	393	16.8	96.9
2025-09-08T21:12	10	0	0.1	0	0	393	0.2	392	393	16.8	96.9
2025-09-08T21:13	10	0	0.1	0	0	393	0.2	393	394	16.8	96.9
2025-09-08T21:14	10	0	0.1	0	0	393	0.2	393	394	16.8	96.7
2025-09-08T21:15	10	0	0.1	0	0	394	0.2	393	394	16.8	96.8
2025-09-08T21:16	10	0	0.1	0	0	394	0.2	393	394	16.8	96.9
2025-09-08T21:17	10	0	0.1	0	0	394	0.2	393	394	16.9	96.8
2025-09-08T21:18	10	0	0.1	0	0	394	0.2	394	395	16.9	96.6
2025-09-08T21:19	10	0	0.1	0	0	394	0.2	394	395	16.9	96.6
2025-09-08T21:20	10	0	0.1	0	0	395	0.2	394	395	16.9	96.5
2025-09-08T21:21	10	0	0.1	0	0	395	0.2	395	395	17.0	96.4
2025-09-08T21:22	10	0	0.0	0	0	395	0.2	395	396	17.0	96.3
2025-09-08T21:23	10	0	0.1	0	0	395	0.2	395	396	17.0	96.3
2025-09-08T21:24	10	0	0.0	0	0	396	0.2	395	396	17.0	96.1
2025-09-08T21:25	10	0	0.1	0	0	396	0.2	395	396	17.0	95.9
2025-09-08T21:26	10	0	0.1	0	0	396	0.3	395	396	17.0	95.9
2025-09-08T21:27	10	0	0.1	0	0	396	0.2	395	396	17.0	95.9
2025-09-08T21:28	10	0	0.1	0	0	396	0.2	396	396	17.0	96.0
2025-09-08T21:29	10	0	0.1	0	0	396	0.2	395	396	17.0	96.0
2025-09-08T21:30	10	0	0.1	0	0	396	0.3	395	396	17.0	96.1
2025-09-08T21:31	10	0	0.1	0	0	396	0.2	395	396	17.0	96.2
2025-09-08T21:32	10	0	0.1	0	0	396	0.3	396	397	17.0	96.2
2025-09-08T21:33	10	0	0.1	0	0	396	0.2	395	396	17.0	96.3
2025-09-08T21:34	10	0	0.1	0	0	396	0.2	396	397	17.0	96.2
2025-09-08T21:35	10	0	0.1	0	0	396	0.2	396	397	17.0	96.1
2025-09-08T21:36	10	0	0.1	0	0	396	0.2	396	397	17.0	96.1
2025-09-08T21:37	10	0	0.1	0	0	396	0.2	396	397	17.0	96.0
2025-09-08T21:38	10	0	0.1	0	0	396	0.2	396	397	17.0	96.0
2025-09-08T21:39	10	0	0.1	0	0	396	0.2	395	396	17.0	96.3
2025-09-08T21:40	10	0	0.1	0	0	396	0.3	395	396	17.0	96.2
2025-09-08T21:41	10	0	0.1	0	0	395	0.2	395	396	17.0	96.0
2025-09-08T21:42	10	0	0.1	0	0	395	0.2	395	396	17.0	96.0
2025-09-08T21:43	10	0	0.0	0	0	395	0.2	395	396	17.0	96.1
2025-09-08T21:44	10	0	0.1	0	0	396	0.2	395	396	17.0	96.2
2025-09-08T21:45	10	0	0.1	0	0	395	0.2	395	396	17.0	96.1
2025-09-08T21:46	10	0	0.1	0	0	396	0.2	395	396	17.0	96.0
2025-09-08T21:47	10	0	0.1	0	0	396	0.2	395	396	17.0	96.1
2025-09-08T21:48	10	0	0.1	0	0	396	0.3	396	397	17.0	96.2
2025-09-08T21:49	10	0	0.1	0	0	396	0.2	395	396	16.9	96.4
2025-09-08T21:50	10	0	0.1	0	0	396	0.2	395	397	16.9	96.4
2025-09-08T21:51	10	0	0.1	0	0	396	0.2	395	397	16.9	96.5
2025-09-08T21:52	10	0	0.1	0	0	396	0.2	395	397	16.9	96.5
2025-09-08T21:53	10	0	0.1	0	0	396	0.2	396	397	16.8	96.6
2025-09-08T21:54	10	0	0.1	0	0	397	0.2	396	397	16.8	96.6
2025-09-08T21:55	10	0	0.1	0	0	396	0.2	396	397	16.8	96.8
2025-09-08T21:56	10	0	0.1	0	1	396	0.2	396	397	16.7	96.9
2025-09-08T21:57	10	0	0.1	0	0	396	0.2	396	397	16.7	97.0
2025-09-08T21:58	10	0	0.1	0	0	396	0.2	396	396	16.7	97.3
2025-09-08T21:59	10	0	0.0	0	0	396	0.2	395	396	16.6	97.4
2025-09-08T22:00	10	0	0.1	0	0	396	0.3	395	396	16.6	97.6
2025-09-08T22:01	10	0	0.1	0	0	396	0.2	396	396	16.6	97.5
2025-09-08T22:02	10	0	0.1	0	0	396	0.2	395	396	16.6	97.5
2025-09-08T22:03	10	0	0.1	0	0	396	0.2	395	396	16.6	97.6
2025-09-08T22:04	10	0	0.1	0	0	396	0.2	395	396	16.6	97.6
2025-09-08T22:05	10	0	0.1	0	0	396	0.2	396	397	16.6	97.5
2025-09-08T22:06	10	0	0.1	0	0	396	0.2	396	397	16.7	97.5
2025-09-08T22:07	10	0	0.1	0	0	396	0.3	396	397	16.7	97.4
2025-09-08T22:08	10	0	0.1	0	0	396	0.2	396	397	16.8	97.3
2025-09-08T22:09	10	0	0.1	0	0	397	0.2	396	397	16.8	97.3
2025-09-08T22:10	10	0	0.1	0	0	396	0.2	396	397	16.8	97.2
2025-09-08T22:11	10	0	0.1	0	0	397	0.2	396	397	16.8	96.9
2025-09-08T22:12	10	0	0.1	0	0	397	0.2	396	397	16.9	96.8
2025-09-08T22:13	10	0	0.1	0	0	397	0.2	396	397	16.9	96.6
2025-09-08T22:14	10	0	0.1	0	0	397	0.3	396	397	16.9	96.2
2025-09-08T22:15	10	0	0.1	0	0	397	0.2	397	397	17.0	95.9
2025-09-08T22:16	10	0	0.1	0	0	397	0.2	396	397	17.0	95.7
2025-09-08T22:17	10	0	0.1	0	0	397	0.3	397	398	17.0	95.5
2025-09-08T22:18	10	0	0.1	0	0	397	0.2	396	398	17.0	95.4
2025-09-08T22:19	10	0	0.1	0	0	397	0.2	396	397	17.0	95.5
2025-09-08T22:20	10	0	0.1	0	0	397	0.2	396	397	17.0	95.8
2025-09-08T22:21	10	0	0.1	0	0	397	0.2	396	397	17.0	95.9
2025-09-08T22:22	10	0	0.1	0	0	397	0.3	396	397	16.9	96.0
2025-09-08T22:23	10	0	0.1	0	0	397	0.2	396	397	16.9	96.1
2025-09-08T22:24	10	0	0.1	0	0	397	0.3	396	397	16.9	96.2
2025-09-08T22:25	10	0	0.0	0	0	397	0.2	396	397	16.9	96.1
2025-09-08T22:26	10	0	0.1	0	0	396	0.3	396	397	16.9	95.9
2025-09-08T22:27	10	0	0.1	0	0	396	0.2	396	397	16.9	96.0
2025-09-08T22:28	10	0	0.1	0	0	396	0.2	396	397	16.9	96.1
2025-09-08T22:29	10	0	0.1	0	0	396	0.1	396	396	17.0	96.0
2025-09-08T22:30	10	0	0.1	0	0	396	0.2	396	397	16.9	96.1
2025-09-08T22:31	10	0	0.1	0	0	396	0.2	396	397	16.9	96.1
2025-09-08T22:32	10	0	0.1	0	0	396	0.2	396	397	16.9	96.2
2025-09-08T22:33	10	0	0.1	0	0	396	0.2	395	396	16.9	96.3
2025-09-08T22:34	10	0	0.1	0	0	396	0.2	396	396	16.9	96.0
2025-09-08T22:35	10	0	0.1	0	0	396	0.2	396	396	16.9	95.8
2025-09-08T22:36	10	0	0.1	0	0	396	0.1	396	396	16.9	95.9
2025-09-08T22:37	10	0	0.1	0	0	396	0.2	395	396	16.9	96.0
2025-09-08T22:38	10	0	0.1	0	0	396	0.2	396	396	16.9	96.2
2025-09-08T22:39	10	0	0.1	0	0	396	0.2	395	396	16.9	96.3
2025-09-08T22:40	10	0	0.1	0	0	396	0.2	396	396	16.9	96.5
2025-09-08T22:41	10	0	0.1	0	0	396	0.2	396	397	16.9	96.5
2025-09-08T22:42	10	0	0.1	0	0	396	0.2	396	397	16.8	96.6
2025-09-08T22:43	10	0	0.1	0	0	396	0.2	396	397	16.8	96.6
2025-09-08T22:44	10	0	0.0	0	0	396	0.2	396	397	16.8	96.4
2025-09-08T22:45	10	0	0.1	0	0	396	0.2	396	397	16.9	96.4
2025-09-08T22:46	10	0	0.1	0	0	396	0.2	396	397	16.9	96.4
2025-09-08T22:47	10	0	0.0	0	0	396	0.2	396	397	16.9	96.5
2025-09-08T22:48	10	0	0.1	0	0	396	0.2	396	397	16.9	96.6
2025-09-08T22:49	10	0	0.1	0	0	397	0.2	396	397	16.9	96.6
2025-09-08T22:50	10	0	0.0	0	0	397	0.2	396	397	16.9	96.5
2025-09-08T22:51	10	0	0.1	0	0	397	0.2	396	397	16.9	96.3
2025-09-08T22:52	10	0	0.1	0	0	397	0.2	396	397	17.0	96.5
2025-09-08T22:53	10	0	0.1	0	0	397	0.2	397	398	17.0	96.3
2025-09-08T22:54	10	0	0.1	0	0	397	0.2	396	397	17.0	96.0
2025-09-08T22:55	10	0	0.1	0	0	397	0.2	397	397	17.0	95.9
2025-09-08T22:56	10	0	0.1	0	0	397	0.2	397	397	17.0	96.0
2025-09-08T22:57	10	0	0.1	0	0	397	0.2	397	397	17.0	95.9
2025-09-08T22:58	10	0	0.1	0	0	397	0.2	397	398	17.0	95.6
2025-09-08T22:59	10	0	0.1	0	0	397	0.2	397	398	17.1	95.5
2025-09-08T23:00	10	0	0.0	0	0	398	0.2	397	398	17.1	95.3
2025-09-08T23:01	10	0	0.1	0	0	397	0.2	397	398	17.1	95.1
2025-09-08T23:02	10	0	0.1	0	0	397	0.2	397	398	17.1	95.0
2025-09-08T23:03	10	0	0.1	0	0	398	0.2	397	398	17.1	95.1
2025-09-08T23:04	10	0	0.1	0	0	397	0.2	397	398	17.1	95.3
2025-09-08T23:05	10	0	0.1	0	0	397	0.2	397	398	17.1	95.1
2025-09-08T23:06	10	0	0.1	0	0	397	0.2	397	397	17.1	95.2
2025-09-08T23:07	10	0	0.0	0	0	397	0.3	396	397	17.1	95.4
2025-09-08T23:08	10	0	0.1	0	0	397	0.3	396	397	17.0	95.6
2025-09-08T23:09	10	0	0.1	0	0	396	0.3	396	397	17.1	95.8
2025-09-08T23:10	10	0	0.1	0	0	396	0.3	395	396	17.1	96.1
2025-09-08T23:11	10	0	0.1	0	0	395	0.2	395	396	17.0	96.1
2025-09-08T23:12	10	0	0.1	0	0	395	0.3	394	396	17.0	96.2
2025-09-08T23:13	10	0	0.1	0	0	395	0.2	394	395	16.9	96.4
2025-09-08T23:14	10	0	0.1	0	0	395	0.2	394	395	16.9	96.5
2025-09-08T23:15	10	0	0.1	0	0	394	0.2	394	395	16.9	96.6
2025-09-08T23:16	10	0	0.1	0	0	394	0.2	394	395	16.9	96.8
2025-09-08T23:17	10	0	0.1	0	0	395	0.3	394	395	16.8	96.9
2025-09-08T23:18	10	0	0.1	0	0	395	0.3	394	395	16.9	96.8
2025-09-08T23:19	10	0	0.1	0	0	395	0.2	394	395	16.9	96.6
2025-09-08T23:20	10	0	0.1	0	0	395	0.2	394	395	16.9	96.4
2025-09-08T23:21	10	0	0.1	0	0	395	0.2	394	395	16.9	96.2
2025-09-08T23:22	10	0	0.1	0	0	395	0.3	394	395	16.9	96.2
2025-09-08T23:23	10	0	0.1	0	0	395	0.3	394	395	16.9	96.3
2025-09-08T23:24	10	0	0.0	0	0	395	0.2	394	395	16.8	96.5
2025-09-08T23:25	10	0	0.1	0	0	395	0.2	394	395	16.8	96.6
2025-09-08T23:26	10	0	0.1	0	0	395	0.2	394	395	16.8	96.7
2025-09-08T23:27	10	0	0.1	0	0	395	0.2	394	395	16.8	96.9
2025-09-08T23:28	10	0	0.1	0	0	394	0.2	394	395	16.8	97.0
2025-09-08T23:29	10	0	0.1	0	0	394	0.2	394	395	16.8	97.0
2025-09-08T23:30	10	0	0.1	0	0	394	0.2	394	395	16.7	97.2
2025-09-08T23:31	10	0	0.1	0	0	394	0.2	394	395	16.7	97.2
2025-09-08T23:32	10	0	0.1	0	0	394	0.2	394	394	16.7	97.4
2025-09-08T23:33	10	0	0.1	0	0	394	0.2	394	395	16.7	97.4
2025-09-08T23:34	10	0	0.1	0	0	394	0.2	393	394	16.7	97.4
2025-09-08T23:35	10	0	0.1	0	0	393	0.2	393	394	16.7	97.5
2025-09-08T23:36	10	0	0.1	0	0	393	0.2	393	394	16.6	97.5
2025-09-08T23:37	10	0	0.1	0	0	394	0.2	393	394	16.7	97.5
2025-09-08T23:38	10	0	0.1	0	0	394	0.2	393	394	16.7	97.5
2025-09-08T23:39	10	0	0.1	0	0	394	0.3	393	394	16.7	97.5
2025-09-08T23:40	10	0	0.1	0	0	394	0.2	393	394	16.7	97.6
2025-09-08T23:41	10	0	0.1	0	0	394	0.2	393	394	16.7	97.7
2025-09-08T23:42	10	0	0.1	0	0	393	0.3	393	394	16.7	97.6
2025-09-08T23:43	10	0	0.1	0	0	393	0.2	393	394	16.7	97.6
2025-09-08T23:44	10	0	0.1	0	0	393	0.2	393	394	16.7	97.6
2025-09-08T23:45	10	0	0.1	0	0	394	0.2	393	394	16.8	97.5
2025-09-08T23:46	10	0	0.1	0	0	394	0.2	393	394	16.8	97.4
2025-09-08T23:47	10	0	0.1	0	0	394	0.2	393	394	16.8	97.4
2025-09-08T23:48	10	0	0.1	0	0	394	0.2	393	394	16.8	97.4
2025-09-08T23:49	10	0	0.1	0	0	394	0.2	394	394	16.7	97.4
2025-09-08T23:50	10	0	0.1	0	0	394	0.2	394	395	16.8	97.3
2025-09-08T23:51	10	0	0.1	0	0	395	0.2	394	395	16.8	97.4
2025-09-08T23:52	10	0	0.1	0	0	395	0.3	394	396	16.8	97.4
2025-09-08T23:53	10	0	0.1	0	0	395	0.2	395	396	16.8	97.2
2025-09-08T23:54	10	0	0.1	0	0	396	0.2	395	396	16.9	97.2
2025-09-08T23:55	10	0	0.1	0	0	396	0.2	395	397	16.9	97.1
2025-09-08T23:56	10	0	0.1	0	0	396	0.2	395	396	16.8	97.0
2025-09-08T23:57	10	0	0.1	0	0	396	0.2	395	396	16.8	97.1
2025-09-08T23:58	10	0	0.1	0	0	396	0.2	396	397	16.8	97.2
2025-09-08T23:59	10	0	0.1	0	0	396	0.2	395	396	16.8	97.2
2025-09-09T00:00	10	0	0.1	0	0	396	0.2	396	397	16.8	97.0
2025-09-09T00:01	10	0	0.1	0	0	396	0.2	396	397	16.8	97.1
2025-09-09T00:02	10	0	0.1	0	0	396	0.2	396	397	16.8	97.1
2025-09-09T00:03	10	0	0.1	0	0	396	0.3	396	397	16.9	97.1
2025-09-09T00:04	10	0	0.1	0	0	396	0.2	396	397	16.9	96.9
2025-09-09T00:05	10	0	0.1	0	0	397	0.2	396	397	16.9	96.7
2025-09-09T00:06	10	0	0.1	0	0	397	0.2	396	397	16.9	96.6
2025-09-09T00:07	10	0	0.1	0	0	397	0.2	396	397	16.9	96.5
2025-09-09T00:08	10	0	0.1	0	0	397	0.2	396	397	16.9	96.6
2025-09-09T00:09	10	0	0.1	0	0	396	0.2	396	397	16.9	96.4
2025-09-09T00:10	10	0	0.1	0	0	397	0.2	396	397	16.9	96.2
2025-09-09T00:11	10	0	0.1	0	0	397	0.2	396	397	16.9	96.1
2025-09-09T00:12	10	0	0.1	0	0	397	0.2	396	397	16.9	96.1
2025-09-09T00:13	10	0	0.1	0	0	396	0.3	396	397	16.9	96.1
2025-09-09T00:14	10	0	0.0	0	0	396	0.2	396	397	16.9	96.2
2025-09-09T00:15	10	0	0.1	0	1	396	0.2	396	397	16.9	96.3
2025-09-09T00:16	10	0	0.1	0	0	396	0.2	396	397	16.9	96.4
2025-09-09T00:17	10	0	0.1	0	0	396	0.2	395	396	16.9	96.5
2025-09-09T00:18	10	0	0.1	0	0	396	0.2	395	396	16.8	96.7
2025-09-09T00:19	10	0	0.1	0	1	396	0.2	395	396	16.8	96.9
2025-09-09T00:20	10	0	0.1	0	0	396	0.2	395	396	16.8	97.3
2025-09-09T00:21	10	0	0.1	0	0	396	0.2	395	396	16.7	97.3
2025-09-09T00:22	10	0	0.1	0	0	396	0.2	395	396	16.7	97.2
2025-09-09T00:23	10	0	0.1	0	0	396	0.3	395	396	16.7	97.2
2025-09-09T00:24	10	0	0.1	0	0	396	0.2	395	396	16.7	97.3
2025-09-09T00:25	10	0	0.1	0	0	396	0.2	395	396	16.7	97.3
2025-09-09T00:26	10	0	0.1	0	1	396	0.2	395	396	16.7	97.6
2025-09-09T00:27	10	0	0.1	0	1	396	0.2	395	396	16.7	97.6
2025-09-09T00:28	10	0	0.1	0	0	396	0.2	395	396	16.7	97.6
2025-09-09T00:29	10	0	0.1	0	0	395	0.2	395	396	16.7	97.8
2025-09-09T00:30	10	0	0.1	0	0	396	0.2	395	396	16.7	97.8
2025-09-09T00:31	10	0	0.1	0	1	396	0.2	395	396	16.7	97.6
2025-09-09T00:32	10	0	0.1	0	1	396	0.2	395	396	16.7	97.4
2025-09-09T00:33	10	0	0.1	0	1	396	0.2	395	396	16.7	97.4
2025-09-09T00:34	10	0	0.1	0	1	396	0.3	396	397	16.8	97.4
2025-09-09T00:35	10	0	0.1	0	1	396	0.2	396	396	16.8	97.3
2025-09-09T00:36	10	0	0.1	0	1	396	0.2	395	397	16.8	97.4
2025-09-09T00:37	10	0	0.1	0	1	396	0.2	396	397	16.8	97.4
2025-09-09T00:38	10	0	0.1	0	1	396	0.2	396	397	16.8	97.5
2025-09-09T00:39	10	0	0.1	0	0	396	0.2	395	396	16.8	97.5
2025-09-09T00:40	10	0	0.1	0	0	396	0.2	395	396	16.8	97.1
2025-09-09T00:41	10	0	0.1	0	1	396	0.2	395	396	16.8	96.9
2025-09-09T00:42	10	0	0.1	0	1	396	0.3	395	397	16.8	96.9
2025-09-09T00:43	10	0	0.1	0	0	396	0.2	395	396	16.8	96.9
2025-09-09T00:44	10	0	0.1	0	0	396	0.2	396	397	16.9	96.6
2025-09-09T00:45	10	0	0.1	0	0	396	0.2	396	397	16.9	96.3
2025-09-09T00:46	10	0	0.1	0	0	396	0.2	396	397	16.9	96.3
2025-09-09T00:47	10	0	0.1	0	0	396	0.2	396	397	16.9	96.3
2025-09-09T00:48	10	0	0.1	0	0	396	0.2	396	397	16.9	96.4
2025-09-09T00:49	10	0	0.1	0	0	396	0.2	396	397	16.9	96.3
2025-09-09T00:50	10	0	0.0	0	0	396	0.3	396	397	16.9	96.3
2025-09-09T00:51	10	0	0.1	0	0	396	0.2	396	397	16.9	96.2
2025-09-09T00:52	10	0	0.1	0	0	396	0.2	396	396	16.9	96.1
2025-09-09T00:53	10	0	0.1	0	1	396	0.2	395	396	16.9	96.1
2025-09-09T00:54	10	0	0.1	0	0	396	0.2	395	396	16.9	96.1
2025-09-09T00:55	10	0	0.1	0	0	396	0.2	395	397	17.0	96.1
2025-09-09T00:56	10	0	0.1	0	1	396	0.2	395	396	16.9	96.1
2025-09-09T00:57	10	0	0.1	0	0	396	0.2	395	396	16.9	96.1
2025-09-09T00:58	10	0	0.1	0	1	396	0.2	395	396	17.0	96.0
2025-09-09T00:59	10	0	0.1	0	1	396	0.2	395	396	16.9	96.1
2025-09-09T01:00	10	0	0.1	0	0	396	0.2	395	396	17.0	96.1
2025-09-09T01:01	10	0	0.1	0	0	396	0.2	395	396	17.0	96.0
2025-09-09T01:02	10	0	0.1	0	0	396	0.2	395	396	17.0	96.0
2025-09-09T01:03	10	0	0.1	0	0	396	0.2	395	396	17.0	96.0
2025-09-09T01:04	10	0	0.1	0	0	396	0.2	395	396	17.0	96.0
2025-09-09T01:05	10	0	0.1	0	0	396	0.2	395	396	17.0	95.8
2025-09-09T01:06	10	0	0.1	0	0	396	0.2	395	396	17.0	95.8
2025-09-09T01:07	10	0	0.1	0	0	396	0.2	396	396	17.0	96.0
2025-09-09T01:08	10	0	0.1	0	0	396	0.2	395	396	17.0	96.1
2025-09-09T01:09	10	0	0.1	0	0	396	0.2	395	396	17.0	96.2
2025-09-09T01:10	10	0	0.1	0	0	396	0.2	396	397	16.9	96.3
2025-09-09T01:11	10	0	0.1	0	0	396	0.2	395	397	16.9	96.4
2025-09-09T01:12	10	0	0.1	0	0	396	0.2	395	396	16.9	96.6
2025-09-09T01:13	10	0	0.1	0	0	396	0.2	395	396	16.9	96.7
2025-09-09T01:14	10	0	0.1	0	0	396	0.2	395	396	16.9	96.8
2025-09-09T01:15	10	0	0.1	0	0	396	0.2	395	396	16.9	96.8
2025-09-09T01:16	10	0	0.1	0	0	396	0.2	395	396	16.8	96.9
2025-09-09T01:17	10	0	0.0	0	0	396	0.2	395	396	16.8	96.9
2025-09-09T01:18	10	0	0.1	0	0	396	0.2	396	396	16.8	97.0
2025-09-09T01:19	10	0	0.1	0	0	396	0.2	396	396	16.8	97.1
2025-09-09T01:20	10	0	0.1	0	0	396	0.2	396	397	16.8	97.1
2025-09-09T01:21	10	0	0.0	0	0	396	0.3	396	397	16.8	97.1
2025-09-09T01:22	10	0	0.1	0	0	396	0.2	395	397	16.8	97.1
2025-09-09T01:23	10	0	0.1	0	0	396	0.2	395	396	16.7	97.2
2025-09-09T01:24	10	0	0.1	0	0	395	0.3	395	396	16.6	97.4
2025-09-09T01:25	10	0	0.1	0	0	395	0.4	394	396	16.5	97.3
2025-09-09T01:26	10	0	0.0	0	0	394	0.2	394	395	16.5	96.1
2025-09-09T01:27	10	0	0.0	0	0	394	0.4	393	395	16.4	95.3
2025-09-09T01:28	10	0	0.1	0	0	393	0.4	392	393	16.4	93.4
2025-09-09T01:29	10	0	0.1	0	0	392	0.3	391	392	16.3	91.4
2025-09-09T01:30	10	0	0.1	0	1	391	0.2	390	391	16.3	89.7
2025-09-09T01:31	10	0	0.1	0	0	390	0.2	390	391	16.2	89.8
2025-09-09T01:32	10	0	0.1	0	0	390	0.5	389	391	16.0	88.6
2025-09-09T01:33	10	0	0.1	0	0	389	0.3	388	389	15.9	88.8
2025-09-09T01:34	10	0	0.2	0	0	387	1.3	386	389	15.6	88.9
2025-09-09T01:35	10	0	0.2	0	0	386	0.3	386	387	15.3	89.7
2025-09-09T01:36	10	-1	0.1	-1	0	386	0.3	385	387	15.2	91.2
2025-09-09T01:37	10	0	0.2	-1	0	385	0.9	384	387	14.8	92.1
2025-09-09T01:38	10	0	0.2	0	0	385	0.5	384	386	14.4	94.3
2025-09-09T01:39	10	0	0.2	-1	0	385	0.4	384	386	14.2	95.4
2025-09-09T01:40	10	-1	0.2	-1	0	385	0.6	383	386	14.1	96.0
2025-09-09T01:41	10	-1	0.2	-1	-1	384	0.7	383	386	14.1	96.3
2025-09-09T01:42	10	-1	0.2	-2	-1	384	0.6	383	386	14.1	96.2
2025-09-09T01:43	10	-1	0.1	-2	-1	384	0.5	384	385	14.1	95.8
2025-09-09T01:44	10	-1	0.1	-2	-1	384	0.4	384	385	14.2	95.8
2025-09-09T01:45	10	-1	0.1	-1	-1	384	0.4	383	385	14.3	94.8
2025-09-09T01:46	10	-1	0.1	-1	-1	384	0.3	384	385	14.5	93.2
2025-09-09T01:47	10	-1	0.1	-1	-1	384	0.3	383	385	14.6	92.8
2025-09-09T01:48	10	-1	0.1	-1	-1	384	0.3	383	385	14.6	93.4
2025-09-09T01:49	10	-1	0.1	-1	-1	384	0.3	383	385	14.6	93.1
2025-09-09T01:50	10	-1	0.1	-1	-1	384	0.3	383	385	14.6	92.4
2025-09-09T01:51	10	-1	0.1	-1	-1	384	0.3	383	385	14.6	92.4
2025-09-09T01:52	10	-1	0.1	-1	-1	384	0.4	383	385	14.6	92.2
2025-09-09T01:53	10	-1	0.1	-1	-1	384	0.3	383	385	14.8	89.6
2025-09-09T01:54	10	-1	0.1	-1	-1	384	0.3	383	384	14.9	89.2
2025-09-09T01:55	10	-1	0.1	-1	-1	383	0.3	383	384	14.9	89.2
2025-09-09T01:56	10	-1	0.1	-1	-1	383	0.3	383	384	14.9	89.8
2025-09-09T01:57	10	-1	0.1	-1	-1	384	0.2	383	384	15.0	88.9
2025-09-09T01:58	10	-1	0.1	-1	-1	383	0.2	383	384	15.0	88.7
2025-09-09T01:59	10	-1	0.1	-1	-1	383	0.3	383	384	15.0	89.3
2025-09-09T02:00	10	-1	0.1	-1	-1	384	0.3	383	384	15.0	89.1
2025-09-09T02:01	10	-1	0.1	-1	-1	384	0.2	383	384	15.0	89.4
2025-09-09T02:02	10	-1	0.1	-1	-1	384	0.2	383	384	15.0	89.7
2025-09-09T02:03	10	-1	0.1	-1	-1	384	0.3	383	384	15.0	90.0
2025-09-09T02:04	10	-1	0.1	-1	-1	384	0.2	383	384	14.9	90.3
2025-09-09T02:05	10	-1	0.1	-1	-1	384	0.4	383	385	15.0	89.0
2025-09-09T02:06	10	-1	0.1	-1	-1	384	0.2	383	384	15.2	87.7
2025-09-09T02:07	10	-1	0.1	-1	-1	384	0.2	383	384	15.2	87.9
2025-09-09T02:08	10	-1	0.1	-1	-1	384	0.2	384	384	15.1	88.4
2025-09-09T02:09	10	-1	0.1	-1	0	384	0.3	383	384	15.1	88.5
2025-09-09T02:10	10	-1	0.1	-1	0	384	0.2	383	384	15.0	89.9
2025-09-09T02:11	10	-1	0.1	-1	0	384	0.3	383	385	15.1	88.6
2025-09-09T02:12	10	-1	0.1	-1	0	384	0.2	383	385	15.1	88.9
2025-09-09T02:13	10	-1	0.1	-1	-1	384	0.3	384	385	15.1	88.2
2025-09-09T02:14	10	-1	0.1	-1	-1	384	0.2	384	385	15.2	87.3
2025-09-09T02:15	10	-1	0.1	-1	-1	384	0.2	384	385	15.3	86.1
2025-09-09T02:16	10	-1	0.1	-1	-1	384	0.2	384	384	15.3	85.9
2025-09-09T02:17	10	-1	0.1	-1	0	384	0.2	384	385	15.3	85.4
2025-09-09T02:18	10	-1	0.1	-1	0	384	0.2	384	385	15.4	85.3
2025-09-09T02:19	10	-1	0.1	-1	0	384	0.2	383	385	15.3	86.4
2025-09-09T02:20	10	-1	0.1	-1	0	384	0.2	384	385	15.2	87.2
2025-09-09T02:21	10	-1	0.1	-1	0	384	0.3	384	385	15.1	88.4
2025-09-09T02:22	10	-1	0.1	-1	0	384	0.2	384	385	15.1	88.5
2025-09-09T02:23	10	0	0.1	-1	0	384	0.3	383	385	15.1	87.4
2025-09-09T02:24	10	0	0.1	-1	0	384	0.2	384	384	15.1	89.0
2025-09-09T02:25	10	0	0.1	-1	0	384	0.2	384	385	15.0	89.2
2025-09-09T02:26	10	0	0.1	-1	0	384	0.3	383	385	15.0	89.5
2025-09-09T02:27	10	0	0.0	0	0	384	0.3	383	384	14.9	90.8
2025-09-09T02:28	10	0	0.0	0	0	384	0.2	383	384	14.9	91.1
2025-09-09T02:29	10	0	0.1	-1	0	383	0.3	382	384	14.7	93.4
2025-09-09T02:30	10	0	0.1	0	0	384	0.2	383	384	14.6	93.6
2025-09-09T02:31	10	0	0.1	0	0	384	0.3	383	384	14.7	92.4
2025-09-09T02:32	10	0	0.1	0	0	383	0.2	383	384	14.6	94.0
2025-09-09T02:33	10	0	0.1	0	0	383	0.3	383	384	14.6	93.8
2025-09-09T02:34	10	0	0.1	0	0	383	0.2	383	384	14.6	94.1
2025-09-09T02:35	10	0	0.0	0	0	383	0.2	383	384	14.5	94.6
2025-09-09T02:36	10	0	0.1	0	0	383	0.2	383	384	14.6	93.6
2025-09-09T02:37	10	0	0.0	0	0	383	0.2	383	384	14.6	93.4
2025-09-09T02:38	10	0	0.0	0	0	383	0.2	383	384	14.6	92.9
2025-09-09T02:39	10	0	0.0	0	0	383	0.2	383	384	14.6	93.6
2025-09-09T02:40	10	0	0.0	0	0	383	0.2	383	384	14.6	93.5
2025-09-09T02:41	10	0	0.0	0	0	383	0.2	382	383	14.6	93.4
2025-09-09T02:42	10	0	0.0	0	0	383	0.2	383	384	14.6	93.5
2025-09-09T02:43	10	0	0.1	0	0	383	0.2	383	383	14.6	93.3
2025-09-09T02:44	10	0	0.0	0	0	383	0.2	383	383	14.6	93.9
2025-09-09T02:45	10	0	0.0	0	0	383	0.2	383	383	14.6	94.1
2025-09-09T02:46	10	0	0.0	0	0	383	0.2	382	383	14.5	94.0
2025-09-09T02:47	10	0	0.0	0	0	383	0.2	382	383	14.5	94.6
2025-09-09T02:48	10	0	0.0	0	0	383	0.2	383	384	14.5	94.7
2025-09-09T02:49	10	0	0.0	0	0	383	0.2	383	384	14.6	94.2
2025-09-09T02:50	10	0	0.0	0	0	383	0.2	383	383	14.6	93.9
2025-09-09T02:51	10	0	0.0	0	0	384	0.2	383	384	14.7	93.7
2025-09-09T02:52	10	0	0.0	0	0	384	0.2	383	384	14.7	93.8
2025-09-09T02:53	10	0	0.0	0	0	384	0.2	383	385	14.8	93.4
2025-09-09T02:54	10	0	0.1	0	0	384	0.2	384	384	14.9	92.7
2025-09-09T02:55	10	0	0.0	0	0	384	0.2	384	384	14.9	92.8
2025-09-09T02:56	10	0	0.0	0	0	384	0.2	384	385	14.9	92.6
2025-09-09T02:57	10	0	0.0	0	0	384	0.2	384	384	14.9	92.7
2025-09-09T02:58	10	0	0.0	0	0	384	0.2	383	384	14.8	93.1
2025-09-09T02:59	10	0	0.0	0	0	384	0.2	383	384	14.8	93.7
2025-09-09T03:00	10	0	0.0	0	0	384	0.2	383	384	14.7	94.1
2025-09-09T03:01	10	0	0.1	0	0	384	0.2	383	384	14.7	93.9
2025-09-09T03:02	10	0	0.0	0	0	384	0.2	383	384	14.7	94.0
2025-09-09T03:03	10	0	0.1	0	0	383	0.2	383	384	14.7	94.1
2025-09-09T03:04	10	0	0.1	0	0	384	0.2	383	384	14.7	94.3
2025-09-09T03:05	10	0	0.1	0	0	384	0.3	383	384	14.7	94.3
2025-09-09T03:06	10	0	0.1	0	0	384	0.2	383	384	14.7	94.4
2025-09-09T03:07	10	0	0.1	0	1	384	0.2	383	384	14.8	93.1
2025-09-09T03:08	10	0	0.1	0	0	384	0.3	383	384	14.8	92.8
2025-09-09T03:09	10	0	0.1	0	1	384	0.2	383	384	14.9	91.6
2025-09-09T03:10	10	0	0.1	0	0	384	0.3	383	384	14.9	91.5
2025-09-09T03:11	10	0	0.1	0	0	384	0.2	383	384	14.9	90.9
2025-09-09T03:12	10	0	0.0	0	0	384	0.2	383	384	14.9	90.6
2025-09-09T03:13	10	0	0.1	0	0	384	0.2	383	384	15.0	89.4
2025-09-09T03:14	10	0	0.1	0	0	383	0.2	383	384	15.0	88.6
2025-09-09T03:15	10	0	0.1	0	0	384	0.2	383	384	15.0	89.3
2025-09-09T03:16	10	0	0.1	0	1	384	0.2	383	384	14.9	89.8
2025-09-09T03:17	10	0	0.1	0	0	383	0.2	383	384	14.9	89.3
2025-09-09T03:18	10	0	0.1	0	0	383	0.2	383	384	14.9	89.8
2025-09-09T03:19	10	0	0.1	0	0	383	0.2	383	384	14.8	90.3
2025-09-09T03:20	10	0	0.1	0	0	383	0.3	382	384	14.9	89.9
2025-09-09T03:21	10	0	0.1	0	1	383	0.2	383	384	14.8	90.6
2025-09-09T03:22	10	0	0.1	0	0	383	0.2	383	384	14.8	91.5
2025-09-09T03:23	10	0	0.1	0	0	383	0.2	383	384	14.6	92.5
2025-09-09T03:24	10	0	0.0	0	0	383	0.2	383	383	14.6	92.7
2025-09-09T03:25	10	0	0.1	0	0	383	0.2	382	383	14.6	92.9
2025-09-09T03:26	10	0	0.1	0	0	383	0.2	383	384	14.6	92.4
2025-09-09T03:27	10	0	0.1	0	0	383	0.2	383	384	14.7	91.7
2025-09-09T03:28	10	0	0.1	0	0	383	0.2	382	383	14.7	91.7
2025-09-09T03:29	10	0	0.1	0	0	383	0.2	383	384	14.6	91.8
2025-09-09T03:30	10	0	0.1	0	0	383	0.2	382	383	14.6	92.3
2025-09-09T03:31	10	0	0.0	0	0	383	0.2	382	383	14.5	93.1
2025-09-09T03:32	10	0	0.1	0	0	382	0.2	382	383	14.5	93.8
2025-09-09T03:33	10	0	0.1	0	0	382	0.2	382	383	14.4	94.1
2025-09-09T03:34	10	0	0.1	0	0	383	0.2	382	383	14.4	94.2
2025-09-09T03:35	10	0	0.1	0	0	382	0.2	382	383	14.4	94.4
2025-09-09T03:36	10	0	0.1	0	0	382	0.2	382	383	14.4	94.6
2025-09-09T03:37	10	0	0.1	0	0	382	0.2	382	383	14.4	94.9
2025-09-09T03:38	10	0	0.1	0	0	382	0.3	382	383	14.3	95.0
2025-09-09T03:39	10	0	0.1	0	1	382	0.2	382	383	14.3	95.3
2025-09-09T03:40	10	0	0.1	0	0	382	0.3	382	383	14.3	95.7
2025-09-09T03:41	10	0	0.1	0	0	382	0.2	382	383	14.3	95.4
2025-09-09T03:42	10	0	0.1	0	0	382	0.2	381	383	14.3	95.2
2025-09-09T03:43	10	0	0.2	0	1	382	0.3	382	383	14.3	95.5
2025-09-09T03:44	10	0	0.2	0	0	382	0.3	381	383	14.3	95.8
2025-09-09T03:45	10	0	0.1	0	1	382	0.2	382	383	14.3	95.8
2025-09-09T03:46	10	0	0.2	0	0	382	0.2	382	383	14.3	95.6
2025-09-09T03:47	10	0	0.2	0	1	382	0.3	382	383	14.3	95.4
2025-09-09T03:48	10	0	0.1	0	0	382	0.3	382	383	14.3	95.3
2025-09-09T03:49	10	0	0.1	0	0	382	0.3	381	383	14.3	95.3
2025-09-09T03:50	10	0	0.1	0	0	382	0.2	381	383	14.3	95.6
2025-09-09T03:51	10	0	0.2	0	1	382	0.3	382	383	14.3	95.6
2025-09-09T03:52	10	0	0.2	0	1	382	0.2	382	383	14.3	95.6
2025-09-09T03:53	10	0	0.2	0	1	382	0.3	381	383	14.3	95.3
2025-09-09T03:54	10	0	0.1	0	1	382	0.2	382	383	14.3	95.4
2025-09-09T03:55	10	0	0.2	0	1	382	0.3	382	383	14.3	95.5
2025-09-09T03:56	10	0	0.2	0	1	382	0.2	382	383	14.3	95.8
2025-09-09T03:57	10	0	0.1	0	0	383	0.2	382	383	14.3	95.5
2025-09-09T03:58	10	0	0.1	0	0	383	0.2	382	383	14.3	95.6
2025-09-09T03:59	10	0	0.1	0	0	383	0.3	382	383	14.3	95.5
2025-09-09T04:00	10	0	0.2	0	1	382	0.2	382	383	14.3	95.8
2025-09-09T04:01	10	0	0.1	0	0	382	0.2	382	383	14.3	95.9
2025-09-09T04:02	10	0	0.1	0	0	382	0.3	382	383	14.3	96.2
2025-09-09T04:03	10	0	0.1	0	0	382	0.2	382	383	14.3	96.0
2025-09-09T04:04	10	0	0.1	0	0	383	0.3	381	383	14.3	95.8
2025-09-09T04:05	10	0	0.2	0	0	382	0.3	382	383	14.3	95.4
2025-09-09T04:06	10	0	0.1	0	0	383	0.2	382	383	14.4	94.7
2025-09-09T04:07	10	0	0.1	0	0	383	0.2	382	383	14.4	94.2
2025-09-09T04:08	10	0	0.1	0	0	383	0.3	382	384	14.4	94.4
2025-09-09T04:09	10	0	0.1	0	0	383	0.2	382	384	14.4	94.1
2025-09-09T04:10	10	0	0.1	0	0	383	0.2	382	383	14.4	94.2
2025-09-09T04:11	10	0	0.1	0	0	382	0.2	382	383	14.5	93.7
2025-09-09T04:12	10	0	0.2	0	0	382	0.2	382	383	14.5	94.1
2025-09-09T04:13	10	0	0.2	0	1	383	0.4	382	383	14.5	93.8
2025-09-09T04:14	10	0	0.1	0	0	383	0.2	382	383	14.5	94.2
2025-09-09T04:15	10	0	0.1	0	0	382	0.3	382	383	14.5	94.3
2025-09-09T04:16	10	0	0.1	0	0	383	0.2	382	383	14.5	93.9
2025-09-09T04:17	10	0	0.1	0	0	383	0.3	382	383	14.5	93.1
2025-09-09T04:18	10	0	0.1	0	0	383	0.3	382	383	14.6	93.0
2025-09-09T04:19	10	0	0.1	0	0	383	0.3	382	383	14.6	92.9
2025-09-09T04:20	10	0	0.1	0	0	383	0.3	382	383	14.6	92.7
2025-09-09T04:21	10	0	0.1	0	0	382	0.3	382	383	14.6	92.9
2025-09-09T04:22	10	0	0.1	0	1	382	0.3	382	383	14.6	92.8
2025-09-09T04:23	10	0	0.1	0	0	383	0.2	382	383	14.6	92.3
2025-09-09T04:24	10	0	0.7	0	5	383	0.2	382	383	14.6	92.1
2025-09-09T04:25	10	0	0.1	0	0	382	0.3	382	383	14.6	92.2
2025-09-09T04:26	10	0	0.2	0	1	382	0.3	382	383	14.6	92.7
2025-09-09T04:27	10	0	0.2	0	1	382	0.2	382	383	14.6	92.4
2025-09-09T04:28	10	0	0.1	0	0	382	0.3	382	383	14.6	92.8
2025-09-09T04:29	10	0	0.1	0	0	382	0.4	381	383	14.6	92.5
2025-09-09T04:30	10	0	0.2	0	1	382	0.2	382	383	14.6	92.2
2025-09-09T04:31	10	0	0.1	0	0	382	0.3	381	383	14.6	92.2
2025-09-09T04:32	10	0	0.2	0	1	382	0.4	382	384	14.7	91.2
2025-09-09T04:33	10	0	0.1	0	0	382	0.2	382	383	14.7	91.3
2025-09-09T04:34	10	0	0.1	0	0	382	0.3	382	383	14.6	91.5
2025-09-09T04:35	10	0	0.1	0	0	382	0.2	382	383	14.6	91.6
2025-09-09T04:36	10	0	0.1	0	0	382	0.2	382	383	14.6	91.6
2025-09-09T04:37	10	0	0.1	0	0	382	0.2	382	383	14.6	91.7
2025-09-09T04:38	10	0	0.1	0	0	382	0.3	381	383	14.6	92.2
2025-09-09T04:39	10	0	0.1	0	0	382	0.3	381	383	14.5	93.2
2025-09-09T04:40	10	0	0.1	0	0	382	0.2	381	382	14.4	93.9
2025-09-09T04:41	10	0	0.2	0	1	382	0.3	381	383	14.4	93.9
2025-09-09T04:42	10	0	0.2	0	0	382	0.3	381	383	14.4	93.5
2025-09-09T04:43	10	0	0.2	0	0	382	0.2	382	383	14.4	93.3
2025-09-09T04:44	10	0	0.2	0	0	382	0.2	381	382	14.4	93.0
2025-09-09T04:45	10	0	0.2	0	1	382	0.3	381	383	14.5	92.1
2025-09-09T04:46	10	0	0.2	0	0	382	0.2	382	383	14.5	91.2
2025-09-09T04:47	10	0	0.2	0	1	382	0.2	382	383	14.6	90.2
2025-09-09T04:48	10	0	0.1	0	1	382	0.3	381	383	14.6	89.7
2025-09-09T04:49	10	0	0.1	0	0	382	0.2	382	383	14.7	89.2
2025-09-09T04:50	10	0	0.2	0	1	382	0.2	382	383	14.7	89.4
2025-09-09T04:51	10	0	0.2	0	1	382	0.3	381	383	14.7	88.9
2025-09-09T04:52	10	0	0.1	0	0	382	0.2	382	382	14.7	89.3
2025-09-09T04:53	10	0	0.1	0	0	382	0.3	381	383	14.6	89.2
2025-09-09T04:54	10	0	0.1	0	0	382	0.3	381	383	14.6	89.2
2025-09-09T04:55	10	0	0.1	0	0	382	0.2	381	382	14.6	90.2
2025-09-09T04:56	10	0	0.2	0	0	382	0.3	381	383	14.6	89.7
2025-09-09T04:57	10	0	0.2	0	0	382	0.3	381	383	14.6	89.2
2025-09-09T04:58	10	0	0.2	0	1	382	0.3	382	383	14.6	88.9
2025-09-09T04:59	10	0	0.1	0	0	382	0.3	381	383	14.6	89.8
2025-09-09T05:00	10	0	0.2	0	0	382	0.2	381	382	14.6	90.5
2025-09-09T05:01	10	0	0.1	0	0	382	0.2	381	382	14.5	91.3
2025-09-09T05:02	10	0	0.1	0	0	382	0.3	381	382	14.5	91.9
2025-09-09T05:03	10	0	0.1	0	0	382	0.3	381	382	14.4	92.7
2025-09-09T05:04	10	0	0.2	0	0	382	0.3	381	382	14.4	93.0
2025-09-09T05:05	10	0	0.2	0	0	382	0.3	381	382	14.4	91.6
2025-09-09T05:06	10	0	0.1	0	0	382	0.3	381	382	14.4	90.9
2025-09-09T05:07	10	0	0.1	0	0	382	0.2	381	382	14.5	90.2
2025-09-09T05:08	10	0	0.1	0	0	382	0.3	381	382	14.5	91.1
2025-09-09T05:09	10	0	0.2	0	1	382	0.3	381	382	14.4	91.8
2025-09-09T05:10	10	0	0.1	0	0	382	0.2	381	382	14.4	91.7
2025-09-09T05:11	10	0	0.1	0	1	381	0.3	380	382	14.4	91.9
2025-09-09T05:12	10	0	0.2	0	1	382	0.2	381	382	14.4	91.9
2025-09-09T05:13	10	0	0.1	0	1	382	0.3	381	383	14.3	92.1
2025-09-09T05:14	10	0	0.2	0	1	381	0.3	381	382	14.3	92.2
2025-09-09T05:15	10	1	0.2	0	1	382	0.2	381	382	14.3	92.3
2025-09-09T05:16	10	1	0.2	0	1	381	0.2	381	382	14.3	92.6
2025-09-09T05:17	10	1	0.2	0	1	381	0.3	381	382	14.3	93.4
2025-09-09T05:18	10	1	0.2	0	1	381	0.3	381	382	14.2	93.5
2025-09-09T05:19	10	1	0.2	1	1	382	0.3	381	382	14.2	93.9
2025-09-09T05:20	10	1	0.1	1	1	382	0.3	381	382	14.2	93.7
2025-09-09T05:21	10	1	0.1	1	1	382	0.3	381	382	14.3	93.1
2025-09-09T05:22	10	1	0.2	1	2	381	0.2	381	382	14.3	93.1
2025-09-09T05:23	10	1	0.2	1	2	382	0.3	381	382	14.3	93.6
2025-09-09T05:24	10	1	0.1	1	2	382	0.3	381	382	14.2	93.8
2025-09-09T05:25	10	1	0.1	1	2	382	0.3	381	382	14.2	94.4
2025-09-09T05:26	10	1	0.1	1	2	382	0.2	381	382	14.2	94.9
2025-09-09T05:27	10	2	0.2	1	2	382	0.2	382	383	14.2	94.7
2025-09-09T05:28	10	2	0.2	1	3	382	0.3	381	383	14.3	94.5
2025-09-09T05:29	10	2	0.1	2	2	382	0.3	381	383	14.3	94.6
2025-09-09T05:30	10	2	0.2	2	2	382	0.3	382	383	14.3	94.7
2025-09-09T05:31	10	2	0.2	2	3	382	0.3	382	383	14.2	94.8
2025-09-09T05:32	10	2	0.2	2	3	382	0.2	382	383	14.2	94.7
2025-09-09T05:33	10	2	0.2	2	3	382	0.3	381	383	14.2	94.8
2025-09-09T05:34	10	3	0.2	2	3	382	0.3	382	383	14.2	95.1
2025-09-09T05:35	10	3	0.2	2	3	382	0.3	382	383	14.2	95.1
2025-09-09T05:36	10	3	0.1	3	3	382	0.3	382	383	14.2	95.2
2025-09-09T05:37	10	4	0.2	3	4	383	0.2	382	383	14.2	95.0
2025-09-09T05:38	10	4	0.2	3	4	383	0.3	382	383	14.2	94.5
2025-09-09T05:39	10	4	0.2	4	5	383	0.4	382	383	14.3	94.6
2025-09-09T05:40	10	4	0.1	4	4	383	0.3	382	383	14.3	94.7
2025-09-09T05:41	10	4	0.2	4	5	383	0.2	383	383	14.3	94.6
2025-09-09T05:42	10	5	0.2	4	5	383	0.2	383	384	14.3	94.6
2025-09-09T05:43	10	5	0.2	4	5	383	0.3	382	384	14.3	94.3
2025-09-09T05:44	10	5	0.2	5	6	383	0.2	382	384	14.3	93.8
2025-09-09T05:45	10	5	0.2	5	6	383	0.3	383	384	14.3	93.9
2025-09-09T05:46	10	6	0.2	5	6	383	0.3	383	384	14.4	93.6
2025-09-09T05:47	10	6	0.2	5	7	383	0.3	383	384	14.4	93.8
2025-09-09T05:48	10	6	0.2	6	7	383	0.3	383	384	14.4	93.5
2025-09-09T05:49	10	7	0.2	6	7	383	0.3	383	384	14.4	93.3
2025-09-09T05:50	10	7	0.2	7	7	383	0.4	383	384	14.5	91.7
2025-09-09T05:51	10	7	0.2	7	8	383	0.2	383	384	14.5	92.9
2025-09-09T05:52	10	8	0.2	7	8	383	0.3	383	384	14.4	92.6
2025-09-09T05:53	10	8	0.2	7	8	383	0.2	383	384	14.4	93.4
2025-09-09T05:54	10	8	0.2	7	8	383	0.2	383	384	14.4	92.9
2025-09-09T05:55	10	8	0.2	7	8	383	0.4	382	384	14.5	92.6
2025-09-09T05:56	10	8	0.1	7	8	384	0.2	383	384	14.5	92.9
2025-09-09T05:57	10	7	0.2	7	8	384	0.3	383	384	14.4	93.5
2025-09-09T05:58	10	7	0.2	7	8	384	0.3	383	384	14.4	93.4
2025-09-09T05:59	10	7	0.1	7	8	384	0.2	384	384	14.4	93.4
2025-09-09T06:00	10	7	0.2	7	8	384	0.3	383	385	14.4	93.0
2025-09-09T06:01	10	7	0.1	7	8	384	0.2	384	385	14.5	92.4
2025-09-09T06:02	10	7	0.2	7	8	384	0.3	383	384	14.5	92.5
2025-09-09T06:03	10	7	0.2	7	8	384	0.2	383	385	14.6	91.0
2025-09-09T06:04	10	7	0.1	7	8	384	0.3	383	384	14.6	90.8
2025-09-09T06:05	10	7	0.2	7	8	384	0.2	383	384	14.6	90.4
2025-09-09T06:06	10	8	0.2	7	8	384	0.2	383	384	14.6	90.7
2025-09-09T06:07	10	8	0.1	8	8	384	0.2	383	384	14.6	90.8
2025-09-09T06:08	10	8	0.1	8	8	384	0.2	384	384	14.6	91.1
2025-09-09T06:09	10	8	0.1	8	9	384	0.2	383	385	14.6	91.2
2025-09-09T06:10	10	9	0.6	8	12	384	0.2	384	385	14.6	90.5
2025-09-09T06:11	10	9	0.2	9	9	384	0.2	384	385	14.6	90.9
2025-09-09T06:12	10	9	0.2	9	10	384	0.2	384	385	14.6	90.8
2025-09-09T06:13	10	10	0.2	9	10	384	0.3	383	385	14.6	90.4
2025-09-09T06:14	10	10	0.2	10	11	384	0.3	384	385	14.6	90.6
2025-09-09T06:15	10	10	0.2	10	11	384	0.2	384	385	14.6	91.2
2025-09-09T06:16	10	10	0.2	10	11	384	0.2	384	385	14.6	90.8
2025-09-09T06:17	10	11	0.2	10	11	385	0.3	383	385	14.6	91.5
2025-09-09T06:18	10	11	0.1	10	11	385	0.2	384	385	14.6	91.8
2025-09-09T06:19	10	11	0.1	11	11	385	0.2	384	385	14.6	91.7
2025-09-09T06:20	10	11	0.1	11	11	385	0.2	384	385	14.6	91.6
2025-09-09T06:21	10	11	0.1	11	11	385	0.2	384	385	14.6	91.9
2025-09-09T06:22	10	11	0.2	11	12	385	0.3	385	386	14.6	92.0
2025-09-09T06:23	10	11	0.2	11	12	385	0.2	384	385	14.6	91.9
2025-09-09T06:24	10	11	0.2	11	12	385	0.3	385	386	14.6	92.0
2025-09-09T06:25	10	11	0.1	11	12	385	0.3	385	386	14.6	92.2
2025-09-09T06:26	10	11	0.1	11	12	385	0.2	385	386	14.6	91.6
2025-09-09T06:27	10	11	0.1	11	12	385	0.3	385	386	14.6	92.0
2025-09-09T06:28	10	12	0.2	11	12	385	0.3	385	386	14.6	91.5
2025-09-09T06:29	10	12	0.2	11	12	385	0.2	385	386	14.6	91.7
2025-09-09T06:30	10	12	0.2	11	12	386	0.2	385	386	14.6	91.7
2025-09-09T06:31	10	12	0.2	11	12	385	0.3	385	386	14.6	91.9
2025-09-09T06:32	10	12	0.2	12	13	386	0.3	385	386	14.6	91.5
2025-09-09T06:33	10	12	0.2	12	13	386	0.3	385	386	14.7	92.1
2025-09-09T06:34	10	13	0.2	12	13	386	0.2	385	386	14.6	91.6
2025-09-09T06:35	10	13	0.2	13	14	386	0.3	386	387	14.6	92.2
2025-09-09T06:36	10	13	0.2	13	14	386	0.2	386	387	14.6	92.3
2025-09-09T06:37	10	14	0.2	13	14	386	0.2	386	387	14.7	92.5
2025-09-09T06:38	10	14	0.2	13	14	387	0.2	386	387	14.6	92.4
2025-09-09T06:39	10	14	0.2	14	15	387	0.3	386	388	14.6	92.6
2025-09-09T06:40	10	15	0.2	14	15	387	0.2	387	388	14.6	93.1
2025-09-09T06:41	10	15	0.2	15	15	387	0.3	387	388	14.6	92.8
2025-09-09T06:42	10	15	0.2	15	16	387	0.3	387	388	14.7	92.6
2025-09-09T06:43	10	16	0.2	15	16	387	0.2	387	388	14.7	93.4
2025-09-09T06:44	10	16	0.1	15	16	388	0.3	387	388	14.6	93.4
2025-09-09T06:45	10	16	0.1	16	16	388	0.2	387	388	14.6	93.4
2025-09-09T06:46	10	16	0.2	16	17	388	0.3	387	389	14.6	93.8
2025-09-09T06:47	10	16	0.1	16	16	389	0.2	388	389	14.7	93.8
2025-09-09T06:48	10	16	0.2	16	17	389	0.2	388	389	14.7	94.0
2025-09-09T06:49	10	17	0.2	17	18	389	0.2	388	389	14.7	94.5
2025-09-09T06:50	10	18	0.2	17	18	389	0.2	389	390	14.7	94.2
2025-09-09T06:51	10	18	0.2	18	19	389	0.3	389	390	14.7	94.2
2025-09-09T06:52	10	19	0.3	19	20	389	0.3	389	390	14.7	93.2
2025-09-09T06:53	10	20	0.2	19	20	389	0.2	389	390	14.7	93.1
2025-09-09T06:54	10	20	0.2	20	21	389	0.2	389	390	14.7	92.8
2025-09-09T06:55	10	21	0.2	21	21	389	0.3	389	390	14.8	93.2
2025-09-09T06:56	10	22	0.2	21	22	389	0.2	389	390	14.7	93.0
2025-09-09T06:57	10	22	0.2	22	23	390	0.3	389	390	14.8	93.0
2025-09-09T06:58	10	23	0.2	22	23	390	0.2	389	390	14.8	93.3
2025-09-09T06:59	10	23	0.2	23	24	390	0.2	389	390	14.7	93.1
2025-09-09T07:00	10	24	0.2	24	25	390	0.3	390	391	14.8	93.3
2025-09-09T07:01	10	25	0.2	24	25	390	0.2	390	391	14.8	93.4
2025-09-09T07:02	10	25	0.2	25	25	391	0.2	390	391	14.8	93.6
2025-09-09T07:03	10	25	0.1	25	25	391	0.2	390	391	14.8	93.6
2025-09-09T07:04	10	25	0.1	25	25	390	0.2	390	391	14.8	93.6
2025-09-09T07:05	10	25	0.1	24	25	391	0.2	390	391	14.8	93.7
2025-09-09T07:06	10	24	0.2	24	24	391	0.3	391	392	14.8	93.9
2025-09-09T07:07	10	24	0.1	24	24	391	0.3	391	392	14.9	94.3
2025-09-09T07:08	10	24	0.1	24	24	391	0.3	391	392	14.9	94.2
2025-09-09T07:09	10	25	0.2	24	25	392	0.2	391	392	14.9	94.1
2025-09-09T07:10	10	25	0.2	25	26	392	0.2	391	393	14.9	93.9
2025-09-09T07:11	10	26	0.2	26	26	392	0.4	391	393	14.9	93.6
2025-09-09T07:12	10	26	0.1	26	26	392	0.2	391	392	14.9	92.8
2025-09-09T07:13	10	26	0.1	26	27	392	0.2	391	392	14.9	92.8
2025-09-09T07:14	10	26	0.1	26	27	392	0.2	391	392	15.0	92.8
2025-09-09T07:15	10	27	0.1	26	27	392	0.3	391	392	15.0	92.5
2025-09-09T07:16	10	27	0.1	26	27	392	0.2	392	393	15.0	92.7
2025-09-09T07:17	10	27	0.1	27	27	392	0.2	391	392	15.0	92.6
2025-09-09T07:18	10	27	0.1	27	27	392	0.2	391	392	15.0	92.3
2025-09-09T07:19	10	28	0.2	27	28	392	0.2	391	392	15.0	92.1
2025-09-09T07:20	10	28	0.2	28	28	392	0.2	391	392	15.1	92.3
2025-09-09T07:21	10	29	0.2	28	29	392	0.2	391	392	15.1	92.0
2025-09-09T07:22	10	29	0.2	29	30	392	0.2	391	392	15.1	91.9
2025-09-09T07:23	10	30	0.1	30	30	392	0.2	391	392	15.1	91.6
2025-09-09T07:24	10	30	0.2	30	31	393	0.3	392	393	15.1	92.0
2025-09-09T07:25	10	31	0.1	31	31	393	0.5	392	394	15.1	91.5
2025-09-09T07:26	10	31	0.1	31	31	392	0.2	392	393	15.1	90.9
2025-09-09T07:27	10	31	0.1	31	31	393	0.3	392	393	15.1	91.4
2025-09-09T07:28	10	32	0.2	31	32	393	0.3	393	394	15.2	92.1
2025-09-09T07:29	10	33	0.4	32	33	394	0.2	393	394	15.2	92.0
2025-09-09T07:30	10	34	0.4	33	34	394	0.3	393	395	15.2	92.2
2025-09-09T07:31	10	35	0.5	34	36	394	0.2	394	395	15.3	91.8
2025-09-09T07:32	10	37	0.5	36	37	395	0.3	394	395	15.3	91.7
2025-09-09T07:33	10	37	0.2	37	38	395	0.2	395	396	15.3	92.0
2025-09-09T07:34	10	38	0.2	38	38	395	0.2	395	396	15.3	91.5
2025-09-09T07:35	10	38	0.2	38	39	395	0.3	395	396	15.3	91.1
2025-09-09T07:36	10	39	0.3	39	40	395	0.2	395	396	15.3	91.2
2025-09-09T07:37	10	40	0.2	39	40	396	0.3	395	396	15.4	91.6
2025-09-09T07:38	10	40	0.1	40	41	396	0.4	395	397	15.4	91.1
2025-09-09T07:39	10	41	0.2	41	41	396	0.2	396	397	15.4	91.4
2025-09-09T07:40	10	41	0.2	41	42	396	0.2	396	397	15.4	91.4
2025-09-09T07:41	10	42	0.1	42	42	396	0.3	396	397	15.4	90.7
2025-09-09T07:42	10	42	0.3	42	43	396	0.2	396	397	15.4	91.1
2025-09-09T07:43	10	43	0.1	42	43	396	0.2	396	397	15.4	90.9
2025-09-09T07:44	10	42	0.1	42	42	397	0.2	396	397	15.5	91.6
2025-09-09T07:45	10	42	0.3	41	42	397	0.3	397	398	15.5	91.6
2025-09-09T07:46	10	41	0.1	41	41	397	0.2	397	398	15.6	90.9
2025-09-09T07:47	10	41	0.1	41	41	397	0.3	396	398	15.6	91.4
2025-09-09T07:48	10	41	0.1	41	41	397	0.2	397	398	15.6	90.7
2025-09-09T07:49	10	41	0.1	41	42	398	0.3	398	399	15.7	91.1
2025-09-09T07:50	10	42	0.5	41	43	398	0.4	397	399	15.6	90.5
2025-09-09T07:51	10	43	0.1	42	43	398	0.2	397	398	15.6	90.9
2025-09-09T07:52	10	43	0.4	42	44	398	0.3	397	398	15.6	90.4
2025-09-09T07:53	10	45	0.5	44	46	398	0.4	397	399	15.7	91.2
2025-09-09T07:54	10	45	0.1	45	45	400	0.4	399	400	15.8	92.0
2025-09-09T07:55	10	44	0.3	44	45	400	0.3	399	400	15.8	91.5
2025-09-09T07:56	10	43	0.4	42	44	399	0.3	398	400	15.7	90.0
2025-09-09T07:57	10	42	0.5	41	43	398	0.3	398	399	15.7	89.7
2025-09-09T07:58	10	40	0.8	39	42	398	0.3	398	399	15.8	89.4
2025-09-09T07:59	10	38	0.7	37	39	399	0.2	398	399	15.8	89.9
2025-09-09T08:00	10	36	0.5	35	37	398	0.4	397	399	15.8	90.5
2025-09-09T08:01	10	34	0.4	34	35	398	0.5	397	399	15.8	89.7
2025-09-09T08:02	10	33	0.5	32	34	397	0.3	397	398	15.8	90.0
2025-09-09T08:03	10	31	0.6	30	32	397	0.2	397	398	15.8	90.5
2025-09-09T08:04	10	29	0.5	28	30	397	0.3	396	398	15.9	90.6
2025-09-09T08:05	10	28	0.3	27	28	396	0.5	395	397	15.8	89.4
2025-09-09T08:06	10	27	0.3	26	27	395	0.2	395	396	15.8	89.5
2025-09-09T08:07	10	26	0.2	26	26	395	0.3	395	396	15.8	89.6
2025-09-09T08:08	10	26	0.1	26	26	395	0.2	394	395	15.8	89.3
2025-09-09T08:09	10	26	0.1	26	26	395	0.3	394	395	15.8	89.3
2025-09-09T08:10	10	27	0.2	26	27	395	0.2	395	395	15.9	89.8
2025-09-09T08:11	10	27	0.3	27	28	395	0.3	394	396	15.9	89.7
2025-09-09T08:12	10	29	0.4	28	29	395	0.4	394	396	15.9	86.6
2025-09-09T08:13	10	30	0.4	29	31	395	0.3	394	396	15.9	87.0
2025-09-09T08:14	10	31	0.5	31	32	395	0.3	394	396	15.9	86.7
2025-09-09T08:15	10	33	0.5	32	34	396	0.4	395	396	15.9	87.0
2025-09-09T08:16	10	35	0.6	34	36	396	0.3	396	397	15.9	86.4
2025-09-09T08:17	10	36	0.6	36	38	397	0.4	396	398	16.0	87.9
2025-09-09T08:18	10	39	0.9	38	41	398	0.4	397	399	16.0	87.9
2025-09-09T08:19	10	41	0.4	40	42	398	0.2	398	398	16.0	87.9
2025-09-09T08:20	10	42	0.5	42	43	398	0.2	398	399	16.0	87.9
2025-09-09T08:21	10	44	0.4	43	45	398	0.3	398	399	16.0	87.9
2025-09-09T08:22	10	45	0.7	44	46	398	0.2	398	399	16.0	87.9
2025-09-09T08:23	10	46	0.8	44	48	399	0.4	398	399	16.0	87.9
2025-09-09T08:24	10	47	1.0	45	49	399	0.4	399	400	16.0	86.4
2025-09-09T08:25	10	47	0.7	46	48	399	0.4	399	400	16.1	86.2
2025-09-09T08:26	10	48	0.5	47	48	400	0.3	399	400	16.1	85.4
2025-09-09T08:27	10	46	0.8	45	47	400	0.3	400	401	16.2	86.0
2025-09-09T08:28	10	47	1.0	44	48	401	0.2	400	401	16.2	85.8
2025-09-09T08:29	10	41	1.6	39	44	400	0.5	399	401	16.2	84.9
2025-09-09T08:30	10	40	0.7	39	41	400	0.2	399	400	16.2	85.9
2025-09-09T08:31	10	40	0.2	40	41	400	0.3	399	400	16.2	85.6
2025-09-09T08:32	10	39	0.8	38	40	399	0.4	398	400	16.2	85.7
2025-09-09T08:33	10	37	1.1	35	39	399	0.3	398	399	16.2	85.2
2025-09-09T08:34	10	35	0.3	34	35	398	0.4	397	399	16.1	85.2
2025-09-09T08:35	10	34	0.2	34	35	397	0.3	397	398	16.2	85.1
2025-09-09T08:36	10	35	0.1	34	35	397	0.2	397	398	16.1	85.2
2025-09-09T08:37	10	37	1.3	35	39	397	0.3	397	398	16.1	85.3
2025-09-09T08:38	10	45	3.2	39	49	398	0.4	397	399	16.1	85.9
2025-09-09T08:39	10	44	1.9	41	46	399	0.4	398	400	16.1	86.4
2025-09-09T08:40	10	45	1.0	43	46	400	0.3	399	401	16.2	86.8
2025-09-09T08:41	10	43	0.8	41	44	400	0.4	399	400	16.2	86.3
2025-09-09T08:42	10	42	0.4	41	43	399	0.3	399	400	16.2	85.6
2025-09-09T08:43	10	42	1.0	40	44	400	0.2	399	400	16.2	86.0
2025-09-09T08:44	10	43	1.2	42	46	400	0.3	399	401	16.2	86.3
2025-09-09T08:45	10	48	1.4	46	51	401	0.4	400	402	16.2	86.4
2025-09-09T08:46	10	42	1.6	40	46	401	0.3	401	402	16.2	86.8
2025-09-09T08:47	10	42	2.0	40	45	401	0.2	400	401	16.2	85.8
2025-09-09T08:48	10	45	1.1	44	48	401	0.3	400	401	16.2	86.1
2025-09-09T08:49	10	39	4.0	35	47	401	0.4	400	402	16.3	86.9
2025-09-09T08:50	10	34	0.5	33	35	400	0.5	399	401	16.3	87.0
2025-09-09T08:51	10	36	1.0	35	38	399	0.3	398	400	16.3	86.4
2025-09-09T08:52	10	37	0.5	36	38	399	0.2	399	399	16.3	85.8
2025-09-09T08:53	10	38	0.8	37	40	399	0.2	399	400	16.3	86.4
2025-09-09T08:54	10	39	0.9	37	40	399	0.2	398	399	16.3	84.7
2025-09-09T08:55	10	38	1.5	36	40	399	0.2	398	399	16.3	85.3
2025-09-09T08:56	10	38	1.8	36	41	399	0.3	398	399	16.3	84.2
2025-09-09T08:57	10	41	2.4	35	44	399	0.4	398	400	16.3	84.2
2025-09-09T08:58	10	41	6.0	34	49	399	0.8	398	401	16.3	85.4
2025-09-09T08:59	10	52	6.0	46	65	401	0.5	400	403	16.4	86.0
2025-09-09T09:00	10	49	7.2	41	65	402	0.7	400	403	16.4	84.5
2025-09-09T09:01	10	47	6.2	38	57	401	0.4	400	401	16.3	83.4
2025-09-09T09:02	10	58	6.2	50	69	402	0.8	401	404	16.3	83.4
2025-09-09T09:03	10	36	8.9	26	52	401	1.3	399	403	16.4	83.6
2025-09-09T09:04	10	38	22.5	23	95	399	1.0	398	403	16.4	83.9
2025-09-09T09:05	10	121	10.1	94	131	408	3.6	401	414	16.4	84.1
2025-09-09T09:06	10	128	0.3	128	129	415	1.6	412	418	16.6	84.1
2025-09-09T09:07	10	127	0.3	127	128	418	0.8	417	419	16.8	84.6
2025-09-09T09:08	10	127	0.1	127	127	419	0.4	419	420	17.0	84.8
2025-09-09T09:09	10	127	0.2	126	127	419	0.2	418	419	17.0	80.6
2025-09-09T09:10	10	127	0.1	127	127	420	0.4	419	420	17.0	80.9
2025-09-09T09:11	10	127	0.1	127	127	421	0.4	420	422	17.0	81.7
2025-09-09T09:12	10	127	0.1	126	127	421	0.5	420	422	17.0	80.7
2025-09-09T09:13	10	127	0.3	126	127	422	0.8	420	423	17.2	82.6
2025-09-09T09:14	10	127	0.2	127	127	421	0.4	420	422	17.2	78.9
2025-09-09T09:15	10	127	0.1	127	127	421	0.7	420	422	17.3	81.7
2025-09-09T09:16	10	127	0.1	127	128	420	0.5	419	421	17.1	78.1
2025-09-09T09:17	10	128	0.2	127	128	420	0.4	419	421	17.1	77.5
2025-09-09T09:18	10	128	0.2	127	128	420	0.6	419	422	17.1	76.8
2025-09-09T09:19	10	128	0.1	128	128	421	0.5	420	421	17.2	76.3
2025-09-09T09:20	10	128	0.1	128	129	420	0.8	419	422	17.1	76.0
2025-09-09T09:21	10	129	0.2	128	129	421	0.4	420	421	17.1	76.4
2025-09-09T09:22	10	129	0.1	129	129	422	0.4	421	423	17.1	76.8
2025-09-09T09:23	10	129	0.2	129	129	423	0.4	422	423	17.2	77.9
2025-09-09T09:24	10	129	0.2	129	130	423	0.5	423	425	17.1	79.0
2025-09-09T09:25	10	129	0.3	129	130	425	0.3	424	425	17.1	79.5
2025-09-09T09:26	10	129	0.8	127	130	425	0.6	423	426	17.2	79.8
2025-09-09T09:27	10	130	0.1	130	130	425	0.4	424	426	17.0	79.3
2025-09-09T09:28	10	130	0.7	127	131	426	0.4	426	427	17.2	79.4
2025-09-09T09:29	10	130	0.1	130	131	427	0.4	427	428	17.5	80.0
2025-09-09T09:30	10	131	0.1	130	131	427	0.8	426	429	17.6	79.0
2025-09-09T09:31	10	131	0.1	131	131	426	0.4	425	427	17.5	78.5
2025-09-09T09:32	10	131	0.1	131	131	427	0.4	425	427	17.4	78.3
2025-09-09T09:33	10	131	0.1	131	131	425	0.3	425	426	17.4	77.9
2025-09-09T09:34	10	131	0.1	131	132	425	0.3	425	426	17.4	77.1
2025-09-09T09:35	10	131	0.2	131	132	426	0.4	426	427	17.4	77.6
2025-09-09T09:36	10	132	0.2	132	133	427	0.3	427	428	17.4	77.0
2025-09-09T09:37	10	133	0.1	132	133	428	0.3	427	428	17.4	76.3
2025-09-09T09:38	10	133	0.1	133	133	428	0.3	428	429	17.6	77.4
2025-09-09T09:39	10	133	0.2	133	133	429	0.5	427	429	17.8	78.0
2025-09-09T09:40	10	133	0.1	133	134	428	0.4	427	429	17.8	77.5
2025-09-09T09:41	10	134	0.2	134	134	429	0.2	428	429	17.8	76.3
2025-09-09T09:42	10	135	0.7	134	137	428	0.7	427	429	17.7	75.6
2025-09-09T09:43	10	129	11.1	105	137	429	0.8	427	430	17.6	77.0
2025-09-09T09:44	10	106	12.1	75	124	427	1.7	423	429	17.5	77.0
2025-09-09T09:45	10	118	28.2	60	136	426	2.4	422	429	17.5	77.7
2025-09-09T09:46	10	136	0.1	136	136	429	0.8	428	430	17.7	77.2
2025-09-09T09:47	10	136	0.2	136	136	431	0.4	430	431	17.8	75.9
2025-09-09T09:48	10	137	0.2	136	137	431	0.3	430	431	17.9	73.6
2025-09-09T09:49	10	137	0.1	137	137	431	0.5	431	432	17.9	72.8
2025-09-09T09:50	10	137	0.1	137	137	431	0.5	430	432	17.9	72.3
2025-09-09T09:51	10	137	0.1	137	137	431	0.5	430	433	18.1	72.3
2025-09-09T09:52	10	138	0.2	137	138	432	0.7	430	433	18.2	71.5
2025-09-09T09:53	10	138	0.2	138	139	431	0.5	430	432	18.1	67.9
2025-09-09T09:54	10	139	0.1	139	139	432	0.4	431	433	18.1	69.3
2025-09-09T09:55	10	139	0.2	139	140	432	0.3	431	432	18.0	69.4
2025-09-09T09:56	10	139	0.9	138	140	432	0.3	431	432	18.0	69.9
2025-09-09T09:57	10	141	0.4	140	141	433	0.4	432	433	18.0	69.8
2025-09-09T09:58	10	141	0.1	141	141	433	0.2	433	434	18.1	69.5
2025-09-09T09:59	10	141	0.9	141	147	433	0.3	432	434	18.2	70.8
2025-09-09T10:00	10	141	0.1	141	141	433	0.4	432	434	18.2	70.8
2025-09-09T10:01	10	141	0.1	141	142	433	0.4	433	434	18.1	70.3
2025-09-09T10:02	10	142	0.2	141	142	434	0.3	434	435	18.1	71.8
2025-09-09T10:03	10	142	0.2	142	142	435	0.5	434	436	18.4	72.7
2025-09-09T10:04	10	143	0.1	142	143	434	0.3	434	435	18.4	69.5
2025-09-09T10:05	10	143	0.1	143	144	434	0.3	434	435	18.4	69.9
2025-09-09T10:06	10	143	0.1	143	143	435	0.2	434	435	18.4	69.9
2025-09-09T10:07	10	143	0.1	143	144	436	0.6	435	437	18.6	69.1
2025-09-09T10:08	10	144	0.2	144	144	438	0.6	436	438	18.8	69.4
2025-09-09T10:09	10	145	0.2	144	145	437	0.4	436	438	18.7	67.0
2025-09-09T10:10	10	145	0.2	145	146	437	0.4	436	437	18.6	67.3
2025-09-09T10:11	10	145	0.1	145	146	437	0.3	436	437	18.5	68.2
2025-09-09T10:12	10	145	0.1	145	146	436	0.7	435	437	18.4	66.9
2025-09-09T10:13	10	146	0.1	145	146	436	0.5	435	437	18.4	66.5
2025-09-09T10:14	10	146	0.1	146	146	437	0.3	437	438	18.5	65.6
2025-09-09T10:15	10	146	0.1	146	147	438	0.7	436	439	18.5	66.6
2025-09-09T10:16	10	147	0.1	146	147	437	0.3	436	437	18.5	66.8
2025-09-09T10:17	10	147	0.1	147	147	437	0.6	436	439	18.6	65.9
2025-09-09T10:18	10	148	0.1	147	148	439	0.5	438	440	19.0	66.0
2025-09-09T10:19	10	148	0.1	148	148	439	0.4	437	439	18.9	64.6
2025-09-09T10:20	10	148	0.1	148	148	439	0.5	438	439	19.0	63.8
2025-09-09T10:21	10	148	0.1	148	149	440	0.3	439	440	18.9	63.9
2025-09-09T10:22	10	149	0.1	148	149	440	0.4	439	441	18.9	65.8
2025-09-09T10:23	10	149	0.1	148	149	440	0.4	439	441	19.0	64.8
2025-09-09T10:24	10	148	0.2	148	149	440	0.5	439	441	18.9	64.9
2025-09-09T10:25	10	148	0.1	148	148	440	0.3	440	441	18.9	64.3
2025-09-09T10:26	10	148	0.1	148	148	440	0.5	439	441	19.0	64.1
2025-09-09T10:27	10	148	0.1	148	149	440	0.4	439	441	19.1	66.6
2025-09-09T10:28	10	149	0.1	148	149	440	0.2	439	440	19.0	65.1
2025-09-09T10:29	10	149	0.2	149	149	441	0.4	440	441	19.1	66.4
2025-09-09T10:30	10	149	0.1	149	150	441	0.2	441	441	19.2	65.8
2025-09-09T10:31	10	150	0.2	150	150	442	0.5	441	443	19.2	67.3
2025-09-09T10:32	10	150	0.2	150	151	442	0.5	441	443	19.1	65.6
2025-09-09T10:33	10	151	0.3	151	152	443	0.4	443	444	19.2	67.4
2025-09-09T10:34	10	153	0.5	152	154	444	0.6	443	446	19.6	69.8
2025-09-09T10:35	10	155	0.5	154	156	444	0.4	443	445	19.7	66.1
2025-09-09T10:36	10	156	0.4	156	157	444	0.3	443	445	19.2	64.2
2025-09-09T10:37	10	158	0.6	157	159	445	0.3	444	446	19.0	65.1
2025-09-09T10:38	10	160	0.6	159	161	446	0.7	444	447	19.3	66.1
2025-09-09T10:39	10	162	0.6	161	163	446	0.4	445	446	19.5	65.0
2025-09-09T10:40	10	165	0.7	163	166	447	0.8	446	449	19.6	65.3
2025-09-09T10:41	10	166	0.3	165	167	447	0.3	447	448	19.7	63.5
2025-09-09T10:42	10	167	0.3	166	168	447	1.2	444	449	19.5	60.3
2025-09-09T10:43	10	168	0.2	167	168	445	0.7	444	447	19.4	59.5
2025-09-09T10:44	10	162	5.3	147	167	446	0.4	446	447	19.4	60.1
2025-09-09T10:45	10	158	6.3	147	164	445	0.5	444	446	19.5	61.5
2025-09-09T10:46	10	168	1.8	162	169	447	1.0	445	448	19.4	60.1
2025-09-09T10:47	10	170	0.3	169	171	449	0.5	448	450	19.5	61.0
2025-09-09T10:48	10	171	0.2	171	172	448	0.4	448	449	19.3	60.8
2025-09-09T10:49	10	171	0.3	171	171	449	0.5	448	450	19.1	61.0
2025-09-09T10:50	10	172	0.5	171	173	450	0.5	449	451	19.2	63.2
2025-09-09T10:51	10	173	0.3	172	174	451	0.3	450	452	19.6	65.3
2025-09-09T10:52	10	170	5.4	157	175	450	0.7	449	451	19.4	60.2
2025-09-09T10:53	10	173	7.3	141	178	449	0.6	448	450	19.4	59.9
2025-09-09T10:54	10	135	16.5	109	161	446	1.8	442	450	19.4	61.2
2025-09-09T10:55	10	122	16.2	86	148	441	1.0	440	443	19.3	60.6
2025-09-09T10:56	10	65	3.9	61	82	434	3.1	431	442	19.5	61.0
2025-09-09T10:57	10	103	22.0	66	135	435	3.1	430	439	19.5	60.3
2025-09-09T10:58	10	95	15.1	75	122	437	1.5	434	439	19.6	60.3
2025-09-09T10:59	10	102	11.7	87	119	437	1.1	435	439	19.6	60.8
2025-09-09T11:00	10	112	26.0	76	160	437	1.8	434	440	19.3	60.2
2025-09-09T11:01	10	172	7.5	157	180	444	2.7	438	446	19.2	61.6
2025-09-09T11:02	10	161	9.4	141	173	445	0.7	443	446	19.2	61.5
2025-09-09T11:03	10	169	1.6	167	172	447	0.6	445	448	19.2	62.3
2025-09-09T11:04	10	166	0.4	165	166	447	0.5	447	448	19.2	63.0
2025-09-09T11:05	10	165	0.2	165	166	448	0.4	448	449	19.4	63.9
2025-09-09T11:06	10	166	0.4	166	167	450	0.6	449	451	19.8	64.5
2025-09-09T11:07	10	168	0.3	167	168	451	0.4	450	452	19.9	64.4
2025-09-09T11:08	10	169	0.5	168	170	452	0.3	452	453	20.2	63.8
2025-09-09T11:09	10	171	0.6	170	172	452	0.4	451	453	19.8	60.6
2025-09-09T11:10	10	169	3.6	161	172	451	0.4	451	452	19.6	61.5
2025-09-09T11:11	10	159	25.7	107	178	450	2.1	445	452	19.8	62.5
2025-09-09T11:12	10	107	38.9	58	155	444	4.1	436	449	19.8	62.2
2025-09-09T11:13	10	129	57.2	59	189	440	5.3	434	450	19.9	60.9
2025-09-09T11:14	10	191	3.0	183	196	452	2.2	448	456	20.0	62.7
2025-09-09T11:15	10	191	10.4	172	206	456	1.0	455	458	20.3	65.0
2025-09-09T11:16	10	200	7.7	186	209	458	0.5	457	459	20.5	61.1
2025-09-09T11:17	10	167	15.8	136	194	456	1.3	454	458	20.4	61.6
2025-09-09T11:18	10	133	25.4	89	160	452	2.9	445	456	20.4	59.3
2025-09-09T11:19	10	79	4.0	76	89	441	3.9	435	448	20.4	60.0
2025-09-09T11:20	10	91	10.1	79	113	436	0.8	435	438	19.9	59.4
2025-09-09T11:21	10	90	6.0	80	102	437	1.1	435	439	19.9	60.0
2025-09-09T11:22	10	76	2.1	72	80	434	1.2	432	436	19.7	60.0
2025-09-09T11:23	10	70	0.9	69	72	432	0.4	432	433	19.7	60.8
2025-09-09T11:24	10	71	0.5	70	72	431	0.5	430	432	19.7	61.5
2025-09-09T11:25	10	73	0.7	72	75	431	0.3	430	431	19.7	62.2
2025-09-09T11:26	10	118	34.2	75	180	435	4.8	429	444	19.7	61.7
2025-09-09T11:27	10	158	50.6	75	207	447	3.4	441	452	20.0	64.3
2025-09-09T11:28	10	111	33.9	75	176	441	1.9	437	444	20.0	60.0
2025-09-09T11:29	10	171	37.8	90	208	444	5.1	437	452	19.7	59.9
2025-09-09T11:30	10	210	1.2	208	212	453	2.0	449	456	19.9	59.7
2025-09-09T11:31	10	213	1.0	212	216	458	1.6	455	461	20.0	59.9
2025-09-09T11:32	10	209	11.0	183	218	461	1.5	459	464	20.4	62.8
2025-09-09T11:33	10	219	2.5	213	222	462	1.0	460	464	20.5	60.5
2025-09-09T11:34	10	222	1.2	218	224	461	1.9	457	463	20.3	59.6
2025-09-09T11:35	10	219	7.8	200	227	458	0.3	458	459	20.0	58.7
2025-09-09T11:36	10	201	20.7	166	228	457	1.5	454	459	20.0	59.3
2025-09-09T11:37	10	131	12.0	114	168	451	2.7	448	457	20.0	60.8
2025-09-09T11:38	10	110	9.4	95	125	447	2.0	443	450	20.1	60.7
2025-09-09T11:39	10	91	2.1	87	95	442	1.5	439	444	20.1	60.4
2025-09-09T11:40	10	83	2.0	80	87	438	1.4	436	440	20.1	59.3
2025-09-09T11:41	10	78	1.4	76	81	436	0.9	434	437	20.2	62.4
2025-09-09T11:42	10	73	1.8	70	76	433	1.0	431	435	20.0	60.1
2025-09-09T11:43	10	67	1.3	65	70	431	0.5	431	432	20.1	61.8
2025-09-09T11:44	10	64	0.6	63	65	429	0.7	428	431	20.1	62.6
2025-09-09T11:45	10	62	0.6	61	63	428	0.5	427	428	20.0	58.1
2025-09-09T11:46	10	60	0.3	60	61	427	0.2	427	428	19.8	57.6
2025-09-09T11:47	10	60	0.1	60	60	429	0.6	427	430	19.8	58.7
2025-09-09T11:48	10	60	0.1	60	61	428	0.7	427	429	19.9	60.5
2025-09-09T11:49	10	61	0.4	61	62	427	0.2	426	427	19.7	60.7
2025-09-09T11:50	10	62	0.3	62	63	426	0.5	425	427	19.7	59.3
2025-09-09T11:51	10	63	0.2	63	63	425	0.3	424	425	19.6	59.1
2025-09-09T11:52	10	63	0.1	63	63	424	0.3	424	425	19.5	59.0
2025-09-09T11:53	10	63	0.1	62	63	424	0.3	424	425	19.5	59.5
2025-09-09T11:54	10	63	0.4	63	64	426	0.7	424	427	19.5	60.3
2025-09-09T11:55	10	66	0.9	64	68	428	0.8	426	429	19.6	59.8
2025-09-09T11:56	10	70	1.6	68	73	428	0.4	428	429	19.7	59.7
2025-09-09T11:57	10	77	2.3	73	81	430	0.9	428	431	19.7	60.4
2025-09-09T11:58	10	84	1.1	81	87	430	0.4	430	431	19.8	61.0
2025-09-09T11:59	10	84	1.8	82	88	431	0.2	430	432	19.8	61.2
2025-09-09T12:00	10	100	14.3	83	127	433	1.3	431	435	20.0	62.7
2025-09-09T12:01	10	86	4.0	81	92	434	0.4	433	434	20.1	61.8
2025-09-09T12:02	10	80	1.1	79	83	432	0.8	431	434	19.8	60.7
2025-09-09T12:03	10	101	13.5	83	123	434	1.7	431	437	19.8	61.5
2025-09-09T12:04	10	131	39.4	97	204	437	3.8	434	446	19.8	60.2
2025-09-09T12:05	10	151	32.7	117	199	446	1.9	443	449	19.9	59.9
2025-09-09T12:06	10	166	40.0	118	226	446	4.3	442	455	20.3	62.7
2025-09-09T12:07	10	220	10.1	189	231	457	1.4	453	459	20.2	60.0
2025-09-09T12:08	10	111	32.2	79	185	449	5.4	441	458	20.1	60.5
2025-09-09T12:09	10	76	1.7	73	79	436	3.8	431	443	19.9	60.1
2025-09-09T12:10	10	73	0.4	72	74	431	0.6	430	433	19.9	61.3
2025-09-09T12:11	10	70	1.9	67	72	430	0.3	429	431	19.9	60.3
2025-09-09T12:12	10	65	0.7	64	67	428	0.7	427	430	19.7	61.2
2025-09-09T12:13	10	64	0.4	63	64	427	0.7	426	429	19.8	63.3
2025-09-09T12:14	10	63	0.2	62	63	426	0.3	425	427	19.9	64.7
2025-09-09T12:15	10	62	0.1	62	63	424	0.9	423	426	19.7	63.6
2025-09-09T12:16	10	63	0.5	62	64	423	0.7	422	425	19.5	63.4
2025-09-09T12:17	10	63	0.4	63	64	423	0.4	422	424	19.5	65.0
2025-09-09T12:18	10	64	0.9	63	66	423	0.3	422	423	19.5	64.8
2025-09-09T12:19	10	81	11.6	66	106	424	1.1	422	425	19.6	64.9
2025-09-09T12:20	10	86	12.9	72	112	425	1.3	423	428	19.5	65.0
2025-09-09T12:21	10	79	7.7	72	98	425	0.7	424	427	19.4	64.8
2025-09-09T12:22	10	79	9.1	69	98	426	0.9	424	427	19.2	64.1
2025-09-09T12:23	10	67	9.6	59	89	423	1.1	421	425	19.3	64.6
2025-09-09T12:24	10	57	1.0	55	59	422	0.7	421	423	19.5	65.2
2025-09-09T12:25	10	54	0.9	52	55	422	1.7	419	424	19.6	64.5
2025-09-09T12:26	10	51	0.4	51	52	419	0.3	418	420	19.3	64.4
2025-09-09T12:27	10	50	0.2	50	51	419	0.2	418	419	19.3	64.6
2025-09-09T12:28	10	50	0.1	49	50	419	0.3	418	419	19.2	64.2
2025-09-09T12:29	10	50	0.3	49	51	419	0.3	418	419	19.2	64.8
2025-09-09T12:30	10	52	0.9	51	54	420	0.6	418	421	19.3	65.4
2025-09-09T12:31	10	55	0.7	54	56	421	0.3	420	421	19.4	64.3
2025-09-09T12:32	10	57	0.5	56	58	419	0.4	418	420	19.2	63.3
2025-09-09T12:33	10	59	0.6	58	60	420	0.3	419	421	19.2	62.9
2025-09-09T12:34	10	62	0.8	60	63	420	0.5	419	421	19.2	63.4
2025-09-09T12:35	10	64	0.7	63	65	421	0.5	420	423	19.3	63.4
2025-09-09T12:36	10	65	0.2	65	66	423	0.6	422	424	19.4	63.9
2025-09-09T12:37	10	65	0.1	65	66	423	0.3	422	424	19.5	63.4
2025-09-09T12:38	10	65	0.4	65	67	423	0.4	422	423	19.5	63.8
2025-09-09T12:39	10	70	1.9	67	74	423	0.7	421	424	19.3	62.7
2025-09-09T12:40	10	66	1.3	65	69	423	0.3	422	424	19.4	62.8
2025-09-09T12:41	10	63	0.9	61	64	422	0.4	421	423	19.4	62.7
2025-09-09T12:42	10	60	0.8	58	61	421	0.4	420	422	19.4	61.9
2025-09-09T12:43	10	72	20.1	58	120	421	1.4	420	425	19.3	61.8
2025-09-09T12:44	10	73	5.5	69	98	425	0.3	424	425	19.4	62.7
2025-09-09T12:45	10	72	6.4	68	91	424	0.3	424	425	19.4	62.4
2025-09-09T12:46	10	155	30.8	88	184	433	5.9	423	441	19.5	62.8
2025-09-09T12:47	10	180	9.6	154	191	442	1.8	439	444	19.5	61.3
2025-09-09T12:48	10	160	13.4	133	179	444	0.8	442	445	19.7	62.5
2025-09-09T12:49	10	158	5.4	147	166	445	0.4	444	445	19.8	62.5
2025-09-09T12:50	10	169	1.9	164	170	446	1.2	444	448	19.9	62.5
2025-09-09T12:51	10	169	0.2	169	170	448	0.6	447	449	20.2	62.5
2025-09-09T12:52	10	169	0.3	168	169	447	0.7	445	448	20.1	62.1
2025-09-09T12:53	10	167	0.4	167	168	447	0.9	445	448	20.2	63.6
2025-09-09T12:54	10	166	0.4	165	167	447	0.6	446	448	20.0	61.2
2025-09-09T12:55	10	165	0.9	162	165	446	1.0	445	448	19.7	60.2
2025-09-09T12:56	10	165	0.2	165	165	447	0.5	446	448	19.6	60.9
2025-09-09T12:57	10	165	0.2	165	166	448	0.4	448	449	19.7	61.5
2025-09-09T12:58	10	162	5.7	149	166	447	0.9	445	449	19.7	60.7
2025-09-09T12:59	10	159	4.5	149	165	446	0.4	444	446	19.6	61.0
2025-09-09T13:00	10	114	36.1	51	165	444	3.9	439	448	19.7	60.7
2025-09-09T13:01	10	77	22.6	48	121	436	2.4	433	442	19.6	60.4
2025-09-09T13:02	10	119	34.1	65	163	438	2.0	435	441	19.7	60.7
2025-09-09T13:03	10	123	31.6	83	175	439	1.6	436	442	19.7	60.7
2025-09-09T13:04	10	73	25.4	51	112	435	3.1	430	438	19.8	60.8
2025-09-09T13:05	10	54	2.8	51	60	430	1.0	428	432	20.0	62.0
2025-09-09T13:06	10	53	2.4	50	57	426	2.2	423	430	19.9	61.6
2025-09-09T13:07	10	49	0.7	48	50	423	0.4	422	424	19.7	61.0
2025-09-09T13:08	10	48	0.3	47	48	423	0.2	423	424	19.6	61.2
2025-09-09T13:09	10	47	0.5	47	49	424	0.2	423	424	19.7	61.4
2025-09-09T13:10	10	49	1.0	47	51	424	0.4	423	424	19.8	62.5
2025-09-09T13:11	10	48	0.9	47	50	422	0.4	421	423	19.7	60.6
2025-09-09T13:12	10	59	10.7	50	84	424	1.5	421	426	19.7	60.1
2025-09-09T13:13	10	52	1.7	50	56	424	0.5	423	425	19.7	60.8
2025-09-09T13:14	10	115	41.7	56	173	429	6.0	422	439	19.7	60.3
2025-09-09T13:15	10	177	1.9	170	179	443	3.7	435	448	19.8	62.2
2025-09-09T13:16	10	174	0.9	173	176	445	0.7	444	447	20.1	62.0
2025-09-09T13:17	10	160	16.5	126	173	446	0.8	445	448	20.3	63.2
2025-09-09T13:18	10	138	25.1	99	165	446	2.0	443	450	20.6	63.0
2025-09-09T13:19	10	162	0.8	160	163	447	0.3	446	447	20.5	60.9
2025-09-09T13:20	10	158	1.1	157	161	447	0.3	447	448	20.4	61.7
2025-09-09T13:21	10	156	5.0	145	160	445	1.5	443	448	20.1	60.7
2025-09-09T13:22	10	137	22.0	90	158	441	1.7	438	445	19.8	60.7
2025-09-09T13:23	10	154	1.5	150	156	442	0.3	441	443	19.8	61.4
2025-09-09T13:24	10	152	7.0	135	159	443	0.3	443	444	19.9	61.4
2025-09-09T13:25	10	116	13.6	96	141	440	2.5	436	445	19.8	59.8
2025-09-09T13:26	10	147	11.7	124	160	441	2.1	437	444	19.8	59.2
2025-09-09T13:27	10	155	9.9	121	161	446	1.1	443	447	20.1	60.2
2025-09-09T13:28	10	74	23.3	44	119	440	4.1	433	447	20.4	61.5
2025-09-09T13:29	10	56	11.7	44	74	431	1.8	429	435	20.2	59.3
2025-09-09T13:30	10	80	4.7	74	89	430	0.6	429	432	20.0	60.2
2025-09-09T13:31	10	74	7.6	64	89	431	0.9	429	432	20.0	60.5
2025-09-09T13:32	10	133	24.0	85	159	436	4.3	429	442	20.0	59.7
2025-09-09T13:33	10	149	12.0	123	161	443	0.8	441	444	20.0	60.4
2025-09-09T13:34	10	152	7.0	129	159	443	1.1	441	445	20.2	60.7
2025-09-09T13:35	10	154	2.4	145	156	446	0.8	444	447	20.5	59.6
2025-09-09T13:36	10	153	3.6	144	155	446	0.5	445	447	20.2	56.0
2025-09-09T13:37	10	155	0.1	155	155	445	1.4	443	447	20.2	56.5
2025-09-09T13:38	10	155	0.1	155	155	444	0.9	443	446	20.0	55.9
2025-09-09T13:39	10	151	5.4	139	155	447	0.4	446	447	20.5	56.3
2025-09-09T13:40	10	155	1.2	152	157	447	1.2	445	450	20.5	56.4
2025-09-09T13:41	10	157	0.4	155	158	446	0.3	446	447	20.1	55.9
2025-09-09T13:42	10	152	6.0	143	159	447	0.3	446	447	20.2	57.2
2025-09-09T13:43	10	146	9.5	128	159	444	2.3	441	448	20.4	57.8
2025-09-09T13:44	10	151	8.7	135	161	443	0.6	442	444	20.2	56.5
2025-09-09T13:45	10	114	19.0	86	144	440	2.4	437	443	20.3	56.8
2025-09-09T13:46	10	108	13.1	89	132	437	1.3	435	440	20.3	57.0
2025-09-09T13:47	10	104	26.5	71	151	435	1.5	433	438	20.0	55.8
2025-09-09T13:48	10	115	14.6	92	154	436	1.1	434	438	20.2	56.4
2025-09-09T13:49	10	122	27.8	97	170	439	1.2	437	441	20.2	56.3
2025-09-09T13:50	10	108	7.0	91	119	438	0.5	437	439	20.3	57.1
2025-09-09T13:51	10	120	13.0	100	152	438	1.1	436	440	20.2	55.6
2025-09-09T13:52	10	84	5.9	78	99	436	1.3	435	440	20.2	55.2
2025-09-09T13:53	10	107	19.0	84	145	435	1.1	432	437	20.2	55.4
2025-09-09T13:54	10	91	10.7	75	115	430	0.9	429	433	20.2	56.1
2025-09-09T13:55	10	67	6.6	60	81	426	1.8	424	430	20.1	55.2
2025-09-09T13:56	10	62	2.0	60	69	425	0.4	424	426	20.0	56.0
2025-09-09T13:57	10	85	7.5	70	100	426	1.0	425	428	20.0	54.2
2025-09-09T13:58	10	93	8.5	80	114	428	0.5	427	429	20.0	53.5
2025-09-09T13:59	10	102	12.5	82	125	430	1.5	428	432	20.0	54.5
2025-09-09T14:00	10	105	27.6	67	155	433	1.8	430	436	20.3	57.0
2025-09-09T14:01	10	74	8.9	65	95	429	0.6	428	431	20.3	56.4
2025-09-09T14:02	10	77	11.5	65	107	428	1.0	427	431	20.1	55.1
2025-09-09T14:03	10	90	16.0	69	124	432	1.0	430	434	20.1	55.5
2025-09-09T14:04	10	89	6.8	80	106	433	0.7	431	434	20.2	56.7
2025-09-09T14:05	10	63	5.0	59	83	428	2.1	425	433	20.1	55.2
2025-09-09T14:06	10	71	13.5	60	106	427	1.0	425	429	20.1	56.3
2025-09-09T14:07	10	60	6.2	54	76	427	0.6	425	427	20.1	55.8
2025-09-09T14:08	10	56	1.0	54	57	425	0.5	423	426	20.1	55.9
2025-09-09T14:09	10	58	5.1	53	70	423	0.6	422	425	20.1	55.6
2025-09-09T14:10	10	63	5.2	58	80	426	0.6	424	427	20.1	55.0
2025-09-09T14:11	10	64	6.3	58	81	427	0.5	426	428	20.2	55.9
2025-09-09T14:12	10	55	1.3	53	58	426	0.8	425	427	20.2	55.0
2025-09-09T14:13	10	60	6.6	53	86	426	0.6	424	427	20.2	55.6
2025-09-09T14:14	10	60	5.6	57	85	427	0.3	426	428	20.3	57.3
2025-09-09T14:15	10	61	5.0	57	82	427	0.3	426	427	20.4	57.8
2025-09-09T14:16	10	69	11.9	58	98	426	1.0	425	428	20.3	55.9
2025-09-09T14:17	10	66	6.3	60	80	426	0.5	425	427	20.2	56.4
2025-09-09T14:18	10	63	5.4	58	78	425	0.4	424	426	20.2	56.3
2025-09-09T14:19	10	77	9.4	62	92	427	1.4	425	430	20.2	57.3
2025-09-09T14:20	10	98	15.1	78	124	432	1.4	428	434	20.3	56.4
2025-09-09T14:21	10	87	23.9	63	144	432	1.4	430	436	20.4	56.6
2025-09-09T14:22	10	148	10.6	111	158	438	1.8	434	441	20.4	55.8
2025-09-09T14:23	10	119	20.2	94	151	438	1.2	436	440	20.3	55.8
2025-09-09T14:24	10	148	1.0	147	150	441	1.1	439	443	20.4	57.3
2025-09-09T14:25	10	146	0.6	144	146	442	1.0	440	444	20.6	57.0
2025-09-09T14:26	10	143	0.8	142	145	442	0.4	441	443	20.5	57.3
2025-09-09T14:27	10	140	1.7	137	142	440	0.5	440	442	20.5	58.0
2025-09-09T14:28	10	124	12.6	97	141	439	2.6	434	442	20.6	58.9
2025-09-09T14:29	10	125	23.2	76	143	437	1.7	432	439	20.3	58.5
2025-09-09T14:30	10	83	13.6	58	111	432	1.3	429	434	20.3	58.6
2025-09-09T14:31	10	73	34.7	42	136	430	2.6	426	434	20.4	59.2
2025-09-09T14:32	10	68	9.1	52	89	426	0.8	424	427	20.2	59.2
2025-09-09T14:33	10	65	16.2	49	105	424	0.7	423	426	20.1	59.4
2025-09-09T14:34	10	118	22.0	72	133	429	4.0	422	435	20.0	59.7
2025-09-09T14:35	10	129	4.5	108	131	435	1.4	433	437	20.2	60.4
2025-09-09T14:36	10	95	19.9	57	125	433	2.0	430	437	20.5	59.5
2025-09-09T14:37	10	96	22.6	58	130	429	1.7	426	432	20.4	58.3
2025-09-09T14:38	10	129	0.6	128	130	435	2.1	432	438	20.5	59.7
2025-09-09T14:39	10	127	0.5	126	128	436	0.4	435	437	20.7	58.8
2025-09-09T14:40	10	125	0.4	125	126	436	0.3	435	437	20.7	58.3
2025-09-09T14:41	10	125	0.1	125	126	437	0.3	436	438	20.7	58.7
2025-09-09T14:42	10	122	7.3	94	126	437	0.8	435	438	20.7	57.7
2025-09-09T14:43	10	120	13.4	80	127	436	1.6	433	438	20.9	58.7
2025-09-09T14:44	10	122	5.3	113	126	435	1.1	434	438	20.5	56.9
2025-09-09T14:45	10	128	1.1	126	130	436	0.7	434	437	20.4	57.7
2025-09-09T14:46	10	83	26.2	39	130	433	2.9	427	437	20.5	57.2
2025-09-09T14:47	10	54	16.9	39	92	427	1.8	424	429	20.6	57.8
2025-09-09T14:48	10	92	22.5	56	130	428	2.2	424	432	20.5	57.3
2025-09-09T14:49	10	72	18.8	50	109	427	2.3	425	432	20.4	57.3
2025-09-09T14:50	10	66	23.7	42	112	424	2.0	421	428	20.3	56.7
2025-09-09T14:51	10	59	12.0	43	95	422	0.7	420	423	20.1	56.9
2025-09-09T14:52	10	101	20.2	59	128	425	1.2	422	427	20.1	57.2
2025-09-09T14:53	10	111	24.8	65	132	428	1.3	426	431	20.2	57.6
2025-09-09T14:54	10	130	0.7	129	131	431	1.4	429	434	20.2	57.1
2025-09-09T14:55	10	124	5.5	110	129	434	1.2	433	436	20.3	56.8
2025-09-09T14:56	10	126	2.8	119	129	436	0.7	434	436	20.4	56.9
2025-09-09T14:57	10	118	18.9	65	129	434	1.6	430	436	20.3	56.3
2025-09-09T14:58	10	63	23.2	37	105	425	2.6	422	432	20.3	56.8
2025-09-09T14:59	10	54	13.9	38	84	424	1.1	422	426	20.3	56.9
2025-09-09T15:00	10	92	28.8	35	126	426	1.9	422	428	20.2	56.7
2025-09-09T15:01	10	52	15.8	33	84	421	1.2	420	424	20.2	56.7
2025-09-09T15:02	10	60	8.2	50	80	421	0.5	419	421	20.2	56.7
2025-09-09T15:03	10	99	16.4	58	121	424	2.5	420	429	20.2	57.2
2025-09-09T15:04	10	105	10.7	81	121	429	0.9	427	431	20.4	58.4
2025-09-09T15:05	10	109	12.9	77	120	429	1.1	427	430	20.2	56.0
2025-09-09T15:06	10	115	5.1	102	119	430	1.5	427	432	20.3	57.7
2025-09-09T15:07	10	117	0.5	116	118	432	0.8	431	433	20.3	56.5
2025-09-09T15:08	10	116	0.3	115	116	433	0.3	432	433	20.4	56.5
2025-09-09T15:09	10	114	1.3	110	115	430	1.0	429	432	20.5	55.9
2025-09-09T15:10	10	92	22.0	55	116	428	1.5	424	430	20.4	55.6
2025-09-09T15:11	10	96	14.4	68	114	426	1.5	424	429	20.3	55.6
2025-09-09T15:12	10	112	1.2	108	114	430	0.5	429	431	20.5	56.0
2025-09-09T15:13	10	108	2.9	100	110	428	0.9	427	431	20.4	55.0
2025-09-09T15:14	10	109	0.2	109	110	428	0.3	427	428	20.4	56.1
2025-09-09T15:15	10	101	10.7	65	109	429	1.0	426	431	20.4	56.3
2025-09-09T15:16	10	88	23.0	52	109	424	1.2	422	427	20.3	55.4
2025-09-09T15:17	10	109	0.3	109	110	427	0.5	426	428	20.4	56.4
2025-09-09T15:18	10	109	0.4	107	109	427	0.3	427	428	20.2	56.6
2025-09-09T15:19	10	106	0.9	103	107	428	0.8	427	430	20.2	55.9
2025-09-09T15:20	10	95	13.9	68	110	430	1.1	428	431	20.4	57.3
2025-09-09T15:21	10	99	7.5	85	109	429	0.6	428	430	20.5	57.7
2025-09-09T15:22	10	97	6.9	84	104	427	0.7	426	428	20.3	55.7
2025-09-09T15:23	10	103	0.6	102	104	428	0.6	426	429	20.2	56.6
2025-09-09T15:24	10	101	0.2	101	102	428	0.3	427	428	20.3	57.7
2025-09-09T15:25	10	101	0.3	100	101	428	0.3	428	429	20.5	58.2
2025-09-09T15:26	10	100	0.3	99	100	429	0.6	428	430	20.3	57.6
2025-09-09T15:27	10	99	0.2	98	99	430	0.2	429	431	20.3	57.9
2025-09-09T15:28	10	99	0.1	98	99	429	1.0	427	430	20.5	58.0
2025-09-09T15:29	10	98	0.2	98	99	427	0.3	427	428	20.5	58.2
2025-09-09T15:30	10	98	0.2	97	98	426	0.6	425	427	20.3	57.6
2025-09-09T15:31	10	98	0.2	97	98	426	0.5	425	427	20.2	58.0
2025-09-09T15:32	10	88	7.7	72	98	426	0.7	425	427	20.2	57.9
2025-09-09T15:33	10	86	6.1	79	98	425	0.8	424	426	20.4	58.6
2025-09-09T15:34	10	99	0.5	97	99	425	0.6	423	426	20.3	56.7
2025-09-09T15:35	10	99	0.2	98	99	426	0.7	425	427	20.5	58.2
2025-09-09T15:36	10	100	0.3	99	100	428	0.6	427	429	20.6	58.6
2025-09-09T15:37	10	99	0.3	99	100	429	0.5	428	431	20.7	58.3
2025-09-09T15:38	10	99	0.1	98	99	429	0.4	428	430	20.6	58.0
2025-09-09T15:39	10	99	0.2	99	100	430	0.3	429	430	20.7	58.2
2025-09-09T15:40	10	100	0.1	99	100	429	0.3	428	430	20.5	56.3
2025-09-09T15:41	10	100	0.1	100	100	430	0.4	430	431	20.6	57.8
2025-09-09T15:42	10	100	0.1	99	100	430	0.8	428	431	20.7	57.4
2025-09-09T15:43	10	100	0.1	99	100	429	0.3	428	429	20.6	56.3
2025-09-09T15:44	10	99	0.5	98	100	426	1.2	424	428	20.5	55.4
2025-09-09T15:45	10	97	0.6	96	98	426	0.7	425	427	20.3	55.6
2025-09-09T15:46	10	95	0.8	93	96	425	1.0	424	427	20.5	56.1
2025-09-09T15:47	10	93	0.7	91	93	425	0.5	424	426	20.4	55.7
2025-09-09T15:48	10	93	0.1	93	94	427	0.5	426	428	20.5	57.3
2025-09-09T15:49	10	66	22.9	36	93	424	3.1	419	428	20.6	57.0
2025-09-09T15:50	10	71	17.1	44	93	420	0.9	419	422	20.4	57.1
2025-09-09T15:51	10	48	8.4	36	63	418	1.4	416	421	20.2	56.7
2025-09-09T15:52	10	49	19.8	25	84	418	1.1	417	420	20.2	57.0
2025-09-09T15:53	10	26	2.2	23	31	415	0.9	414	418	20.3	57.1
2025-09-09T15:54	10	24	1.8	22	27	413	0.5	413	414	20.3	56.8
2025-09-09T15:55	10	41	9.0	23	59	413	0.8	412	414	20.2	56.3
2025-09-09T15:56	10	42	10.5	28	62	414	0.6	413	415	20.2	56.2
2025-09-09T15:57	10	35	5.7	29	46	413	0.4	412	414	20.1	56.0
2025-09-09T15:58	10	36	5.0	26	43	413	0.5	412	414	20.2	56.0
2025-09-09T15:59	10	25	0.3	24	26	412	0.4	411	413	20.2	56.6
2025-09-09T16:00	10	25	0.4	24	26	411	0.2	411	412	20.2	56.3
2025-09-09T16:01	10	25	0.5	24	26	411	0.2	411	412	20.1	56.5
2025-09-09T16:02	10	24	0.1	24	25	411	0.4	410	412	20.1	57.2
2025-09-09T16:03	10	24	0.2	24	24	411	0.3	410	411	20.1	55.9
2025-09-09T16:04	10	24	0.1	24	24	411	0.3	410	411	20.1	56.5
2025-09-09T16:05	10	24	0.1	24	24	411	0.3	410	411	20.0	57.2
2025-09-09T16:06	10	24	0.1	24	24	411	0.4	410	412	20.0	57.9
2025-09-09T16:07	10	25	0.4	24	25	412	0.4	411	412	20.0	58.0
2025-09-09T16:08	10	26	1.2	25	29	412	0.2	412	412	20.1	57.9
2025-09-09T16:09	10	31	8.0	26	48	412	0.5	411	413	20.1	57.8
2025-09-09T16:10	10	27	3.0	25	40	412	0.4	411	413	20.1	59.0
2025-09-09T16:11	10	25	0.2	25	26	411	0.3	411	412	20.1	58.5
2025-09-09T16:12	10	25	0.4	24	26	411	0.3	411	412	20.1	58.2
2025-09-09T16:13	10	24	1.1	24	28	411	0.2	411	412	20.1	58.7
2025-09-09T16:14	10	31	3.9	28	40	412	0.5	411	413	20.0	59.3
2025-09-09T16:15	10	36	7.9	27	49	413	0.7	411	414	20.1	59.5
2025-09-09T16:16	10	72	15.1	29	80	416	2.4	412	419	20.1	59.8
2025-09-09T16:17	10	79	0.4	78	80	419	0.6	418	421	20.1	59.8
2025-09-09T16:18	10	77	0.3	77	78	420	0.4	419	420	20.1	57.8
2025-09-09T16:19	10	76	0.4	76	77	419	0.3	419	420	20.2	59.1
2025-09-09T16:20	10	75	0.4	75	76	419	0.3	418	420	20.3	59.1
2025-09-09T16:21	10	74	0.2	74	75	420	0.4	419	421	20.4	59.4
2025-09-09T16:22	10	70	5.2	61	75	419	0.5	418	420	20.2	57.2
2025-09-09T16:23	10	48	15.5	23	65	417	1.4	414	419	20.3	58.4
2025-09-09T16:24	10	22	0.4	21	23	414	1.0	412	416	20.3	58.6
2025-09-09T16:25	10	22	0.3	22	23	412	0.7	411	413	20.3	57.6
2025-09-09T16:26	10	24	1.6	23	28	411	0.4	410	412	20.2	57.2
2025-09-09T16:27	10	28	2.5	25	32	410	0.4	409	411	20.1	57.1
2025-09-09T16:28	10	26	3.1	22	32	410	0.4	409	411	20.1	57.9
2025-09-09T16:29	10	31	1.9	27	34	410	0.3	410	411	20.1	57.5
2025-09-09T16:30	10	40	7.8	23	52	411	0.6	410	413	20.1	57.6
2025-09-09T16:31	10	21	1.3	20	23	410	0.6	409	411	20.1	56.8
2025-09-09T16:32	10	24	4.5	20	35	410	0.5	409	411	20.1	57.2
2025-09-09T16:33	10	28	2.7	23	34	410	0.2	410	411	20.1	57.8
2025-09-09T16:34	10	24	3.0	20	31	410	0.3	409	410	20.1	57.1
2025-09-09T16:35	10	46	10.3	32	64	411	1.1	409	413	20.1	58.0
2025-09-09T16:36	10	52	10.9	31	65	413	0.4	412	414	20.1	57.3
2025-09-09T16:37	10	31	4.0	24	38	412	0.5	411	413	20.1	58.5
2025-09-09T16:38	10	28	6.5	22	41	412	0.4	411	412	20.1	57.9
2025-09-09T16:39	10	21	0.3	21	22	411	0.4	410	412	20.1	59.8
2025-09-09T16:40	10	21	0.2	20	21	410	0.2	410	411	20.1	58.3
2025-09-09T16:41	10	20	0.2	20	21	410	0.2	410	411	20.1	58.5
2025-09-09T16:42	10	19	0.2	19	20	410	0.2	410	411	20.1	57.1
2025-09-09T16:43	10	19	1.0	18	22	410	0.2	409	410	20.1	56.9
2025-09-09T16:44	10	37	7.7	21	45	411	0.8	409	412	20.1	57.5
2025-09-09T16:45	10	17	1.0	16	21	411	0.4	410	411	20.1	56.6
2025-09-09T16:46	10	17	0.5	16	17	410	0.2	410	411	20.1	57.3
2025-09-09T16:47	10	17	0.4	16	17	410	0.2	410	411	20.1	56.9
2025-09-09T16:48	10	16	0.1	16	16	410	0.2	410	411	20.1	58.0
2025-09-09T16:49	10	16	0.2	15	16	410	0.2	409	410	20.1	57.0
2025-09-09T16:50	10	15	0.1	15	15	410	0.2	409	410	20.1	57.3
2025-09-09T16:51	10	17	1.3	15	19	410	0.3	409	410	20.1	57.5
2025-09-09T16:52	10	16	1.7	14	19	410	0.2	409	410	20.1	57.8
2025-09-09T16:53	10	15	0.1	15	15	410	0.2	410	411	20.1	57.6
2025-09-09T16:54	10	15	0.1	15	15	410	0.3	409	410	20.1	58.1
2025-09-09T16:55	10	15	0.1	15	15	409	0.2	409	410	20.1	57.5
2025-09-09T16:56	10	15	0.2	14	15	409	0.3	408	409	20.0	58.6
2025-09-09T16:57	10	14	0.2	14	14	408	0.3	407	409	20.0	59.3
2025-09-09T16:58	10	26	4.2	15	33	408	0.5	407	409	20.0	58.3
2025-09-09T16:59	10	16	3.6	13	24	408	0.6	407	409	20.0	59.2
2025-09-09T17:00	10	14	0.6	13	15	407	0.3	406	408	19.9	60.0
2025-09-09T17:01	10	13	0.3	12	13	406	0.2	406	407	19.9	60.2
2025-09-09T17:02	10	13	0.1	12	13	406	0.2	406	407	19.9	60.1
2025-09-09T17:03	10	18	5.9	13	33	406	0.4	405	407	19.9	59.5
2025-09-09T17:04	10	34	3.1	29	38	407	0.4	406	408	19.9	60.1
2025-09-09T17:05	10	35	1.9	31	37	408	0.4	407	409	19.9	59.9
2025-09-09T17:06	10	36	0.7	33	37	408	0.2	408	409	19.9	60.1
2025-09-09T17:07	10	36	0.1	36	36	408	0.2	408	409	19.9	59.4
2025-09-09T17:08	10	36	0.2	36	36	408	0.2	408	409	19.9	59.1
2025-09-09T17:09	10	36	0.3	35	37	409	0.2	408	409	20.0	57.8
2025-09-09T17:10	10	37	0.2	36	37	409	0.2	408	409	20.0	58.3
2025-09-09T17:11	10	37	0.1	37	37	409	0.3	408	410	20.0	58.8
2025-09-09T17:12	10	36	1.3	32	37	410	0.2	409	410	20.0	60.1
2025-09-09T17:13	10	25	3.4	21	32	409	0.4	409	410	20.0	60.1
2025-09-09T17:14	10	23	1.4	21	26	409	0.2	409	410	20.0	59.4
2025-09-09T17:15	10	27	0.8	26	29	409	0.2	409	410	20.0	59.4
2025-09-09T17:16	10	25	0.8	24	27	409	0.2	409	410	20.0	59.7
2025-09-09T17:17	10	26	1.8	23	28	409	0.2	409	410	20.0	59.3
2025-09-09T17:18	10	22	0.7	21	24	409	0.2	409	410	20.0	58.8
2025-09-09T17:19	10	23	0.3	22	23	409	0.3	408	410	20.0	59.3
2025-09-09T17:20	10	21	0.6	20	22	409	0.2	408	409	19.9	61.2
2025-09-09T17:21	10	23	1.3	21	26	409	0.2	408	410	19.9	61.5
2025-09-09T17:22	10	28	0.7	26	29	409	0.2	408	409	19.8	61.1
2025-09-09T17:23	10	27	0.6	26	28	408	0.3	407	409	19.8	60.9
2025-09-09T17:24	10	25	0.6	24	26	408	0.3	407	408	19.8	61.5
2025-09-09T17:25	10	23	0.4	22	24	407	0.3	406	407	19.7	62.2
2025-09-09T17:26	10	20	2.0	16	22	407	0.2	406	407	19.7	63.1
2025-09-09T17:27	10	14	1.1	12	16	406	0.3	406	407	19.7	62.7
2025-09-09T17:28	10	12	0.4	11	12	406	0.3	405	407	19.6	62.6
2025-09-09T17:29	10	10	0.5	9	11	405	0.3	405	406	19.6	62.9
2025-09-09T17:30	10	9	0.3	8	9	404	0.2	404	405	19.5	62.5
2025-09-09T17:31	10	8	0.1	8	8	404	0.3	403	405	19.5	63.1
2025-09-09T17:32	10	8	0.1	7	8	404	0.2	403	404	19.4	62.9
2025-09-09T17:33	10	7	0.1	7	8	403	0.2	403	404	19.4	63.2
2025-09-09T17:34	10	7	0.1	7	8	404	0.3	403	404	19.4	62.8
2025-09-09T17:35	10	7	0.1	7	8	404	0.2	403	404	19.4	63.1
2025-09-09T17:36	10	8	0.1	8	8	404	0.2	403	404	19.4	62.9
2025-09-09T17:37	10	9	0.4	8	9	404	0.2	403	405	19.4	62.7
2025-09-09T17:38	10	9	0.2	9	10	404	0.2	403	404	19.4	62.0
2025-09-09T17:39	10	9	0.4	8	9	404	0.2	403	404	19.4	61.6
2025-09-09T17:40	10	7	0.3	7	8	404	0.2	403	404	19.3	61.7
2025-09-09T17:41	10	7	0.2	6	7	403	0.3	403	404	19.3	62.7
2025-09-09T17:42	10	6	0.2	6	6	403	0.2	403	404	19.2	63.7
2025-09-09T17:43	10	5	0.2	5	6	403	0.3	402	404	19.3	62.6
2025-09-09T17:44	10	5	0.2	4	5	403	0.3	402	403	19.3	62.8
2025-09-09T17:45	10	4	0.2	4	5	402	0.3	402	403	19.2	62.8
2025-09-09T17:46	10	4	0.2	4	4	402	0.3	402	403	19.2	63.6
2025-09-09T17:47	10	3	0.2	3	4	402	0.2	401	402	19.2	63.4
2025-09-09T17:48	10	3	0.2	3	4	401	0.3	400	402	19.1	64.3
2025-09-09T17:49	10	3	0.1	2	3	401	0.3	400	401	19.1	64.1
2025-09-09T17:50	10	3	0.2	2	3	401	0.3	400	402	19.0	64.4
2025-09-09T17:51	10	2	0.2	2	3	401	0.2	400	401	19.1	64.2
2025-09-09T17:52	10	2	0.1	2	2	401	0.3	400	402	19.1	64.4
2025-09-09T17:53	10	2	0.1	1	2	401	0.2	400	401	19.0	64.5
2025-09-09T17:54	10	1	0.1	1	2	401	0.3	400	401	19.0	64.4
2025-09-09T17:55	10	1	0.1	1	1	400	0.2	400	401	19.0	64.9
2025-09-09T17:56	10	1	0.1	1	1	400	0.3	400	401	19.0	65.0
2025-09-09T17:57	10	1	0.1	1	1	400	0.2	400	401	18.9	65.4
2025-09-09T17:58	10	1	0.1	1	1	401	0.2	400	401	18.9	65.1
2025-09-09T17:59	10	1	0.1	1	1	400	0.3	399	401	18.9	65.8
2025-09-09T18:00	10	1	0.1	1	1	400	0.2	400	400	18.8	66.5
2025-09-09T18:01	10	1	0.1	1	1	400	0.2	399	400	18.8	66.9
2025-09-09T18:02	10	1	0.1	1	1	400	0.2	399	400	18.8	66.7
2025-09-09T18:03	10	1	0.1	1	1	400	0.2	399	400	18.8	67.0
2025-09-09T18:04	10	1	0.1	0	1	399	0.2	399	400	18.7	67.5
2025-09-09T18:05	10	0	0.1	0	1	399	0.2	399	399	18.7	67.7
2025-09-09T18:06	10	0	0.1	0	1	399	0.2	398	399	18.6	68.1
2025-09-09T18:07	10	0	0.1	0	1	399	0.2	398	400	18.6	67.7
2025-09-09T18:08	10	0	0.1	0	0	399	0.2	399	400	18.7	67.2
2025-09-09T18:09	10	0	0.1	0	0	399	0.2	399	399	18.7	67.6
2025-09-09T18:10	10	0	0.1	0	0	399	0.2	399	400	18.7	67.7
2025-09-09T18:11	10	0	0.1	0	0	399	0.2	398	399	18.6	68.3
2025-09-09T18:12	10	0	0.1	0	0	398	0.2	398	399	18.6	68.8
2025-09-09T18:13	10	0	0.1	0	0	398	0.3	398	399	18.6	69.2
2025-09-09T18:14	10	0	0.1	0	0	397	0.3	397	398	18.4	70.2
2025-09-09T18:15	10	0	0.1	0	0	397	0.2	396	397	18.3	70.6
2025-09-09T18:16	10	0	0.1	0	0	397	0.3	396	397	18.3	71.1
2025-09-09T18:17	10	0	0.1	0	0	396	0.2	396	397	18.3	71.5
2025-09-09T18:18	10	0	0.1	0	0	396	0.3	396	397	18.3	71.5
2025-09-09T18:19	10	0	0.1	0	0	396	0.3	396	397	18.2	71.3
2025-09-09T18:20	10	0	0.1	0	0	397	0.3	396	397	18.3	70.9
2025-09-09T18:21	10	0	0.1	0	0	397	0.3	397	398	18.3	71.0
2025-09-09T18:22	10	0	0.1	0	0	398	0.3	397	398	18.3	71.3
2025-09-09T18:23	10	0	0.0	0	0	398	0.2	398	399	18.3	71.4
2025-09-09T18:24	10	0	0.1	0	0	399	0.3	398	399	18.3	71.6
2025-09-09T18:25	10	0	0.1	0	1	399	0.2	398	399	18.3	71.7
2025-09-09T18:26	10	0	0.1	0	0	399	0.4	398	400	18.3	71.3
2025-09-09T18:27	10	0	0.1	0	0	399	0.2	399	400	18.4	70.8
2025-09-09T18:28	10	0	0.1	0	0	400	0.2	399	400	18.4	70.7
2025-09-09T18:29	10	0	0.1	0	0	400	0.2	399	400	18.4	70.7
2025-09-09T18:30	10	0	0.1	0	0	400	0.2	400	401	18.4	70.0
2025-09-09T18:31	10	0	0.1	0	0	400	0.2	400	401	18.5	70.0
2025-09-09T18:32	10	0	0.1	0	0	400	0.2	399	400	18.4	70.6
2025-09-09T18:33	10	0	0.1	0	0	400	0.3	399	400	18.4	71.2
2025-09-09T18:34	10	0	0.1	0	0	399	0.3	399	400	18.4	70.8
2025-09-09T18:35	10	0	0.1	0	0	399	0.3	398	399	18.4	71.2
2025-09-09T18:36	10	0	0.1	0	0	398	0.3	397	399	18.3	71.5
2025-09-09T18:37	10	0	0.1	0	0	397	0.5	395	397	18.3	72.5
2025-09-09T18:38	10	0	0.1	0	0	395	0.4	394	396	18.2	72.3
2025-09-09T18:39	10	0	0.0	0	0	394	0.3	394	395	18.2	72.2
2025-09-09T18:40	10	0	0.1	0	0	394	0.2	393	394	18.2	71.9
2025-09-09T18:41	10	0	0.1	0	0	393	0.3	392	394	18.3	71.3
2025-09-09T18:42	10	0	0.0	0	0	393	0.2	392	393	18.3	71.4
2025-09-09T18:43	10	0	0.1	0	0	393	0.2	392	393	18.3	71.4
2025-09-09T18:44	10	0	0.0	0	0	392	0.3	391	393	18.3	71.3
2025-09-09T18:45	10	0	0.1	0	0	392	0.4	391	393	18.2	71.8
2025-09-09T18:46	10	0	0.0	0	0	392	0.3	391	393	18.2	71.7
2025-09-09T18:47	10	0	0.0	0	0	392	0.4	392	393	18.2	71.9
2025-09-09T18:48	10	0	0.0	0	0	392	0.3	392	393	18.2	71.9
2025-09-09T18:49	10	0	0.1	0	0	392	0.3	391	392	18.0	74.3
2025-09-09T18:50	10	0	0.0	0	0	391	0.3	391	392	17.9	74.9
2025-09-09T18:51	10	0	0.1	0	0	391	0.3	390	392	18.0	73.7
2025-09-09T18:52	10	0	0.0	0	0	391	0.3	391	392	18.0	73.9
2025-09-09T18:53	10	0	0.1	0	0	392	0.2	391	392	17.9	75.3
2025-09-09T18:54	10	0	0.0	0	0	392	0.3	391	392	17.8	76.5
2025-09-09T18:55	10	0	0.0	0	0	392	0.2	392	392	17.7	77.6
2025-09-09T18:56	10	0	0.1	0	0	393	0.4	392	394	17.5	78.4
2025-09-09T18:57	10	0	0.1	0	0	393	0.3	393	394	17.6	77.5
2025-09-09T18:58	10	0	0.0	0	0	394	0.3	394	395	17.6	76.9
2025-09-09T18:59	10	0	0.0	0	0	395	0.4	394	396	17.6	77.5
2025-09-09T19:00	10	0	0.0	0	0	395	0.2	395	396	17.6	77.8
2025-09-09T19:01	10	0	0.0	0	0	396	0.2	395	396	17.6	77.7
2025-09-09T19:02	10	0	0.0	0	0	396	0.2	395	396	17.6	78.0
2025-09-09T19:03	10	0	0.1	0	0	396	0.2	395	396	17.6	77.9
2025-09-09T19:04	10	0	0.1	0	0	396	0.2	395	396	17.6	78.2
2025-09-09T19:05	10	0	0.1	0	1	396	0.2	396	397	17.6	78.7
2025-09-09T19:06	10	0	0.1	0	1	396	0.2	396	396	17.5	78.7
2025-09-09T19:07	10	0	0.1	0	0	396	0.2	395	396	17.6	78.7
2025-09-09T19:08	10	0	0.1	0	0	396	0.2	396	397	17.6	77.9
2025-09-09T19:09	10	0	0.1	0	0	396	0.2	396	397	17.6	77.1
2025-09-09T19:10	10	0	0.2	0	1	396	0.2	396	397	17.7	76.8
2025-09-09T19:11	10	0	0.1	0	0	396	0.2	396	397	17.7	77.1
2025-09-09T19:12	10	0	0.1	0	0	396	0.3	396	397	17.7	76.9
2025-09-09T19:13	10	0	0.1	0	0	396	0.3	395	397	17.6	77.0
2025-09-09T19:14	10	0	0.1	0	1	396	0.3	395	396	17.7	76.5
2025-09-09T19:15	10	0	0.1	0	1	396	0.2	395	396	17.7	76.5
2025-09-09T19:16	10	0	0.2	0	1	396	0.3	395	396	17.6	76.8
2025-09-09T19:17	10	0	0.2	0	1	396	0.2	395	396	17.6	76.8
2025-09-09T19:18	10	0	0.2	0	1	395	0.3	395	396	17.6	76.6
2025-09-09T19:19	10	0	0.2	0	1	395	0.3	394	396	17.6	77.2
2025-09-09T19:20	10	0	0.1	0	1	394	0.3	394	395	17.6	76.9
2025-09-09T19:21	10	0	0.1	0	0	394	0.3	394	395	17.6	77.0
2025-09-09T19:22	10	0	0.2	0	1	394	0.2	394	395	17.6	77.0
2025-09-09T19:23	10	0	0.2	0	1	394	0.3	394	395	17.6	77.0
2025-09-09T19:24	10	0	0.2	0	1	394	0.3	394	395	17.6	76.6
2025-09-09T19:25	10	0	0.2	0	1	394	0.2	394	395	17.6	76.5
2025-09-09T19:26	10	0	0.2	0	1	394	0.2	394	395	17.6	76.6
2025-09-09T19:27	10	0	0.1	0	1	394	0.3	394	395	17.6	76.5
2025-09-09T19:28	10	0	0.2	0	1	394	0.3	393	395	17.6	76.4
2025-09-09T19:29	10	0	0.1	0	0	394	0.3	393	394	17.6	76.4
2025-09-09T19:30	10	0	0.1	0	1	393	0.3	392	394	17.5	77.1
2025-09-09T19:31	10	0	0.1	0	0	393	0.3	393	394	17.5	77.3
2025-09-09T19:32	10	0	0.1	0	0	393	0.2	393	394	17.5	77.4
2025-09-09T19:33	10	0	0.1	0	0	394	0.3	393	394	17.5	77.6
2025-09-09T19:34	10	0	0.1	0	1	394	0.2	394	394	17.5	77.6
2025-09-09T19:35	10	0	0.1	0	1	394	0.3	394	395	17.5	77.3
2025-09-09T19:36	10	0	0.1	0	0	395	0.3	394	395	17.5	77.2
2025-09-09T19:37	10	0	0.1	0	1	395	0.2	394	395	17.5	76.9
2025-09-09T19:38	10	0	0.1	0	0	395	0.3	394	396	17.5	76.7
2025-09-09T19:39	10	0	0.1	0	0	395	0.2	395	396	17.6	77.0
2025-09-09T19:40	10	0	0.1	0	0	395	0.3	395	396	17.6	76.5
2025-09-09T19:41	10	0	0.1	0	1	396	0.2	395	396	17.7	75.4
2025-09-09T19:42	10	0	0.1	0	0	396	0.2	396	396	17.7	75.2
2025-09-09T19:43	10	0	0.1	0	0	396	0.3	395	396	17.7	75.4
2025-09-09T19:44	10	0	0.1	0	1	396	0.2	396	396	17.6	75.8
2025-09-09T19:45	10	0	0.1	0	0	396	0.2	396	396	17.7	75.6
2025-09-09T19:46	10	0	0.1	0	0	396	0.2	395	396	17.7	75.8
2025-09-09T19:47	10	0	0.1	0	0	396	0.2	396	397	17.6	76.0
2025-09-09T19:48	10	0	0.1	0	1	396	0.2	396	396	17.6	76.1
2025-09-09T19:49	10	0	0.1	0	0	396	0.2	395	396	17.6	76.6
2025-09-09T19:50	10	0	0.1	0	0	396	0.2	395	397	17.6	75.9
2025-09-09T19:51	10	0	0.1	0	0	396	0.2	395	396	17.6	76.6
2025-09-09T19:52	10	0	0.1	0	0	396	0.2	395	396	17.5	76.9
2025-09-09T19:53	10	0	0.1	0	0	395	0.2	395	396	17.5	77.0
2025-09-09T19:54	10	0	0.1	0	0	395	0.3	394	396	17.5	76.6
2025-09-09T19:55	10	0	0.1	0	0	395	0.2	394	395	17.5	76.4
2025-09-09T19:56	10	0	0.1	0	0	395	0.2	394	395	17.5	76.3
2025-09-09T19:57	10	0	0.1	0	0	395	0.2	394	395	17.5	76.0
2025-09-09T19:58	10	0	0.1	0	0	394	0.2	394	395	17.5	76.2
2025-09-09T19:59	10	0	0.1	0	0	394	0.2	394	395	17.5	76.0
2025-09-09T20:00	10	0	0.1	0	0	394	0.3	393	394	17.5	76.0
2025-09-09T20:01	10	0	0.1	0	0	394	0.2	393	394	17.5	76.3
2025-09-09T20:02	10	0	0.1	0	0	393	0.3	393	394	17.5	76.0
2025-09-09T20:03	10	0	0.1	0	0	393	0.2	393	394	17.4	76.4
2025-09-09T20:04	10	0	0.0	0	0	393	0.2	393	394	17.4	76.4
2025-09-09T20:05	10	0	0.0	0	0	393	0.3	392	394	17.4	76.3
2025-09-09T20:06	10	0	0.0	0	0	393	0.3	393	394	17.5	75.9
2025-09-09T20:07	10	0	0.1	0	0	394	0.3	393	394	17.5	75.1
2025-09-09T20:08	10	0	0.1	0	0	393	0.2	393	394	17.5	75.9
2025-09-09T20:09	10	0	0.1	0	0	393	0.3	393	394	17.4	76.1
2025-09-09T20:10	10	0	0.1	0	0	393	0.2	393	393	17.4	76.0
2025-09-09T20:11	10	0	0.1	0	0	393	0.2	393	394	17.5	75.8
2025-09-09T20:12	10	0	0.1	0	0	393	0.2	393	394	17.4	76.2
2025-09-09T20:13	10	0	0.1	0	0	393	0.2	393	394	17.4	76.1
2025-09-09T20:14	10	0	0.1	0	0	393	0.3	393	394	17.4	76.3
2025-09-09T20:15	10	0	0.1	0	0	393	0.2	392	393	17.3	75.2
2025-09-09T20:16	10	0	0.1	0	0	393	0.2	392	393	16.8	76.4
2025-09-09T20:17	10	0	0.1	0	0	392	0.2	392	393	17.4	76.4
2025-09-09T20:18	10	0	0.1	0	0	392	0.2	392	393	17.4	76.4
2025-09-09T20:19	10	0	0.1	0	0	392	0.2	392	393	17.4	76.4
2025-09-09T20:20	10	0	0.1	0	0	392	0.3	392	393	17.4	76.4
2025-09-09T20:21	10	0	0.1	0	0	393	0.2	392	393	17.4	76.4
2025-09-09T20:22	10	0	0.1	0	0	393	0.2	392	393	17.4	76.4
2025-09-09T20:23	10	0	0.1	0	0	393	0.3	392	394	17.3	77.1
2025-09-09T20:24	10	0	0.1	0	0	393	0.2	393	394	17.1	77.8
2025-09-09T20:25	10	0	0.1	0	0	393	0.2	393	394	17.1	78.0
2025-09-09T20:26	10	0	0.1	0	0	393	0.3	393	394	17.1	78.2
2025-09-09T20:27	10	0	0.1	0	0	393	0.3	393	394	17.2	77.9
2025-09-09T20:28	10	0	0.1	0	0	393	0.2	393	394	17.1	78.3
2025-09-09T20:29	10	0	0.1	0	0	394	0.2	393	394	17.1	78.3
2025-09-09T20:30	10	0	0.1	0	0	393	0.2	393	394	17.1	78.6
2025-09-09T20:31	10	0	0.1	0	0	393	0.2	393	394	17.1	78.8
2025-09-09T20:32	10	0	0.1	0	0	393	0.3	393	394	17.1	78.5
2025-09-09T20:33	10	0	0.1	0	0	393	0.2	392	393	17.1	78.9
2025-09-09T20:34	10	0	0.1	0	0	393	0.3	392	393	17.1	78.9
2025-09-09T20:35	10	0	0.1	0	0	392	0.3	392	393	17.1	78.9
2025-09-09T20:36	10	0	0.1	0	0	392	0.3	391	393	17.1	78.9
2025-09-09T20:37	10	0	0.1	0	0	392	0.2	391	392	17.1	78.8
2025-09-09T20:38	10	0	0.1	0	0	391	0.3	391	392	17.0	79.2
2025-09-09T20:39	10	0	0.1	0	0	391	0.3	391	392	17.0	79.2
2025-09-09T20:40	10	0	0.1	0	0	391	0.2	391	392	17.0	79.2
2025-09-09T20:41	10	0	0.1	0	0	391	0.2	390	391	17.0	79.6
2025-09-09T20:42	10	0	0.1	0	0	391	0.3	390	391	17.0	79.7
2025-09-09T20:43	10	0	0.1	0	0	391	0.2	390	391	16.9	79.8
2025-09-09T20:44	10	0	0.1	0	0	391	0.3	390	391	17.0	79.6
2025-09-09T20:45	10	0	0.1	0	0	390	0.3	389	391	17.0	79.5
2025-09-09T20:46	10	0	0.1	0	0	390	0.3	389	391	17.0	79.7
2025-09-09T20:47	10	0	0.1	0	0	390	0.2	389	390	16.9	80.0
2025-09-09T20:48	10	0	0.1	0	0	389	0.2	389	390	16.9	80.2
2025-09-09T20:49	10	0	0.1	0	0	389	0.2	389	390	16.8	80.3
2025-09-09T20:50	10	0	0.1	0	0	389	0.3	389	390	16.8	80.6
2025-09-09T20:51	10	0	0.1	0	0	390	0.2	389	390	16.8	80.4
2025-09-09T20:52	10	0	0.1	0	0	390	0.3	389	391	16.8	80.2
2025-09-09T20:53	10	0	0.1	0	0	390	0.3	390	391	16.8	79.9
2025-09-09T20:54	10	0	0.1	0	0	390	0.2	390	391	16.8	80.2
2025-09-09T20:55	10	0	0.1	0	1	390	0.2	390	391	16.8	80.2
2025-09-09T20:56	10	0	0.1	0	0	390	0.2	390	391	16.8	80.6
2025-09-09T20:57	10	0	0.1	0	0	390	0.2	389	390	16.7	80.7
2025-09-09T20:58	10	0	0.1	0	0	390	0.2	389	390	16.7	80.7
2025-09-09T20:59	10	0	0.1	0	0	390	0.2	389	390	16.7	80.7
2025-09-09T21:00	10	0	0.1	0	0	390	0.2	389	390	16.7	80.8
2025-09-09T21:01	10	0	0.1	0	0	389	0.3	388	389	16.7	80.6
2025-09-09T21:02	10	0	0.1	0	0	389	0.3	388	389	16.7	80.6
2025-09-09T21:03	10	0	0.1	0	0	388	0.3	388	389	16.7	80.8
2025-09-09T21:04	10	0	0.1	0	0	388	0.2	387	388	16.6	80.9
2025-09-09T21:05	10	0	0.0	0	0	387	0.3	387	388	16.6	81.1
2025-09-09T21:06	10	0	0.1	0	0	387	0.3	386	387	16.6	81.3
2025-09-09T21:07	10	0	0.0	0	0	386	0.2	386	387	16.6	81.7
2025-09-09T21:08	10	0	0.1	0	0	386	0.3	385	386	16.6	81.1
2025-09-09T21:09	10	0	0.1	0	0	385	0.2	385	386	16.6	81.4
2025-09-09T21:10	10	0	0.0	0	0	385	0.2	385	385	16.5	81.5
2025-09-09T21:11	10	0	0.0	0	0	385	0.2	385	386	16.6	81.1
2025-09-09T21:12	10	0	0.0	0	0	385	0.2	385	386	16.5	81.7
2025-09-09T21:13	10	0	0.1	0	0	385	0.2	385	385	16.5	81.5
2025-09-09T21:14	10	0	0.1	0	0	385	0.2	384	385	16.5	81.3
2025-09-09T21:15	10	0	0.0	0	0	385	0.3	385	386	16.5	81.3
2025-09-09T21:16	10	0	0.1	0	0	385	0.3	384	385	16.5	81.5
2025-09-09T21:17	10	0	0.1	0	0	385	0.2	385	386	16.5	81.3
2025-09-09T21:18	10	0	0.1	0	0	386	0.3	385	387	16.5	81.2
2025-09-09T21:19	10	0	0.1	0	0	386	0.2	386	387	16.5	81.2
2025-09-09T21:20	10	0	0.1	0	0	386	0.3	386	387	16.5	81.2
2025-09-09T21:21	10	0	0.1	0	0	387	0.3	387	388	16.5	81.0
2025-09-09T21:22	10	0	0.1	0	0	388	0.3	387	388	16.5	80.7
2025-09-09T21:23	10	0	0.1	0	0	388	0.2	388	389	16.6	80.5
2025-09-09T21:24	10	0	0.1	0	0	388	0.2	388	389	16.6	80.1
2025-09-09T21:25	10	0	0.1	0	0	389	0.3	388	389	16.6	79.9
2025-09-09T21:26	10	0	0.1	0	0	388	0.3	388	389	16.6	79.9
2025-09-09T21:27	10	0	0.1	0	0	388	0.2	388	389	16.6	80.2
2025-09-09T21:28	10	0	0.1	0	0	388	0.2	388	389	16.6	79.9
2025-09-09T21:29	10	0	0.1	0	0	388	0.3	388	389	16.6	79.4
2025-09-09T21:30	10	0	0.1	0	0	388	0.2	388	389	16.6	80.0
2025-09-09T21:31	10	0	0.1	0	0	388	0.2	387	388	16.6	79.9
2025-09-09T21:32	10	0	0.0	0	0	388	0.2	387	388	16.6	80.0
2025-09-09T21:33	10	0	0.1	0	0	388	0.3	387	388	16.5	80.4
2025-09-09T21:34	10	0	0.1	0	0	388	0.3	388	389	16.6	80.0
2025-09-09T21:35	10	0	0.1	0	0	388	0.2	388	389	16.5	80.9
2025-09-09T21:36	10	0	0.1	0	0	388	0.2	388	389	16.5	81.0
2025-09-09T21:37	10	0	0.0	0	0	388	0.2	388	389	16.5	81.2
2025-09-09T21:38	10	0	0.1	0	0	388	0.2	388	389	16.5	81.7
2025-09-09T21:39	10	0	0.0	0	0	388	0.2	388	388	16.5	82.1
2025-09-09T21:40	10	0	0.1	0	0	388	0.3	388	389	16.5	82.3
2025-09-09T21:41	10	0	0.1	0	0	388	0.2	388	389	16.5	82.3
2025-09-09T21:42	10	0	0.1	0	0	388	0.2	388	389	16.5	82.1
2025-09-09T21:43	10	0	0.1	0	0	388	0.2	388	389	16.5	82.3
2025-09-09T21:44	10	0	0.1	0	0	388	0.3	388	389	16.5	82.9
2025-09-09T21:45	10	0	0.1	0	0	388	0.2	388	389	16.4	83.4
2025-09-09T21:46	10	0	0.1	0	0	388	0.2	387	388	16.4	83.5
2025-09-09T21:47	10	0	0.1	0	0	388	0.2	387	388	16.4	83.5
2025-09-09T21:48	10	0	0.1	0	0	387	0.2	387	388	16.3	83.8
2025-09-09T21:49	10	0	0.1	0	0	387	0.2	387	388	16.3	83.9
2025-09-09T21:50	10	0	0.1	0	0	388	0.2	387	388	16.3	83.8
2025-09-09T21:51	10	0	0.1	0	0	388	0.2	387	388	16.3	84.0
2025-09-09T21:52	10	0	0.1	0	1	388	0.2	387	388	16.3	83.8
2025-09-09T21:53	10	0	0.1	0	0	388	0.2	387	388	16.3	83.8
2025-09-09T21:54	10	0	0.1	0	1	387	0.2	387	388	16.3	83.9
2025-09-09T21:55	10	0	0.1	0	0	387	0.2	386	387	16.3	84.0
2025-09-09T21:56	10	0	0.1	0	0	386	0.3	386	387	16.3	84.2
2025-09-09T21:57	10	0	0.1	0	1	386	0.3	385	386	16.2	83.9
2025-09-09T21:58	10	0	0.1	0	1	386	0.3	385	386	16.2	84.3
2025-09-09T21:59	10	0	0.2	0	1	385	0.3	384	386	16.2	84.3
2025-09-09T22:00	10	0	0.2	0	1	384	0.3	384	385	16.1	84.6
2025-09-09T22:01	10	0	0.1	0	0	384	0.2	384	384	16.2	84.5
2025-09-09T22:02	10	0	0.1	0	1	384	0.3	383	384	16.1	84.6
2025-09-09T22:03	10	0	0.1	0	1	383	0.3	383	384	16.1	85.0
2025-09-09T22:04	10	0	0.2	0	1	383	0.3	382	384	16.1	85.2
2025-09-09T22:05	10	0	0.2	0	1	382	0.3	382	383	16.0	85.4
2025-09-09T22:06	10	0	0.1	0	1	382	0.4	381	383	16.0	85.1
2025-09-09T22:07	10	0	0.1	0	1	381	0.3	380	382	16.1	84.6
2025-09-09T22:08	10	0	0.1	0	0	381	0.3	380	381	16.1	84.3
2025-09-09T22:09	10	0	0.1	0	1	381	0.2	380	381	16.1	84.3
2025-09-09T22:10	10	0	0.1	0	1	380	0.2	380	381	16.1	84.8
2025-09-09T22:11	10	0	0.1	0	1	380	0.3	379	381	16.0	85.0
2025-09-09T22:12	10	0	0.2	0	1	380	0.3	379	380	16.0	85.2
2025-09-09T22:13	10	0	0.1	0	0	380	0.3	379	380	15.9	85.1
2025-09-09T22:14	10	0	0.2	0	1	380	0.2	379	380	15.9	85.6
2025-09-09T22:15	10	0	0.1	0	0	379	0.3	378	379	15.9	85.4
2025-09-09T22:16	10	0	0.1	0	1	379	0.3	378	380	15.9	85.3
2025-09-09T22:17	10	0	0.1	0	1	379	0.3	378	380	15.9	84.8
2025-09-09T22:18	10	0	0.1	0	0	380	0.7	378	381	16.0	84.2
2025-09-09T22:19	10	0	0.1	0	0	381	0.2	380	381	16.0	84.4
2025-09-09T22:20	10	0	0.1	0	0	381	0.3	380	381	16.0	84.7
2025-09-09T22:21	10	0	0.1	0	0	380	0.2	379	380	16.0	84.6
2025-09-09T22:22	10	0	0.1	0	0	380	0.2	379	380	16.0	84.6
2025-09-09T22:23	10	0	0.1	0	0	380	0.3	379	380	16.0	84.7
2025-09-09T22:24	10	0	0.1	0	0	380	0.3	379	381	15.9	84.7
2025-09-09T22:25	10	0	0.1	0	0	380	0.2	380	381	16.0	84.7
2025-09-09T22:26	10	0	0.0	0	0	380	0.3	379	380	15.9	84.8
2025-09-09T22:27	10	0	0.1	0	0	379	0.2	379	380	15.9	85.0
2025-09-09T22:28	10	0	0.0	0	0	379	0.2	379	380	15.9	85.0
2025-09-09T22:29	10	0	0.1	0	0	379	0.4	379	380	15.9	84.7
2025-09-09T22:30	10	0	0.0	0	0	380	0.3	379	380	15.9	84.8
2025-09-09T22:31	10	0	0.1	0	0	380	0.4	379	381	15.9	84.5
2025-09-09T22:32	10	0	0.0	0	0	380	0.3	380	381	15.9	84.8
2025-09-09T22:33	10	0	0.0	0	0	381	0.3	380	382	15.8	84.7
2025-09-09T22:34	10	0	0.1	0	0	382	0.3	381	382	15.9	84.3
2025-09-09T22:35	10	0	0.1	0	0	382	0.2	381	382	15.8	84.7
2025-09-09T22:36	10	0	0.0	0	0	381	0.2	381	382	15.8	84.8
2025-09-09T22:37	10	0	0.1	0	0	381	0.2	381	382	15.9	84.5
2025-09-09T22:38	10	0	0.1	0	0	381	0.2	381	382	15.9	84.6
2025-09-09T22:39	10	0	0.0	0	0	381	0.2	380	381	15.8	84.9
2025-09-09T22:40	10	0	0.1	0	0	381	0.3	380	381	15.8	85.0
2025-09-09T22:41	10	0	0.1	0	0	380	0.2	380	381	15.8	85.1
2025-09-09T22:42	10	0	0.1	0	0	380	0.2	379	380	15.7	85.4
2025-09-09T22:43	10	0	0.0	0	0	380	0.2	379	380	15.7	85.4
2025-09-09T22:44	10	0	0.0	0	0	380	0.2	379	381	15.7	85.4
2025-09-09T22:45	10	0	0.0	0	0	380	0.2	379	380	15.7	85.5
2025-09-09T22:46	10	0	0.0	0	0	380	0.2	379	380	15.7	85.8
2025-09-09T22:47	10	0	0.0	0	0	379	0.3	378	380	15.7	85.9
2025-09-09T22:48	10	0	0.0	0	0	379	0.2	378	379	15.7	85.7
2025-09-09T22:49	10	0	0.0	0	0	379	0.2	379	379	15.7	85.9
2025-09-09T22:50	10	0	0.0	0	0	379	0.3	378	379	15.7	86.2
2025-09-09T22:51	10	0	0.0	0	0	378	0.2	378	379	15.6	86.3
2025-09-09T22:52	10	0	0.0	0	0	378	0.2	377	378	15.6	86.4
2025-09-09T22:53	10	0	0.0	0	0	378	0.2	377	378	15.6	86.0
2025-09-09T22:54	10	0	0.0	0	0	377	0.3	377	378	15.6	86.3
2025-09-09T22:55	10	0	0.0	0	0	377	0.2	377	378	15.6	86.5
2025-09-09T22:56	10	0	0.0	0	0	377	0.2	376	377	15.6	86.6
2025-09-09T22:57	10	0	0.1	0	0	377	0.2	377	377	15.6	86.6
2025-09-09T22:58	10	0	0.0	0	0	377	0.2	376	377	15.6	86.7
2025-09-09T22:59	10	0	0.0	0	0	377	0.2	376	377	15.6	86.7
2025-09-09T23:00	10	0	0.0	0	0	377	0.2	376	377	15.5	86.9
2025-09-09T23:01	10	0	0.0	0	0	377	0.2	376	378	15.5	87.0
2025-09-09T23:02	10	0	0.0	0	0	377	0.3	377	378	15.4	87.3
2025-09-09T23:03	10	0	0.0	0	0	377	0.3	377	378	15.4	87.5
2025-09-09T23:04	10	0	0.1	0	0	378	0.4	377	379	15.3	87.8
2025-09-09T23:05	10	0	0.0	0	0	378	0.3	378	379	15.2	88.0
2025-09-09T23:06	10	0	0.0	0	0	378	0.3	378	379	15.2	88.1
2025-09-09T23:07	10	0	0.1	0	0	378	0.2	378	378	15.2	88.1
2025-09-09T23:08	10	0	0.1	0	0	377	0.3	377	378	15.1	88.6
2025-09-09T23:09	10	0	0.0	0	0	377	0.2	376	377	15.0	89.2
2025-09-09T23:10	10	0	0.0	0	0	377	0.2	376	377	15.0	89.4
2025-09-09T23:11	10	0	0.0	0	0	376	0.2	376	377	15.0	89.3
2025-09-09T23:12	10	0	0.0	0	0	376	0.3	376	377	15.0	89.3
2025-09-09T23:13	10	0	0.1	0	0	376	0.3	376	377	15.0	89.4
2025-09-09T23:14	10	0	0.0	0	0	376	0.3	375	377	15.0	89.5
2025-09-09T23:15	10	0	0.0	0	0	376	0.2	376	376	15.0	89.6
2025-09-09T23:16	10	0	0.1	0	0	376	0.2	375	376	15.1	89.6
2025-09-09T23:17	10	0	0.1	0	0	376	0.2	375	376	15.1	89.5
2025-09-09T23:18	10	0	0.1	0	0	376	0.3	375	377	15.1	89.4
2025-09-09T23:19	10	0	0.0	0	0	376	0.3	375	377	14.9	89.7
2025-09-09T23:20	10	0	0.0	0	0	377	0.3	376	377	14.9	90.1
2025-09-09T23:21	10	0	0.1	0	0	377	0.2	376	378	14.8	90.5
2025-09-09T23:22	10	0	0.1	0	0	377	0.2	376	377	14.9	90.4
2025-09-09T23:23	10	0	0.1	0	1	377	0.2	376	377	14.9	90.4
2025-09-09T23:24	10	0	0.1	0	1	377	0.2	376	377	14.9	90.2
2025-09-09T23:25	10	0	0.1	0	1	376	0.3	376	377	14.9	90.3
2025-09-09T23:26	10	0	0.1	0	0	376	0.2	375	377	14.7	90.8
2025-09-09T23:27	10	0	0.1	0	0	376	0.3	376	377	14.6	91.3
2025-09-09T23:28	10	0	0.0	0	0	377	0.2	376	377	14.6	91.4
2025-09-09T23:29	10	0	0.0	0	0	377	0.3	376	378	14.6	91.4
2025-09-09T23:30	10	0	0.1	0	0	377	0.2	376	377	14.6	91.4
2025-09-09T23:31	10	0	0.0	0	0	376	0.2	376	377	14.6	91.4
2025-09-09T23:32	10	0	0.1	0	0	376	0.2	375	376	14.6	91.3
2025-09-09T23:33	10	0	0.1	0	0	376	0.2	375	376	14.6	91.3
2025-09-09T23:34	10	0	0.1	0	0	375	0.2	375	376	14.7	91.1
2025-09-09T23:35	10	0	0.1	0	0	376	0.2	375	376	14.6	91.1
2025-09-09T23:36	10	0	0.1	0	0	376	0.2	376	377	14.6	91.0
2025-09-09T23:37	10	0	0.1	0	0	376	0.2	376	377	14.6	91.0
2025-09-09T23:38	10	0	0.1	0	0	376	0.2	376	377	14.6	90.9
2025-09-09T23:39	10	0	0.1	0	0	376	0.2	376	376	14.7	90.8
2025-09-09T23:40	10	0	0.1	0	1	376	0.3	376	377	14.6	90.8
2025-09-09T23:41	10	0	0.1	0	0	377	0.3	376	377	14.8	90.5
2025-09-09T23:42	10	0	0.1	0	0	377	0.3	376	378	14.9	90.1
2025-09-09T23:43	10	0	0.1	0	1	377	0.4	376	378	14.6	91.1
2025-09-09T23:44	10	0	0.1	0	0	378	0.2	377	378	14.6	91.7
2025-09-09T23:45	10	0	0.1	0	0	378	0.5	377	379	14.5	92.7
2025-09-09T23:46	10	0	0.1	0	0	379	0.2	379	380	14.6	92.1
2025-09-09T23:47	10	0	0.1	0	0	379	0.3	378	380	14.4	92.9
2025-09-09T23:48	10	0	0.1	0	0	380	0.2	379	380	14.4	92.8
2025-09-09T23:49	10	0	0.1	0	0	380	0.3	379	380	14.4	92.8
2025-09-09T23:50	10	0	0.1	0	0	381	0.4	380	381	14.4	92.4
2025-09-09T23:51	10	0	0.1	0	0	381	0.2	381	382	14.6	91.6
2025-09-09T23:52	10	0	0.1	0	0	381	0.2	380	381	14.6	91.4
2025-09-09T23:53	10	0	0.1	0	0	381	0.3	380	381	14.4	92.0
2025-09-09T23:54	10	0	0.1	0	0	381	0.3	380	382	14.3	92.5
2025-09-09T23:55	10	0	0.1	0	0	380	0.3	380	381	14.3	92.8
2025-09-09T23:56	10	0	0.1	0	0	380	0.2	379	381	14.3	93.0
2025-09-09T23:57	10	0	0.1	0	0	380	0.2	380	380	14.3	93.2
2025-09-09T23:58	10	0	0.1	0	0	380	0.3	379	381	14.4	92.5
2025-09-09T23:59	10	0	0.1	0	0	380	0.2	379	380	14.4	92.2
2025-09-10T00:00	10	0	0.1	0	0	379	0.3	379	380	14.4	91.9
2025-09-10T00:01	10	0	0.1	0	0	379	0.3	379	380	14.5	91.6
2025-09-10T00:02	10	0	0.1	0	0	379	0.2	379	380	14.5	92.1
2025-09-10T00:03	10	0	0.1	0	0	380	0.3	379	380	14.6	90.9
2025-09-10T00:04	10	0	0.1	0	0	380	0.2	379	380	14.8	89.4
2025-09-10T00:05	10	0	0.1	0	0	379	0.3	379	380	15.0	88.4
2025-09-10T00:06	10	0	0.1	0	0	379	0.2	378	379	15.0	88.7
2025-09-10T00:07	10	0	0.1	0	0	379	0.2	379	380	14.8	90.2
2025-09-10T00:08	10	0	0.1	0	0	379	0.2	379	380	14.7	90.7
2025-09-10T00:09	10	0	0.1	0	0	379	0.2	379	379	14.6	91.2
2025-09-10T00:10	10	0	0.1	0	1	379	0.2	379	380	14.6	91.4
2025-09-10T00:11	10	0	0.1	0	0	379	0.3	379	380	14.5	91.6
2025-09-10T00:12	10	0	0.1	0	0	379	0.2	379	380	14.4	91.9
2025-09-10T00:13	10	0	0.1	0	0	380	0.3	379	380	14.4	92.0
2025-09-10T00:14	10	0	0.1	0	0	380	0.3	379	381	14.4	91.9
2025-09-10T00:15	10	0	0.1	0	0	380	0.2	379	380	14.3	92.2
2025-09-10T00:16	10	0	0.1	0	0	380	0.2	380	380	14.2	92.5
2025-09-10T00:17	10	0	0.1	0	0	380	0.3	380	381	14.2	92.7
2025-09-10T00:18	10	0	0.1	0	0	380	0.2	380	381	14.1	93.0
2025-09-10T00:19	10	0	0.1	0	0	380	0.2	380	381	14.1	93.2
2025-09-10T00:20	10	0	0.1	0	0	381	0.2	380	381	14.1	93.4
2025-09-10T00:21	10	0	0.1	0	0	381	0.2	380	381	14.1	93.5
2025-09-10T00:22	10	0	0.1	0	0	381	0.2	381	381	14.1	93.5
2025-09-10T00:23	10	0	0.1	0	0	381	0.2	380	381	14.1	93.6
2025-09-10T00:24	10	0	0.1	0	0	381	0.3	380	381	14.0	93.9
2025-09-10T00:25	10	0	0.1	0	0	381	0.2	381	381	13.9	94.4
2025-09-10T00:26	10	0	0.1	0	0	381	0.3	380	382	14.0	94.3
2025-09-10T00:27	10	0	0.1	0	0	381	0.2	381	382	14.1	93.9
2025-09-10T00:28	10	0	0.1	0	0	381	0.2	381	382	14.1	93.8
2025-09-10T00:29	10	0	0.1	0	0	381	0.2	381	382	14.1	93.6
2025-09-10T00:30	10	0	0.1	0	0	382	0.3	381	382	14.2	93.3
2025-09-10T00:31	10	0	0.1	0	0	382	0.2	381	382	14.2	93.3
2025-09-10T00:32	10	0	0.1	0	0	382	0.3	381	382	14.1	93.4
2025-09-10T00:33	10	0	0.1	0	0	382	0.2	381	382	14.1	93.8
2025-09-10T00:34	10	0	0.1	0	0	382	0.3	381	382	14.1	93.9
2025-09-10T00:35	10	0	0.1	0	0	382	0.3	381	383	14.2	94.0
2025-09-10T00:36	10	0	0.0	0	0	382	0.2	382	383	14.2	93.8
2025-09-10T00:37	10	0	0.1	0	0	382	0.3	382	383	14.2	93.9
2025-09-10T00:38	10	0	0.1	0	0	383	0.1	382	383	14.2	93.8
2025-09-10T00:39	10	0	0.1	0	0	382	0.2	382	382	14.2	93.8
2025-09-10T00:40	10	0	0.1	0	0	382	0.2	382	382	14.2	93.6
2025-09-10T00:41	10	0	0.1	0	0	382	0.2	382	383	14.1	93.8
2025-09-10T00:42	10	0	0.0	0	0	382	0.2	382	382	14.1	93.4
2025-09-10T00:43	10	0	0.1	0	0	382	0.2	382	382	14.1	93.1
2025-09-10T00:44	10	0	0.1	0	0	382	0.2	381	382	14.2	92.7
2025-09-10T00:45	10	0	0.0	0	0	382	0.3	381	382	14.2	93.2
2025-09-10T00:46	10	0	0.1	0	0	381	0.2	381	382	14.1	94.0
2025-09-10T00:47	10	0	0.1	0	0	381	0.2	381	381	14.1	93.8
2025-09-10T00:48	10	0	0.1	0	0	381	0.2	380	382	14.1	93.2
2025-09-10T00:49	10	0	0.1	0	0	381	0.3	380	381	14.2	92.6
2025-09-10T00:50	10	0	0.1	0	0	380	0.2	380	381	14.3	91.9
2025-09-10T00:51	10	0	0.0	0	0	380	0.2	379	380	14.3	92.2
2025-09-10T00:52	10	0	0.1	0	0	379	0.4	378	380	14.4	91.7
2025-09-10T00:53	10	0	0.1	0	0	379	0.2	378	379	14.3	92.0
2025-09-10T00:54	10	0	0.1	0	0	378	0.2	378	379	14.3	92.3
2025-09-10T00:55	10	0	0.1	0	0	377	0.3	376	378	14.2	93.3
2025-09-10T00:56	10	0	0.1	0	0	377	0.4	376	377	14.1	93.8
2025-09-10T00:57	10	0	0.1	0	0	376	0.3	375	376	14.1	93.8
2025-09-10T00:58	10	0	0.1	0	0	375	0.3	375	376	14.1	94.2
2025-09-10T00:59	10	0	0.1	0	0	375	0.2	374	375	14.1	94.2
2025-09-10T01:00	10	0	0.0	0	0	374	0.3	374	375	14.1	94.3
2025-09-10T01:01	10	0	0.1	0	0	373	0.3	373	374	14.1	94.2
2025-09-10T01:02	10	0	0.0	0	0	374	0.2	373	374	14.1	94.0
2025-09-10T01:03	10	0	0.0	0	0	374	0.2	373	374	14.2	93.5
2025-09-10T01:04	10	0	0.0	0	0	374	0.3	373	375	14.2	93.3
2025-09-10T01:05	10	0	0.0	0	0	375	0.2	374	375	14.3	93.1
2025-09-10T01:06	10	0	0.1	0	0	375	0.2	374	375	14.2	93.2
2025-09-10T01:07	10	0	0.1	0	0	375	0.3	374	375	14.2	93.2
2025-09-10T01:08	10	0	0.1	0	0	375	0.2	374	375	14.2	93.2
2025-09-10T01:09	10	0	0.0	0	0	374	0.2	374	375	14.2	93.3
2025-09-10T01:10	10	0	0.1	0	0	374	0.2	374	375	14.2	93.3
2025-09-10T01:11	10	0	0.0	0	0	374	0.2	374	375	14.2	93.5
2025-09-10T01:12	10	0	0.1	0	0	374	0.2	374	375	14.1	93.8
2025-09-10T01:13	10	0	0.0	0	0	374	0.2	374	375	14.1	94.0
2025-09-10T01:14	10	0	0.1	0	0	375	0.2	374	375	14.1	94.1
2025-09-10T01:15	10	0	0.1	0	0	374	0.3	373	375	14.1	93.9
2025-09-10T01:16	10	0	0.1	0	1	374	0.2	373	374	14.1	94.0
2025-09-10T01:17	10	0	0.0	0	0	373	0.2	373	374	14.1	93.9
2025-09-10T01:18	10	0	0.0	0	0	373	0.2	373	374	14.1	94.0
2025-09-10T01:19	10	0	0.1	0	0	373	0.3	372	373	14.0	94.1
2025-09-10T01:20	10	0	0.0	0	0	373	0.2	372	373	14.0	94.2
2025-09-10T01:21	10	0	0.1	0	1	373	0.2	372	373	14.0	94.3
2025-09-10T01:22	10	0	0.0	0	0	373	0.2	372	373	14.0	94.4
2025-09-10T01:23	10	0	0.0	0	0	373	0.2	372	373	14.0	94.4
2025-09-10T01:24	10	0	0.1	0	0	372	0.2	372	373	14.0	94.3
2025-09-10T01:25	10	0	0.1	0	0	373	0.3	372	373	14.0	94.3
2025-09-10T01:26	10	0	0.1	0	0	372	0.2	372	373	14.0	94.2
2025-09-10T01:27	10	0	0.1	0	0	372	0.2	372	373	14.0	94.2
2025-09-10T01:28	10	0	0.1	0	0	372	0.2	372	373	14.0	94.2
2025-09-10T01:29	10	0	0.1	0	0	373	0.3	372	373	14.0	94.4
2025-09-10T01:30	10	0	0.1	0	0	373	0.3	372	373	13.9	94.7
2025-09-10T01:31	10	0	0.1	0	0	372	0.2	371	372	13.9	94.9
2025-09-10T01:32	10	0	0.1	0	0	371	0.4	370	372	13.9	95.2
2025-09-10T01:33	10	0	0.2	0	1	371	0.3	370	372	13.8	95.4
2025-09-10T01:34	10	0	0.1	0	1	370	0.3	370	371	13.8	95.4
2025-09-10T01:35	10	0	0.2	0	1	370	0.2	370	371	13.8	95.4
2025-09-10T01:36	10	0	0.1	0	0	370	0.3	369	371	13.8	95.5
2025-09-10T01:37	10	0	0.1	0	0	370	0.2	370	371	13.8	95.7
2025-09-10T01:38	10	0	0.1	0	0	371	0.3	370	371	13.9	95.1
2025-09-10T01:39	10	0	0.1	0	0	371	0.2	371	371	13.9	94.9
2025-09-10T01:40	10	0	0.2	0	1	371	0.2	371	372	14.0	94.7
2025-09-10T01:41	10	0	0.1	0	0	371	0.3	370	372	14.0	94.4
2025-09-10T01:42	10	0	0.2	0	1	371	0.3	371	372	14.0	94.0
2025-09-10T01:43	10	0	0.1	0	0	371	0.3	371	372	14.1	93.7
2025-09-10T01:44	10	0	0.1	0	0	371	0.3	371	372	14.1	93.4
2025-09-10T01:45	10	0	0.2	0	1	371	0.4	371	372	14.1	93.3
2025-09-10T01:46	10	0	0.1	0	0	371	0.4	370	371	14.1	93.3
2025-09-10T01:47	10	0	0.2	0	1	370	0.3	369	371	13.9	93.9
2025-09-10T01:48	10	0	0.1	0	0	370	0.3	370	371	13.8	94.3
2025-09-10T01:49	10	0	0.1	0	1	370	0.3	369	370	13.7	94.9
2025-09-10T01:50	10	0	0.1	0	1	369	0.2	369	370	13.6	95.0
2025-09-10T01:51	10	0	0.1	0	0	369	0.2	369	370	13.8	94.9
2025-09-10T01:52	10	0	0.2	0	1	369	0.3	368	370	13.8	94.8
2025-09-10T01:53	10	0	0.1	0	0	369	0.2	368	369	13.8	94.6
2025-09-10T01:54	10	0	0.1	0	0	369	0.2	368	369	13.8	94.4
2025-09-10T01:55	10	0	0.2	0	1	369	0.3	368	369	13.8	94.5
2025-09-10T01:56	10	0	0.1	0	0	369	0.3	368	369	13.8	94.4
2025-09-10T01:57	10	0	0.2	0	1	368	0.2	368	369	13.8	94.4
2025-09-10T01:58	10	0	0.2	0	1	368	0.3	368	369	13.7	94.5
2025-09-10T01:59	10	0	0.1	0	1	368	0.2	368	369	13.7	94.7
2025-09-10T02:00	10	0	0.1	0	0	368	0.3	367	369	13.7	94.6
2025-09-10T02:01	10	0	0.2	0	1	368	0.2	368	369	13.8	94.7
2025-09-10T02:02	10	0	0.1	0	0	368	0.2	367	368	13.8	94.9
2025-09-10T02:03	10	0	0.2	0	1	368	0.3	368	369	13.8	95.0
2025-09-10T02:04	10	0	0.2	0	1	368	0.2	367	368	13.7	95.1
2025-09-10T02:05	10	0	0.1	0	0	368	0.2	368	369	13.8	95.1
2025-09-10T02:06	10	0	0.1	0	0	368	0.2	368	368	13.8	95.0
2025-09-10T02:07	10	0	0.1	0	0	368	0.3	367	369	13.8	94.9
2025-09-10T02:08	10	0	0.1	0	0	368	0.2	367	368	13.8	95.0
2025-09-10T02:09	10	0	0.1	0	0	368	0.2	368	369	13.8	94.8
2025-09-10T02:10	10	0	0.0	0	0	368	0.3	368	369	13.9	94.6
2025-09-10T02:11	10	0	0.1	0	0	368	0.2	368	368	13.9	94.4
2025-09-10T02:12	10	0	0.0	0	0	368	0.2	368	368	13.9	94.3
2025-09-10T02:13	10	0	0.1	0	0	368	0.2	367	368	13.9	94.4
2025-09-10T02:14	10	0	0.1	0	0	368	0.2	367	368	13.9	94.6
2025-09-10T02:15	10	0	0.1	0	0	368	0.2	367	368	13.8	94.8
2025-09-10T02:16	10	0	0.0	0	0	368	0.3	368	369	13.7	95.2
2025-09-10T02:17	10	0	0.1	0	0	368	0.2	368	369	13.6	95.4
2025-09-10T02:18	10	0	0.0	0	0	369	0.2	368	369	13.5	95.7
2025-09-10T02:19	10	0	0.0	0	0	369	0.2	368	369	13.5	95.9
2025-09-10T02:20	10	0	0.0	0	0	369	0.2	369	370	13.3	96.1
2025-09-10T02:21	10	0	0.0	0	0	369	0.2	369	370	13.3	96.3
2025-09-10T02:22	10	0	0.1	0	0	370	0.2	369	370	13.3	96.6
2025-09-10T02:23	10	0	0.0	0	0	369	0.2	369	369	13.4	96.6
2025-09-10T02:24	10	0	0.0	0	0	369	0.3	368	369	13.4	96.7
2025-09-10T02:25	10	0	0.0	0	0	368	0.2	368	368	13.4	96.8
2025-09-10T02:26	10	0	0.1	0	0	368	0.3	367	368	13.4	96.7
2025-09-10T02:27	10	0	0.1	0	0	367	0.2	367	368	13.3	96.8
2025-09-10T02:28	10	0	0.1	0	0	367	0.3	367	368	13.3	96.8
2025-09-10T02:29	10	0	0.0	0	0	368	0.2	367	368	13.4	96.8
2025-09-10T02:30	10	0	0.1	0	0	368	0.3	367	369	13.4	96.8
2025-09-10T02:31	10	0	0.0	0	0	368	0.2	367	369	13.5	96.6
2025-09-10T02:32	10	0	0.0	0	0	368	0.2	368	368	13.6	96.3
2025-09-10T02:33	10	0	0.0	0	0	368	0.2	367	368	13.6	96.2
2025-09-10T02:34	10	0	0.0	0	0	368	0.2	367	368	13.4	96.1
2025-09-10T02:35	10	0	0.0	0	0	368	0.2	367	368	13.4	96.4
2025-09-10T02:36	10	0	0.0	0	0	368	0.3	367	368	13.4	96.7
2025-09-10T02:37	10	0	0.1	0	0	368	0.2	367	368	13.4	96.8
2025-09-10T02:38	10	0	0.1	0	0	367	0.2	367	368	13.3	96.9
2025-09-10T02:39	10	0	0.0	0	0	367	0.2	366	367	13.3	97.0
2025-09-10T02:40	10	0	0.1	0	0	367	0.2	366	367	13.3	97.2
2025-09-10T02:41	10	0	0.0	0	0	367	0.2	366	367	13.3	97.1
2025-09-10T02:42	10	0	0.0	0	0	367	0.2	366	367	13.3	97.0
2025-09-10T02:43	10	0	0.0	0	0	367	0.2	366	367	13.3	96.7
2025-09-10T02:44	10	0	0.0	0	0	367	0.2	366	367	13.3	96.6
2025-09-10T02:45	10	0	0.1	0	0	366	0.3	366	367	13.4	96.8
2025-09-10T02:46	10	0	0.0	0	0	367	0.2	366	367	13.3	97.0
2025-09-10T02:47	10	0	0.1	0	0	367	0.2	366	367	13.3	96.9
2025-09-10T02:48	10	0	0.0	0	0	367	0.2	366	367	13.3	96.8
2025-09-10T02:49	10	0	0.0	0	0	367	0.2	366	367	13.3	96.3
2025-09-10T02:50	10	0	0.0	0	0	367	0.3	366	368	13.2	96.3
2025-09-10T02:51	10	0	0.1	0	0	367	0.3	366	368	13.2	96.6
2025-09-10T02:52	10	0	0.1	0	0	367	0.3	367	368	13.1	96.7
2025-09-10T02:53	10	0	0.1	0	0	368	0.2	367	368	13.2	96.7
2025-09-10T02:54	10	0	0.1	0	0	368	0.4	367	369	13.3	96.3
2025-09-10T02:55	10	0	0.1	0	0	368	0.2	367	369	13.4	96.0
2025-09-10T02:56	10	0	0.1	0	0	368	0.3	367	369	13.3	95.8
2025-09-10T02:57	10	0	0.0	0	0	368	0.2	368	369	13.3	95.5
2025-09-10T02:58	10	0	0.0	0	0	368	0.3	367	369	13.4	94.9
2025-09-10T02:59	10	0	0.0	0	0	368	0.2	368	368	13.3	95.0
2025-09-10T03:00	10	0	0.0	0	0	368	0.2	367	368	13.2	95.4
2025-09-10T03:01	10	0	0.1	0	0	367	0.3	367	368	13.1	95.8
2025-09-10T03:02	10	0	0.1	0	0	367	0.2	366	368	13.0	96.0
2025-09-10T03:03	10	0	0.1	0	0	366	0.3	366	367	13.0	96.3
2025-09-10T03:04	10	0	0.0	0	0	366	0.2	366	366	13.0	96.5
2025-09-10T03:05	10	0	0.1	0	0	366	0.2	365	366	12.9	96.8
2025-09-10T03:06	10	0	0.1	0	0	366	0.2	365	366	12.9	96.9
2025-09-10T03:07	10	0	0.1	0	0	366	0.3	365	366	13.0	96.7
2025-09-10T03:08	10	0	0.1	0	0	365	0.2	365	366	13.0	96.8
2025-09-10T03:09	10	0	0.1	0	0	365	0.2	365	366	13.1	96.8
2025-09-10T03:10	10	0	0.0	0	0	365	0.2	365	366	13.3	96.7
2025-09-10T03:11	10	0	0.1	0	0	365	0.3	365	366	13.4	96.3
2025-09-10T03:12	10	0	0.0	0	0	365	0.3	364	366	13.3	96.1
2025-09-10T03:13	10	0	0.1	0	0	365	0.2	364	365	13.3	96.0
2025-09-10T03:14	10	0	0.0	0	0	365	0.2	364	365	13.4	95.9
2025-09-10T03:15	10	0	0.1	0	0	365	0.3	364	366	13.4	95.5
2025-09-10T03:16	10	0	0.1	0	0	365	0.3	364	365	13.3	95.7
2025-09-10T03:17	10	0	0.0	0	0	365	0.3	364	366	13.1	95.8
2025-09-10T03:18	10	0	0.1	0	0	365	0.2	365	366	13.0	95.9
2025-09-10T03:19	10	0	0.1	0	0	366	0.5	365	367	13.0	96.0
2025-09-10T03:20	10	0	0.1	0	0	367	0.4	366	367	13.1	96.0
2025-09-10T03:21	10	0	0.1	0	0	367	0.4	366	367	13.1	96.2
2025-09-10T03:22	10	0	0.1	0	0	366	0.3	366	367	13.0	96.4
2025-09-10T03:23	10	0	0.1	0	0	366	0.2	365	366	12.9	96.6
2025-09-10T03:24	10	0	0.1	0	0	366	0.2	365	366	12.8	96.8
2025-09-10T03:25	10	0	0.0	0	0	366	0.2	366	367	12.7	97.1
2025-09-10T03:26	10	0	0.1	0	0	366	0.2	365	366	12.7	97.6
2025-09-10T03:27	10	0	0.1	0	0	366	0.3	365	367	12.7	97.8
2025-09-10T03:28	10	0	0.0	0	0	366	0.3	365	366	12.6	97.8
2025-09-10T03:29	10	0	0.1	0	0	366	0.2	365	366	12.7	97.7
2025-09-10T03:30	10	0	0.0	0	0	366	0.3	365	366	12.7	97.7
2025-09-10T03:31	10	0	0.1	0	0	365	0.3	365	366	12.7	97.8
2025-09-10T03:32	10	0	0.1	0	0	365	0.3	364	366	12.6	97.6
2025-09-10T03:33	10	0	0.1	0	0	365	0.2	364	365	12.6	97.6
2025-09-10T03:34	10	0	0.1	0	0	364	0.3	364	365	12.6	97.5
2025-09-10T03:35	10	0	0.1	0	0	364	0.2	363	365	12.6	97.6
2025-09-10T03:36	10	0	0.1	0	0	364	0.2	363	364	12.5	97.6
2025-09-10T03:37	10	0	0.1	0	0	364	0.3	363	364	12.5	97.5
2025-09-10T03:38	10	0	0.1	0	0	364	0.2	363	364	12.5	97.5
2025-09-10T03:39	10	0	0.1	0	0	364	0.2	363	364	12.4	97.6
2025-09-10T03:40	10	0	0.1	0	0	364	0.2	363	364	12.4	97.7
2025-09-10T03:41	10	0	0.1	0	0	363	0.2	363	364	12.4	97.7
2025-09-10T03:42	10	0	0.1	0	0	363	0.2	363	364	12.4	97.6
2025-09-10T03:43	10	0	0.1	0	0	363	0.2	363	364	12.4	97.6
2025-09-10T03:44	10	0	0.1	0	0	363	0.2	363	364	12.5	97.5
2025-09-10T03:45	10	0	0.1	0	0	363	0.3	362	364	12.4	97.5
2025-09-10T03:46	10	0	0.1	0	0	363	0.2	363	364	12.5	97.5
2025-09-10T03:47	10	0	0.1	0	0	363	0.3	362	364	12.4	97.8
2025-09-10T03:48	10	0	0.1	0	0	363	0.2	362	363	12.4	97.8
2025-09-10T03:49	10	0	0.1	0	0	363	0.2	363	363	12.4	97.8
2025-09-10T03:50	10	0	0.1	0	0	363	0.2	363	363	12.5	97.8
2025-09-10T03:51	10	0	0.1	0	0	363	0.2	362	364	12.4	97.9
2025-09-10T03:52	10	0	0.1	0	0	363	0.3	362	363	12.4	98.1
2025-09-10T03:53	10	0	0.1	0	0	363	0.3	363	364	12.3	98.1
2025-09-10T03:54	10	0	0.1	0	0	363	0.2	363	364	12.2	97.8
2025-09-10T03:55	10	0	0.1	0	0	364	0.3	363	364	12.2	97.9
2025-09-10T03:56	10	0	0.1	0	0	364	0.2	363	364	12.2	97.9
2025-09-10T03:57	10	0	0.1	0	0	364	0.2	363	364	12.4	97.8
2025-09-10T03:58	10	0	0.1	0	0	364	0.2	363	364	12.4	98.1
2025-09-10T03:59	10	0	0.1	0	0	364	0.3	363	365	12.4	98.1
2025-09-10T04:00	10	0	0.1	0	0	365	0.3	364	365	12.5	98.0
2025-09-10T04:01	10	0	0.1	0	0	365	0.3	365	366	12.6	98.0
2025-09-10T04:02	10	0	0.1	0	0	366	0.3	366	367	12.8	98.1
2025-09-10T04:03	10	0	0.1	0	0	366	0.2	366	367	12.8	98.1
2025-09-10T04:04	10	0	0.1	0	0	366	0.2	366	367	12.8	98.0
2025-09-10T04:05	10	0	0.1	0	0	367	0.3	366	367	12.8	97.9
2025-09-10T04:06	10	0	0.1	0	0	367	0.2	367	368	12.8	97.9
2025-09-10T04:07	10	0	0.1	0	0	367	0.3	367	368	12.8	97.9
2025-09-10T04:08	10	0	0.1	0	0	367	0.3	367	368	12.9	97.8
2025-09-10T04:09	10	0	0.1	0	0	367	0.2	367	368	12.8	97.9
2025-09-10T04:10	10	0	0.1	0	0	367	0.3	367	368	12.8	97.7
2025-09-10T04:11	10	0	0.1	0	0	368	0.2	367	368	12.9	97.7
2025-09-10T04:12	10	0	0.1	0	0	368	0.2	367	368	12.9	98.0
2025-09-10T04:13	10	0	0.1	0	0	367	0.3	367	368	12.9	97.9
2025-09-10T04:14	10	0	0.0	0	0	367	0.2	367	367	12.9	98.1
2025-09-10T04:15	10	0	0.0	0	0	367	0.2	367	368	12.9	97.7
2025-09-10T04:16	10	0	0.1	0	0	367	0.2	367	368	12.9	97.4
2025-09-10T04:17	10	0	0.1	0	0	367	0.2	367	368	12.9	97.2
2025-09-10T04:18	10	0	0.1	0	0	367	0.2	367	368	12.9	97.2
2025-09-10T04:19	10	0	0.0	0	0	367	0.3	367	368	12.9	97.1
2025-09-10T04:20	10	0	0.1	0	0	367	0.3	366	367	12.8	96.9
2025-09-10T04:21	10	0	0.0	0	0	367	0.2	366	367	12.6	96.9
2025-09-10T04:22	10	0	0.1	0	0	366	0.2	366	367	12.5	96.9
2025-09-10T04:23	10	0	0.1	0	0	366	0.2	366	367	12.4	97.1
2025-09-10T04:24	10	0	0.1	0	0	366	0.2	365	366	12.4	97.2
2025-09-10T04:25	10	0	0.1	0	0	366	0.2	365	366	12.4	97.4
2025-09-10T04:26	10	0	0.1	0	0	366	0.3	365	366	12.3	97.4
2025-09-10T04:27	10	0	0.1	0	0	366	0.2	366	366	12.3	97.5
2025-09-10T04:28	10	0	0.1	0	0	366	0.4	366	367	12.2	97.6
2025-09-10T04:29	10	0	0.1	0	0	367	0.2	366	367	12.4	97.7
2025-09-10T04:30	10	0	0.1	0	0	367	0.3	366	367	12.4	97.9
2025-09-10T04:31	10	0	0.1	0	0	367	0.2	366	367	12.5	98.0
2025-09-10T04:32	10	0	0.1	0	0	367	0.2	366	367	12.5	98.1
2025-09-10T04:33	10	0	0.1	0	0	367	0.2	366	367	12.4	98.0
2025-09-10T04:34	10	0	0.5	0	4	367	0.2	367	368	12.4	98.2
2025-09-10T04:35	10	0	0.1	0	0	367	0.3	367	368	12.4	98.2
2025-09-10T04:36	10	0	0.1	0	0	367	0.2	367	368	12.5	98.2
2025-09-10T04:37	10	0	0.1	0	0	367	0.3	366	367	12.5	98.2
2025-09-10T04:38	10	0	0.0	0	0	367	0.2	366	367	12.4	98.0
2025-09-10T04:39	10	0	0.0	0	0	367	0.3	367	368	12.4	97.9
2025-09-10T04:40	10	0	0.1	0	0	368	0.3	367	368	12.3	98.1
2025-09-10T04:41	10	0	0.1	0	0	368	0.2	368	368	12.3	98.1
2025-09-10T04:42	10	0	0.0	0	0	368	0.2	368	368	12.3	97.9
2025-09-10T04:43	10	0	0.0	0	0	368	0.2	368	369	12.3	98.1
2025-09-10T04:44	10	0	0.1	0	0	368	0.3	368	369	12.2	98.2
2025-09-10T04:45	10	0	0.0	0	0	368	0.3	368	369	12.3	98.3
2025-09-10T04:46	10	0	0.0	0	0	368	0.2	368	369	12.3	98.4
2025-09-10T04:47	10	0	0.1	0	0	368	0.2	368	369	12.3	98.6
2025-09-10T04:48	10	0	0.0	0	0	369	0.2	368	369	12.3	98.7
2025-09-10T04:49	10	0	0.1	0	0	369	0.2	368	369	12.4	98.8
2025-09-10T04:50	10	0	0.0	0	0	369	0.2	368	369	12.3	99.1
2025-09-10T04:51	10	0	0.1	0	0	369	0.2	368	369	12.3	99.1
2025-09-10T04:52	10	0	0.0	0	0	369	0.2	368	369	12.3	99.3
2025-09-10T04:53	10	0	0.0	0	0	369	0.3	368	369	12.3	99.3
2025-09-10T04:54	10	0	0.0	0	0	369	0.2	368	369	12.2	99.2
2025-09-10T04:55	10	0	0.1	0	0	368	0.2	368	369	12.2	99.0
2025-09-10T04:56	10	0	0.1	0	0	368	0.2	368	369	12.3	98.8
2025-09-10T04:57	10	0	0.0	0	0	368	0.2	368	369	12.3	98.8
2025-09-10T04:58	10	0	0.1	0	0	368	0.2	368	369	12.4	98.8
2025-09-10T04:59	10	0	0.1	0	0	368	0.2	367	369	12.3	98.8
2025-09-10T05:00	10	0	0.0	0	0	368	0.2	368	369	12.3	98.7
2025-09-10T05:01	10	0	0.1	0	0	368	0.2	368	369	12.4	98.6
2025-09-10T05:02	10	0	0.1	0	0	368	0.2	368	368	12.4	98.6
2025-09-10T05:03	10	0	0.1	0	0	368	0.2	368	369	12.5	98.6
2025-09-10T05:04	10	0	0.1	0	1	368	0.3	367	368	12.4	98.6
2025-09-10T05:05	10	0	0.1	0	0	368	0.2	367	368	12.4	98.5
2025-09-10T05:06	10	0	0.1	0	0	367	0.2	367	368	12.4	98.4
2025-09-10T05:07	10	0	0.1	0	1	367	0.2	367	368	12.4	98.3
2025-09-10T05:08	10	0	0.1	0	1	367	0.2	367	367	12.5	98.3
2025-09-10T05:09	10	0	0.1	0	1	367	0.2	367	368	12.4	98.3
2025-09-10T05:10	10	1	0.1	0	1	367	0.3	366	368	12.4	98.2
2025-09-10T05:11	10	1	0.1	0	1	367	0.3	367	368	12.4	98.0
2025-09-10T05:12	10	1	0.1	0	1	368	0.3	367	369	12.5	98.1
2025-09-10T05:13	10	1	0.1	0	1	368	0.2	367	369	12.5	98.0
2025-09-10T05:14	10	1	0.1	1	1	368	0.3	368	369	12.6	97.8
2025-09-10T05:15	10	1	0.1	1	1	369	0.1	368	369	12.6	97.8
2025-09-10T05:16	10	1	0.1	1	1	369	0.3	368	370	12.6	97.7
2025-09-10T05:17	10	1	0.1	1	1	369	0.4	369	370	12.6	97.4
2025-09-10T05:18	10	1	0.1	1	1	370	0.3	369	370	12.7	97.2
2025-09-10T05:19	10	1	0.1	1	1	370	0.2	370	371	12.7	97.0
2025-09-10T05:20	10	2	0.5	1	4	370	0.2	370	371	12.7	97.1
2025-09-10T05:21	10	2	0.1	1	2	370	0.2	370	371	12.8	96.9
2025-09-10T05:22	10	2	0.1	2	2	370	0.2	369	370	12.7	96.9
2025-09-10T05:23	10	2	0.1	2	2	370	0.3	369	370	12.7	96.9
2025-09-10T05:24	10	2	0.1	2	2	370	0.2	369	370	12.7	97.1
2025-09-10T05:25	10	2	0.1	2	3	370	0.2	369	370	12.7	97.0
2025-09-10T05:26	10	3	0.1	3	3	370	0.2	369	370	12.7	96.8
2025-09-10T05:27	10	3	0.1	3	3	369	0.2	369	370	12.7	96.9
2025-09-10T05:28	10	3	0.1	3	4	370	0.2	369	370	12.6	96.8
2025-09-10T05:29	10	4	0.1	3	4	370	0.3	369	370	12.7	96.8
2025-09-10T05:30	10	4	0.1	4	4	370	0.2	370	371	12.8	96.7
2025-09-10T05:31	10	4	0.1	4	4	370	0.2	370	371	12.8	96.6
2025-09-10T05:32	10	5	0.1	4	5	371	0.2	371	371	12.9	96.4
2025-09-10T05:33	10	5	0.2	5	5	371	0.2	371	372	12.9	96.3
2025-09-10T05:34	10	5	0.1	5	6	372	0.2	371	372	12.9	96.2
2025-09-10T05:35	10	6	0.1	5	6	372	0.3	372	373	12.9	96.1
2025-09-10T05:36	10	6	0.1	6	6	372	0.3	372	373	12.9	96.1
2025-09-10T05:37	10	6	0.1	6	7	373	0.2	372	373	12.9	96.1
2025-09-10T05:38	10	7	0.1	7	7	373	0.2	372	373	12.9	96.2
2025-09-10T05:39	10	7	0.1	7	7	373	0.2	372	373	12.9	96.2
2025-09-10T05:40	10	8	0.1	7	8	373	0.2	372	373	12.9	96.1
2025-09-10T05:41	10	8	0.1	8	8	373	0.2	373	373	12.9	96.3
2025-09-10T05:42	10	8	0.2	8	9	373	0.3	373	374	12.8	96.3
2025-09-10T05:43	10	9	0.2	8	9	373	0.2	372	374	12.8	96.4
2025-09-10T05:44	10	9	0.1	9	9	373	0.2	373	374	12.8	96.4
2025-09-10T05:45	10	9	0.1	9	9	373	0.2	373	374	12.8	96.8
2025-09-10T05:46	10	9	0.1	9	9	373	0.3	372	374	12.8	96.9
2025-09-10T05:47	10	9	0.1	9	10	373	0.2	373	373	12.7	97.1
2025-09-10T05:48	10	10	0.1	10	10	373	0.3	373	374	12.7	97.0
2025-09-10T05:49	10	10	0.2	10	11	373	0.2	373	374	12.7	96.8
2025-09-10T05:50	10	11	0.1	11	11	373	0.2	373	374	12.7	97.0
2025-09-10T05:51	10	11	0.2	11	12	374	0.2	373	374	12.6	97.1
2025-09-10T05:52	10	12	0.3	12	13	374	0.2	374	375	12.7	97.2
2025-09-10T05:53	10	13	0.1	13	13	374	0.2	374	374	12.7	97.2
2025-09-10T05:54	10	13	0.1	13	13	374	0.2	374	375	12.7	97.2
2025-09-10T05:55	10	13	0.1	13	13	375	0.2	374	375	12.7	97.3
2025-09-10T05:56	10	13	0.1	13	13	374	0.2	374	375	12.7	97.4
2025-09-10T05:57	10	13	0.1	12	13	375	0.3	374	376	12.7	97.2
2025-09-10T05:58	10	13	0.3	12	13	375	0.2	374	375	12.8	97.0
2025-09-10T05:59	10	14	0.3	13	14	375	0.3	374	376	12.8	96.9
2025-09-10T06:00	10	16	0.5	15	16	376	0.2	375	376	12.8	96.9
2025-09-10T06:01	10	16	0.6	15	17	376	0.2	375	376	12.8	96.9
2025-09-10T06:02	10	19	1.1	17	20	376	0.3	376	377	12.9	96.7
2025-09-10T06:03	10	20	0.6	19	20	377	0.2	376	377	12.9	96.7
2025-09-10T06:04	10	19	0.5	18	20	377	0.3	376	377	12.9	96.6
2025-09-10T06:05	10	22	1.0	20	24	377	0.3	376	378	12.9	96.7
2025-09-10T06:06	10	27	1.7	24	29	377	0.3	377	378	12.9	96.6
2025-09-10T06:07	10	29	0.2	29	30	378	0.3	377	379	12.9	96.6
2025-09-10T06:08	10	28	0.5	27	29	379	0.2	378	379	12.9	96.7
2025-09-10T06:09	10	30	0.5	29	31	379	0.3	378	379	12.9	96.7
2025-09-10T06:10	10	31	0.5	30	32	379	0.3	379	380	12.9	96.6
2025-09-10T06:11	10	29	0.7	27	30	379	0.3	379	380	12.9	96.7
2025-09-10T06:12	10	32	2.4	27	34	379	0.3	379	380	12.9	96.7
2025-09-10T06:13	10	34	0.4	33	34	380	0.3	379	380	12.9	96.9
2025-09-10T06:14	10	36	0.5	34	37	380	0.3	379	381	13.0	97.0
2025-09-10T06:15	10	38	0.9	37	40	381	0.2	381	382	13.1	97.2
2025-09-10T06:16	10	38	1.8	35	41	381	0.2	381	382	13.1	97.0
2025-09-10T06:17	10	37	1.9	34	39	382	0.2	381	382	13.2	96.7
2025-09-10T06:18	10	41	1.0	39	43	382	0.3	381	383	13.2	96.5
2025-09-10T06:19	10	39	1.1	37	41	382	0.2	382	383	13.2	96.3
2025-09-10T06:20	10	35	3.5	28	39	382	0.2	382	383	13.3	95.9
2025-09-10T06:21	10	27	0.9	26	30	382	0.3	381	383	13.4	96.0
2025-09-10T06:22	10	40	3.9	30	44	382	0.6	381	383	13.4	96.3
2025-09-10T06:23	10	40	2.1	37	43	383	0.3	383	384	13.5	96.0
2025-09-10T06:24	10	39	2.6	34	42	384	0.3	383	384	13.6	95.7
2025-09-10T06:25	10	33	6.9	22	44	384	0.4	383	384	13.7	95.7
2025-09-10T06:26	10	31	4.1	22	36	383	0.2	383	384	13.7	95.7
2025-09-10T06:27	10	29	1.4	26	32	383	0.3	383	384	13.7	95.6
2025-09-10T06:28	10	23	2.1	20	26	383	0.3	382	383	13.8	95.4
2025-09-10T06:29	10	27	4.3	20	31	383	0.3	382	383	13.9	95.3
2025-09-10T06:30	10	23	3.1	19	30	383	0.4	382	384	13.9	95.6
2025-09-10T06:31	10	21	0.8	20	22	383	0.3	382	383	13.9	95.3
2025-09-10T06:32	10	23	1.0	21	25	383	0.2	382	383	13.9	95.0
2025-09-10T06:33	10	22	2.1	19	25	383	0.2	382	383	13.9	94.8
2025-09-10T06:34	10	24	1.4	21	26	383	0.3	382	383	13.9	94.6
2025-09-10T06:35	10	20	0.8	19	22	383	0.2	382	383	14.0	94.5
2025-09-10T06:36	10	18	0.3	18	19	383	0.3	382	383	14.0	94.3
2025-09-10T06:37	10	19	0.2	18	19	382	0.3	382	383	14.0	94.0
2025-09-10T06:38	10	19	0.3	18	19	382	0.3	381	383	14.0	94.1
2025-09-10T06:39	10	19	0.2	18	19	382	0.2	381	383	13.9	94.4
2025-09-10T06:40	10	19	0.2	19	20	382	0.2	382	383	13.9	94.5
2025-09-10T06:41	10	19	0.2	19	20	382	0.2	382	383	13.9	94.5
2025-09-10T06:42	10	20	0.1	19	20	382	0.2	382	383	13.9	94.4
2025-09-10T06:43	10	20	0.4	20	22	383	0.2	382	383	13.9	94.3
2025-09-10T06:44	10	23	1.6	21	26	383	0.3	383	384	13.9	94.4
2025-09-10T06:45	10	23	0.9	21	24	383	0.2	383	384	14.0	94.7
2025-09-10T06:46	10	23	0.7	22	25	384	0.2	383	384	13.9	94.9
2025-09-10T06:47	10	33	6.7	25	44	384	0.5	383	385	13.8	94.4
2025-09-10T06:48	10	38	3.9	31	45	385	0.2	384	385	13.8	94.3
2025-09-10T06:49	10	34	1.9	31	37	385	0.3	384	386	13.8	94.3
2025-09-10T06:50	10	41	4.6	34	48	386	0.6	385	387	13.8	94.6
2025-09-10T06:51	10	36	1.9	33	41	386	0.2	386	387	13.8	94.5
2025-09-10T06:52	10	38	2.5	32	40	386	0.2	386	387	13.8	94.5
2025-09-10T06:53	10	35	1.6	33	39	386	0.2	386	387	13.7	94.6
2025-09-10T06:54	10	36	1.8	31	38	387	0.3	386	387	13.8	94.5
2025-09-10T06:55	10	32	1.3	31	34	387	0.3	386	387	13.8	94.7
2025-09-10T06:56	10	33	1.2	32	38	387	0.3	387	388	13.9	95.0
2025-09-10T06:57	10	41	4.2	36	50	388	0.3	387	388	13.8	94.5
2025-09-10T06:58	10	54	9.5	37	63	389	1.1	387	390	13.8	94.1
2025-09-10T06:59	10	54	7.2	43	64	391	0.3	390	391	13.9	93.9
2025-09-10T07:00	10	42	2.5	39	46	390	0.2	390	391	13.9	93.8
2025-09-10T07:01	10	43	6.4	37	57	390	0.2	390	391	14.0	94.3
2025-09-10T07:02	10	45	4.6	41	57	391	0.4	390	391	13.9	94.2
2025-09-10T07:03	10	46	3.2	42	54	390	0.2	390	391	13.9	94.5
2025-09-10T07:04	10	48	4.4	42	55	391	0.4	390	392	14.0	94.6
2025-09-10T07:05	10	43	1.2	41	46	391	0.3	390	392	14.0	94.3
2025-09-10T07:06	10	42	2.1	39	45	391	0.2	390	391	14.0	93.8
2025-09-10T07:07	10	44	3.1	40	49	391	0.3	390	392	14.0	93.9
2025-09-10T07:08	10	59	3.6	50	62	392	0.6	391	393	14.1	94.0
2025-09-10T07:09	10	49	8.5	39	70	392	0.4	392	393	14.1	93.5
2025-09-10T07:10	10	55	9.9	41	72	393	0.4	392	394	14.2	93.9
2025-09-10T07:11	10	40	1.7	38	44	392	0.6	391	393	14.2	93.5
2025-09-10T07:12	10	47	5.0	41	55	392	0.3	391	393	14.2	93.6
2025-09-10T07:13	10	44	4.5	39	53	392	0.4	391	393	14.2	93.8
2025-09-10T07:14	10	55	8.1	45	69	393	0.6	392	394	14.2	93.6
2025-09-10T07:15	10	48	8.2	37	59	393	0.6	391	393	14.1	93.4
2025-09-10T07:16	10	37	0.3	37	38	392	0.4	391	393	14.1	92.9
2025-09-10T07:17	10	44	7.8	37	58	391	0.5	391	393	14.1	93.1
2025-09-10T07:18	10	42	1.5	39	45	392	0.4	391	393	14.1	93.1
2025-09-10T07:19	10	40	1.0	39	43	391	0.2	391	392	14.2	93.1
2025-09-10T07:20	10	40	0.6	40	43	392	0.2	391	392	14.2	93.0
2025-09-10T07:21	10	41	1.5	40	44	392	0.3	391	393	14.2	92.9
2025-09-10T07:22	10	47	3.2	42	53	393	0.5	392	394	14.2	92.0
2025-09-10T07:23	10	44	1.4	42	48	393	0.3	392	394	14.3	92.0
2025-09-10T07:24	10	46	4.5	42	55	393	0.3	393	394	14.3	92.2
2025-09-10T07:25	10	45	2.3	42	50	393	0.2	393	394	14.4	92.6
2025-09-10T07:26	10	46	3.2	43	51	393	0.3	393	394	14.3	92.3
2025-09-10T07:27	10	47	1.9	45	51	393	0.2	393	393	14.4	92.4
2025-09-10T07:28	10	55	4.7	49	63	394	0.6	393	395	14.5	92.1
2025-09-10T07:29	10	53	5.7	46	61	395	0.4	394	395	14.5	92.1
2025-09-10T07:30	10	60	5.9	51	71	396	0.3	395	396	14.6	92.2
2025-09-10T07:31	10	54	5.2	49	67	396	0.2	396	397	14.6	91.8
2025-09-10T07:32	10	47	1.9	45	50	396	0.4	395	397	14.6	91.3
2025-09-10T07:33	10	45	0.2	45	45	396	0.3	395	396	14.6	91.2
2025-09-10T07:34	10	46	0.1	45	46	396	0.3	396	397	14.7	91.1
2025-09-10T07:35	10	47	0.5	46	47	396	0.2	396	397	14.6	89.9
2025-09-10T07:36	10	48	0.5	47	48	396	0.2	396	397	14.7	90.1
2025-09-10T07:37	10	48	0.4	47	49	397	0.2	396	397	14.8	90.1
2025-09-10T07:38	10	48	0.6	48	50	397	0.2	397	397	14.9	89.0
2025-09-10T07:39	10	50	0.6	49	51	398	0.2	397	398	14.9	88.4
2025-09-10T07:40	10	50	0.4	49	50	398	0.1	397	398	15.0	88.1
2025-09-10T07:41	10	50	0.3	50	51	398	0.3	397	399	15.1	88.2
2025-09-10T07:42	10	51	0.4	50	52	398	0.2	398	399	15.0	88.4
2025-09-10T07:43	10	54	1.6	52	57	398	0.2	398	399	15.0	88.0
2025-09-10T07:44	10	57	2.0	54	60	399	0.3	398	400	15.0	88.0
2025-09-10T07:45	10	57	2.5	54	62	399	0.3	399	400	15.1	87.6
2025-09-10T07:46	10	59	2.7	55	63	400	0.2	399	400	15.1	86.7
2025-09-10T07:47	10	56	2.6	51	59	400	0.2	399	400	15.2	87.1
2025-09-10T07:48	10	48	1.3	46	51	399	0.4	398	400	15.1	87.7
2025-09-10T07:49	10	45	0.6	44	46	399	0.5	398	400	15.2	88.4
2025-09-10T07:50	10	44	0.4	43	44	398	0.2	398	398	15.2	88.4
2025-09-10T07:51	10	41	0.7	40	43	398	0.3	397	398	15.2	88.5
2025-09-10T07:52	10	40	0.4	39	40	397	0.6	396	398	15.2	88.6
2025-09-10T07:53	10	39	0.6	38	40	397	0.4	396	397	15.1	88.2
2025-09-10T07:54	10	38	0.1	37	38	396	0.2	396	397	15.1	88.2
2025-09-10T07:55	10	37	0.2	37	38	396	0.2	395	396	15.1	88.8
2025-09-10T07:56	10	37	0.2	37	38	396	0.2	395	396	15.1	89.2
2025-09-10T07:57	10	37	0.1	36	37	396	0.3	395	396	15.1	88.9
2025-09-10T07:58	10	36	0.2	36	37	396	0.3	395	396	15.1	89.1
2025-09-10T07:59	10	36	0.2	35	36	395	0.3	395	396	15.0	88.8
2025-09-10T08:00	10	35	0.1	35	36	395	0.2	394	395	15.0	88.6
2025-09-10T08:01	10	35	0.2	35	36	395	0.2	394	395	15.1	88.9
2025-09-10T08:02	10	35	0.1	34	35	395	0.3	394	396	15.1	88.6
2025-09-10T08:03	10	35	0.2	34	35	394	0.2	394	395	15.0	87.7
2025-09-10T08:04	10	36	0.3	35	36	394	0.3	394	395	15.1	87.9
2025-09-10T08:05	10	37	0.3	36	37	395	0.3	394	396	15.1	88.1
2025-09-10T08:06	10	38	0.7	37	40	395	0.2	395	396	15.1	88.3
2025-09-10T08:07	10	42	0.7	40	43	395	0.2	394	396	15.1	88.2
2025-09-10T08:08	10	44	1.1	42	46	396	0.6	395	397	15.2	88.6
2025-09-10T08:09	10	48	0.6	46	49	397	0.4	396	398	15.1	87.9
2025-09-10T08:10	10	47	0.6	46	48	398	0.3	397	399	15.2	88.1
2025-09-10T08:11	10	47	0.5	46	47	399	0.3	398	399	15.3	88.4
2025-09-10T08:12	10	46	0.1	46	47	399	0.2	399	399	15.3	88.3
2025-09-10T08:13	10	46	0.2	46	46	399	0.3	399	400	15.3	87.5
2025-09-10T08:14	10	45	0.5	44	46	400	0.3	399	400	15.3	87.5
2025-09-10T08:15	10	44	0.5	43	44	400	0.2	399	400	15.3	87.5
2025-09-10T08:16	10	42	0.5	41	43	399	0.3	399	400	15.3	87.5
2025-09-10T08:17	10	41	0.2	41	41	398	0.6	397	399	15.3	86.4
2025-09-10T08:18	10	41	0.3	41	42	397	0.3	397	398	15.3	87.5
2025-09-10T08:19	10	43	1.2	41	46	398	0.6	397	399	15.3	87.5
2025-09-10T08:20	10	45	1.3	44	47	399	0.3	399	400	15.3	87.5
2025-09-10T08:21	10	43	0.2	43	44	399	0.4	398	399	15.3	87.5
2025-09-10T08:22	10	43	0.6	42	44	398	0.3	397	398	15.2	87.4
2025-09-10T08:23	10	40	0.9	39	42	397	0.2	397	398	15.1	87.6
2025-09-10T08:24	10	39	0.3	39	40	398	0.2	397	398	15.1	87.8
2025-09-10T08:25	10	41	0.6	40	42	398	0.3	397	399	15.2	87.8
2025-09-10T08:26	10	43	0.4	42	44	399	0.3	398	399	15.4	88.4
2025-09-10T08:27	10	44	0.2	43	44	398	0.2	397	398	15.2	87.6
2025-09-10T08:28	10	45	0.1	44	45	399	0.4	398	399	15.2	87.6
2025-09-10T08:29	10	45	0.2	45	46	398	0.3	398	399	15.2	86.7
2025-09-10T08:30	10	52	6.0	46	61	398	0.7	398	400	15.2	86.8
2025-09-10T08:31	10	51	3.5	47	57	400	0.3	400	400	15.2	87.0
2025-09-10T08:32	10	47	0.3	46	47	400	0.3	400	401	15.3	86.8
2025-09-10T08:33	10	47	0.6	46	48	401	0.4	400	401	15.5	87.3
2025-09-10T08:34	10	45	0.3	45	46	401	0.2	400	401	15.5	87.4
2025-09-10T08:35	10	44	0.8	42	45	401	0.2	400	401	15.5	87.4
2025-09-10T08:36	10	41	0.8	39	42	399	0.9	398	401	15.4	87.0
2025-09-10T08:37	10	38	0.9	37	39	398	0.6	397	399	15.2	87.1
2025-09-10T08:38	10	35	0.9	33	37	397	0.3	396	397	15.2	87.1
2025-09-10T08:39	10	33	0.5	32	33	396	0.2	396	397	15.2	87.3
2025-09-10T08:40	10	31	0.2	31	32	396	0.2	395	397	15.3	87.8
2025-09-10T08:41	10	31	0.1	31	31	396	0.2	396	397	15.3	87.9
2025-09-10T08:42	10	31	0.1	31	31	397	0.3	396	397	15.4	88.7
2025-09-10T08:43	10	32	0.3	31	32	396	0.2	396	397	15.3	87.9
2025-09-10T08:44	10	33	0.4	32	33	396	0.4	395	397	15.3	87.8
2025-09-10T08:45	10	34	0.7	33	36	397	0.4	397	398	15.4	88.3
2025-09-10T08:46	10	37	1.0	36	39	398	0.4	398	399	15.4	87.7
2025-09-10T08:47	10	40	0.5	39	41	399	0.3	398	399	15.4	86.9
2025-09-10T08:48	10	41	0.1	41	41	398	0.3	398	399	15.4	85.1
2025-09-10T08:49	10	41	0.1	41	41	398	0.2	398	399	15.4	85.2
2025-09-10T08:50	10	41	0.3	41	42	398	0.3	398	399	15.4	85.1
2025-09-10T08:51	10	43	0.8	42	45	399	0.2	399	400	15.4	85.3
2025-09-10T08:52	10	46	1.0	45	48	400	0.5	399	401	15.4	85.4
2025-09-10T08:53	10	49	0.9	48	51	401	0.7	400	403	15.6	86.2
2025-09-10T08:54	10	53	1.3	51	57	402	0.3	401	402	15.7	85.9
2025-09-10T08:55	10	59	2.1	57	63	403	0.3	402	403	15.6	85.1
2025-09-10T08:56	10	59	2.4	57	65	403	0.3	402	404	15.5	85.7
2025-09-10T08:57	10	58	1.7	56	64	403	0.4	403	404	15.6	86.5
2025-09-10T08:58	10	62	1.5	60	66	404	0.4	403	405	15.6	85.8
2025-09-10T08:59	10	65	4.4	62	77	406	0.2	405	406	15.6	85.1
2025-09-10T09:00	10	64	1.4	63	67	406	0.4	405	407	15.7	85.7
2025-09-10T09:01	10	69	1.0	68	71	408	0.2	407	408	15.7	85.0
2025-09-10T09:02	10	73	0.6	72	74	407	0.2	407	408	15.6	84.8
2025-09-10T09:03	10	72	0.6	71	73	408	0.5	407	409	15.7	85.6
2025-09-10T09:04	10	68	1.0	67	71	408	1.0	406	409	15.9	85.9
2025-09-10T09:05	10	66	0.5	65	67	406	0.6	405	407	15.6	84.8
2025-09-10T09:06	10	66	0.4	65	67	406	0.3	405	407	15.5	85.3
2025-09-10T09:07	10	69	0.7	67	70	406	0.4	405	407	15.5	85.7
2025-09-10T09:08	10	71	0.7	70	72	407	0.5	405	407	15.5	85.4
2025-09-10T09:09	10	74	0.8	72	75	408	0.4	407	409	15.5	85.6
2025-09-10T09:10	10	76	1.4	74	78	409	0.3	408	409	15.6	85.5
2025-09-10T09:11	10	78	0.8	77	79	409	0.2	409	410	15.6	85.2
2025-09-10T09:12	10	79	1.2	77	80	409	0.2	409	410	15.6	84.7
2025-09-10T09:13	10	77	0.7	76	79	410	0.3	409	411	15.7	85.1
2025-09-10T09:14	10	79	2.4	77	86	409	0.6	408	410	15.6	84.8
2025-09-10T09:15	10	73	1.4	71	77	409	0.3	408	409	15.6	85.5
2025-09-10T09:16	10	71	0.3	70	72	408	0.4	407	409	15.6	85.3
2025-09-10T09:17	10	71	0.3	71	72	407	0.4	407	408	15.6	85.2
2025-09-10T09:18	10	76	3.7	72	91	408	0.4	407	409	15.6	85.3
2025-09-10T09:19	10	105	28.7	81	163	412	1.6	407	414	15.7	85.3
2025-09-10T09:20	10	81	0.4	81	82	411	0.7	410	412	15.9	85.2
2025-09-10T09:21	10	82	0.8	80	83	411	0.4	410	412	15.8	85.3
2025-09-10T09:22	10	76	1.6	74	79	411	0.5	410	411	15.8	84.8
2025-09-10T09:23	10	71	1.2	70	74	410	0.5	409	410	15.8	84.8
2025-09-10T09:24	10	68	0.7	67	70	409	0.3	409	410	15.8	84.8
2025-09-10T09:25	10	67	0.3	66	67	409	0.2	409	410	15.8	84.4
2025-09-10T09:26	10	69	4.3	66	82	410	0.4	409	411	15.8	84.4
2025-09-10T09:27	10	68	0.6	67	71	411	0.3	410	411	15.9	84.8
2025-09-10T09:28	10	71	2.5	69	79	410	0.5	409	411	16.0	84.5
2025-09-10T09:29	10	73	2.3	70	77	410	0.8	409	412	15.9	84.6
2025-09-10T09:30	10	93	9.7	77	113	414	1.2	411	415	16.0	84.8
2025-09-10T09:31	10	79	4.1	73	86	413	0.8	412	415	16.0	83.9
2025-09-10T09:32	10	79	10.1	71	105	413	0.5	412	413	16.1	83.8
2025-09-10T09:33	10	69	2.0	67	77	412	0.5	411	413	16.2	83.3
2025-09-10T09:34	10	66	0.4	66	67	412	0.3	411	412	16.3	83.9
2025-09-10T09:35	10	65	0.2	65	66	412	0.5	411	413	16.3	83.4
2025-09-10T09:36	10	65	0.2	65	66	411	0.4	410	412	16.3	83.7
2025-09-10T09:37	10	67	1.5	66	72	411	0.4	410	411	16.4	83.9
2025-09-10T09:38	10	136	46.9	72	196	416	5.7	409	423	16.3	83.6
2025-09-10T09:39	10	88	15.4	68	123	417	2.9	413	422	16.2	83.4
2025-09-10T09:40	10	65	1.2	64	68	413	1.0	411	415	16.1	83.9
2025-09-10T09:41	10	64	1.1	62	66	412	0.4	411	413	16.4	84.8
2025-09-10T09:42	10	61	3.5	58	71	410	0.8	409	412	16.2	83.9
2025-09-10T09:43	10	120	26.0	71	159	416	4.0	408	420	16.3	84.3
2025-09-10T09:44	10	93	30.2	69	159	416	1.3	414	420	16.5	84.1
2025-09-10T09:45	10	96	31.3	66	159	417	2.6	414	421	16.4	83.1
2025-09-10T09:46	10	76	6.9	71	91	413	1.3	411	416	16.2	83.1
2025-09-10T09:47	10	69	0.5	68	71	411	0.4	411	412	16.2	83.4
2025-09-10T09:48	10	69	0.2	69	69	411	0.3	411	412	16.3	83.4
2025-09-10T09:49	10	71	1.0	69	73	411	0.3	410	412	16.3	83.0
2025-09-10T09:50	10	76	5.6	70	88	412	0.4	411	413	16.4	83.2
2025-09-10T09:51	10	64	11.6	52	88	410	1.5	408	412	16.2	82.8
2025-09-10T09:52	10	52	2.3	49	57	408	0.5	407	409	16.2	82.9
2025-09-10T09:53	10	56	7.0	49	70	408	0.8	407	410	16.2	83.2
2025-09-10T09:54	10	88	11.9	72	108	412	2.1	408	415	16.3	82.8
2025-09-10T09:55	10	109	15.8	85	140	417	1.9	413	419	16.5	82.5
2025-09-10T09:56	10	115	24.4	81	160	420	1.7	417	423	16.5	81.0
2025-09-10T09:57	10	132	21.7	81	170	421	2.3	417	425	16.5	80.1
2025-09-10T09:58	10	169	18.4	136	189	428	1.5	423	430	16.6	79.5
2025-09-10T09:59	10	105	24.1	70	143	425	2.5	420	429	16.9	79.8
2025-09-10T10:00	10	88	14.8	69	131	421	0.5	420	422	17.2	81.4
2025-09-10T10:01	10	173	28.9	132	208	427	4.5	421	434	17.1	79.2
2025-09-10T10:02	10	154	14.5	118	177	431	1.1	429	433	17.0	78.4
2025-09-10T10:03	10	148	27.8	102	193	429	1.6	426	433	16.9	79.6
2025-09-10T10:04	10	127	22.9	99	179	430	2.8	425	433	16.9	79.2
2025-09-10T10:05	10	99	13.1	85	129	424	1.1	423	427	16.9	79.3
2025-09-10T10:06	10	108	10.3	89	130	425	1.0	422	426	16.9	78.8
2025-09-10T10:07	10	97	7.8	87	112	422	0.7	420	424	16.8	79.3
2025-09-10T10:08	10	108	12.0	96	149	421	0.7	420	423	16.6	78.7
2025-09-10T10:09	10	156	13.2	126	180	427	1.9	422	430	16.6	79.1
2025-09-10T10:10	10	151	12.9	124	176	429	1.0	427	431	16.7	79.3
2025-09-10T10:11	10	120	18.5	98	159	430	1.3	427	431	16.9	80.3
2025-09-10T10:12	10	94	4.9	88	108	425	2.1	422	429	17.1	79.9
2025-09-10T10:13	10	85	3.5	80	92	422	0.7	420	423	16.9	79.4
2025-09-10T10:14	10	77	1.5	75	80	421	0.7	420	422	16.9	78.7
2025-09-10T10:15	10	76	0.9	75	78	420	0.3	419	420	16.8	79.0
2025-09-10T10:16	10	79	0.7	78	80	419	0.3	418	419	17.0	77.8
2025-09-10T10:17	10	77	2.2	73	80	419	0.3	418	420	17.1	78.4
2025-09-10T10:18	10	72	0.6	71	73	419	0.2	418	420	17.2	78.8
2025-09-10T10:19	10	71	0.4	71	72	419	0.5	418	420	17.1	77.7
2025-09-10T10:20	10	80	5.7	72	90	418	0.6	417	420	17.0	76.9
2025-09-10T10:21	10	87	6.6	82	107	420	0.5	419	421	16.9	77.0
2025-09-10T10:22	10	97	12.1	88	134	421	0.6	420	423	16.9	77.3
2025-09-10T10:23	10	98	22.0	82	162	422	1.2	420	425	16.9	77.1
2025-09-10T10:24	10	87	8.8	82	117	420	0.4	419	421	17.0	77.4
2025-09-10T10:25	10	88	12.1	78	122	421	0.6	420	422	17.0	77.2
2025-09-10T10:26	10	80	2.5	78	86	420	0.3	420	421	17.1	77.6
2025-09-10T10:27	10	92	6.7	87	119	421	0.5	420	423	17.2	77.3
2025-09-10T10:28	10	101	16.8	85	135	424	1.2	421	425	17.3	77.3
2025-09-10T10:29	10	88	2.4	85	94	420	0.5	420	422	17.2	76.2
2025-09-10T10:30	10	94	3.4	87	100	421	0.6	420	422	17.1	76.5
2025-09-10T10:31	10	110	7.1	98	123	424	1.3	422	426	17.3	76.9
2025-09-10T10:32	10	94	1.1	93	98	423	0.6	422	424	17.1	75.1
2025-09-10T10:33	10	107	16.1	94	156	423	1.3	422	427	17.2	76.0
2025-09-10T10:34	10	148	16.9	120	175	430	1.3	426	432	17.3	76.3
2025-09-10T10:35	10	116	5.2	110	132	428	1.5	426	431	17.1	76.2
2025-09-10T10:36	10	139	20.6	114	176	429	2.4	426	432	17.1	75.2
2025-09-10T10:37	10	115	3.0	112	121	429	0.8	428	430	17.1	75.6
2025-09-10T10:38	10	178	46.4	118	234	433	5.2	428	443	17.2	74.9
2025-09-10T10:39	10	162	29.3	117	234	439	2.5	434	442	17.5	76.1
2025-09-10T10:40	10	120	11.2	98	138	432	2.0	429	435	17.5	75.4
2025-09-10T10:41	10	90	3.2	86	98	427	1.6	425	430	17.4	75.3
2025-09-10T10:42	10	85	0.5	84	86	425	0.4	425	426	17.6	76.8
2025-09-10T10:43	10	85	0.5	84	86	424	1.2	422	426	17.6	74.9
2025-09-10T10:44	10	87	0.7	86	89	423	0.3	422	423	17.5	74.0
2025-09-10T10:45	10	89	0.6	88	91	424	0.2	423	424	17.4	74.5
2025-09-10T10:46	10	94	2.8	90	100	424	0.5	423	425	17.4	73.7
2025-09-10T10:47	10	95	4.9	89	109	425	0.5	424	426	17.5	73.2
2025-09-10T10:48	10	88	1.1	86	90	424	0.3	423	424	17.5	74.2
2025-09-10T10:49	10	84	1.0	82	86	424	0.3	423	424	17.6	74.8
2025-09-10T10:50	10	81	0.8	79	82	423	0.4	422	424	17.7	73.8
2025-09-10T10:51	10	79	0.3	78	80	423	0.5	422	424	17.9	74.5
2025-09-10T10:52	10	81	2.0	79	86	423	0.6	422	424	18.0	72.8
2025-09-10T10:53	10	95	8.7	86	117	425	1.0	423	428	18.0	75.4
2025-09-10T10:54	10	91	7.9	84	113	426	1.2	424	428	18.0	74.5
2025-09-10T10:55	10	77	8.0	68	95	424	1.0	422	425	17.9	73.3
2025-09-10T10:56	10	119	46.7	68	199	425	4.9	420	434	17.8	73.2
2025-09-10T10:57	10	134	38.8	84	188	430	3.1	426	436	17.9	75.6
2025-09-10T10:58	10	184	1.6	182	187	439	1.6	435	441	18.1	76.1
2025-09-10T10:59	10	181	0.3	181	182	441	0.5	440	442	18.3	74.9
2025-09-10T11:00	10	165	14.0	136	181	440	0.9	439	442	18.6	75.0
2025-09-10T11:01	10	172	1.7	170	175	442	0.3	441	442	18.7	74.0
2025-09-10T11:02	10	168	1.0	166	170	441	0.3	441	442	18.4	73.3
2025-09-10T11:03	10	165	0.8	163	166	442	0.6	440	443	18.4	73.7
2025-09-10T11:04	10	162	0.7	161	163	439	0.9	438	441	18.0	73.1
2025-09-10T11:05	10	161	0.3	160	161	439	0.2	439	440	17.9	73.8
2025-09-10T11:06	10	160	0.2	159	160	440	0.3	439	441	18.0	74.0
2025-09-10T11:07	10	159	0.1	159	160	440	0.2	440	440	17.9	72.8
2025-09-10T11:08	10	159	0.2	159	159	441	0.2	440	441	18.0	73.3
2025-09-10T11:09	10	159	0.1	159	159	441	0.4	441	442	18.2	72.5
2025-09-10T11:10	10	160	0.2	159	160	441	0.3	441	442	18.3	71.4
2025-09-10T11:11	10	160	0.2	159	160	443	0.6	441	444	18.5	72.9
2025-09-10T11:12	10	160	0.1	160	161	443	0.2	443	444	18.6	71.9
2025-09-10T11:13	10	161	0.3	160	162	443	1.0	441	444	18.9	73.1
2025-09-10T11:14	10	163	0.5	162	163	443	0.4	442	444	18.7	72.3
2025-09-10T11:15	10	164	0.5	164	165	443	0.8	441	444	18.6	71.9
2025-09-10T11:16	10	166	0.4	165	167	441	0.9	440	442	18.4	71.8
2025-09-10T11:17	10	168	1.1	166	170	442	0.9	440	443	18.4	71.2
2025-09-10T11:18	10	160	25.3	89	174	444	1.1	440	445	18.6	71.5
2025-09-10T11:19	10	137	31.0	94	183	440	2.0	437	444	18.6	70.4
2025-09-10T11:20	10	176	7.2	153	181	445	1.4	443	448	18.9	71.0
2025-09-10T11:21	10	181	0.6	180	182	447	0.2	447	448	19.0	69.5
2025-09-10T11:22	10	178	8.2	155	184	447	0.8	445	448	18.8	69.3
2025-09-10T11:23	10	72	42.6	44	181	438	7.3	428	451	18.7	69.6
2025-09-10T11:24	10	43	0.7	43	45	427	2.5	423	432	18.8	71.1
2025-09-10T11:25	10	43	0.3	43	44	423	0.6	422	425	18.8	70.1
2025-09-10T11:26	10	70	33.5	44	163	424	2.4	421	428	18.6	70.8
2025-09-10T11:27	10	168	12.2	109	175	435	5.6	423	443	18.5	69.8
2025-09-10T11:28	10	171	1.1	170	173	443	1.1	440	444	18.6	69.8
2025-09-10T11:29	10	168	0.7	167	170	444	0.8	443	445	18.9	70.3
2025-09-10T11:30	10	166	0.4	166	167	446	0.4	445	447	19.2	71.2
2025-09-10T11:31	10	165	0.2	165	166	447	0.5	446	448	19.5	70.9
2025-09-10T11:32	10	157	17.2	112	166	447	1.5	442	448	19.5	66.3
2025-09-10T11:33	10	155	19.0	111	168	442	0.7	441	443	19.5	64.6
2025-09-10T11:34	10	166	5.7	148	170	443	0.3	442	443	19.2	65.4
2025-09-10T11:35	10	156	29.3	56	170	444	1.2	439	445	19.2	64.9
2025-09-10T11:36	10	118	29.6	57	168	440	1.3	437	442	19.3	62.3
2025-09-10T11:37	10	148	20.6	89	169	441	2.1	437	444	19.4	63.4
2025-09-10T11:38	10	166	3.5	151	168	445	0.6	444	446	19.4	64.5
2025-09-10T11:39	10	124	25.4	84	169	442	2.8	437	446	19.3	64.4
2025-09-10T11:40	10	169	1.1	167	171	445	1.6	440	447	19.2	64.7
2025-09-10T11:41	10	140	31.9	82	171	443	2.4	439	447	19.4	64.9
2025-09-10T11:42	10	164	15.2	99	174	446	1.3	445	448	19.4	66.7
2025-09-10T11:43	10	117	20.5	75	159	440	2.9	437	446	19.5	63.6
2025-09-10T11:44	10	44	12.6	37	84	430	4.5	424	439	19.3	62.8
2025-09-10T11:45	10	76	36.7	39	134	427	3.5	424	433	19.3	62.8
2025-09-10T11:46	10	51	9.5	43	86	428	2.2	425	432	19.4	63.0
2025-09-10T11:47	10	87	42.0	44	172	428	4.2	424	435	19.4	65.6
2025-09-10T11:48	10	175	5.6	143	179	440	3.9	431	445	19.3	65.3
2025-09-10T11:49	10	122	41.1	68	177	440	3.7	435	445	19.6	63.1
2025-09-10T11:50	10	161	9.4	141	174	443	1.3	441	446	19.7	63.1
2025-09-10T11:51	10	166	0.7	165	167	446	0.5	445	447	19.5	63.0
2025-09-10T11:52	10	164	0.4	163	165	447	0.2	446	447	19.5	63.8
2025-09-10T11:53	10	163	0.3	162	164	447	0.2	446	447	19.6	63.7
2025-09-10T11:54	10	162	0.2	162	163	447	0.5	447	449	19.7	65.0
2025-09-10T11:55	10	162	0.3	161	162	449	0.3	448	450	19.8	65.7
2025-09-10T11:56	10	161	1.2	157	162	448	0.8	447	450	19.8	64.6
2025-09-10T11:57	10	161	1.6	157	163	448	0.4	447	448	19.7	63.0
2025-09-10T11:58	10	165	1.6	160	166	448	0.6	447	449	19.8	64.5
2025-09-10T11:59	10	168	1.6	166	171	449	0.3	448	449	19.7	62.6
2025-09-10T12:00	10	168	5.2	153	172	448	0.9	446	449	19.7	61.7
2025-09-10T12:01	10	151	24.3	102	179	446	2.0	442	448	19.5	60.6
2025-09-10T12:02	10	170	12.6	134	183	447	0.7	446	448	19.4	57.9
2025-09-10T12:03	10	108	13.9	85	136	442	2.7	438	448	19.3	57.6
2025-09-10T12:04	10	136	29.9	100	192	442	2.7	438	446	19.4	58.9
2025-09-10T12:05	10	149	17.5	94	173	445	1.2	441	447	19.5	59.9
2025-09-10T12:06	10	118	15.9	90	141	441	1.0	439	442	19.4	59.2
2025-09-10T12:07	10	160	36.2	99	210	446	3.6	439	450	19.4	58.9
2025-09-10T12:08	10	135	41.0	85	210	443	2.8	438	447	19.4	58.3
2025-09-10T12:09	10	96	15.6	79	136	440	3.4	436	447	19.4	59.3
2025-09-10T12:10	10	88	9.4	80	117	436	0.6	435	437	19.5	59.3
2025-09-10T12:11	10	84	4.5	81	100	435	1.1	433	437	19.6	59.5
2025-09-10T12:12	10	98	7.2	91	113	435	0.5	434	436	19.5	58.6
2025-09-10T12:13	10	89	3.7	84	97	435	0.5	434	436	19.4	59.1
2025-09-10T12:14	10	84	4.6	80	98	434	0.4	433	434	19.5	59.0
2025-09-10T12:15	10	77	3.1	73	88	433	0.6	432	435	19.5	58.6
2025-09-10T12:16	10	72	0.7	70	73	431	0.6	430	432	19.6	58.6
2025-09-10T12:17	10	68	0.9	67	70	430	0.6	429	431	19.6	58.8
2025-09-10T12:18	10	66	0.7	65	67	429	0.3	428	429	19.6	59.0
2025-09-10T12:19	10	64	0.6	63	65	428	0.3	428	429	19.5	58.9
2025-09-10T12:20	10	62	0.5	61	63	429	0.2	428	429	19.6	60.0
2025-09-10T12:21	10	61	0.5	60	61	427	0.4	427	428	19.7	59.7
2025-09-10T12:22	10	59	0.3	59	60	428	0.2	427	428	19.7	59.7
2025-09-10T12:23	10	58	0.2	58	59	427	0.4	426	427	19.6	59.2
2025-09-10T12:24	10	58	0.1	58	58	426	0.3	425	426	19.5	58.8
2025-09-10T12:25	10	58	0.2	58	59	426	0.2	425	426	19.6	60.0
2025-09-10T12:26	10	59	0.4	58	60	426	0.2	425	426	19.6	59.0
2025-09-10T12:27	10	60	0.5	60	61	425	0.2	425	426	19.4	59.1
2025-09-10T12:28	10	62	0.5	61	63	425	0.2	425	426	19.4	59.2
2025-09-10T12:29	10	63	0.4	63	64	425	0.2	425	425	19.4	58.9
2025-09-10T12:30	10	65	0.5	64	66	425	0.5	424	426	19.6	58.2
2025-09-10T12:31	10	67	0.7	66	68	426	0.3	425	426	19.6	58.6
2025-09-10T12:32	10	69	0.8	68	71	426	0.5	425	427	19.6	58.7
2025-09-10T12:33	10	73	1.5	71	76	427	0.4	426	427	19.6	58.1
2025-09-10T12:34	10	91	19.0	76	137	428	2.0	426	433	19.7	56.5
2025-09-10T12:35	10	141	32.7	105	210	438	4.3	431	443	19.9	57.1
2025-09-10T12:36	10	163	37.2	124	227	442	3.7	438	451	20.1	58.5
2025-09-10T12:37	10	200	18.6	172	226	452	1.3	448	454	20.4	58.8
2025-09-10T12:38	10	214	6.1	201	219	454	1.7	450	456	20.6	54.3
2025-09-10T12:39	10	166	27.5	101	209	452	2.5	446	456	21.0	52.4
2025-09-10T12:40	10	114	24.8	96	189	444	2.0	442	449	21.2	52.3
2025-09-10T12:41	10	211	3.5	195	215	453	3.1	445	457	21.2	52.4
2025-09-10T12:42	10	204	1.6	202	207	457	0.4	456	457	21.1	56.3
2025-09-10T12:43	10	201	1.0	198	202	458	0.4	457	459	21.0	56.3
2025-09-10T12:44	10	179	21.8	133	202	456	2.7	452	460	20.9	60.8
2025-09-10T12:45	10	192	2.3	188	195	454	1.6	451	456	20.2	62.2
2025-09-10T12:46	10	184	1.9	181	188	454	0.7	452	455	19.9	63.4
2025-09-10T12:47	10	179	1.6	176	181	452	0.5	451	453	19.8	62.6
2025-09-10T12:48	10	178	5.6	158	182	451	0.9	449	452	19.8	62.6
2025-09-10T12:49	10	114	44.6	70	179	446	5.2	438	452	19.9	63.5
2025-09-10T12:50	10	77	16.3	58	110	435	3.7	431	442	19.8	62.6
2025-09-10T12:51	10	53	2.3	50	58	428	2.1	426	433	19.6	62.7
2025-09-10T12:52	10	56	2.0	54	62	427	0.4	427	428	19.6	63.0
2025-09-10T12:53	10	77	15.0	57	102	429	2.4	426	434	19.8	63.3
2025-09-10T12:54	10	76	7.4	67	90	430	1.2	429	433	19.8	63.2
2025-09-10T12:55	10	58	2.7	56	69	428	1.3	425	430	19.8	63.2
2025-09-10T12:56	10	69	4.2	59	75	426	0.6	425	427	19.8	62.6
2025-09-10T12:57	10	62	1.6	60	65	426	0.8	425	427	19.7	62.2
2025-09-10T12:58	10	58	1.5	56	61	425	0.4	424	425	19.7	62.5
2025-09-10T12:59	10	57	0.5	56	58	424	0.2	423	424	19.6	62.3
2025-09-10T13:00	10	61	2.0	58	65	425	0.9	423	426	19.6	62.5
2025-09-10T13:01	10	72	3.2	65	77	426	1.0	424	428	19.6	62.3
2025-09-10T13:02	10	86	8.0	77	104	430	1.8	427	434	19.7	63.0
2025-09-10T13:03	10	96	5.5	90	110	434	1.5	432	438	19.8	61.9
2025-09-10T13:04	10	86	2.9	83	95	434	1.5	432	437	20.0	63.8
2025-09-10T13:05	10	80	1.2	78	82	429	1.6	427	432	19.7	64.2
2025-09-10T13:06	10	78	0.4	77	78	427	0.5	426	428	19.5	66.5
2025-09-10T13:07	10	81	3.1	77	88	428	0.6	427	429	19.5	66.7
2025-09-10T13:08	10	85	0.8	84	86	428	0.3	427	429	19.5	66.0
2025-09-10T13:09	10	91	2.7	86	94	429	1.1	427	431	19.5	66.9
2025-09-10T13:10	10	97	5.3	91	108	430	1.0	429	432	19.7	66.7
2025-09-10T13:11	10	87	11.3	71	107	429	1.2	427	431	19.5	66.4
2025-09-10T13:12	10	64	4.0	58	71	425	1.5	423	428	19.5	66.8
2025-09-10T13:13	10	54	2.2	51	58	422	1.0	420	423	19.4	66.5
2025-09-10T13:14	10	49	0.8	47	50	419	0.5	418	420	19.2	65.9
2025-09-10T13:15	10	46	0.7	45	48	420	0.6	418	421	19.3	66.6
2025-09-10T13:16	10	45	0.5	44	46	420	0.9	418	421	19.4	66.4
2025-09-10T13:17	10	44	0.5	43	45	419	0.5	418	420	19.3	65.9
2025-09-10T13:18	10	42	0.5	41	43	420	0.4	418	420	19.5	66.9
2025-09-10T13:19	10	40	0.4	39	41	419	0.6	417	420	19.5	65.0
2025-09-10T13:20	10	39	0.4	39	40	417	0.3	416	418	19.4	65.1
2025-09-10T13:21	10	38	0.5	37	38	417	0.4	417	418	19.4	65.9
2025-09-10T13:22	10	35	0.6	34	37	416	0.5	415	417	19.4	66.1
2025-09-10T13:23	10	34	0.4	33	35	416	0.3	415	416	19.3	66.1
2025-09-10T13:24	10	33	0.2	33	33	414	0.4	414	415	19.3	65.7
2025-09-10T13:25	10	33	0.1	32	33	414	0.3	413	415	19.3	66.4
2025-09-10T13:26	10	33	0.3	32	34	415	0.5	414	416	19.4	65.8
2025-09-10T13:27	10	34	0.5	34	35	416	0.3	415	416	19.4	65.2
2025-09-10T13:28	10	36	0.7	35	38	416	0.3	415	417	19.5	64.7
2025-09-10T13:29	10	39	0.8	38	40	417	0.3	416	417	19.5	64.7
2025-09-10T13:30	10	42	1.2	40	44	415	0.4	414	416	19.5	63.9
2025-09-10T13:31	10	48	2.0	44	51	415	0.2	415	416	19.3	64.3
2025-09-10T13:32	10	57	3.6	52	64	415	0.4	415	416	19.3	66.4
2025-09-10T13:33	10	80	9.6	64	100	417	1.7	414	420	19.2	68.4
2025-09-10T13:34	10	141	14.1	95	151	425	3.8	418	430	19.1	70.6
2025-09-10T13:35	10	78	2.6	76	91	425	1.9	422	430	19.0	70.9
2025-09-10T13:36	10	85	12.2	77	128	422	0.5	421	423	19.0	72.0
2025-09-10T13:37	10	173	7.7	136	176	429	4.2	420	435	18.9	71.3
2025-09-10T13:38	10	128	24.0	82	176	431	1.7	428	434	18.9	73.5
2025-09-10T13:39	10	142	36.0	83	178	431	1.7	428	434	19.0	73.3
2025-09-10T13:40	10	166	9.1	151	178	435	1.9	432	438	19.1	72.8
2025-09-10T13:41	10	167	4.8	155	171	437	0.4	436	438	19.2	69.9
2025-09-10T13:42	10	168	0.8	167	170	436	0.4	435	437	19.0	66.2
2025-09-10T13:43	10	165	1.4	162	167	436	0.6	435	438	19.1	59.6
2025-09-10T13:44	10	159	1.5	157	162	438	0.7	437	439	19.2	66.8
2025-09-10T13:45	10	154	1.5	152	157	440	0.2	439	440	19.4	68.5
2025-09-10T13:46	10	150	0.8	149	151	439	0.8	438	441	19.5	69.8
2025-09-10T13:47	10	147	0.9	146	149	437	1.1	435	438	19.3	65.6
2025-09-10T13:48	10	144	0.8	143	146	436	0.3	435	437	19.3	65.8
2025-09-10T13:49	10	142	0.7	141	143	438	0.6	437	439	19.4	66.4
2025-09-10T13:50	10	140	0.6	139	141	437	1.5	435	440	19.8	64.7
2025-09-10T13:51	10	138	0.5	137	139	436	0.6	435	437	19.8	62.3
2025-09-10T13:52	10	136	0.5	136	137	435	0.5	434	436	19.7	61.7
2025-09-10T13:53	10	135	0.3	134	136	434	0.5	433	435	19.5	59.6
2025-09-10T13:54	10	134	0.2	134	135	433	0.9	431	434	19.5	59.3
2025-09-10T13:55	10	134	0.2	133	134	432	0.7	430	433	19.4	60.3
2025-09-10T13:56	10	133	0.2	133	134	433	0.8	431	434	19.4	61.1
2025-09-10T13:57	10	133	0.2	133	133	434	0.3	433	434	19.3	60.7
2025-09-10T13:58	10	133	0.2	132	133	435	0.6	434	436	19.3	60.8
2025-09-10T13:59	10	133	0.1	133	133	436	0.4	435	436	19.7	63.3
2025-09-10T14:00	10	132	0.1	132	133	436	0.3	435	436	19.8	59.2
2025-09-10T14:01	10	132	0.2	132	132	436	0.3	435	437	19.9	61.5
2025-09-10T14:02	10	132	0.1	132	132	436	0.9	434	437	19.7	62.3
2025-09-10T14:03	10	132	0.1	131	132	434	0.7	433	435	19.5	61.1
2025-09-10T14:04	10	131	0.1	131	132	437	0.5	435	438	19.6	63.1
2025-09-10T14:05	10	131	0.2	131	131	437	0.9	435	439	19.7	63.1
2025-09-10T14:06	10	130	0.2	130	131	435	0.5	434	436	19.8	63.4
2025-09-10T14:07	10	130	0.1	130	130	436	0.3	435	437	19.9	64.1
2025-09-10T14:08	10	130	0.2	130	130	436	0.8	435	437	19.9	62.6
2025-09-10T14:09	10	130	0.1	130	130	437	0.4	436	437	19.9	63.0
2025-09-10T14:10	10	130	0.2	130	131	438	0.9	436	439	20.1	64.5
2025-09-10T14:11	10	130	0.7	128	131	439	0.3	438	440	20.2	63.3
2025-09-10T14:12	10	126	0.8	125	127	439	0.7	437	440	20.2	62.2
2025-09-10T14:13	10	130	1.5	126	132	438	0.6	437	439	20.2	60.9
2025-09-10T14:14	10	132	0.6	131	133	439	0.7	437	440	20.0	62.7
2025-09-10T14:15	10	134	0.5	133	135	438	0.4	437	439	19.9	61.9
2025-09-10T14:16	10	136	0.4	135	137	440	0.4	439	440	20.3	63.0
2025-09-10T14:17	10	137	0.2	136	137	441	0.6	439	442	20.3	63.9
2025-09-10T14:18	10	137	0.1	137	137	439	1.5	437	441	20.0	63.1
2025-09-10T14:19	10	137	0.1	137	138	438	0.2	437	438	20.0	62.1
2025-09-10T14:20	10	137	0.2	137	138	439	0.7	438	440	20.3	61.7
2025-09-10T14:21	10	136	0.5	135	137	441	0.4	440	442	20.5	58.0
2025-09-10T14:22	10	134	0.7	133	135	441	0.8	439	442	20.3	61.8
2025-09-10T14:23	10	131	0.7	130	133	439	0.2	439	440	19.9	61.2
2025-09-10T14:24	10	129	0.6	128	130	440	0.2	439	440	20.1	61.9
2025-09-10T14:25	10	127	0.4	127	128	439	0.9	437	441	20.2	62.6
2025-09-10T14:26	10	126	0.3	125	127	438	0.3	437	438	19.9	61.7
2025-09-10T14:27	10	125	0.3	124	126	438	0.2	438	439	20.0	62.3
2025-09-10T14:28	10	124	0.2	124	125	438	0.4	437	439	20.1	62.0
2025-09-10T14:29	10	124	0.2	123	124	434	0.9	433	437	20.3	61.0
2025-09-10T14:30	10	123	0.2	123	124	434	0.3	433	435	20.0	60.8
2025-09-10T14:31	10	123	0.2	122	123	435	0.4	434	435	20.0	60.6
2025-09-10T14:32	10	122	0.2	122	123	435	0.8	434	436	20.2	60.3
2025-09-10T14:33	10	121	0.2	121	122	435	0.4	434	436	20.1	60.3
2025-09-10T14:34	10	121	0.3	120	122	436	0.6	435	437	20.1	60.1
2025-09-10T14:35	10	120	0.4	120	121	435	0.4	435	436	20.1	60.1
2025-09-10T14:36	10	120	0.2	119	120	436	0.5	435	437	20.0	61.5
2025-09-10T14:37	10	119	0.3	119	120	434	0.5	434	436	19.9	61.8
2025-09-10T14:38	10	118	0.2	118	119	435	0.5	434	436	19.8	61.6
2025-09-10T14:39	10	118	0.3	118	119	435	0.4	435	436	20.0	61.7
2025-09-10T14:40	10	118	0.3	117	118	435	0.6	434	436	20.1	61.2
2025-09-10T14:41	10	117	0.2	116	118	436	0.4	435	436	20.1	61.2
2025-09-10T14:42	10	117	0.2	116	117	436	0.4	435	437	20.2	61.3
2025-09-10T14:43	10	117	0.2	116	117	437	0.3	436	437	20.2	62.8
2025-09-10T14:44	10	117	0.1	117	117	436	0.3	436	437	20.3	62.1
2025-09-10T14:45	10	117	0.2	117	118	436	0.4	435	436	20.2	60.6
2025-09-10T14:46	10	117	0.1	117	117	436	0.2	435	436	20.3	60.6
2025-09-10T14:47	10	117	0.1	117	118	436	0.4	436	437	20.4	62.9
2025-09-10T14:48	10	118	0.1	117	118	437	0.7	435	438	20.6	61.7
2025-09-10T14:49	10	118	0.1	118	118	435	0.3	435	436	20.4	60.7
2025-09-10T14:50	10	119	0.5	118	119	436	0.4	435	437	20.4	61.3
2025-09-10T14:51	10	120	0.5	119	121	434	0.5	433	436	20.3	60.2
2025-09-10T14:52	10	122	0.9	120	124	435	0.6	434	437	20.3	59.8
2025-09-10T14:53	10	85	34.4	34	125	434	3.2	427	438	20.2	59.5
2025-09-10T14:54	10	55	25.4	30	99	427	1.3	425	429	20.3	59.7
2025-09-10T14:55	10	73	28.3	36	118	427	2.1	424	431	20.4	58.4
2025-09-10T14:56	10	49	22.2	33	112	427	3.6	422	432	20.4	58.5
2025-09-10T14:57	10	38	3.5	33	47	421	1.0	420	423	20.3	58.5
2025-09-10T14:58	10	40	3.1	36	45	420	0.3	419	420	20.3	60.4
2025-09-10T14:59	10	47	3.4	43	55	420	0.3	419	421	20.3	59.8
2025-09-10T15:00	10	61	2.6	55	65	421	0.8	419	422	20.2	58.2
2025-09-10T15:01	10	62	3.1	57	66	422	0.4	421	423	20.3	55.6
2025-09-10T15:02	10	80	10.6	64	100	423	1.7	421	426	20.5	55.1
2025-09-10T15:03	10	118	8.6	101	127	427	1.7	425	430	20.5	51.7
2025-09-10T15:04	10	109	11.1	84	120	428	1.0	426	430	20.5	51.2
2025-09-10T15:05	10	66	5.8	62	83	425	1.1	423	427	20.5	51.8
2025-09-10T15:06	10	75	6.3	63	84	424	0.8	423	425	20.6	53.1
2025-09-10T15:07	10	114	13.9	80	127	428	2.4	424	431	20.5	52.1
2025-09-10T15:08	10	103	10.1	80	117	428	0.7	427	430	20.4	52.4
2025-09-10T15:09	10	47	8.7	41	77	423	3.2	417	429	20.4	54.6
2025-09-10T15:10	10	85	30.6	42	122	420	3.0	417	425	20.1	56.1
2025-09-10T15:11	10	69	26.6	40	116	422	2.9	417	426	20.1	56.7
2025-09-10T15:12	10	39	0.5	38	40	417	1.0	416	419	20.0	58.0
2025-09-10T15:13	10	38	0.1	38	38	415	0.8	413	416	20.0	58.6
2025-09-10T15:14	10	39	0.2	38	39	414	0.3	413	415	19.8	59.0
2025-09-10T15:15	10	38	0.3	38	39	414	0.3	414	415	19.8	59.9
2025-09-10T15:16	10	38	0.7	37	40	414	0.3	413	414	19.8	59.7
2025-09-10T15:17	10	37	0.1	37	38	414	0.2	413	414	19.8	59.5
2025-09-10T15:18	10	37	0.2	37	37	413	0.3	412	413	19.8	58.5
2025-09-10T15:19	10	37	0.1	36	37	413	0.3	412	413	19.7	59.3
2025-09-10T15:20	10	37	0.1	36	37	412	0.3	412	413	19.7	59.4
2025-09-10T15:21	10	36	0.2	36	37	413	0.3	412	413	19.7	59.8
2025-09-10T15:22	10	36	0.2	35	36	413	0.6	412	414	19.8	59.9
2025-09-10T15:23	10	34	0.6	34	36	413	0.3	413	414	19.8	59.5
2025-09-10T15:24	10	33	0.4	32	34	414	0.2	413	414	19.9	60.2
2025-09-10T15:25	10	32	0.2	31	32	413	0.2	413	414	19.8	59.7
2025-09-10T15:26	10	31	0.1	31	32	413	0.2	412	413	19.7	58.8
2025-09-10T15:27	10	32	0.3	31	33	413	0.2	412	413	19.8	59.5
2025-09-10T15:28	10	33	0.1	32	33	412	0.2	412	413	19.8	58.6
2025-09-10T15:29	10	33	0.2	32	33	412	0.2	411	413	19.6	58.4
2025-09-10T15:30	10	32	0.2	32	33	411	0.2	411	412	19.6	59.0
2025-09-10T15:31	10	32	0.3	32	33	412	0.4	411	413	19.6	59.7
2025-09-10T15:32	10	34	0.8	33	36	412	0.2	412	413	19.6	60.4
2025-09-10T15:33	10	33	0.3	33	34	412	0.3	412	413	19.6	59.8
2025-09-10T15:34	10	43	7.2	33	54	412	0.7	411	414	19.6	59.0
2025-09-10T15:35	10	53	7.8	39	63	415	1.2	412	416	19.6	60.4
2025-09-10T15:36	10	38	0.4	37	39	414	0.8	412	415	19.6	59.9
2025-09-10T15:37	10	39	0.5	38	40	413	0.3	412	413	19.6	60.5
2025-09-10T15:38	10	41	0.7	39	42	413	0.5	412	414	19.6	61.1
2025-09-10T15:39	10	43	0.8	41	45	414	0.3	413	415	19.6	62.0
2025-09-10T15:40	10	63	12.3	45	81	416	1.3	414	419	19.6	61.8
2025-09-10T15:41	10	83	10.8	63	96	420	1.4	417	422	19.6	62.6
2025-09-10T15:42	10	62	13.9	49	95	420	0.8	419	422	19.6	62.9
2025-09-10T15:43	10	72	17.0	43	97	422	0.9	420	423	19.7	63.0
2025-09-10T15:44	10	41	0.9	39	42	417	1.9	414	421	19.6	62.2
2025-09-10T15:45	10	40	2.9	38	51	415	0.6	414	416	19.5	62.1
2025-09-10T15:46	10	96	16.7	52	107	418	3.0	413	422	19.5	62.2
2025-09-10T15:47	10	107	0.2	107	107	422	0.7	421	424	19.6	61.8
2025-09-10T15:48	10	106	0.7	105	107	425	0.8	423	426	19.6	62.5
2025-09-10T15:49	10	73	24.5	39	104	425	1.9	421	427	19.8	64.3
2025-09-10T15:50	10	72	23.8	39	99	420	0.8	419	422	19.7	63.6
2025-09-10T15:51	10	63	26.8	35	99	420	2.6	415	422	19.6	63.3
2025-09-10T15:52	10	51	23.2	33	93	415	1.1	414	418	19.4	63.1
2025-09-10T15:53	10	79	19.9	44	99	418	2.1	415	422	19.5	64.1
2025-09-10T15:54	10	49	12.5	39	86	418	2.5	415	422	19.5	63.9
2025-09-10T15:55	10	52	6.0	41	65	415	0.4	414	416	19.5	64.3
2025-09-10T15:56	10	87	9.9	65	95	417	1.7	414	419	19.5	64.7
2025-09-10T15:57	10	94	2.4	87	95	420	0.5	418	421	19.6	64.9
2025-09-10T15:58	10	95	2.4	87	97	421	0.3	420	421	19.7	64.0
2025-09-10T15:59	10	97	0.5	96	97	422	0.5	420	423	19.7	64.3
2025-09-10T16:00	10	94	1.7	89	96	421	0.3	421	422	19.7	63.4
2025-09-10T16:01	10	93	0.7	89	93	422	0.3	421	423	19.7	63.5
2025-09-10T16:02	10	91	0.8	90	92	422	0.5	421	423	19.9	63.8
2025-09-10T16:03	10	88	0.8	87	90	422	0.5	421	423	19.8	62.4
2025-09-10T16:04	10	86	0.7	85	87	421	0.3	420	422	19.9	62.4
2025-09-10T16:05	10	83	0.7	82	85	422	0.3	421	422	20.0	63.1
2025-09-10T16:06	10	81	0.7	80	82	421	0.7	420	422	20.1	61.6
2025-09-10T16:07	10	79	0.5	78	80	420	0.4	419	421	20.0	61.2
2025-09-10T16:08	10	77	0.6	76	78	420	0.3	419	420	20.0	61.4
2025-09-10T16:09	10	73	2.3	69	76	419	0.4	419	420	20.0	60.3
2025-09-10T16:10	10	68	4.8	62	75	419	1.0	417	420	20.1	60.9
2025-09-10T16:11	10	47	10.6	31	63	415	1.9	412	419	20.0	60.1
2025-09-10T16:12	10	38	3.0	31	44	412	0.6	411	413	19.8	59.7
2025-09-10T16:13	10	38	11.1	22	49	412	0.5	411	413	19.8	61.0
2025-09-10T16:14	10	21	5.0	16	34	410	0.6	409	412	19.9	61.7
2025-09-10T16:15	10	55	9.3	35	67	411	1.3	409	413	19.8	61.4
2025-09-10T16:16	10	63	4.3	54	68	413	0.8	412	414	19.8	62.6
2025-09-10T16:17	10	39	7.6	31	56	413	1.0	411	414	19.8	62.9
2025-09-10T16:18	10	29	1.2	27	31	411	0.4	410	412	19.8	63.2
2025-09-10T16:19	10	53	14.0	30	70	411	1.4	410	414	19.8	64.3
2025-09-10T16:20	10	67	1.1	66	70	414	0.4	413	414	19.8	63.4
2025-09-10T16:21	10	63	6.0	47	68	415	0.4	414	415	19.8	64.1
2025-09-10T16:22	10	26	9.1	16	46	412	1.7	409	415	19.8	64.8
2025-09-10T16:23	10	16	0.2	15	16	409	0.6	408	410	19.7	63.5
2025-09-10T16:24	10	16	0.1	15	16	407	0.4	406	408	19.6	64.0
2025-09-10T16:25	10	19	3.3	15	27	407	0.3	406	408	19.6	64.5
2025-09-10T16:26	10	43	8.6	27	56	409	1.2	407	411	19.6	63.6
2025-09-10T16:27	10	64	2.7	56	65	411	1.0	409	413	19.6	63.6
2025-09-10T16:28	10	64	0.9	62	65	413	0.5	412	414	19.6	63.6
2025-09-10T16:29	10	60	0.9	59	62	413	0.2	413	414	19.6	64.4
2025-09-10T16:30	10	62	1.1	59	63	414	0.3	413	414	19.7	64.5
2025-09-10T16:31	10	59	6.7	37	63	414	0.3	413	415	19.7	64.6
2025-09-10T16:32	10	18	4.6	16	35	411	1.8	408	415	19.7	64.9
2025-09-10T16:33	10	15	0.2	15	16	409	0.5	408	410	19.6	64.7
2025-09-10T16:34	10	14	0.5	14	15	407	0.4	407	408	19.6	65.5
2025-09-10T16:35	10	15	1.5	14	18	407	0.4	406	407	19.6	65.7
2025-09-10T16:36	10	14	1.5	12	17	406	0.3	405	406	19.5	65.0
2025-09-10T16:37	10	11	0.4	11	12	405	0.2	405	406	19.5	65.4
2025-09-10T16:38	10	11	1.0	10	15	405	0.2	404	405	19.5	66.8
2025-09-10T16:39	10	24	4.3	15	28	405	0.7	404	407	19.4	66.8
2025-09-10T16:40	10	29	4.4	24	38	406	0.6	405	408	19.4	67.5
2025-09-10T16:41	10	47	3.6	39	51	408	1.0	406	410	19.4	67.7
2025-09-10T16:42	10	50	0.2	50	51	410	0.4	409	410	19.4	67.2
2025-09-10T16:43	10	50	0.1	49	50	410	0.3	409	411	19.4	67.2
2025-09-10T16:44	10	49	0.1	49	50	410	0.3	409	411	19.4	67.5
2025-09-10T16:45	10	50	0.2	50	50	411	0.2	410	411	19.5	67.8
2025-09-10T16:46	10	50	0.1	50	50	410	0.3	410	411	19.5	68.1
2025-09-10T16:47	10	50	0.3	49	50	410	0.3	410	411	19.5	66.9
2025-09-10T16:48	10	49	0.4	48	49	410	0.3	409	410	19.5	65.9
2025-09-10T16:49	10	47	0.3	47	48	409	0.2	409	410	19.5	65.4
2025-09-10T16:50	10	46	0.4	45	47	409	0.3	409	410	19.5	65.1
2025-09-10T16:51	10	45	0.7	43	46	409	0.2	409	410	19.5	65.4
2025-09-10T16:52	10	31	9.2	18	43	408	0.8	407	409	19.5	65.1
2025-09-10T16:53	10	25	7.5	11	35	407	0.4	406	408	19.5	65.3
2025-09-10T16:54	10	9	0.6	8	11	405	0.8	404	407	19.4	65.7
2025-09-10T16:55	10	8	0.3	7	8	404	0.4	403	405	19.4	66.3
2025-09-10T16:56	10	7	0.3	6	8	403	0.3	402	404	19.4	66.6
2025-09-10T16:57	10	7	0.1	6	7	402	0.4	401	403	19.4	65.4
2025-09-10T16:58	10	6	0.1	6	7	401	0.2	401	402	19.4	64.9
2025-09-10T16:59	10	6	0.2	6	6	401	0.3	400	402	19.4	64.6
2025-09-10T17:00	10	6	0.1	5	6	400	0.2	400	401	19.3	65.1
2025-09-10T17:01	10	6	0.1	5	6	400	0.2	400	400	19.3	65.8
2025-09-10T17:02	10	5	0.1	5	6	399	0.3	399	400	19.3	65.7
2025-09-10T17:03	10	5	0.1	5	6	399	0.2	399	400	19.3	65.6
2025-09-10T17:04	10	5	0.1	5	5	399	0.3	398	399	19.3	65.4
2025-09-10T17:05	10	5	0.1	5	5	399	0.2	398	399	19.3	65.4
2025-09-10T17:06	10	5	0.1	5	5	398	0.2	398	399	19.3	65.8
2025-09-10T17:07	10	5	0.1	5	6	398	0.2	397	398	19.3	66.2
2025-09-10T17:08	10	5	0.1	5	6	398	0.2	397	398	19.2	66.5
2025-09-10T17:09	10	5	0.1	5	5	398	0.2	397	398	19.2	66.2
2025-09-10T17:10	10	5	0.1	4	5	398	0.2	397	398	19.2	66.1
2025-09-10T17:11	10	5	0.1	4	5	397	0.2	397	398	19.2	66.7
2025-09-10T17:12	10	5	0.1	4	5	397	0.2	397	398	19.1	67.3
2025-09-10T17:13	10	4	0.1	4	5	397	0.2	396	397	19.1	67.6
2025-09-10T17:14	10	4	0.1	4	5	396	0.2	396	397	19.1	67.5
2025-09-10T17:15	10	4	0.1	4	5	396	0.2	396	397	19.1	67.4
2025-09-10T17:16	10	4	0.1	4	5	396	0.2	396	397	19.0	67.1
2025-09-10T17:17	10	4	0.1	4	4	396	0.3	395	396	19.0	66.5
2025-09-10T17:18	10	4	0.1	4	4	396	0.2	396	396	19.0	66.5
2025-09-10T17:19	10	4	0.1	4	4	396	0.3	395	396	19.0	67.4
2025-09-10T17:20	10	4	0.2	3	4	395	0.2	395	396	18.9	68.1
2025-09-10T17:21	10	3	0.1	3	4	395	0.3	395	396	18.9	69.4
2025-09-10T17:22	10	3	0.1	3	3	394	0.4	394	395	18.8	71.3
2025-09-10T17:23	10	3	0.1	3	3	395	0.4	394	395	18.7	68.8
2025-09-10T17:24	10	3	0.1	3	3	395	0.4	394	396	18.8	67.9
2025-09-10T17:25	10	3	0.1	3	3	394	0.3	394	395	18.8	68.4
2025-09-10T17:26	10	3	0.1	3	3	394	0.3	394	395	18.5	72.4
2025-09-10T17:27	10	3	0.1	3	3	395	0.3	394	395	18.6	70.2
2025-09-10T17:28	10	3	0.3	3	4	394	0.2	394	395	18.6	69.7
2025-09-10T17:29	10	4	0.1	3	4	394	0.2	394	394	18.6	71.0
2025-09-10T17:30	10	4	0.1	3	4	394	0.2	393	394	18.5	70.8
2025-09-10T17:31	10	3	0.2	3	4	393	0.3	393	394	18.5	70.9
2025-09-10T17:32	10	3	0.2	2	3	394	0.3	393	394	18.4	72.0
2025-09-10T17:33	10	2	0.1	2	3	394	0.2	393	394	18.3	72.2
2025-09-10T17:34	10	2	0.1	2	2	394	0.3	393	394	18.3	71.8
2025-09-10T17:35	10	2	0.1	2	2	393	0.2	393	394	18.4	71.0
2025-09-10T17:36	10	2	0.1	2	2	393	0.3	392	394	18.3	71.9
2025-09-10T17:37	10	2	0.1	2	2	393	0.2	392	393	18.2	73.8
2025-09-10T17:38	10	2	0.1	1	2	393	0.3	392	393	18.1	72.8
2025-09-10T17:39	10	2	0.2	1	2	392	0.2	392	393	18.1	73.0
2025-09-10T17:40	10	1	0.1	1	2	392	0.3	392	393	18.1	73.1
2025-09-10T17:41	10	1	0.2	1	2	392	0.3	392	393	18.1	73.4
2025-09-10T17:42	10	1	0.2	1	2	392	0.4	391	393	18.0	74.0
2025-09-10T17:43	10	1	0.2	1	2	392	0.3	392	393	18.0	74.0
2025-09-10T17:44	10	1	0.2	1	1	393	0.3	392	393	17.9	73.5
2025-09-10T17:45	10	1	0.1	1	1	393	0.2	392	393	18.0	71.7
2025-09-10T17:46	10	1	0.1	1	1	393	0.2	392	393	18.0	72.3
2025-09-10T17:47	10	1	0.1	1	1	393	0.3	392	393	18.0	72.2
2025-09-10T17:48	10	1	0.1	1	1	392	0.2	392	393	17.9	73.4
2025-09-10T17:49	10	1	0.1	1	1	392	0.2	392	393	17.8	73.9
2025-09-10T17:50	10	1	0.1	1	1	392	0.2	392	393	17.7	74.7
2025-09-10T17:51	10	1	0.1	1	1	392	0.2	392	393	17.6	75.3
2025-09-10T17:52	10	1	0.1	1	1	392	0.2	391	392	17.6	75.1
2025-09-10T17:53	10	1	0.1	1	1	392	0.3	391	393	17.6	74.3
2025-09-10T17:54	10	1	0.1	1	1	392	0.3	391	392	17.7	73.3
2025-09-10T17:55	10	1	0.1	0	1	391	0.2	391	392	17.7	73.5
2025-09-10T17:56	10	1	0.1	0	1	391	0.2	391	392	17.7	73.4
2025-09-10T17:57	10	0	0.1	0	1	391	0.2	390	392	17.8	73.1
2025-09-10T17:58	10	0	0.1	0	1	391	0.2	390	392	17.9	72.1
2025-09-10T17:59	10	0	0.1	0	1	391	0.2	391	392	17.9	71.8
2025-09-10T18:00	10	0	0.1	0	1	391	0.2	390	391	17.9	71.4
2025-09-10T18:01	10	0	0.1	0	1	391	0.3	390	392	17.9	71.4
2025-09-10T18:02	10	0	0.1	0	0	391	0.3	390	391	17.9	72.2
2025-09-10T18:03	10	0	0.1	0	1	391	0.2	391	392	17.9	72.2
2025-09-10T18:04	10	0	0.1	0	0	392	0.2	391	392	17.8	72.9
2025-09-10T18:05	10	0	0.1	0	0	392	0.3	391	392	17.8	73.0
2025-09-10T18:06	10	0	0.1	0	1	392	0.2	392	393	17.8	73.1
2025-09-10T18:07	10	0	0.1	0	0	392	0.2	392	393	17.7	73.6
2025-09-10T18:08	10	0	0.1	0	0	393	0.2	392	393	17.8	73.0
2025-09-10T18:09	10	0	0.1	0	0	392	0.3	392	393	17.8	73.2
2025-09-10T18:10	10	0	0.1	0	1	392	0.2	391	392	17.7	73.9
2025-09-10T18:11	10	0	0.1	0	0	392	0.2	391	392	17.6	74.8
2025-09-10T18:12	10	0	0.1	0	0	391	0.2	391	392	17.6	75.3
2025-09-10T18:13	10	0	0.1	0	0	391	0.2	391	392	17.5	75.2
2025-09-10T18:14	10	0	0.1	0	1	392	0.3	391	392	17.6	73.9
2025-09-10T18:15	10	0	0.1	0	1	392	0.3	391	392	17.7	73.7
2025-09-10T18:16	10	0	0.1	0	1	392	0.2	392	392	17.6	74.9
2025-09-10T18:17	10	0	0.1	0	0	392	0.2	392	393	17.6	75.6
2025-09-10T18:18	10	0	0.1	0	0	393	0.2	392	393	17.5	76.4
2025-09-10T18:19	10	0	0.1	0	0	392	0.3	392	393	17.5	76.2
2025-09-10T18:20	10	0	0.1	0	0	392	0.3	391	392	17.3	79.1
2025-09-10T18:21	10	0	0.1	0	1	392	0.2	391	392	17.0	80.4
2025-09-10T18:22	10	0	0.1	0	1	392	0.3	391	392	16.9	80.1
2025-09-10T18:23	10	0	0.1	0	0	391	0.3	391	392	16.8	81.1
2025-09-10T18:24	10	0	0.0	0	0	391	0.2	391	391	16.7	84.6
2025-09-10T18:25	10	0	0.1	0	0	391	0.2	391	392	16.6	85.1
2025-09-10T18:26	10	0	0.1	0	0	391	0.3	391	392	16.7	83.2
2025-09-10T18:27	10	0	0.1	0	0	391	0.4	391	392	16.7	82.8
2025-09-10T18:28	10	0	0.1	0	0	392	0.3	391	393	16.8	81.5
2025-09-10T18:29	10	0	0.1	0	0	392	0.3	392	393	16.8	80.7
2025-09-10T18:30	10	0	0.0	0	0	393	0.3	392	393	16.8	80.3
2025-09-10T18:31	10	0	0.0	0	0	393	0.3	393	394	16.8	81.4
2025-09-10T18:32	10	0	0.1	0	0	393	0.3	393	394	16.8	81.6
2025-09-10T18:33	10	0	0.1	0	0	394	0.3	393	395	16.7	81.4
2025-09-10T18:34	10	0	0.1	0	0	394	0.2	394	395	16.7	82.2
2025-09-10T18:35	10	0	0.1	0	0	394	0.2	394	395	16.7	82.7
2025-09-10T18:36	10	0	0.1	0	0	394	0.3	394	395	16.7	82.4
2025-09-10T18:37	10	0	0.1	0	0	394	0.2	394	395	16.9	79.2
2025-09-10T18:38	10	0	0.1	0	0	394	0.3	393	395	16.9	79.4
2025-09-10T18:39	10	0	0.1	0	0	393	0.2	393	394	16.8	80.3
2025-09-10T18:40	10	0	0.1	0	0	393	0.3	392	394	16.7	81.2
2025-09-10T18:41	10	0	0.1	0	1	392	0.2	392	393	16.6	81.1
2025-09-10T18:42	10	0	0.1	0	1	392	0.2	391	392	16.6	81.2
2025-09-10T18:43	10	0	0.0	0	0	391	0.3	391	392	16.6	81.9
2025-09-10T18:44	10	0	0.1	0	0	391	0.3	390	391	16.7	82.6
2025-09-10T18:45	10	0	0.1	0	1	390	0.3	389	391	16.6	82.5
2025-09-10T18:46	10	0	0.1	0	1	390	0.2	389	390	16.6	82.0
2025-09-10T18:47	10	0	0.1	0	1	389	0.2	389	390	16.6	82.6
2025-09-10T18:48	10	0	0.1	0	0	390	0.2	389	390	16.7	80.1
2025-09-10T18:49	10	0	0.1	0	0	389	0.3	388	389	16.8	79.0
2025-09-10T18:50	10	0	0.1	0	1	389	0.2	389	389	16.8	78.8
2025-09-10T18:51	10	0	0.2	0	1	389	0.3	389	390	16.9	76.4
2025-09-10T18:52	10	0	0.1	0	1	389	0.2	389	390	17.2	74.4
2025-09-10T18:53	10	0	0.1	0	0	389	0.3	388	390	17.3	73.7
2025-09-10T18:54	10	0	0.2	0	1	388	0.5	387	389	17.3	74.2
2025-09-10T18:55	10	0	0.1	0	1	387	0.3	386	388	17.2	76.0
2025-09-10T18:56	10	0	0.1	0	1	387	0.3	387	388	17.1	75.8
2025-09-10T18:57	10	0	0.2	0	1	387	0.4	386	387	17.0	77.6
2025-09-10T18:58	10	0	0.2	0	1	387	0.3	386	387	17.0	76.0
2025-09-10T18:59	10	0	0.1	0	1	386	0.3	386	387	17.1	75.2
2025-09-10T19:00	10	0	0.2	0	1	386	0.3	385	387	17.0	75.8
2025-09-10T19:01	10	0	0.2	0	1	386	0.4	385	387	17.0	76.1
2025-09-10T19:02	10	0	0.1	0	1	386	0.3	385	387	17.0	75.9
2025-09-10T19:03	10	0	0.1	0	1	386	0.2	385	386	17.0	75.4
2025-09-10T19:04	10	0	0.1	0	0	386	0.2	385	386	17.0	74.8
2025-09-10T19:05	10	0	0.1	0	0	386	0.2	385	386	17.1	74.4
2025-09-10T19:06	10	0	0.1	0	0	386	0.2	385	386	17.1	74.3
2025-09-10T19:07	10	0	0.1	0	0	385	0.2	385	386	17.1	75.0
2025-09-10T19:08	10	0	0.1	0	0	385	0.3	385	386	17.2	74.0
2025-09-10T19:09	10	0	0.1	0	0	384	0.4	383	385	17.1	75.1
2025-09-10T19:10	10	0	0.1	0	0	383	0.3	383	384	16.9	76.8
2025-09-10T19:11	10	0	0.0	0	0	383	0.3	383	384	16.9	76.4
2025-09-10T19:12	10	0	0.0	0	0	383	0.2	382	384	17.0	75.1
2025-09-10T19:13	10	0	0.1	0	0	382	0.5	381	383	17.2	74.0
2025-09-10T19:14	10	0	0.1	0	0	382	0.3	381	382	17.0	76.3
2025-09-10T19:15	10	0	0.0	0	0	381	0.3	381	382	16.9	76.0
2025-09-10T19:16	10	0	0.0	0	0	381	0.3	381	382	17.0	75.2
2025-09-10T19:17	10	0	0.0	0	0	381	0.3	380	381	17.0	75.9
2025-09-10T19:18	10	0	0.0	0	0	381	0.2	380	381	16.9	75.9
2025-09-10T19:19	10	0	0.0	0	0	381	0.2	380	381	16.9	76.6
2025-09-10T19:20	10	0	0.1	0	0	381	0.2	380	381	16.8	77.3
2025-09-10T19:21	10	0	0.1	0	0	381	0.4	380	382	16.6	78.5
2025-09-10T19:22	10	0	0.1	0	0	382	0.2	382	383	16.4	80.4
2025-09-10T19:23	10	0	0.1	0	0	382	0.2	382	383	16.2	82.0
2025-09-10T19:24	10	0	0.1	0	0	383	0.3	382	383	16.1	82.0
2025-09-10T19:25	10	0	0.1	0	0	383	0.2	383	383	16.1	81.8
2025-09-10T19:26	10	0	0.1	0	0	383	0.3	382	383	16.1	82.0
2025-09-10T19:27	10	0	0.1	0	0	382	0.3	381	382	16.1	82.8
2025-09-10T19:28	10	0	0.1	0	0	381	0.2	381	382	16.0	82.9
2025-09-10T19:29	10	0	0.1	0	0	381	0.3	381	382	16.0	82.7
2025-09-10T19:30	10	0	0.1	0	0	380	0.3	379	381	15.9	83.5
2025-09-10T19:31	10	0	0.1	0	1	380	0.4	379	380	15.7	85.2
2025-09-10T19:32	10	0	0.1	0	1	379	0.2	378	379	15.6	86.5
2025-09-10T19:33	10	0	0.1	0	0	379	0.3	378	380	15.5	86.8
2025-09-10T19:34	10	0	0.1	0	0	380	0.5	379	381	15.5	86.0
2025-09-10T19:35	10	0	0.1	0	0	381	0.4	380	381	15.7	84.4
2025-09-10T19:36	10	0	0.1	0	0	382	0.9	381	384	15.7	84.2
2025-09-10T19:37	10	0	0.1	0	0	384	0.7	383	385	15.8	84.0
2025-09-10T19:38	10	0	0.1	0	0	385	0.5	384	386	15.8	83.8
2025-09-10T19:39	10	0	0.1	0	0	386	0.3	385	386	15.7	84.3
2025-09-10T19:40	10	0	0.1	0	1	386	0.2	385	386	15.5	85.5
2025-09-10T19:41	10	0	0.1	0	1	386	0.2	385	386	15.4	85.7
2025-09-10T19:42	10	0	0.1	0	0	386	0.2	386	386	15.5	85.3
2025-09-10T19:43	10	0	0.1	0	1	386	0.3	385	386	15.6	85.0
2025-09-10T19:44	10	0	0.1	0	1	386	0.3	385	386	15.6	85.2
2025-09-10T19:45	10	0	0.0	0	0	386	0.2	385	386	15.7	85.3
2025-09-10T19:46	10	0	0.0	0	0	385	0.3	384	386	15.6	86.0
2025-09-10T19:47	10	0	0.1	0	0	385	0.3	384	385	15.6	86.6
2025-09-10T19:48	10	0	0.1	0	0	385	0.4	384	386	15.7	86.4
2025-09-10T19:49	10	0	0.1	0	0	385	0.2	384	385	15.7	86.2
2025-09-10T19:50	10	0	0.1	0	0	385	0.3	384	386	15.7	86.3
2025-09-10T19:51	10	0	0.1	0	0	385	0.2	385	385	15.8	86.2
2025-09-10T19:52	10	0	0.1	0	0	385	0.2	385	386	15.8	86.1
2025-09-10T19:53	10	0	0.1	0	0	385	0.2	384	385	15.8	86.2
2025-09-10T19:54	10	0	0.1	0	0	385	0.2	384	385	15.8	86.2
2025-09-10T19:55	10	0	0.1	0	0	384	0.3	384	385	15.8	86.2
2025-09-10T19:56	10	0	0.1	0	0	384	0.2	384	385	15.7	86.4
2025-09-10T19:57	10	0	0.1	0	0	384	0.2	384	384	15.7	86.4
2025-09-10T19:58	10	0	0.1	0	0	384	0.3	383	384	15.7	86.3
2025-09-10T19:59	10	0	0.1	0	0	383	0.2	383	384	15.7	86.3
2025-09-10T20:00	10	0	0.1	0	0	383	0.3	383	384	15.7	86.4
2025-09-10T20:01	10	0	0.1	0	0	383	0.3	382	383	15.8	86.1
2025-09-10T20:02	10	0	0.1	0	0	382	0.3	382	383	15.7	86.5
2025-09-10T20:03	10	0	0.1	0	0	382	0.2	382	382	15.7	86.3
2025-09-10T20:04	10	0	0.0	0	0	382	0.3	381	382	15.7	86.3
2025-09-10T20:05	10	0	0.1	0	0	382	0.2	381	382	15.7	86.6
2025-09-10T20:06	10	0	0.1	0	0	382	0.2	382	383	15.7	86.6
2025-09-10T20:07	10	0	0.0	0	0	383	0.3	382	383	15.7	86.6
2025-09-10T20:08	10	0	0.1	0	0	383	0.3	382	384	15.7	86.5
2025-09-10T20:09	10	0	0.0	0	0	383	0.2	382	383	15.6	86.7
2025-09-10T20:10	10	0	0.1	0	1	383	0.2	382	383	15.6	86.8
2025-09-10T20:11	10	0	0.1	0	1	383	0.3	382	383	15.6	86.9
2025-09-10T20:12	10	0	0.1	0	1	383	0.2	382	383	15.5	87.6
2025-09-10T20:13	10	0	0.1	0	0	383	0.2	382	383	15.4	87.9
2025-09-10T20:14	10	0	0.1	0	0	383	0.2	382	383	15.4	85.3
2025-09-10T20:15	10	0	0.1	0	0	382	0.3	382	383	15.4	85.1
2025-09-10T20:16	10	0	0.1	0	0	382	0.2	382	383	15.4	88.0
2025-09-10T20:17	10	0	0.1	0	1	382	0.2	382	382	15.4	88.0
2025-09-10T20:18	10	0	0.1	0	0	382	0.2	381	382	15.4	88.0
2025-09-10T20:19	10	0	0.1	0	1	382	0.3	382	383	15.4	88.0
2025-09-10T20:20	10	0	0.1	0	0	383	0.2	382	383	15.4	88.0
2025-09-10T20:21	10	0	0.1	0	1	383	0.3	382	384	15.4	87.8
2025-09-10T20:22	10	0	0.1	0	0	383	0.4	382	384	15.4	87.4
2025-09-10T20:23	10	0	0.1	0	1	384	0.2	383	384	15.5	87.4
2025-09-10T20:24	10	0	0.1	0	0	384	0.2	383	384	15.4	87.6
2025-09-10T20:25	10	0	0.1	0	1	384	0.3	383	384	15.4	87.5
2025-09-10T20:26	10	0	0.1	0	1	383	0.3	383	384	15.4	87.6
2025-09-10T20:27	10	0	0.1	0	1	383	0.3	383	384	15.4	87.3
2025-09-10T20:28	10	0	0.1	0	1	384	0.2	383	384	15.5	87.1
2025-09-10T20:29	10	0	0.1	0	1	383	0.3	382	384	15.5	86.8
2025-09-10T20:30	10	0	0.2	0	1	383	0.2	383	384	15.5	86.8
2025-09-10T20:31	10	0	0.1	0	0	383	0.2	383	384	15.5	86.9
2025-09-10T20:32	10	0	0.1	0	1	383	0.3	383	384	15.5	86.5
2025-09-10T20:33	10	0	0.1	0	1	383	0.2	383	384	15.6	85.9
2025-09-10T20:34	10	0	0.1	0	0	383	0.2	383	384	15.6	85.0
2025-09-10T20:35	10	0	0.1	0	0	383	0.3	382	383	15.6	84.8
2025-09-10T20:36	10	0	0.1	0	0	382	0.2	382	383	15.6	84.9
2025-09-10T20:37	10	0	0.1	0	1	382	0.2	382	383	15.6	84.6
2025-09-10T20:38	10	0	0.1	0	0	382	0.2	382	383	15.7	84.4
2025-09-10T20:39	10	0	0.1	0	0	382	0.3	381	382	15.6	84.8
2025-09-10T20:40	10	0	0.1	0	0	382	0.3	382	383	15.7	84.3
2025-09-10T20:41	10	0	0.1	0	0	382	0.2	382	382	15.6	84.6
2025-09-10T20:42	10	0	0.1	0	0	382	0.3	381	382	15.6	84.3
2025-09-10T20:43	10	0	0.1	0	0	382	0.2	381	382	15.6	84.4
2025-09-10T20:44	10	0	0.1	0	0	382	0.3	381	382	15.6	84.2
2025-09-10T20:45	10	0	0.1	0	1	382	0.3	381	383	15.6	84.0
2025-09-10T20:46	10	0	0.1	0	0	382	0.2	381	382	15.6	83.9
2025-09-10T20:47	10	0	0.1	0	1	382	0.2	382	382	15.6	83.7
2025-09-10T20:48	10	0	0.1	0	0	382	0.2	382	383	15.6	83.7
2025-09-10T20:49	10	0	0.1	0	0	382	0.2	382	383	15.6	83.5
2025-09-10T20:50	10	0	0.1	0	0	382	0.3	382	383	15.6	83.2
2025-09-10T20:51	10	0	0.1	0	0	383	0.2	382	383	15.6	82.9
2025-09-10T20:52	10	0	0.1	0	0	383	0.2	382	383	15.6	82.5
2025-09-10T20:53	10	0	0.0	0	0	383	0.2	383	383	15.7	81.5
2025-09-10T20:54	10	0	0.1	0	0	383	0.2	383	384	15.7	80.6
2025-09-10T20:55	10	0	0.1	0	0	383	0.2	382	383	15.8	79.7
2025-09-10T20:56	10	0	0.1	0	0	383	0.2	382	383	15.8	79.9
2025-09-10T20:57	10	0	0.0	0	0	382	0.3	382	383	15.8	79.6
2025-09-10T20:58	10	0	0.1	0	0	382	0.3	382	383	15.8	79.4
2025-09-10T20:59	10	0	0.1	0	0	382	0.2	382	382	15.8	78.7
2025-09-10T21:00	10	0	0.1	0	0	382	0.3	381	382	15.7	79.5
2025-09-10T21:01	10	0	0.1	0	0	381	0.3	380	382	15.7	78.8
2025-09-10T21:02	10	0	0.1	0	0	381	0.2	381	382	15.7	79.5
2025-09-10T21:03	10	0	0.1	0	0	381	0.2	380	381	15.7	78.8
2025-09-10T21:04	10	0	0.0	0	0	380	0.3	380	381	15.7	78.0
2025-09-10T21:05	10	0	0.1	0	0	380	0.2	380	381	15.8	76.8
2025-09-10T21:06	10	0	0.0	0	0	380	0.2	379	381	15.9	76.0
2025-09-10T21:07	10	0	0.1	0	0	380	0.3	379	380	15.9	76.3
2025-09-10T21:08	10	0	0.1	0	0	380	0.3	379	380	15.9	76.2
2025-09-10T21:09	10	0	0.1	0	0	380	0.2	379	380	15.8	77.1
2025-09-10T21:10	10	0	0.1	0	0	379	0.2	379	380	15.8	76.3
2025-09-10T21:11	10	0	0.1	0	0	379	0.3	378	380	15.8	76.1
2025-09-10T21:12	10	0	0.1	0	0	379	0.3	378	379	15.8	76.2
2025-09-10T21:13	10	0	0.1	0	0	379	0.2	378	379	15.7	76.8
2025-09-10T21:14	10	0	0.1	0	0	378	0.2	378	379	15.7	76.5
2025-09-10T21:15	10	0	0.1	0	0	378	0.3	378	379	15.7	76.1
2025-09-10T21:16	10	0	0.0	0	0	378	0.3	377	378	15.7	76.2
2025-09-10T21:17	10	0	0.0	0	0	378	0.2	377	378	15.6	76.4
2025-09-10T21:18	10	0	0.0	0	0	377	0.3	377	378	15.6	76.8
2025-09-10T21:19	10	0	0.1	0	0	377	0.2	377	378	15.6	76.6
2025-09-10T21:20	10	0	0.1	0	0	377	0.2	376	377	15.6	76.4
2025-09-10T21:21	10	0	0.0	0	0	377	0.2	376	377	15.6	76.6
2025-09-10T21:22	10	0	0.0	0	0	377	0.3	376	377	15.5	77.4
2025-09-10T21:23	10	0	0.1	0	0	376	0.3	376	377	15.4	77.9
2025-09-10T21:24	10	0	0.1	0	0	376	0.2	376	377	15.4	78.0
2025-09-10T21:25	10	0	0.0	0	0	376	0.2	376	376	15.4	77.6
2025-09-10T21:26	10	0	0.1	0	0	376	0.3	375	376	15.4	78.1
2025-09-10T21:27	10	0	0.1	0	0	376	0.3	376	377	15.4	77.8
2025-09-10T21:28	10	0	0.0	0	0	376	0.3	376	377	15.4	77.6
2025-09-10T21:29	10	0	0.1	0	0	376	0.3	376	377	15.4	77.7
2025-09-10T21:30	10	0	0.0	0	0	376	0.2	376	377	15.4	77.6
2025-09-10T21:31	10	0	0.1	0	0	377	0.2	376	377	15.4	77.7
2025-09-10T21:32	10	0	0.1	0	0	377	0.2	376	377	15.3	77.8
2025-09-10T21:33	10	0	0.1	0	0	377	0.3	376	378	15.3	77.8
2025-09-10T21:34	10	0	0.1	0	0	378	0.5	377	379	15.3	77.9
2025-09-10T21:35	10	0	0.1	0	0	378	0.4	378	379	15.3	77.7
2025-09-10T21:36	10	0	0.1	0	0	379	0.3	378	379	15.3	77.6
2025-09-10T21:37	10	0	0.1	0	0	379	0.2	379	380	15.3	77.5
2025-09-10T21:38	10	0	0.1	0	0	380	0.3	379	381	15.3	77.5
2025-09-10T21:39	10	0	0.1	0	0	381	0.3	380	381	15.3	77.7
2025-09-10T21:40	10	0	0.1	0	0	381	0.2	380	381	15.3	77.8
2025-09-10T21:41	10	0	0.1	0	0	382	0.3	381	382	15.3	78.0
2025-09-10T21:42	10	0	0.1	0	0	382	0.3	381	383	15.3	77.8
2025-09-10T21:43	10	0	0.1	0	0	382	0.2	381	382	15.3	77.6
2025-09-10T21:44	10	0	0.1	0	0	382	0.2	382	382	15.3	77.7
2025-09-10T21:45	10	0	0.1	0	0	382	0.3	381	383	15.3	77.5
2025-09-10T21:46	10	0	0.1	0	0	382	0.3	382	383	15.4	77.0
2025-09-10T21:47	10	0	0.1	0	0	382	0.2	382	383	15.4	77.6
2025-09-10T21:48	10	0	0.1	0	0	382	0.3	382	383	15.4	77.8
2025-09-10T21:49	10	0	0.1	0	0	383	0.2	382	383	15.4	77.1
2025-09-10T21:50	10	0	0.1	0	0	383	0.3	382	383	15.5	77.0
2025-09-10T21:51	10	0	0.1	0	0	383	0.3	382	384	15.4	77.0
2025-09-10T21:52	10	0	0.1	0	0	383	0.2	382	384	15.4	77.6
2025-09-10T21:53	10	0	0.1	0	0	383	0.3	382	384	15.4	77.3
2025-09-10T21:54	10	0	0.1	0	0	383	0.2	383	384	15.4	77.3
2025-09-10T21:55	10	0	0.1	0	0	383	0.2	383	384	15.4	77.7
2025-09-10T21:56	10	0	0.1	0	0	383	0.2	383	384	15.3	78.0
2025-09-10T21:57	10	0	0.1	0	0	383	0.2	383	384	15.3	78.2
2025-09-10T21:58	10	0	0.1	0	0	383	0.2	383	384	15.3	78.4
2025-09-10T21:59	10	0	0.1	0	0	383	0.2	383	384	15.2	78.8
2025-09-10T22:00	10	0	0.1	0	0	384	0.2	383	384	15.2	78.8
2025-09-10T22:01	10	0	0.1	0	0	384	0.3	383	384	15.2	78.7
2025-09-10T22:02	10	0	0.1	0	0	384	0.2	383	384	15.2	79.3
2025-09-10T22:03	10	0	0.1	0	0	384	0.2	383	384	15.1	79.9
2025-09-10T22:04	10	0	0.1	0	0	384	0.3	384	385	15.2	79.3
2025-09-10T22:05	10	0	0.1	0	0	384	0.2	384	385	15.2	79.3
2025-09-10T22:06	10	0	0.1	0	0	385	0.2	384	385	15.2	78.8
2025-09-10T22:07	10	0	0.1	0	0	384	0.3	384	385	15.2	79.2
2025-09-10T22:08	10	0	0.1	0	0	384	0.2	384	385	15.1	80.1
2025-09-10T22:09	10	0	0.1	0	0	384	0.2	384	385	15.1	81.2
2025-09-10T22:10	10	0	0.1	0	0	384	0.3	383	384	15.0	82.1
2025-09-10T22:11	10	0	0.1	0	0	384	0.2	383	384	14.9	83.2
2025-09-10T22:12	10	0	0.1	0	0	384	0.2	383	384	14.8	84.4
2025-09-10T22:13	10	0	0.1	0	0	384	0.2	383	384	14.7	85.3
2025-09-10T22:14	10	0	0.1	0	0	383	0.3	383	384	14.7	85.5
2025-09-10T22:15	10	0	0.1	0	0	383	0.2	383	384	14.6	85.3
2025-09-10T22:16	10	0	0.1	0	0	384	0.2	383	384	14.6	85.3
2025-09-10T22:17	10	0	0.1	0	0	384	0.2	383	384	14.6	85.0
2025-09-10T22:18	10	0	0.1	0	0	384	0.3	383	384	14.6	85.3
2025-09-10T22:19	10	0	0.1	0	0	383	0.2	383	384	14.6	85.4
2025-09-10T22:20	10	0	0.1	0	0	384	0.2	383	384	14.6	85.7
2025-09-10T22:21	10	0	0.1	0	0	384	0.2	383	384	14.6	85.8
2025-09-10T22:22	10	0	0.1	0	0	384	0.3	383	385	14.6	86.5
2025-09-10T22:23	10	0	0.1	0	0	384	0.2	383	384	14.6	86.3
2025-09-10T22:24	10	0	0.1	0	0	384	0.2	383	384	14.6	86.2
2025-09-10T22:25	10	0	0.1	0	0	384	0.2	383	384	14.6	85.9
2025-09-10T22:26	10	0	0.1	0	0	384	0.3	383	384	14.7	84.8
2025-09-10T22:27	10	0	0.1	0	0	384	0.2	383	384	14.7	85.4
2025-09-10T22:28	10	0	0.1	0	0	384	0.2	383	384	14.6	86.6
2025-09-10T22:29	10	0	0.1	0	0	384	0.2	383	384	14.6	85.6
2025-09-10T22:30	10	0	0.1	0	0	383	0.3	383	384	14.6	86.4
2025-09-10T22:31	10	0	0.1	0	0	384	0.2	383	384	14.6	85.9
2025-09-10T22:32	10	0	0.1	0	0	384	0.2	383	385	14.6	86.1
2025-09-10T22:33	10	0	0.1	0	0	384	0.2	383	384	14.6	85.7
2025-09-10T22:34	10	0	0.1	0	0	384	0.3	383	384	14.6	85.9
2025-09-10T22:35	10	0	0.1	0	0	384	0.3	383	384	14.6	86.4
2025-09-10T22:36	10	0	0.1	0	0	384	0.2	383	384	14.5	86.1
2025-09-10T22:37	10	0	0.1	0	0	384	0.2	384	385	14.6	85.9
2025-09-10T22:38	10	0	0.1	0	0	384	0.3	384	385	14.6	85.0
2025-09-10T22:39	10	0	0.1	0	1	384	0.2	384	385	14.6	84.6
2025-09-10T22:40	10	0	0.1	0	0	384	0.3	384	385	14.7	84.0
2025-09-10T22:41	10	0	0.1	0	0	384	0.2	384	385	14.8	83.6
2025-09-10T22:42	10	0	0.1	0	0	385	0.2	384	385	14.8	83.6
2025-09-10T22:43	10	0	0.1	0	0	385	0.2	384	385	14.8	83.7
2025-09-10T22:44	10	0	0.1	0	0	385	0.2	385	386	14.8	83.5
2025-09-10T22:45	10	0	0.1	0	0	385	0.2	385	386	14.8	83.9
2025-09-10T22:46	10	0	0.1	0	0	385	0.3	385	386	14.8	83.7
2025-09-10T22:47	10	0	0.1	0	0	385	0.2	385	386	14.8	83.6
2025-09-10T22:48	10	0	0.1	0	0	385	0.2	385	386	14.8	84.2
2025-09-10T22:49	10	0	0.1	0	0	385	0.2	385	386	14.8	83.8
2025-09-10T22:50	10	0	0.1	0	0	386	0.2	385	386	14.9	83.1
2025-09-10T22:51	10	0	0.1	0	1	386	0.2	385	386	14.9	83.0
2025-09-10T22:52	10	0	0.1	0	0	386	0.2	385	386	15.0	82.7
2025-09-10T22:53	10	0	0.1	0	0	386	0.2	385	386	14.9	83.3
2025-09-10T22:54	10	0	0.1	0	0	386	0.2	385	386	14.9	83.7
2025-09-10T22:55	10	0	0.1	0	0	386	0.3	386	387	14.9	83.6
2025-09-10T22:56	10	0	0.1	0	0	386	0.3	385	387	14.9	83.1
2025-09-10T22:57	10	0	0.1	0	0	386	0.3	386	387	14.9	83.1
2025-09-10T22:58	10	0	0.1	0	0	386	0.2	386	387	14.9	83.0
2025-09-10T22:59	10	0	0.1	0	0	386	0.2	386	387	14.9	82.9
2025-09-10T23:00	10	0	0.1	0	0	387	0.2	386	387	15.0	82.6
2025-09-10T23:01	10	0	0.1	0	0	386	0.2	386	387	15.1	82.0
2025-09-10T23:02	10	0	0.1	0	0	387	0.2	386	387	15.1	81.6
2025-09-10T23:03	10	0	0.1	0	1	387	0.3	386	387	15.2	81.2
2025-09-10T23:04	10	0	0.1	0	0	386	0.2	386	387	15.2	81.1
2025-09-10T23:05	10	0	0.1	0	0	387	0.2	386	387	15.2	81.1
2025-09-10T23:06	10	0	0.1	0	0	387	0.2	386	387	15.2	81.2
2025-09-10T23:07	10	0	0.1	0	0	386	0.2	386	387	15.2	81.1
2025-09-10T23:08	10	0	0.1	0	0	386	0.2	386	387	15.2	81.3
2025-09-10T23:09	10	0	0.1	0	0	386	0.3	386	387	15.2	82.0
2025-09-10T23:10	10	0	0.1	0	0	386	0.2	386	387	15.1	84.0
2025-09-10T23:11	10	0	0.1	0	1	386	0.3	386	387	15.1	83.3
2025-09-10T23:12	10	0	0.1	0	0	386	0.2	385	386	15.1	83.3
2025-09-10T23:13	10	0	0.0	0	0	386	0.2	385	386	15.0	83.8
2025-09-10T23:14	10	0	0.1	0	0	386	0.2	385	386	15.0	84.4
2025-09-10T23:15	10	0	0.1	0	0	385	0.2	385	386	14.9	84.8
2025-09-10T23:16	10	0	0.1	0	1	385	0.2	385	386	14.9	85.0
2025-09-10T23:17	10	0	0.1	0	0	385	0.2	385	386	14.8	85.5
2025-09-10T23:18	10	0	0.1	0	0	385	0.2	384	385	14.8	86.1
2025-09-10T23:19	10	0	0.1	0	1	385	0.3	384	385	14.8	86.1
2025-09-10T23:20	10	0	0.1	0	0	385	0.2	384	385	14.8	86.5
2025-09-10T23:21	10	0	0.1	0	0	384	0.2	384	385	14.7	87.4
2025-09-10T23:22	10	0	0.1	0	1	384	0.2	384	385	14.7	87.2
2025-09-10T23:23	10	0	0.1	0	1	384	0.5	383	385	14.7	86.4
2025-09-10T23:24	10	0	0.1	0	1	384	0.5	383	385	15.1	84.0
2025-09-10T23:25	10	0	0.0	0	0	384	0.3	383	384	14.8	86.7
2025-09-10T23:26	10	0	0.1	0	1	383	0.3	383	384	14.7	86.9
2025-09-10T23:27	10	0	0.1	0	1	383	0.2	383	384	14.7	87.1
2025-09-10T23:28	10	0	0.1	0	0	384	0.2	383	384	14.8	86.5
2025-09-10T23:29	10	0	0.1	0	0	384	0.3	383	384	14.8	87.0
2025-09-10T23:30	10	0	0.1	0	0	384	0.2	383	384	14.8	86.9
2025-09-10T23:31	10	0	0.1	0	0	384	0.4	383	385	14.8	87.2
2025-09-10T23:32	10	0	0.1	0	0	384	0.3	384	385	14.8	87.1
2025-09-10T23:33	10	0	0.1	0	0	384	0.2	384	385	14.9	86.5
2025-09-10T23:34	10	0	0.1	0	0	384	0.3	384	385	15.0	86.2
2025-09-10T23:35	10	0	0.1	0	0	384	0.2	384	385	15.0	85.9
2025-09-10T23:36	10	0	0.6	0	5	384	0.2	384	385	15.0	86.6
2025-09-10T23:37	10	0	0.1	0	1	385	0.2	384	385	15.0	86.6
2025-09-10T23:38	10	0	0.1	0	1	384	0.3	384	385	15.0	86.0
2025-09-10T23:39	10	0	0.1	0	0	385	0.2	384	385	15.0	86.8
2025-09-10T23:40	10	0	0.1	0	0	385	0.2	384	385	15.0	87.0
2025-09-10T23:41	10	0	0.1	0	1	385	0.2	384	385	15.0	87.1
2025-09-10T23:42	10	0	0.1	0	0	385	0.2	385	385	14.9	87.6
2025-09-10T23:43	10	0	0.1	0	1	385	0.3	385	386	14.9	87.7
2025-09-10T23:44	10	0	0.1	0	0	385	0.2	385	386	14.9	87.4
2025-09-10T23:45	10	0	0.1	0	1	385	0.2	385	386	15.0	87.2
2025-09-10T23:46	10	0	0.1	0	0	385	0.2	385	386	15.0	87.3
2025-09-10T23:47	10	0	0.1	0	0	385	0.2	385	386	15.0	88.1
2025-09-10T23:48	10	0	0.1	0	1	385	0.2	385	386	14.9	88.8
2025-09-10T23:49	10	0	0.1	0	0	385	0.2	384	385	14.9	88.5
2025-09-10T23:50	10	0	0.1	0	0	385	0.2	385	386	14.9	88.7
2025-09-10T23:51	10	0	0.1	0	1	385	0.3	385	386	14.9	88.0
2025-09-10T23:52	10	0	0.1	0	0	385	0.3	385	386	15.0	87.9
2025-09-10T23:53	10	0	0.1	0	1	385	0.3	385	386	15.0	88.0
2025-09-10T23:54	10	0	0.1	0	1	386	0.3	385	386	15.0	87.8
2025-09-10T23:55	10	0	0.1	0	0	386	0.2	385	386	15.0	87.4
2025-09-10T23:56	10	0	0.1	0	0	386	0.2	385	386	15.1	87.3
2025-09-10T23:57	10	0	0.1	0	0	386	0.2	385	386	15.1	86.4
2025-09-10T23:58	10	0	0.1	0	0	386	0.2	385	386	15.1	86.3
2025-09-10T23:59	10	0	0.1	0	0	386	0.2	385	386	15.2	86.2
2025-09-11T00:00	10	0	0.5	0	4	386	0.2	385	386	15.2	86.0
2025-09-11T00:01	10	0	0.1	0	1	386	0.2	386	387	15.2	85.9
2025-09-11T00:02	10	0	0.1	0	0	386	0.2	386	386	15.2	85.6
2025-09-11T00:03	10	0	0.1	0	1	386	0.2	386	387	15.3	85.8
2025-09-11T00:04	10	0	0.1	0	0	386	0.2	386	386	15.3	85.1
2025-09-11T00:05	10	0	0.1	0	0	386	0.3	385	387	15.3	85.4
2025-09-11T00:06	10	0	0.1	0	0	386	0.2	385	386	15.3	85.7
2025-09-11T00:07	10	0	0.1	0	0	386	0.2	386	387	15.4	85.5
2025-09-11T00:08	10	0	0.1	0	0	386	0.2	385	387	15.4	85.6
2025-09-11T00:09	10	0	0.1	0	0	386	0.3	385	387	15.3	86.3
2025-09-11T00:10	10	0	0.1	0	0	386	0.3	385	387	15.3	86.9
2025-09-11T00:11	10	0	0.1	0	0	386	0.2	386	386	15.3	86.6
2025-09-11T00:12	10	0	0.1	0	0	386	0.2	385	387	15.3	86.4
2025-09-11T00:13	10	0	0.1	0	0	386	0.2	386	386	15.3	86.5
2025-09-11T00:14	10	0	0.1	0	0	386	0.3	385	386	15.3	86.9
2025-09-11T00:15	10	0	0.1	0	0	386	0.3	385	386	15.2	87.7
2025-09-11T00:16	10	0	0.1	0	0	385	0.2	385	386	15.1	87.5
2025-09-11T00:17	10	0	0.1	0	0	386	0.2	385	386	15.2	87.1
2025-09-11T00:18	10	0	0.1	0	0	385	0.2	385	386	15.1	87.4
2025-09-11T00:19	10	0	0.1	0	0	385	0.2	385	386	15.1	87.6
2025-09-11T00:20	10	0	0.1	0	0	385	0.3	385	386	15.1	87.6
2025-09-11T00:21	10	0	0.1	0	0	385	0.2	385	386	15.1	87.6
2025-09-11T00:22	10	0	0.1	0	0	385	0.3	384	386	15.1	87.1
2025-09-11T00:23	10	0	0.1	0	0	386	0.3	385	386	15.2	86.2
2025-09-11T00:24	10	0	0.1	0	0	385	0.2	385	386	15.2	87.4
2025-09-11T00:25	10	0	0.1	0	0	386	0.3	385	386	15.2	87.0
2025-09-11T00:26	10	0	0.1	0	0	386	0.2	385	386	15.2	86.6
2025-09-11T00:27	10	0	0.1	0	1	386	0.2	385	386	15.3	86.5
2025-09-11T00:28	10	0	0.1	0	0	386	0.3	385	386	15.2	87.0
2025-09-11T00:29	10	0	0.1	0	0	386	0.2	385	386	15.3	86.4
2025-09-11T00:30	10	0	0.1	0	0	385	0.2	385	386	15.2	87.3
2025-09-11T00:31	10	0	0.1	0	0	385	0.2	385	386	15.1	88.1
2025-09-11T00:32	10	0	0.1	0	1	385	0.2	385	386	15.1	88.9
2025-09-11T00:33	10	0	0.1	0	0	385	0.2	385	386	15.0	89.9
2025-09-11T00:34	10	0	0.1	0	1	385	0.2	385	386	14.9	90.6
2025-09-11T00:35	10	0	0.1	0	1	385	0.2	385	386	14.9	89.4
2025-09-11T00:36	10	0	0.1	0	0	385	0.2	385	386	15.0	89.8
2025-09-11T00:37	10	0	0.1	0	0	385	0.2	385	386	15.0	89.1
2025-09-11T00:38	10	0	0.1	0	1	386	0.2	385	386	15.0	89.7
2025-09-11T00:39	10	0	0.1	0	0	386	0.2	385	386	15.0	90.1
2025-09-11T00:40	10	0	0.1	0	0	385	0.2	385	386	15.0	89.9
2025-09-11T00:41	10	0	0.1	0	0	386	0.2	385	386	15.0	89.8
2025-09-11T00:42	10	0	0.1	0	0	386	0.2	385	386	15.0	89.8
2025-09-11T00:43	10	0	0.1	0	1	386	0.2	385	386	15.0	89.7
2025-09-11T00:44	10	0	0.1	0	0	385	0.2	385	386	15.0	88.9
2025-09-11T00:45	10	0	0.1	0	0	385	0.2	385	386	15.0	88.8
2025-09-11T00:46	10	0	0.0	0	0	386	0.2	385	386	15.0	89.2
2025-09-11T00:47	10	0	0.1	0	1	386	0.2	385	386	15.0	89.4
2025-09-11T00:48	10	0	0.1	0	0	385	0.3	385	386	14.9	89.8
2025-09-11T00:49	10	0	0.1	0	0	385	0.2	385	386	14.9	89.9
2025-09-11T00:50	10	0	0.1	0	0	385	0.2	385	386	14.9	89.8
2025-09-11T00:51	10	0	0.1	0	1	385	0.2	385	386	14.9	89.5
2025-09-11T00:52	10	0	0.1	0	0	385	0.2	385	386	14.9	90.6
2025-09-11T00:53	10	0	0.1	0	1	385	0.2	384	386	14.8	91.6
2025-09-11T00:54	10	0	0.1	0	1	385	0.2	385	385	14.8	91.9
2025-09-11T00:55	10	0	0.1	0	1	385	0.2	384	385	14.7	91.4
2025-09-11T00:56	10	0	0.1	0	1	385	0.2	384	385	14.7	91.6
2025-09-11T00:57	10	0	0.1	0	0	385	0.2	384	386	14.7	91.8
2025-09-11T00:58	10	0	0.1	0	0	385	0.2	384	385	14.7	92.3
2025-09-11T00:59	10	0	0.0	0	0	385	0.2	384	385	14.7	92.6
2025-09-11T01:00	10	0	0.1	0	0	385	0.2	385	385	14.7	92.6
2025-09-11T01:01	10	0	0.1	0	0	385	0.2	384	386	14.7	92.8
2025-09-11T01:02	10	0	0.1	0	1	385	0.2	385	386	14.7	93.2
2025-09-11T01:03	10	0	0.1	0	0	385	0.2	385	386	14.7	93.3
2025-09-11T01:04	10	0	0.1	0	0	385	0.2	385	386	14.7	92.4
2025-09-11T01:05	10	0	0.1	0	0	385	0.2	385	386	14.7	91.4
2025-09-11T01:06	10	0	0.0	0	1	385	0.2	385	386	14.8	91.0
2025-09-11T01:07	10	0	0.1	0	1	385	0.2	385	386	14.8	90.3
2025-09-11T01:08	10	0	0.1	0	0	385	0.2	385	386	14.9	89.7
2025-09-11T01:09	10	0	0.1	0	1	385	0.2	385	386	14.9	90.2
2025-09-11T01:10	10	0	0.1	0	1	385	0.2	385	386	14.9	89.9
2025-09-11T01:11	10	0	0.1	0	1	385	0.2	385	386	14.9	89.9
2025-09-11T01:12	10	0	0.1	0	0	385	0.2	385	386	14.9	90.4
2025-09-11T01:13	10	0	0.0	0	0	385	0.2	385	386	14.9	90.3
2025-09-11T01:14	10	0	0.1	0	1	385	0.2	385	385	14.9	90.2
2025-09-11T01:15	10	0	0.1	0	1	385	0.3	384	386	14.9	90.3
2025-09-11T01:16	10	0	0.1	0	1	385	0.2	385	386	14.9	90.3
2025-09-11T01:17	10	0	0.1	0	1	385	0.3	384	386	14.9	90.2
2025-09-11T01:18	10	0	0.1	0	1	385	0.2	385	386	14.9	89.7
2025-09-11T01:19	10	0	0.1	0	1	385	0.3	384	386	15.0	89.4
2025-09-11T01:20	10	0	0.1	0	1	385	0.3	385	386	15.0	89.3
2025-09-11T01:21	10	0	0.1	0	1	385	0.2	384	385	15.0	89.1
2025-09-11T01:22	10	0	0.1	0	1	385	0.3	384	386	15.0	89.2
2025-09-11T01:23	10	1	0.1	0	1	385	0.2	385	386	15.0	89.1
2025-09-11T01:24	10	0	0.1	0	1	385	0.3	384	386	15.0	89.7
2025-09-11T01:25	10	0	0.1	0	1	385	0.2	385	385	15.0	89.6
2025-09-11T01:26	10	0	0.1	0	0	385	0.2	384	385	15.0	90.1
2025-09-11T01:27	10	0	0.1	0	0	385	0.2	384	385	14.9	90.4
2025-09-11T01:28	10	0	0.1	0	0	385	0.2	385	385	14.9	90.3
2025-09-11T01:29	10	0	0.1	0	1	385	0.2	384	385	14.9	90.4
2025-09-11T01:30	10	0	0.1	0	0	385	0.2	384	385	15.0	89.9
2025-09-11T01:31	10	0	0.1	0	0	385	0.2	384	385	15.0	89.6
2025-09-11T01:32	10	0	0.1	0	1	385	0.3	384	386	15.1	89.2
2025-09-11T01:33	10	0	0.1	0	1	385	0.2	384	385	15.1	89.0
2025-09-11T01:34	10	0	0.1	0	1	385	0.3	385	386	15.1	88.8
2025-09-11T01:35	10	0	0.1	0	1	385	0.2	384	385	15.1	89.3
2025-09-11T01:36	10	0	0.1	0	1	385	0.3	384	385	15.1	88.6
2025-09-11T01:37	10	0	0.1	0	1	385	0.2	385	386	15.3	87.8
2025-09-11T01:38	10	0	0.1	0	1	385	0.3	385	386	15.3	87.6
2025-09-11T01:39	10	0	0.1	0	1	385	0.2	385	386	15.3	87.7
2025-09-11T01:40	10	0	0.1	0	1	385	0.3	385	386	15.3	87.1
2025-09-11T01:41	10	0	0.1	0	1	385	0.3	385	386	15.3	87.2
2025-09-11T01:42	10	0	0.1	0	1	385	0.2	385	386	15.3	87.2
2025-09-11T01:43	10	0	0.1	0	1	385	0.2	385	386	15.3	87.5
2025-09-11T01:44	10	0	0.1	0	0	385	0.2	385	386	15.3	87.2
2025-09-11T01:45	10	0	0.1	0	1	386	0.2	385	386	15.4	86.7
2025-09-11T01:46	10	0	0.1	0	0	385	0.3	385	386	15.4	87.2
2025-09-11T01:47	10	0	0.1	0	1	385	0.3	385	386	15.3	87.2
2025-09-11T01:48	10	0	0.1	0	0	385	0.2	385	386	15.4	87.2
2025-09-11T01:49	10	0	0.0	0	0	385	0.3	385	386	15.3	87.6
2025-09-11T01:50	10	0	0.1	0	1	385	0.3	385	386	15.4	86.7
2025-09-11T01:51	10	0	0.1	0	0	385	0.2	385	385	15.4	86.7
2025-09-11T01:52	10	0	0.1	0	0	385	0.2	385	386	15.4	87.1
2025-09-11T01:53	10	0	0.1	0	0	385	0.2	384	386	15.4	87.0
2025-09-11T01:54	10	0	0.1	0	0	385	0.3	384	385	15.3	87.1
2025-09-11T01:55	10	0	0.1	0	0	384	0.2	384	385	15.3	87.5
2025-09-11T01:56	10	0	0.1	0	0	384	0.3	384	385	15.3	87.6
2025-09-11T01:57	10	0	0.1	0	0	384	0.2	383	384	15.3	87.4
2025-09-11T01:58	10	0	0.1	0	0	384	0.2	383	384	15.3	87.5
2025-09-11T01:59	10	0	0.1	0	0	383	0.2	382	384	15.2	87.9
2025-09-11T02:00	10	0	0.1	0	0	383	0.2	383	384	15.3	87.6
2025-09-11T02:01	10	0	0.1	0	0	384	0.2	383	384	15.2	87.9
2025-09-11T02:02	10	0	0.0	0	0	383	0.2	383	384	15.2	88.1
2025-09-11T02:03	10	0	0.1	0	0	384	0.2	383	384	15.2	88.0
2025-09-11T02:04	10	0	0.1	0	0	384	0.2	384	384	15.1	88.7
2025-09-11T02:05	10	0	0.0	0	0	384	0.2	384	385	15.1	89.0
2025-09-11T02:06	10	0	0.1	0	0	385	0.2	384	385	15.2	88.1
2025-09-11T02:07	10	0	0.1	0	0	385	0.2	384	385	15.2	87.7
2025-09-11T02:08	10	0	0.1	0	0	385	0.2	385	386	15.3	87.3
2025-09-11T02:09	10	0	0.0	0	0	385	0.2	385	386	15.3	87.6
2025-09-11T02:10	10	0	0.1	0	0	386	0.2	385	386	15.3	87.6
2025-09-11T02:11	10	0	0.1	0	0	385	0.2	385	386	15.3	87.5
2025-09-11T02:12	10	0	0.1	0	0	385	0.2	385	386	15.3	87.7
2025-09-11T02:13	10	0	0.1	0	0	386	0.2	385	386	15.2	88.0
2025-09-11T02:14	10	0	0.1	0	0	386	0.2	385	386	15.3	87.9
2025-09-11T02:15	10	0	0.1	0	1	386	0.3	385	386	15.3	87.4
2025-09-11T02:16	10	0	0.1	0	0	386	0.2	385	386	15.3	87.4
2025-09-11T02:17	10	0	0.1	0	0	386	0.2	385	386	15.3	87.6
2025-09-11T02:18	10	0	0.1	0	0	386	0.2	385	386	15.4	86.9
2025-09-11T02:19	10	0	0.1	0	0	385	0.3	384	386	15.4	87.2
2025-09-11T02:20	10	0	0.1	0	1	385	0.2	385	386	15.4	86.9
2025-09-11T02:21	10	0	0.1	0	0	385	0.2	385	385	15.3	87.7
2025-09-11T02:22	10	0	0.1	0	0	385	0.2	385	385	15.3	87.7
2025-09-11T02:23	10	0	0.1	0	0	385	0.3	384	386	15.3	87.7
2025-09-11T02:24	10	0	0.1	0	0	385	0.2	385	386	15.3	87.8
2025-09-11T02:25	10	0	0.1	0	0	385	0.2	385	386	15.3	88.2
2025-09-11T02:26	10	0	0.1	0	0	385	0.2	385	386	15.2	88.3
2025-09-11T02:27	10	0	0.1	0	0	385	0.2	385	386	15.2	88.7
2025-09-11T02:28	10	0	0.1	0	0	385	0.2	385	386	15.2	88.9
2025-09-11T02:29	10	0	0.1	0	0	385	0.3	385	386	15.2	88.8
2025-09-11T02:30	10	0	0.1	0	0	386	0.2	385	386	15.1	89.1
2025-09-11T02:31	10	0	0.1	0	0	385	0.2	385	386	15.1	89.4
2025-09-11T02:32	10	0	0.1	0	0	385	0.2	385	386	15.2	88.7
2025-09-11T02:33	10	0	0.1	0	0	385	0.2	385	386	15.2	89.0
2025-09-11T02:34	10	0	0.1	0	0	385	0.2	385	386	15.2	88.9
2025-09-11T02:35	10	0	0.1	0	0	385	0.2	385	386	15.3	88.2
2025-09-11T02:36	10	0	0.1	0	0	385	0.2	385	386	15.3	88.3
2025-09-11T02:37	10	0	0.1	0	0	385	0.2	385	386	15.3	87.4
2025-09-11T02:38	10	0	0.1	0	0	385	0.2	384	385	15.3	87.6
2025-09-11T02:39	10	0	0.1	0	0	385	0.3	384	386	15.3	87.9
2025-09-11T02:40	10	0	0.1	0	0	385	0.2	385	386	15.4	87.4
2025-09-11T02:41	10	0	0.1	0	0	385	0.2	385	386	15.4	87.1
2025-09-11T02:42	10	0	0.1	0	0	386	0.2	385	386	15.4	87.4
2025-09-11T02:43	10	0	0.1	0	0	386	0.2	385	386	15.4	87.4
2025-09-11T02:44	10	0	0.1	0	0	386	0.2	385	386	15.4	87.3
2025-09-11T02:45	10	0	0.1	0	0	386	0.2	385	386	15.4	87.3
2025-09-11T02:46	10	0	0.0	0	0	386	0.2	385	386	15.4	87.8
2025-09-11T02:47	10	0	0.1	0	0	386	0.3	385	387	15.3	87.9
2025-09-11T02:48	10	0	0.1	0	0	386	0.2	385	387	15.3	88.1
2025-09-11T02:49	10	0	0.1	0	0	386	0.3	385	387	15.3	88.3
2025-09-11T02:50	10	0	0.1	0	0	386	0.2	386	387	15.3	87.9
2025-09-11T02:51	10	0	0.1	0	0	386	0.2	385	386	15.3	87.8
2025-09-11T02:52	10	0	0.1	0	0	386	0.3	385	387	15.3	88.3
2025-09-11T02:53	10	0	0.1	0	0	386	0.3	386	387	15.3	88.4
2025-09-11T02:54	10	0	0.1	0	0	386	0.2	386	387	15.3	88.0
2025-09-11T02:55	10	0	0.1	0	0	386	0.3	386	387	15.4	87.3
2025-09-11T02:56	10	0	0.1	0	0	386	0.2	386	387	15.4	87.3
2025-09-11T02:57	10	0	0.1	0	0	386	0.2	386	387	15.4	87.3
2025-09-11T02:58	10	0	0.1	0	0	386	0.2	386	387	15.4	87.3
2025-09-11T02:59	10	0	0.0	0	0	386	0.2	386	387	15.4	87.2
2025-09-11T03:00	10	0	0.1	0	0	386	0.2	385	386	15.4	86.9
2025-09-11T03:01	10	0	0.1	0	0	386	0.2	386	387	15.4	86.9
2025-09-11T03:02	10	0	0.1	0	1	386	0.2	386	387	15.4	86.8
2025-09-11T03:03	10	0	0.1	0	0	386	0.2	386	387	15.5	86.3
2025-09-11T03:04	10	0	0.1	0	0	386	0.2	386	387	15.5	86.0
2025-09-11T03:05	10	0	0.1	0	0	386	0.3	386	387	15.5	86.2
2025-09-11T03:06	10	0	0.1	0	0	386	0.3	386	387	15.5	86.2
2025-09-11T03:07	10	0	0.1	0	1	386	0.2	386	387	15.5	86.1
2025-09-11T03:08	10	0	0.1	0	1	386	0.2	386	387	15.5	85.9
2025-09-11T03:09	10	0	0.1	0	0	386	0.3	386	387	15.5	86.4
2025-09-11T03:10	10	0	0.1	0	1	386	0.2	386	387	15.5	86.0
2025-09-11T03:11	10	0	0.1	0	0	386	0.3	385	387	15.5	86.0
2025-09-11T03:12	10	0	0.1	0	0	386	0.2	386	387	15.5	85.8
2025-09-11T03:13	10	0	0.1	0	0	386	0.2	386	387	15.6	85.3
2025-09-11T03:14	10	0	0.1	0	0	386	0.2	386	387	15.6	85.6
2025-09-11T03:15	10	0	0.1	0	0	386	0.2	386	387	15.6	85.3
2025-09-11T03:16	10	0	0.1	0	0	386	0.2	386	387	15.6	85.1
2025-09-11T03:17	10	0	0.1	0	0	386	0.3	385	387	15.7	84.6
2025-09-11T03:18	10	0	0.1	0	0	386	0.2	385	386	15.7	83.9
2025-09-11T03:19	10	0	0.1	0	0	385	0.2	385	386	15.7	84.2
2025-09-11T03:20	10	0	0.1	0	0	386	0.3	385	386	15.7	83.6
2025-09-11T03:21	10	0	0.1	0	0	386	0.2	386	386	15.7	83.4
2025-09-11T03:22	10	0	0.1	0	0	386	0.3	385	386	15.7	83.5
2025-09-11T03:23	10	0	0.1	0	0	385	0.4	384	386	15.7	83.7
2025-09-11T03:24	10	0	0.1	0	0	385	0.2	384	385	15.7	83.8
2025-09-11T03:25	10	0	0.1	0	0	385	0.2	384	385	15.8	82.8
2025-09-11T03:26	10	0	0.1	0	0	384	0.2	384	385	15.8	82.2
2025-09-11T03:27	10	0	0.1	0	0	384	0.2	384	385	15.8	82.9
2025-09-11T03:28	10	0	0.1	0	0	384	0.2	384	385	15.7	82.9
2025-09-11T03:29	10	0	0.1	0	0	384	0.2	384	385	15.7	83.2
2025-09-11T03:30	10	0	0.1	0	0	385	0.3	384	385	15.8	82.2
2025-09-11T03:31	10	0	0.1	0	0	384	0.2	384	385	15.8	82.6
2025-09-11T03:32	10	0	0.1	0	0	385	0.2	384	385	15.8	82.3
2025-09-11T03:33	10	0	0.1	0	0	385	0.3	384	385	15.7	82.6
2025-09-11T03:34	10	0	0.1	0	0	385	0.2	385	386	15.8	82.1
2025-09-11T03:35	10	0	0.1	0	0	385	0.3	384	386	15.8	82.5
2025-09-11T03:36	10	0	0.1	0	0	385	0.3	384	385	15.8	82.1
2025-09-11T03:37	10	0	0.1	0	0	385	0.3	384	386	15.8	81.7
2025-09-11T03:38	10	0	0.1	0	0	385	0.2	385	386	15.8	81.6
2025-09-11T03:39	10	0	0.1	0	0	385	0.2	385	386	15.8	81.9
2025-09-11T03:40	10	0	0.1	0	0	386	0.3	385	387	15.8	81.9
2025-09-11T03:41	10	0	0.1	0	0	386	0.2	385	386	15.8	80.9
2025-09-11T03:42	10	0	0.1	0	0	386	0.2	385	386	15.9	80.8
2025-09-11T03:43	10	0	0.1	0	0	386	0.2	385	386	15.8	81.0
2025-09-11T03:44	10	0	0.1	0	0	386	0.2	385	386	15.8	80.9
2025-09-11T03:45	10	0	0.1	0	0	386	0.4	385	387	15.9	80.2
2025-09-11T03:46	10	0	0.1	0	0	386	0.2	385	386	15.8	80.6
2025-09-11T03:47	10	0	0.1	0	0	385	0.3	385	386	15.9	80.2
2025-09-11T03:48	10	0	0.1	0	0	385	0.3	385	386	16.0	79.2
2025-09-11T03:49	10	0	0.1	0	0	385	0.4	384	386	15.9	80.5
2025-09-11T03:50	10	0	0.1	0	0	385	0.2	384	385	15.9	80.0
2025-09-11T03:51	10	0	0.1	0	0	384	0.3	383	385	15.8	80.9
2025-09-11T03:52	10	0	0.1	0	0	384	0.3	383	385	15.8	80.3
2025-09-11T03:53	10	0	0.1	0	0	383	0.2	383	384	15.8	80.5
2025-09-11T03:54	10	0	0.1	0	0	384	0.3	383	384	15.9	80.1
2025-09-11T03:55	10	0	0.1	0	0	383	0.2	383	384	15.8	80.4
2025-09-11T03:56	10	0	0.1	0	0	383	0.2	383	384	15.8	80.5
2025-09-11T03:57	10	0	0.0	0	0	383	0.2	383	384	15.8	80.4
2025-09-11T03:58	10	0	0.1	0	0	383	0.3	383	384	15.9	80.3
2025-09-11T03:59	10	0	0.1	0	0	383	0.2	383	384	15.9	80.0
2025-09-11T04:00	10	0	0.1	0	0	383	0.2	383	384	15.9	80.4
2025-09-11T04:01	10	0	0.1	0	0	384	0.3	383	384	15.9	80.4
2025-09-11T04:02	10	0	0.0	0	0	384	0.3	383	385	15.9	80.6
2025-09-11T04:03	10	0	0.1	0	0	383	0.2	383	384	15.8	81.1
2025-09-11T04:04	10	0	0.0	0	0	384	0.2	383	384	15.8	81.1
2025-09-11T04:05	10	0	0.0	0	0	384	0.2	383	384	15.8	81.2
2025-09-11T04:06	10	0	0.1	0	0	383	0.2	383	384	15.8	81.4
2025-09-11T04:07	10	0	0.0	0	0	384	0.2	383	384	15.8	80.7
2025-09-11T04:08	10	0	0.1	0	0	383	0.3	383	384	15.8	80.9
2025-09-11T04:09	10	0	0.1	0	0	383	0.3	383	384	15.9	80.6
2025-09-11T04:10	10	0	0.1	0	0	384	0.2	383	384	15.9	80.3
2025-09-11T04:11	10	0	0.1	0	0	383	0.3	382	384	15.9	80.5
2025-09-11T04:12	10	0	0.1	0	0	383	0.2	382	383	15.8	81.3
2025-09-11T04:13	10	0	0.1	0	0	383	0.2	382	383	15.8	80.6
2025-09-11T04:14	10	0	0.0	0	0	383	0.3	382	383	15.8	80.7
2025-09-11T04:15	10	0	0.1	0	0	382	0.3	382	383	15.7	81.2
2025-09-11T04:16	10	0	0.1	0	0	382	0.2	382	383	15.7	81.0
2025-09-11T04:17	10	0	0.1	0	0	382	0.3	381	383	15.8	80.3
2025-09-11T04:18	10	0	0.0	0	0	382	0.2	382	383	15.7	81.0
2025-09-11T04:19	10	0	0.1	0	0	382	0.2	382	382	15.6	81.7
2025-09-11T04:20	10	0	0.0	0	0	382	0.3	382	383	15.7	80.8
2025-09-11T04:21	10	0	0.1	0	0	382	0.2	382	383	15.7	81.2
2025-09-11T04:22	10	0	0.0	0	0	383	0.2	382	383	15.7	81.3
2025-09-11T04:23	10	0	0.0	0	0	383	0.2	382	383	15.6	81.3
2025-09-11T04:24	10	0	0.0	0	0	382	0.2	382	383	15.6	81.7
2025-09-11T04:25	10	0	0.0	0	0	382	0.2	382	383	15.6	81.4
2025-09-11T04:26	10	0	0.0	0	0	382	0.2	382	383	15.6	81.9
2025-09-11T04:27	10	0	0.1	0	0	383	0.3	382	383	15.6	81.3
2025-09-11T04:28	10	0	0.1	0	0	383	0.3	383	384	15.6	81.5
2025-09-11T04:29	10	0	0.0	0	0	383	0.2	383	384	15.6	81.5
2025-09-11T04:30	10	0	0.0	0	0	383	0.3	383	384	15.6	82.2
2025-09-11T04:31	10	0	0.0	0	0	383	0.2	383	384	15.6	81.6
2025-09-11T04:32	10	0	0.1	0	0	383	0.3	382	383	15.6	81.8
2025-09-11T04:33	10	0	0.1	0	0	383	0.3	382	383	15.7	81.2
2025-09-11T04:34	10	0	0.1	0	0	382	0.3	382	383	15.6	81.5
2025-09-11T04:35	10	0	0.1	0	0	382	0.2	381	382	15.6	81.3
2025-09-11T04:36	10	0	0.1	0	0	382	0.2	382	383	15.6	81.2
2025-09-11T04:37	10	0	0.1	0	0	383	0.2	382	383	15.6	81.3
2025-09-11T04:38	10	0	0.1	0	0	383	0.2	383	384	15.6	81.3
2025-09-11T04:39	10	0	0.0	0	0	383	0.2	383	384	15.6	81.1
2025-09-11T04:40	10	0	0.1	0	0	384	0.2	383	384	15.6	81.2
2025-09-11T04:41	10	0	0.1	0	0	384	0.2	383	384	15.6	81.5
2025-09-11T04:42	10	0	0.1	0	0	384	0.2	383	385	15.6	81.0
2025-09-11T04:43	10	0	0.1	0	0	384	0.2	383	384	15.6	81.0
2025-09-11T04:44	10	0	0.1	0	0	384	0.2	383	384	15.6	81.0
2025-09-11T04:45	10	0	0.1	0	0	384	0.3	384	385	15.8	79.4
2025-09-11T04:46	10	0	0.1	0	0	384	0.2	383	384	15.8	80.1
2025-09-11T04:47	10	0	0.1	0	0	383	0.4	382	384	15.7	80.6
2025-09-11T04:48	10	0	0.1	0	0	383	0.3	382	383	15.7	80.2
2025-09-11T04:49	10	0	0.1	0	0	382	0.2	382	383	15.7	80.1
2025-09-11T04:50	10	0	0.1	0	0	382	0.3	382	383	15.7	79.8
2025-09-11T04:51	10	0	0.1	0	0	382	0.2	382	383	15.7	80.1
2025-09-11T04:52	10	0	0.1	0	0	382	0.3	382	383	15.7	79.3
2025-09-11T04:53	10	0	0.1	0	0	383	0.2	383	383	15.8	79.3
2025-09-11T04:54	10	0	0.1	0	1	383	0.3	382	383	15.7	79.9
2025-09-11T04:55	10	0	0.1	0	0	382	0.2	382	383	15.6	80.1
2025-09-11T04:56	10	0	0.1	0	1	382	0.3	381	383	15.6	80.5
2025-09-11T04:57	10	0	0.1	0	1	383	0.3	382	383	15.6	80.7
2025-09-11T04:58	10	1	0.1	0	1	383	0.3	382	383	15.6	80.4
2025-09-11T04:59	10	1	0.1	0	1	383	0.3	383	384	15.6	79.8
2025-09-11T05:00	10	1	0.1	1	1	383	0.2	383	384	15.6	79.9
2025-09-11T05:01	10	1	0.1	1	1	383	0.2	383	384	15.6	80.5
2025-09-11T05:02	10	1	0.1	1	1	383	0.2	383	384	15.5	81.0
2025-09-11T05:03	10	1	0.1	1	1	384	0.2	383	384	15.5	81.2
2025-09-11T05:04	10	1	0.1	0	1	384	0.2	383	384	15.5	81.1
2025-09-11T05:05	10	1	0.1	1	1	384	0.4	383	385	15.5	81.0
2025-09-11T05:06	10	1	0.1	0	1	384	0.2	384	385	15.5	80.5
2025-09-11T05:07	10	1	0.1	0	1	384	0.2	384	385	15.4	81.3
2025-09-11T05:08	10	1	0.1	0	1	385	0.2	384	385	15.4	81.3
2025-09-11T05:09	10	1	0.1	0	1	385	0.3	384	385	15.4	81.5
2025-09-11T05:10	10	1	0.1	0	1	384	0.2	384	385	15.4	82.0
2025-09-11T05:11	10	1	0.1	0	1	385	0.2	384	385	15.4	81.6
2025-09-11T05:12	10	0	0.1	0	1	385	0.3	384	385	15.4	81.8
2025-09-11T05:13	10	1	0.1	0	1	385	0.2	384	385	15.3	82.0
2025-09-11T05:14	10	1	0.1	0	1	385	0.2	384	385	15.4	82.1
2025-09-11T05:15	10	1	0.1	0	1	385	0.2	385	386	15.4	82.3
2025-09-11T05:16	10	1	0.1	0	1	385	0.2	385	386	15.4	82.3
2025-09-11T05:17	10	1	0.1	0	1	385	0.2	384	385	15.4	81.3
2025-09-11T05:18	10	1	0.1	1	1	384	0.4	383	385	15.2	78.6
2025-09-11T05:19	10	1	0.1	1	1	383	0.3	382	383	15.1	77.2
2025-09-11T05:20	10	1	0.1	1	1	382	0.3	381	383	15.1	76.9
2025-09-11T05:21	10	1	0.1	1	1	381	0.3	381	382	15.0	77.0
2025-09-11T05:22	10	1	0.1	1	1	381	0.2	380	381	14.9	77.0
2025-09-11T05:23	10	1	0.1	1	2	381	0.2	380	381	14.9	77.1
2025-09-11T05:24	10	2	0.1	1	2	381	0.2	380	381	14.8	76.9
2025-09-11T05:25	10	2	0.2	2	2	381	0.2	380	381	14.8	77.4
2025-09-11T05:26	10	3	0.1	2	3	381	0.2	380	381	14.8	77.5
2025-09-11T05:27	10	3	0.1	2	3	381	0.3	380	381	14.8	77.4
2025-09-11T05:28	10	3	0.1	2	3	381	0.2	380	381	14.8	77.2
2025-09-11T05:29	10	3	0.1	3	3	381	0.3	380	382	14.8	76.9
2025-09-11T05:30	10	2	0.1	2	3	380	0.2	380	381	14.8	76.7
2025-09-11T05:31	10	2	0.1	2	3	380	0.2	380	381	14.8	76.0
2025-09-11T05:32	10	2	0.1	2	3	379	0.2	379	380	14.8	76.1
2025-09-11T05:33	10	2	0.1	2	3	379	0.3	379	380	14.8	75.7
2025-09-11T05:34	10	2	0.1	2	3	380	0.3	379	380	14.8	76.2
2025-09-11T05:35	10	2	0.1	2	3	380	0.3	379	380	14.8	74.8
2025-09-11T05:36	10	2	0.1	2	3	380	0.3	379	380	14.9	73.0
2025-09-11T05:37	10	2	0.1	2	3	379	0.2	378	379	14.9	73.2
2025-09-11T05:38	10	3	0.1	2	3	379	0.3	378	379	14.9	73.1
2025-09-11T05:39	10	3	0.1	3	3	378	0.2	378	379	14.8	72.9
2025-09-11T05:40	10	4	0.2	3	4	378	0.2	378	379	14.8	72.5
2025-09-11T05:41	10	4	0.1	4	4	378	0.2	378	379	14.8	73.1
2025-09-11T05:42	10	4	0.2	4	5	378	0.2	377	378	14.8	73.4
2025-09-11T05:43	10	5	0.2	5	5	378	0.2	377	378	14.7	73.5
2025-09-11T05:44	10	6	0.2	5	6	378	0.3	377	379	14.7	73.8
2025-09-11T05:45	10	6	0.1	6	6	379	0.3	378	379	14.7	73.5
2025-09-11T05:46	10	6	0.1	5	6	379	0.3	378	379	14.8	72.4
2025-09-11T05:47	10	5	0.2	5	5	379	0.3	378	380	14.8	73.0
2025-09-11T05:48	10	4	0.1	4	5	379	0.2	379	380	14.7	72.7
2025-09-11T05:49	10	4	0.1	4	4	380	0.2	379	380	14.9	70.7
2025-09-11T05:50	10	4	0.1	4	4	379	0.2	379	380	14.8	71.7
2025-09-11T05:51	10	4	0.1	4	4	380	0.3	379	380	14.8	72.8
2025-09-11T05:52	10	4	0.1	3	4	380	0.2	379	380	14.7	73.5
2025-09-11T05:53	10	4	0.1	3	4	380	0.3	379	381	14.7	72.1
2025-09-11T05:54	10	4	0.1	3	4	380	0.2	379	380	14.8	71.1
2025-09-11T05:55	10	4	0.1	4	4	380	0.3	379	380	14.7	71.9
2025-09-11T05:56	10	4	0.1	4	4	380	0.2	379	380	14.7	72.3
2025-09-11T05:57	10	4	0.1	4	4	380	0.3	379	380	14.7	72.0
2025-09-11T05:58	10	4	0.1	4	4	379	0.3	379	380	14.7	71.8
2025-09-11T05:59	10	4	0.1	4	5	379	0.2	378	380	14.6	71.6
2025-09-11T06:00	10	5	0.2	5	6	379	0.2	379	379	14.6	70.9
2025-09-11T06:01	10	6	0.3	5	6	379	0.2	379	380	14.7	70.4
2025-09-11T06:02	10	7	0.2	6	7	379	0.2	379	380	14.7	69.6
2025-09-11T06:03	10	7	0.1	7	7	379	0.2	379	380	14.6	71.2
2025-09-11T06:04	10	8	0.4	7	9	379	0.2	379	380	14.6	71.1
2025-09-11T06:05	10	11	1.9	9	16	380	0.2	379	380	14.7	69.5
2025-09-11T06:06	10	12	0.4	11	12	380	0.3	379	380	14.6	69.8
2025-09-11T06:07	10	12	0.2	12	13	380	0.2	380	381	14.6	70.2
2025-09-11T06:08	10	13	0.2	13	13	380	0.3	380	381	14.6	71.0
2025-09-11T06:09	10	13	0.3	12	13	381	0.2	380	381	14.5	71.6
2025-09-11T06:10	10	13	0.3	13	14	381	0.2	380	381	14.6	70.6
2025-09-11T06:11	10	15	0.7	14	16	381	0.2	381	382	14.7	69.4
2025-09-11T06:12	10	17	0.3	16	17	381	0.3	381	382	14.7	69.4
2025-09-11T06:13	10	18	0.7	17	20	381	0.3	381	382	14.9	65.8
2025-09-11T06:14	10	14	1.1	12	16	381	0.3	381	382	14.8	68.2
2025-09-11T06:15	10	11	0.4	11	12	381	0.3	380	381	14.7	69.3
2025-09-11T06:16	10	12	2.0	10	17	381	0.3	380	381	14.7	68.7
2025-09-11T06:17	10	9	0.5	8	10	380	0.3	380	381	14.7	69.1
2025-09-11T06:18	10	8	0.2	7	8	380	0.2	379	381	14.7	69.5
2025-09-11T06:19	10	7	0.1	7	8	380	0.2	379	380	14.7	69.0
2025-09-11T06:20	10	7	0.1	7	7	380	0.3	379	380	14.6	69.4
2025-09-11T06:21	10	8	0.2	7	8	380	0.2	379	380	14.7	68.3
2025-09-11T06:22	10	8	0.4	8	9	380	0.2	379	380	14.7	68.8
2025-09-11T06:23	10	10	0.4	9	11	380	0.2	380	381	14.7	68.4
2025-09-11T06:24	10	11	0.5	11	12	381	0.3	380	381	14.7	68.7
2025-09-11T06:25	10	12	0.3	12	13	381	0.2	380	381	14.7	68.2
2025-09-11T06:26	10	13	0.3	13	14	381	0.2	380	381	14.7	68.9
2025-09-11T06:27	10	14	0.4	14	15	381	0.2	381	381	14.6	69.3
2025-09-11T06:28	10	15	0.2	15	16	381	0.3	381	382	14.7	68.0
2025-09-11T06:29	10	15	0.3	15	16	381	0.3	381	382	14.8	65.8
2025-09-11T06:30	10	14	0.5	13	15	381	0.3	380	382	14.9	65.0
2025-09-11T06:31	10	12	0.7	11	13	381	0.3	380	382	14.8	66.0
2025-09-11T06:32	10	10	0.5	9	11	381	0.3	380	381	14.8	66.7
2025-09-11T06:33	10	9	0.2	9	9	381	0.2	380	381	14.7	67.1
2025-09-11T06:34	10	9	0.1	9	9	380	0.3	380	381	14.7	67.2
2025-09-11T06:35	10	9	0.1	9	10	380	0.3	380	381	14.8	65.9
2025-09-11T06:36	10	9	0.1	9	10	380	0.2	380	381	14.8	65.8
2025-09-11T06:37	10	10	0.1	9	10	380	0.2	380	381	14.8	65.6
2025-09-11T06:38	10	10	0.2	10	11	380	0.3	380	381	14.7	66.9
2025-09-11T06:39	10	11	0.1	11	11	380	0.3	380	381	14.7	67.1
2025-09-11T06:40	10	10	0.4	10	11	380	0.3	380	381	14.8	65.4
2025-09-11T06:41	10	9	0.3	9	10	380	0.2	379	380	14.8	65.1
2025-09-11T06:42	10	9	0.1	9	9	380	0.2	379	380	14.8	65.9
2025-09-11T06:43	10	10	0.3	9	10	380	0.3	379	380	14.8	66.1
2025-09-11T06:44	10	11	0.4	10	11	380	0.3	380	381	14.8	65.6
2025-09-11T06:45	10	12	0.2	11	12	380	0.3	379	381	14.9	64.4
2025-09-11T06:46	10	12	0.2	12	12	380	0.2	380	381	14.8	64.7
2025-09-11T06:47	10	13	0.1	12	13	380	0.2	380	381	14.8	66.1
2025-09-11T06:48	10	13	0.1	13	13	381	0.3	380	382	14.8	65.7
2025-09-11T06:49	10	13	0.2	13	13	381	0.2	380	381	14.8	65.6
2025-09-11T06:50	10	14	0.2	13	14	381	0.2	381	381	14.8	66.0
2025-09-11T06:51	10	14	0.2	14	15	381	0.2	381	382	14.8	66.5
2025-09-11T06:52	10	15	0.2	15	15	381	0.3	381	382	14.8	65.9
2025-09-11T06:53	10	15	0.1	15	16	382	0.3	381	382	14.8	66.5
2025-09-11T06:54	10	15	0.2	15	16	382	0.2	381	382	14.8	66.4
2025-09-11T06:55	10	15	0.1	15	15	382	0.2	381	382	14.8	66.9
2025-09-11T06:56	10	16	0.3	15	17	382	0.3	381	382	14.8	66.1
2025-09-11T06:57	10	17	0.1	16	17	382	0.2	381	382	14.8	66.5
2025-09-11T06:58	10	17	0.1	16	17	382	0.2	381	382	14.9	65.5
2025-09-11T06:59	10	16	0.2	16	17	382	0.3	381	383	14.9	66.2
2025-09-11T07:00	10	16	0.1	15	16	382	0.2	382	383	14.8	66.7
2025-09-11T07:01	10	15	0.1	15	15	382	0.2	382	383	14.8	66.7
2025-09-11T07:02	10	16	0.3	15	16	382	0.2	382	382	14.9	66.2
2025-09-11T07:03	10	17	0.3	16	17	382	0.2	382	383	14.9	66.2
2025-09-11T07:04	10	18	0.2	17	18	383	0.3	382	383	14.8	67.0
2025-09-11T07:05	10	18	0.3	18	19	383	0.3	383	384	14.8	67.2
2025-09-11T07:06	10	19	0.1	19	19	384	0.2	383	384	14.8	67.5
2025-09-11T07:07	10	19	0.2	18	19	384	0.2	383	384	14.9	67.3
2025-09-11T07:08	10	18	0.2	18	19	384	0.3	383	384	14.9	67.8
2025-09-11T07:09	10	17	0.2	17	18	384	0.3	383	384	14.9	67.1
2025-09-11T07:10	10	17	0.3	16	17	384	0.3	383	384	14.9	66.8
2025-09-11T07:11	10	15	0.4	15	16	384	0.2	383	384	14.9	67.1
2025-09-11T07:12	10	14	0.2	14	15	383	0.2	383	384	14.9	67.8
2025-09-11T07:13	10	14	0.1	14	14	383	0.2	383	383	14.9	67.9
2025-09-11T07:14	10	14	0.2	14	15	383	0.2	383	384	14.9	67.2
2025-09-11T07:15	10	15	0.4	15	16	383	0.2	383	384	14.9	67.2
2025-09-11T07:16	10	18	0.8	16	19	384	0.2	383	384	14.9	66.8
2025-09-11T07:17	10	20	0.5	19	21	384	0.5	383	385	14.9	67.6
2025-09-11T07:18	10	20	0.1	20	21	385	0.2	384	385	14.9	67.4
2025-09-11T07:19	10	20	0.2	19	20	385	0.5	384	386	15.0	67.1
2025-09-11T07:20	10	19	0.1	19	20	384	0.3	384	385	15.0	66.1
2025-09-11T07:21	10	19	0.1	19	19	384	0.2	384	385	15.0	66.4
2025-09-11T07:22	10	19	0.1	19	19	384	0.2	384	385	15.0	67.3
2025-09-11T07:23	10	19	0.1	19	19	384	0.2	384	385	15.0	66.9
2025-09-11T07:24	10	20	0.2	19	20	384	0.3	384	385	15.1	65.0
2025-09-11T07:25	10	20	0.2	19	20	384	0.3	383	385	15.1	65.4
2025-09-11T07:26	10	18	0.3	18	19	384	0.2	384	384	15.1	65.6
2025-09-11T07:27	10	17	0.2	17	18	384	0.2	383	384	15.0	67.4
2025-09-11T07:28	10	17	0.1	16	17	384	0.2	383	384	15.0	67.7
2025-09-11T07:29	10	17	0.1	17	17	384	0.2	383	384	15.0	67.8
2025-09-11T07:30	10	17	0.1	17	17	384	0.2	384	385	15.0	68.4
2025-09-11T07:31	10	18	0.3	17	18	384	0.2	384	385	15.0	67.9
2025-09-11T07:32	10	20	0.6	19	21	384	0.3	384	385	15.0	67.2
2025-09-11T07:33	10	21	0.3	21	22	385	0.3	384	385	15.0	67.5
2025-09-11T07:34	10	22	0.2	22	22	385	0.2	385	386	15.1	67.1
2025-09-11T07:35	10	23	0.5	22	24	385	0.3	384	386	15.1	66.3
2025-09-11T07:36	10	25	0.8	24	27	386	0.3	385	386	15.1	66.9
2025-09-11T07:37	10	28	0.5	27	28	386	0.2	386	387	15.1	66.9
2025-09-11T07:38	10	29	0.3	28	29	386	0.2	386	387	15.1	65.9
2025-09-11T07:39	10	29	0.1	29	30	386	0.4	386	387	15.1	66.5
2025-09-11T07:40	10	29	0.1	29	30	387	0.3	386	388	15.1	66.3
2025-09-11T07:41	10	30	0.2	30	31	387	0.3	386	388	15.2	65.3
2025-09-11T07:42	10	31	0.1	30	31	387	0.4	387	388	15.2	65.5
2025-09-11T07:43	10	31	0.1	30	31	388	0.3	387	388	15.2	66.0
2025-09-11T07:44	10	29	0.7	28	30	388	0.3	388	389	15.2	66.4
2025-09-11T07:45	10	27	0.5	26	28	388	0.3	387	388	15.2	65.6
2025-09-11T07:46	10	26	0.1	26	26	387	0.3	386	388	15.3	65.2
2025-09-11T07:47	10	27	0.5	26	28	387	0.3	387	388	15.2	66.4
2025-09-11T07:48	10	29	0.5	28	30	388	0.4	388	389	15.2	67.1
2025-09-11T07:49	10	30	0.2	30	30	389	0.2	389	390	15.2	68.3
2025-09-11T07:50	10	31	0.1	30	31	389	0.3	389	390	15.2	67.5
2025-09-11T07:51	10	30	0.2	30	31	389	0.3	388	390	15.2	67.4
2025-09-11T07:52	10	31	0.3	30	31	389	0.2	389	390	15.2	68.4
2025-09-11T07:53	10	32	0.6	31	33	390	0.4	389	390	15.2	68.4
2025-09-11T07:54	10	35	1.1	33	37	390	0.3	389	391	15.2	68.7
2025-09-11T07:55	10	47	9.4	37	72	391	1.3	389	393	15.3	68.2
2025-09-11T07:56	10	43	0.3	43	44	393	0.3	392	393	15.3	67.5
2025-09-11T07:57	10	42	0.8	41	43	392	0.2	392	393	15.4	66.8
2025-09-11T07:58	10	39	0.7	38	41	392	0.3	391	392	15.4	68.1
2025-09-11T07:59	10	39	0.5	38	40	391	0.4	390	392	15.4	67.5
2025-09-11T08:00	10	41	0.6	40	42	390	0.3	390	391	15.5	65.3
2025-09-11T08:01	10	43	0.7	42	44	391	0.4	390	392	15.5	65.2
2025-09-11T08:02	10	44	0.2	44	44	391	0.6	390	393	15.5	64.9
2025-09-11T08:03	10	45	0.8	44	47	393	0.2	392	393	15.5	65.1
2025-09-11T08:04	10	45	0.3	45	46	393	0.5	392	394	15.5	65.1
2025-09-11T08:05	10	45	0.3	44	45	392	0.4	391	393	15.5	64.9
2025-09-11T08:06	10	44	0.1	44	45	392	0.5	391	393	15.5	65.2
2025-09-11T08:07	10	46	1.9	45	53	392	0.5	391	393	15.6	65.1
2025-09-11T08:08	10	49	4.4	47	62	394	0.5	392	395	15.6	66.6
2025-09-11T08:09	10	48	0.2	47	48	394	0.4	393	395	15.6	65.4
2025-09-11T08:10	10	46	0.9	45	48	393	0.4	392	394	15.6	64.7
2025-09-11T08:11	10	44	0.5	43	45	393	0.3	392	393	15.7	64.6
2025-09-11T08:12	10	44	0.5	43	45	393	0.4	392	394	15.7	64.4
2025-09-11T08:13	10	47	1.2	45	49	393	0.5	392	394	15.7	64.3
2025-09-11T08:14	10	49	0.2	49	49	393	0.3	392	394	15.7	64.3
2025-09-11T08:15	10	48	0.2	48	49	393	0.5	392	394	15.7	64.3
2025-09-11T08:16	10	47	0.3	47	48	394	0.3	393	395	15.7	64.3
2025-09-11T08:17	10	49	1.2	47	52	394	0.3	394	395	15.7	64.3
2025-09-11T08:18	10	54	0.6	52	54	395	0.7	394	397	15.7	64.3
2025-09-11T08:19	10	55	0.8	53	56	396	0.6	395	397	15.7	64.3
2025-09-11T08:20	10	52	0.8	51	53	395	0.6	394	397	15.7	64.4
2025-09-11T08:21	10	50	0.6	49	51	394	0.8	392	395	15.8	64.3
2025-09-11T08:22	10	48	0.5	47	49	393	0.4	392	394	15.8	64.8
2025-09-11T08:23	10	48	0.6	47	49	395	0.7	393	396	15.8	65.9
2025-09-11T08:24	10	51	1.9	49	56	396	0.4	395	397	15.8	65.3
2025-09-11T08:25	10	52	1.0	51	54	397	0.3	396	397	15.9	66.5
2025-09-11T08:26	10	51	0.4	51	52	397	0.4	396	398	15.9	66.5
2025-09-11T08:27	10	52	0.7	51	53	396	0.5	395	397	15.9	65.9
2025-09-11T08:28	10	50	0.3	50	51	395	0.6	394	396	15.8	65.9
2025-09-11T08:29	10	51	0.7	50	52	395	0.2	394	396	15.9	66.4
2025-09-11T08:30	10	54	1.8	52	58	396	0.5	395	397	15.9	67.3
2025-09-11T08:31	10	53	0.8	52	56	396	0.5	395	397	15.9	67.5
2025-09-11T08:32	10	53	0.6	52	54	396	0.3	395	397	15.9	67.2
2025-09-11T08:33	10	55	0.4	54	56	396	0.3	395	397	15.9	67.5
2025-09-11T08:34	10	57	0.5	56	57	396	0.6	395	397	15.9	67.5
2025-09-11T08:35	10	57	0.4	56	57	397	0.3	396	398	16.0	67.8
2025-09-11T08:36	10	55	0.3	54	56	397	0.4	396	397	16.0	67.0
2025-09-11T08:37	10	55	0.4	54	56	397	0.3	396	398	16.0	67.7
2025-09-11T08:38	10	59	1.7	56	62	398	0.6	397	400	16.1	68.3
2025-09-11T08:39	10	65	3.8	60	73	399	0.9	398	401	16.1	68.1
2025-09-11T08:40	10	60	1.8	58	65	398	0.4	397	399	16.1	67.2
2025-09-11T08:41	10	59	0.4	58	60	398	0.3	398	399	16.2	67.0
2025-09-11T08:42	10	61	0.5	60	62	398	0.5	397	399	16.2	66.5
2025-09-11T08:43	10	65	3.0	62	70	399	0.5	399	400	16.2	66.6
2025-09-11T08:44	10	67	1.7	65	70	399	0.4	398	400	16.2	65.7
2025-09-11T08:45	10	63	1.0	61	65	398	0.3	398	399	16.2	65.7
2025-09-11T08:46	10	60	0.5	59	61	399	0.4	398	399	16.2	66.2
2025-09-11T08:47	10	57	0.5	57	59	398	0.4	397	399	16.2	65.0
2025-09-11T08:48	10	59	0.9	58	61	398	0.4	397	399	16.3	65.8
2025-09-11T08:49	10	58	1.9	55	60	397	0.3	397	398	16.2	65.2
2025-09-11T08:50	10	56	0.6	55	57	397	0.2	397	398	16.2	65.3
2025-09-11T08:51	10	59	1.3	57	61	398	0.5	397	399	16.3	65.8
2025-09-11T08:52	10	65	2.1	62	68	398	0.3	397	398	16.3	63.9
2025-09-11T08:53	10	70	1.9	68	75	399	0.6	398	400	16.3	64.5
2025-09-11T08:54	10	74	7.1	71	98	400	0.6	399	402	16.4	63.8
2025-09-11T08:55	10	83	11.8	73	112	402	0.9	400	403	16.4	63.5
2025-09-11T08:56	10	72	0.8	70	73	402	0.4	401	402	16.4	63.9
2025-09-11T08:57	10	68	0.9	67	71	400	0.6	399	402	16.5	63.3
2025-09-11T08:58	10	92	9.8	73	112	402	1.2	399	404	16.4	63.3
2025-09-11T08:59	10	126	21.0	99	184	406	2.2	403	410	16.5	63.5
2025-09-11T09:00	10	91	8.4	83	113	407	0.8	406	409	16.6	65.1
2025-09-11T09:01	10	84	7.5	79	124	406	1.0	405	408	16.7	63.8
2025-09-11T09:02	10	122	21.1	94	171	411	1.2	406	412	16.8	64.4
2025-09-11T09:03	10	126	12.8	106	159	413	0.7	411	414	16.9	63.6
2025-09-11T09:04	10	131	13.3	113	160	414	1.3	412	416	16.9	63.0
2025-09-11T09:05	10	88	9.1	79	125	410	1.7	408	415	16.9	62.7
2025-09-11T09:06	10	73	2.3	69	78	407	1.6	404	410	16.9	63.2
2025-09-11T09:07	10	65	2.0	62	69	403	1.6	400	406	16.8	63.4
2025-09-11T09:08	10	61	0.7	60	62	400	0.5	400	401	16.6	62.7
2025-09-11T09:09	10	61	0.7	60	62	400	0.4	399	401	16.7	62.8
2025-09-11T09:10	10	71	9.3	62	102	401	1.2	400	404	16.7	62.7
2025-09-11T09:11	10	103	13.7	85	142	405	1.6	403	409	16.8	63.5
2025-09-11T09:12	10	73	13.2	63	128	405	2.4	402	409	16.8	62.4
2025-09-11T09:13	10	66	5.3	60	83	401	0.6	400	403	16.7	62.7
2025-09-11T09:14	10	85	26.2	59	127	402	1.5	400	405	16.7	62.8
2025-09-11T09:15	10	73	12.3	64	116	403	1.6	401	405	16.7	62.9
2025-09-11T09:16	10	70	6.9	62	87	401	1.1	399	402	16.7	63.0
2025-09-11T09:17	10	77	9.5	66	98	401	1.0	400	403	16.7	63.3
2025-09-11T09:18	10	109	34.2	66	172	404	2.8	400	408	16.7	62.8
2025-09-11T09:19	10	115	34.7	77	176	408	1.7	406	412	16.9	64.6
2025-09-11T09:20	10	146	21.1	105	175	411	0.8	409	413	16.8	63.0
2025-09-11T09:21	10	117	29.9	73	153	409	2.3	405	412	16.8	62.7
2025-09-11T09:22	10	134	24.7	78	165	409	1.6	405	411	16.8	63.1
2025-09-11T09:23	10	126	22.7	89	161	409	1.1	407	411	16.8	62.5
2025-09-11T09:24	10	94	23.1	65	138	406	1.7	404	410	16.8	62.5
2025-09-11T09:25	10	119	17.6	87	148	408	0.7	407	410	16.9	63.0
2025-09-11T09:26	10	137	13.3	116	158	410	0.5	409	410	17.0	63.0
2025-09-11T09:27	10	160	2.8	151	162	413	1.5	409	415	17.0	62.2
2025-09-11T09:28	10	155	16.4	94	167	414	0.5	413	415	17.1	61.9
2025-09-11T09:29	10	102	17.4	77	154	410	2.0	407	414	17.0	61.3
2025-09-11T09:30	10	84	6.8	76	100	406	2.0	403	409	17.0	61.3
2025-09-11T09:31	10	79	8.4	72	107	404	0.8	403	406	17.0	61.6
2025-09-11T09:32	10	68	2.6	64	72	403	1.1	401	404	17.0	61.5
2025-09-11T09:33	10	64	0.7	63	66	401	0.9	400	402	16.9	60.6
2025-09-11T09:34	10	64	0.5	63	65	400	0.5	399	401	16.8	60.6
2025-09-11T09:35	10	63	0.4	62	64	400	0.4	399	401	16.9	61.1
2025-09-11T09:36	10	66	0.9	64	67	400	0.3	399	400	16.8	59.8
2025-09-11T09:37	10	68	0.4	67	68	400	0.4	399	400	16.8	59.1
2025-09-11T09:38	10	67	0.3	66	67	401	0.6	399	402	16.8	59.5
2025-09-11T09:39	10	69	0.9	68	71	401	0.4	400	402	16.9	60.5
2025-09-11T09:40	10	71	0.7	69	71	400	0.6	400	401	16.9	58.9
2025-09-11T09:41	10	66	1.4	63	69	401	0.7	399	402	16.9	59.8
2025-09-11T09:42	10	64	1.2	63	67	401	0.6	400	402	16.9	60.1
2025-09-11T09:43	10	71	2.1	67	74	401	0.4	400	401	16.9	59.6
2025-09-11T09:44	10	74	0.8	72	75	401	0.4	400	402	16.9	59.8
2025-09-11T09:45	10	71	0.5	71	73	401	0.3	400	402	17.0	59.4
2025-09-11T09:46	10	74	0.6	73	75	401	1.0	400	404	16.9	58.5
2025-09-11T09:47	10	79	3.5	75	88	404	0.6	403	405	17.1	59.9
2025-09-11T09:48	10	78	1.8	76	81	403	0.7	402	404	17.1	58.8
2025-09-11T09:49	10	75	2.5	71	80	404	0.5	403	405	17.2	60.5
2025-09-11T09:50	10	69	1.1	68	72	403	0.9	402	405	17.1	59.0
2025-09-11T09:51	10	68	0.3	68	69	402	0.7	401	403	17.0	58.3
2025-09-11T09:52	10	71	0.9	69	72	401	0.5	399	402	17.0	58.4
2025-09-11T09:53	10	73	0.6	71	74	403	1.0	401	404	17.0	59.1
2025-09-11T09:54	10	77	13.6	70	119	403	1.0	401	405	17.1	59.8
2025-09-11T09:55	10	81	11.3	69	112	404	0.7	402	405	17.1	58.8
2025-09-11T09:56	10	68	0.4	67	69	404	0.5	402	405	17.2	59.7
2025-09-11T09:57	10	71	1.1	69	73	404	0.3	404	405	17.3	59.8
2025-09-11T09:58	10	74	0.7	73	75	405	0.5	403	406	17.3	59.2
2025-09-11T09:59	10	77	1.2	75	79	405	0.6	404	406	17.2	59.0
2025-09-11T10:00	10	83	2.4	79	89	406	0.6	404	406	17.3	58.8
2025-09-11T10:01	10	157	41.0	89	220	412	5.9	403	423	17.2	59.2
2025-09-11T10:02	10	166	38.4	103	226	423	2.4	419	427	17.5	59.2
2025-09-11T10:03	10	92	7.5	82	103	416	2.4	412	421	17.6	58.9
2025-09-11T10:04	10	76	3.3	71	82	411	2.0	408	414	17.6	58.4
2025-09-11T10:05	10	68	1.7	65	71	407	0.8	406	409	17.5	58.4
2025-09-11T10:06	10	67	1.0	66	69	406	1.2	404	407	17.5	58.5
2025-09-11T10:07	10	82	17.9	69	139	404	0.7	403	407	17.3	57.9
2025-09-11T10:08	10	133	39.9	82	208	409	3.1	406	416	17.3	58.0
2025-09-11T10:09	10	198	9.9	142	204	418	2.7	412	421	17.4	58.2
2025-09-11T10:10	10	189	3.4	184	195	419	0.7	418	421	17.4	57.1
2025-09-11T10:11	10	179	3.0	174	184	421	0.5	420	423	17.5	57.4
2025-09-11T10:12	10	177	0.3	177	178	423	1.3	421	425	17.8	58.2
2025-09-11T10:13	10	178	1.0	177	180	421	0.9	419	422	17.7	57.4
2025-09-11T10:14	10	181	0.3	180	182	423	1.3	420	425	17.9	57.9
2025-09-11T10:15	10	184	1.5	182	186	421	1.6	419	425	17.8	57.3
2025-09-11T10:16	10	181	12.5	132	187	423	1.5	421	425	17.8	57.9
2025-09-11T10:17	10	181	1.8	178	184	422	1.9	419	425	17.7	57.0
2025-09-11T10:18	10	178	0.4	178	180	422	0.7	420	423	17.8	57.6
2025-09-11T10:19	10	181	1.2	180	184	421	0.7	420	422	17.9	57.7
2025-09-11T10:20	10	186	1.3	183	188	421	0.8	420	423	17.7	56.6
2025-09-11T10:21	10	190	1.3	188	192	426	1.9	422	429	17.8	57.6
2025-09-11T10:22	10	195	2.5	192	201	431	1.9	428	434	18.1	57.9
2025-09-11T10:23	10	193	18.1	139	209	431	2.0	428	435	18.4	58.5
2025-09-11T10:24	10	213	3.4	208	220	435	1.1	433	437	18.5	57.7
2025-09-11T10:25	10	157	37.8	104	213	431	3.0	427	436	18.4	57.2
2025-09-11T10:26	10	120	23.8	91	172	422	3.3	418	430	18.0	57.7
2025-09-11T10:27	10	174	25.8	123	213	425	2.0	421	428	18.0	58.6
2025-09-11T10:28	10	97	10.9	83	127	420	4.7	414	429	17.8	58.0
2025-09-11T10:29	10	86	4.2	79	93	414	1.9	411	416	17.6	58.1
2025-09-11T10:30	10	89	17.2	76	133	413	1.1	411	415	17.6	58.5
2025-09-11T10:31	10	123	49.9	77	213	414	3.7	409	419	17.6	58.2
2025-09-11T10:32	10	76	2.9	74	88	412	2.2	409	416	17.6	58.6
2025-09-11T10:33	10	83	5.4	76	96	410	0.7	408	411	17.6	58.5
2025-09-11T10:34	10	154	47.1	82	221	413	3.6	409	421	17.6	58.0
2025-09-11T10:35	10	190	38.2	107	224	421	1.9	418	425	17.6	57.7
2025-09-11T10:36	10	209	0.9	208	211	426	1.8	423	430	17.8	57.5
2025-09-11T10:37	10	207	0.6	205	208	431	0.9	429	433	18.2	58.0
2025-09-11T10:38	10	150	55.9	68	205	429	6.6	415	435	18.3	57.1
2025-09-11T10:39	10	109	22.1	74	162	418	1.2	415	421	18.0	57.4
2025-09-11T10:40	10	64	2.7	61	73	412	2.4	409	417	17.8	57.5
2025-09-11T10:41	10	64	1.6	61	66	409	0.5	408	411	18.0	59.0
2025-09-11T10:42	10	67	2.1	65	72	408	0.9	407	410	17.8	57.9
2025-09-11T10:43	10	84	9.3	72	124	408	0.8	407	410	17.6	57.7
2025-09-11T10:44	10	191	45.6	116	235	421	5.5	407	432	17.9	58.2
2025-09-11T10:45	10	182	46.3	107	231	432	4.5	422	437	18.2	58.9
2025-09-11T10:46	10	194	36.7	124	223	427	3.1	423	431	18.2	57.2
2025-09-11T10:47	10	175	62.4	79	224	429	3.4	420	432	18.3	57.1
2025-09-11T10:48	10	86	7.5	79	101	418	1.7	416	423	18.1	56.8
2025-09-11T10:49	10	108	7.4	102	131	418	1.1	417	421	18.1	57.5
2025-09-11T10:50	10	121	25.1	96	178	420	2.6	416	423	18.0	57.3
2025-09-11T10:51	10	142	55.0	92	234	419	3.7	415	425	18.0	57.5
2025-09-11T10:52	10	124	41.3	92	220	416	2.2	414	421	17.8	56.8
2025-09-11T10:53	10	165	39.3	110	225	419	2.3	415	424	17.8	56.0
2025-09-11T10:54	10	210	20.1	165	232	427	1.6	423	430	17.8	56.4
2025-09-11T10:55	10	134	61.2	80	225	425	5.2	416	431	18.0	56.7
2025-09-11T10:56	10	79	0.9	77	81	416	1.1	414	419	18.1	56.9
2025-09-11T10:57	10	75	2.0	71	78	414	0.4	414	415	18.1	57.7
2025-09-11T10:58	10	67	2.5	62	71	413	1.1	411	415	18.3	58.5
2025-09-11T10:59	10	59	2.1	55	63	409	1.9	406	412	18.0	57.2
2025-09-11T11:00	10	52	1.7	50	55	406	0.3	405	407	17.7	56.9
2025-09-11T11:01	10	49	0.1	49	50	405	0.5	404	406	17.8	57.8
2025-09-11T11:02	10	49	0.3	49	50	403	0.3	403	404	17.7	57.0
2025-09-11T11:03	10	47	1.0	45	49	402	0.3	402	403	17.7	57.5
2025-09-11T11:04	10	44	1.0	42	46	403	0.3	402	404	17.7	58.0
2025-09-11T11:05	10	42	0.2	42	43	403	0.3	403	404	17.7	58.3
2025-09-11T11:06	10	44	0.6	43	45	403	0.5	402	404	17.8	58.9
2025-09-11T11:07	10	43	1.3	40	45	404	0.3	403	404	17.8	59.0
2025-09-11T11:08	10	37	1.5	35	40	403	0.6	402	404	17.7	58.8
2025-09-11T11:09	10	34	0.5	33	35	401	0.3	401	402	17.7	58.5
2025-09-11T11:10	10	35	0.8	34	36	401	0.4	400	402	17.7	58.6
2025-09-11T11:11	10	41	3.8	36	48	401	0.6	400	402	17.7	59.0
2025-09-11T11:12	10	47	0.8	45	48	401	0.3	401	402	17.7	58.6
2025-09-11T11:13	10	48	0.1	47	48	402	0.4	401	402	17.6	59.1
2025-09-11T11:14	10	47	0.2	47	48	402	0.5	401	403	17.6	58.5
2025-09-11T11:15	10	46	0.7	45	47	402	0.4	401	403	17.6	58.8
2025-09-11T11:16	10	43	0.6	43	45	401	0.4	400	402	17.5	58.6
2025-09-11T11:17	10	43	0.8	42	45	402	0.6	400	403	17.6	58.7
2025-09-11T11:18	10	49	2.5	45	54	402	0.7	401	404	17.6	59.4
2025-09-11T11:19	10	58	2.1	54	61	403	0.7	402	404	17.6	59.9
2025-09-11T11:20	10	63	1.0	61	64	404	0.4	403	404	17.5	59.8
2025-09-11T11:21	10	66	0.8	64	67	405	0.7	403	406	17.5	60.5
2025-09-11T11:22	10	67	0.2	66	67	406	0.5	405	407	17.6	60.7
2025-09-11T11:23	10	67	0.4	66	68	406	0.8	404	407	17.6	60.5
2025-09-11T11:24	10	69	0.9	68	71	405	0.4	404	405	17.4	60.3
2025-09-11T11:25	10	70	0.7	69	71	405	0.3	404	405	17.5	60.3
2025-09-11T11:26	10	68	0.7	67	69	405	0.7	404	407	17.5	60.5
2025-09-11T11:27	10	65	0.9	64	67	404	0.5	403	405	17.4	59.7
2025-09-11T11:28	10	62	0.6	62	64	403	0.2	403	404	17.4	59.9
2025-09-11T11:29	10	61	0.2	61	62	403	0.2	403	404	17.4	60.0
2025-09-11T11:30	10	62	0.3	61	62	403	0.2	403	404	17.4	60.0
2025-09-11T11:31	10	63	0.3	62	63	403	0.3	402	404	17.4	59.9
2025-09-11T11:32	10	62	0.5	61	63	403	0.4	402	404	17.4	60.0
2025-09-11T11:33	10	60	1.0	58	61	403	0.7	402	404	17.4	60.1
2025-09-11T11:34	10	57	0.5	56	58	402	0.3	401	402	17.4	60.1
2025-09-11T11:35	10	61	4.4	56	72	402	0.3	402	403	17.4	60.3
2025-09-11T11:36	10	59	0.4	59	60	403	0.7	402	404	17.3	60.8
2025-09-11T11:37	10	60	0.2	60	61	404	0.5	403	405	17.4	61.5
2025-09-11T11:38	10	61	0.4	60	62	402	0.6	401	403	17.3	61.0
2025-09-11T11:39	10	64	1.0	62	66	402	0.4	401	403	17.3	61.2
2025-09-11T11:40	10	77	16.5	66	133	404	1.0	402	405	17.3	61.2
2025-09-11T11:41	10	63	1.7	60	66	404	0.8	402	405	17.3	61.4
2025-09-11T11:42	10	60	0.1	60	60	403	0.5	402	404	17.4	61.9
2025-09-11T11:43	10	61	0.6	60	62	403	0.4	403	404	17.4	61.8
2025-09-11T11:44	10	66	3.5	62	77	403	0.2	403	404	17.4	61.2
2025-09-11T11:45	10	105	21.5	79	156	407	2.8	402	411	17.3	60.7
2025-09-11T11:46	10	83	2.0	78	86	407	1.2	405	409	17.3	59.9
2025-09-11T11:47	10	74	2.7	69	78	405	0.7	404	406	17.3	60.0
2025-09-11T11:48	10	67	0.9	65	69	405	0.5	404	406	17.4	61.0
2025-09-11T11:49	10	65	0.1	65	65	403	1.0	402	405	17.3	60.5
2025-09-11T11:50	10	64	0.5	63	65	402	0.2	402	403	17.2	60.9
2025-09-11T11:51	10	62	0.5	62	63	403	0.3	402	403	17.2	60.7
2025-09-11T11:52	10	62	0.3	62	63	402	0.4	402	403	17.3	60.8
2025-09-11T11:53	10	64	0.7	63	65	402	0.3	402	403	17.2	61.1
2025-09-11T11:54	10	67	0.7	65	68	403	0.3	402	403	17.2	60.9
2025-09-11T11:55	10	69	0.7	68	70	404	0.6	403	405	17.3	61.6
2025-09-11T11:56	10	71	0.6	70	72	404	0.3	403	404	17.2	61.4
2025-09-11T11:57	10	72	0.2	72	73	403	0.3	403	404	17.2	61.0
2025-09-11T11:58	10	72	0.5	71	73	403	0.3	403	404	17.2	61.0
2025-09-11T11:59	10	70	0.3	70	71	404	0.8	403	406	17.3	61.5
2025-09-11T12:00	10	70	0.2	69	70	404	0.6	403	405	17.3	61.2
2025-09-11T12:01	10	68	0.5	68	69	404	0.5	403	405	17.3	61.1
2025-09-11T12:02	10	67	0.1	67	68	404	0.6	403	405	17.3	61.8
2025-09-11T12:03	10	68	0.2	67	68	405	0.6	404	407	17.4	62.3
2025-09-11T12:04	10	69	0.4	68	70	405	0.3	404	405	17.3	61.6
2025-09-11T12:05	10	71	0.5	70	71	405	0.3	404	405	17.3	62.0
2025-09-11T12:06	10	72	0.4	71	73	405	0.3	404	405	17.3	61.5
2025-09-11T12:07	10	74	1.0	73	76	405	0.4	404	406	17.3	61.8
2025-09-11T12:08	10	78	1.3	76	81	406	0.5	405	407	17.4	61.8
2025-09-11T12:09	10	84	0.9	81	85	408	1.0	406	410	17.3	61.7
2025-09-11T12:10	10	108	31.6	85	186	411	1.7	408	414	17.4	61.7
2025-09-11T12:11	10	150	49.4	87	223	417	4.7	411	424	17.5	62.4
2025-09-11T12:12	10	148	53.7	88	216	419	4.7	414	429	17.7	62.3
2025-09-11T12:13	10	182	26.0	130	220	429	1.6	426	432	17.8	62.3
2025-09-11T12:14	10	178	31.8	126	223	427	3.5	423	434	17.8	62.1
2025-09-11T12:15	10	163	29.7	103	213	430	2.4	425	434	18.0	62.3
2025-09-11T12:16	10	124	34.8	94	207	422	4.6	417	430	17.9	62.2
2025-09-11T12:17	10	161	41.3	105	228	422	2.8	417	427	17.9	62.3
2025-09-11T12:18	10	145	41.1	89	217	424	3.7	418	429	17.8	58.8
2025-09-11T12:19	10	116	28.1	92	190	420	1.1	419	423	17.8	59.5
2025-09-11T12:20	10	109	39.1	71	197	419	2.8	414	424	18.0	60.3
2025-09-11T12:21	10	132	37.8	99	212	418	1.7	416	423	17.9	60.7
2025-09-11T12:22	10	128	31.5	85	202	422	1.2	421	425	17.8	61.3
2025-09-11T12:23	10	159	37.2	93	201	423	2.8	419	427	18.0	60.6
2025-09-11T12:24	10	185	18.2	141	198	425	2.5	421	429	18.0	57.6
2025-09-11T12:25	10	157	40.7	92	197	426	3.7	421	431	18.1	58.0
2025-09-11T12:26	10	186	1.9	180	190	425	1.4	423	427	18.2	56.8
2025-09-11T12:27	10	141	41.1	67	193	421	3.1	417	426	18.1	56.6
2025-09-11T12:28	10	135	48.1	55	196	420	2.5	413	423	18.1	56.5
2025-09-11T12:29	10	169	33.8	66	195	421	5.1	413	428	18.3	57.2
2025-09-11T12:30	10	160	37.2	100	200	424	3.9	417	428	18.2	55.3
2025-09-11T12:31	10	101	22.4	74	150	416	2.2	413	420	18.2	55.8
2025-09-11T12:32	10	99	21.5	78	151	415	1.2	413	418	18.3	56.6
2025-09-11T12:33	10	128	47.1	75	194	416	4.4	412	425	18.1	56.9
2025-09-11T12:34	10	153	23.4	126	194	422	1.2	420	423	18.2	56.5
2025-09-11T12:35	10	101	43.3	49	175	418	4.7	410	424	18.2	56.0
2025-09-11T12:36	10	130	56.5	52	193	416	5.7	410	425	18.2	56.5
2025-09-11T12:37	10	118	38.5	64	178	420	2.4	415	424	18.2	56.0
2025-09-11T12:38	10	168	21.0	77	182	424	3.9	414	427	18.4	56.3
2025-09-11T12:39	10	168	0.8	167	170	426	0.5	425	427	18.5	56.5
2025-09-11T12:40	10	163	1.8	159	168	425	1.1	423	427	18.5	56.1
2025-09-11T12:41	10	160	1.2	158	162	423	1.0	422	426	18.3	56.6
2025-09-11T12:42	10	157	1.8	150	158	424	1.0	422	425	18.3	56.4
2025-09-11T12:43	10	157	0.5	156	158	425	0.9	423	426	18.4	57.2
2025-09-11T12:44	10	156	0.2	156	157	426	0.8	425	428	18.5	56.7
2025-09-11T12:45	10	155	0.3	155	156	428	1.0	427	430	18.8	57.3
2025-09-11T12:46	10	155	0.1	154	155	429	0.5	428	430	18.7	57.1
2025-09-11T12:47	10	155	1.0	155	159	425	1.4	423	429	18.6	54.3
2025-09-11T12:48	10	86	54.0	26	159	417	4.9	411	426	18.5	54.5
2025-09-11T12:49	10	158	0.7	157	160	422	2.7	417	426	18.5	55.1
2025-09-11T12:50	10	156	0.5	155	157	425	0.9	423	427	18.5	54.1
2025-09-11T12:51	10	156	0.4	156	157	425	1.2	423	427	18.6	53.3
2025-09-11T12:52	10	156	0.2	156	157	422	1.5	420	425	18.5	52.5
2025-09-11T12:53	10	156	0.2	156	157	422	1.2	421	425	18.5	52.7
2025-09-11T12:54	10	157	0.1	156	157	422	0.7	421	423	18.6	52.6
2025-09-11T12:55	10	157	0.3	156	158	423	0.8	421	424	18.5	52.0
2025-09-11T12:56	10	158	0.1	157	158	422	0.8	421	424	18.4	53.1
2025-09-11T12:57	10	157	0.3	156	158	421	1.5	419	424	18.4	52.8
2025-09-11T12:58	10	155	0.6	154	156	423	2.4	420	426	18.5	53.3
2025-09-11T12:59	10	154	0.3	153	154	426	0.6	425	427	18.8	53.3
2025-09-11T13:00	10	152	1.7	148	154	425	1.0	423	426	18.8	52.5
2025-09-11T13:01	10	153	0.6	152	154	423	0.4	422	424	18.7	51.8
2025-09-11T13:02	10	151	0.5	150	152	422	1.0	421	424	18.6	50.8
2025-09-11T13:03	10	150	0.2	150	150	423	0.8	422	424	18.6	52.7
2025-09-11T13:04	10	150	0.1	150	150	426	1.2	423	427	18.9	53.6
2025-09-11T13:05	10	150	0.1	150	150	424	1.8	422	427	18.6	53.7
2025-09-11T13:06	10	150	0.1	150	150	423	1.0	420	424	18.5	53.7
2025-09-11T13:07	10	150	0.1	149	150	421	0.7	419	422	18.4	52.1
2025-09-11T13:08	10	151	1.8	144	153	421	0.4	420	422	18.5	51.8
2025-09-11T13:09	10	85	48.4	41	158	419	4.9	410	424	18.6	52.1
2025-09-11T13:10	10	45	6.7	37	63	410	1.5	408	413	18.6	53.3
2025-09-11T13:11	10	91	33.1	53	153	412	2.4	408	415	18.5	53.2
2025-09-11T13:12	10	86	36.6	50	171	414	2.9	409	418	18.5	53.7
2025-09-11T13:13	10	118	48.1	46	168	415	4.0	409	421	18.6	53.2
2025-09-11T13:14	10	145	13.9	118	166	419	0.8	418	421	18.5	51.7
2025-09-11T13:15	10	142	17.9	102	163	422	0.8	420	423	18.6	53.0
2025-09-11T13:16	10	120	37.2	60	158	418	2.3	416	424	18.6	53.2
2025-09-11T13:17	10	152	1.0	151	154	420	1.7	418	423	18.4	53.0
2025-09-11T13:18	10	150	0.4	149	151	421	0.6	421	423	18.5	53.0
2025-09-11T13:19	10	149	0.1	149	150	422	0.5	421	423	18.6	53.5
2025-09-11T13:20	10	149	0.2	149	150	425	0.8	423	426	18.9	53.2
2025-09-11T13:21	10	150	0.4	150	151	424	0.5	423	425	18.7	53.0
2025-09-11T13:22	10	147	14.6	86	156	426	0.8	424	427	18.9	53.5
2025-09-11T13:23	10	87	13.2	58	128	420	1.8	418	425	19.0	52.9
2025-09-11T13:24	10	119	33.0	52	159	419	1.6	417	422	18.9	52.1
2025-09-11T13:25	10	76	38.5	35	159	415	4.2	411	422	18.8	51.3
2025-09-11T13:26	10	118	25.4	71	153	415	3.3	412	422	18.7	51.5
2025-09-11T13:27	10	145	5.4	132	153	422	0.6	420	423	18.9	51.8
2025-09-11T13:28	10	147	0.6	147	149	422	0.6	421	423	18.9	51.5
2025-09-11T13:29	10	149	0.9	147	150	423	0.5	422	424	18.8	50.9
2025-09-11T13:30	10	150	1.0	148	152	426	1.9	423	429	18.9	51.9
2025-09-11T13:31	10	152	0.4	151	153	427	1.6	424	429	19.0	51.6
2025-09-11T13:32	10	154	1.2	153	157	427	2.0	424	430	19.1	51.8
2025-09-11T13:33	10	159	1.3	157	162	428	1.9	425	431	19.3	51.3
2025-09-11T13:34	10	163	1.0	162	165	425	1.1	423	427	18.9	50.3
2025-09-11T13:35	10	160	10.2	136	170	425	1.6	423	429	18.9	51.2
2025-09-11T13:36	10	169	0.7	167	170	425	1.1	424	427	18.9	51.4
2025-09-11T13:37	10	166	1.9	162	168	426	0.6	425	427	18.9	51.9
2025-09-11T13:38	10	159	1.7	157	162	424	0.9	423	425	18.8	51.2
2025-09-11T13:39	10	154	1.1	153	156	425	0.8	424	427	18.9	51.5
2025-09-11T13:40	10	152	0.6	151	153	428	0.4	427	428	19.0	52.0
2025-09-11T13:41	10	146	10.3	114	151	428	0.6	427	430	19.2	52.3
2025-09-11T13:42	10	151	0.2	151	152	428	1.7	425	430	19.2	51.9
2025-09-11T13:43	10	149	1.1	148	151	426	0.3	425	426	18.9	51.3
2025-09-11T13:44	10	147	0.7	146	148	425	0.5	425	426	19.1	51.3
2025-09-11T13:45	10	145	0.3	144	146	425	0.4	424	426	19.0	50.7
2025-09-11T13:46	10	144	1.2	140	145	425	0.5	424	426	19.0	50.6
2025-09-11T13:47	10	144	0.4	143	145	426	0.7	424	427	19.0	51.5
2025-09-11T13:48	10	144	0.3	143	144	426	0.5	425	427	19.1	51.6
2025-09-11T13:49	10	139	8.3	121	149	426	0.6	425	428	19.2	51.6
2025-09-11T13:50	10	138	27.2	43	153	423	1.6	418	425	19.0	50.2
2025-09-11T13:51	10	107	48.8	35	156	418	3.8	413	425	18.9	50.7
2025-09-11T13:52	10	145	14.9	101	158	424	0.5	424	426	19.1	51.4
2025-09-11T13:53	10	104	39.0	47	155	420	2.9	416	425	19.1	50.6
2025-09-11T13:54	10	151	0.8	150	153	423	1.5	422	426	19.1	50.1
2025-09-11T13:55	10	149	0.5	149	151	425	0.4	424	426	19.1	50.1
2025-09-11T13:56	10	147	0.7	146	149	425	0.6	424	427	19.1	50.5
2025-09-11T13:57	10	145	0.3	145	146	428	1.6	425	430	19.3	51.0
2025-09-11T13:58	10	146	0.4	145	146	429	0.2	429	429	19.6	52.0
2025-09-11T13:59	10	141	15.2	94	151	427	1.2	425	429	19.5	51.2
2025-09-11T14:00	10	149	1.1	145	150	425	0.5	424	426	19.2	50.6
2025-09-11T14:01	10	133	31.4	50	151	426	2.2	420	429	19.2	50.9
2025-09-11T14:02	10	120	44.3	41	154	422	3.1	417	426	19.3	50.4
2025-09-11T14:03	10	155	0.7	153	155	425	1.2	423	427	19.4	50.0
2025-09-11T14:04	10	155	0.5	153	156	426	0.6	425	427	19.4	49.2
2025-09-11T14:05	10	151	1.6	148	154	425	1.1	423	427	19.2	48.7
2025-09-11T14:06	10	152	0.3	151	152	424	1.0	423	426	19.2	49.3
2025-09-11T14:07	10	120	42.1	50	156	421	3.8	415	425	19.1	48.8
2025-09-11T14:08	10	110	24.7	72	151	419	2.0	415	423	19.1	49.5
2025-09-11T14:09	10	122	17.3	73	142	417	1.3	415	420	18.9	48.9
2025-09-11T14:10	10	120	21.0	78	149	419	0.7	418	421	18.9	48.6
2025-09-11T14:11	10	143	16.9	101	166	424	3.2	418	428	19.1	49.9
2025-09-11T14:12	10	151	24.7	106	172	425	1.8	423	428	19.3	50.0
2025-09-11T14:13	10	106	50.4	59	171	423	3.8	417	428	19.3	49.9
2025-09-11T14:14	10	72	7.5	60	88	417	1.1	415	420	19.2	49.6
2025-09-11T14:15	10	70	2.5	67	76	415	0.6	414	416	19.1	49.8
2025-09-11T14:16	10	108	32.4	71	173	418	1.9	414	421	19.1	49.4
2025-09-11T14:17	10	79	5.0	69	90	416	1.1	414	418	19.1	49.2
2025-09-11T14:18	10	111	27.2	81	163	416	2.8	413	424	19.1	48.3
2025-09-11T14:19	10	79	24.7	61	151	416	4.2	411	423	19.1	48.7
2025-09-11T14:20	10	140	34.6	76	176	418	4.0	412	424	19.1	49.8
2025-09-11T14:21	10	118	24.6	84	171	420	1.6	418	423	19.1	49.7
2025-09-11T14:22	10	74	2.6	70	81	417	0.8	416	419	19.2	50.5
2025-09-11T14:23	10	74	5.7	68	85	415	1.2	413	417	19.2	50.5
2025-09-11T14:24	10	72	2.9	68	77	415	0.4	414	415	19.1	50.4
2025-09-11T14:25	10	66	1.3	65	70	413	1.1	411	415	19.0	50.1
2025-09-11T14:26	10	67	0.5	65	68	411	0.6	410	412	18.9	49.5
2025-09-11T14:27	10	68	0.8	67	70	410	0.5	409	411	18.9	50.4
2025-09-11T14:28	10	70	1.3	69	73	411	0.5	410	412	19.0	50.5
2025-09-11T14:29	10	76	3.1	70	80	411	0.4	411	413	19.0	49.2
2025-09-11T14:30	10	124	31.2	81	176	415	3.1	411	422	19.0	49.5
2025-09-11T14:31	10	173	3.4	166	177	424	2.0	419	427	19.0	49.8
2025-09-11T14:32	10	167	1.5	165	170	428	1.2	426	430	19.3	51.3
2025-09-11T14:33	10	162	1.3	160	165	428	0.8	427	430	19.4	50.5
2025-09-11T14:34	10	157	1.6	155	160	430	0.4	428	430	19.5	49.9
2025-09-11T14:35	10	152	1.8	149	155	428	0.6	427	429	19.5	50.1
2025-09-11T14:36	10	145	1.5	142	148	430	0.9	428	432	19.7	51.5
2025-09-11T14:37	10	140	1.4	138	143	427	0.9	425	429	19.6	50.0
2025-09-11T14:38	10	136	1.1	134	138	425	1.3	423	427	19.5	49.9
2025-09-11T14:39	10	133	1.0	130	134	426	0.4	425	427	19.5	50.3
2025-09-11T14:40	10	127	10.8	104	135	426	0.8	424	427	19.5	51.4
2025-09-11T14:41	10	128	7.2	104	134	425	1.0	423	427	19.7	51.8
2025-09-11T14:42	10	130	0.6	129	131	426	0.9	424	427	19.6	52.4
2025-09-11T14:43	10	128	0.7	126	129	422	1.3	420	425	19.4	51.5
2025-09-11T14:44	10	125	0.6	124	126	422	0.7	421	423	19.4	52.2
2025-09-11T14:45	10	112	7.4	100	124	419	2.9	416	424	19.4	48.5
2025-09-11T14:46	10	107	4.5	99	117	416	1.0	415	418	19.3	48.0
2025-09-11T14:47	10	119	0.5	118	120	416	0.6	415	418	19.3	47.7
2025-09-11T14:48	10	118	0.2	118	119	416	0.3	415	416	19.2	47.3
2025-09-11T14:49	10	117	0.5	117	118	416	0.4	416	417	19.1	48.1
2025-09-11T14:50	10	116	0.1	116	116	418	0.9	416	419	19.2	49.2
2025-09-11T14:51	10	116	0.2	115	116	418	0.5	417	419	19.3	50.2
2025-09-11T14:52	10	115	0.1	115	115	418	0.6	417	419	19.4	50.6
2025-09-11T14:53	10	115	0.1	115	115	419	0.6	418	421	19.4	50.9
2025-09-11T14:54	10	115	0.3	114	115	419	1.1	417	421	19.5	50.9
2025-09-11T14:55	10	114	0.1	114	114	417	0.7	416	418	19.3	49.3
2025-09-11T14:56	10	114	0.3	113	114	418	0.5	417	419	19.3	50.1
2025-09-11T14:57	10	113	0.2	112	113	418	0.4	417	419	19.4	50.8
2025-09-11T14:58	10	112	0.3	111	112	418	0.6	416	419	19.4	50.4
2025-09-11T14:59	10	111	0.2	111	111	416	1.1	414	418	19.4	49.6
2025-09-11T15:00	10	110	0.2	110	111	416	0.5	415	417	19.3	49.6
2025-09-11T15:01	10	110	0.1	110	110	416	0.8	415	418	19.3	49.7
2025-09-11T15:02	10	107	6.9	85	110	418	0.5	416	418	19.4	50.1
2025-09-11T15:03	10	96	4.6	84	101	416	0.6	414	416	19.5	49.2
2025-09-11T15:04	10	107	5.1	89	110	415	0.8	414	417	19.4	48.5
2025-09-11T15:05	10	108	0.2	108	109	415	0.7	414	416	19.4	48.6
2025-09-11T15:06	10	108	0.2	107	108	414	0.3	414	415	19.4	48.3
2025-09-11T15:07	10	107	0.1	107	107	415	0.4	414	415	19.4	48.0
2025-09-11T15:08	10	107	0.2	106	107	414	0.2	414	415	19.4	48.3
2025-09-11T15:09	10	106	0.2	106	106	414	0.7	413	415	19.3	47.3
2025-09-11T15:10	10	105	0.2	105	106	415	1.0	413	417	19.4	48.0
2025-09-11T15:11	10	105	0.3	104	105	415	0.8	414	417	19.4	48.7
2025-09-11T15:12	10	104	0.2	104	105	415	0.5	414	416	19.5	48.9
2025-09-11T15:13	10	104	0.1	103	104	415	0.7	414	416	19.5	48.6
2025-09-11T15:14	10	103	0.2	103	104	414	0.5	413	415	19.4	48.3
2025-09-11T15:15	10	103	0.2	102	103	414	0.8	412	416	19.4	48.6
2025-09-11T15:16	10	102	0.1	102	102	415	0.5	414	416	19.4	48.7
2025-09-11T15:17	10	102	0.1	102	102	414	0.3	413	414	19.5	48.5
2025-09-11T15:18	10	101	0.1	101	102	413	0.4	413	414	19.4	48.7
2025-09-11T15:19	10	101	0.2	101	101	413	0.3	413	414	19.4	48.4
2025-09-11T15:20	10	101	0.1	100	101	414	0.5	413	416	19.4	49.3
2025-09-11T15:21	10	100	0.1	100	101	415	1.3	414	418	19.5	49.4
2025-09-11T15:22	10	100	0.1	100	100	416	0.6	415	417	19.6	49.7
2025-09-11T15:23	10	100	0.2	99	100	415	0.9	414	416	19.6	49.1
2025-09-11T15:24	10	99	0.2	99	99	416	0.7	414	416	19.6	49.7
2025-09-11T15:25	10	99	0.1	98	99	416	0.5	415	417	19.6	49.5
2025-09-11T15:26	10	98	0.2	98	99	414	0.9	413	416	19.6	48.7
2025-09-11T15:27	10	98	0.2	97	98	414	0.2	413	415	19.5	49.5
2025-09-11T15:28	10	97	0.2	96	97	414	0.9	412	415	19.5	48.8
2025-09-11T15:29	10	96	0.3	96	97	412	0.2	412	413	19.5	48.1
2025-09-11T15:30	10	96	0.2	95	96	412	0.7	411	413	19.4	47.7
2025-09-11T15:31	10	95	0.2	95	95	412	0.5	411	413	19.4	48.3
2025-09-11T15:32	10	94	0.3	94	95	414	1.2	412	416	19.5	49.5
2025-09-11T15:33	10	94	0.2	93	94	413	0.9	412	415	19.5	48.2
2025-09-11T15:34	10	93	0.1	93	94	413	0.4	412	414	19.5	48.6
2025-09-11T15:35	10	93	0.2	92	93	413	0.8	411	414	19.5	48.1
2025-09-11T15:36	10	92	0.2	92	93	411	0.3	411	412	19.4	47.3
2025-09-11T15:37	10	91	0.3	91	92	411	0.3	410	411	19.4	47.4
2025-09-11T15:38	10	91	0.2	90	91	411	0.5	410	412	19.4	48.0
2025-09-11T15:39	10	90	0.2	89	90	411	0.3	410	412	19.4	47.6
2025-09-11T15:40	10	89	0.1	89	89	412	0.8	410	414	19.5	48.5
2025-09-11T15:41	10	89	0.2	88	89	413	0.6	411	414	19.6	47.9
2025-09-11T15:42	10	88	0.2	88	89	411	0.2	411	412	19.6	47.1
2025-09-11T15:43	10	87	0.3	87	88	411	0.3	410	411	19.6	48.0
2025-09-11T15:44	10	87	0.2	86	87	411	0.4	410	412	19.5	48.1
2025-09-11T15:45	10	86	0.1	86	87	410	0.3	410	411	19.5	47.5
2025-09-11T15:46	10	86	0.1	85	86	411	0.3	411	412	19.5	48.3
2025-09-11T15:47	10	85	0.2	85	85	411	0.7	409	412	19.6	47.6
2025-09-11T15:48	10	85	0.2	84	85	410	0.3	410	411	19.5	47.4
2025-09-11T15:49	10	84	0.2	84	85	411	0.6	410	412	19.6	47.3
2025-09-11T15:50	10	83	0.2	83	84	409	0.3	408	410	19.5	45.5
2025-09-11T15:51	10	83	0.2	82	83	409	0.5	408	410	19.5	46.3
2025-09-11T15:52	10	82	0.2	82	82	410	0.5	409	411	19.6	46.6
2025-09-11T15:53	10	81	0.2	81	82	409	0.8	408	411	19.6	44.5
2025-09-11T15:54	10	81	0.3	80	81	408	0.3	407	409	19.5	44.3
2025-09-11T15:55	10	80	0.2	80	80	409	0.3	408	409	19.5	45.1
2025-09-11T15:56	10	79	0.2	79	80	409	0.2	408	409	19.5	45.6
2025-09-11T15:57	10	79	0.3	78	79	409	0.4	408	410	19.5	46.0
2025-09-11T15:58	10	78	0.2	78	79	409	0.2	408	409	19.5	45.5
2025-09-11T15:59	10	77	0.4	77	78	408	0.5	407	409	19.5	44.3
2025-09-11T16:00	10	77	0.3	76	77	407	0.3	407	408	19.5	44.1
2025-09-11T16:01	10	76	0.2	76	77	407	0.4	406	408	19.4	44.0
2025-09-11T16:02	10	76	0.2	75	76	406	0.3	406	407	19.4	44.0
2025-09-11T16:03	10	75	0.2	75	75	408	0.6	406	409	19.5	45.4
2025-09-11T16:04	10	74	0.2	74	75	408	0.5	407	409	19.5	45.8
2025-09-11T16:05	10	74	0.2	74	74	408	0.3	407	408	19.5	46.2
2025-09-11T16:06	10	74	0.1	74	74	407	0.2	407	408	19.4	45.8
2025-09-11T16:07	10	74	0.1	74	74	407	0.3	407	408	19.4	46.3
2025-09-11T16:08	10	68	12.0	27	74	408	0.8	406	409	19.4	46.7
2025-09-11T16:09	10	21	5.4	14	30	403	1.7	401	407	19.4	46.6
2025-09-11T16:10	10	15	1.2	13	18	401	0.7	399	402	19.3	45.7
2025-09-11T16:11	10	14	0.4	13	15	399	0.4	398	400	19.2	46.0
2025-09-11T16:12	10	20	8.0	13	34	399	0.5	398	400	19.2	46.5
2025-09-11T16:13	10	45	6.3	34	56	400	1.1	399	402	19.1	46.9
2025-09-11T16:14	10	61	6.8	51	69	402	1.0	401	404	19.1	46.5
2025-09-11T16:15	10	57	16.1	17	69	403	0.8	401	404	19.1	46.5
2025-09-11T16:16	10	10	1.0	10	15	399	1.1	398	402	19.1	47.4
2025-09-11T16:17	10	40	22.4	10	64	399	1.7	397	402	19.0	47.8
2025-09-11T16:18	10	65	0.2	64	65	402	0.6	400	403	19.1	47.0
2025-09-11T16:19	10	64	0.2	64	65	403	0.4	402	404	19.1	47.4
2025-09-11T16:20	10	64	0.2	63	64	403	0.4	403	404	19.1	47.3
2025-09-11T16:21	10	63	0.2	63	63	403	0.3	403	404	19.1	47.4
2025-09-11T16:22	10	62	0.2	62	63	404	0.3	403	404	19.1	47.8
2025-09-11T16:23	10	61	0.3	61	62	404	0.4	403	405	19.2	47.1
2025-09-11T16:24	10	61	0.2	60	61	403	0.3	402	403	19.2	47.0
2025-09-11T16:25	10	60	0.2	59	60	403	0.3	402	403	19.2	46.6
2025-09-11T16:26	10	59	0.1	59	59	402	0.2	401	403	19.2	45.4
2025-09-11T16:27	10	59	0.1	59	59	402	0.3	402	403	19.1	47.2
2025-09-11T16:28	10	58	0.3	57	59	402	0.2	402	403	19.1	48.4
2025-09-11T16:29	10	28	15.0	14	57	401	1.9	398	403	19.1	48.6
2025-09-11T16:30	10	10	1.4	9	14	398	0.8	396	399	19.1	47.8
2025-09-11T16:31	10	33	14.7	14	55	398	0.9	396	400	19.0	47.5
2025-09-11T16:32	10	55	0.1	55	56	400	0.5	399	401	19.0	47.4
2025-09-11T16:33	10	55	0.3	54	55	400	0.3	400	401	19.0	48.3
2025-09-11T16:34	10	54	0.3	53	54	401	0.3	400	401	19.0	48.3
2025-09-11T16:35	10	53	0.2	53	53	400	0.2	400	401	19.0	47.6
2025-09-11T16:36	10	53	0.2	52	53	400	0.2	400	401	19.0	48.1
2025-09-11T16:37	10	52	0.6	49	52	400	0.2	400	400	19.0	47.5
2025-09-11T16:38	10	48	1.8	45	50	400	0.3	399	400	18.9	48.6
2025-09-11T16:39	10	38	6.5	21	49	399	0.6	398	400	18.9	48.1
2025-09-11T16:40	10	10	3.6	8	21	397	1.2	395	399	18.9	48.4
2025-09-11T16:41	10	8	0.3	7	8	395	0.6	394	396	18.8	48.9
2025-09-11T16:42	10	7	0.1	7	8	394	0.3	393	395	18.8	48.9
2025-09-11T16:43	10	7	0.1	7	7	393	0.2	393	394	18.8	48.8
2025-09-11T16:44	10	7	0.1	7	7	392	0.3	392	393	18.7	49.5
2025-09-11T16:45	10	7	0.1	7	7	392	0.2	391	392	18.6	50.3
2025-09-11T16:46	10	7	0.1	7	8	392	0.2	392	392	18.6	49.3
2025-09-11T16:47	10	8	0.2	7	8	392	0.3	391	393	18.6	49.9
2025-09-11T16:48	10	13	2.9	8	16	392	0.5	391	393	18.5	50.2
2025-09-11T16:49	10	26	11.5	10	38	393	1.2	391	395	18.5	50.5
2025-09-11T16:50	10	36	4.0	30	41	395	0.3	394	395	18.5	49.7
2025-09-11T16:51	10	40	2.0	33	41	395	0.5	394	397	18.6	48.9
2025-09-11T16:52	10	40	0.4	40	41	396	0.2	395	396	18.6	49.4
2025-09-11T16:53	10	39	0.3	39	40	396	0.3	395	396	18.5	49.6
2025-09-11T16:54	10	39	0.2	38	39	395	0.2	395	396	18.6	49.3
2025-09-11T16:55	10	37	3.2	25	38	395	0.3	394	396	18.6	49.6
2025-09-11T16:56	10	13	4.0	9	25	394	0.8	393	396	18.6	49.2
2025-09-11T16:57	10	27	5.5	16	34	394	0.5	393	395	18.5	49.6
2025-09-11T16:58	10	28	1.8	26	33	394	0.2	393	394	18.5	49.7
2025-09-11T16:59	10	18	7.1	7	29	393	0.8	392	394	18.5	49.6
2025-09-11T17:00	10	6	0.2	6	7	392	0.5	391	393	18.4	49.7
2025-09-11T17:01	10	6	0.1	6	6	391	0.4	390	392	18.3	50.8
2025-09-11T17:02	10	6	0.2	5	6	390	0.3	389	391	18.3	50.9
2025-09-11T17:03	10	5	0.2	5	6	390	0.3	389	390	18.2	51.2
2025-09-11T17:04	10	5	0.1	5	5	390	0.2	389	390	18.2	50.8
2025-09-11T17:05	10	5	0.1	5	5	389	0.3	388	390	18.2	50.7
2025-09-11T17:06	10	5	0.1	5	5	389	0.3	388	389	18.2	51.2
2025-09-11T17:07	10	9	3.8	5	17	389	0.4	388	390	18.2	50.3
2025-09-11T17:08	10	23	2.2	18	25	390	0.4	389	391	18.1	51.2
2025-09-11T17:09	10	24	0.2	24	25	390	0.4	389	391	18.2	50.8
2025-09-11T17:10	10	16	6.3	6	24	390	0.4	389	390	18.2	50.8
2025-09-11T17:11	10	5	0.2	5	6	389	0.3	388	389	18.2	50.7
2025-09-11T17:12	10	5	0.2	5	6	388	0.2	388	389	18.2	50.9
2025-09-11T17:13	10	9	3.4	5	15	389	0.4	388	390	18.2	50.5
2025-09-11T17:14	10	17	1.1	14	19	389	0.2	389	389	18.1	50.8
2025-09-11T17:15	10	8	2.6	5	14	388	0.5	388	389	18.1	51.3
2025-09-11T17:16	10	5	0.3	4	5	388	0.3	387	388	18.0	51.4
2025-09-11T17:17	10	4	0.1	4	5	388	0.3	387	389	18.1	50.9
2025-09-11T17:18	10	4	0.1	4	4	387	0.2	387	388	18.0	52.0
2025-09-11T17:19	10	4	0.1	4	4	386	0.4	386	387	18.0	51.9
2025-09-11T17:20	10	4	0.1	4	4	386	0.3	386	387	17.9	52.2
2025-09-11T17:21	10	4	0.1	4	4	386	0.3	385	387	17.9	52.3
2025-09-11T17:22	10	4	0.1	4	4	386	0.3	385	386	17.9	52.0
2025-09-11T17:23	10	4	0.1	4	4	386	0.4	385	387	17.9	51.8
2025-09-11T17:24	10	4	0.1	3	4	386	0.4	386	387	17.9	51.7
2025-09-11T17:25	10	4	0.1	3	4	386	0.2	386	387	17.9	51.8
2025-09-11T17:26	10	3	0.1	3	4	386	0.2	385	386	17.8	52.5
2025-09-11T17:27	10	3	0.1	3	3	385	0.3	384	386	17.7	52.8
2025-09-11T17:28	10	3	0.1	3	3	384	0.3	383	384	17.7	52.9
2025-09-11T17:29	10	3	0.1	3	3	383	0.2	383	384	17.7	52.7
2025-09-11T17:30	10	3	0.1	3	3	383	0.2	383	384	17.7	52.7
2025-09-11T17:31	10	3	0.1	3	3	383	0.2	382	383	17.7	53.2
2025-09-11T17:32	10	3	0.1	3	3	382	0.3	382	383	17.7	53.0
2025-09-11T17:33	10	3	0.1	2	3	382	0.3	382	383	17.6	53.6
2025-09-11T17:34	10	2	0.1	2	3	381	0.3	381	382	17.5	54.2
2025-09-11T17:35	10	2	0.1	2	3	381	0.3	380	381	17.5	54.3
2025-09-11T17:36	10	2	0.1	2	2	381	0.3	380	381	17.5	54.5
2025-09-11T17:37	10	2	0.1	2	2	381	0.3	380	381	17.4	55.2
2025-09-11T17:38	10	2	0.1	2	2	381	0.3	381	382	17.5	54.4
2025-09-11T17:39	10	2	0.2	1	2	381	0.3	380	381	17.4	55.1
2025-09-11T17:40	10	2	0.1	1	2	380	0.3	380	381	17.4	55.1
2025-09-11T17:41	10	2	0.2	1	2	380	0.3	379	381	17.4	54.8
2025-09-11T17:42	10	1	0.2	1	2	380	0.3	380	381	17.4	55.0
2025-09-11T17:43	10	1	0.2	1	2	380	0.3	380	381	17.4	54.8
2025-09-11T17:44	10	1	0.2	1	2	380	0.3	380	381	17.4	54.5
2025-09-11T17:45	10	1	0.1	1	2	379	0.3	379	380	17.4	54.7
2025-09-11T17:46	10	1	0.2	1	2	379	0.3	378	380	17.4	55.1
2025-09-11T17:47	10	1	0.2	1	2	379	0.3	378	379	17.4	55.0
2025-09-11T17:48	10	1	0.2	1	1	379	0.3	378	380	17.3	55.3
2025-09-11T17:49	10	1	0.2	0	1	379	0.3	378	379	17.3	55.5
2025-09-11T17:50	10	1	0.1	0	1	378	0.2	378	379	17.3	55.1
2025-09-11T17:51	10	1	0.2	0	1	378	0.2	378	379	17.2	56.0
2025-09-11T17:52	10	1	0.1	0	1	378	0.3	377	379	17.1	56.2
2025-09-11T17:53	10	1	0.2	0	1	378	0.3	377	378	17.0	56.6
2025-09-11T17:54	10	0	0.1	0	1	378	0.4	377	379	17.1	55.9
2025-09-11T17:55	10	0	0.1	0	1	377	0.2	377	378	17.1	56.1
2025-09-11T17:56	10	0	0.1	0	1	377	0.3	377	378	17.0	56.7
2025-09-11T17:57	10	0	0.1	0	1	378	0.3	377	378	17.1	55.9
2025-09-11T17:58	10	0	0.1	0	0	378	0.2	377	378	17.2	55.4
2025-09-11T17:59	10	0	0.1	0	1	378	0.2	377	378	17.2	55.6
2025-09-11T18:00	10	0	0.0	0	0	377	0.2	377	378	17.1	55.9
2025-09-11T18:01	10	0	0.0	0	0	377	0.2	377	378	17.0	56.8
2025-09-11T18:02	10	0	0.0	0	0	377	0.2	377	378	16.9	57.4
2025-09-11T18:03	10	0	0.1	0	0	377	0.2	377	378	16.9	56.9
2025-09-11T18:04	10	0	0.0	0	0	377	0.2	377	377	16.9	57.1
2025-09-11T18:05	10	0	0.0	0	0	377	0.2	376	377	16.9	57.0
2025-09-11T18:06	10	0	0.1	0	0	376	0.3	376	377	16.9	56.9
2025-09-11T18:07	10	0	0.1	0	0	376	0.2	375	376	16.9	57.3
2025-09-11T18:08	10	0	0.1	0	0	376	0.2	376	377	16.8	57.8
2025-09-11T18:09	10	0	0.1	0	0	376	0.2	376	377	16.7	58.0
2025-09-11T18:10	10	0	0.1	0	0	376	0.2	375	376	16.7	58.7
2025-09-11T18:11	10	0	0.1	0	0	375	0.4	374	376	16.6	59.6
2025-09-11T18:12	10	0	0.1	0	0	374	0.4	374	375	16.5	60.0
2025-09-11T18:13	10	0	0.1	0	0	373	0.3	373	374	16.4	60.5
2025-09-11T18:14	10	0	0.1	0	0	373	0.2	372	373	16.4	60.6
2025-09-11T18:15	10	0	0.1	0	0	373	0.2	372	373	16.3	60.7
2025-09-11T18:16	10	0	0.1	0	0	372	0.2	372	373	16.3	60.6
2025-09-11T18:17	10	0	0.1	0	0	372	0.3	372	373	16.3	60.9
2025-09-11T18:18	10	0	0.1	0	0	373	0.2	372	373	16.2	61.3
2025-09-11T18:19	10	0	0.1	0	0	373	0.4	372	374	16.2	60.8
2025-09-11T18:20	10	0	0.1	0	0	373	0.2	372	373	16.3	60.8
2025-09-11T18:21	10	0	0.1	0	0	373	0.3	372	373	16.1	62.4
2025-09-11T18:22	10	0	0.1	0	0	373	0.3	372	374	16.0	63.3
2025-09-11T18:23	10	0	0.1	0	0	373	0.4	373	374	16.0	62.9
2025-09-11T18:24	10	0	0.1	0	0	374	0.2	373	374	16.0	62.7
2025-09-11T18:25	10	0	0.1	0	0	374	0.5	373	375	16.1	62.1
2025-09-11T18:26	10	0	0.1	0	0	375	0.5	374	376	16.0	63.5
2025-09-11T18:27	10	0	0.1	0	0	376	0.4	375	377	16.2	61.3
2025-09-11T18:28	10	0	0.1	0	0	376	0.2	376	377	16.3	61.1
2025-09-11T18:29	10	0	0.1	0	0	376	0.3	376	377	16.3	61.0
2025-09-11T18:30	10	0	0.1	0	0	377	0.3	376	377	16.4	60.6
2025-09-11T18:31	10	0	0.1	0	0	377	0.2	376	377	16.3	61.1
2025-09-11T18:32	10	0	0.1	0	0	376	0.3	376	377	16.3	60.9
2025-09-11T18:33	10	0	0.1	0	0	377	0.2	376	377	16.2	61.8
2025-09-11T18:34	10	0	0.1	0	0	377	0.3	376	378	16.2	61.8
2025-09-11T18:35	10	0	0.1	0	0	377	0.2	377	378	16.3	61.5
2025-09-11T18:36	10	0	0.1	0	0	378	0.5	377	379	16.2	62.1
2025-09-11T18:37	10	0	0.1	0	0	379	0.5	378	380	16.3	61.4
2025-09-11T18:38	10	0	0.1	0	0	380	0.3	379	380	16.3	61.9
2025-09-11T18:39	10	0	0.1	0	0	380	0.3	379	381	16.3	61.5
2025-09-11T18:40	10	0	0.1	0	0	381	0.2	380	381	16.3	61.7
2025-09-11T18:41	10	0	0.0	0	0	381	0.2	380	382	16.3	61.9
2025-09-11T18:42	10	0	0.1	0	0	381	0.3	381	382	16.3	62.1
2025-09-11T18:43	10	0	0.1	0	0	382	0.3	381	382	16.4	61.6
2025-09-11T18:44	10	0	0.1	0	0	382	0.3	382	383	16.3	61.8
2025-09-11T18:45	10	0	0.1	0	0	382	0.2	382	383	16.3	62.1
2025-09-11T18:46	10	0	0.1	0	0	382	0.3	381	383	16.3	62.3
2025-09-11T18:47	10	0	0.0	0	0	383	0.2	382	383	16.3	62.5
2025-09-11T18:48	10	0	0.1	0	0	383	0.3	382	383	16.2	62.8
2025-09-11T18:49	10	0	0.1	0	0	382	0.2	382	383	16.2	63.4
2025-09-11T18:50	10	0	0.1	0	0	382	0.2	382	383	16.1	63.5
2025-09-11T18:51	10	0	0.1	0	0	382	0.2	382	383	16.1	64.1
2025-09-11T18:52	10	0	0.0	0	0	382	0.2	382	383	16.0	64.5
2025-09-11T18:53	10	0	0.1	0	0	382	0.2	382	383	16.0	64.6
2025-09-11T18:54	10	0	0.0	0	0	382	0.2	382	382	15.9	65.9
2025-09-11T18:55	10	0	0.0	0	0	382	0.2	382	382	15.8	66.1
2025-09-11T18:56	10	0	0.1	0	0	382	0.3	381	382	15.8	66.3
2025-09-11T18:57	10	0	0.0	0	0	381	0.2	381	382	15.7	66.4
2025-09-11T18:58	10	0	0.1	0	0	381	0.2	381	382	15.7	66.4
2025-09-11T18:59	10	0	0.0	0	0	380	0.3	380	381	15.7	66.6
2025-09-11T19:00	10	0	0.0	0	0	380	0.1	379	380	15.7	66.1
2025-09-11T19:01	10	0	0.0	0	0	379	0.2	379	380	15.9	64.8
2025-09-11T19:02	10	0	0.1	0	0	379	0.2	379	380	15.9	65.2
2025-09-11T19:03	10	0	0.1	0	0	379	0.3	379	380	15.9	65.3
2025-09-11T19:04	10	0	0.1	0	0	379	0.2	379	380	15.9	65.1
2025-09-11T19:05	10	0	0.1	0	0	379	0.2	379	379	15.9	65.1
2025-09-11T19:06	10	0	0.0	0	0	379	0.4	379	380	16.0	64.7
2025-09-11T19:07	10	0	0.1	0	0	380	0.3	380	381	16.0	64.1
2025-09-11T19:08	10	0	0.1	0	0	380	0.3	380	381	16.1	63.9
2025-09-11T19:09	10	0	0.1	0	0	380	0.3	380	381	16.2	63.6
2025-09-11T19:10	10	0	0.1	0	0	381	0.3	380	381	16.2	63.6
2025-09-11T19:11	10	0	0.1	0	1	381	0.3	380	381	16.2	63.8
2025-09-11T19:12	10	0	0.1	0	1	381	0.4	380	382	16.3	63.0
2025-09-11T19:13	10	0	0.1	0	1	382	0.3	382	383	16.4	62.4
2025-09-11T19:14	10	0	0.1	0	1	381	0.3	381	382	16.3	63.5
2025-09-11T19:15	10	0	0.1	0	1	382	0.2	381	382	16.3	62.7
2025-09-11T19:16	10	0	0.1	0	0	381	0.4	381	382	16.4	62.8
2025-09-11T19:17	10	0	0.1	0	1	380	0.3	380	381	16.2	64.0
2025-09-11T19:18	10	0	0.1	0	0	381	0.5	380	382	16.3	63.0
2025-09-11T19:19	10	0	0.1	0	0	381	0.4	380	382	16.3	63.0
2025-09-11T19:20	10	0	0.1	0	1	381	0.2	380	381	16.4	62.5
2025-09-11T19:21	10	0	0.1	0	0	380	0.2	379	381	16.3	63.6
2025-09-11T19:22	10	0	0.1	0	0	380	0.3	379	380	16.3	63.5
2025-09-11T19:23	10	0	0.1	0	0	379	0.3	379	380	16.3	63.0
2025-09-11T19:24	10	0	0.1	0	1	380	0.3	379	381	16.3	63.0
2025-09-11T19:25	10	0	0.1	0	0	379	0.3	379	380	16.3	62.8
2025-09-11T19:26	10	0	0.1	0	0	379	0.2	379	380	16.2	63.9
2025-09-11T19:27	10	0	0.1	0	0	379	0.2	379	380	16.1	64.0
2025-09-11T19:28	10	0	0.1	0	0	378	0.3	378	379	16.1	64.0
2025-09-11T19:29	10	0	0.0	0	0	378	0.3	377	379	16.1	64.1
2025-09-11T19:30	10	0	0.1	0	0	378	0.2	378	378	16.1	64.2
2025-09-11T19:31	10	0	0.1	0	0	379	0.4	378	380	16.1	64.1
2025-09-11T19:32	10	0	0.1	0	0	380	0.3	379	380	16.1	63.8
2025-09-11T19:33	10	0	0.1	0	0	379	0.3	379	380	16.1	64.3
2025-09-11T19:34	10	0	0.1	0	0	380	0.5	379	381	16.1	64.0
2025-09-11T19:35	10	0	0.1	0	0	380	0.2	379	380	16.0	64.3
2025-09-11T19:36	10	0	0.1	0	0	380	0.2	379	380	16.0	64.3
2025-09-11T19:37	10	0	0.1	0	0	380	0.3	379	381	16.0	64.3
2025-09-11T19:38	10	0	0.1	0	0	380	0.3	380	380	15.9	64.9
2025-09-11T19:39	10	0	0.1	0	0	380	0.2	380	381	15.9	65.4
2025-09-11T19:40	10	0	0.1	0	0	380	0.3	379	380	15.8	65.7
2025-09-11T19:41	10	0	0.0	0	0	380	0.3	379	381	15.8	66.1
2025-09-11T19:42	10	0	0.0	0	0	380	0.2	380	381	15.8	66.1
2025-09-11T19:43	10	0	0.1	0	0	381	0.3	380	381	15.8	66.3
2025-09-11T19:44	10	0	0.1	0	0	381	0.2	380	381	15.7	66.6
2025-09-11T19:45	10	0	0.1	0	0	381	0.2	380	381	15.7	66.9
2025-09-11T19:46	10	0	0.1	0	0	381	0.2	380	381	15.7	66.8
2025-09-11T19:47	10	0	0.1	0	0	381	0.3	380	381	15.6	67.0
2025-09-11T19:48	10	0	0.1	0	0	381	0.2	381	381	15.7	66.8
2025-09-11T19:49	10	0	0.1	0	0	381	0.3	380	382	15.7	66.9
2025-09-11T19:50	10	0	0.1	0	0	381	0.3	380	381	15.6	67.2
2025-09-11T19:51	10	0	0.1	0	0	381	0.3	380	381	15.6	67.0
2025-09-11T19:52	10	0	0.1	0	0	380	0.3	380	381	15.7	66.4
2025-09-11T19:53	10	0	0.1	0	0	381	0.3	380	382	15.7	66.4
2025-09-11T19:54	10	0	0.0	0	0	381	0.3	380	382	15.8	65.9
2025-09-11T19:55	10	0	0.0	0	0	380	0.3	380	381	15.8	66.3
2025-09-11T19:56	10	0	0.1	0	0	380	0.3	379	380	15.7	66.8
2025-09-11T19:57	10	0	0.0	0	0	380	0.2	379	380	15.7	66.7
2025-09-11T19:58	10	0	0.1	0	0	379	0.3	379	380	15.7	66.7
2025-09-11T19:59	10	0	0.1	0	0	379	0.2	379	380	15.7	66.2
2025-09-11T20:00	10	0	0.1	0	0	379	0.2	378	379	15.8	66.1
2025-09-11T20:01	10	0	0.1	0	0	379	0.3	378	379	15.7	66.6
2025-09-11T20:02	10	0	0.1	0	0	378	0.3	378	379	15.7	66.9
2025-09-11T20:03	10	0	0.1	0	0	379	0.3	378	379	15.7	66.4
2025-09-11T20:04	10	0	0.1	0	0	379	0.3	379	380	15.9	65.1
2025-09-11T20:05	10	0	0.1	0	0	379	0.3	378	380	15.8	65.4
2025-09-11T20:06	10	0	0.1	0	0	378	0.4	377	379	15.8	65.4
2025-09-11T20:07	10	0	0.0	0	0	377	0.4	377	378	15.8	65.2
2025-09-11T20:08	10	0	0.1	0	0	377	0.4	376	378	15.8	65.1
2025-09-11T20:09	10	0	0.1	0	0	378	0.3	377	379	16.0	63.7
2025-09-11T20:10	10	0	0.1	0	0	378	0.3	377	379	16.0	63.8
2025-09-11T20:11	10	0	0.1	0	0	378	0.3	377	378	16.0	63.7
2025-09-11T20:12	10	0	0.1	0	0	377	0.2	377	378	16.0	63.7
2025-09-11T20:13	10	0	0.0	0	0	378	0.5	377	379	16.0	63.7
2025-09-11T20:14	10	0	0.0	0	0	379	0.2	378	379	16.0	63.7
2025-09-11T20:15	10	0	0.0	0	0	379	0.2	378	380	16.0	62.7
2025-09-11T20:16	10	0	0.1	0	0	379	0.4	378	379	16.0	63.7
2025-09-11T20:17	10	0	0.0	0	0	378	0.2	378	379	16.0	63.7
2025-09-11T20:18	10	0	0.1	0	0	379	0.2	378	379	16.0	63.7
2025-09-11T20:19	10	0	0.1	0	0	378	0.4	377	379	15.9	63.6
2025-09-11T20:20	10	0	0.0	0	0	377	0.4	376	378	15.9	64.0
2025-09-11T20:21	10	0	0.1	0	0	377	0.3	377	378	15.9	63.6
2025-09-11T20:22	10	0	0.1	0	0	377	0.3	376	378	15.9	63.9
2025-09-11T20:23	10	0	0.1	0	0	377	0.2	376	377	15.8	64.3
2025-09-11T20:24	10	0	0.1	0	0	376	0.2	376	377	15.8	64.3
2025-09-11T20:25	10	0	0.1	0	0	377	0.3	376	377	15.8	64.6
2025-09-11T20:26	10	0	0.1	0	0	377	0.3	376	377	15.8	64.2
2025-09-11T20:27	10	0	0.1	0	0	376	0.3	375	377	15.8	64.8
2025-09-11T20:28	10	0	0.1	0	0	376	0.3	375	376	15.7	65.2
2025-09-11T20:29	10	0	0.1	0	0	376	0.2	375	376	15.6	65.7
2025-09-11T20:30	10	0	0.1	0	0	376	0.3	375	376	15.6	65.8
2025-09-11T20:31	10	0	0.1	0	0	376	0.4	375	377	15.6	65.8
2025-09-11T20:32	10	0	0.1	0	0	376	0.3	376	377	15.5	66.6
2025-09-11T20:33	10	0	0.1	0	0	377	0.3	376	377	15.5	66.6
2025-09-11T20:34	10	0	0.1	0	0	376	0.3	376	377	15.5	66.4
2025-09-11T20:35	10	0	0.1	0	0	376	0.3	376	377	15.5	66.3
2025-09-11T20:36	10	0	0.1	0	0	376	0.3	376	377	15.4	66.8
2025-09-11T20:37	10	0	0.1	0	0	377	0.4	375	377	15.5	65.8
2025-09-11T20:38	10	0	0.1	0	0	377	0.3	376	377	15.6	65.6
2025-09-11T20:39	10	0	0.1	0	0	376	0.3	376	377	15.5	66.2
2025-09-11T20:40	10	0	0.1	0	0	376	0.3	375	376	15.3	67.0
2025-09-11T20:41	10	0	0.1	0	0	375	0.3	374	375	15.3	66.8
2025-09-11T20:42	10	0	0.1	0	0	374	0.3	374	375	15.3	66.9
2025-09-11T20:43	10	0	0.1	0	0	374	0.3	373	374	15.3	66.7
2025-09-11T20:44	10	0	0.1	0	0	375	0.4	374	376	15.4	65.9
2025-09-11T20:45	10	0	0.1	0	0	375	0.2	374	375	15.4	65.9
2025-09-11T20:46	10	0	0.1	0	0	376	0.6	375	377	15.6	64.7
2025-09-11T20:47	10	0	0.1	0	0	376	0.3	375	377	15.8	63.7
2025-09-11T20:48	10	0	0.1	0	0	376	0.3	376	377	15.8	63.5
2025-09-11T20:49	10	0	0.1	0	0	376	0.2	376	377	15.8	63.3
2025-09-11T20:50	10	0	0.1	0	0	376	0.3	376	377	15.8	63.2
2025-09-11T20:51	10	0	0.1	0	0	376	0.3	376	377	15.8	62.9
2025-09-11T20:52	10	0	0.1	0	0	376	0.4	375	377	15.8	63.2
2025-09-11T20:53	10	0	0.1	0	0	376	0.3	376	377	15.8	62.8
2025-09-11T20:54	10	0	0.1	0	0	376	0.3	376	377	15.8	62.9
2025-09-11T20:55	10	0	0.1	0	0	376	0.3	376	377	15.8	62.8
2025-09-11T20:56	10	0	0.1	0	0	376	0.2	376	376	15.7	63.8
2025-09-11T20:57	10	0	0.1	0	0	376	0.3	375	377	15.8	62.8
2025-09-11T20:58	10	0	0.1	0	0	376	0.3	376	377	15.9	62.7
2025-09-11T20:59	10	0	0.1	0	0	376	0.3	376	377	15.8	63.0
2025-09-11T21:00	10	0	0.1	0	0	376	0.3	375	377	15.8	63.4
2025-09-11T21:01	10	0	0.1	0	0	376	0.3	375	377	15.8	63.1
2025-09-11T21:02	10	0	0.1	0	0	376	0.3	375	377	15.7	63.9
2025-09-11T21:03	10	0	0.1	0	0	375	0.2	375	376	15.6	64.4
2025-09-11T21:04	10	0	0.1	0	0	375	0.3	374	375	15.5	64.8
2025-09-11T21:05	10	0	0.1	0	0	375	0.3	374	375	15.4	65.3
2025-09-11T21:06	10	0	0.1	0	0	374	0.3	374	375	15.4	65.5
2025-09-11T21:07	10	0	0.1	0	0	374	0.2	374	375	15.4	65.5
2025-09-11T21:08	10	0	0.1	0	0	374	0.3	373	374	15.3	65.9
2025-09-11T21:09	10	0	0.1	0	0	374	0.2	373	374	15.3	66.2
2025-09-11T21:10	10	0	0.1	0	0	374	0.3	373	374	15.2	66.3
2025-09-11T21:11	10	0	0.1	0	0	374	0.2	373	374	15.3	66.0
2025-09-11T21:12	10	0	0.1	0	0	374	0.3	373	375	15.3	66.1
2025-09-11T21:13	10	0	0.1	0	0	374	0.3	374	375	15.4	65.7
2025-09-11T21:14	10	0	0.1	0	0	374	0.3	374	375	15.4	65.7
2025-09-11T21:15	10	0	0.1	0	0	374	0.4	373	375	15.4	66.0
2025-09-11T21:16	10	0	0.1	0	0	375	0.3	374	375	15.4	66.0
2025-09-11T21:17	10	0	0.1	0	0	375	0.2	375	376	15.4	65.8
2025-09-11T21:18	10	0	0.1	0	0	375	0.2	374	375	15.4	66.0
2025-09-11T21:19	10	0	0.1	0	0	375	0.3	374	375	15.4	66.1
2025-09-11T21:20	10	0	0.1	0	0	375	0.3	374	376	15.4	66.0
2025-09-11T21:21	10	0	0.1	0	0	375	0.3	374	375	15.4	66.2
2025-09-11T21:22	10	0	0.0	0	0	375	0.3	374	375	15.3	66.5
2025-09-11T21:23	10	0	0.1	0	0	375	0.3	374	375	15.3	66.8
2025-09-11T21:24	10	0	0.1	0	0	374	0.3	374	375	15.3	67.1
2025-09-11T21:25	10	0	0.1	0	0	374	0.3	373	374	15.1	67.7
2025-09-11T21:26	10	0	0.1	0	0	374	0.2	373	374	15.1	68.0
2025-09-11T21:27	10	0	0.1	0	0	373	0.3	372	374	15.1	68.3
2025-09-11T21:28	10	0	0.1	0	0	373	0.3	373	374	15.1	68.2
2025-09-11T21:29	10	0	0.1	0	0	373	0.3	373	374	15.0	68.5
2025-09-11T21:30	10	0	0.1	0	0	373	0.3	372	374	15.0	68.8
2025-09-11T21:31	10	0	0.1	0	0	372	0.3	372	373	14.9	69.5
2025-09-11T21:32	10	0	0.1	0	0	372	0.3	371	372	14.8	69.8
2025-09-11T21:33	10	0	0.1	0	0	372	0.3	371	372	14.7	70.2
2025-09-11T21:34	10	0	0.1	0	0	371	0.3	371	372	14.6	70.5
2025-09-11T21:35	10	0	0.1	0	0	371	0.2	370	371	14.6	70.8
2025-09-11T21:36	10	0	0.1	0	0	371	0.3	370	371	14.6	71.1
2025-09-11T21:37	10	0	0.1	0	0	371	0.3	370	372	14.4	71.6
2025-09-11T21:38	10	0	0.0	0	0	371	0.2	371	372	14.5	71.4
2025-09-11T21:39	10	0	0.1	0	0	371	0.3	370	372	14.4	71.8
2025-09-11T21:40	10	0	0.1	0	0	371	0.2	371	372	14.4	71.8
2025-09-11T21:41	10	0	0.1	0	0	371	0.3	371	372	14.4	72.0
2025-09-11T21:42	10	0	0.1	0	0	371	0.4	371	372	14.4	71.7
2025-09-11T21:43	10	0	0.1	0	0	372	0.3	371	372	14.5	71.6
2025-09-11T21:44	10	0	0.1	0	0	372	0.4	371	373	14.5	71.2
2025-09-11T21:45	10	0	0.1	0	0	372	0.3	371	373	14.6	70.6
2025-09-11T21:46	10	0	0.1	0	0	372	0.3	371	373	14.6	71.1
2025-09-11T21:47	10	0	0.1	0	0	372	0.3	371	373	14.6	70.7
2025-09-11T21:48	10	0	0.0	0	0	371	0.3	370	371	14.6	71.0
2025-09-11T21:49	10	0	0.1	0	0	370	0.2	370	371	14.5	71.2
2025-09-11T21:50	10	0	0.1	0	0	371	0.3	370	371	14.5	71.2
2025-09-11T21:51	10	0	0.1	0	0	371	0.2	370	371	14.5	71.2
2025-09-11T21:52	10	0	0.1	0	0	370	0.2	369	370	14.4	71.8
2025-09-11T21:53	10	0	0.0	0	0	371	0.3	370	372	14.5	71.4
2025-09-11T21:54	10	0	0.0	0	0	371	0.2	371	372	14.5	71.4
2025-09-11T21:55	10	0	0.1	0	0	372	0.2	371	372	14.5	71.4
2025-09-11T21:56	10	0	0.0	0	0	371	0.3	371	372	14.5	71.2
2025-09-11T21:57	10	0	0.0	0	0	371	0.2	371	372	14.5	71.6
2025-09-11T21:58	10	0	0.0	0	0	371	0.3	370	371	14.4	72.2
2025-09-11T21:59	10	0	0.0	0	0	370	0.3	370	371	14.3	73.1
2025-09-11T22:00	10	0	0.0	0	0	370	0.2	370	371	14.2	73.5
2025-09-11T22:01	10	0	0.0	0	0	370	0.4	369	371	14.2	73.2
2025-09-11T22:02	10	0	0.1	0	0	371	0.3	370	371	14.4	72.3
2025-09-11T22:03	10	0	0.1	0	0	372	0.2	371	372	14.4	72.3
2025-09-11T22:04	10	0	0.0	0	0	371	0.2	371	372	14.3	72.6
2025-09-11T22:05	10	0	0.1	0	0	372	0.2	371	372	14.3	72.5
2025-09-11T22:06	10	0	0.1	0	0	372	0.3	372	373	14.3	72.5
2025-09-11T22:07	10	0	0.0	0	0	372	0.2	371	372	14.3	72.6
2025-09-11T22:08	10	0	0.0	0	0	372	0.2	372	372	14.3	72.5
2025-09-11T22:09	10	0	0.0	0	0	372	0.4	372	373	14.4	72.3
2025-09-11T22:10	10	0	0.1	0	0	373	0.2	372	373	14.4	71.8
2025-09-11T22:11	10	0	0.1	0	0	373	0.2	372	373	14.4	72.1
2025-09-11T22:12	10	0	0.0	0	0	373	0.2	373	374	14.4	71.6
2025-09-11T22:13	10	0	0.0	0	0	373	0.2	372	374	14.5	71.3
2025-09-11T22:14	10	0	0.1	0	0	373	0.3	372	374	14.4	71.9
2025-09-11T22:15	10	0	0.0	0	0	373	0.2	372	373	14.4	71.5
2025-09-11T22:16	10	0	0.0	0	0	373	0.3	373	374	14.5	71.2
2025-09-11T22:17	10	0	0.1	0	0	373	0.2	372	374	14.5	71.0
2025-09-11T22:18	10	0	0.1	0	0	373	0.3	372	374	14.5	70.8
2025-09-11T22:19	10	0	0.0	0	0	373	0.3	372	374	14.5	71.0
2025-09-11T22:20	10	0	0.1	0	0	373	0.2	373	374	14.5	71.0
2025-09-11T22:21	10	0	0.1	0	0	373	0.3	373	374	14.6	70.4
2025-09-11T22:22	10	0	0.1	0	1	373	0.3	373	374	14.6	70.4
2025-09-11T22:23	10	0	0.1	0	1	373	0.3	373	374	14.5	70.8
2025-09-11T22:24	10	0	0.1	0	1	373	0.3	373	374	14.5	70.7
2025-09-11T22:25	10	0	0.1	0	0	373	0.2	373	374	14.6	70.8
2025-09-11T22:26	10	0	0.1	0	0	374	0.3	373	374	14.6	70.6
2025-09-11T22:27	10	0	0.1	0	1	374	0.2	373	374	14.6	70.3
2025-09-11T22:28	10	0	0.1	0	0	374	0.3	373	375	14.6	70.2
2025-09-11T22:29	10	0	0.1	0	0	374	0.2	374	375	14.7	69.8
2025-09-11T22:30	10	0	0.2	0	1	375	0.3	374	375	14.8	69.4
2025-09-11T22:31	10	0	0.1	0	1	375	0.3	374	375	14.8	69.4
2025-09-11T22:32	10	0	0.1	0	0	375	0.3	374	376	14.8	69.5
2025-09-11T22:33	10	0	0.2	0	1	376	0.3	375	377	14.9	69.1
2025-09-11T22:34	10	0	0.1	0	0	376	0.3	376	377	14.9	69.1
2025-09-11T22:35	10	0	0.1	0	1	377	0.2	376	377	14.9	69.0
2025-09-11T22:36	10	0	0.1	0	1	377	0.3	377	378	14.9	69.0
2025-09-11T22:37	10	0	0.1	0	0	377	0.2	377	378	14.8	69.6
2025-09-11T22:38	10	0	0.2	0	1	377	0.3	377	378	14.8	69.7
2025-09-11T22:39	10	0	0.2	0	1	378	0.3	377	378	14.7	70.0
2025-09-11T22:40	10	0	0.1	0	1	378	0.3	377	378	14.7	70.3
2025-09-11T22:41	10	0	0.2	0	1	378	0.3	377	378	14.6	70.9
2025-09-11T22:42	10	0	0.2	0	1	377	0.3	377	378	14.6	71.1
2025-09-11T22:43	10	0	0.2	0	1	377	0.3	377	378	14.6	71.1
2025-09-11T22:44	10	0	0.1	0	1	377	0.2	377	378	14.6	71.3
2025-09-11T22:45	10	0	0.2	0	1	377	0.2	377	378	14.5	71.8
2025-09-11T22:46	10	0	0.2	0	1	377	0.3	377	378	14.6	71.2
2025-09-11T22:47	10	0	0.2	0	1	377	0.4	376	378	14.6	71.4
2025-09-11T22:48	10	0	0.1	0	0	378	0.3	377	379	14.7	71.1
2025-09-11T22:49	10	0	0.1	0	0	378	0.3	377	378	14.7	71.1
2025-09-11T22:50	10	0	0.1	0	1	377	0.3	377	378	14.6	71.7
2025-09-11T22:51	10	0	0.2	0	0	378	0.2	377	378	14.6	71.8
2025-09-11T22:52	10	0	0.1	0	1	378	0.3	377	378	14.6	71.6
2025-09-11T22:53	10	0	0.2	0	1	378	0.3	377	378	14.7	71.3
2025-09-11T22:54	10	0	0.2	0	1	378	0.3	377	378	14.8	71.0
2025-09-11T22:55	10	0	0.1	0	1	378	0.3	377	379	14.8	70.9
2025-09-11T22:56	10	0	0.1	0	1	379	0.2	378	379	14.8	70.8
2025-09-11T22:57	10	0	0.1	0	0	378	0.3	377	379	14.9	70.9
2025-09-11T22:58	10	0	0.2	0	1	378	0.3	378	379	14.8	71.6
2025-09-11T22:59	10	0	0.2	0	1	378	0.2	378	379	14.8	71.8
2025-09-11T23:00	10	0	0.2	0	1	378	0.3	378	379	14.8	71.7
2025-09-11T23:01	10	0	0.5	0	4	379	0.3	378	380	14.9	70.8
2025-09-11T23:02	10	0	0.1	0	0	379	0.3	378	380	14.9	71.2
2025-09-11T23:03	10	0	0.2	0	1	379	0.3	378	379	14.9	70.8
2025-09-11T23:04	10	0	0.2	0	1	379	0.3	378	380	14.9	71.1
2025-09-11T23:05	10	0	0.2	0	1	378	0.3	378	379	14.9	71.1
2025-09-11T23:06	10	0	0.1	0	0	378	0.3	377	378	14.9	71.3
2025-09-11T23:07	10	0	0.2	0	1	377	0.3	377	378	14.8	72.1
2025-09-11T23:08	10	0	0.1	0	1	377	0.3	376	378	14.9	71.6
2025-09-11T23:09	10	0	0.1	0	0	377	0.3	376	378	15.0	71.1
2025-09-11T23:10	10	0	0.1	0	0	377	0.3	376	377	14.8	72.2
2025-09-11T23:11	10	0	0.1	0	0	377	0.3	376	378	15.0	71.1
2025-09-11T23:12	10	0	0.2	0	1	377	0.3	376	378	15.0	71.2
2025-09-11T23:13	10	0	0.1	0	1	377	0.3	376	378	15.0	70.8
2025-09-11T23:14	10	0	0.1	0	0	376	0.3	376	377	15.0	71.2
2025-09-11T23:15	10	0	0.2	0	1	376	0.2	376	377	15.0	71.5
2025-09-11T23:16	10	0	0.2	0	1	376	0.3	375	377	15.0	71.0
2025-09-11T23:17	10	0	0.2	0	1	376	0.2	376	377	15.0	71.0
2025-09-11T23:18	10	0	0.1	0	0	377	0.3	376	378	15.1	70.4
2025-09-11T23:19	10	0	0.1	0	1	378	0.3	377	378	15.2	70.1
2025-09-11T23:20	10	0	0.1	0	0	378	0.3	377	379	15.1	70.3
2025-09-11T23:21	10	0	0.1	0	1	379	0.3	378	379	15.2	69.8
2025-09-11T23:22	10	0	0.2	0	1	379	0.3	378	379	15.2	70.1
2025-09-11T23:23	10	0	0.1	0	0	379	0.2	378	379	15.2	70.4
2025-09-11T23:24	10	0	0.1	0	0	379	0.3	378	380	15.0	71.3
2025-09-11T23:25	10	0	0.1	0	1	379	0.3	378	380	15.0	71.3
2025-09-11T23:26	10	0	0.2	0	1	379	0.2	379	380	15.1	70.7
2025-09-11T23:27	10	0	0.1	0	0	379	0.3	378	380	15.1	70.8
2025-09-11T23:28	10	0	0.1	0	1	379	0.3	379	380	15.2	70.8
2025-09-11T23:29	10	0	0.1	0	0	379	0.2	379	380	15.1	71.2
2025-09-11T23:30	10	0	0.1	0	1	379	0.2	379	380	15.2	71.1
2025-09-11T23:31	10	0	0.1	0	1	379	0.4	378	380	15.3	70.8
2025-09-11T23:32	10	0	0.1	0	0	379	0.3	378	379	15.2	70.8
2025-09-11T23:33	10	0	0.1	0	0	378	0.3	378	379	15.3	70.7
2025-09-11T23:34	10	0	0.1	0	0	378	0.3	377	379	15.3	70.5
2025-09-11T23:35	10	0	0.1	0	0	378	0.3	377	379	15.4	70.4
2025-09-11T23:36	10	0	0.1	0	1	378	0.2	377	378	15.4	70.3
2025-09-11T23:37	10	0	0.1	0	1	377	0.5	376	378	15.3	71.2
2025-09-11T23:38	10	0	0.1	0	0	376	0.3	376	377	15.2	71.6
2025-09-11T23:39	10	0	0.1	0	0	376	0.3	376	377	15.2	71.3
2025-09-11T23:40	10	0	0.1	0	0	376	0.3	376	377	15.2	71.1
2025-09-11T23:41	10	0	0.1	0	0	376	0.3	376	377	15.2	71.2
2025-09-11T23:42	10	0	0.0	0	0	376	0.2	375	376	15.1	71.9
2025-09-11T23:43	10	0	0.1	0	0	376	0.3	375	376	15.1	72.0
2025-09-11T23:44	10	0	0.1	0	0	375	0.2	375	376	15.1	71.5
2025-09-11T23:45	10	0	0.1	0	0	375	0.3	375	376	15.1	71.4
2025-09-11T23:46	10	0	0.1	0	0	376	0.2	375	376	15.1	71.5
2025-09-11T23:47	10	0	0.1	0	0	376	0.2	375	376	15.2	70.7
2025-09-11T23:48	10	0	0.1	0	0	376	0.3	376	377	15.2	70.9
2025-09-11T23:49	10	0	0.1	0	0	377	0.3	376	378	15.2	70.7
2025-09-11T23:50	10	0	0.1	0	0	377	0.2	377	378	15.3	70.3
2025-09-11T23:51	10	0	0.1	0	0	378	0.3	377	379	15.3	69.8
2025-09-11T23:52	10	0	0.1	0	0	378	0.2	378	379	15.4	69.7
2025-09-11T23:53	10	0	0.1	0	0	379	0.2	378	379	15.3	70.0
2025-09-11T23:54	10	0	0.1	0	0	379	0.3	378	380	15.3	69.6
2025-09-11T23:55	10	0	0.1	0	0	379	0.2	379	380	15.3	70.3
2025-09-11T23:56	10	0	0.0	0	0	379	0.2	379	380	15.3	69.9
2025-09-11T23:57	10	0	0.1	0	0	379	0.2	379	380	15.3	70.1
2025-09-11T23:58	10	0	0.1	0	0	380	0.3	379	380	15.3	69.8
2025-09-11T23:59	10	0	0.1	0	0	380	0.2	380	381	15.3	70.0
2025-09-12T00:00	10	0	0.2	0	1	380	0.3	380	381	15.3	70.3
2025-09-12T00:01	10	0	0.1	0	1	380	0.3	379	381	15.2	70.3
2025-09-12T00:02	10	0	0.1	0	0	380	0.2	379	381	15.2	70.8
2025-09-12T00:03	10	0	0.1	0	0	380	0.3	379	380	15.1	70.9
2025-09-12T00:04	10	0	0.1	0	0	380	0.3	379	381	15.1	71.3
2025-09-12T00:05	10	0	0.1	0	0	380	0.2	380	381	15.2	70.3
2025-09-12T00:06	10	0	0.1	0	0	380	0.2	380	381	15.2	70.3
2025-09-12T00:07	10	0	0.1	0	0	380	0.2	379	380	15.1	70.9
2025-09-12T00:08	10	0	0.1	0	0	380	0.2	379	380	15.2	70.7
2025-09-12T00:09	10	0	0.1	0	0	380	0.3	379	381	15.1	71.0
2025-09-12T00:10	10	0	0.1	0	0	379	0.2	379	380	15.1	71.4
2025-09-12T00:11	10	0	0.1	0	0	380	0.3	379	380	15.0	71.6
2025-09-12T00:12	10	0	0.1	0	0	380	0.3	379	380	15.1	71.1
2025-09-12T00:13	10	0	0.1	0	0	380	0.2	380	380	15.1	70.9
2025-09-12T00:14	10	0	0.1	0	0	380	0.2	379	381	15.1	70.9
2025-09-12T00:15	10	0	0.1	0	0	380	0.3	379	381	15.1	71.1
2025-09-12T00:16	10	0	0.0	0	0	380	0.2	380	381	15.1	71.0
2025-09-12T00:17	10	0	0.1	0	0	380	0.3	380	381	15.2	70.4
2025-09-12T00:18	10	0	0.1	0	1	381	0.2	380	381	15.3	70.3
2025-09-12T00:19	10	0	0.0	0	0	381	0.2	380	381	15.2	70.8
2025-09-12T00:20	10	0	0.1	0	1	380	0.2	380	381	15.2	71.0
2025-09-12T00:21	10	0	0.1	0	0	380	0.3	380	381	15.2	70.7
2025-09-12T00:22	10	0	0.1	0	1	380	0.3	380	381	15.2	70.6
2025-09-12T00:23	10	0	0.1	0	0	381	0.3	380	381	15.3	70.3
2025-09-12T00:24	10	0	0.1	0	0	380	0.2	380	381	15.3	69.6
2025-09-12T00:25	10	0	0.1	0	0	380	0.2	380	381	15.3	70.1
2025-09-12T00:26	10	0	0.1	0	0	380	0.3	379	381	15.2	70.3
2025-09-12T00:27	10	0	0.1	0	0	380	0.3	379	381	15.3	70.1
2025-09-12T00:28	10	0	0.1	0	0	380	0.3	379	380	15.2	70.2
2025-09-12T00:29	10	0	0.1	0	0	379	0.3	379	380	15.2	70.4
2025-09-12T00:30	10	0	0.1	0	0	379	0.2	378	379	15.2	70.4
2025-09-12T00:31	10	0	0.0	0	0	379	0.2	378	379	15.2	70.4
2025-09-12T00:32	10	0	0.0	0	0	378	0.3	378	379	15.2	70.6
2025-09-12T00:33	10	0	0.1	0	0	378	0.3	377	379	15.3	70.1
2025-09-12T00:34	10	0	0.0	0	0	377	0.2	377	378	15.1	71.0
2025-09-12T00:35	10	0	0.0	0	0	377	0.2	377	377	15.1	71.3
2025-09-12T00:36	10	0	0.0	0	0	377	0.3	377	378	15.1	71.2
2025-09-12T00:37	10	0	0.1	0	0	377	0.2	377	378	15.1	71.3
2025-09-12T00:38	10	0	0.0	0	0	377	0.2	377	378	15.0	72.1
2025-09-12T00:39	10	0	0.0	0	0	378	0.2	377	378	15.0	72.0
2025-09-12T00:40	10	0	0.0	0	0	378	0.2	377	378	15.0	72.3
2025-09-12T00:41	10	0	0.0	0	0	378	0.3	377	378	15.0	72.2
2025-09-12T00:42	10	0	0.0	0	0	378	0.2	377	378	15.0	72.6
2025-09-12T00:43	10	0	0.0	0	0	378	0.2	377	378	14.9	73.0
2025-09-12T00:44	10	0	0.1	0	0	377	0.3	377	378	14.8	73.8
2025-09-12T00:45	10	0	0.0	0	0	377	0.3	376	377	14.8	73.9
2025-09-12T00:46	10	0	0.0	0	0	377	0.2	376	377	14.8	74.1
2025-09-12T00:47	10	0	0.1	0	0	377	0.2	376	377	14.8	73.8
2025-09-12T00:48	10	0	0.0	0	0	376	0.2	376	377	14.8	73.6
2025-09-12T00:49	10	0	0.0	0	0	376	0.2	376	377	14.8	73.3
2025-09-12T00:50	10	0	0.0	0	0	376	0.3	375	377	14.8	73.1
2025-09-12T00:51	10	0	0.1	0	0	376	0.4	376	377	14.8	73.2
2025-09-12T00:52	10	0	0.1	0	0	376	0.3	376	377	14.9	73.0
2025-09-12T00:53	10	0	0.1	0	0	376	0.3	375	377	14.8	73.7
2025-09-12T00:54	10	0	0.1	0	0	376	0.2	375	376	14.9	73.4
2025-09-12T00:55	10	0	0.0	0	0	376	0.2	375	376	14.9	73.1
2025-09-12T00:56	10	0	0.0	0	0	375	0.2	375	376	14.9	72.9
2025-09-12T00:57	10	0	0.0	0	0	375	0.2	374	375	14.9	73.2
2025-09-12T00:58	10	0	0.1	0	0	375	0.2	374	375	15.0	72.4
2025-09-12T00:59	10	0	0.0	0	0	374	0.2	374	375	15.0	72.2
2025-09-12T01:00	10	0	0.1	0	1	374	0.3	373	374	15.0	72.6
2025-09-12T01:01	10	0	0.0	0	0	373	0.2	373	374	14.9	73.2
2025-09-12T01:02	10	0	0.1	0	0	373	0.3	373	374	14.8	73.4
2025-09-12T01:03	10	0	0.0	0	0	373	0.2	373	374	14.8	73.7
2025-09-12T01:04	10	0	0.0	0	0	373	0.2	373	373	14.8	73.9
2025-09-12T01:05	10	0	0.0	0	0	373	0.2	372	373	14.8	73.6
2025-09-12T01:06	10	0	0.0	0	0	372	0.2	372	373	14.8	73.7
2025-09-12T01:07	10	0	0.0	0	0	373	0.2	372	373	14.7	74.2
2025-09-12T01:08	10	0	0.0	0	0	373	0.3	373	374	14.8	73.7
2025-09-12T01:09	10	0	0.0	0	0	373	0.3	373	374	14.8	74.0
2025-09-12T01:10	10	0	0.0	0	0	373	0.2	373	374	14.7	73.9
2025-09-12T01:11	10	0	0.1	0	0	374	0.3	373	375	14.7	74.0
2025-09-12T01:12	10	0	0.0	0	0	375	0.3	374	376	14.8	73.3
2025-09-12T01:13	10	0	0.0	0	0	375	0.3	375	376	14.8	73.5
2025-09-12T01:14	10	0	0.0	0	0	376	0.2	375	376	14.7	73.7
2025-09-12T01:15	10	0	0.1	0	0	376	0.3	376	377	14.7	74.1
2025-09-12T01:16	10	0	0.0	0	0	377	0.3	376	377	14.7	74.2
2025-09-12T01:17	10	0	0.1	0	0	377	0.3	376	377	14.6	74.4
2025-09-12T01:18	10	0	0.1	0	0	377	0.2	377	378	14.6	74.6
2025-09-12T01:19	10	0	0.0	0	0	377	0.2	377	378	14.6	74.9
2025-09-12T01:20	10	0	0.1	0	0	378	0.2	377	378	14.6	74.5
2025-09-12T01:21	10	0	0.1	0	0	378	0.2	377	378	14.6	75.3
2025-09-12T01:22	10	0	0.1	0	0	378	0.2	377	378	14.6	75.2
2025-09-12T01:23	10	0	0.1	0	1	378	0.3	377	379	14.5	75.8
2025-09-12T01:24	10	0	0.1	0	0	378	0.2	377	378	14.4	76.1
2025-09-12T01:25	10	0	0.1	0	0	378	0.2	377	378	14.4	76.3
2025-09-12T01:26	10	0	0.1	0	1	378	0.3	378	379	14.4	76.2
2025-09-12T01:27	10	0	0.1	0	0	378	0.2	377	378	14.4	76.1
2025-09-12T01:28	10	0	0.1	0	0	378	0.2	378	379	14.4	76.3
2025-09-12T01:29	10	0	0.1	0	0	378	0.2	378	379	14.4	76.8
2025-09-12T01:30	10	0	0.1	0	0	378	0.2	378	379	14.3	77.1
2025-09-12T01:31	10	0	0.1	0	0	378	0.2	378	379	14.4	76.6
2025-09-12T01:32	10	0	0.1	0	0	378	0.2	378	379	14.4	76.4
2025-09-12T01:33	10	0	0.1	0	1	378	0.2	378	379	14.4	76.6
2025-09-12T01:34	10	0	0.1	0	1	379	0.2	378	379	14.4	76.3
2025-09-12T01:35	10	0	0.1	0	0	379	0.2	378	379	14.4	76.7
2025-09-12T01:36	10	0	0.1	0	1	378	0.2	378	379	14.4	76.8
2025-09-12T01:37	10	0	0.1	0	0	378	0.2	378	379	14.3	77.0
2025-09-12T01:38	10	0	0.1	0	1	378	0.2	378	379	14.4	76.6
2025-09-12T01:39	10	0	0.1	0	0	378	0.3	377	379	14.3	77.2
2025-09-12T01:40	10	0	0.1	0	0	378	0.2	378	379	14.4	76.6
2025-09-12T01:41	10	0	0.1	0	0	378	0.2	378	379	14.4	76.9
2025-09-12T01:42	10	0	0.1	0	0	378	0.2	378	379	14.3	77.1
2025-09-12T01:43	10	0	0.1	0	0	378	0.2	378	379	14.4	76.9
2025-09-12T01:44	10	0	0.1	0	1	378	0.3	378	379	14.4	76.9
2025-09-12T01:45	10	0	0.1	0	0	378	0.2	378	379	14.3	77.3
2025-09-12T01:46	10	0	0.1	0	0	378	0.2	378	379	14.3	77.7
2025-09-12T01:47	10	0	0.1	0	0	379	0.3	378	379	14.3	77.1
2025-09-12T01:48	10	0	0.1	0	1	379	0.2	378	379	14.4	76.8
2025-09-12T01:49	10	0	0.1	0	1	379	0.3	378	379	14.4	77.2
2025-09-12T01:50	10	0	0.1	0	1	379	0.2	378	379	14.4	76.3
2025-09-12T01:51	10	0	0.1	0	0	379	0.2	378	379	14.4	76.9
2025-09-12T01:52	10	0	0.1	0	1	379	0.3	378	379	14.4	76.9
2025-09-12T01:53	10	0	0.1	0	1	379	0.3	378	380	14.4	76.7
2025-09-12T01:54	10	0	0.1	0	0	379	0.2	378	379	14.5	76.2
2025-09-12T01:55	10	0	0.1	0	0	379	0.2	379	379	14.5	76.2
2025-09-12T01:56	10	0	0.1	0	0	379	0.3	379	380	14.6	75.8
2025-09-12T01:57	10	0	0.1	0	0	379	0.3	379	380	14.6	75.8
2025-09-12T01:58	10	0	0.1	0	0	379	0.2	379	380	14.6	76.0
2025-09-12T01:59	10	0	0.1	0	1	379	0.2	378	379	14.5	76.1
2025-09-12T02:00	10	0	0.1	0	0	379	0.2	379	380	14.5	76.1
2025-09-12T02:01	10	0	0.1	0	0	379	0.3	378	380	14.5	76.3
2025-09-12T02:02	10	0	0.1	0	1	379	0.3	378	380	14.5	76.6
2025-09-12T02:03	10	0	0.2	0	1	379	0.2	378	379	14.4	76.9
2025-09-12T02:04	10	0	0.1	0	0	379	0.3	378	380	14.4	76.8
2025-09-12T02:05	10	0	0.1	0	0	379	0.3	378	380	14.4	76.9
2025-09-12T02:06	10	0	0.1	0	1	379	0.2	378	379	14.5	76.6
2025-09-12T02:07	10	0	0.1	0	0	379	0.2	378	380	14.4	76.8
2025-09-12T02:08	10	0	0.1	0	0	379	0.3	378	379	14.5	76.7
2025-09-12T02:09	10	0	0.1	0	1	379	0.3	378	380	14.5	76.3
2025-09-12T02:10	10	0	0.1	0	1	379	0.3	378	380	14.6	76.1
2025-09-12T02:11	10	0	0.2	0	1	379	0.2	379	380	14.5	76.5
2025-09-12T02:12	10	0	0.2	0	1	379	0.3	378	379	14.5	76.6
2025-09-12T02:13	10	0	0.1	0	0	379	0.2	378	379	14.5	76.3
2025-09-12T02:14	10	0	0.2	0	1	379	0.3	378	379	14.5	76.5
2025-09-12T02:15	10	0	0.1	0	0	379	0.3	378	380	14.5	76.9
2025-09-12T02:16	10	0	0.1	0	0	379	0.2	379	379	14.5	77.2
2025-09-12T02:17	10	0	0.1	0	0	379	0.2	378	380	14.5	77.3
2025-09-12T02:18	10	0	0.1	0	0	379	0.4	378	380	14.5	76.6
2025-09-12T02:19	10	0	0.1	0	1	379	0.2	379	380	14.6	76.3
2025-09-12T02:20	10	0	0.1	0	0	379	0.2	379	380	14.6	76.1
2025-09-12T02:21	10	0	0.1	0	0	379	0.3	379	380	14.6	76.6
2025-09-12T02:22	10	0	0.1	0	1	379	0.2	378	380	14.6	76.4
2025-09-12T02:23	10	0	0.1	0	1	379	0.3	378	379	14.6	76.9
2025-09-12T02:24	10	0	0.1	0	1	379	0.3	378	379	14.6	76.8
2025-09-12T02:25	10	0	0.1	0	0	379	0.2	378	379	14.6	76.5
2025-09-12T02:26	10	0	0.2	0	1	379	0.4	378	380	14.6	76.0
2025-09-12T02:27	10	0	0.1	0	0	379	0.3	378	380	14.6	76.5
2025-09-12T02:28	10	0	0.1	0	0	379	0.2	378	379	14.7	76.0
2025-09-12T02:29	10	0	0.2	0	1	379	0.2	379	380	14.7	76.0
2025-09-12T02:30	10	0	0.2	0	1	379	0.3	379	380	14.6	76.5
2025-09-12T02:31	10	0	0.2	0	1	379	0.3	379	380	14.6	76.2
2025-09-12T02:32	10	0	0.1	0	0	379	0.3	378	379	14.6	76.9
2025-09-12T02:33	10	0	0.1	0	1	379	0.3	378	380	14.5	77.6
2025-09-12T02:34	10	0	0.1	0	1	379	0.3	378	380	14.5	77.1
2025-09-12T02:35	10	0	0.2	0	1	379	0.2	378	379	14.6	77.2
2025-09-12T02:36	10	0	0.2	0	1	379	0.3	379	380	14.5	77.8
2025-09-12T02:37	10	0	0.2	0	1	379	0.2	379	380	14.6	76.7
2025-09-12T02:38	10	0	0.2	0	1	379	0.2	379	380	14.6	76.6
2025-09-12T02:39	10	0	0.1	0	0	379	0.3	379	380	14.6	76.4
2025-09-12T02:40	10	0	0.2	0	1	379	0.2	379	379	14.7	76.1
2025-09-12T02:41	10	0	0.1	0	1	379	0.3	378	380	14.6	76.1
2025-09-12T02:42	10	0	0.2	0	1	379	0.2	378	379	14.6	77.2
2025-09-12T02:43	10	0	0.1	0	0	379	0.3	378	379	14.5	78.0
2025-09-12T02:44	10	0	0.1	0	0	379	0.3	379	380	14.5	77.9
2025-09-12T02:45	10	0	0.1	0	0	379	0.3	379	380	14.5	77.7
2025-09-12T02:46	10	0	0.2	0	1	379	0.3	378	380	14.6	77.1
2025-09-12T02:47	10	0	0.1	0	1	379	0.3	378	380	14.5	77.7
2025-09-12T02:48	10	0	0.2	0	1	379	0.2	378	379	14.5	77.0
2025-09-12T02:49	10	0	0.2	0	1	379	0.3	378	379	14.5	77.6
2025-09-12T02:50	10	0	0.1	0	1	378	0.3	377	379	14.4	78.5
2025-09-12T02:51	10	0	0.2	0	0	378	0.3	377	379	14.4	77.9
2025-09-12T02:52	10	0	0.1	0	0	379	0.3	378	379	14.5	76.9
2025-09-12T02:53	10	0	0.2	0	1	379	0.3	378	379	14.6	76.0
2025-09-12T02:54	10	0	0.2	0	1	378	0.2	378	379	14.6	76.2
2025-09-12T02:55	10	0	0.2	0	1	378	0.4	377	379	14.5	77.4
2025-09-12T02:56	10	0	0.2	0	1	378	0.3	377	378	14.3	78.8
2025-09-12T02:57	10	0	0.1	0	0	378	0.3	377	378	14.3	79.0
2025-09-12T02:58	10	0	0.2	0	1	378	0.3	377	378	14.3	79.4
2025-09-12T02:59	10	0	0.2	0	1	378	0.2	377	378	14.4	77.9
2025-09-12T03:00	10	0	0.1	0	0	378	0.3	377	378	14.4	78.8
2025-09-12T03:01	10	0	0.1	0	0	378	0.2	377	379	14.4	78.9
2025-09-12T03:02	10	0	0.1	0	0	378	0.2	377	378	14.4	79.1
2025-09-12T03:03	10	0	0.2	0	1	378	0.3	377	379	14.4	78.7
2025-09-12T03:04	10	0	0.1	0	0	378	0.2	377	378	14.3	80.1
2025-09-12T03:05	10	0	0.1	0	0	378	0.3	377	378	14.2	80.9
2025-09-12T03:06	10	0	0.1	0	0	377	0.2	377	378	14.2	81.2
2025-09-12T03:07	10	0	0.1	0	0	377	0.3	377	378	14.1	82.4
2025-09-12T03:08	10	0	0.1	0	0	378	0.2	377	378	14.1	82.8
2025-09-12T03:09	10	0	0.1	0	0	377	0.2	377	378	13.9	83.8
2025-09-12T03:10	10	0	0.1	0	0	377	0.2	377	378	14.0	83.1
2025-09-12T03:11	10	0	0.1	0	0	377	0.2	377	378	14.0	83.8
2025-09-12T03:12	10	0	0.1	0	0	377	0.2	377	378	13.9	84.1
2025-09-12T03:13	10	0	0.1	0	0	377	0.2	377	378	14.1	83.0
2025-09-12T03:14	10	0	0.1	0	0	378	0.2	377	378	14.1	83.0
2025-09-12T03:15	10	0	0.0	0	0	378	0.2	377	378	14.2	82.0
2025-09-12T03:16	10	0	0.0	0	0	378	0.2	377	378	14.1	82.8
2025-09-12T03:17	10	0	0.1	0	0	377	0.3	377	378	14.0	83.6
2025-09-12T03:18	10	0	0.1	0	0	377	0.2	377	378	14.0	84.1
2025-09-12T03:19	10	0	0.1	0	0	377	0.2	376	377	13.9	84.4
2025-09-12T03:20	10	0	0.1	0	0	377	0.2	376	377	13.9	85.4
2025-09-12T03:21	10	0	0.1	0	0	377	0.3	376	377	13.7	87.1
2025-09-12T03:22	10	0	0.1	0	0	376	0.2	376	377	13.6	87.3
2025-09-12T03:23	10	0	0.1	0	0	377	0.2	376	377	13.6	88.1
2025-09-12T03:24	10	0	0.1	0	0	377	0.2	376	377	13.5	88.3
2025-09-12T03:25	10	0	0.1	-1	0	376	0.3	376	377	13.5	88.7
2025-09-12T03:26	10	-1	0.1	-1	0	376	0.2	376	377	13.4	89.9
2025-09-12T03:27	10	-1	0.1	-1	0	376	0.3	376	377	13.4	90.0
2025-09-12T03:28	10	-1	0.1	-1	-1	376	0.3	375	376	13.4	90.0
2025-09-12T03:29	10	-1	0.1	-1	-1	376	0.2	375	376	13.3	90.9
2025-09-12T03:30	10	-1	0.1	-1	-1	376	0.3	375	376	13.4	90.8
2025-09-12T03:31	10	-1	0.1	-1	-1	376	0.3	375	376	13.3	91.4
2025-09-12T03:32	10	-1	0.1	-1	0	376	0.3	375	376	13.3	91.9
2025-09-12T03:33	10	-1	0.1	-1	0	376	0.3	376	377	13.3	91.3
2025-09-12T03:34	10	-1	0.1	-1	0	376	0.2	376	376	13.4	90.7
2025-09-12T03:35	10	0	0.1	-1	0	376	0.2	376	376	13.4	91.0
2025-09-12T03:36	10	0	0.1	-1	0	376	0.2	376	377	13.5	89.6
2025-09-12T03:37	10	0	0.1	-1	0	376	0.2	376	377	13.5	89.8
2025-09-12T03:38	10	0	0.1	-1	0	376	0.2	376	377	13.5	90.0
2025-09-12T03:39	10	0	0.1	-1	0	376	0.2	376	377	13.5	90.4
2025-09-12T03:40	10	0	0.1	-1	0	376	0.2	376	377	13.6	89.8
2025-09-12T03:41	10	0	0.1	-1	0	376	0.2	376	377	13.6	89.9
2025-09-12T03:42	10	0	0.1	0	0	377	0.2	376	377	13.6	89.4
2025-09-12T03:43	10	0	0.1	0	0	377	0.2	376	377	13.8	88.3
2025-09-12T03:44	10	0	0.1	0	0	377	0.2	376	377	13.8	88.3
2025-09-12T03:45	10	0	0.1	0	0	377	0.2	376	377	13.8	88.3
2025-09-12T03:46	10	0	0.1	0	0	377	0.3	376	377	13.7	89.5
2025-09-12T03:47	10	0	0.1	0	0	376	0.3	376	377	13.6	89.9
2025-09-12T03:48	10	0	0.1	0	0	377	0.3	376	377	13.6	89.8
2025-09-12T03:49	10	0	0.1	0	0	376	0.3	376	377	13.6	90.4
2025-09-12T03:50	10	0	0.1	0	0	376	0.2	376	377	13.5	91.0
2025-09-12T03:51	10	0	0.1	0	0	376	0.2	376	377	13.5	91.2
2025-09-12T03:52	10	0	0.1	0	0	376	0.2	376	377	13.5	91.1
2025-09-12T03:53	10	0	0.1	0	0	376	0.2	376	377	13.5	91.1
2025-09-12T03:54	10	0	0.1	0	0	376	0.3	376	377	13.4	91.3
2025-09-12T03:55	10	0	0.1	0	0	376	0.2	376	377	13.4	91.4
2025-09-12T03:56	10	0	0.1	0	0	376	0.2	376	377	13.4	92.1
2025-09-12T03:57	10	0	0.1	0	0	376	0.3	375	377	13.4	91.9
2025-09-12T03:58	10	0	0.1	0	0	376	0.3	376	377	13.4	91.9
2025-09-12T03:59	10	0	0.1	0	0	376	0.2	376	377	13.4	91.5
2025-09-12T04:00	10	0	0.1	0	0	376	0.2	376	377	13.4	91.3
2025-09-12T04:01	10	0	0.0	0	0	376	0.2	376	377	13.5	91.1
2025-09-12T04:02	10	0	0.1	0	0	376	0.3	376	377	13.5	90.8
2025-09-12T04:03	10	0	0.1	0	0	376	0.2	376	377	13.5	90.7
2025-09-12T04:04	10	0	0.1	0	0	376	0.2	376	377	13.5	89.7
2025-09-12T04:05	10	0	0.1	0	0	376	0.2	376	377	13.5	90.1
2025-09-12T04:06	10	0	0.1	0	1	376	0.2	376	377	13.5	89.9
2025-09-12T04:07	10	0	0.1	0	1	376	0.3	376	377	13.5	90.0
2025-09-12T04:08	10	0	0.1	0	1	376	0.3	376	377	13.6	89.4
2025-09-12T04:09	10	0	0.1	0	1	376	0.2	376	377	13.6	89.2
2025-09-12T04:10	10	0	0.1	0	1	376	0.2	376	377	13.6	89.0
2025-09-12T04:11	10	0	0.1	0	0	376	0.3	375	377	13.5	89.7
2025-09-12T04:12	10	0	0.1	0	1	376	0.3	376	377	13.5	89.4
2025-09-12T04:13	10	0	0.1	0	1	376	0.2	375	377	13.6	89.0
2025-09-12T04:14	10	0	0.1	0	1	376	0.3	376	377	13.5	88.9
2025-09-12T04:15	10	0	0.1	0	1	376	0.3	375	377	13.5	88.9
2025-09-12T04:16	10	0	0.1	0	1	376	0.2	376	377	13.6	87.8
2025-09-12T04:17	10	0	0.1	0	1	376	0.3	376	377	13.6	87.6
2025-09-12T04:18	10	0	0.1	0	1	376	0.3	376	377	13.6	87.8
2025-09-12T04:19	10	0	0.1	0	1	376	0.2	376	376	13.6	87.6
2025-09-12T04:20	10	0	0.1	0	1	376	0.2	376	377	13.6	88.0
2025-09-12T04:21	10	0	0.1	0	1	376	0.2	376	377	13.6	88.0
2025-09-12T04:22	10	0	0.1	0	1	376	0.3	375	377	13.5	88.0
2025-09-12T04:23	10	0	0.1	0	0	376	0.2	376	377	13.5	88.2
2025-09-12T04:24	10	0	0.1	0	1	376	0.3	375	376	13.5	88.1
2025-09-12T04:25	10	0	0.1	0	0	376	0.2	376	377	13.6	87.1
2025-09-12T04:26	10	0	0.1	0	1	376	0.2	376	377	13.6	87.7
2025-09-12T04:27	10	0	0.1	0	0	376	0.2	376	377	13.6	87.3
2025-09-12T04:28	10	0	0.1	0	0	376	0.2	376	376	13.6	87.6
2025-09-12T04:29	10	0	0.1	0	0	376	0.2	376	377	13.5	87.9
2025-09-12T04:30	10	0	0.1	0	0	376	0.2	376	377	13.5	87.6
2025-09-12T04:31	10	0	0.1	0	0	376	0.2	376	376	13.5	88.2
2025-09-12T04:32	10	0	0.1	0	0	376	0.2	376	377	13.6	87.2
2025-09-12T04:33	10	0	0.1	0	0	376	0.2	376	376	13.5	87.4
2025-09-12T04:34	10	0	0.1	0	0	376	0.2	376	377	13.6	87.2
2025-09-12T04:35	10	0	0.1	0	0	376	0.2	376	377	13.5	87.5
2025-09-12T04:36	10	0	0.1	0	1	376	0.3	375	377	13.5	87.1
2025-09-12T04:37	10	0	0.1	0	0	376	0.2	376	377	13.5	86.9
2025-09-12T04:38	10	0	0.1	0	0	376	0.2	376	376	13.5	87.4
2025-09-12T04:39	10	0	0.1	0	0	376	0.2	376	377	13.5	86.8
2025-09-12T04:40	10	0	0.1	0	0	376	0.3	375	377	13.6	86.0
2025-09-12T04:41	10	0	0.1	0	0	376	0.2	375	376	13.6	85.9
2025-09-12T04:42	10	0	0.1	0	0	376	0.2	376	377	13.6	85.5
2025-09-12T04:43	10	0	0.1	0	0	376	0.3	375	377	13.7	84.4
2025-09-12T04:44	10	0	0.1	0	0	376	0.3	375	376	13.6	85.6
2025-09-12T04:45	10	0	0.1	0	0	376	0.3	375	376	13.5	86.2
2025-09-12T04:46	10	0	0.1	0	0	376	0.3	375	377	13.5	86.5
2025-09-12T04:47	10	0	0.1	0	0	375	0.2	375	376	13.4	87.4
2025-09-12T04:48	10	0	0.1	0	0	375	0.2	375	376	13.4	86.7
2025-09-12T04:49	10	0	0.1	0	0	376	0.2	375	376	13.5	86.0
2025-09-12T04:50	10	0	0.1	0	0	376	0.2	375	376	13.5	86.3
2025-09-12T04:51	10	0	0.1	0	1	376	0.2	375	376	13.4	86.2
2025-09-12T04:52	10	0	0.1	0	0	376	0.3	375	376	13.4	86.8
2025-09-12T04:53	10	0	0.1	0	0	375	0.3	375	376	13.4	86.2
2025-09-12T04:54	10	0	0.1	0	0	376	0.3	375	376	13.5	85.6
2025-09-12T04:55	10	0	0.1	0	0	376	0.3	375	376	13.5	85.5
2025-09-12T04:56	10	0	0.1	0	0	376	0.3	375	376	13.4	86.3
2025-09-12T04:57	10	0	0.1	0	0	376	0.2	375	376	13.4	85.7
2025-09-12T04:58	10	0	0.1	0	0	375	0.2	375	376	13.4	85.8
2025-09-12T04:59	10	0	0.1	0	0	376	0.2	375	376	13.4	86.3
2025-09-12T05:00	10	0	0.1	0	0	376	0.3	375	376	13.4	85.7
2025-09-12T05:01	10	0	0.1	0	0	375	0.2	375	376	13.4	86.3
2025-09-12T05:02	10	0	0.1	0	1	375	0.3	375	376	13.4	86.3
2025-09-12T05:03	10	0	0.1	0	1	376	0.3	375	376	13.4	86.3
2025-09-12T05:04	10	0	0.1	0	1	376	0.3	375	376	13.4	85.9
2025-09-12T05:05	10	0	0.1	0	1	376	0.3	375	376	13.4	86.4
2025-09-12T05:06	10	0	0.1	0	1	376	0.2	375	376	13.4	85.9
2025-09-12T05:07	10	0	0.1	0	1	376	0.2	375	376	13.5	85.1
2025-09-12T05:08	10	0	0.1	0	1	376	0.3	375	376	13.5	85.4
2025-09-12T05:09	10	1	0.1	0	1	376	0.2	375	376	13.4	85.9
2025-09-12T05:10	10	1	0.1	0	1	376	0.2	375	376	13.4	86.5
2025-09-12T05:11	10	0	0.1	0	1	376	0.3	375	376	13.4	86.4
2025-09-12T05:12	10	1	0.1	0	1	376	0.2	375	376	13.4	86.5
2025-09-12T05:13	10	1	0.1	0	1	376	0.3	375	376	13.4	86.3
2025-09-12T05:14	10	1	0.1	1	1	376	0.2	375	376	13.4	85.2
2025-09-12T05:15	10	1	0.1	1	1	376	0.2	375	376	13.5	84.0
2025-09-12T05:16	10	1	0.1	1	1	376	0.3	375	376	13.5	83.9
2025-09-12T05:17	10	1	0.1	1	1	376	0.3	375	376	13.6	83.4
2025-09-12T05:18	10	1	0.1	1	1	376	0.2	375	376	13.6	83.4
2025-09-12T05:19	10	1	0.1	1	1	376	0.3	375	376	13.5	84.2
2025-09-12T05:20	10	1	0.1	1	1	375	0.2	375	376	13.5	84.7
2025-09-12T05:21	10	1	0.1	1	2	376	0.2	375	376	13.5	84.8
2025-09-12T05:22	10	1	0.1	1	1	375	0.2	375	376	13.4	84.8
2025-09-12T05:23	10	1	0.1	1	2	376	0.3	375	377	13.5	84.8
2025-09-12T05:24	10	2	0.1	1	2	376	0.2	375	376	13.4	85.8
2025-09-12T05:25	10	2	0.1	1	2	376	0.2	375	376	13.5	84.2
2025-09-12T05:26	10	2	0.1	1	2	376	0.3	375	376	13.5	84.2
2025-09-12T05:27	10	1	0.1	1	2	376	0.3	375	377	13.4	85.3
2025-09-12T05:28	10	2	0.1	1	2	376	0.2	375	376	13.5	83.3
2025-09-12T05:29	10	2	0.1	2	2	376	0.3	376	377	13.8	77.8
2025-09-12T05:30	10	2	0.2	2	3	376	0.3	375	376	13.9	77.9
2025-09-12T05:31	10	3	0.2	2	3	376	0.2	375	376	13.8	78.6
2025-09-12T05:32	10	3	0.2	3	4	376	0.3	375	376	13.8	79.5
2025-09-12T05:33	10	4	0.2	3	4	376	0.2	376	377	13.8	79.5
2025-09-12T05:34	10	4	0.1	4	4	376	0.3	375	376	13.7	81.1
2025-09-12T05:35	10	4	0.1	4	4	376	0.3	376	377	13.6	82.1
2025-09-12T05:36	10	4	0.1	4	4	376	0.3	375	377	13.6	82.5
2025-09-12T05:37	10	4	0.1	3	4	376	0.2	376	377	13.5	83.0
2025-09-12T05:38	10	3	0.1	3	4	376	0.2	376	376	13.5	82.8
2025-09-12T05:39	10	3	0.1	3	4	376	0.2	376	377	13.5	82.6
2025-09-12T05:40	10	3	0.1	3	3	376	0.3	375	377	13.5	82.6
2025-09-12T05:41	10	3	0.1	3	3	376	0.2	375	376	13.5	80.9
2025-09-12T05:42	10	3	0.1	3	3	376	0.2	375	376	13.5	82.8
2025-09-12T05:43	10	3	0.1	3	3	376	0.2	375	376	13.4	82.8
2025-09-12T05:44	10	3	0.1	3	3	376	0.2	375	376	13.4	83.0
2025-09-12T05:45	10	3	0.1	3	3	376	0.2	375	376	13.4	81.6
2025-09-12T05:46	10	4	0.1	3	4	376	0.3	375	376	13.4	82.5
2025-09-12T05:47	10	4	0.1	3	4	376	0.2	375	376	13.4	83.3
2025-09-12T05:48	10	4	0.1	3	4	376	0.3	375	376	13.3	82.8
2025-09-12T05:49	10	4	0.1	3	4	375	0.2	375	376	13.4	80.9
2025-09-12T05:50	10	4	0.1	3	4	375	0.2	375	376	13.4	80.0
2025-09-12T05:51	10	4	0.1	3	4	375	0.3	375	376	13.5	79.0
2025-09-12T05:52	10	3	0.1	3	4	375	0.2	374	376	13.4	79.5
2025-09-12T05:53	10	3	0.1	3	3	375	0.2	375	376	13.4	79.3
2025-09-12T05:54	10	3	0.1	3	3	375	0.3	374	376	13.5	77.5
2025-09-12T05:55	10	3	0.1	3	3	375	0.3	374	376	13.4	78.7
2025-09-12T05:56	10	3	0.1	3	3	375	0.2	374	375	13.4	79.2
2025-09-12T05:57	10	3	0.1	3	3	375	0.2	374	375	13.4	78.3
2025-09-12T05:58	10	3	0.1	3	3	375	0.2	374	375	13.3	78.7
2025-09-12T05:59	10	3	0.1	3	4	375	0.3	374	375	13.3	79.3
2025-09-12T06:00	10	3	0.1	3	4	375	0.2	374	375	13.3	79.2
2025-09-12T06:01	10	3	0.1	3	4	375	0.2	374	375	13.2	79.2
2025-09-12T06:02	10	4	0.1	3	4	374	0.2	374	375	13.2	79.8
2025-09-12T06:03	10	4	0.1	3	4	375	0.3	374	375	13.2	80.5
2025-09-12T06:04	10	4	0.1	3	4	375	0.2	374	375	13.2	79.2
2025-09-12T06:05	10	4	0.1	3	4	375	0.2	375	375	13.2	79.7
2025-09-12T06:06	10	4	0.2	4	4	375	0.2	375	376	13.2	79.4
2025-09-12T06:07	10	5	0.2	4	5	375	0.2	375	376	13.2	79.4
2025-09-12T06:08	10	6	0.2	5	6	376	0.2	375	376	13.2	79.9
2025-09-12T06:09	10	6	0.2	6	6	376	0.3	375	377	13.2	80.3
2025-09-12T06:10	10	7	0.1	6	7	376	0.2	376	377	13.2	80.1
2025-09-12T06:11	10	7	0.1	6	7	377	0.3	376	377	13.2	80.5
2025-09-12T06:12	10	7	0.1	7	7	376	0.3	376	377	13.2	79.5
2025-09-12T06:13	10	7	0.2	7	8	376	0.2	376	377	13.3	80.2
2025-09-12T06:14	10	8	0.2	7	8	376	0.3	376	377	13.3	79.9
2025-09-12T06:15	10	9	0.1	8	9	376	0.3	376	377	13.3	79.7
2025-09-12T06:16	10	9	0.1	8	9	376	0.3	376	377	13.3	78.8
2025-09-12T06:17	10	8	0.2	8	9	376	0.3	376	377	13.4	77.7
2025-09-12T06:18	10	8	0.2	8	8	376	0.2	376	377	13.4	77.2
2025-09-12T06:19	10	8	0.1	7	8	376	0.3	375	377	13.5	76.5
2025-09-12T06:20	10	8	0.1	7	8	376	0.2	376	376	13.6	75.6
2025-09-12T06:21	10	8	0.1	7	8	376	0.3	375	376	13.5	77.1
2025-09-12T06:22	10	8	0.1	7	8	376	0.3	375	377	13.4	78.1
2025-09-12T06:23	10	8	0.1	7	8	376	0.2	376	377	13.4	77.8
2025-09-12T06:24	10	7	0.1	7	8	376	0.2	375	377	13.5	77.1
2025-09-12T06:25	10	8	0.1	7	8	376	0.2	375	377	13.5	76.6
2025-09-12T06:26	10	8	0.2	7	8	376	0.2	375	376	13.5	76.9
2025-09-12T06:27	10	8	0.1	8	8	376	0.3	376	377	13.5	77.8
2025-09-12T06:28	10	8	0.1	8	9	377	0.3	376	377	13.4	77.8
2025-09-12T06:29	10	8	0.1	8	9	377	0.2	376	377	13.5	77.4
2025-09-12T06:30	10	8	0.1	8	9	377	0.2	376	377	13.6	75.3
2025-09-12T06:31	10	9	0.1	8	9	377	0.3	376	377	13.6	73.7
2025-09-12T06:32	10	9	0.1	8	9	376	0.2	376	377	13.7	72.7
2025-09-12T06:33	10	9	0.1	9	9	376	0.2	376	377	13.7	72.3
2025-09-12T06:34	10	9	0.1	9	9	376	0.2	376	377	13.7	72.8
2025-09-12T06:35	10	9	0.1	9	10	376	0.4	375	377	13.7	71.9
2025-09-12T06:36	10	10	0.1	9	10	376	0.2	375	377	13.7	72.9
2025-09-12T06:37	10	10	0.2	10	11	376	0.2	376	377	13.6	73.1
2025-09-12T06:38	10	11	0.2	11	11	376	0.3	376	377	13.8	69.8
2025-09-12T06:39	10	12	0.1	11	12	376	0.3	376	377	13.8	69.7
2025-09-12T06:40	10	12	0.1	11	12	377	0.2	376	377	13.8	69.0
2025-09-12T06:41	10	12	0.1	12	12	377	0.2	376	377	13.8	69.9
2025-09-12T06:42	10	12	0.1	12	12	377	0.2	376	377	13.7	70.8
2025-09-12T06:43	10	12	0.1	12	13	377	0.3	376	377	13.8	70.1
2025-09-12T06:44	10	13	0.1	12	13	377	0.2	376	378	13.8	70.1
2025-09-12T06:45	10	13	0.1	12	13	377	0.3	376	378	13.8	69.8
2025-09-12T06:46	10	12	0.1	12	13	377	0.4	376	377	13.7	70.3
2025-09-12T06:47	10	12	0.1	12	13	377	0.2	376	377	13.8	69.8
2025-09-12T06:48	10	13	0.2	12	13	377	0.3	376	377	13.7	71.0
2025-09-12T06:49	10	14	0.3	13	14	377	0.3	376	378	13.7	71.1
2025-09-12T06:50	10	14	0.2	14	15	377	0.2	377	378	13.7	70.8
2025-09-12T06:51	10	15	0.1	15	15	377	0.2	377	378	13.7	70.8
2025-09-12T06:52	10	15	0.1	15	15	378	0.3	377	378	13.7	71.5
2025-09-12T06:53	10	15	0.1	15	16	378	0.3	377	378	13.7	70.3
2025-09-12T06:54	10	15	0.1	15	15	378	0.3	377	378	13.8	70.0
2025-09-12T06:55	10	15	0.1	15	15	378	0.2	377	378	13.7	71.0
2025-09-12T06:56	10	15	0.1	14	15	378	0.3	378	379	13.7	71.7
2025-09-12T06:57	10	15	0.1	15	15	378	0.2	378	379	13.7	71.7
2025-09-12T06:58	10	15	0.1	15	15	378	0.2	378	379	13.7	71.2
2025-09-12T06:59	10	15	0.1	15	15	379	0.2	378	379	13.7	71.1
2025-09-12T07:00	10	15	0.1	15	16	379	0.2	378	379	13.7	70.8
2025-09-12T07:01	10	16	0.1	15	16	379	0.2	378	379	13.7	71.4
2025-09-12T07:02	10	16	0.2	16	16	379	0.2	378	379	13.7	71.7
2025-09-12T07:03	10	17	0.3	16	17	379	0.2	379	380	13.7	72.2
2025-09-12T07:04	10	18	0.4	17	19	380	0.3	379	381	13.7	72.3
2025-09-12T07:05	10	20	0.5	19	21	380	0.4	379	381	13.7	72.8
2025-09-12T07:06	10	21	0.2	20	21	381	0.2	380	381	13.7	71.5
2025-09-12T07:07	10	21	0.1	21	21	381	0.2	380	381	13.8	71.0
2025-09-12T07:08	10	21	0.1	20	21	381	0.3	380	381	13.8	70.7
2025-09-12T07:09	10	20	0.1	20	21	381	0.2	380	381	13.8	70.8
2025-09-12T07:10	10	21	0.1	21	21	380	0.3	380	381	13.8	70.8
2025-09-12T07:11	10	21	0.2	21	22	380	0.2	379	380	13.8	69.8
2025-09-12T07:12	10	22	0.3	21	23	380	0.3	380	381	13.9	69.2
2025-09-12T07:13	10	23	0.4	22	24	381	0.2	380	381	13.9	69.3
2025-09-12T07:14	10	25	0.5	24	26	381	0.3	380	382	13.9	69.3
2025-09-12T07:15	10	27	0.6	26	28	382	0.3	381	382	13.9	69.7
2025-09-12T07:16	10	29	0.3	28	29	382	0.3	381	383	13.9	70.6
2025-09-12T07:17	10	30	0.3	29	30	383	0.2	382	383	13.9	69.5
2025-09-12T07:18	10	30	0.3	30	31	383	0.2	382	383	13.9	70.5
2025-09-12T07:19	10	29	0.1	29	29	383	0.3	382	383	13.9	68.7
2025-09-12T07:20	10	28	1.1	26	29	382	0.3	382	383	13.9	69.0
2025-09-12T07:21	10	25	0.4	25	26	383	0.3	382	383	13.9	69.6
2025-09-12T07:22	10	25	0.1	25	25	382	0.4	381	383	13.9	68.5
2025-09-12T07:23	10	25	0.1	25	25	381	0.3	381	382	13.9	68.4
2025-09-12T07:24	10	25	0.1	25	25	381	0.2	381	382	13.9	69.3
2025-09-12T07:25	10	25	0.1	24	25	381	0.3	380	381	13.9	69.1
2025-09-12T07:26	10	24	0.3	24	25	381	0.3	380	381	13.9	69.2
2025-09-12T07:27	10	23	0.4	22	24	381	0.3	380	381	13.9	68.9
2025-09-12T07:28	10	22	0.2	22	23	381	0.2	380	381	13.9	70.1
2025-09-12T07:29	10	22	0.3	22	23	381	0.3	380	381	13.9	70.0
2025-09-12T07:30	10	24	0.5	23	25	381	0.3	381	382	13.9	71.2
2025-09-12T07:31	10	25	0.3	25	26	382	0.2	381	382	13.9	70.8
2025-09-12T07:32	10	26	0.2	26	26	382	0.2	381	382	13.9	69.5
2025-09-12T07:33	10	27	0.3	26	27	382	0.5	381	383	13.9	69.1
2025-09-12T07:34	10	28	0.3	27	28	383	0.2	382	383	14.0	68.9
2025-09-12T07:35	10	29	0.2	28	29	384	0.3	383	384	14.0	69.2
2025-09-12T07:36	10	29	0.1	29	29	384	0.2	384	385	14.0	68.4
2025-09-12T07:37	10	29	0.1	29	29	384	0.3	383	385	14.0	69.3
2025-09-12T07:38	10	29	0.1	29	29	385	0.4	384	386	14.0	70.6
2025-09-12T07:39	10	30	0.3	29	30	385	0.3	385	386	14.0	70.1
2025-09-12T07:40	10	30	0.2	30	31	385	0.3	385	386	14.0	70.7
2025-09-12T07:41	10	31	0.2	31	31	386	0.3	385	387	14.0	71.9
2025-09-12T07:42	10	32	0.2	31	32	387	0.3	386	387	14.0	71.1
2025-09-12T07:43	10	32	0.3	31	32	386	0.5	385	387	14.0	70.0
2025-09-12T07:44	10	31	0.3	31	32	385	0.4	384	386	14.1	69.9
2025-09-12T07:45	10	31	0.3	31	32	386	0.2	385	386	14.0	69.8
2025-09-12T07:46	10	32	0.2	31	32	386	0.4	385	387	14.1	71.1
2025-09-12T07:47	10	33	0.2	32	33	386	0.2	386	387	14.1	71.3
2025-09-12T07:48	10	33	0.1	33	33	386	0.4	385	387	14.1	69.1
2025-09-12T07:49	10	33	0.3	33	34	386	0.3	385	386	14.1	68.6
2025-09-12T07:50	10	36	1.1	34	38	385	0.3	384	386	14.2	67.8
2025-09-12T07:51	10	45	10.1	38	77	386	0.5	385	387	14.2	68.9
2025-09-12T07:52	10	54	9.2	47	76	387	0.5	386	388	14.2	67.3
2025-09-12T07:53	10	52	2.1	48	55	387	0.3	386	388	14.3	66.4
2025-09-12T07:54	10	44	2.7	42	51	387	0.4	387	388	14.3	67.2
2025-09-12T07:55	10	49	10.9	41	78	388	0.4	387	389	14.4	67.0
2025-09-12T07:56	10	38	4.8	36	61	387	1.0	385	389	14.4	65.1
2025-09-12T07:57	10	37	0.9	36	39	386	0.3	385	387	14.4	65.2
2025-09-12T07:58	10	43	2.1	39	46	386	0.5	385	387	14.4	65.2
2025-09-12T07:59	10	50	2.4	46	55	387	0.2	387	388	14.5	63.9
2025-09-12T08:00	10	62	3.4	55	65	388	1.0	387	390	14.4	63.9
2025-09-12T08:01	10	63	0.4	62	64	389	0.4	388	390	14.4	64.8
2025-09-12T08:02	10	58	2.6	54	63	390	0.3	389	390	14.4	64.8
2025-09-12T08:03	10	53	0.4	53	54	389	0.4	388	390	14.5	63.9
2025-09-12T08:04	10	55	0.9	54	57	388	0.3	387	389	14.5	63.1
2025-09-12T08:05	10	58	0.6	57	58	388	0.5	387	389	14.5	63.8
2025-09-12T08:06	10	58	0.1	58	59	389	0.2	388	389	14.5	63.2
2025-09-12T08:07	10	59	0.3	59	60	389	0.3	388	390	14.5	63.7
2025-09-12T08:08	10	64	8.7	60	98	390	0.6	389	391	14.6	65.9
2025-09-12T08:09	10	64	9.7	59	96	391	0.4	390	391	14.5	64.8
2025-09-12T08:10	10	60	0.4	59	61	391	0.4	390	392	14.5	64.6
2025-09-12T08:11	10	66	3.8	61	73	391	0.7	390	392	14.5	64.5
2025-09-12T08:12	10	62	1.9	60	66	392	0.4	390	392	14.5	64.5
2025-09-12T08:13	10	65	4.3	58	74	392	0.7	391	393	14.5	64.5
2025-09-12T08:14	10	58	0.5	57	59	393	0.4	392	394	14.5	63.4
2025-09-12T08:15	10	64	7.5	58	86	393	0.5	392	394	14.5	64.5
2025-09-12T08:16	10	61	1.9	59	71	392	0.4	392	394	14.5	64.5
2025-09-12T08:17	10	64	6.3	59	79	392	0.4	391	393	14.5	64.5
2025-09-12T08:18	10	68	3.9	63	77	392	0.4	391	393	14.6	63.8
2025-09-12T08:19	10	123	34.4	63	158	396	4.3	390	402	14.6	64.1
2025-09-12T08:20	10	155	3.0	143	157	403	1.3	400	405	14.8	64.9
2025-09-12T08:21	10	110	15.5	84	142	404	1.1	401	405	14.9	64.4
2025-09-12T08:22	10	125	19.8	85	155	404	1.0	402	406	15.0	64.6
2025-09-12T08:23	10	72	16.6	57	114	400	2.0	397	404	15.0	65.3
2025-09-12T08:24	10	74	17.6	47	112	398	1.4	395	400	14.9	64.6
2025-09-12T08:25	10	45	0.9	44	47	394	1.7	391	397	14.9	63.3
2025-09-12T08:26	10	44	0.5	44	46	391	0.5	390	392	14.9	61.4
2025-09-12T08:27	10	64	25.1	45	125	392	1.5	390	395	14.9	61.8
2025-09-12T08:28	10	45	0.8	44	48	391	0.7	390	393	14.9	62.0
2025-09-12T08:29	10	43	0.5	42	44	391	0.3	390	391	14.9	63.6
2025-09-12T08:30	10	42	0.1	42	43	390	0.6	389	391	14.9	61.8
2025-09-12T08:31	10	42	0.1	42	42	390	0.3	389	390	14.8	62.3
2025-09-12T08:32	10	42	0.1	42	43	391	0.2	390	391	14.9	63.8
2025-09-12T08:33	10	42	0.2	42	43	390	0.5	389	391	14.9	63.7
2025-09-12T08:34	10	41	0.5	40	42	390	0.3	390	391	14.9	63.9
2025-09-12T08:35	10	39	0.4	38	40	390	0.5	389	391	14.9	65.1
2025-09-12T08:36	10	38	0.2	38	39	389	0.3	389	390	14.8	62.9
2025-09-12T08:37	10	38	0.1	37	38	389	0.5	388	390	14.8	64.7
2025-09-12T08:38	10	38	0.2	37	38	388	0.4	387	389	14.7	63.7
2025-09-12T08:39	10	38	0.2	37	38	388	0.3	387	388	14.7	63.8
2025-09-12T08:40	10	39	0.5	38	40	387	0.2	387	388	14.7	63.6
2025-09-12T08:41	10	41	0.7	40	42	387	0.3	386	388	14.8	62.6
2025-09-12T08:42	10	44	0.9	42	45	387	0.2	387	388	14.8	62.8
2025-09-12T08:43	10	46	0.2	45	46	388	0.5	387	389	14.7	64.2
2025-09-12T08:44	10	46	0.1	45	46	389	0.4	389	390	14.8	64.8
2025-09-12T08:45	10	45	0.2	45	46	390	0.2	389	390	14.8	64.3
2025-09-12T08:46	10	45	0.3	44	45	390	0.5	389	391	14.8	64.3
2025-09-12T08:47	10	44	0.1	43	44	389	0.6	388	390	14.7	64.5
2025-09-12T08:48	10	45	0.7	44	46	388	0.2	388	388	14.6	63.1
2025-09-12T08:49	10	70	26.9	46	116	390	2.8	387	396	14.6	62.9
2025-09-12T08:50	10	57	7.5	54	95	393	0.9	392	395	14.7	63.5
2025-09-12T08:51	10	57	1.0	55	59	392	0.4	391	393	14.7	64.1
2025-09-12T08:52	10	56	0.7	55	58	393	0.4	392	394	14.7	65.0
2025-09-12T08:53	10	55	0.7	55	58	393	0.3	393	394	14.8	65.6
2025-09-12T08:54	10	57	0.4	56	57	393	0.5	393	395	14.8	64.6
2025-09-12T08:55	10	58	0.8	57	60	394	0.3	394	395	14.8	64.7
2025-09-12T08:56	10	58	0.8	57	59	394	0.7	393	395	14.8	64.3
2025-09-12T08:57	10	56	0.3	56	57	392	0.3	392	393	14.8	62.3
2025-09-12T08:58	10	55	0.3	55	56	391	0.3	391	392	14.8	62.2
2025-09-12T08:59	10	55	0.2	55	55	391	0.3	390	392	14.8	62.2
2025-09-12T09:00	10	56	0.1	55	56	391	0.4	390	392	14.8	62.5
2025-09-12T09:01	10	55	0.9	55	60	391	0.4	390	392	14.8	62.2
2025-09-12T09:02	10	62	9.0	54	85	393	0.6	391	394	14.9	62.0
2025-09-12T09:03	10	53	0.4	53	54	393	0.5	392	394	14.9	63.5
2025-09-12T09:04	10	56	2.3	54	61	392	0.3	392	393	14.8	63.3
2025-09-12T09:05	10	61	1.0	60	63	392	0.4	392	393	14.8	63.3
2025-09-12T09:06	10	74	7.6	63	89	395	1.1	393	397	14.9	63.5
2025-09-12T09:07	10	73	6.8	68	88	397	0.4	396	398	14.9	64.0
2025-09-12T09:08	10	101	24.0	69	137	399	2.1	396	403	14.9	63.8
2025-09-12T09:09	10	131	21.7	106	180	404	1.9	401	407	15.0	64.6
2025-09-12T09:10	10	143	45.5	92	196	406	2.7	403	411	15.1	63.6
2025-09-12T09:11	10	190	8.8	153	198	412	2.2	409	415	15.1	62.7
2025-09-12T09:12	10	106	14.5	84	146	409	2.7	404	415	15.3	63.6
2025-09-12T09:13	10	77	3.3	73	84	403	1.9	400	406	15.3	62.1
2025-09-12T09:14	10	78	3.6	73	85	401	0.3	400	401	15.3	63.3
2025-09-12T09:15	10	76	1.1	74	79	399	0.5	398	401	15.2	62.4
2025-09-12T09:16	10	115	31.4	79	189	401	2.4	398	407	15.2	62.4
2025-09-12T09:17	10	186	4.5	178	193	410	2.0	405	412	15.2	62.1
2025-09-12T09:18	10	172	27.0	113	195	413	1.1	411	415	15.2	61.9
2025-09-12T09:19	10	81	10.5	74	133	407	2.9	404	414	15.3	63.2
2025-09-12T09:20	10	77	3.5	74	87	403	1.4	401	406	15.5	63.5
2025-09-12T09:21	10	81	8.0	74	101	401	0.8	400	402	15.4	61.4
2025-09-12T09:22	10	91	20.7	77	146	401	1.2	399	403	15.3	61.5
2025-09-12T09:23	10	131	43.0	77	200	404	3.7	400	410	15.4	61.9
2025-09-12T09:24	10	141	36.3	87	187	408	2.1	404	411	15.6	61.6
2025-09-12T09:25	10	117	33.4	83	183	407	1.8	404	410	15.5	59.5
2025-09-12T09:26	10	129	34.1	84	200	408	1.6	405	411	15.7	60.9
2025-09-12T09:27	10	159	41.6	101	205	411	4.2	406	417	15.6	59.2
2025-09-12T09:28	10	186	20.5	143	206	416	0.9	414	417	15.6	57.9
2025-09-12T09:29	10	176	26.1	127	203	417	1.2	416	419	15.6	57.7
2025-09-12T09:30	10	173	28.9	90	204	418	0.8	416	419	15.7	58.3
2025-09-12T09:31	10	103	16.6	86	147	412	1.9	410	418	15.7	58.6
2025-09-12T09:32	10	150	33.8	100	202	414	1.7	410	417	15.7	57.7
2025-09-12T09:33	10	145	36.7	81	197	415	1.8	410	417	15.7	57.4
2025-09-12T09:34	10	76	1.7	74	80	407	2.4	404	412	15.8	58.0
2025-09-12T09:35	10	73	0.4	73	74	403	1.1	401	405	15.8	57.3
2025-09-12T09:36	10	75	0.9	73	77	401	1.0	400	403	15.8	57.2
2025-09-12T09:37	10	93	13.6	78	131	402	1.2	400	404	15.7	56.7
2025-09-12T09:38	10	76	1.4	75	80	400	0.7	399	402	15.7	55.6
2025-09-12T09:39	10	76	0.8	75	77	400	0.3	400	401	15.7	56.7
2025-09-12T09:40	10	78	0.7	77	80	401	0.5	400	402	15.7	57.1
2025-09-12T09:41	10	76	0.6	75	77	401	0.5	400	402	15.7	57.5
2025-09-12T09:42	10	74	0.6	73	76	400	0.4	399	401	15.7	57.9
2025-09-12T09:43	10	72	0.5	72	74	399	0.4	399	400	15.7	57.6
2025-09-12T09:44	10	73	1.0	72	77	400	0.4	399	400	15.7	58.1
2025-09-12T09:45	10	74	2.1	73	81	399	0.4	398	400	15.7	58.2
2025-09-12T09:46	10	72	0.3	71	73	400	0.6	398	401	15.7	59.3
2025-09-12T09:47	10	71	0.2	71	72	401	0.5	400	402	15.8	59.8
2025-09-12T09:48	10	70	0.5	69	71	401	0.6	400	402	15.7	60.7
2025-09-12T09:49	10	68	1.1	66	69	401	0.4	400	402	15.7	60.0
2025-09-12T09:50	10	65	0.3	65	66	400	0.6	399	401	15.7	60.3
2025-09-12T09:51	10	67	1.4	65	69	399	0.4	398	400	15.6	58.4
2025-09-12T09:52	10	67	0.8	65	68	399	0.6	398	400	15.7	59.9
2025-09-12T09:53	10	66	0.2	66	67	400	0.7	399	401	15.8	60.7
2025-09-12T09:54	10	65	0.2	65	66	402	0.5	400	402	15.9	61.6
2025-09-12T09:55	10	68	2.2	66	73	401	1.0	399	403	15.9	61.7
2025-09-12T09:56	10	65	1.5	63	69	399	1.1	398	401	15.7	60.6
2025-09-12T09:57	10	64	0.4	63	64	397	0.3	397	398	15.6	60.1
2025-09-12T09:58	10	64	1.6	63	69	399	1.1	397	401	15.6	60.8
2025-09-12T09:59	10	62	0.3	62	63	400	0.3	399	400	15.7	61.3
2025-09-12T10:00	10	61	0.5	60	62	399	0.6	397	400	15.7	61.0
2025-09-12T10:01	10	60	0.4	59	60	397	0.4	397	398	15.7	60.0
2025-09-12T10:02	10	59	0.1	59	59	398	0.6	396	399	15.6	60.3
2025-09-12T10:03	10	59	0.3	59	60	398	0.4	397	399	15.7	61.0
2025-09-12T10:04	10	61	0.6	60	62	399	0.8	398	400	15.8	62.1
2025-09-12T10:05	10	62	0.3	62	63	400	0.3	399	401	15.8	61.9
2025-09-12T10:06	10	62	0.1	62	63	401	0.4	400	401	15.9	62.9
2025-09-12T10:07	10	62	0.1	62	62	400	0.3	399	401	15.9	61.4
2025-09-12T10:08	10	63	0.5	62	64	401	0.4	400	402	15.9	62.7
2025-09-12T10:09	10	65	1.0	64	67	401	0.3	400	401	15.9	62.4
2025-09-12T10:10	10	69	1.5	67	72	402	0.7	400	403	15.9	61.3
2025-09-12T10:11	10	83	18.3	72	143	404	1.2	402	406	15.9	61.6
2025-09-12T10:12	10	84	10.0	74	114	404	0.4	403	405	16.0	61.8
2025-09-12T10:13	10	78	1.4	76	80	403	0.5	402	404	15.9	60.1
2025-09-12T10:14	10	78	0.8	77	79	403	0.4	402	404	15.9	60.2
2025-09-12T10:15	10	89	12.4	79	120	404	0.6	404	406	16.0	61.4
2025-09-12T10:16	10	85	4.2	83	106	406	0.3	405	406	15.9	60.8
2025-09-12T10:17	10	81	1.5	80	84	406	0.7	404	407	16.0	61.4
2025-09-12T10:18	10	92	18.4	80	172	406	1.0	405	409	16.1	61.8
2025-09-12T10:19	10	190	21.9	136	218	419	4.7	407	424	16.2	60.9
2025-09-12T10:20	10	117	30.4	89	184	418	3.6	412	423	16.5	62.8
2025-09-12T10:21	10	86	9.8	81	118	411	1.3	410	414	16.3	60.3
2025-09-12T10:22	10	96	16.5	81	143	409	0.9	407	411	16.3	60.4
2025-09-12T10:23	10	110	17.6	92	160	409	0.6	408	410	16.3	61.5
2025-09-12T10:24	10	82	3.0	80	95	407	1.5	405	410	16.3	61.6
2025-09-12T10:25	10	82	2.9	79	91	405	0.8	404	407	16.3	59.7
2025-09-12T10:26	10	190	30.7	94	218	415	5.5	402	422	16.2	60.6
2025-09-12T10:27	10	148	43.4	90	215	419	2.3	415	422	16.4	61.3
2025-09-12T10:28	10	145	47.6	82	215	421	3.0	417	426	16.6	61.7
2025-09-12T10:29	10	77	1.5	75	81	413	3.8	409	420	16.6	60.0
2025-09-12T10:30	10	113	32.7	78	179	412	2.2	409	416	16.5	60.6
2025-09-12T10:31	10	83	7.4	79	121	412	1.8	409	417	16.7	61.3
2025-09-12T10:32	10	102	35.6	82	192	409	1.7	408	415	16.4	59.2
2025-09-12T10:33	10	113	28.3	90	186	413	2.1	410	416	16.5	60.5
2025-09-12T10:34	10	92	16.2	81	137	410	1.3	408	413	16.4	59.4
2025-09-12T10:35	10	86	13.1	76	116	412	1.5	410	414	16.5	60.2
2025-09-12T10:36	10	82	5.0	77	94	411	0.7	409	412	16.5	61.0
2025-09-12T10:37	10	96	11.5	82	120	410	0.9	408	412	16.6	60.8
2025-09-12T10:38	10	108	21.2	81	147	415	1.7	411	418	16.7	61.6
2025-09-12T10:39	10	102	24.7	80	149	412	1.3	410	415	16.8	60.8
2025-09-12T10:40	10	75	2.7	70	80	409	1.0	407	411	16.7	61.0
2025-09-12T10:41	10	69	0.7	68	71	406	0.8	405	409	16.5	59.7
2025-09-12T10:42	10	90	21.4	71	143	407	1.8	405	410	16.4	59.1
2025-09-12T10:43	10	90	12.3	79	126	409	0.8	408	411	16.5	59.8
2025-09-12T10:44	10	105	15.5	86	138	412	0.5	411	413	16.5	58.5
2025-09-12T10:45	10	131	37.4	89	203	414	3.2	411	420	16.5	59.5
2025-09-12T10:46	10	103	24.4	75	175	416	3.1	410	420	16.7	60.4
2025-09-12T10:47	10	157	39.5	81	205	417	3.9	410	422	16.7	60.4
2025-09-12T10:48	10	178	23.7	107	204	425	1.7	421	427	16.7	59.4
2025-09-12T10:49	10	118	23.9	92	170	421	1.3	419	424	16.9	61.8
2025-09-12T10:50	10	124	27.9	84	167	417	2.1	414	421	16.9	58.1
2025-09-12T10:51	10	101	32.1	78	180	414	1.7	411	417	16.7	58.0
2025-09-12T10:52	10	133	39.6	79	187	413	2.9	409	417	16.6	58.2
2025-09-12T10:53	10	143	43.3	89	198	419	2.3	416	423	16.6	58.5
2025-09-12T10:54	10	109	23.7	74	148	417	1.2	415	419	16.8	60.0
2025-09-12T10:55	10	118	25.8	80	165	416	0.9	415	418	16.8	59.4
2025-09-12T10:56	10	128	38.5	66	184	415	2.2	411	418	16.8	57.5
2025-09-12T10:57	10	177	3.2	172	182	422	2.4	417	425	16.8	58.7
2025-09-12T10:58	10	152	17.5	109	174	423	0.9	421	425	17.0	59.8
2025-09-12T10:59	10	125	24.0	81	162	420	1.9	416	422	17.1	59.4
2025-09-12T11:00	10	96	17.7	74	154	417	1.9	413	420	17.1	57.7
2025-09-12T11:01	10	154	20.8	110	181	420	3.6	414	427	16.9	56.5
2025-09-12T11:02	10	169	9.8	145	179	428	1.6	425	430	17.1	58.5
2025-09-12T11:03	10	165	3.4	150	168	426	0.9	425	428	17.0	57.7
2025-09-12T11:04	10	154	4.1	146	167	426	1.3	424	428	17.3	59.9
2025-09-12T11:05	10	148	36.8	56	171	424	1.5	419	426	17.4	60.4
2025-09-12T11:06	10	148	35.8	58	175	421	2.4	418	426	17.4	59.2
2025-09-12T11:07	10	177	4.1	157	181	428	1.1	426	429	17.5	60.6
2025-09-12T11:08	10	166	21.1	83	185	428	1.3	426	431	17.8	60.6
2025-09-12T11:09	10	60	6.7	52	73	418	4.3	413	429	17.4	58.7
2025-09-12T11:10	10	142	50.7	66	194	418	3.6	413	424	17.3	58.6
2025-09-12T11:11	10	61	13.1	55	130	416	3.1	412	424	17.2	58.7
2025-09-12T11:12	10	56	3.4	55	74	411	1.7	408	414	17.3	59.2
2025-09-12T11:13	10	160	30.0	78	184	417	5.4	408	426	17.1	59.3
2025-09-12T11:14	10	175	1.9	172	178	426	1.3	423	429	17.3	59.2
2025-09-12T11:15	10	171	0.3	171	172	428	0.4	427	429	17.5	58.7
2025-09-12T11:16	10	170	0.5	168	171	428	0.9	427	430	17.5	57.9
2025-09-12T11:17	10	169	0.8	168	170	431	0.7	430	432	17.4	58.6
2025-09-12T11:18	10	169	2.2	164	172	429	1.3	427	432	17.6	56.5
2025-09-12T11:19	10	166	10.0	145	174	430	1.0	429	431	17.5	56.9
2025-09-12T11:20	10	173	6.6	151	178	430	0.8	428	431	17.7	56.5
2025-09-12T11:21	10	123	30.7	68	168	428	3.1	421	431	17.7	57.1
2025-09-12T11:22	10	142	42.6	68	183	424	2.1	421	427	17.8	57.7
2025-09-12T11:23	10	178	1.7	176	181	428	1.2	426	431	17.6	56.8
2025-09-12T11:24	10	174	0.8	173	176	428	0.6	426	429	17.5	56.2
2025-09-12T11:25	10	172	0.4	171	173	429	1.4	427	431	17.5	56.3
2025-09-12T11:26	10	163	14.9	116	172	430	0.9	428	432	17.7	57.9
2025-09-12T11:27	10	108	31.4	66	176	423	2.5	419	430	17.8	57.8
2025-09-12T11:28	10	176	0.7	175	178	425	1.7	422	428	17.5	55.6
2025-09-12T11:29	10	176	1.0	175	178	430	1.9	427	433	17.8	59.1
2025-09-12T11:30	10	163	20.6	108	178	430	0.9	429	432	17.6	55.3
2025-09-12T11:31	10	80	36.4	46	160	422	6.3	412	432	17.5	55.9
2025-09-12T11:32	10	66	12.6	48	99	413	0.7	412	415	17.3	55.4
2025-09-12T11:33	10	75	23.1	55	155	412	0.8	410	415	17.3	56.5
2025-09-12T11:34	10	176	4.1	162	179	423	4.9	412	429	17.4	56.9
2025-09-12T11:35	10	174	1.7	172	177	427	0.7	426	429	17.5	55.8
2025-09-12T11:36	10	172	0.7	171	174	429	0.7	428	430	17.5	55.4
2025-09-12T11:37	10	175	0.7	174	176	430	1.3	428	432	17.4	54.2
2025-09-12T11:38	10	177	0.9	176	179	434	1.2	432	436	17.4	53.5
2025-09-12T11:39	10	179	0.1	179	179	437	0.9	435	438	17.5	52.8
2025-09-12T11:40	10	178	0.3	178	179	438	0.6	437	439	17.7	54.2
2025-09-12T11:41	10	179	0.3	178	179	437	0.6	436	439	17.6	52.0
2025-09-12T11:42	10	179	0.9	177	180	439	0.5	438	440	17.6	53.9
2025-09-12T11:43	10	179	0.4	178	179	437	2.0	435	440	17.8	53.3
2025-09-12T11:44	10	179	0.6	178	180	437	0.9	435	438	17.8	52.8
2025-09-12T11:45	10	178	2.1	173	180	434	1.1	432	436	18.0	48.9
2025-09-12T11:46	10	175	4.2	170	181	433	0.4	432	434	17.9	48.2
2025-09-12T11:47	10	158	26.2	110	181	432	1.5	429	435	18.1	48.9
2025-09-12T11:48	10	124	54.6	43	181	432	4.1	422	435	18.1	49.5
2025-09-12T11:49	10	63	31.8	43	155	417	3.8	412	426	18.2	49.3
2025-09-12T11:50	10	169	6.2	149	174	424	2.6	417	427	18.1	49.3
2025-09-12T11:51	10	171	0.9	170	173	426	0.7	425	428	18.0	49.7
2025-09-12T11:52	10	168	1.6	166	170	428	1.1	425	430	18.1	50.5
2025-09-12T11:53	10	167	1.1	165	170	429	0.7	428	430	17.9	48.4
2025-09-12T11:54	10	171	1.4	170	174	430	0.9	428	431	18.0	49.9
2025-09-12T11:55	10	168	15.5	128	179	432	0.7	429	432	18.2	50.0
2025-09-12T11:56	10	74	30.5	51	143	423	4.8	417	431	18.1	49.4
2025-09-12T11:57	10	69	7.2	61	86	418	0.5	417	419	18.0	47.8
2025-09-12T11:58	10	66	2.5	63	72	415	1.2	413	417	18.0	48.7
2025-09-12T11:59	10	100	36.9	72	203	416	2.2	413	423	18.0	49.1
2025-09-12T12:00	10	191	18.4	154	220	426	3.2	420	432	18.0	48.5
2025-09-12T12:01	10	186	30.5	121	219	432	1.6	429	435	18.0	49.0
2025-09-12T12:02	10	195	25.0	147	217	432	1.5	429	434	18.1	49.8
2025-09-12T12:03	10	157	29.9	118	218	432	1.9	429	435	18.3	49.5
2025-09-12T12:04	10	167	39.7	113	217	431	3.3	428	437	18.2	49.4
2025-09-12T12:05	10	173	39.0	112	220	432	2.4	428	436	18.3	49.3
2025-09-12T12:06	10	142	33.2	96	196	430	2.0	426	433	18.2	48.2
2025-09-12T12:07	10	93	8.2	85	118	422	4.0	416	430	18.2	47.7
2025-09-12T12:08	10	149	40.7	91	223	424	5.3	416	430	18.0	47.4
2025-09-12T12:09	10	191	33.6	109	226	432	4.7	424	438	18.0	46.9
2025-09-12T12:10	10	185	30.2	139	226	436	1.5	433	438	18.0	47.5
2025-09-12T12:11	10	174	24.7	133	213	437	1.9	435	441	18.2	48.6
2025-09-12T12:12	10	182	26.8	127	209	437	1.5	435	439	18.3	48.0
2025-09-12T12:13	10	169	28.4	124	203	436	1.7	433	438	18.3	49.3
2025-09-12T12:14	10	197	1.0	196	200	441	1.4	438	443	18.4	49.3
2025-09-12T12:15	10	194	2.8	183	197	441	1.9	438	444	18.6	49.3
2025-09-12T12:16	10	129	25.7	95	179	435	3.5	430	440	18.4	47.0
2025-09-12T12:17	10	148	35.1	98	213	433	3.3	429	440	18.3	47.9
2025-09-12T12:18	10	143	18.9	111	181	436	2.4	433	440	18.5	50.2
2025-09-12T12:19	10	138	36.9	94	211	432	2.7	427	436	18.5	49.3
2025-09-12T12:20	10	165	40.2	98	209	436	1.9	433	439	18.6	48.3
2025-09-12T12:21	10	191	24.1	127	210	439	1.5	434	441	18.7	48.9
2025-09-12T12:22	10	98	14.7	85	135	428	3.9	423	437	18.5	47.6
2025-09-12T12:23	10	98	14.2	85	138	423	1.1	421	425	18.4	48.6
2025-09-12T12:24	10	122	21.5	102	179	425	1.0	423	427	18.4	49.1
2025-09-12T12:25	10	127	17.7	104	156	426	1.7	423	429	18.3	49.2
2025-09-12T12:26	10	209	20.5	140	231	436	4.4	426	440	18.6	49.0
2025-09-12T12:27	10	154	13.6	123	188	435	2.2	432	439	18.5	46.9
2025-09-12T12:28	10	120	17.3	98	156	430	1.8	426	432	18.5	48.0
2025-09-12T12:29	10	111	9.0	98	138	425	0.6	424	427	18.6	49.0
2025-09-12T12:30	10	113	15.0	99	156	424	0.6	423	425	18.6	48.5
2025-09-12T12:31	10	94	5.2	86	105	423	1.1	421	425	18.6	48.8
2025-09-12T12:32	10	81	2.7	79	88	418	1.6	416	422	18.2	48.2
2025-09-12T12:33	10	81	2.2	79	87	416	0.3	416	417	18.3	49.4
2025-09-12T12:34	10	82	2.1	79	88	416	0.5	415	417	18.3	48.6
2025-09-12T12:35	10	81	1.5	79	85	416	0.7	415	417	18.3	49.6
2025-09-12T12:36	10	80	0.5	80	81	418	0.7	417	419	18.3	48.3
2025-09-12T12:37	10	81	0.3	80	81	419	0.4	418	420	18.4	49.0
2025-09-12T12:38	10	80	0.9	79	82	418	0.8	417	419	18.5	48.8
2025-09-12T12:39	10	82	5.2	79	95	418	0.4	417	419	18.4	49.1
2025-09-12T12:40	10	81	7.1	74	96	417	0.6	416	419	18.5	48.3
2025-09-12T12:41	10	71	1.4	69	74	416	0.4	415	416	18.5	49.0
2025-09-12T12:42	10	68	0.2	68	69	415	0.9	414	416	18.5	47.3
2025-09-12T12:43	10	70	0.7	68	71	415	0.8	413	416	18.4	48.1
2025-09-12T12:44	10	71	0.3	70	71	415	0.2	415	416	18.5	47.6
2025-09-12T12:45	10	72	0.6	71	73	414	0.6	413	415	18.4	46.5
2025-09-12T12:46	10	75	1.0	73	77	415	1.0	413	417	18.3	47.0
2025-09-12T12:47	10	80	1.5	77	81	416	0.6	415	418	18.4	47.6
2025-09-12T12:48	10	82	0.6	81	83	414	0.6	413	416	18.3	48.0
2025-09-12T12:49	10	85	1.7	83	90	415	1.0	413	417	18.4	48.2
2025-09-12T12:50	10	103	16.0	84	148	417	1.4	415	419	18.5	48.8
2025-09-12T12:51	10	84	7.2	79	105	418	0.3	418	419	18.5	49.4
2025-09-12T12:52	10	77	0.9	76	79	417	0.5	416	418	18.5	48.5
2025-09-12T12:53	10	75	0.6	75	77	417	0.5	416	418	18.3	48.5
2025-09-12T12:54	10	96	14.0	77	124	418	0.8	416	419	18.4	48.3
2025-09-12T12:55	10	153	40.5	95	209	422	4.1	416	429	18.5	47.1
2025-09-12T12:56	10	168	34.5	109	207	427	3.3	423	432	18.5	46.4
2025-09-12T12:57	10	187	26.9	112	206	432	1.9	427	434	18.6	46.0
2025-09-12T12:58	10	174	27.8	113	205	429	2.7	425	435	18.4	46.3
2025-09-12T12:59	10	161	28.6	118	205	434	1.8	431	437	18.6	47.5
2025-09-12T13:00	10	136	20.2	101	172	430	2.5	426	434	18.8	47.5
2025-09-12T13:01	10	191	8.1	163	198	427	1.1	425	428	18.5	46.5
2025-09-12T13:02	10	191	0.6	190	192	430	1.4	428	432	18.7	47.3
2025-09-12T13:03	10	189	0.6	188	190	434	1.7	431	436	18.9	47.8
2025-09-12T13:04	10	179	11.7	153	189	436	0.9	433	437	19.0	47.0
2025-09-12T13:05	10	114	39.3	67	181	428	5.5	419	435	18.6	45.3
2025-09-12T13:06	10	67	0.4	67	68	419	1.0	418	422	18.5	47.6
2025-09-12T13:07	10	73	5.2	68	88	417	0.6	416	418	18.5	46.8
2025-09-12T13:08	10	147	43.0	81	184	422	5.3	416	431	18.4	46.8
2025-09-12T13:09	10	105	47.6	62	182	427	3.8	421	433	18.6	47.1
2025-09-12T13:10	10	58	2.5	54	63	419	2.0	415	423	18.8	48.0
2025-09-12T13:11	10	55	0.4	54	56	414	1.1	412	416	18.8	46.3
2025-09-12T13:12	10	64	15.6	56	109	412	0.5	411	414	18.7	46.1
2025-09-12T13:13	10	61	8.0	57	93	411	1.4	409	414	18.5	45.4
2025-09-12T13:14	10	57	0.2	57	57	409	0.5	408	410	18.2	45.9
2025-09-12T13:15	10	55	0.9	54	57	408	0.4	408	409	18.2	46.0
2025-09-12T13:16	10	53	0.6	52	54	408	0.4	407	408	18.2	45.8
2025-09-12T13:17	10	52	0.2	52	53	409	0.5	408	410	18.3	46.3
2025-09-12T13:18	10	54	0.5	53	55	409	0.4	409	410	18.3	46.5
2025-09-12T13:19	10	55	0.2	55	55	409	0.5	408	410	18.4	47.3
2025-09-12T13:20	10	55	0.3	55	56	410	0.9	408	411	18.5	47.0
2025-09-12T13:21	10	57	1.0	56	60	408	0.3	407	409	18.4	45.7
2025-09-12T13:22	10	94	40.0	59	180	409	2.8	407	417	18.4	45.7
2025-09-12T13:23	10	136	39.4	84	186	418	1.9	415	422	18.4	46.0
2025-09-12T13:24	10	131	30.4	83	173	419	2.1	415	422	18.4	45.3
2025-09-12T13:25	10	82	17.2	69	136	417	3.2	412	422	18.5	46.0
2025-09-12T13:26	10	82	19.3	69	134	414	1.7	412	418	18.5	46.3
2025-09-12T13:27	10	146	32.7	90	177	422	4.5	416	429	18.7	47.0
2025-09-12T13:28	10	178	1.6	173	180	427	0.5	426	428	18.7	45.4
2025-09-12T13:29	10	173	1.1	172	175	428	1.4	426	430	18.7	45.3
2025-09-12T13:30	10	141	41.2	67	176	427	2.9	420	430	18.8	45.0
2025-09-12T13:31	10	63	1.2	62	67	418	1.9	416	423	18.8	45.3
2025-09-12T13:32	10	76	17.9	63	116	416	1.2	414	419	18.8	45.4
2025-09-12T13:33	10	61	11.1	54	94	417	1.5	414	419	18.8	45.9
2025-09-12T13:34	10	105	46.5	55	163	418	4.2	414	426	18.7	46.3
2025-09-12T13:35	10	161	1.1	159	163	426	1.6	423	429	18.8	44.9
2025-09-12T13:36	10	156	2.7	152	159	427	1.0	425	428	18.8	44.3
2025-09-12T13:37	10	80	39.0	49	149	420	4.7	414	427	18.8	44.8
2025-09-12T13:38	10	106	27.2	51	147	418	2.4	414	422	18.9	44.8
2025-09-12T13:39	10	103	27.0	61	140	417	1.9	414	421	18.8	43.5
2025-09-12T13:40	10	103	35.9	59	154	416	2.2	412	420	18.6	43.2
2025-09-12T13:41	10	144	4.3	135	151	422	2.4	419	426	18.5	43.8
2025-09-12T13:42	10	137	16.3	95	149	425	1.6	422	428	18.6	44.1
2025-09-12T13:43	10	150	1.0	148	151	428	0.8	426	429	18.7	44.1
2025-09-12T13:44	10	143	7.1	126	149	427	0.5	426	428	18.8	44.1
2025-09-12T13:45	10	141	4.7	133	146	426	0.4	425	427	18.9	43.6
2025-09-12T13:46	10	105	23.7	71	144	424	1.7	421	427	19.0	44.1
2025-09-12T13:47	10	126	20.5	72	141	422	0.5	421	423	18.9	42.6
2025-09-12T13:48	10	97	19.6	55	130	421	1.4	416	423	18.8	43.8
2025-09-12T13:49	10	61	8.2	52	77	414	1.7	412	418	18.8	42.6
2025-09-12T13:50	10	68	15.4	54	99	413	1.0	411	415	18.7	42.9
2025-09-12T13:51	10	56	9.0	51	83	411	1.3	409	414	18.6	43.3
2025-09-12T13:52	10	98	30.6	51	126	413	3.4	408	417	18.6	43.9
2025-09-12T13:53	10	114	6.6	101	121	417	1.5	415	421	18.6	42.9
2025-09-12T13:54	10	107	22.3	54	121	421	1.4	417	422	18.7	44.4
2025-09-12T13:55	10	52	0.4	51	54	414	1.7	412	418	18.8	44.5
2025-09-12T13:56	10	55	3.3	52	61	412	0.3	412	413	18.7	44.2
2025-09-12T13:57	10	105	27.2	59	126	415	3.7	411	421	18.6	42.7
2025-09-12T13:58	10	123	1.0	121	125	422	1.5	419	425	18.6	43.1
2025-09-12T13:59	10	127	0.8	125	128	426	0.8	424	427	18.8	44.7
2025-09-12T14:00	10	125	1.4	123	127	426	0.7	425	427	19.0	44.9
2025-09-12T14:01	10	112	8.6	81	124	423	1.8	421	426	18.9	44.0
2025-09-12T14:02	10	62	8.4	52	81	418	2.4	413	422	18.9	45.0
2025-09-12T14:03	10	50	1.2	48	53	411	1.9	408	415	18.8	43.6
2025-09-12T14:04	10	49	0.5	48	50	408	0.6	407	410	18.6	43.7
2025-09-12T14:05	10	60	8.1	50	74	408	0.4	407	409	18.6	43.9
2025-09-12T14:06	10	83	11.3	65	98	411	1.6	407	412	18.5	43.8
2025-09-12T14:07	10	93	9.1	68	102	413	2.1	410	417	18.5	43.1
2025-09-12T14:08	10	107	2.8	100	110	417	1.1	415	419	18.6	44.4
2025-09-12T14:09	10	63	10.8	56	101	414	2.4	411	419	18.5	43.7
2025-09-12T14:10	10	64	7.0	57	87	410	0.4	410	411	18.6	44.6
2025-09-12T14:11	10	104	6.2	88	110	415	2.3	410	418	18.6	44.2
2025-09-12T14:12	10	107	2.6	95	110	418	0.6	416	419	18.6	44.8
2025-09-12T14:13	10	70	7.5	60	92	415	1.5	413	418	18.5	44.2
2025-09-12T14:14	10	59	4.1	53	66	412	0.8	411	414	18.5	43.8
2025-09-12T14:15	10	53	0.7	52	56	410	0.9	409	411	18.6	44.2
2025-09-12T14:16	10	61	4.7	54	70	409	0.4	408	410	18.5	43.8
2025-09-12T14:17	10	60	1.8	58	67	409	0.6	408	410	18.4	43.4
2025-09-12T14:18	10	93	12.2	68	104	411	2.3	407	414	18.4	44.0
2025-09-12T14:19	10	101	0.6	100	102	415	0.6	413	416	18.4	43.6
2025-09-12T14:20	10	100	1.1	98	102	416	0.7	415	418	18.5	44.5
2025-09-12T14:21	10	101	1.2	98	103	416	0.4	416	417	18.5	43.6
2025-09-12T14:22	10	102	1.4	98	103	417	0.4	416	418	18.5	43.9
2025-09-12T14:23	10	71	17.2	56	98	415	1.9	412	418	18.6	44.2
2025-09-12T14:24	10	57	0.7	55	58	412	0.9	410	414	18.7	45.0
2025-09-12T14:25	10	70	12.7	56	92	411	0.6	410	412	18.6	44.3
2025-09-12T14:26	10	86	10.7	60	93	413	0.6	411	414	18.5	44.4
2025-09-12T14:27	10	69	7.4	59	82	411	0.7	410	412	18.5	44.9
2025-09-12T14:28	10	61	2.9	57	67	410	0.3	409	411	18.5	44.0
2025-09-12T14:29	10	57	0.5	56	58	409	0.4	409	410	18.5	44.7
2025-09-12T14:30	10	75	10.0	58	87	410	1.2	408	412	18.5	44.8
2025-09-12T14:31	10	86	2.3	82	89	412	0.9	411	414	18.6	45.3
2025-09-12T14:32	10	75	4.9	68	87	413	0.7	412	414	18.6	44.3
2025-09-12T14:33	10	65	6.4	55	77	411	0.6	410	413	18.6	45.5
2025-09-12T14:34	10	52	1.2	50	55	411	0.2	410	411	18.6	46.3
2025-09-12T14:35	10	50	2.5	47	55	409	0.7	408	411	18.6	46.5
2025-09-12T14:36	10	47	0.3	46	48	408	0.6	407	409	18.6	46.0
2025-09-12T14:37	10	46	0.1	46	46	408	0.2	407	408	18.5	45.5
2025-09-12T14:38	10	46	0.1	46	46	408	0.3	407	409	18.5	47.2
2025-09-12T14:39	10	47	0.2	46	47	406	0.4	406	407	18.4	44.9
2025-09-12T14:40	10	47	0.2	47	48	406	0.2	406	407	18.4	44.7
2025-09-12T14:41	10	48	0.4	48	49	406	0.3	406	407	18.4	45.2
2025-09-12T14:42	10	53	3.3	49	61	407	0.6	406	408	18.4	46.2
2025-09-12T14:43	10	56	3.9	51	63	407	0.5	406	407	18.5	45.4
2025-09-12T14:44	10	50	0.3	50	51	406	0.3	405	406	18.4	45.4
2025-09-12T14:45	10	51	0.5	50	52	405	0.4	405	406	18.4	46.4
2025-09-12T14:46	10	51	0.2	51	52	405	0.2	405	406	18.4	45.7
2025-09-12T14:47	10	51	0.2	50	51	406	0.4	405	406	18.4	44.9
2025-09-12T14:48	10	52	0.8	51	54	406	0.2	405	406	18.4	45.5
2025-09-12T14:49	10	61	3.3	54	69	406	0.8	405	408	18.4	45.5
2025-09-12T14:50	10	69	1.5	66	71	408	0.5	407	409	18.4	45.8
2025-09-12T14:51	10	71	1.5	67	73	409	0.4	408	410	18.5	46.6
2025-09-12T14:52	10	73	0.3	73	74	409	0.5	408	410	18.5	46.4
2025-09-12T14:53	10	72	1.1	70	74	410	0.3	409	410	18.4	45.4
2025-09-12T14:54	10	67	2.5	63	70	408	0.6	407	409	18.4	45.5
2025-09-12T14:55	10	69	1.1	67	70	408	0.4	408	409	18.4	46.3
2025-09-12T14:56	10	66	1.9	59	68	408	0.4	407	409	18.4	45.8
2025-09-12T14:57	10	55	0.9	54	59	406	0.6	406	408	18.4	45.1
2025-09-12T14:58	10	64	4.9	56	70	406	0.3	405	407	18.4	45.2
2025-09-12T14:59	10	70	0.5	69	70	407	0.6	406	408	18.4	45.0
2025-09-12T15:00	10	70	0.2	69	70	409	0.6	408	410	18.5	46.2
2025-09-12T15:01	10	68	0.5	68	69	410	0.3	409	410	18.5	45.3
2025-09-12T15:02	10	71	2.0	69	84	409	0.9	408	410	18.5	45.3
2025-09-12T15:03	10	70	2.1	67	74	409	0.2	408	409	18.5	45.0
2025-09-12T15:04	10	69	0.8	68	71	409	0.6	408	410	18.5	44.8
2025-09-12T15:05	10	71	0.5	70	72	410	0.3	410	411	18.5	45.8
2025-09-12T15:06	10	70	0.5	70	71	411	0.3	410	412	18.5	45.8
2025-09-12T15:07	10	73	0.6	71	74	411	0.2	410	411	18.4	45.4
2025-09-12T15:08	10	72	0.8	70	73	411	0.4	410	412	18.4	45.2
2025-09-12T15:09	10	71	1.5	69	74	412	0.3	411	412	18.5	45.9
2025-09-12T15:10	10	74	0.9	73	75	411	0.4	410	412	18.6	46.0
2025-09-12T15:11	10	75	0.7	74	77	412	0.3	411	412	18.6	45.4
2025-09-12T15:12	10	77	1.0	75	78	410	0.7	409	411	18.6	44.6
2025-09-12T15:13	10	80	1.8	77	82	410	0.5	409	411	18.6	44.3
2025-09-12T15:14	10	80	2.8	76	84	411	0.3	410	412	18.6	45.4
2025-09-12T15:15	10	81	1.5	79	85	411	0.2	410	411	18.6	45.5
2025-09-12T15:16	10	84	1.0	82	86	411	0.3	411	412	18.5	45.3
2025-09-12T15:17	10	84	0.4	83	84	412	0.2	411	412	18.7	46.3
2025-09-12T15:18	10	84	0.8	82	85	412	0.3	412	413	18.7	47.2
2025-09-12T15:19	10	82	1.3	80	83	413	0.4	412	414	18.8	46.1
2025-09-12T15:20	10	75	3.0	71	80	412	1.3	409	413	18.8	45.5
2025-09-12T15:21	10	61	5.7	54	71	408	1.0	407	410	18.6	44.3
2025-09-12T15:22	10	55	2.3	52	60	407	0.3	407	408	18.6	46.7
2025-09-12T15:23	10	56	3.1	52	62	407	0.4	406	408	18.6	46.1
2025-09-12T15:24	10	58	4.1	52	64	407	0.3	406	407	18.6	45.5
2025-09-12T15:25	10	60	4.6	53	66	407	0.3	406	407	18.6	46.2
2025-09-12T15:26	10	54	1.3	52	56	406	0.3	405	407	18.5	46.9
2025-09-12T15:27	10	49	2.4	46	53	405	0.5	404	406	18.6	46.1
2025-09-12T15:28	10	47	1.0	46	49	404	0.3	404	405	18.5	44.7
2025-09-12T15:29	10	54	4.2	47	59	405	0.6	404	406	18.5	45.6
2025-09-12T15:30	10	59	1.7	54	61	405	0.2	405	406	18.6	46.8
2025-09-12T15:31	10	51	1.2	48	53	405	0.4	404	406	18.6	44.2
2025-09-12T15:32	10	45	4.0	38	50	404	0.3	404	405	18.5	45.3
2025-09-12T15:33	10	38	0.4	37	39	403	0.5	402	404	18.5	45.8
2025-09-12T15:34	10	38	0.3	37	38	402	0.3	401	403	18.5	46.1
2025-09-12T15:35	10	38	0.3	38	39	402	0.3	402	403	18.5	46.9
2025-09-12T15:36	10	39	0.1	38	39	402	0.3	401	403	18.5	47.4
2025-09-12T15:37	10	41	1.4	39	43	403	0.4	402	404	18.4	48.2
2025-09-12T15:38	10	42	0.3	41	42	403	0.4	403	404	18.4	49.8
2025-09-12T15:39	10	41	1.6	39	44	404	0.2	403	404	18.5	48.5
2025-09-12T15:40	10	38	1.1	36	39	403	0.3	403	404	18.5	46.3
2025-09-12T15:41	10	37	0.3	37	38	403	0.3	402	403	18.5	47.1
2025-09-12T15:42	10	37	1.7	36	49	402	0.3	402	403	18.4	47.0
2025-09-12T15:43	10	36	0.1	36	36	402	0.3	402	403	18.4	48.0
2025-09-12T15:44	10	36	0.2	36	36	402	0.2	402	403	18.4	47.9
2025-09-12T15:45	10	35	0.2	35	36	402	0.2	401	402	18.4	48.4
2025-09-12T15:46	10	35	0.2	34	35	401	0.3	400	402	18.4	48.2
2025-09-12T15:47	10	34	0.2	34	34	402	0.3	401	402	18.4	47.7
2025-09-12T15:48	10	33	0.2	33	34	401	0.2	401	402	18.4	48.0
2025-09-12T15:49	10	33	0.1	33	33	401	0.2	400	401	18.4	48.4
2025-09-12T15:50	10	33	0.2	32	33	401	0.2	400	401	18.4	49.4
2025-09-12T15:51	10	32	0.2	32	33	401	0.2	400	401	18.3	50.5
2025-09-12T15:52	10	32	0.1	32	32	401	0.2	400	401	18.3	50.0
2025-09-12T15:53	10	31	0.2	31	32	400	0.2	400	401	18.3	49.4
2025-09-12T15:54	10	31	0.1	31	31	400	0.3	399	401	18.3	49.8
2025-09-12T15:55	10	30	0.1	30	31	399	0.3	399	400	18.2	49.5
2025-09-12T15:56	10	30	0.2	30	30	399	0.2	399	400	18.2	50.5
2025-09-12T15:57	10	29	0.2	29	30	399	0.3	399	400	18.2	50.8
2025-09-12T15:58	10	29	0.3	28	29	399	0.2	399	400	18.2	50.2
2025-09-12T15:59	10	28	0.2	28	28	399	0.2	399	399	18.2	50.2
2025-09-12T16:00	10	27	0.2	27	28	399	0.2	398	399	18.2	50.7
2025-09-12T16:01	10	27	0.1	27	27	399	0.2	398	399	18.2	51.0
2025-09-12T16:02	10	27	0.1	27	27	398	0.2	398	399	18.2	51.1
2025-09-12T16:03	10	26	0.1	26	27	398	0.2	397	398	18.2	51.5
2025-09-12T16:04	10	26	0.1	26	26	398	0.2	397	398	18.2	51.3
2025-09-12T16:05	10	26	0.1	26	26	398	0.2	397	398	18.1	51.8
2025-09-12T16:06	10	26	0.1	26	26	398	0.2	398	399	18.1	52.9
2025-09-12T16:07	10	26	0.1	25	26	398	0.2	397	398	18.1	53.1
2025-09-12T16:08	10	25	0.1	25	25	398	0.2	398	398	18.0	54.4
2025-09-12T16:09	10	25	0.1	25	25	398	0.2	397	398	18.0	53.1
2025-09-12T16:10	10	25	0.1	25	25	397	0.2	397	398	18.0	53.6
2025-09-12T16:11	10	25	0.1	24	25	397	0.3	396	397	18.0	51.5
2025-09-12T16:12	10	24	0.1	24	25	396	0.2	396	397	18.0	51.7
2025-09-12T16:13	10	24	0.2	24	24	396	0.3	395	396	18.0	51.5
2025-09-12T16:14	10	24	0.2	23	24	396	0.2	395	396	17.9	51.9
2025-09-12T16:15	10	23	0.1	23	23	396	0.2	396	396	17.9	52.8
2025-09-12T16:16	10	23	0.2	22	23	396	0.2	395	396	17.8	52.6
2025-09-12T16:17	10	22	0.2	22	23	396	0.2	395	396	17.8	51.9
2025-09-12T16:18	10	22	0.1	22	22	395	0.3	395	396	17.9	51.3
2025-09-12T16:19	10	21	0.1	21	22	395	0.2	394	395	17.8	52.5
2025-09-12T16:20	10	21	0.1	21	21	395	0.2	395	396	17.8	52.1
2025-09-12T16:21	10	21	0.1	21	21	395	0.2	394	395	17.8	51.3
2025-09-12T16:22	10	20	0.1	20	21	394	0.2	394	395	17.8	51.2
2025-09-12T16:23	10	20	0.1	20	20	394	0.2	394	395	17.8	50.9
2025-09-12T16:24	10	20	0.1	19	20	394	0.3	393	395	17.8	50.4
2025-09-12T16:25	10	19	0.2	19	20	394	0.2	393	394	17.8	49.6
2025-09-12T16:26	10	19	0.2	18	19	393	0.2	392	393	17.8	50.1
2025-09-12T16:27	10	18	0.1	18	19	393	0.2	392	393	17.8	50.4
2025-09-12T16:28	10	18	0.1	18	18	393	0.2	392	393	17.7	50.2
2025-09-12T16:29	10	17	0.1	17	18	392	0.2	392	393	17.7	50.3
2025-09-12T16:30	10	17	0.1	17	18	392	0.2	392	393	17.7	50.8
2025-09-12T16:31	10	17	0.1	17	17	392	0.2	392	393	17.7	50.3
2025-09-12T16:32	10	17	0.1	16	17	392	0.2	392	393	17.7	50.2
2025-09-12T16:33	10	16	0.1	16	17	392	0.2	392	393	17.7	51.0
2025-09-12T16:34	10	16	0.2	16	16	392	0.3	391	393	17.6	51.6
2025-09-12T16:35	10	16	0.1	15	16	392	0.2	391	392	17.6	52.1
2025-09-12T16:36	10	15	0.2	15	16	392	0.3	391	392	17.5	52.5
2025-09-12T16:37	10	15	0.2	14	15	392	0.2	391	392	17.5	53.0
2025-09-12T16:38	10	14	0.2	14	14	391	0.2	391	392	17.5	54.1
2025-09-12T16:39	10	14	0.2	13	14	391	0.2	391	392	17.5	53.5
2025-09-12T16:40	10	13	0.2	13	14	391	0.3	390	392	17.4	53.9
2025-09-12T16:41	10	13	0.2	13	13	391	0.2	391	391	17.4	54.4
2025-09-12T16:42	10	13	0.2	12	13	391	0.3	390	391	17.4	54.4
2025-09-12T16:43	10	12	0.2	12	13	391	0.2	390	391	17.4	53.7
2025-09-12T16:44	10	12	0.3	12	13	390	0.3	390	391	17.3	54.9
2025-09-12T16:45	10	12	0.2	11	12	390	0.2	390	391	17.3	54.5
2025-09-12T16:46	10	11	0.2	11	12	390	0.3	389	391	17.3	54.4
2025-09-12T16:47	10	11	0.2	11	12	390	0.2	389	390	17.3	54.2
2025-09-12T16:48	10	11	0.2	10	11	390	0.2	389	390	17.3	53.9
2025-09-12T16:49	10	10	0.1	10	11	390	0.2	389	390	17.3	54.3
2025-09-12T16:50	10	10	0.1	10	10	389	0.2	389	390	17.2	54.9
2025-09-12T16:51	10	10	0.2	9	10	389	0.3	389	390	17.2	54.2
2025-09-12T16:52	10	10	0.1	9	10	389	0.2	389	389	17.2	54.6
2025-09-12T16:53	10	9	0.1	9	9	389	0.2	388	389	17.2	54.5
2025-09-12T16:54	10	9	0.1	9	9	389	0.2	388	389	17.2	54.2
2025-09-12T16:55	10	9	0.1	8	9	389	0.2	388	389	17.1	54.5
2025-09-12T16:56	10	8	0.1	8	8	388	0.2	388	389	17.1	54.1
2025-09-12T16:57	10	8	0.1	8	8	388	0.2	388	389	17.1	54.8
2025-09-12T16:58	10	8	0.1	7	8	388	0.2	387	388	17.1	55.3
2025-09-12T16:59	10	7	0.1	7	8	388	0.3	387	388	17.0	56.5
2025-09-12T17:00	10	7	0.1	7	7	387	0.2	387	388	16.9	56.3
2025-09-12T17:01	10	7	0.1	7	7	387	0.2	386	387	16.9	56.1
2025-09-12T17:02	10	7	0.1	7	7	387	0.2	386	387	16.9	56.9
2025-09-12T17:03	10	7	0.1	7	7	387	0.2	386	387	16.9	56.4
2025-09-12T17:04	10	7	0.1	7	7	387	0.2	386	387	16.8	56.5
2025-09-12T17:05	10	7	0.1	6	7	387	0.2	386	387	16.8	56.6
2025-09-12T17:06	10	7	0.1	6	7	386	0.2	386	387	16.8	56.5
2025-09-12T17:07	10	6	0.1	6	7	386	0.2	386	386	16.8	57.8
2025-09-12T17:08	10	6	0.1	6	7	386	0.2	385	386	16.7	57.3
2025-09-12T17:09	10	6	0.1	6	6	386	0.2	385	386	16.7	57.1
2025-09-12T17:10	10	6	0.1	6	6	386	0.2	385	386	16.7	56.5
2025-09-12T17:11	10	6	0.1	5	6	386	0.2	385	386	16.7	55.8
2025-09-12T17:12	10	5	0.1	5	6	385	0.2	385	386	16.7	56.6
2025-09-12T17:13	10	5	0.1	5	5	385	0.2	384	385	16.7	56.7
2025-09-12T17:14	10	5	0.1	4	5	385	0.2	384	385	16.6	57.0
2025-09-12T17:15	10	4	0.1	4	5	384	0.2	384	385	16.6	57.1
2025-09-12T17:16	10	4	0.1	4	4	384	0.2	384	385	16.6	57.7
2025-09-12T17:17	10	4	0.1	4	4	384	0.2	383	384	16.5	58.4
2025-09-12T17:18	10	4	0.1	4	4	384	0.2	383	384	16.5	58.6
2025-09-12T17:19	10	4	0.1	4	4	383	0.2	383	384	16.5	58.4
2025-09-12T17:20	10	4	0.1	4	4	383	0.2	383	384	16.5	58.5
2025-09-12T17:21	10	4	0.1	3	4	383	0.2	383	384	16.5	58.4
2025-09-12T17:22	10	3	0.1	3	4	383	0.3	382	383	16.5	57.4
2025-09-12T17:23	10	3	0.1	3	3	383	0.3	382	383	16.6	56.2
2025-09-12T17:24	10	3	0.1	3	3	383	0.2	382	383	16.6	56.1
2025-09-12T17:25	10	3	0.1	3	3	382	0.4	381	383	16.5	57.5
2025-09-12T17:26	10	3	0.1	2	3	382	0.2	381	382	16.5	56.9
2025-09-12T17:27	10	2	0.1	2	3	382	0.2	381	382	16.5	56.7
2025-09-12T17:28	10	2	0.1	2	3	381	0.2	381	382	16.5	56.7
2025-09-12T17:29	10	2	0.1	2	2	381	0.2	381	382	16.5	56.2
2025-09-12T17:30	10	2	0.1	2	2	381	0.2	381	382	16.6	55.2
2025-09-12T17:31	10	2	0.1	1	2	381	0.3	380	382	16.6	54.5
2025-09-12T17:32	10	2	0.1	2	2	381	0.2	381	382	16.7	53.8
2025-09-12T17:33	10	2	0.1	1	2	381	0.3	380	382	16.9	52.6
2025-09-12T17:34	10	2	0.1	1	2	380	0.3	379	381	16.6	58.3
2025-09-12T17:35	10	2	0.1	1	2	380	0.3	379	381	16.3	59.4
2025-09-12T17:36	10	1	0.1	1	2	380	0.2	379	380	16.3	58.5
2025-09-12T17:37	10	1	0.1	1	2	379	0.3	379	380	16.3	57.6
2025-09-12T17:38	10	1	0.1	1	2	380	0.2	379	380	16.3	57.7
2025-09-12T17:39	10	1	0.1	1	2	380	0.2	379	380	16.4	57.1
2025-09-12T17:40	10	1	0.1	1	1	379	0.2	379	380	16.4	57.5
2025-09-12T17:41	10	1	0.1	1	1	379	0.2	379	380	16.3	57.4
2025-09-12T17:42	10	1	0.1	1	1	379	0.3	378	380	16.3	56.6
2025-09-12T17:43	10	1	0.1	1	1	379	0.2	378	379	16.3	57.0
2025-09-12T17:44	10	1	0.1	1	1	379	0.2	379	380	16.3	56.9
2025-09-12T17:45	10	1	0.1	1	1	379	0.2	379	380	16.4	55.4
2025-09-12T17:46	10	1	0.1	1	1	379	0.2	378	379	16.3	56.2
2025-09-12T17:47	10	1	0.1	0	1	379	0.2	378	379	16.2	57.2
2025-09-12T17:48	10	1	0.1	0	1	379	0.3	378	379	16.4	54.5
2025-09-12T17:49	10	1	0.1	0	1	378	0.3	377	379	16.3	56.5
2025-09-12T17:50	10	0	0.1	0	1	378	0.3	377	379	16.2	57.4
2025-09-12T17:51	10	0	0.1	0	1	378	0.3	377	378	16.1	58.7
2025-09-12T17:52	10	0	0.1	0	1	377	0.2	377	378	16.0	59.5
2025-09-12T17:53	10	0	0.1	0	0	377	0.2	377	378	15.9	59.7
2025-09-12T17:54	10	0	0.0	0	0	377	0.2	377	378	15.9	59.7
2025-09-12T17:55	10	0	0.1	0	0	377	0.2	376	377	15.8	61.6
2025-09-12T17:56	10	0	0.1	0	0	377	0.4	376	378	15.7	61.2
2025-09-12T17:57	10	0	0.1	0	0	377	0.3	376	377	15.8	59.4
2025-09-12T17:58	10	0	0.1	0	0	377	0.2	376	377	15.8	59.0
2025-09-12T17:59	10	0	0.1	0	0	376	0.3	376	377	15.8	59.5
2025-09-12T18:00	10	0	0.1	0	0	376	0.3	375	377	15.7	61.9
2025-09-12T18:01	10	0	0.0	0	0	375	0.3	375	376	15.5	64.4
2025-09-12T18:02	10	0	0.1	0	0	375	0.2	375	376	15.4	64.0
2025-09-12T18:03	10	0	0.1	0	0	375	0.2	374	375	15.4	63.7
2025-09-12T18:04	10	0	0.1	0	0	375	0.2	375	376	15.4	63.3
2025-09-12T18:05	10	0	0.1	0	0	375	0.2	375	375	15.5	61.3
2025-09-12T18:06	10	0	0.1	0	0	375	0.2	374	375	15.6	61.0
2025-09-12T18:07	10	0	0.1	0	0	375	0.2	374	375	15.7	59.5
2025-09-12T18:08	10	0	0.1	0	0	375	0.2	374	375	15.8	59.0
2025-09-12T18:09	10	0	0.1	0	0	375	0.2	374	375	15.8	58.0
2025-09-12T18:10	10	0	0.1	0	0	374	0.3	374	375	15.8	58.6
2025-09-12T18:11	10	0	0.1	0	0	374	0.3	374	375	15.7	60.1
2025-09-12T18:12	10	0	0.1	0	0	374	0.3	373	374	15.6	62.2
2025-09-12T18:13	10	0	0.1	0	0	373	0.3	373	374	15.4	63.8
2025-09-12T18:14	10	0	0.1	0	0	374	0.3	373	374	15.4	64.0
2025-09-12T18:15	10	0	0.1	0	0	374	0.2	373	374	15.3	64.3
2025-09-12T18:16	10	0	0.1	0	0	374	0.3	373	374	15.2	65.3
2025-09-12T18:17	10	0	0.1	0	0	373	0.3	373	374	15.1	66.2
2025-09-12T18:18	10	0	0.1	0	0	373	0.2	373	374	15.0	67.3
2025-09-12T18:19	10	0	0.1	0	0	373	0.3	372	373	14.9	68.1
2025-09-12T18:20	10	0	0.2	0	0	372	0.2	372	373	14.9	68.4
2025-09-12T18:21	10	0	0.2	-1	0	373	0.3	372	374	14.7	70.0
2025-09-12T18:22	10	0	0.2	0	1	373	0.3	372	374	14.8	67.0
2025-09-12T18:23	10	0	0.2	-1	0	373	0.3	372	373	15.1	62.2
2025-09-12T18:24	10	0	0.1	0	0	372	0.3	372	373	15.1	63.2
2025-09-12T18:25	10	0	0.1	-1	0	372	0.3	371	372	15.1	64.6
2025-09-12T18:26	10	0	0.1	0	0	371	0.2	371	372	14.9	67.9
2025-09-12T18:27	10	0	0.1	0	0	371	0.2	370	371	14.7	70.0
2025-09-12T18:28	10	0	0.1	0	0	371	0.5	370	372	14.6	71.7
2025-09-12T18:29	10	0	0.1	-1	0	371	0.3	370	372	14.8	67.5
2025-09-12T18:30	10	0	0.2	-1	0	371	0.3	370	372	14.8	68.0
2025-09-12T18:31	10	0	0.1	0	0	371	0.2	370	371	14.8	68.1
2025-09-12T18:32	10	0	0.1	0	0	370	0.2	370	371	14.8	66.0
2025-09-12T18:33	10	0	0.1	0	0	371	0.3	370	371	15.1	63.2
2025-09-12T18:34	10	0	0.1	0	0	371	0.3	370	371	15.1	63.0
2025-09-12T18:35	10	0	0.1	0	0	371	0.2	370	371	15.1	63.0
2025-09-12T18:36	10	0	0.1	0	0	370	0.2	370	371	15.3	61.2
2025-09-12T18:37	10	0	0.1	0	0	371	0.2	370	371	15.3	61.6
2025-09-12T18:38	10	0	0.1	0	1	371	0.3	370	371	15.2	61.6
2025-09-12T18:39	10	0	0.1	0	0	371	0.3	371	372	15.2	62.4
2025-09-12T18:40	10	0	0.1	0	0	371	0.3	370	371	15.0	64.5
2025-09-12T18:41	10	0	0.1	0	0	370	0.2	370	371	14.7	66.9
2025-09-12T18:42	10	0	0.1	0	0	370	0.3	370	371	14.6	67.7
2025-09-12T18:43	10	0	0.1	0	0	370	0.3	369	370	14.3	71.3
2025-09-12T18:44	10	0	0.1	0	0	370	0.5	369	371	14.1	71.1
2025-09-12T18:45	10	0	0.0	0	0	371	0.2	370	371	14.5	66.1
2025-09-12T18:46	10	0	0.1	0	0	370	0.3	370	371	14.4	68.7
2025-09-12T18:47	10	0	0.1	0	0	370	0.2	370	370	14.3	69.5
2025-09-12T18:48	10	0	0.1	0	0	370	0.3	369	371	14.2	70.1
2025-09-12T18:49	10	0	0.1	0	0	370	0.3	369	371	14.4	67.2
2025-09-12T18:50	10	0	0.1	0	0	370	0.3	369	371	14.5	66.4
2025-09-12T18:51	10	0	0.1	0	0	370	0.2	370	371	14.5	66.5
2025-09-12T18:52	10	0	0.1	0	0	371	0.4	370	372	14.7	63.9
2025-09-12T18:53	10	0	0.1	0	0	371	0.3	370	371	14.9	63.5
2025-09-12T18:54	10	0	0.1	0	0	371	0.2	371	372	14.9	62.9
2025-09-12T18:55	10	0	0.1	0	0	371	0.3	371	372	15.0	61.9
2025-09-12T18:56	10	0	0.1	0	0	371	0.4	370	372	14.9	64.9
2025-09-12T18:57	10	0	0.0	0	0	370	0.3	370	371	14.5	69.1
2025-09-12T18:58	10	0	0.1	0	0	370	0.2	369	371	14.3	70.3
2025-09-12T18:59	10	0	0.1	0	0	370	0.2	370	371	14.1	71.6
2025-09-12T19:00	10	0	0.1	0	0	370	0.3	370	371	14.0	73.1
2025-09-12T19:01	10	0	0.1	0	0	370	0.3	369	371	13.8	74.8
2025-09-12T19:02	10	0	0.1	0	0	370	0.2	370	371	13.7	73.1
2025-09-12T19:03	10	0	0.1	0	0	370	0.2	370	371	13.7	71.6
2025-09-12T19:04	10	0	0.1	0	0	371	0.3	370	371	13.7	72.2
2025-09-12T19:05	10	0	0.1	0	0	371	0.4	371	372	13.8	71.6
2025-09-12T19:06	10	0	0.1	0	0	371	0.2	371	372	13.9	70.6
2025-09-12T19:07	10	0	0.1	0	0	371	0.3	371	372	14.0	70.1
2025-09-12T19:08	10	0	0.1	0	0	372	0.2	371	372	14.0	69.3
2025-09-12T19:09	10	0	0.1	0	0	372	0.3	371	373	14.0	68.5
2025-09-12T19:10	10	0	0.1	0	0	372	0.3	371	373	14.1	67.8
2025-09-12T19:11	10	0	0.1	0	0	372	0.3	372	373	14.1	67.7
2025-09-12T19:12	10	0	0.1	0	0	372	0.3	371	372	14.1	67.5
2025-09-12T19:13	10	0	0.1	0	0	372	0.3	372	373	14.1	68.0
2025-09-12T19:14	10	0	0.1	0	0	372	0.2	372	373	14.1	67.9
2025-09-12T19:15	10	0	0.1	0	0	372	0.3	371	373	14.1	68.3
2025-09-12T19:16	10	0	0.1	0	0	372	0.2	371	373	14.0	68.8
2025-09-12T19:17	10	0	0.1	0	0	372	0.2	371	372	13.9	69.3
2025-09-12T19:18	10	0	0.1	0	0	371	0.2	371	372	13.9	70.2
2025-09-12T19:19	10	0	0.0	0	0	371	0.3	370	372	14.0	69.1
2025-09-12T19:20	10	0	0.1	0	0	370	0.4	369	371	13.9	70.5
2025-09-12T19:21	10	0	0.1	0	0	370	0.3	369	371	13.8	71.1
2025-09-12T19:22	10	0	0.1	0	0	370	0.2	370	371	14.0	69.2
2025-09-12T19:23	10	0	0.1	0	0	370	0.3	370	371	14.2	68.1
2025-09-12T19:24	10	0	0.1	0	0	370	0.2	369	371	14.4	67.3
2025-09-12T19:25	10	0	0.1	0	0	369	0.2	369	370	14.3	66.8
2025-09-12T19:26	10	0	0.1	0	0	369	0.3	369	370	14.3	67.0
2025-09-12T19:27	10	0	0.0	0	0	369	0.2	368	370	14.2	67.9
2025-09-12T19:28	10	0	0.1	0	0	369	0.3	368	369	14.2	68.8
2025-09-12T19:29	10	0	0.1	0	0	369	0.2	368	369	14.0	70.4
2025-09-12T19:30	10	0	0.1	0	0	368	0.3	368	369	14.0	70.5
2025-09-12T19:31	10	0	0.1	0	0	369	0.4	368	370	14.1	70.0
2025-09-12T19:32	10	0	0.1	0	0	369	0.3	369	370	14.1	69.3
2025-09-12T19:33	10	0	0.1	0	0	369	0.2	368	369	14.1	69.5
2025-09-12T19:34	10	0	0.1	0	0	368	0.2	368	369	14.1	69.6
2025-09-12T19:35	10	0	0.1	0	0	368	0.2	367	368	14.1	69.8
2025-09-12T19:36	10	0	0.1	0	0	368	0.2	367	368	14.1	69.6
2025-09-12T19:37	10	0	0.1	0	0	367	0.2	367	368	14.0	70.3
2025-09-12T19:38	10	0	0.1	0	0	367	0.3	367	368	14.0	70.1
2025-09-12T19:39	10	0	0.1	0	0	368	0.3	367	368	14.0	70.0
2025-09-12T19:40	10	0	0.1	0	0	368	0.2	367	369	14.0	70.3
2025-09-12T19:41	10	0	0.1	0	0	368	0.2	367	368	14.0	70.1
2025-09-12T19:42	10	0	0.1	0	0	367	0.3	367	368	13.9	70.4
2025-09-12T19:43	10	0	0.1	0	0	366	0.4	366	367	13.8	71.5
2025-09-12T19:44	10	0	0.1	0	0	366	0.2	365	366	13.7	71.9
2025-09-12T19:45	10	0	0.1	0	0	366	0.2	366	367	13.7	72.2
2025-09-12T19:46	10	0	0.1	0	0	366	0.3	366	367	13.6	72.5
2025-09-12T19:47	10	0	0.1	0	0	366	0.2	366	367	13.7	71.2
2025-09-12T19:48	10	0	0.1	0	0	366	0.4	365	366	13.9	70.7
2025-09-12T19:49	10	0	0.1	0	0	364	0.6	363	365	13.7	72.3
2025-09-12T19:50	10	0	0.1	0	0	364	0.3	363	364	13.3	75.1
2025-09-12T19:51	10	0	0.1	0	0	363	0.2	363	364	13.4	73.8
2025-09-12T19:52	10	0	0.1	0	0	363	0.2	363	364	13.3	74.4
2025-09-12T19:53	10	0	0.1	-1	0	363	0.2	363	364	13.2	74.7
2025-09-12T19:54	10	0	0.2	-1	0	362	0.3	361	363	13.0	76.8
2025-09-12T19:55	10	0	0.2	-1	0	362	0.3	362	363	12.9	77.1
2025-09-12T19:56	10	0	0.1	-1	0	362	0.2	362	363	12.8	77.4
2025-09-12T19:57	10	0	0.2	-1	0	362	0.4	361	363	12.8	77.2
2025-09-12T19:58	10	0	0.2	-1	0	361	0.3	360	361	12.8	78.0
2025-09-12T19:59	10	0	0.1	-1	0	361	0.3	360	361	12.7	78.2
2025-09-12T20:00	10	0	0.1	0	0	360	0.3	360	361	12.7	77.8
2025-09-12T20:01	10	0	0.2	-1	0	360	0.2	359	361	12.7	77.7
2025-09-12T20:02	10	0	0.2	-1	0	360	0.2	359	360	12.8	77.2
2025-09-12T20:03	10	0	0.1	-1	0	359	0.3	359	360	12.9	76.9
2025-09-12T20:04	10	0	0.2	-1	0	359	0.3	359	360	12.9	76.6
2025-09-12T20:05	10	0	0.1	-1	0	360	0.4	359	361	12.9	76.6
2025-09-12T20:06	10	0	0.1	-1	0	360	0.2	360	361	12.9	76.3
2025-09-12T20:07	10	0	0.1	-1	0	360	0.2	360	360	12.9	76.4
2025-09-12T20:08	10	0	0.1	-1	0	360	0.2	359	360	12.9	76.3
2025-09-12T20:09	10	0	0.1	0	0	360	0.2	359	360	12.9	74.0
2025-09-12T20:10	10	0	0.1	0	0	359	0.2	358	359	12.9	76.6
2025-09-12T20:11	10	0	0.1	-1	0	358	0.2	358	359	12.8	76.6
2025-09-12T20:12	10	0	0.1	0	0	358	0.2	358	359	12.9	76.6
2025-09-12T20:13	10	0	0.1	0	0	358	0.3	357	358	12.9	76.6
2025-09-12T20:14	10	0	0.1	-1	0	357	0.2	357	358	12.9	76.6
2025-09-12T20:15	10	0	0.1	0	0	357	0.2	357	358	12.9	76.6
2025-09-12T20:16	10	0	0.1	0	0	358	0.3	357	358	12.9	76.6
2025-09-12T20:17	10	0	0.1	0	0	358	0.2	357	358	12.8	76.6
2025-09-12T20:18	10	0	0.1	0	0	357	0.2	357	358	12.6	77.1
2025-09-12T20:19	10	0	0.1	0	0	357	0.3	356	358	12.6	78.0
2025-09-12T20:20	10	0	0.1	0	0	357	0.2	357	357	12.6	78.5
2025-09-12T20:21	10	0	0.1	0	0	357	0.2	356	357	12.5	79.0
2025-09-12T20:22	10	0	0.1	0	0	357	0.3	356	357	12.4	79.6
2025-09-12T20:23	10	0	0.1	0	0	357	0.2	356	357	12.3	80.2
2025-09-12T20:24	10	0	0.1	0	0	357	0.2	356	357	12.3	80.5
2025-09-12T20:25	10	0	0.1	0	0	356	0.2	356	357	12.2	80.8
2025-09-12T20:26	10	0	0.1	0	0	356	0.3	356	357	12.2	81.1
2025-09-12T20:27	10	0	0.1	0	0	356	0.2	355	356	12.2	81.1
2025-09-12T20:28	10	0	0.1	0	0	356	0.2	356	357	12.3	80.2
2025-09-12T20:29	10	0	0.1	0	0	356	0.3	356	357	12.5	78.3
2025-09-12T20:30	10	0	0.1	0	0	357	0.3	356	358	12.7	77.1
2025-09-12T20:31	10	0	0.1	0	0	357	0.2	356	357	12.8	76.7
2025-09-12T20:32	10	0	0.1	0	0	357	0.2	356	357	12.8	76.7
2025-09-12T20:33	10	0	0.1	0	0	356	0.3	356	357	12.8	76.6
2025-09-12T20:34	10	0	0.1	0	0	356	0.2	356	357	12.7	77.9
2025-09-12T20:35	10	0	0.1	0	0	357	0.3	356	357	12.6	78.6
2025-09-12T20:36	10	0	0.1	0	0	356	0.4	355	357	12.6	79.0
2025-09-12T20:37	10	0	0.1	0	0	356	0.4	356	357	12.4	80.1
2025-09-12T20:38	10	0	0.1	0	0	356	0.4	356	357	12.6	79.3
2025-09-12T20:39	10	0	0.1	0	0	357	0.4	356	357	12.5	79.6
2025-09-12T20:40	10	0	0.1	0	0	356	0.4	355	357	12.5	79.3
2025-09-12T20:41	10	0	0.1	0	0	356	0.3	355	357	12.5	79.7
2025-09-12T20:42	10	0	0.1	0	0	357	0.3	356	357	12.6	79.6
2025-09-12T20:43	10	0	0.1	0	0	357	0.3	357	358	12.5	80.1
2025-09-12T20:44	10	0	0.1	0	0	358	0.3	357	358	12.5	80.4
2025-09-12T20:45	10	0	0.1	0	0	358	0.2	357	358	12.4	80.8
2025-09-12T20:46	10	0	0.1	0	0	358	0.3	357	358	12.4	80.8
2025-09-12T20:47	10	0	0.1	0	0	357	0.4	356	358	12.2	81.6
2025-09-12T20:48	10	0	0.1	0	0	356	0.3	356	357	12.0	82.3
2025-09-12T20:49	10	0	0.1	0	0	356	0.3	355	357	12.0	82.4
2025-09-12T20:50	10	0	0.1	0	0	355	0.2	355	356	12.0	81.8
2025-09-12T20:51	10	0	0.1	0	0	355	0.3	354	355	12.0	81.5
2025-09-12T20:52	10	0	0.1	0	0	355	0.3	354	355	11.9	81.9
2025-09-12T20:53	10	0	0.1	0	0	355	0.2	354	355	12.0	81.4
2025-09-12T20:54	10	0	0.1	0	0	355	0.3	354	355	12.2	80.9
2025-09-12T20:55	10	0	0.1	0	0	356	0.3	355	356	12.3	80.7
2025-09-12T20:56	10	0	0.1	0	0	357	0.4	356	357	12.3	80.6
2025-09-12T20:57	10	0	0.1	0	0	357	0.2	357	358	12.4	80.4
2025-09-12T20:58	10	0	0.1	0	0	358	0.2	357	358	12.4	80.2
2025-09-12T20:59	10	0	0.1	0	0	358	0.2	358	358	12.4	80.1
2025-09-12T21:00	10	0	0.1	0	0	358	0.3	358	359	12.4	79.9
2025-09-12T21:01	10	0	0.1	0	0	358	0.3	357	359	12.4	79.6
2025-09-12T21:02	10	0	0.1	0	0	358	0.2	358	358	12.4	79.5
2025-09-12T21:03	10	0	0.1	-1	0	359	0.2	358	359	12.4	79.7
2025-09-12T21:04	10	0	0.1	0	0	359	0.3	358	359	12.4	79.8
2025-09-12T21:05	10	0	0.1	0	0	359	0.2	358	359	12.4	79.6
2025-09-12T21:06	10	0	0.1	0	0	359	0.2	358	359	12.3	79.6
2025-09-12T21:07	10	0	0.1	0	0	359	0.2	358	359	12.3	79.7
2025-09-12T21:08	10	0	0.1	0	0	359	0.2	358	359	12.3	79.8
2025-09-12T21:09	10	0	0.1	0	0	359	0.3	359	360	12.4	79.9
2025-09-12T21:10	10	0	0.1	0	0	360	0.2	359	360	12.4	79.8
2025-09-12T21:11	10	0	0.1	0	0	360	0.3	359	360	12.3	79.8
2025-09-12T21:12	10	0	0.1	0	0	359	0.2	358	359	12.3	79.9
2025-09-12T21:13	10	0	0.1	-1	0	359	0.3	358	359	12.2	80.0
2025-09-12T21:14	10	0	0.1	0	0	358	0.3	358	359	12.1	80.0
2025-09-12T21:15	10	0	0.1	-1	0	358	0.3	357	359	12.1	80.2
2025-09-12T21:16	10	0	0.1	-1	0	357	0.3	356	357	12.1	80.5
2025-09-12T21:17	10	0	0.1	0	0	356	0.3	355	357	12.0	80.9
2025-09-12T21:18	10	0	0.1	0	0	356	0.3	356	357	11.9	81.6
2025-09-12T21:19	10	0	0.1	0	0	356	0.3	356	357	11.8	82.2
2025-09-12T21:20	10	0	0.1	0	0	356	0.2	356	356	11.8	82.5
2025-09-12T21:21	10	0	0.1	0	0	356	0.2	355	356	11.8	82.6
2025-09-12T21:22	10	0	0.1	0	0	355	0.2	355	356	11.7	82.9
2025-09-12T21:23	10	0	0.1	0	0	355	0.3	354	356	11.7	83.3
2025-09-12T21:24	10	0	0.1	0	0	355	0.2	354	355	11.8	83.1
2025-09-12T21:25	10	0	0.1	0	0	355	0.3	354	355	11.8	82.8
2025-09-12T21:26	10	0	0.1	0	0	355	0.2	354	356	11.8	82.9
2025-09-12T21:27	10	0	0.1	0	0	356	0.3	355	356	11.7	83.4
2025-09-12T21:28	10	0	0.1	0	0	357	0.4	356	358	11.8	83.3
2025-09-12T21:29	10	0	0.1	0	0	358	0.3	357	358	11.8	83.2
2025-09-12T21:30	10	0	0.1	0	0	358	0.3	358	359	11.8	83.1
2025-09-12T21:31	10	0	0.1	0	0	359	0.3	359	360	11.8	83.4
2025-09-12T21:32	10	0	0.1	0	0	359	0.3	359	360	11.8	83.1
2025-09-12T21:33	10	0	0.1	0	0	360	0.2	359	360	11.8	82.8
2025-09-12T21:34	10	0	0.1	0	0	360	0.3	359	361	11.8	82.7
2025-09-12T21:35	10	0	0.1	-1	0	360	0.2	360	360	11.8	82.4
2025-09-12T21:36	10	0	0.1	-1	0	360	0.1	359	360	11.8	82.3
2025-09-12T21:37	10	0	0.1	0	0	360	0.2	359	360	11.8	82.3
2025-09-12T21:38	10	0	0.1	0	0	360	0.2	359	360	11.8	82.1
2025-09-12T21:39	10	0	0.1	0	0	359	0.2	359	360	11.8	81.8
2025-09-12T21:40	10	0	0.1	0	0	359	0.3	359	360	11.8	81.5
2025-09-12T21:41	10	0	0.1	0	0	359	0.2	359	360	11.9	80.9
2025-09-12T21:42	10	0	0.1	0	0	359	0.2	359	360	11.9	80.9
2025-09-12T21:43	10	0	0.1	0	0	359	0.2	359	360	12.0	79.8
2025-09-12T21:44	10	0	0.1	0	0	359	0.3	359	360	12.0	79.4
2025-09-12T21:45	10	0	0.1	0	0	359	0.3	358	359	12.1	78.5
2025-09-12T21:46	10	0	0.1	0	0	358	0.2	358	359	12.1	78.8
2025-09-12T21:47	10	0	0.1	0	0	358	0.4	357	359	12.0	79.2
2025-09-12T21:48	10	0	0.1	0	0	357	0.3	356	358	11.9	79.5
2025-09-12T21:49	10	0	0.1	0	0	356	0.4	356	357	11.9	79.7
2025-09-12T21:50	10	0	0.1	0	0	355	0.4	355	356	11.7	81.3
2025-09-12T21:51	10	0	0.1	0	0	355	0.4	354	355	11.3	84.1
2025-09-12T21:52	10	0	0.1	0	0	355	0.2	354	355	11.2	84.5
2025-09-12T21:53	10	0	0.1	0	0	354	0.3	354	355	11.2	84.4
2025-09-12T21:54	10	0	0.1	0	0	354	0.2	354	354	11.1	84.8
2025-09-12T21:55	10	0	0.1	0	0	354	0.3	353	355	11.2	84.4
2025-09-12T21:56	10	0	0.1	0	0	354	0.2	353	354	11.3	83.8
2025-09-12T21:57	10	0	0.1	0	0	353	0.3	352	354	11.3	83.5
2025-09-12T21:58	10	0	0.1	-1	0	352	0.3	352	353	11.2	83.8
2025-09-12T21:59	10	0	0.2	-1	0	352	0.3	352	353	11.1	84.4
2025-09-12T22:00	10	0	0.1	-1	0	352	0.2	351	352	11.2	84.1
2025-09-12T22:01	10	0	0.1	0	0	352	0.3	351	352	11.1	84.4
2025-09-12T22:02	10	0	0.1	-1	0	351	0.3	351	352	11.0	85.3
2025-09-12T22:03	10	0	0.1	-1	0	352	0.5	351	353	11.0	85.6
2025-09-12T22:04	10	0	0.1	-1	0	353	0.4	352	354	11.0	85.3
2025-09-12T22:05	10	0	0.2	-1	0	353	0.2	352	353	11.0	84.4
2025-09-12T22:06	10	0	0.1	-1	0	353	0.3	352	353	11.0	83.7
2025-09-12T22:07	10	0	0.2	-1	0	352	0.3	351	353	11.0	83.7
2025-09-12T22:08	10	0	0.1	-1	0	352	0.2	352	352	11.1	83.7
2025-09-12T22:09	10	0	0.1	-1	0	352	0.3	351	352	11.1	83.9
2025-09-12T22:10	10	0	0.1	-1	0	351	0.3	350	352	11.1	83.9
2025-09-12T22:11	10	0	0.1	-1	0	351	0.2	351	352	11.1	84.2
2025-09-12T22:12	10	0	0.1	-1	0	352	0.2	351	352	11.0	84.2
2025-09-12T22:13	10	0	0.1	-1	0	352	0.2	351	352	11.0	83.8
2025-09-12T22:14	10	0	0.1	-1	0	352	0.3	351	352	11.0	83.7
2025-09-12T22:15	10	0	0.1	-1	0	352	0.2	352	353	11.1	83.7
2025-09-12T22:16	10	0	0.1	-1	0	352	0.3	352	353	11.0	83.9
2025-09-12T22:17	10	0	0.1	0	0	352	0.2	352	353	10.9	84.1
2025-09-12T22:18	10	0	0.1	-1	0	352	0.2	352	353	10.9	84.5
2025-09-12T22:19	10	0	0.2	-1	0	352	0.2	352	353	10.8	85.1
2025-09-12T22:20	10	0	0.1	-1	0	352	0.3	351	352	10.7	86.0
2025-09-12T22:21	10	0	0.1	0	0	351	0.2	351	352	10.6	87.6
2025-09-12T22:22	10	0	0.1	-1	0	352	0.3	351	352	10.6	87.5
2025-09-12T22:23	10	0	0.1	-1	0	352	0.3	351	353	10.6	87.5
2025-09-12T22:24	10	0	0.2	-1	0	352	0.4	351	353	10.5	87.9
2025-09-12T22:25	10	0	0.2	-1	0	352	0.2	351	352	10.5	87.9
2025-09-12T22:26	10	0	0.1	-1	0	352	0.4	351	353	10.6	88.0
2025-09-12T22:27	10	0	0.1	-1	0	352	0.3	352	353	10.7	86.6
2025-09-12T22:28	10	0	0.1	-1	0	351	0.4	351	352	10.8	86.5
2025-09-12T22:29	10	0	0.1	0	0	351	0.3	350	351	10.6	87.6
2025-09-12T22:30	10	0	0.1	-1	0	350	0.2	349	350	10.6	87.7
2025-09-12T22:31	10	0	0.1	0	0	350	0.3	349	350	10.8	86.7
2025-09-12T22:32	10	0	0.1	-1	0	349	0.2	349	350	10.8	86.3
2025-09-12T22:33	10	0	0.0	0	0	350	0.3	349	350	10.9	85.6
2025-09-12T22:34	10	0	0.1	-1	0	350	0.2	349	350	11.0	85.1
2025-09-12T22:35	10	0	0.1	-1	0	350	0.2	349	350	11.0	85.0
2025-09-12T22:36	10	0	0.1	0	0	349	0.3	348	350	10.9	85.4
2025-09-12T22:37	10	0	0.1	0	0	349	0.2	349	350	10.9	85.7
2025-09-12T22:38	10	0	0.0	0	0	349	0.2	348	349	10.8	86.1
2025-09-12T22:39	10	0	0.1	0	0	349	0.4	348	349	10.7	86.3
2025-09-12T22:40	10	0	0.1	0	0	348	0.2	348	349	10.7	86.4
2025-09-12T22:41	10	0	0.1	0	0	348	0.2	348	348	10.7	86.8
2025-09-12T22:42	10	0	0.1	0	0	348	0.2	347	348	10.6	87.2
2025-09-12T22:43	10	0	0.1	0	0	348	0.2	347	348	10.6	87.5
2025-09-12T22:44	10	0	0.1	0	0	348	0.2	347	348	10.5	87.8
2025-09-12T22:45	10	0	0.1	0	0	348	0.2	347	348	10.4	88.0
2025-09-12T22:46	10	0	0.1	0	0	348	0.3	347	348	10.4	87.9
2025-09-12T22:47	10	0	0.1	0	0	348	0.3	348	349	10.4	88.3
2025-09-12T22:48	10	0	0.1	0	0	348	0.4	347	349	10.3	88.7
2025-09-12T22:49	10	0	0.1	0	0	349	0.3	348	350	10.2	89.2
2025-09-12T22:50	10	0	0.1	0	0	349	0.2	349	350	10.1	89.9
2025-09-12T22:51	10	0	0.1	0	0	350	0.3	349	350	10.1	90.2
2025-09-12T22:52	10	0	0.1	0	0	349	0.3	348	349	10.1	90.0
2025-09-12T22:53	10	0	0.1	0	0	348	0.4	347	349	10.2	89.6
2025-09-12T22:54	10	0	0.1	0	0	348	0.2	348	349	10.1	90.1
2025-09-12T22:55	10	0	0.1	0	0	348	0.2	347	348	10.1	89.9
2025-09-12T22:56	10	0	0.1	0	0	347	0.3	347	348	10.0	90.5
2025-09-12T22:57	10	0	0.1	0	0	348	0.3	347	349	10.1	90.5
2025-09-12T22:58	10	0	0.1	0	0	348	0.3	347	349	10.2	89.7
2025-09-12T22:59	10	0	0.1	-1	0	348	0.3	347	348	10.3	89.3
2025-09-12T23:00	10	0	0.1	0	0	348	0.2	347	348	10.3	88.8
2025-09-12T23:01	10	0	0.1	-1	0	348	0.2	347	348	10.4	88.4
2025-09-12T23:02	10	0	0.1	0	0	348	0.2	347	348	10.4	88.1
2025-09-12T23:03	10	0	0.1	-1	0	348	0.2	347	348	10.5	87.2
2025-09-12T23:04	10	0	0.1	-1	0	348	0.4	347	349	10.6	86.4
2025-09-12T23:05	10	0	0.1	0	0	348	0.3	348	349	10.6	85.8
2025-09-12T23:06	10	0	0.1	0	0	349	0.2	348	349	10.7	84.6
2025-09-12T23:07	10	0	0.1	0	0	349	0.2	349	350	10.7	85.0
2025-09-12T23:08	10	0	0.1	0	0	349	0.3	349	350	10.5	85.9
2025-09-12T23:09	10	0	0.1	0	0	350	0.2	349	350	10.5	86.2
2025-09-12T23:10	10	0	0.1	-1	0	350	0.2	349	350	10.5	86.2
2025-09-12T23:11	10	0	0.1	0	0	349	0.3	348	350	10.4	86.7
2025-09-12T23:12	10	0	0.1	0	0	349	0.2	348	349	10.1	88.1
2025-09-12T23:13	10	0	0.1	0	0	349	0.3	349	350	10.0	89.1
2025-09-12T23:14	10	0	0.1	0	0	350	0.3	349	351	10.1	89.0
2025-09-12T23:15	10	0	0.1	-1	0	351	0.3	350	352	10.2	88.9
2025-09-12T23:16	10	0	0.1	0	0	351	0.3	351	352	10.2	88.6
2025-09-12T23:17	10	0	0.1	0	0	352	0.2	352	352	10.3	88.2
2025-09-12T23:18	10	0	0.1	0	0	352	0.2	352	352	10.3	87.9
2025-09-12T23:19	10	0	0.1	0	0	352	0.2	351	352	10.3	87.9
2025-09-12T23:20	10	0	0.1	0	0	352	0.3	351	353	10.3	87.9
2025-09-12T23:21	10	0	0.1	0	0	352	0.3	352	353	10.4	87.4
2025-09-12T23:22	10	0	0.1	-1	0	353	0.3	352	353	10.6	86.6
2025-09-12T23:23	10	0	0.1	-1	0	353	0.2	353	354	10.8	85.4
2025-09-12T23:24	10	0	0.1	0	0	353	0.3	352	353	11.0	83.8
2025-09-12T23:25	10	0	0.1	0	0	352	0.2	352	352	10.8	84.9
2025-09-12T23:26	10	0	0.1	0	0	352	0.3	351	352	10.7	85.4
2025-09-12T23:27	10	0	0.1	0	0	351	0.3	351	352	10.6	86.1
2025-09-12T23:28	10	0	0.1	0	0	351	0.3	350	352	10.4	86.9
2025-09-12T23:29	10	0	0.1	0	0	351	0.3	351	352	10.3	87.3
2025-09-12T23:30	10	0	0.1	0	0	351	0.2	350	351	10.2	87.8
2025-09-12T23:31	10	0	0.1	0	0	351	0.3	351	352	10.1	88.7
2025-09-12T23:32	10	0	0.1	0	0	352	0.2	351	352	10.1	89.2
2025-09-12T23:33	10	0	0.1	0	0	352	0.2	351	352	10.1	88.8
2025-09-12T23:34	10	0	0.1	0	0	352	0.2	351	352	10.1	88.9
2025-09-12T23:35	10	0	0.1	0	0	352	0.2	352	352	10.1	88.8
2025-09-12T23:36	10	0	0.1	0	0	352	0.3	351	353	10.1	88.4
2025-09-12T23:37	10	0	0.1	-1	0	352	0.2	352	353	10.2	88.0
2025-09-12T23:38	10	0	0.1	0	0	352	0.3	351	353	10.2	88.6
2025-09-12T23:39	10	0	0.1	-1	0	352	0.3	352	353	10.1	89.0
2025-09-12T23:40	10	0	0.1	-1	0	353	0.3	352	353	10.1	88.9
2025-09-12T23:41	10	0	0.1	-1	0	353	0.2	353	354	10.1	89.0
2025-09-12T23:42	10	0	0.1	0	0	353	0.2	353	354	10.1	89.2
2025-09-12T23:43	10	0	0.1	0	0	353	0.2	352	353	10.1	88.7
2025-09-12T23:44	10	0	0.1	0	0	353	0.2	352	353	10.2	88.3
2025-09-12T23:45	10	0	0.1	0	0	353	0.2	352	354	10.1	88.6
2025-09-12T23:46	10	0	0.1	0	0	353	0.2	352	353	10.1	89.1
2025-09-12T23:47	10	0	0.1	0	0	353	0.2	352	353	10.0	89.5
2025-09-12T23:48	10	0	0.1	0	0	352	0.2	352	353	9.9	90.1
2025-09-12T23:49	10	0	0.1	-1	0	352	0.2	352	353	9.9	90.4
2025-09-12T23:50	10	0	0.1	-1	0	352	0.2	352	353	9.9	90.9
2025-09-12T23:51	10	0	0.1	-1	0	352	0.3	352	353	9.9	90.7
2025-09-12T23:52	10	0	0.1	-1	0	353	0.2	352	353	10.1	90.3
2025-09-12T23:53	10	0	0.1	-1	0	353	0.3	353	354	10.1	90.3
2025-09-12T23:54	10	0	0.1	-1	0	353	0.3	352	354	10.1	90.3
2025-09-12T23:55	10	0	0.1	-1	0	353	0.2	352	353	10.0	90.9
2025-09-12T23:56	10	0	0.1	0	0	353	0.2	352	353	9.9	91.1
2025-09-12T23:57	10	0	0.1	0	0	352	0.4	352	353	9.8	91.3
2025-09-12T23:58	10	0	0.1	0	0	352	0.2	352	352	9.7	91.7
2025-09-12T23:59	10	0	0.1	0	0	352	0.2	351	352	9.6	91.7
2025-09-13T00:00	10	0	0.1	0	0	352	0.3	351	352	9.7	92.0
2025-09-13T00:01	10	0	0.1	0	0	352	0.2	351	352	9.6	92.2
2025-09-13T00:02	10	0	0.1	0	0	352	0.3	351	353	9.6	91.9
2025-09-13T00:03	10	0	0.1	0	0	352	0.2	352	352	9.8	91.2
2025-09-13T00:04	10	0	0.1	0	0	352	0.2	351	353	9.8	90.8
2025-09-13T00:05	10	0	0.1	-1	0	352	0.3	351	352	9.8	90.7
2025-09-13T00:06	10	0	0.1	-1	0	352	0.4	352	353	9.9	90.0
2025-09-13T00:07	10	0	0.1	0	0	353	0.3	352	354	10.0	89.2
2025-09-13T00:08	10	0	0.1	-1	0	354	0.3	353	354	10.0	88.7
2025-09-13T00:09	10	0	0.1	-1	0	354	0.3	353	354	9.9	89.3
2025-09-13T00:10	10	0	0.1	-1	0	354	0.3	353	354	9.9	89.9
2025-09-13T00:11	10	0	0.1	-1	0	354	0.2	353	354	9.9	90.0
2025-09-13T00:12	10	0	0.1	0	0	353	0.4	352	354	9.7	90.6
2025-09-13T00:13	10	0	0.1	0	0	353	0.2	353	354	9.6	91.0
2025-09-13T00:14	10	0	0.1	0	0	353	0.3	353	354	9.7	90.9
2025-09-13T00:15	10	0	0.1	0	0	353	0.2	353	354	9.7	91.0
2025-09-13T00:16	10	0	0.1	0	0	353	0.2	353	354	9.7	91.1
2025-09-13T00:17	10	0	0.1	-1	0	353	0.2	353	354	9.8	90.9
2025-09-13T00:18	10	0	0.1	-1	0	353	0.2	352	353	9.7	90.9
2025-09-13T00:19	10	0	0.1	-1	0	353	0.2	352	353	9.7	91.3
2025-09-13T00:20	10	0	0.1	0	0	353	0.3	352	353	9.7	91.1
2025-09-13T00:21	10	0	0.1	-1	0	353	0.2	352	353	9.7	91.0
2025-09-13T00:22	10	0	0.1	-1	0	352	0.2	352	353	9.7	90.8
2025-09-13T00:23	10	0	0.1	0	0	352	0.2	352	353	9.8	90.8
2025-09-13T00:24	10	0	0.1	0	0	352	0.3	351	353	9.8	91.0
2025-09-13T00:25	10	0	0.1	-1	0	352	0.3	351	353	9.8	91.1
2025-09-13T00:26	10	0	0.1	0	0	351	0.3	351	352	9.7	91.1
2025-09-13T00:27	10	0	0.1	0	0	351	0.2	351	352	9.6	91.7
2025-09-13T00:28	10	0	0.1	0	0	352	0.2	351	352	9.7	91.7
2025-09-13T00:29	10	0	0.1	-1	0	352	0.2	351	353	9.7	91.6
2025-09-13T00:30	10	0	0.1	0	0	352	0.3	352	353	9.9	90.9
2025-09-13T00:31	10	0	0.1	0	0	353	0.3	352	354	10.0	90.2
2025-09-13T00:32	10	0	0.1	0	0	354	0.4	353	355	10.0	90.0
2025-09-13T00:33	10	0	0.1	0	0	354	0.3	354	355	10.1	89.3
2025-09-13T00:34	10	0	0.1	-1	0	355	0.3	354	356	10.1	89.2
2025-09-13T00:35	10	0	0.1	-1	0	356	0.3	355	356	10.0	89.7
2025-09-13T00:36	10	0	0.1	-1	0	356	0.4	355	357	10.0	89.9
2025-09-13T00:37	10	0	0.1	-1	0	357	0.3	357	358	10.0	90.0
2025-09-13T00:38	10	0	0.1	-1	0	358	0.2	357	358	10.0	90.2
2025-09-13T00:39	10	0	0.1	-1	0	358	0.2	357	358	9.9	90.7
2025-09-13T00:40	10	0	0.1	-1	0	358	0.2	358	358	9.9	91.1
2025-09-13T00:41	10	0	0.1	-1	0	358	0.2	357	359	10.0	91.2
2025-09-13T00:42	10	0	0.1	-1	0	358	0.3	358	359	10.0	91.1
2025-09-13T00:43	10	0	0.1	0	0	358	0.2	358	359	10.0	91.5
2025-09-13T00:44	10	0	0.1	-1	0	358	0.3	357	359	9.9	91.8
2025-09-13T00:45	10	0	0.1	0	0	358	0.2	357	358	9.9	91.9
2025-09-13T00:46	10	0	0.1	0	0	358	0.3	357	358	9.9	92.0
2025-09-13T00:47	10	0	0.1	0	0	357	0.3	357	358	9.9	92.1
2025-09-13T00:48	10	0	0.1	0	0	357	0.3	356	358	9.8	92.2
2025-09-13T00:49	10	0	0.1	0	0	357	0.2	356	357	9.8	92.4
2025-09-13T00:50	10	0	0.1	0	0	356	0.3	356	357	9.8	92.6
2025-09-13T00:51	10	0	0.1	0	0	356	0.2	355	356	9.8	92.5
2025-09-13T00:52	10	0	0.1	0	0	356	0.2	355	356	9.8	92.3
2025-09-13T00:53	10	0	0.1	0	0	355	0.3	355	356	9.8	92.2
2025-09-13T00:54	10	0	0.1	0	0	355	0.2	355	356	9.8	92.2
2025-09-13T00:55	10	0	0.1	0	0	355	0.2	354	355	9.9	92.0
2025-09-13T00:56	10	0	0.1	0	0	355	0.2	354	355	9.9	92.0
2025-09-13T00:57	10	0	0.1	0	0	354	0.3	353	354	9.8	92.1
2025-09-13T00:58	10	0	0.1	0	0	353	0.3	352	354	9.8	92.7
2025-09-13T00:59	10	0	0.1	0	0	353	0.2	352	353	9.7	92.9
2025-09-13T01:00	10	0	0.1	0	0	353	0.2	352	353	9.8	92.7
2025-09-13T01:01	10	0	0.1	0	0	353	0.3	352	353	9.9	92.0
2025-09-13T01:02	10	0	0.1	-1	0	353	0.2	352	353	9.9	91.6
2025-09-13T01:03	10	0	0.1	0	0	353	0.2	352	353	9.9	91.7
2025-09-13T01:04	10	0	0.1	0	0	352	0.3	352	353	9.9	91.8
2025-09-13T01:05	10	0	0.1	0	0	352	0.3	351	353	9.9	92.1
2025-09-13T01:06	10	0	0.1	0	0	352	0.2	351	352	9.8	92.3
2025-09-13T01:07	10	0	0.1	0	0	351	0.2	351	352	9.8	92.6
2025-09-13T01:08	10	0	0.1	-1	0	351	0.2	351	352	9.8	92.4
2025-09-13T01:09	10	0	0.1	0	0	352	0.2	351	352	9.8	92.6
2025-09-13T01:10	10	0	0.1	0	0	352	0.2	351	352	9.8	92.4
2025-09-13T01:11	10	0	0.1	-1	0	352	0.2	352	352	9.9	92.2
2025-09-13T01:12	10	0	0.1	-1	0	352	0.3	352	353	9.9	92.0
2025-09-13T01:13	10	0	0.1	-1	0	352	0.3	351	353	9.9	91.7
2025-09-13T01:14	10	0	0.1	-1	0	352	0.2	352	353	10.0	91.5
2025-09-13T01:15	10	0	0.1	0	0	353	0.2	352	353	10.0	91.2
2025-09-13T01:16	10	0	0.1	-1	0	353	0.2	352	354	10.0	91.0
2025-09-13T01:17	10	0	0.1	0	0	353	0.2	352	353	10.1	90.8
2025-09-13T01:18	10	0	0.1	0	0	353	0.2	352	353	10.0	91.1
2025-09-13T01:19	10	0	0.1	0	0	353	0.2	353	353	9.9	91.2
2025-09-13T01:20	10	0	0.1	0	0	353	0.2	352	353	9.9	91.3
2025-09-13T01:21	10	0	0.1	0	0	353	0.3	352	353	9.8	91.7
2025-09-13T01:22	10	0	0.1	0	0	353	0.3	352	353	9.8	91.7
2025-09-13T01:23	10	0	0.1	0	0	353	0.2	352	353	9.8	91.7
2025-09-13T01:24	10	0	0.1	0	0	352	0.3	352	353	9.9	91.6
2025-09-13T01:25	10	0	0.1	-1	0	352	0.2	352	353	10.0	90.9
2025-09-13T01:26	10	0	0.1	-1	0	353	0.4	352	354	10.1	90.6
2025-09-13T01:27	10	0	0.1	-1	0	354	0.3	353	354	10.1	90.0
2025-09-13T01:28	10	0	0.1	-1	0	354	0.3	354	355	10.1	90.4
2025-09-13T01:29	10	0	0.1	-1	0	355	0.2	354	356	10.1	90.5
2025-09-13T01:30	10	0	0.1	-1	0	355	0.2	355	356	10.1	90.5
2025-09-13T01:31	10	0	0.1	0	0	356	0.2	355	356	10.0	90.7
2025-09-13T01:32	10	0	0.1	-1	0	356	0.2	355	357	10.0	90.9
2025-09-13T01:33	10	0	0.1	-1	0	356	0.2	356	357	9.9	91.0
2025-09-13T01:34	10	0	0.1	0	0	357	0.1	356	357	9.9	91.2
2025-09-13T01:35	10	0	0.1	0	0	357	0.2	356	357	9.9	91.3
2025-09-13T01:36	10	0	0.1	0	0	357	0.3	356	357	9.9	91.0
2025-09-13T01:37	10	0	0.1	0	0	357	0.2	356	357	10.0	90.6
2025-09-13T01:38	10	0	0.1	-1	0	357	0.2	356	357	10.1	90.5
2025-09-13T01:39	10	0	0.1	-1	0	357	0.2	356	357	10.1	90.3
2025-09-13T01:40	10	0	0.1	0	0	356	0.3	355	357	10.1	90.2
2025-09-13T01:41	10	0	0.1	-1	0	357	0.2	356	357	10.2	89.6
2025-09-13T01:42	10	0	0.1	-1	0	356	0.2	356	356	10.2	89.6
2025-09-13T01:43	10	0	0.1	-1	0	356	0.3	355	356	10.1	89.7
2025-09-13T01:44	10	0	0.0	0	0	356	0.2	355	356	10.1	89.7
2025-09-13T01:45	10	0	0.1	0	0	355	0.2	355	356	10.1	89.8
2025-09-13T01:46	10	0	0.0	0	0	355	0.3	354	355	10.1	89.9
2025-09-13T01:47	10	0	0.1	0	0	354	0.3	353	355	10.1	90.0
2025-09-13T01:48	10	0	0.1	0	0	354	0.3	353	354	10.2	89.5
2025-09-13T01:49	10	0	0.1	0	0	354	0.2	354	354	10.4	88.3
2025-09-13T01:50	10	0	0.1	0	0	354	0.2	354	355	10.4	88.0
2025-09-13T01:51	10	0	0.0	0	0	354	0.2	354	355	10.5	87.5
2025-09-13T01:52	10	0	0.1	0	0	355	0.2	354	355	10.5	87.3
2025-09-13T01:53	10	0	0.1	0	0	355	0.3	354	356	10.4	87.9
2025-09-13T01:54	10	0	0.1	0	0	355	0.2	355	356	10.4	88.0
2025-09-13T01:55	10	0	0.1	0	0	355	0.2	355	356	10.3	88.8
2025-09-13T01:56	10	0	0.0	0	0	355	0.2	355	356	10.2	89.5
2025-09-13T01:57	10	0	0.1	0	0	355	0.2	355	356	10.2	89.5
2025-09-13T01:58	10	0	0.1	-1	0	355	0.3	354	356	10.2	89.5
2025-09-13T01:59	10	0	0.1	0	0	354	0.3	354	355	10.2	89.5
2025-09-13T02:00	10	0	0.1	0	0	354	0.3	353	355	10.1	89.9
2025-09-13T02:01	10	0	0.1	0	0	353	0.2	353	354	10.0	91.2
2025-09-13T02:02	10	0	0.1	0	0	353	0.2	352	353	9.9	91.2
2025-09-13T02:03	10	0	0.1	0	0	352	0.2	352	353	9.9	91.5
2025-09-13T02:04	10	0	0.0	0	0	352	0.2	352	353	9.8	92.0
2025-09-13T02:05	10	0	0.1	0	0	352	0.2	352	353	9.8	92.1
2025-09-13T02:06	10	0	0.1	0	0	352	0.2	352	352	9.8	92.3
2025-09-13T02:07	10	0	0.1	0	0	352	0.2	352	353	9.8	92.3
2025-09-13T02:08	10	0	0.1	0	0	352	0.2	352	353	9.9	91.8
2025-09-13T02:09	10	0	0.1	0	0	352	0.2	352	353	10.0	91.4
2025-09-13T02:10	10	0	0.1	0	0	352	0.2	352	353	10.1	90.7
2025-09-13T02:11	10	0	0.1	-1	0	352	0.2	352	353	10.1	90.1
2025-09-13T02:12	10	0	0.1	0	0	352	0.2	352	353	10.2	89.5
2025-09-13T02:13	10	0	0.1	0	0	352	0.2	352	353	10.3	89.2
2025-09-13T02:14	10	0	0.1	0	0	352	0.2	352	353	10.2	89.4
2025-09-13T02:15	10	0	0.1	-1	0	351	0.3	351	352	10.2	89.4
2025-09-13T02:16	10	0	0.1	0	0	351	0.3	351	352	10.2	89.5
2025-09-13T02:17	10	0	0.1	0	0	351	0.3	350	351	10.1	90.0
2025-09-13T02:18	10	0	0.1	0	0	351	0.3	350	351	10.0	90.5
2025-09-13T02:19	10	0	0.1	0	0	351	0.2	351	352	10.1	90.2
2025-09-13T02:20	10	0	0.1	0	0	351	0.2	351	352	10.1	90.3
2025-09-13T02:21	10	0	0.1	0	0	351	0.2	351	352	10.1	90.0
2025-09-13T02:22	10	0	0.1	-1	0	352	0.2	351	352	10.2	89.1
2025-09-13T02:23	10	0	0.1	-1	0	351	0.2	351	352	10.3	88.6
2025-09-13T02:24	10	0	0.1	-1	0	351	0.2	351	352	10.3	88.9
2025-09-13T02:25	10	0	0.1	-1	0	351	0.2	351	352	10.2	89.0
2025-09-13T02:26	10	0	0.0	-1	0	351	0.2	350	351	10.2	89.3
2025-09-13T02:27	10	0	0.1	-1	0	351	0.3	350	351	10.1	89.6
2025-09-13T02:28	10	0	0.1	-1	0	351	0.2	350	351	10.1	89.6
2025-09-13T02:29	10	0	0.0	0	0	351	0.2	351	352	10.0	90.4
2025-09-13T02:30	10	0	0.1	0	0	352	0.2	351	352	9.9	91.0
2025-09-13T02:31	10	0	0.1	0	0	351	0.2	351	352	10.0	90.6
2025-09-13T02:32	10	0	0.1	0	0	351	0.2	351	351	10.0	90.6
2025-09-13T02:33	10	0	0.1	0	0	351	0.2	351	352	10.0	90.7
2025-09-13T02:34	10	0	0.1	0	0	351	0.2	350	352	10.0	90.8
2025-09-13T02:35	10	0	0.1	0	0	351	0.2	350	351	10.0	91.1
2025-09-13T02:36	10	0	0.1	0	0	350	0.2	350	351	10.0	91.4
2025-09-13T02:37	10	0	0.1	0	0	350	0.2	349	350	9.9	91.5
2025-09-13T02:38	10	0	0.1	0	0	349	0.3	349	350	9.9	91.5
2025-09-13T02:39	10	0	0.1	0	0	349	0.2	348	349	9.9	91.7
2025-09-13T02:40	10	0	0.0	0	0	349	0.2	349	350	9.8	91.7
2025-09-13T02:41	10	0	0.1	0	0	348	0.3	348	349	9.8	91.7
2025-09-13T02:42	10	0	0.1	-1	0	348	0.2	348	349	9.8	91.9
2025-09-13T02:43	10	0	0.1	-1	0	348	0.2	348	349	9.7	92.1
2025-09-13T02:44	10	0	0.0	0	0	348	0.3	347	349	9.7	92.1
2025-09-13T02:45	10	0	0.1	0	0	348	0.2	348	348	9.7	92.1
2025-09-13T02:46	10	0	0.1	0	0	348	0.2	348	349	9.7	92.4
2025-09-13T02:47	10	0	0.0	0	0	348	0.2	347	348	9.6	92.6
2025-09-13T02:48	10	0	0.1	0	0	348	0.2	347	348	9.6	92.9
2025-09-13T02:49	10	0	0.1	0	0	348	0.3	347	348	9.6	92.9
2025-09-13T02:50	10	0	0.1	0	0	348	0.2	347	348	9.6	93.0
2025-09-13T02:51	10	0	0.1	-1	0	348	0.2	347	348	9.5	93.1
2025-09-13T02:52	10	0	0.1	0	0	348	0.2	347	348	9.5	93.3
2025-09-13T02:53	10	0	0.1	0	0	348	0.2	347	349	9.5	93.5
2025-09-13T02:54	10	0	0.1	-1	0	348	0.2	347	348	9.4	93.7
2025-09-13T02:55	10	0	0.1	0	0	348	0.2	348	348	9.4	93.8
2025-09-13T02:56	10	0	0.1	0	0	349	0.3	348	349	9.4	94.1
2025-09-13T02:57	10	0	0.1	0	0	349	0.2	348	349	9.3	94.3
2025-09-13T02:58	10	0	0.1	0	0	349	0.3	348	349	9.3	94.7
2025-09-13T02:59	10	0	0.1	0	0	349	0.3	349	350	9.3	95.1
2025-09-13T03:00	10	0	0.1	-1	0	350	0.2	349	350	9.3	95.0
2025-09-13T03:01	10	0	0.1	0	0	350	0.3	349	351	9.3	94.9
2025-09-13T03:02	10	0	0.1	0	0	350	0.2	350	351	9.3	95.0
2025-09-13T03:03	10	0	0.1	-1	0	351	0.2	350	351	9.3	95.0
2025-09-13T03:04	10	0	0.1	0	0	351	0.2	350	351	9.2	95.2
2025-09-13T03:05	10	0	0.1	0	0	351	0.2	350	351	9.2	95.1
2025-09-13T03:06	10	0	0.1	0	0	351	0.2	350	351	9.2	95.2
2025-09-13T03:07	10	0	0.1	0	0	351	0.2	350	351	9.2	95.3
2025-09-13T03:08	10	0	0.1	0	0	350	0.2	350	351	9.2	95.5
2025-09-13T03:09	10	0	0.1	0	0	350	0.2	350	351	9.1	95.7
2025-09-13T03:10	10	0	0.1	0	0	350	0.2	350	351	9.2	95.7
2025-09-13T03:11	10	0	0.1	0	0	350	0.2	349	351	9.2	95.6
2025-09-13T03:12	10	0	0.1	-1	0	350	0.2	350	351	9.3	95.3
2025-09-13T03:13	10	0	0.1	-1	0	350	0.2	350	351	9.3	95.2
2025-09-13T03:14	10	0	0.1	-1	0	351	0.3	350	351	9.4	94.7
2025-09-13T03:15	10	0	0.1	-1	0	351	0.4	350	352	9.5	94.2
2025-09-13T03:16	10	0	0.1	-1	0	351	0.2	350	351	9.6	93.7
2025-09-13T03:17	10	0	0.2	-1	0	351	0.3	350	352	9.5	93.9
2025-09-13T03:18	10	0	0.1	-1	0	351	0.3	350	352	9.5	93.9
2025-09-13T03:19	10	0	0.1	-1	0	351	0.2	350	351	9.5	93.9
2025-09-13T03:20	10	0	0.1	0	0	351	0.2	350	351	9.4	94.1
2025-09-13T03:21	10	0	0.1	-1	0	351	0.2	350	351	9.4	94.3
2025-09-13T03:22	10	0	0.1	0	0	351	0.3	350	352	9.3	94.3
2025-09-13T03:23	10	0	0.1	-1	0	351	0.3	350	351	9.3	94.5
2025-09-13T03:24	10	0	0.1	0	0	351	0.2	351	352	9.2	94.8
2025-09-13T03:25	10	0	0.1	-1	0	351	0.2	350	351	9.1	95.0
2025-09-13T03:26	10	0	0.1	0	0	351	0.3	351	352	9.1	95.2
2025-09-13T03:27	10	0	0.1	-1	0	351	0.3	350	352	9.2	95.2
2025-09-13T03:28	10	0	0.1	-1	0	351	0.2	351	352	9.1	95.4
2025-09-13T03:29	10	0	0.2	-1	0	351	0.2	351	352	9.1	95.3
2025-09-13T03:30	10	0	0.1	-1	0	351	0.3	350	351	9.1	95.5
2025-09-13T03:31	10	0	0.1	0	0	350	0.2	350	351	9.1	95.7
2025-09-13T03:32	10	0	0.1	-1	0	350	0.3	349	350	9.1	95.8
2025-09-13T03:33	10	0	0.1	-1	0	349	0.2	349	350	9.1	95.7
2025-09-13T03:34	10	0	0.2	-1	0	349	0.3	349	350	9.1	95.5
2025-09-13T03:35	10	0	0.2	-1	0	349	0.3	348	350	9.1	95.6
2025-09-13T03:36	10	0	0.1	-1	0	349	0.2	349	350	9.1	95.6
2025-09-13T03:37	10	0	0.2	-1	0	349	0.3	349	350	9.1	95.5
2025-09-13T03:38	10	0	0.1	-1	0	349	0.4	348	350	9.1	95.5
2025-09-13T03:39	10	0	0.2	-1	0	349	0.2	349	350	9.1	95.4
2025-09-13T03:40	10	0	0.1	-1	0	350	0.2	349	350	9.2	95.1
2025-09-13T03:41	10	0	0.2	-1	0	350	0.2	349	351	9.2	95.1
2025-09-13T03:42	10	0	0.2	-1	0	350	0.2	349	350	9.2	95.0
2025-09-13T03:43	10	0	0.1	-1	0	349	0.2	349	350	9.2	95.0
2025-09-13T03:44	10	0	0.1	-1	0	349	0.2	348	350	9.2	94.8
2025-09-13T03:45	10	0	0.1	-1	0	349	0.3	348	350	9.2	95.2
2025-09-13T03:46	10	0	0.1	-1	0	349	0.2	348	349	9.1	95.3
2025-09-13T03:47	10	0	0.2	-1	0	349	0.2	349	350	9.0	95.4
2025-09-13T03:48	10	0	0.2	-1	0	349	0.2	349	350	9.0	95.7
2025-09-13T03:49	10	0	0.1	-1	0	350	0.3	349	350	8.9	96.0
2025-09-13T03:50	10	0	0.2	-1	0	350	0.3	349	351	9.0	96.1
2025-09-13T03:51	10	0	0.1	-1	0	349	0.2	349	350	8.9	96.2
2025-09-13T03:52	10	0	0.1	-1	0	349	0.3	349	350	8.9	96.1
2025-09-13T03:53	10	0	0.2	-1	0	349	0.3	348	350	9.0	95.8
2025-09-13T03:54	10	0	0.1	-1	0	349	0.4	348	350	9.1	95.6
2025-09-13T03:55	10	0	0.2	-1	0	349	0.3	348	349	9.0	95.8
2025-09-13T03:56	10	0	0.2	-1	0	349	0.3	348	350	8.9	95.8
2025-09-13T03:57	10	0	0.2	-1	0	349	0.2	348	349	8.9	96.0
2025-09-13T03:58	10	0	0.2	-1	0	349	0.3	348	350	9.0	95.9
2025-09-13T03:59	10	0	0.2	-1	0	349	0.3	348	349	9.1	95.6
2025-09-13T04:00	10	0	0.2	-1	0	349	0.3	348	350	9.2	95.4
2025-09-13T04:01	10	0	0.1	-1	0	349	0.2	348	349	9.3	95.0
2025-09-13T04:02	10	0	0.1	-1	0	348	0.3	348	349	9.4	94.6
2025-09-13T04:03	10	0	0.1	-1	0	348	0.2	348	349	9.4	94.1
2025-09-13T04:04	10	0	0.2	-1	0	348	0.3	348	349	9.4	94.1
2025-09-13T04:05	10	0	0.1	-1	0	348	0.2	348	349	9.3	94.2
2025-09-13T04:06	10	0	0.1	-1	0	349	0.3	348	349	9.3	94.2
2025-09-13T04:07	10	0	0.1	-1	0	348	0.2	348	349	9.3	94.3
2025-09-13T04:08	10	0	0.1	-1	0	348	0.2	348	349	9.2	94.8
2025-09-13T04:09	10	0	0.1	-1	0	348	0.2	348	349	9.1	95.0
2025-09-13T04:10	10	0	0.1	-1	0	348	0.3	347	348	9.1	95.0
2025-09-13T04:11	10	0	0.1	-1	0	347	0.2	347	347	9.1	95.4
2025-09-13T04:12	10	0	0.1	-1	0	347	0.2	347	347	9.1	95.6
2025-09-13T04:13	10	0	0.1	-1	0	347	0.3	347	348	9.1	95.5
2025-09-13T04:14	10	0	0.1	-1	0	347	0.2	346	348	9.2	95.3
2025-09-13T04:15	10	0	0.1	-1	0	347	0.2	347	347	9.2	94.7
2025-09-13T04:16	10	0	0.1	-1	0	347	0.3	346	347	9.3	94.2
2025-09-13T04:17	10	0	0.1	-1	0	347	0.3	347	348	9.3	94.3
2025-09-13T04:18	10	0	0.1	-1	0	347	0.3	346	348	9.2	94.4
2025-09-13T04:19	10	0	0.2	-1	0	347	0.4	346	348	9.2	94.2
2025-09-13T04:20	10	0	0.2	-1	0	347	0.3	347	348	9.3	94.3
2025-09-13T04:21	10	0	0.1	-1	0	348	0.2	348	348	9.3	94.4
2025-09-13T04:22	10	0	0.2	-1	0	349	0.3	347	349	9.3	94.3
2025-09-13T04:23	10	0	0.1	-1	0	349	0.3	348	349	9.4	93.9
2025-09-13T04:24	10	0	0.2	-1	0	349	0.2	349	350	9.4	93.7
2025-09-13T04:25	10	0	0.2	-1	0	349	0.3	349	350	9.5	93.5
2025-09-13T04:26	10	0	0.1	-1	0	350	0.3	349	350	9.5	93.3
2025-09-13T04:27	10	0	0.1	-1	0	350	0.2	349	350	9.5	93.2
2025-09-13T04:28	10	0	0.1	-1	0	350	0.2	350	350	9.5	92.9
2025-09-13T04:29	10	0	0.2	-1	0	350	0.3	349	351	9.6	92.7
2025-09-13T04:30	10	0	0.1	-1	0	350	0.2	350	351	9.6	92.6
2025-09-13T04:31	10	0	0.1	-1	0	350	0.2	350	351	9.6	92.5
2025-09-13T04:32	10	0	0.1	-1	0	350	0.3	349	351	9.6	92.5
2025-09-13T04:33	10	0	0.1	-1	0	350	0.3	349	351	9.6	92.7
2025-09-13T04:34	10	0	0.2	-1	0	350	0.2	350	351	9.6	92.3
2025-09-13T04:35	10	0	0.1	-1	0	350	0.3	349	351	9.8	91.4
2025-09-13T04:36	10	0	0.1	-1	0	350	0.3	349	351	9.8	91.3
2025-09-13T04:37	10	0	0.1	-1	0	350	0.3	349	350	9.7	91.6
2025-09-13T04:38	10	0	0.1	-1	0	350	0.3	349	350	9.7	92.3
2025-09-13T04:39	10	0	0.1	-1	0	349	0.2	349	350	9.6	92.3
2025-09-13T04:40	10	0	0.1	-1	0	349	0.2	349	350	9.6	92.4
2025-09-13T04:41	10	0	0.1	-1	0	349	0.3	349	350	9.6	92.1
2025-09-13T04:42	10	0	0.1	-1	0	348	0.2	348	349	9.6	92.2
2025-09-13T04:43	10	0	0.1	-1	0	349	0.2	348	349	9.5	92.6
2025-09-13T04:44	10	0	0.1	-1	0	349	0.2	348	349	9.5	92.8
2025-09-13T04:45	10	0	0.2	-1	0	348	0.2	348	349	9.4	92.9
2025-09-13T04:46	10	0	0.2	-1	0	348	0.2	348	349	9.4	93.1
2025-09-13T04:47	10	0	0.1	-1	0	348	0.2	348	349	9.3	93.4
2025-09-13T04:48	10	0	0.1	-1	0	348	0.3	348	349	9.3	93.8
2025-09-13T04:49	10	0	0.1	-1	0	348	0.2	348	349	9.2	94.1
2025-09-13T04:50	10	0	0.1	-1	0	349	0.3	348	349	9.2	94.2
2025-09-13T04:51	10	0	0.1	-1	0	349	0.3	348	349	9.1	94.7
2025-09-13T04:52	10	0	0.1	-1	0	349	0.3	348	349	9.1	94.9
2025-09-13T04:53	10	0	0.1	0	0	349	0.2	349	350	9.1	94.8
2025-09-13T04:54	10	0	0.1	-1	0	349	0.2	348	350	9.0	94.8
2025-09-13T04:55	10	0	0.1	0	0	349	0.2	349	349	9.0	95.0
2025-09-13T04:56	10	0	0.1	0	0	350	0.2	349	350	9.0	95.3
2025-09-13T04:57	10	0	0.1	0	0	350	0.2	349	350	9.0	95.1
2025-09-13T04:58	10	0	0.1	0	0	350	0.2	349	350	8.9	95.2
2025-09-13T04:59	10	0	0.1	0	0	350	0.2	350	350	8.9	95.4
2025-09-13T05:00	10	0	0.1	0	0	350	0.2	350	351	8.9	95.7
2025-09-13T05:01	10	0	0.1	0	0	350	0.2	350	350	8.8	96.1
2025-09-13T05:02	10	0	0.1	0	0	350	0.3	350	351	8.8	96.3
2025-09-13T05:03	10	0	0.1	0	0	350	0.2	350	351	8.8	96.4
2025-09-13T05:04	10	0	0.1	0	0	350	0.2	350	351	8.8	96.4
2025-09-13T05:05	10	0	0.1	0	0	350	0.2	349	351	8.8	96.5
2025-09-13T05:06	10	0	0.1	0	0	350	0.2	349	350	8.9	96.2
2025-09-13T05:07	10	0	0.1	0	0	350	0.2	349	351	8.9	96.1
2025-09-13T05:08	10	0	0.1	0	0	350	0.2	349	350	8.9	96.4
2025-09-13T05:09	10	0	0.1	0	0	350	0.2	349	350	8.8	96.5
2025-09-13T05:10	10	0	0.1	0	1	350	0.2	349	350	8.8	96.3
2025-09-13T05:11	10	0	0.1	0	1	350	0.2	349	350	8.8	96.4
2025-09-13T05:12	10	0	0.1	0	0	350	0.3	349	350	8.8	96.4
2025-09-13T05:13	10	0	0.1	0	1	350	0.3	349	351	8.9	96.3
2025-09-13T05:14	10	0	0.1	0	1	350	0.2	349	351	8.9	96.6
2025-09-13T05:15	10	1	0.2	0	1	350	0.2	350	351	8.9	96.6
2025-09-13T05:16	10	1	0.1	0	1	350	0.3	350	351	8.9	96.7
2025-09-13T05:17	10	1	0.1	1	1	350	0.2	350	351	9.1	96.5
2025-09-13T05:18	10	1	0.1	1	2	350	0.2	349	350	9.0	96.8
2025-09-13T05:19	10	1	0.1	1	2	350	0.2	350	350	9.0	96.6
2025-09-13T05:20	10	1	0.1	1	2	350	0.2	350	351	9.0	96.6
2025-09-13T05:21	10	2	0.1	1	2	350	0.2	349	350	9.0	96.7
2025-09-13T05:22	10	2	0.2	2	2	350	0.2	349	350	9.1	96.5
2025-09-13T05:23	10	2	0.1	2	2	350	0.3	349	350	9.1	96.3
2025-09-13T05:24	10	2	0.1	2	3	350	0.2	349	350	9.0	96.3
2025-09-13T05:25	10	3	0.1	2	3	350	0.2	349	350	9.0	95.7
2025-09-13T05:26	10	3	0.1	3	3	350	0.4	350	351	9.0	95.5
2025-09-13T05:27	10	3	0.2	3	4	351	0.2	350	351	9.1	94.8
2025-09-13T05:28	10	4	0.1	3	4	351	0.3	350	352	9.2	94.2
2025-09-13T05:29	10	4	0.1	4	4	352	0.3	351	352	9.3	93.6
2025-09-13T05:30	10	4	0.1	4	4	352	0.2	352	353	9.4	93.0
2025-09-13T05:31	10	4	0.1	4	5	352	0.2	352	353	9.3	92.9
2025-09-13T05:32	10	5	0.1	5	5	353	0.2	352	353	9.3	92.9
2025-09-13T05:33	10	5	0.1	5	5	353	0.2	352	353	9.3	93.1
2025-09-13T05:34	10	6	0.2	5	6	353	0.3	352	354	9.2	93.2
2025-09-13T05:35	10	6	0.1	6	6	353	0.2	353	354	9.3	93.2
2025-09-13T05:36	10	6	0.1	6	6	353	0.2	353	354	9.3	93.1
2025-09-13T05:37	10	6	0.1	6	6	353	0.2	353	354	9.2	93.3
2025-09-13T05:38	10	6	0.1	6	6	353	0.3	352	354	9.1	93.5
2025-09-13T05:39	10	7	0.2	6	7	353	0.2	353	353	9.0	94.5
2025-09-13T05:40	10	7	0.1	7	7	353	0.2	352	353	8.9	95.1
2025-09-13T05:41	10	7	0.2	7	8	353	0.2	353	354	8.9	95.5
2025-09-13T05:42	10	8	0.2	8	8	354	0.2	353	354	8.9	95.6
2025-09-13T05:43	10	9	0.2	8	9	354	0.2	354	355	8.9	95.8
2025-09-13T05:44	10	9	0.1	9	9	354	0.3	354	355	8.9	95.6
2025-09-13T05:45	10	9	0.1	9	10	355	0.3	354	355	8.9	95.5
2025-09-13T05:46	10	10	0.2	10	10	355	0.2	355	356	9.0	95.2
2025-09-13T05:47	10	10	0.1	10	11	356	0.3	355	356	9.0	95.2
2025-09-13T05:48	10	11	0.1	10	11	356	0.3	355	356	9.1	95.1
2025-09-13T05:49	10	11	0.1	11	11	356	0.2	355	356	9.1	95.1
2025-09-13T05:50	10	11	0.1	11	11	356	0.2	356	357	9.1	95.0
2025-09-13T05:51	10	11	0.1	11	11	357	0.3	356	357	9.1	95.0
2025-09-13T05:52	10	11	0.1	11	11	357	0.2	356	357	9.1	95.4
2025-09-13T05:53	10	11	0.1	11	12	357	0.2	356	357	9.1	95.9
2025-09-13T05:54	10	12	0.1	12	12	357	0.2	357	357	9.1	95.9
2025-09-13T05:55	10	12	0.2	12	13	357	0.2	357	358	9.2	95.6
2025-09-13T05:56	10	13	0.1	13	13	357	0.2	357	358	9.2	95.1
2025-09-13T05:57	10	13	0.2	13	14	358	0.3	357	358	9.2	95.0
2025-09-13T05:58	10	14	0.1	14	14	358	0.2	358	358	9.3	94.7
2025-09-13T05:59	10	14	0.3	14	15	359	0.3	358	359	9.4	93.8
2025-09-13T06:00	10	14	0.3	14	15	359	0.2	359	360	9.5	93.1
2025-09-13T06:01	10	13	0.2	13	14	359	0.2	358	359	9.6	92.5
2025-09-13T06:02	10	13	0.1	13	13	359	0.3	358	360	9.6	92.3
2025-09-13T06:03	10	13	0.1	12	13	359	0.2	359	360	9.7	91.9
2025-09-13T06:04	10	12	0.1	12	13	359	0.3	358	359	9.7	91.9
2025-09-13T06:05	10	12	0.1	12	12	359	0.2	358	359	9.6	93.4
2025-09-13T06:06	10	12	0.1	12	12	358	0.3	358	359	9.5	93.9
2025-09-13T06:07	10	12	0.1	12	12	359	0.2	358	359	9.5	94.1
2025-09-13T06:08	10	12	0.1	12	13	358	0.2	358	359	9.5	94.0
2025-09-13T06:09	10	12	0.1	12	13	359	0.3	358	359	9.6	93.1
2025-09-13T06:10	10	13	0.1	12	13	359	0.2	358	359	9.8	91.9
2025-09-13T06:11	10	13	0.1	12	13	359	0.2	358	359	9.8	91.8
2025-09-13T06:12	10	12	0.1	12	13	359	0.2	358	359	9.8	91.7
2025-09-13T06:13	10	12	0.1	12	12	359	0.2	358	359	9.8	91.4
2025-09-13T06:14	10	12	0.1	12	12	359	0.2	358	359	9.8	91.3
2025-09-13T06:15	10	12	0.1	12	12	359	0.2	358	359	9.9	90.9
2025-09-13T06:16	10	12	0.1	12	12	359	0.2	358	359	9.8	91.2
2025-09-13T06:17	10	12	0.2	12	13	359	0.3	358	359	9.8	91.6
2025-09-13T06:18	10	13	0.2	12	13	358	0.3	358	359	9.8	91.5
2025-09-13T06:19	10	13	0.1	13	13	359	0.3	358	359	9.8	91.7
2025-09-13T06:20	10	13	0.2	13	14	359	0.2	358	359	9.8	92.4
2025-09-13T06:21	10	14	0.2	13	14	359	0.2	358	359	9.7	92.7
2025-09-13T06:22	10	15	0.3	14	15	359	0.2	359	360	9.8	92.7
2025-09-13T06:23	10	16	0.5	15	17	359	0.3	359	360	9.8	92.5
2025-09-13T06:24	10	20	1.6	17	21	360	0.5	359	361	9.8	92.5
2025-09-13T06:25	10	21	0.5	20	21	361	0.2	360	361	9.8	92.1
2025-09-13T06:26	10	20	0.8	19	23	361	0.2	361	362	9.9	91.2
2025-09-13T06:27	10	29	4.2	23	35	362	0.5	361	363	10.0	90.0
2025-09-13T06:28	10	27	2.9	24	33	362	0.2	362	363	10.0	90.7
2025-09-13T06:29	10	25	1.4	22	27	363	0.3	362	363	10.0	90.7
2025-09-13T06:30	10	23	1.0	22	25	362	0.2	362	363	10.1	89.7
2025-09-13T06:31	10	24	0.8	22	25	363	0.3	362	363	10.1	89.6
2025-09-13T06:32	10	23	0.3	22	24	363	0.2	362	363	10.2	89.6
2025-09-13T06:33	10	24	0.5	23	25	363	0.2	362	363	10.2	89.2
2025-09-13T06:34	10	27	1.0	25	28	363	0.2	362	363	10.3	88.9
2025-09-13T06:35	10	33	3.3	27	38	364	0.4	363	365	10.3	88.5
2025-09-13T06:36	10	37	3.0	30	40	364	0.3	364	365	10.4	88.4
2025-09-13T06:37	10	33	2.3	30	37	365	0.3	364	366	10.4	88.5
2025-09-13T06:38	10	31	2.4	27	35	365	0.2	365	366	10.5	87.2
2025-09-13T06:39	10	34	4.5	26	42	365	0.3	365	366	10.5	88.3
2025-09-13T06:40	10	48	2.1	43	50	367	0.5	365	368	10.5	88.8
2025-09-13T06:41	10	52	0.9	51	54	368	0.3	367	368	10.5	88.4
2025-09-13T06:42	10	54	0.5	53	55	368	0.2	367	369	10.6	88.2
2025-09-13T06:43	10	56	0.7	55	58	369	0.3	368	369	10.5	88.7
2025-09-13T06:44	10	58	0.3	57	58	369	0.3	369	370	10.5	89.7
2025-09-13T06:45	10	57	1.3	55	58	369	0.3	368	370	10.4	89.7
2025-09-13T06:46	10	58	0.4	58	59	369	0.3	369	370	10.5	89.8
2025-09-13T06:47	10	59	0.7	57	59	369	0.4	369	370	10.5	89.2
2025-09-13T06:48	10	59	0.2	59	60	370	0.4	369	371	10.5	89.4
2025-09-13T06:49	10	60	0.3	60	61	371	0.3	370	371	10.6	90.2
2025-09-13T06:50	10	60	0.1	60	61	372	0.3	371	372	10.6	89.9
2025-09-13T06:51	10	61	0.4	60	62	372	0.3	371	373	10.7	87.9
2025-09-13T06:52	10	62	0.2	62	63	373	0.3	372	373	10.8	88.2
2025-09-13T06:53	10	63	0.3	63	64	373	0.3	373	374	10.8	87.6
2025-09-13T06:54	10	64	0.1	64	64	374	0.3	373	374	10.9	88.3
2025-09-13T06:55	10	64	0.2	64	65	374	0.3	373	374	11.0	87.8
2025-09-13T06:56	10	65	0.4	64	65	374	0.2	374	375	11.0	87.9
2025-09-13T06:57	10	64	1.5	62	67	374	0.3	374	375	11.1	87.4
2025-09-13T06:58	10	65	2.0	62	68	375	0.3	374	376	11.2	87.3
2025-09-13T06:59	10	67	2.6	62	70	376	0.5	375	377	11.3	88.1
2025-09-13T07:00	10	69	1.6	66	72	377	0.3	376	377	11.3	87.8
2025-09-13T07:01	10	58	5.3	50	67	377	0.4	376	378	11.4	87.0
2025-09-13T07:02	10	67	1.0	66	69	377	0.3	376	378	11.4	86.5
2025-09-13T07:03	10	51	8.2	42	67	377	0.9	375	378	11.4	85.8
2025-09-13T07:04	10	49	7.2	38	64	375	0.3	375	376	11.5	85.2
2025-09-13T07:05	10	70	1.7	65	73	376	0.5	375	377	11.6	84.8
2025-09-13T07:06	10	69	1.9	66	72	377	0.4	377	378	11.6	85.2
2025-09-13T07:07	10	72	0.4	72	73	377	0.3	377	378	11.6	84.0
2025-09-13T07:08	10	74	0.4	73	74	377	0.3	377	378	11.6	83.0
2025-09-13T07:09	10	74	0.7	72	75	378	0.3	377	378	11.6	83.4
2025-09-13T07:10	10	74	2.9	71	79	379	0.4	378	379	11.7	85.0
2025-09-13T07:11	10	79	0.8	76	80	379	0.2	379	380	11.8	84.3
2025-09-13T07:12	10	72	3.4	64	76	379	0.3	378	380	11.9	83.8
2025-09-13T07:13	10	63	10.0	46	75	378	0.5	377	380	11.9	83.5
2025-09-13T07:14	10	61	12.0	40	76	378	0.8	377	379	11.9	82.7
2025-09-13T07:15	10	61	10.2	41	75	377	0.5	376	378	12.0	83.0
2025-09-13T07:16	10	70	6.3	57	76	378	0.6	377	379	12.0	82.2
2025-09-13T07:17	10	70	2.2	66	74	379	0.2	379	380	12.0	82.9
2025-09-13T07:18	10	66	2.3	62	70	380	0.3	379	380	12.1	82.8
2025-09-13T07:19	10	63	3.7	59	73	380	0.2	379	380	12.2	82.8
2025-09-13T07:20	10	79	2.8	73	86	382	0.8	380	383	12.3	83.5
2025-09-13T07:21	10	93	3.9	86	98	384	1.0	382	385	12.3	82.7
2025-09-13T07:22	10	91	3.7	87	97	385	0.3	384	385	12.4	82.3
2025-09-13T07:23	10	94	4.8	86	101	386	0.3	385	386	12.4	82.7
2025-09-13T07:24	10	99	2.3	96	102	387	0.2	386	387	12.5	81.5
2025-09-13T07:25	10	93	1.9	90	96	388	0.3	387	388	12.6	81.7
2025-09-13T07:26	10	88	1.5	86	93	388	0.2	387	388	12.7	81.6
2025-09-13T07:27	10	93	2.4	89	97	389	0.4	388	389	12.8	82.5
2025-09-13T07:28	10	79	8.4	66	94	389	0.8	387	390	12.8	81.3
2025-09-13T07:29	10	58	5.6	50	67	387	0.9	386	389	12.8	80.8
2025-09-13T07:30	10	49	0.7	47	50	386	0.3	386	387	12.9	82.0
2025-09-13T07:31	10	46	0.8	45	48	385	0.6	384	386	13.0	82.7
2025-09-13T07:32	10	48	1.2	46	50	385	0.3	384	385	12.9	81.8
2025-09-13T07:33	10	50	2.5	48	54	385	0.3	384	385	12.9	82.7
2025-09-13T07:34	10	58	3.3	53	64	385	0.3	384	386	12.9	81.6
2025-09-13T07:35	10	68	3.0	64	72	386	0.5	386	388	12.8	81.9
2025-09-13T07:36	10	65	3.7	60	72	387	0.5	386	388	12.8	81.7
2025-09-13T07:37	10	56	2.3	54	60	386	0.4	386	387	12.8	82.0
2025-09-13T07:38	10	51	2.5	47	55	385	0.5	385	386	12.8	82.0
2025-09-13T07:39	10	47	1.5	45	49	385	0.3	385	386	12.8	82.3
2025-09-13T07:40	10	46	0.7	45	47	386	0.2	385	386	12.9	83.3
2025-09-13T07:41	10	45	0.7	44	47	385	0.2	385	386	12.9	82.6
2025-09-13T07:42	10	45	0.5	44	46	384	0.5	383	386	12.8	82.6
2025-09-13T07:43	10	46	1.2	45	49	384	0.2	384	385	12.8	82.8
2025-09-13T07:44	10	47	0.8	46	48	385	0.2	385	385	12.8	83.2
2025-09-13T07:45	10	48	1.6	46	51	385	0.3	384	385	12.9	83.1
2025-09-13T07:46	10	52	2.0	49	55	384	0.3	384	385	12.8	83.0
2025-09-13T07:47	10	57	0.8	55	58	385	0.4	384	386	12.8	83.5
2025-09-13T07:48	10	58	1.7	56	61	386	0.3	385	387	12.9	84.7
2025-09-13T07:49	10	59	1.0	58	61	386	0.3	385	386	12.9	84.1
2025-09-13T07:50	10	60	3.5	53	64	386	0.2	385	386	12.8	82.9
2025-09-13T07:51	10	59	1.2	56	62	386	0.2	385	387	12.8	83.2
2025-09-13T07:52	10	66	1.6	62	68	387	0.4	386	387	12.8	83.5
2025-09-13T07:53	10	69	0.7	68	70	388	0.6	387	389	12.9	83.5
2025-09-13T07:54	10	72	2.3	69	75	389	0.3	388	390	12.9	83.6
2025-09-13T07:55	10	77	1.5	75	80	390	0.5	389	391	13.0	83.9
2025-09-13T07:56	10	70	6.4	61	80	390	0.6	389	391	13.0	83.6
2025-09-13T07:57	10	78	3.9	70	82	390	0.3	389	391	13.0	82.9
2025-09-13T07:58	10	76	2.6	70	80	390	0.3	390	391	13.0	82.8
2025-09-13T07:59	10	75	2.2	69	79	392	0.4	391	392	13.1	83.6
2025-09-13T08:00	10	74	1.6	71	76	392	0.4	391	392	13.2	83.6
2025-09-13T08:01	10	72	2.1	68	75	390	0.4	390	391	13.1	82.9
2025-09-13T08:02	10	73	2.7	68	77	390	0.3	389	391	13.0	82.5
2025-09-13T08:03	10	65	7.4	56	75	390	0.6	388	391	13.0	82.6
2025-09-13T08:04	10	57	2.6	52	60	389	0.4	388	389	13.0	82.5
2025-09-13T08:05	10	54	1.5	52	56	388	0.4	387	389	13.1	82.8
2025-09-13T08:06	10	55	2.1	52	58	387	0.2	387	388	13.0	82.6
2025-09-13T08:07	10	58	0.9	57	60	387	0.3	387	388	13.0	81.8
2025-09-13T08:08	10	55	1.9	53	59	387	0.3	386	388	13.0	81.8
2025-09-13T08:09	10	54	0.6	53	55	387	0.2	387	388	13.0	80.4
2025-09-13T08:10	10	56	1.3	53	58	387	0.2	387	388	13.0	81.8
2025-09-13T08:11	10	56	0.8	55	58	387	0.2	387	388	12.9	81.8
2025-09-13T08:12	10	54	0.7	53	56	388	0.2	387	388	13.0	81.8
2025-09-13T08:13	10	59	2.8	55	63	388	0.2	387	388	13.0	81.8
2025-09-13T08:14	10	67	1.8	63	69	389	0.5	388	390	13.0	81.8
2025-09-13T08:15	10	69	0.5	68	70	390	0.4	389	391	13.0	81.8
2025-09-13T08:16	10	73	1.7	70	75	391	0.5	390	392	13.2	82.0
2025-09-13T08:17	10	77	0.9	74	78	392	0.2	391	393	13.5	83.4
2025-09-13T08:18	10	82	3.2	76	86	392	0.3	391	393	13.4	82.0
2025-09-13T08:19	10	88	1.3	85	90	392	0.5	391	393	13.3	81.3
2025-09-13T08:20	10	83	0.9	82	85	393	0.3	392	394	13.4	82.3
2025-09-13T08:21	10	83	0.9	82	85	393	0.2	392	393	13.4	82.4
2025-09-13T08:22	10	86	1.4	83	88	393	0.3	393	394	13.3	82.0
2025-09-13T08:23	10	86	1.3	83	88	394	0.3	394	395	13.4	82.7
2025-09-13T08:24	10	84	0.4	83	84	394	0.3	394	395	13.5	81.8
2025-09-13T08:25	10	87	1.5	84	89	394	0.2	394	395	13.5	81.5
2025-09-13T08:26	10	88	1.2	86	90	395	0.3	394	395	13.5	80.3
2025-09-13T08:27	10	85	2.6	81	89	395	0.3	394	395	13.5	79.4
2025-09-13T08:28	10	79	0.8	78	81	394	0.5	394	395	13.5	79.7
2025-09-13T08:29	10	81	1.5	78	83	394	0.3	394	395	13.6	79.7
2025-09-13T08:30	10	82	1.4	81	85	395	0.4	394	395	13.7	80.5
2025-09-13T08:31	10	88	2.4	84	92	396	0.6	395	397	13.7	79.6
2025-09-13T08:32	10	94	0.9	92	95	397	0.2	396	397	13.8	80.1
2025-09-13T08:33	10	95	0.9	93	96	398	0.3	397	399	13.9	81.2
2025-09-13T08:34	10	97	1.4	94	99	398	0.3	398	399	13.9	80.3
2025-09-13T08:35	10	92	2.7	87	96	397	0.3	397	398	13.8	79.6
2025-09-13T08:36	10	95	0.6	94	97	398	0.4	398	399	13.8	81.0
2025-09-13T08:37	10	97	1.0	95	99	399	0.6	397	400	13.9	80.5
2025-09-13T08:38	10	92	2.3	88	95	399	0.4	398	400	13.9	79.3
2025-09-13T08:39	10	85	1.7	81	88	398	0.4	397	399	13.8	79.3
2025-09-13T08:40	10	82	1.5	80	85	397	0.3	397	398	13.8	79.1
2025-09-13T08:41	10	84	0.7	83	86	397	0.3	397	398	13.8	79.6
2025-09-13T08:42	10	87	3.5	82	93	398	0.3	397	398	13.9	79.5
2025-09-13T08:43	10	93	1.3	91	95	399	0.3	398	399	13.9	78.5
2025-09-13T08:44	10	89	2.3	86	93	399	0.2	398	399	14.1	77.9
2025-09-13T08:45	10	85	3.8	78	90	399	0.4	398	400	14.2	79.5
2025-09-13T08:46	10	82	2.3	78	86	398	0.3	397	399	14.1	76.6
2025-09-13T08:47	10	88	1.0	85	89	399	0.4	398	400	14.2	76.8
2025-09-13T08:48	10	89	2.0	85	93	399	0.2	398	400	14.3	76.1
2025-09-13T08:49	10	97	2.0	93	102	400	0.4	399	401	14.6	75.3
2025-09-13T08:50	10	108	2.5	102	112	401	0.6	400	403	14.7	76.4
2025-09-13T08:51	10	111	1.5	108	113	403	0.3	402	404	14.7	74.9
2025-09-13T08:52	10	118	3.6	109	123	404	0.6	403	405	14.7	75.3
2025-09-13T08:53	10	126	3.7	119	133	406	0.6	405	407	14.8	75.8
2025-09-13T08:54	10	102	6.9	91	118	405	1.1	404	408	15.0	74.1
2025-09-13T08:55	10	99	4.8	92	106	405	0.8	403	406	15.2	75.1
2025-09-13T08:56	10	85	4.8	79	92	403	0.6	402	404	15.0	73.6
2025-09-13T08:57	10	77	4.6	70	83	401	0.5	400	403	15.0	74.2
2025-09-13T08:58	10	73	2.4	70	77	401	0.5	400	401	14.9	76.0
2025-09-13T08:59	10	69	0.7	67	70	399	0.6	398	401	14.9	76.5
2025-09-13T09:00	10	69	2.9	65	74	398	0.3	398	399	14.7	75.3
2025-09-13T09:01	10	70	1.3	69	74	398	0.2	398	399	14.6	76.3
2025-09-13T09:02	10	67	1.5	64	70	398	0.4	397	399	14.5	76.3
2025-09-13T09:03	10	62	0.5	62	64	397	0.4	396	398	14.5	75.6
2025-09-13T09:04	10	69	4.9	63	78	397	0.6	396	399	14.6	76.2
2025-09-13T09:05	10	82	3.2	77	86	399	0.9	398	401	14.5	77.3
2025-09-13T09:06	10	83	2.2	80	87	401	0.2	400	401	14.4	77.1
2025-09-13T09:07	10	80	1.8	77	84	401	0.3	400	401	14.4	76.9
2025-09-13T09:08	10	89	1.4	84	91	402	0.4	401	402	14.5	78.3
2025-09-13T09:09	10	89	1.4	86	92	402	0.3	401	402	14.4	77.8
2025-09-13T09:10	10	89	2.4	86	93	401	0.2	401	402	14.4	77.6
2025-09-13T09:11	10	84	2.0	78	86	401	0.3	400	402	14.4	77.1
2025-09-13T09:12	10	74	2.0	71	78	400	0.3	399	401	14.6	76.7
2025-09-13T09:13	10	69	2.4	66	74	400	0.6	398	401	14.5	76.9
2025-09-13T09:14	10	75	2.0	69	77	399	0.3	398	400	14.3	77.2
2025-09-13T09:15	10	75	1.8	73	78	399	0.3	399	400	14.3	77.5
2025-09-13T09:16	10	82	3.5	77	88	400	0.7	399	402	14.3	77.3
2025-09-13T09:17	10	87	4.8	81	96	401	0.6	401	403	14.4	77.1
2025-09-13T09:18	10	100	2.7	96	104	404	0.8	402	405	14.5	77.3
2025-09-13T09:19	10	100	2.6	95	105	405	0.6	404	407	14.8	77.3
2025-09-13T09:20	10	105	6.0	94	113	407	0.5	406	408	14.7	76.1
2025-09-13T09:21	10	103	8.5	94	119	407	0.7	406	408	14.9	77.4
2025-09-13T09:22	10	115	3.2	110	120	408	0.2	408	409	14.8	75.7
2025-09-13T09:23	10	105	2.9	100	110	408	0.7	407	409	14.9	76.9
2025-09-13T09:24	10	103	1.0	101	105	407	0.5	406	408	14.6	77.0
2025-09-13T09:25	10	106	1.0	104	108	408	0.5	407	409	14.7	77.0
2025-09-13T09:26	10	107	1.0	105	108	408	0.2	407	408	14.8	76.3
2025-09-13T09:27	10	106	1.0	105	108	407	0.4	406	408	14.8	75.6
2025-09-13T09:28	10	109	1.1	106	111	407	0.3	407	408	14.6	75.4
2025-09-13T09:29	10	106	1.7	102	109	407	0.3	406	407	14.6	75.3
2025-09-13T09:30	10	105	1.5	103	108	407	0.3	407	408	14.6	75.6
2025-09-13T09:31	10	102	1.5	100	105	407	0.3	407	408	14.7	75.6
2025-09-13T09:32	10	101	0.6	100	102	408	0.2	408	408	14.8	75.9
2025-09-13T09:33	10	89	9.0	78	100	408	1.0	406	409	14.9	75.4
2025-09-13T09:34	10	80	1.8	79	86	405	0.5	405	407	14.8	75.3
2025-09-13T09:35	10	89	3.8	84	97	406	0.2	406	407	14.9	75.6
2025-09-13T09:36	10	92	3.2	86	96	406	0.3	405	407	15.0	73.9
2025-09-13T09:37	10	92	2.1	89	95	406	0.2	406	407	15.1	73.9
2025-09-13T09:38	10	89	1.1	88	92	406	0.3	406	407	15.3	73.7
2025-09-13T09:39	10	91	0.5	90	92	407	0.2	406	407	15.4	72.7
2025-09-13T09:40	10	95	4.0	89	101	407	0.4	406	408	15.7	71.2
2025-09-13T09:41	10	109	4.0	101	115	409	0.8	407	410	15.8	71.3
2025-09-13T09:42	10	109	3.6	104	115	410	0.4	409	410	15.8	70.9
2025-09-13T09:43	10	109	1.6	107	112	410	0.4	409	410	15.6	71.9
2025-09-13T09:44	10	113	3.3	108	120	411	0.3	411	412	15.6	72.6
2025-09-13T09:45	10	110	2.6	107	115	411	0.4	411	412	15.6	72.3
2025-09-13T09:46	10	111	2.4	107	114	412	0.3	411	412	15.7	71.9
2025-09-13T09:47	10	107	5.3	97	112	412	0.5	412	413	15.7	73.9
2025-09-13T09:48	10	107	6.2	99	122	412	0.5	411	413	15.9	74.1
2025-09-13T09:49	10	125	3.3	119	130	414	0.4	413	414	15.8	72.8
2025-09-13T09:50	10	124	2.1	122	128	414	0.3	414	415	15.6	72.0
2025-09-13T09:51	10	117	3.8	109	122	414	0.3	413	414	15.6	72.5
2025-09-13T09:52	10	120	3.1	110	124	414	0.2	413	415	15.6	72.4
2025-09-13T09:53	10	120	3.3	114	124	414	0.3	413	415	15.7	71.3
2025-09-13T09:54	10	111	4.1	102	117	413	0.6	412	414	15.8	71.0
2025-09-13T09:55	10	108	1.5	106	111	412	0.2	412	413	15.9	70.3
2025-09-13T09:56	10	115	3.4	109	120	413	0.3	413	414	16.3	69.2
2025-09-13T09:57	10	124	2.6	120	130	414	0.5	413	416	16.4	69.0
2025-09-13T09:58	10	128	2.2	123	130	417	0.4	416	417	16.3	70.1
2025-09-13T09:59	10	124	3.6	118	128	418	0.4	416	418	16.4	72.4
2025-09-13T10:00	10	128	5.7	118	137	418	0.3	417	418	16.4	72.1
2025-09-13T10:01	10	148	4.3	137	153	419	1.1	417	421	16.1	70.1
2025-09-13T10:02	10	145	10.5	127	157	421	0.6	420	422	16.3	71.3
2025-09-13T10:03	10	160	4.2	156	171	423	0.7	421	424	16.5	70.1
2025-09-13T10:04	10	153	10.2	139	171	423	1.6	420	425	16.3	69.4
2025-09-13T10:05	10	162	8.2	142	173	422	1.0	419	423	16.0	69.6
2025-09-13T10:06	10	141	4.9	132	150	422	0.5	422	423	16.0	70.3
2025-09-13T10:07	10	145	2.7	141	150	422	0.4	420	422	16.1	71.2
2025-09-13T10:08	10	144	1.8	141	148	421	0.3	420	421	16.0	69.2
2025-09-13T10:09	10	146	2.4	142	150	421	0.4	420	422	15.9	70.0
2025-09-13T10:10	10	138	4.7	130	144	420	0.9	418	421	15.9	71.3
2025-09-13T10:11	10	128	2.4	124	130	419	0.4	417	419	15.9	71.3
2025-09-13T10:12	10	128	4.1	118	132	418	0.9	416	419	16.0	71.5
2025-09-13T10:13	10	132	4.9	119	137	418	1.0	416	419	15.9	70.7
2025-09-13T10:14	10	128	3.5	121	137	419	0.2	419	420	15.9	71.0
2025-09-13T10:15	10	128	2.4	122	132	419	0.4	418	420	16.0	68.8
2025-09-13T10:16	10	125	4.1	118	132	419	0.2	418	419	16.0	68.6
2025-09-13T10:17	10	124	6.0	114	132	419	0.5	418	420	16.1	69.9
2025-09-13T10:18	10	125	2.9	120	129	419	0.5	418	419	16.1	70.8
2025-09-13T10:19	10	123	1.3	120	126	418	0.8	416	419	16.2	70.5
2025-09-13T10:20	10	114	2.3	110	120	416	0.6	415	417	16.1	69.5
2025-09-13T10:21	10	111	1.1	108	113	416	0.3	415	416	16.1	69.2
2025-09-13T10:22	10	104	3.5	96	108	416	0.2	415	417	16.2	68.4
2025-09-13T10:23	10	98	2.9	95	104	414	0.4	414	415	16.2	69.1
2025-09-13T10:24	10	115	5.3	104	121	416	1.2	414	418	16.2	70.3
2025-09-13T10:25	10	124	1.9	121	128	419	1.0	417	421	16.4	69.8
2025-09-13T10:26	10	120	4.8	111	128	421	0.4	420	421	16.7	72.5
2025-09-13T10:27	10	122	1.8	118	125	420	0.6	418	421	16.7	72.3
2025-09-13T10:28	10	114	3.0	109	118	418	0.5	417	419	16.1	71.4
2025-09-13T10:29	10	109	1.2	108	113	417	0.5	416	418	16.1	71.5
2025-09-13T10:30	10	107	1.3	105	110	417	0.5	417	418	16.2	72.2
2025-09-13T10:31	10	103	1.4	100	105	416	0.6	415	418	16.3	71.7
2025-09-13T10:32	10	99	0.8	97	101	416	0.4	415	416	16.4	71.3
2025-09-13T10:33	10	95	3.4	91	101	415	0.4	414	416	16.3	70.3
2025-09-13T10:34	10	86	2.6	82	91	413	0.9	412	414	16.3	70.9
2025-09-13T10:35	10	81	0.7	80	82	412	0.3	411	413	16.3	69.8
2025-09-13T10:36	10	80	0.3	80	81	412	0.2	412	413	16.4	70.5
2025-09-13T10:37	10	82	0.8	81	83	412	0.4	411	413	16.5	71.4
2025-09-13T10:38	10	84	0.4	83	84	411	0.3	410	412	16.4	69.8
2025-09-13T10:39	10	85	0.4	84	85	412	0.4	411	412	16.4	70.2
2025-09-13T10:40	10	87	1.1	85	88	412	0.3	412	413	16.4	69.9
2025-09-13T10:41	10	89	1.4	87	91	413	0.5	412	414	16.5	69.0
2025-09-13T10:42	10	91	0.3	90	91	414	0.2	414	415	16.7	69.4
2025-09-13T10:43	10	93	0.5	91	93	414	0.4	413	415	16.7	68.9
2025-09-13T10:44	10	93	0.6	91	94	415	0.4	414	415	16.8	69.1
2025-09-13T10:45	10	91	1.4	87	93	415	0.2	415	416	16.9	70.2
2025-09-13T10:46	10	86	0.9	85	88	415	0.3	414	415	17.0	71.1
2025-09-13T10:47	10	88	0.4	87	89	415	0.4	414	416	16.7	68.3
2025-09-13T10:48	10	87	1.0	86	88	414	0.4	413	415	16.5	68.8
2025-09-13T10:49	10	85	1.5	83	87	413	0.3	413	414	16.5	68.1
2025-09-13T10:50	10	83	0.3	83	84	413	0.2	413	414	16.5	67.9
2025-09-13T10:51	10	87	1.3	84	89	414	0.3	413	414	16.7	70.2
2025-09-13T10:52	10	88	1.7	85	90	414	0.3	413	415	16.6	68.5
2025-09-13T10:53	10	89	2.3	84	91	414	0.5	413	415	16.6	67.9
2025-09-13T10:54	10	93	1.9	90	95	415	0.3	414	415	16.6	68.4
2025-09-13T10:55	10	93	0.7	91	94	413	0.5	413	414	16.5	68.4
2025-09-13T10:56	10	93	0.9	92	95	413	0.2	413	414	16.5	68.2
2025-09-13T10:57	10	93	1.0	91	95	413	0.2	413	414	16.6	68.5
2025-09-13T10:58	10	92	0.6	91	93	414	0.3	413	415	16.7	68.6
2025-09-13T10:59	10	101	3.3	94	105	415	0.2	414	415	16.8	68.6
2025-09-13T11:00	10	108	2.1	105	112	416	0.7	415	418	16.7	67.3
2025-09-13T11:01	10	113	1.9	110	115	417	0.5	416	418	16.7	67.0
2025-09-13T11:02	10	118	1.2	114	119	420	0.9	418	421	16.9	66.6
2025-09-13T11:03	10	116	0.6	115	118	421	0.3	420	421	16.9	66.9
2025-09-13T11:04	10	121	5.6	113	129	422	0.5	421	423	17.0	67.2
2025-09-13T11:05	10	123	3.1	117	128	421	0.5	420	422	17.1	67.3
2025-09-13T11:06	10	132	3.8	127	139	422	0.3	422	423	17.0	66.5
2025-09-13T11:07	10	137	1.2	135	139	423	0.7	421	424	16.9	66.2
2025-09-13T11:08	10	146	7.2	136	155	425	1.1	424	427	17.0	65.6
2025-09-13T11:09	10	146	2.5	143	153	427	0.5	426	428	17.0	65.8
2025-09-13T11:10	10	144	1.9	139	147	427	0.3	426	428	17.0	66.0
2025-09-13T11:11	10	136	1.1	133	138	427	0.3	426	428	17.0	67.2
2025-09-13T11:12	10	128	5.9	119	136	426	1.0	424	427	17.2	67.0
2025-09-13T11:13	10	128	2.9	122	133	425	0.4	424	426	17.2	66.3
2025-09-13T11:14	10	130	4.4	125	141	425	0.4	425	426	17.3	66.2
2025-09-13T11:15	10	121	10.3	109	140	425	1.0	424	427	17.2	67.7
2025-09-13T11:16	10	123	1.6	118	125	425	0.5	424	426	17.3	67.6
2025-09-13T11:17	10	114	3.7	109	122	426	0.6	425	427	17.4	67.9
2025-09-13T11:18	10	107	3.8	103	116	424	1.2	422	426	17.4	66.6
2025-09-13T11:19	10	105	1.4	103	107	421	0.5	421	422	17.5	65.3
2025-09-13T11:20	10	107	1.1	105	110	422	0.2	421	422	17.7	65.0
2025-09-13T11:21	10	116	2.8	111	120	423	0.7	422	424	17.8	64.7
2025-09-13T11:22	10	122	1.1	119	124	425	0.4	423	425	17.9	65.4
2025-09-13T11:23	10	116	1.2	113	119	425	0.3	425	426	17.8	64.8
2025-09-13T11:24	10	117	2.8	113	121	424	1.1	422	425	17.7	64.9
2025-09-13T11:25	10	117	2.0	114	121	423	0.6	422	424	17.5	63.7
2025-09-13T11:26	10	117	2.7	114	122	423	0.9	421	424	17.6	62.8
2025-09-13T11:27	10	115	0.9	114	117	422	0.4	421	423	17.4	61.6
2025-09-13T11:28	10	118	1.6	116	121	422	0.3	421	422	17.4	60.7
2025-09-13T11:29	10	115	1.7	112	118	422	0.4	422	423	17.5	62.0
2025-09-13T11:30	10	117	2.5	111	120	422	0.3	422	423	17.6	61.9
2025-09-13T11:31	10	113	2.1	110	117	423	0.2	422	423	17.7	61.0
2025-09-13T11:32	10	116	1.1	115	118	423	0.2	423	424	17.8	60.6
2025-09-13T11:33	10	114	1.2	111	116	425	0.4	424	425	18.0	60.9
2025-09-13T11:34	10	113	1.1	111	115	425	0.2	424	425	18.0	61.0
2025-09-13T11:35	10	109	3.3	105	115	424	0.4	424	425	18.0	61.6
2025-09-13T11:36	10	101	2.7	97	105	424	0.6	422	424	17.9	62.0
2025-09-13T11:37	10	97	0.9	96	99	422	0.4	421	423	17.8	61.8
2025-09-13T11:38	10	96	1.8	94	99	421	0.3	420	422	17.8	62.7
2025-09-13T11:39	10	91	1.8	88	94	421	0.3	421	422	17.8	62.7
2025-09-13T11:40	10	87	0.9	86	89	420	0.5	419	421	18.0	58.8
2025-09-13T11:41	10	88	0.5	87	89	418	0.4	418	419	18.0	60.8
2025-09-13T11:42	10	87	2.1	85	91	419	0.3	418	419	18.0	60.4
2025-09-13T11:43	10	87	2.6	82	91	419	0.3	418	419	18.3	58.2
2025-09-13T11:44	10	83	1.3	82	86	418	0.9	417	420	18.4	59.4
2025-09-13T11:45	10	89	1.3	86	91	417	0.3	416	418	18.3	61.0
2025-09-13T11:46	10	93	1.4	91	96	418	0.4	417	419	18.3	60.2
2025-09-13T11:47	10	99	1.1	96	101	421	1.0	418	422	18.3	57.3
2025-09-13T11:48	10	100	0.5	98	100	421	0.6	419	421	18.4	54.4
2025-09-13T11:49	10	102	1.1	100	104	420	0.4	419	421	18.4	55.3
2025-09-13T11:50	10	106	3.1	102	113	421	0.4	420	422	18.6	56.2
2025-09-13T11:51	10	119	2.1	113	121	423	1.2	421	425	18.7	55.7
2025-09-13T11:52	10	117	1.2	115	120	424	0.2	424	425	18.8	54.9
2025-09-13T11:53	10	110	4.5	104	116	424	1.3	421	426	18.8	56.6
2025-09-13T11:54	10	105	3.1	100	109	420	1.1	419	422	18.7	53.8
2025-09-13T11:55	10	104	2.5	100	109	420	0.9	419	422	18.6	52.9
2025-09-13T11:56	10	108	4.2	99	113	423	0.7	422	424	18.7	54.7
2025-09-13T11:57	10	96	1.9	94	99	422	1.6	420	425	18.8	53.4
2025-09-13T11:58	10	93	0.6	92	94	419	0.6	418	421	18.8	53.8
2025-09-13T11:59	10	96	2.3	92	99	420	0.4	419	420	18.9	53.8
2025-09-13T12:00	10	96	1.7	93	98	419	0.4	419	420	18.9	53.3
2025-09-13T12:01	10	101	2.1	98	106	421	1.4	418	423	18.8	53.5
2025-09-13T12:02	10	105	1.6	103	108	423	0.8	422	425	19.0	54.1
2025-09-13T12:03	10	106	0.8	105	108	422	0.3	421	423	18.9	53.6
2025-09-13T12:04	10	111	2.1	107	115	421	1.1	420	424	18.8	52.9
2025-09-13T12:05	10	113	2.4	109	116	422	0.8	421	424	19.0	53.6
2025-09-13T12:06	10	110	1.9	106	112	422	0.8	421	423	19.0	53.4
2025-09-13T12:07	10	109	2.5	105	113	423	0.8	421	424	19.1	53.9
2025-09-13T12:08	10	103	1.5	98	105	420	1.7	417	422	19.0	51.7
2025-09-13T12:09	10	94	1.8	92	98	418	1.0	416	420	19.1	53.1
2025-09-13T12:10	10	91	1.2	89	93	418	0.5	417	419	19.1	52.8
2025-09-13T12:11	10	92	1.9	90	96	418	0.6	416	419	19.0	52.7
2025-09-13T12:12	10	96	0.5	95	96	417	0.4	417	418	18.8	51.8
2025-09-13T12:13	10	96	0.5	95	97	419	1.2	417	421	18.9	53.7
2025-09-13T12:14	10	93	1.1	92	96	420	0.4	419	421	19.0	53.4
2025-09-13T12:15	10	91	2.0	88	94	419	0.3	418	420	19.0	52.3
2025-09-13T12:16	10	88	0.4	88	89	419	0.6	418	421	19.0	52.9
2025-09-13T12:17	10	89	0.6	88	90	420	0.5	419	421	19.1	54.8
2025-09-13T12:18	10	90	0.4	89	91	417	1.0	415	419	19.1	51.7
2025-09-13T12:19	10	88	0.6	87	89	417	0.6	415	418	19.0	50.5
2025-09-13T12:20	10	85	1.3	84	88	417	0.4	416	418	19.0	51.2
2025-09-13T12:21	10	82	1.2	80	84	416	0.3	416	417	19.1	52.0
2025-09-13T12:22	10	78	0.7	77	80	416	0.3	416	417	19.1	51.9
2025-09-13T12:23	10	76	0.5	76	77	415	0.5	414	417	19.1	50.4
2025-09-13T12:24	10	75	0.6	74	76	414	0.4	414	415	19.1	50.5
2025-09-13T12:25	10	73	0.4	72	74	416	0.4	415	417	19.2	51.5
2025-09-13T12:26	10	72	0.5	71	72	416	0.8	414	417	19.2	50.8
2025-09-13T12:27	10	70	0.6	69	71	415	0.4	414	415	19.2	51.9
2025-09-13T12:28	10	68	0.3	68	69	414	0.4	413	415	19.2	51.5
2025-09-13T12:29	10	67	0.4	66	68	415	0.5	414	416	19.1	54.5
2025-09-13T12:30	10	65	0.6	64	66	415	0.3	415	416	19.1	54.3
2025-09-13T12:31	10	63	0.6	62	65	416	0.3	415	417	19.1	55.0
2025-09-13T12:32	10	62	0.5	61	63	414	1.1	412	416	19.1	50.2
2025-09-13T12:33	10	61	0.1	61	61	413	0.3	412	413	19.0	49.7
2025-09-13T12:34	10	61	0.1	61	61	413	0.2	413	414	19.1	52.1
2025-09-13T12:35	10	61	0.1	61	62	413	0.3	413	414	19.2	51.9
2025-09-13T12:36	10	61	0.1	61	62	414	0.5	413	415	19.2	52.6
2025-09-13T12:37	10	62	0.2	62	62	414	0.3	414	415	19.2	53.3
2025-09-13T12:38	10	63	0.3	62	63	414	0.5	413	414	19.0	54.6
2025-09-13T12:39	10	64	0.4	63	65	413	0.6	412	414	18.8	55.5
2025-09-13T12:40	10	65	0.2	65	65	412	0.3	411	412	18.5	57.0
2025-09-13T12:41	10	65	0.1	65	66	411	0.4	410	412	18.4	57.7
2025-09-13T12:42	10	66	0.2	66	67	411	0.3	410	411	18.4	59.1
2025-09-13T12:43	10	67	0.2	67	68	411	0.4	410	411	18.2	59.8
2025-09-13T12:44	10	68	0.3	68	69	410	0.3	409	411	18.0	60.0
2025-09-13T12:45	10	68	0.1	68	68	410	0.3	410	411	18.1	59.4
2025-09-13T12:46	10	69	0.2	68	69	411	0.7	409	412	18.1	59.5
2025-09-13T12:47	10	67	0.6	66	68	413	0.6	411	414	18.3	60.0
2025-09-13T12:48	10	66	0.1	66	67	412	0.6	411	413	18.2	60.0
2025-09-13T12:49	10	67	0.2	66	67	410	0.4	409	411	18.0	60.1
2025-09-13T12:50	10	67	0.2	66	67	411	0.4	410	412	18.0	60.8
2025-09-13T12:51	10	66	0.1	66	67	411	0.4	410	412	18.1	61.3
2025-09-13T12:52	10	66	0.1	66	66	411	0.2	411	411	18.1	60.9
2025-09-13T12:53	10	65	0.5	64	66	411	0.3	410	412	18.0	61.5
2025-09-13T12:54	10	63	0.3	63	64	412	0.4	411	413	17.9	61.0
2025-09-13T12:55	10	62	0.3	61	63	413	0.5	412	414	18.0	62.0
2025-09-13T12:56	10	60	0.7	59	61	411	0.3	411	412	17.9	62.8
2025-09-13T12:57	10	57	0.9	56	59	410	0.3	409	411	17.9	63.3
2025-09-13T12:58	10	54	1.0	52	56	410	0.3	409	411	17.9	62.7
2025-09-13T12:59	10	50	1.1	48	52	410	0.3	410	411	18.0	62.9
2025-09-13T13:00	10	47	1.0	45	48	410	0.3	409	410	18.0	62.5
2025-09-13T13:01	10	43	0.8	42	45	410	0.3	409	410	18.1	62.4
2025-09-13T13:02	10	40	0.7	39	42	409	0.4	408	409	18.3	60.6
2025-09-13T13:03	10	39	0.4	38	39	407	0.4	407	408	18.4	60.1
2025-09-13T13:04	10	38	0.1	38	38	407	0.4	406	408	18.3	60.6
2025-09-13T13:05	10	39	0.5	38	40	407	0.3	406	408	18.2	60.7
2025-09-13T13:06	10	41	1.0	40	43	408	0.4	407	409	18.3	60.0
2025-09-13T13:07	10	46	1.5	43	48	409	0.3	408	410	18.3	59.7
2025-09-13T13:08	10	51	1.4	48	53	410	0.6	409	411	18.3	60.4
2025-09-13T13:09	10	55	1.1	53	57	412	1.0	410	414	18.4	60.9
2025-09-13T13:10	10	57	0.4	56	58	415	0.7	413	416	18.5	59.0
2025-09-13T13:11	10	58	0.2	58	58	415	0.2	415	416	18.6	57.5
2025-09-13T13:12	10	59	0.2	58	59	415	0.4	414	416	18.7	55.8
2025-09-13T13:13	10	59	0.1	59	59	414	0.2	414	415	18.8	55.3
2025-09-13T13:14	10	59	0.1	59	60	414	0.3	413	415	18.8	55.3
2025-09-13T13:15	10	60	0.1	59	60	413	0.4	412	414	18.8	54.6
2025-09-13T13:16	10	59	0.2	59	60	414	0.4	413	414	18.9	55.1
2025-09-13T13:17	10	58	0.3	58	59	414	0.3	413	415	18.9	54.0
2025-09-13T13:18	10	57	0.1	57	58	412	0.8	411	414	18.8	53.5
2025-09-13T13:19	10	58	0.1	57	58	411	0.4	410	411	18.8	52.6
2025-09-13T13:20	10	58	0.3	58	59	410	0.3	410	411	18.7	53.1
2025-09-13T13:21	10	60	0.4	59	60	411	0.6	410	412	18.8	53.4
2025-09-13T13:22	10	61	0.2	60	61	411	0.4	410	411	18.8	53.1
2025-09-13T13:23	10	61	0.2	61	61	411	0.6	410	412	18.8	53.4
2025-09-13T13:24	10	61	0.1	61	62	410	0.3	409	411	18.7	52.9
2025-09-13T13:25	10	62	0.2	61	62	411	0.2	410	411	18.8	53.3
2025-09-13T13:26	10	62	0.4	61	62	410	0.6	409	411	18.8	52.5
2025-09-13T13:27	10	61	0.1	61	61	410	0.2	409	410	18.7	53.0
2025-09-13T13:28	10	61	0.1	61	61	410	0.3	409	411	18.8	54.1
2025-09-13T13:29	10	61	0.1	61	61	411	0.5	410	412	18.8	53.9
2025-09-13T13:30	10	61	0.1	60	61	412	0.6	411	413	18.8	54.1
2025-09-13T13:31	10	60	0.1	60	61	412	0.4	411	413	18.9	53.9
2025-09-13T13:32	10	60	0.1	60	60	412	0.3	411	412	18.8	52.6
2025-09-13T13:33	10	60	0.2	59	60	412	0.5	411	413	18.8	53.3
2025-09-13T13:34	10	59	0.2	59	59	412	0.3	411	413	18.9	54.0
2025-09-13T13:35	10	59	0.1	58	59	411	0.3	411	412	18.9	54.3
2025-09-13T13:36	10	58	0.1	58	58	410	0.6	409	411	18.9	51.7
2025-09-13T13:37	10	58	0.1	58	58	410	0.4	409	410	18.9	50.2
2025-09-13T13:38	10	57	0.2	57	58	410	0.2	410	411	18.9	51.2
2025-09-13T13:39	10	56	0.4	56	57	410	0.4	409	411	18.9	51.0
2025-09-13T13:40	10	55	0.4	54	56	410	0.2	409	411	18.9	51.5
2025-09-13T13:41	10	53	0.6	53	54	410	0.3	409	411	18.9	52.2
2025-09-13T13:42	10	52	0.5	51	52	410	0.4	409	411	18.9	52.2
2025-09-13T13:43	10	50	0.4	50	51	408	0.5	408	410	18.8	50.8
2025-09-13T13:44	10	49	0.2	49	50	409	0.3	408	409	18.8	51.8
2025-09-13T13:45	10	49	0.1	49	49	409	0.3	408	409	18.8	51.7
2025-09-13T13:46	10	49	0.1	49	49	409	0.3	408	410	18.8	50.8
2025-09-13T13:47	10	50	0.3	49	50	408	0.3	408	409	18.8	50.8
2025-09-13T13:48	10	51	0.7	50	52	408	0.3	408	409	18.8	50.9
2025-09-13T13:49	10	54	0.9	52	56	409	0.6	408	411	18.8	51.9
2025-09-13T13:50	10	58	1.1	56	59	411	0.4	410	412	18.9	52.5
2025-09-13T13:51	10	61	0.8	59	62	412	0.5	411	412	18.9	52.1
2025-09-13T13:52	10	62	0.2	62	63	412	0.4	411	413	18.9	51.5
2025-09-13T13:53	10	62	0.1	62	63	412	0.2	411	412	18.9	51.3
2025-09-13T13:54	10	61	0.9	60	63	413	0.5	412	414	18.9	52.6
2025-09-13T13:55	10	58	1.3	55	59	413	0.3	413	414	19.0	52.5
2025-09-13T13:56	10	53	1.2	51	55	413	0.4	412	414	19.0	54.0
2025-09-13T13:57	10	49	1.1	47	51	413	0.3	412	413	19.0	53.2
2025-09-13T13:58	10	45	1.1	43	47	412	0.4	411	413	19.0	54.3
2025-09-13T13:59	10	42	0.7	41	43	411	0.5	410	412	19.0	52.5
2025-09-13T14:00	10	40	0.3	40	41	410	0.3	409	411	19.0	51.7
2025-09-13T14:01	10	40	0.1	40	40	410	0.3	409	411	18.9	52.9
2025-09-13T14:02	10	40	0.2	40	41	410	0.2	409	410	19.0	52.0
2025-09-13T14:03	10	41	0.2	41	42	410	0.3	409	411	18.9	51.7
2025-09-13T14:04	10	42	0.2	41	42	411	0.2	410	411	18.9	52.1
2025-09-13T14:05	10	42	0.1	42	42	410	0.3	410	411	18.9	52.5
2025-09-13T14:06	10	42	0.1	42	43	409	0.3	409	410	18.9	52.7
2025-09-13T14:07	10	43	0.1	42	43	409	0.2	409	410	18.9	52.7
2025-09-13T14:08	10	43	0.1	42	43	409	0.3	409	410	18.9	51.5
2025-09-13T14:09	10	42	0.3	42	43	410	0.3	409	411	18.9	53.2
2025-09-13T14:10	10	41	0.5	40	42	410	0.3	409	410	18.9	52.5
2025-09-13T14:11	10	39	0.7	38	40	410	0.2	409	410	19.0	53.5
2025-09-13T14:12	10	37	0.7	36	38	410	0.2	410	410	19.0	52.5
2025-09-13T14:13	10	35	0.4	34	35	410	0.2	409	410	19.0	53.0
2025-09-13T14:14	10	34	0.2	33	34	409	0.6	408	410	18.9	51.9
2025-09-13T14:15	10	33	0.1	33	34	408	0.4	408	409	18.9	53.0
2025-09-13T14:16	10	33	0.3	32	33	408	0.2	407	408	18.9	52.9
2025-09-13T14:17	10	32	0.4	31	32	408	0.2	408	409	18.9	52.0
2025-09-13T14:18	10	30	0.5	29	31	409	0.3	408	409	18.9	53.2
2025-09-13T14:19	10	28	0.6	27	29	408	0.2	408	409	18.9	53.1
2025-09-13T14:20	10	26	0.4	25	27	409	0.2	408	409	18.9	52.9
2025-09-13T14:21	10	25	0.3	24	25	409	0.2	408	409	18.9	53.1
2025-09-13T14:22	10	24	0.2	24	24	408	0.4	407	409	18.9	53.4
2025-09-13T14:23	10	23	0.1	23	24	408	0.2	407	408	18.9	54.2
2025-09-13T14:24	10	23	0.1	23	23	408	0.2	407	408	18.9	54.3
2025-09-13T14:25	10	24	0.1	23	24	407	0.3	407	408	18.8	56.4
2025-09-13T14:26	10	24	0.2	24	25	408	0.3	407	408	18.8	55.1
2025-09-13T14:27	10	25	0.2	25	26	408	0.3	408	409	18.9	54.6
2025-09-13T14:28	10	26	0.2	25	26	409	0.3	408	409	18.9	56.5
2025-09-13T14:29	10	27	0.1	26	27	409	0.2	408	409	18.9	56.2
2025-09-13T14:30	10	27	0.1	26	27	409	0.2	408	409	18.9	55.4
2025-09-13T14:31	10	26	0.2	26	26	408	0.2	408	409	18.9	55.3
2025-09-13T14:32	10	25	0.3	25	26	408	0.3	407	408	18.8	56.4
2025-09-13T14:33	10	24	0.3	24	25	407	0.4	406	408	18.6	56.9
2025-09-13T14:34	10	23	0.3	22	24	406	0.4	406	407	18.5	56.5
2025-09-13T14:35	10	22	0.1	22	23	405	0.2	405	406	18.5	57.5
2025-09-13T14:36	10	22	0.1	22	23	405	0.4	404	405	18.5	56.8
2025-09-13T14:37	10	23	0.1	23	23	404	0.3	403	404	18.4	57.1
2025-09-13T14:38	10	23	0.1	23	23	404	0.3	403	404	18.4	57.5
2025-09-13T14:39	10	23	0.1	23	23	404	0.3	403	404	18.4	57.4
2025-09-13T14:40	10	22	0.2	22	23	403	0.2	403	404	18.3	56.9
2025-09-13T14:41	10	22	0.1	22	22	403	0.2	403	404	18.3	57.8
2025-09-13T14:42	10	21	0.2	21	22	403	0.2	402	403	18.3	57.1
2025-09-13T14:43	10	21	0.2	21	21	402	0.2	402	403	18.3	57.1
2025-09-13T14:44	10	21	0.1	20	21	402	0.3	402	403	18.3	58.3
2025-09-13T14:45	10	20	0.1	20	21	402	0.2	402	403	18.3	58.1
2025-09-13T14:46	10	21	0.1	20	21	402	0.2	402	403	18.3	59.3
2025-09-13T14:47	10	21	0.2	21	21	402	0.3	402	403	18.3	58.8
2025-09-13T14:48	10	21	0.2	21	22	402	0.2	402	403	18.3	58.4
2025-09-13T14:49	10	22	0.3	22	23	402	0.2	402	403	18.3	59.3
2025-09-13T14:50	10	24	0.5	23	24	403	0.5	402	404	18.3	58.6
2025-09-13T14:51	10	25	0.5	24	26	403	0.3	403	404	18.3	58.1
2025-09-13T14:52	10	27	0.6	26	28	404	0.4	403	405	18.3	58.5
2025-09-13T14:53	10	29	0.5	28	30	404	0.2	404	405	18.3	58.2
2025-09-13T14:54	10	30	0.3	30	31	405	0.2	404	405	18.2	59.1
2025-09-13T14:55	10	31	0.1	30	31	405	0.2	404	405	18.2	58.3
2025-09-13T14:56	10	30	0.3	29	30	404	0.3	404	405	18.2	58.5
2025-09-13T14:57	10	29	0.3	28	29	405	0.3	404	406	18.2	58.9
2025-09-13T14:58	10	27	0.4	27	28	405	0.3	405	406	18.2	59.3
2025-09-13T14:59	10	26	0.4	25	27	404	0.3	404	405	18.1	59.1
2025-09-13T15:00	10	25	0.4	24	25	404	0.2	404	404	18.1	59.0
2025-09-13T15:01	10	23	0.3	23	24	403	0.2	403	404	18.1	59.2
2025-09-13T15:02	10	22	0.3	22	23	403	0.3	402	404	18.2	59.3
2025-09-13T15:03	10	21	0.4	20	22	403	0.2	403	404	18.2	59.6
2025-09-13T15:04	10	20	0.5	19	20	403	0.3	402	403	18.2	60.3
2025-09-13T15:05	10	18	0.5	17	19	402	0.3	402	403	18.1	59.2
2025-09-13T15:06	10	17	0.4	16	17	402	0.3	401	402	18.2	59.8
2025-09-13T15:07	10	16	0.3	15	16	402	0.3	401	402	18.2	61.2
2025-09-13T15:08	10	15	0.2	15	15	401	0.3	401	402	18.2	60.3
2025-09-13T15:09	10	15	0.1	14	15	401	0.2	400	401	18.2	59.7
2025-09-13T15:10	10	14	0.2	14	14	400	0.2	400	401	18.2	59.5
2025-09-13T15:11	10	13	0.2	13	14	400	0.2	399	400	18.2	59.6
2025-09-13T15:12	10	13	0.2	12	13	400	0.2	399	400	18.2	60.4
2025-09-13T15:13	10	12	0.2	12	12	400	0.2	399	400	18.2	60.7
2025-09-13T15:14	10	12	0.2	11	12	399	0.3	399	400	18.2	60.1
2025-09-13T15:15	10	11	0.2	10	11	398	0.6	397	399	18.3	58.9
2025-09-13T15:16	10	10	0.2	10	11	398	0.2	397	398	18.2	60.7
2025-09-13T15:17	10	9	0.3	9	10	397	0.4	396	398	18.1	60.4
2025-09-13T15:18	10	8	0.3	8	9	396	0.4	396	397	18.1	59.4
2025-09-13T15:19	10	7	0.3	7	8	395	0.3	395	396	18.1	58.3
2025-09-13T15:20	10	6	0.3	6	7	395	0.3	394	395	18.0	58.5
2025-09-13T15:21	10	6	0.2	6	6	394	0.4	393	395	17.8	59.5
2025-09-13T15:22	10	5	0.1	5	6	392	0.5	391	393	17.6	60.0
2025-09-13T15:23	10	5	0.1	5	5	392	0.2	391	392	17.5	61.1
2025-09-13T15:24	10	5	0.1	5	5	391	0.2	391	392	17.3	62.2
2025-09-13T15:25	10	5	0.1	5	5	391	0.2	390	391	17.1	63.5
2025-09-13T15:26	10	5	0.1	4	5	390	0.2	389	390	17.1	63.6
2025-09-13T15:27	10	4	0.1	4	5	389	0.2	389	390	16.8	65.8
2025-09-13T15:28	10	4	0.1	4	5	389	0.3	388	389	16.8	65.8
2025-09-13T15:29	10	4	0.1	4	5	388	0.2	388	389	16.5	68.4
2025-09-13T15:30	10	4	0.2	3	4	387	0.2	387	388	16.3	69.9
2025-09-13T15:31	10	3	0.2	3	4	387	0.3	386	388	16.0	71.4
2025-09-13T15:32	10	3	0.2	3	3	387	0.3	386	387	15.9	72.2
2025-09-13T15:33	10	3	0.1	3	3	386	0.2	385	386	15.9	72.4
2025-09-13T15:34	10	3	0.2	2	3	385	0.3	384	386	15.8	73.3
2025-09-13T15:35	10	2	0.1	2	3	385	0.4	384	386	15.7	73.7
2025-09-13T15:36	10	2	0.2	2	3	384	0.3	384	385	15.6	74.7
2025-09-13T15:37	10	2	0.2	2	3	384	0.3	383	385	15.4	75.9
2025-09-13T15:38	10	2	0.1	2	3	383	0.3	383	384	15.2	76.8
2025-09-13T15:39	10	2	0.1	2	3	383	0.3	383	384	15.0	78.7
2025-09-13T15:40	10	3	0.1	2	3	383	0.2	382	383	14.9	79.5
2025-09-13T15:41	10	3	0.1	3	3	382	0.3	381	383	14.6	81.2
2025-09-13T15:42	10	3	0.1	2	3	382	0.3	381	382	14.4	82.2
2025-09-13T15:43	10	2	0.1	2	3	381	0.2	381	382	14.4	82.3
2025-09-13T15:44	10	2	0.1	2	2	381	0.3	380	382	14.4	82.8
2025-09-13T15:45	10	2	0.1	1	2	381	0.4	380	382	14.3	83.1
2025-09-13T15:46	10	1	0.1	1	2	381	0.4	380	382	14.1	84.6
2025-09-13T15:47	10	1	0.1	1	1	381	0.4	380	381	14.1	84.6
2025-09-13T15:48	10	1	0.1	1	1	381	0.3	380	381	14.3	83.5
2025-09-13T15:49	10	1	0.1	1	2	381	0.2	380	381	14.3	83.7
2025-09-13T15:50	10	1	0.1	1	2	381	0.4	380	382	14.3	83.5
2025-09-13T15:51	10	2	0.2	1	2	381	0.3	380	381	14.3	83.6
2025-09-13T15:52	10	2	0.1	2	2	380	0.3	380	381	14.3	83.7
2025-09-13T15:53	10	2	0.1	2	3	381	0.2	380	381	14.2	85.5
2025-09-13T15:54	10	3	0.2	3	3	380	0.3	380	381	14.1	86.2
2025-09-13T15:55	10	3	0.1	3	4	380	0.2	380	381	14.2	84.9
2025-09-13T15:56	10	4	0.1	3	4	380	0.4	379	381	14.1	85.3
2025-09-13T15:57	10	4	0.1	4	4	380	0.3	380	381	14.1	86.0
2025-09-13T15:58	10	4	0.1	4	5	381	0.2	380	381	14.0	86.9
2025-09-13T15:59	10	5	0.2	5	5	381	0.3	380	382	14.0	87.9
2025-09-13T16:00	10	6	0.2	5	6	381	0.2	380	382	14.0	86.9
2025-09-13T16:01	10	6	0.2	6	6	381	0.3	381	382	14.1	85.9
2025-09-13T16:02	10	6	0.1	6	7	381	0.3	381	382	14.1	86.2
2025-09-13T16:03	10	6	0.1	6	7	381	0.3	381	382	14.1	86.4
2025-09-13T16:04	10	6	0.1	6	6	381	0.3	381	382	14.1	86.7
2025-09-13T16:05	10	6	0.1	5	6	381	0.2	381	382	14.1	86.3
2025-09-13T16:06	10	5	0.1	5	5	381	0.3	381	382	14.1	86.4
2025-09-13T16:07	10	5	0.1	5	5	381	0.2	380	381	14.1	86.7
2025-09-13T16:08	10	5	0.1	5	5	381	0.2	381	382	14.1	86.8
2025-09-13T16:09	10	5	0.1	5	5	381	0.2	381	382	14.1	86.2
2025-09-13T16:10	10	5	0.1	5	5	381	0.5	380	382	14.1	86.6
2025-09-13T16:11	10	5	0.1	5	6	381	0.2	381	382	14.1	85.8
2025-09-13T16:12	10	5	0.1	5	6	381	0.3	381	382	14.1	85.5
2025-09-13T16:13	10	5	0.1	5	5	381	0.3	381	382	14.1	85.9
2025-09-13T16:14	10	5	0.1	5	5	381	0.3	380	382	14.1	86.4
2025-09-13T16:15	10	5	0.2	4	5	381	0.3	381	382	14.2	85.4
2025-09-13T16:16	10	4	0.2	4	5	381	0.2	381	382	14.2	85.8
2025-09-13T16:17	10	4	0.1	4	4	381	0.2	381	382	14.1	85.9
2025-09-13T16:18	10	4	0.1	4	4	381	0.2	381	382	14.2	84.9
2025-09-13T16:19	10	4	0.1	3	4	381	0.2	381	382	14.2	85.3
2025-09-13T16:20	10	4	0.1	4	4	381	0.2	381	382	14.2	84.4
2025-09-13T16:21	10	4	0.1	3	4	381	0.3	380	381	14.2	84.8
2025-09-13T16:22	10	3	0.1	3	4	381	0.2	380	381	14.1	85.4
2025-09-13T16:23	10	3	0.1	3	4	381	0.2	381	382	14.1	85.5
2025-09-13T16:24	10	3	0.1	3	3	381	0.3	380	381	14.2	84.1
2025-09-13T16:25	10	3	0.1	3	3	381	0.2	380	381	14.2	83.9
2025-09-13T16:26	10	3	0.1	3	3	381	0.2	380	381	14.2	84.4
2025-09-13T16:27	10	3	0.1	3	3	381	0.2	380	381	14.1	85.1
2025-09-13T16:28	10	3	0.1	3	3	381	0.2	380	381	14.1	84.8
2025-09-13T16:29	10	3	0.1	3	3	380	0.3	380	381	14.1	85.5
2025-09-13T16:30	10	3	0.1	3	3	380	0.2	380	381	14.0	86.9
2025-09-13T16:31	10	3	0.1	3	3	380	0.2	380	381	14.0	87.3
2025-09-13T16:32	10	3	0.1	3	3	381	0.3	380	381	14.0	86.8
2025-09-13T16:33	10	3	0.1	3	3	381	0.2	380	381	14.1	83.7
2025-09-13T16:34	10	3	0.0	3	3	381	0.2	380	381	14.1	84.8
2025-09-13T16:35	10	3	0.1	3	3	380	0.2	380	381	14.2	83.5
2025-09-13T16:36	10	3	0.1	3	3	380	0.3	380	381	14.1	84.6
2025-09-13T16:37	10	3	0.1	3	3	380	0.2	380	381	14.1	85.2
2025-09-13T16:38	10	3	0.1	3	3	380	0.2	380	381	14.1	85.5
2025-09-13T16:39	10	3	0.1	3	3	380	0.3	380	381	14.1	84.1
2025-09-13T16:40	10	3	0.1	3	3	380	0.2	380	380	14.1	84.0
2025-09-13T16:41	10	3	0.1	3	3	380	0.2	379	380	14.0	85.6
2025-09-13T16:42	10	3	0.1	3	3	380	0.3	379	380	13.9	86.4
2025-09-13T16:43	10	3	0.1	3	4	380	0.2	379	380	13.9	86.7
2025-09-13T16:44	10	4	0.1	3	4	380	0.3	379	380	13.9	86.9
2025-09-13T16:45	10	4	0.1	3	4	380	0.2	379	380	13.9	87.0
2025-09-13T16:46	10	4	0.1	4	4	380	0.2	379	380	13.9	86.5
2025-09-13T16:47	10	4	0.1	4	4	380	0.2	379	380	13.9	87.1
2025-09-13T16:48	10	4	0.1	3	4	380	0.3	379	380	13.8	87.7
2025-09-13T16:49	10	3	0.1	3	3	380	0.2	379	381	13.8	87.8
2025-09-13T16:50	10	3	0.2	2	3	380	0.2	379	380	13.8	88.5
2025-09-13T16:51	10	2	0.1	2	3	380	0.2	379	380	13.7	89.0
2025-09-13T16:52	10	2	0.1	2	2	379	0.2	379	380	13.7	88.9
2025-09-13T16:53	10	2	0.1	2	2	380	0.2	379	380	13.7	88.0
2025-09-13T16:54	10	2	0.1	2	2	379	0.3	379	380	13.8	87.7
2025-09-13T16:55	10	2	0.1	2	2	379	0.2	379	380	13.8	87.9
2025-09-13T16:56	10	2	0.1	2	2	379	0.2	379	380	13.8	88.0
2025-09-13T16:57	10	2	0.1	2	2	380	0.2	379	380	13.9	86.1
2025-09-13T16:58	10	2	0.1	2	2	380	0.2	379	380	14.0	85.5
2025-09-13T16:59	10	2	0.1	2	2	379	0.3	379	380	14.0	85.8
2025-09-13T17:00	10	2	0.1	2	3	380	0.2	379	380	14.0	86.2
2025-09-13T17:01	10	2	0.1	2	3	380	0.2	379	380	13.9	87.3
2025-09-13T17:02	10	3	0.1	2	3	380	0.2	379	380	13.9	86.8
2025-09-13T17:03	10	3	0.1	3	3	379	0.3	379	380	14.0	86.0
2025-09-13T17:04	10	3	0.1	3	3	379	0.2	379	380	14.0	86.4
2025-09-13T17:05	10	3	0.1	3	3	379	0.2	379	380	13.9	87.4
2025-09-13T17:06	10	3	0.1	3	3	380	0.3	379	380	13.9	86.3
2025-09-13T17:07	10	3	0.1	3	3	380	0.2	379	380	14.1	85.7
2025-09-13T17:08	10	3	0.1	3	3	380	0.2	379	380	14.1	84.5
2025-09-13T17:09	10	3	0.1	3	3	380	0.3	379	380	14.1	84.6
2025-09-13T17:10	10	3	0.1	3	3	380	0.2	379	380	14.1	84.9
2025-09-13T17:11	10	3	0.1	3	3	380	0.2	379	380	14.1	85.5
2025-09-13T17:12	10	3	0.1	2	3	379	0.2	378	380	13.9	88.4
2025-09-13T17:13	10	3	0.1	3	3	379	0.2	379	380	13.7	89.3
2025-09-13T17:14	10	3	0.1	2	3	379	0.2	378	379	13.7	88.8
2025-09-13T17:15	10	2	0.1	2	3	379	0.2	378	379	13.7	89.7
2025-09-13T17:16	10	2	0.1	2	3	379	0.2	378	379	13.7	88.9
2025-09-13T17:17	10	2	0.1	2	3	379	0.2	378	379	13.7	89.1
2025-09-13T17:18	10	3	0.2	3	3	379	0.2	378	379	13.7	89.8
2025-09-13T17:19	10	3	0.3	2	3	379	0.2	378	379	13.6	90.6
2025-09-13T17:20	10	2	0.1	2	2	379	0.2	378	379	13.6	91.2
2025-09-13T17:21	10	2	0.1	2	2	379	0.2	378	379	13.6	91.6
2025-09-13T17:22	10	2	0.1	1	2	379	0.2	378	379	13.6	91.1
2025-09-13T17:23	10	2	0.1	1	2	379	0.2	378	379	13.6	90.8
2025-09-13T17:24	10	2	0.1	1	2	379	0.3	378	380	13.6	90.2
2025-09-13T17:25	10	2	0.1	1	2	379	0.2	379	379	13.7	90.3
2025-09-13T17:26	10	2	0.1	1	2	379	0.2	378	379	13.6	90.9
2025-09-13T17:27	10	2	0.1	2	2	379	0.2	378	379	13.6	91.1
2025-09-13T17:28	10	2	0.1	1	2	379	0.2	378	379	13.6	91.6
2025-09-13T17:29	10	2	0.1	1	2	379	0.2	379	379	13.6	91.4
2025-09-13T17:30	10	2	0.1	1	2	379	0.2	379	380	13.7	90.1
2025-09-13T17:31	10	2	0.1	1	2	379	0.3	378	379	13.7	90.2
2025-09-13T17:32	10	1	0.1	1	2	379	0.2	378	379	13.7	90.8
2025-09-13T17:33	10	1	0.1	1	2	379	0.2	378	379	13.7	91.0
2025-09-13T17:34	10	1	0.1	1	2	379	0.3	378	379	13.7	90.4
2025-09-13T17:35	10	1	0.2	1	2	379	0.2	378	379	13.7	89.9
2025-09-13T17:36	10	1	0.2	1	2	378	0.3	378	379	13.7	90.2
2025-09-13T17:37	10	1	0.2	1	2	378	0.2	378	379	13.6	90.6
2025-09-13T17:38	10	1	0.1	1	1	378	0.2	378	379	13.6	91.3
2025-09-13T17:39	10	1	0.2	1	2	378	0.3	378	379	13.6	91.2
2025-09-13T17:40	10	1	0.2	1	1	378	0.3	377	379	13.6	90.3
2025-09-13T17:41	10	1	0.2	1	1	378	0.3	377	378	13.7	90.0
2025-09-13T17:42	10	1	0.2	0	2	378	0.2	377	378	13.7	90.2
2025-09-13T17:43	10	1	0.2	0	1	378	0.3	377	379	13.7	89.1
2025-09-13T17:44	10	0	0.2	0	1	378	0.2	377	378	13.7	89.3
2025-09-13T17:45	10	0	0.1	0	1	378	0.4	377	379	13.7	89.1
2025-09-13T17:46	10	0	0.1	0	1	378	0.3	377	378	13.7	89.3
2025-09-13T17:47	10	0	0.2	0	1	378	0.2	377	378	13.7	89.5
2025-09-13T17:48	10	0	0.2	0	1	378	0.3	377	379	13.7	89.2
2025-09-13T17:49	10	0	0.1	0	1	378	0.2	378	379	13.9	87.1
2025-09-13T17:50	10	0	0.1	0	1	378	0.3	377	378	14.0	86.2
2025-09-13T17:51	10	1	0.1	0	1	378	0.3	377	379	14.0	85.7
2025-09-13T17:52	10	0	0.1	0	1	378	0.2	377	378	13.9	87.5
2025-09-13T17:53	10	0	0.2	0	1	378	0.3	377	378	13.8	88.7
2025-09-13T17:54	10	0	0.2	0	1	378	0.3	377	378	13.8	89.0
2025-09-13T17:55	10	0	0.2	0	1	378	0.2	377	378	13.8	88.6
2025-09-13T17:56	10	0	0.1	0	1	378	0.2	377	378	13.8	88.6
2025-09-13T17:57	10	0	0.1	0	1	378	0.2	377	378	13.8	89.0
2025-09-13T17:58	10	0	0.1	0	1	377	0.2	377	378	13.7	89.5
2025-09-13T17:59	10	0	0.1	0	1	378	0.2	377	378	13.7	90.0
2025-09-13T18:00	10	0	0.1	0	0	378	0.2	377	378	13.8	88.7
2025-09-13T18:01	10	0	0.1	0	0	378	0.2	377	378	13.7	89.9
2025-09-13T18:02	10	0	0.1	0	1	378	0.2	377	378	13.7	89.7
2025-09-13T18:03	10	0	0.1	0	0	377	0.3	376	378	13.7	90.3
2025-09-13T18:04	10	0	0.1	0	0	377	0.2	376	378	13.6	90.6
2025-09-13T18:05	10	0	0.1	0	1	377	0.3	376	377	13.7	90.6
2025-09-13T18:06	10	0	0.1	0	0	377	0.3	376	378	13.6	90.8
2025-09-13T18:07	10	0	0.1	0	0	377	0.2	376	377	13.7	90.1
2025-09-13T18:08	10	0	0.1	0	0	377	0.2	376	377	13.6	90.8
2025-09-13T18:09	10	0	0.1	0	0	377	0.2	376	377	13.6	90.8
2025-09-13T18:10	10	0	0.1	0	0	377	0.2	376	377	13.6	90.6
2025-09-13T18:11	10	0	0.1	0	0	377	0.2	376	377	13.6	90.6
2025-09-13T18:12	10	0	0.1	0	0	376	0.3	376	377	13.6	91.1
2025-09-13T18:13	10	0	0.1	0	0	377	0.2	376	377	13.6	90.8
2025-09-13T18:14	10	0	0.1	0	0	377	0.2	376	377	13.6	90.7
2025-09-13T18:15	10	0	0.1	0	0	376	0.2	376	377	13.6	90.6
2025-09-13T18:16	10	0	0.1	0	0	377	0.2	376	377	13.7	90.0
2025-09-13T18:17	10	0	0.1	0	0	377	0.2	376	377	13.7	90.4
2025-09-13T18:18	10	0	0.1	0	0	377	0.2	376	377	13.7	89.9
2025-09-13T18:19	10	0	0.1	0	0	376	0.2	376	377	13.7	90.5
2025-09-13T18:20	10	0	0.1	0	0	376	0.2	376	377	13.7	90.4
2025-09-13T18:21	10	0	0.1	0	0	376	0.2	376	377	13.7	90.4
2025-09-13T18:22	10	0	0.1	0	0	376	0.3	376	377	13.7	89.8
2025-09-13T18:23	10	0	0.1	0	0	376	0.2	376	377	13.7	90.0
2025-09-13T18:24	10	0	0.1	0	0	376	0.2	376	377	13.7	90.5
2025-09-13T18:25	10	0	0.1	0	0	376	0.3	375	377	13.6	90.9
2025-09-13T18:26	10	0	0.1	0	0	376	0.2	375	376	13.6	91.5
2025-09-13T18:27	10	0	0.1	0	0	376	0.3	375	376	13.6	91.3
2025-09-13T18:28	10	0	0.1	0	0	376	0.2	375	376	13.6	91.3
2025-09-13T18:29	10	0	0.1	0	0	375	0.2	374	376	13.6	91.5
2025-09-13T18:30	10	0	0.1	0	0	375	0.2	374	375	13.6	91.6
2025-09-13T18:31	10	0	0.1	0	0	375	0.2	375	375	13.6	91.9
2025-09-13T18:32	10	0	0.1	0	0	375	0.3	374	376	13.5	92.3
2025-09-13T18:33	10	0	0.1	0	0	375	0.2	375	375	13.4	92.5
2025-09-13T18:34	10	0	0.1	0	0	375	0.2	374	375	13.4	92.6
2025-09-13T18:35	10	0	0.1	0	0	375	0.3	374	375	13.4	92.6
2025-09-13T18:36	10	0	0.0	0	0	375	0.2	374	375	13.4	93.1
2025-09-13T18:37	10	0	0.1	0	0	374	0.3	374	375	13.3	93.4
2025-09-13T18:38	10	0	0.1	0	0	374	0.2	374	375	13.3	93.7
2025-09-13T18:39	10	0	0.1	0	0	374	0.2	374	375	13.2	94.1
2025-09-13T18:40	10	0	0.0	0	0	374	0.2	373	374	13.2	94.3
2025-09-13T18:41	10	0	0.1	0	0	374	0.2	373	374	13.2	94.2
2025-09-13T18:42	10	0	0.0	0	0	374	0.2	373	374	13.2	93.8
2025-09-13T18:43	10	0	0.1	0	0	374	0.3	373	374	13.2	93.7
2025-09-13T18:44	10	0	0.0	0	0	373	0.2	373	374	13.3	93.8
2025-09-13T18:45	10	0	0.0	0	0	374	0.2	373	374	13.3	93.8
2025-09-13T18:46	10	0	0.0	0	0	374	0.2	373	374	13.3	93.8
2025-09-13T18:47	10	0	0.1	0	0	374	0.2	373	374	13.3	93.9
2025-09-13T18:48	10	0	0.0	0	0	374	0.2	373	374	13.2	93.9
2025-09-13T18:49	10	0	0.1	0	0	374	0.2	373	374	13.2	94.1
2025-09-13T18:50	10	0	0.1	0	0	374	0.2	373	375	13.2	94.2
2025-09-13T18:51	10	0	0.0	0	0	374	0.2	373	374	13.1	94.2
2025-09-13T18:52	10	0	0.1	0	0	374	0.2	373	374	13.1	94.4
2025-09-13T18:53	10	0	0.1	0	0	374	0.2	374	374	13.1	94.5
2025-09-13T18:54	10	0	0.1	0	0	374	0.2	373	374	13.2	94.3
2025-09-13T18:55	10	0	0.1	0	0	374	0.2	374	374	13.2	94.1
2025-09-13T18:56	10	0	0.1	0	0	374	0.2	374	375	13.2	94.0
2025-09-13T18:57	10	0	0.1	0	0	374	0.2	374	375	13.2	94.3
2025-09-13T18:58	10	0	0.0	0	0	374	0.2	374	375	13.2	93.9
2025-09-13T18:59	10	0	0.1	0	0	374	0.2	374	375	13.2	93.8
2025-09-13T19:00	10	0	0.0	0	0	374	0.3	374	375	13.2	93.8
2025-09-13T19:01	10	0	0.0	0	0	374	0.3	374	375	13.3	93.6
2025-09-13T19:02	10	0	0.1	0	0	375	0.2	374	375	13.3	93.3
2025-09-13T19:03	10	0	0.1	0	0	375	0.2	374	375	13.3	92.7
2025-09-13T19:04	10	0	0.0	0	0	375	0.3	374	375	13.3	92.8
2025-09-13T19:05	10	0	0.1	0	0	375	0.3	374	376	13.4	92.6
2025-09-13T19:06	10	0	0.1	0	0	375	0.2	374	376	13.4	93.0
2025-09-13T19:07	10	0	0.1	0	0	375	0.2	374	375	13.4	92.7
2025-09-13T19:08	10	0	0.1	0	0	375	0.2	374	375	13.4	92.4
2025-09-13T19:09	10	0	0.1	0	0	375	0.2	375	375	13.4	92.5
2025-09-13T19:10	10	0	0.0	0	0	375	0.2	375	375	13.4	92.2
2025-09-13T19:11	10	0	0.1	0	0	375	0.2	375	376	13.4	92.0
2025-09-13T19:12	10	0	0.1	0	0	375	0.3	374	375	13.4	92.5
2025-09-13T19:13	10	0	0.1	0	0	375	0.2	374	375	13.4	92.4
2025-09-13T19:14	10	0	0.1	0	0	375	0.2	374	375	13.4	92.5
2025-09-13T19:15	10	0	0.1	0	0	375	0.2	374	375	13.4	92.4
2025-09-13T19:16	10	0	0.1	0	0	375	0.2	374	375	13.4	92.4
2025-09-13T19:17	10	0	0.1	0	0	375	0.2	374	375	13.4	92.7
2025-09-13T19:18	10	0	0.1	0	0	375	0.3	374	375	13.4	92.4
2025-09-13T19:19	10	0	0.1	0	0	375	0.2	374	375	13.3	92.6
2025-09-13T19:20	10	0	0.1	0	0	375	0.2	374	375	13.3	93.0
2025-09-13T19:21	10	0	0.1	0	0	375	0.2	374	375	13.3	93.1
2025-09-13T19:22	10	0	0.1	0	0	375	0.2	375	375	13.3	92.9
2025-09-13T19:23	10	0	0.1	0	0	375	0.2	374	375	13.3	93.0
2025-09-13T19:24	10	0	0.1	0	0	375	0.2	375	375	13.2	93.5
2025-09-13T19:25	10	0	0.1	0	0	375	0.2	375	375	13.2	93.7
2025-09-13T19:26	10	0	0.1	0	0	375	0.2	374	376	13.2	94.1
2025-09-13T19:27	10	0	0.0	0	0	375	0.2	374	375	13.2	93.9
2025-09-13T19:28	10	0	0.1	0	0	375	0.2	374	375	13.2	93.6
2025-09-13T19:29	10	0	0.1	0	0	375	0.2	374	375	13.2	93.3
2025-09-13T19:30	10	0	0.0	0	0	375	0.3	374	375	13.3	92.3
2025-09-13T19:31	10	0	0.1	0	0	375	0.2	375	376	13.4	91.2
2025-09-13T19:32	10	0	0.1	0	0	375	0.3	374	376	13.5	91.0
2025-09-13T19:33	10	0	0.1	0	0	375	0.2	375	376	13.5	90.9
2025-09-13T19:34	10	0	0.1	0	0	375	0.2	375	375	13.5	90.6
2025-09-13T19:35	10	0	0.1	0	0	375	0.2	375	375	13.5	90.8
2025-09-13T19:36	10	0	0.1	0	0	375	0.2	374	375	13.5	90.6
2025-09-13T19:37	10	0	0.1	0	0	375	0.3	374	375	13.5	90.6
2025-09-13T19:38	10	0	0.1	0	0	375	0.3	374	375	13.5	90.1
2025-09-13T19:39	10	0	0.1	0	0	375	0.2	374	375	13.6	90.1
2025-09-13T19:40	10	0	0.1	0	0	375	0.2	374	375	13.6	89.8
2025-09-13T19:41	10	0	0.1	0	0	375	0.3	374	375	13.6	90.1
2025-09-13T19:42	10	0	0.1	0	0	375	0.2	374	375	13.6	89.6
2025-09-13T19:43	10	0	0.1	0	0	375	0.2	375	376	13.6	90.1
2025-09-13T19:44	10	0	0.1	0	0	375	0.2	375	376	13.6	89.7
2025-09-13T19:45	10	0	0.1	0	0	376	0.4	375	376	13.6	89.6
2025-09-13T19:46	10	0	0.1	0	0	376	0.3	376	377	13.7	89.2
2025-09-13T19:47	10	0	0.1	0	0	376	0.2	376	377	13.8	88.2
2025-09-13T19:48	10	0	0.1	0	0	377	0.2	376	377	13.6	89.4
2025-09-13T19:49	10	0	0.1	0	0	377	0.2	376	377	13.6	89.3
2025-09-13T19:50	10	0	0.1	0	0	377	0.2	376	377	13.6	89.5
2025-09-13T19:51	10	0	0.1	0	0	377	0.2	376	377	13.6	90.0
2025-09-13T19:52	10	0	0.1	0	0	377	0.3	376	377	13.6	89.6
2025-09-13T19:53	10	0	0.1	0	0	376	0.3	376	377	13.5	90.3
2025-09-13T19:54	10	0	0.1	0	0	376	0.3	376	377	13.5	90.8
2025-09-13T19:55	10	0	0.1	0	0	376	0.2	376	377	13.5	90.9
2025-09-13T19:56	10	0	0.1	0	0	376	0.2	376	377	13.5	90.7
2025-09-13T19:57	10	0	0.1	0	0	376	0.2	376	377	13.5	90.5
2025-09-13T19:58	10	0	0.1	0	0	376	0.3	376	377	13.5	90.6
2025-09-13T19:59	10	0	0.1	0	0	376	0.2	376	377	13.6	90.1
2025-09-13T20:00	10	0	0.1	0	0	376	0.2	376	377	13.6	89.9
2025-09-13T20:01	10	0	0.1	0	0	376	0.2	376	377	13.6	89.9
2025-09-13T20:02	10	0	0.1	0	0	377	0.3	376	377	13.6	89.7
2025-09-13T20:03	10	0	0.1	0	0	377	0.2	376	377	13.7	89.0
2025-09-13T20:04	10	0	0.1	0	0	377	0.3	376	377	13.7	89.5
2025-09-13T20:05	10	0	0.1	0	0	377	0.2	376	377	13.7	89.4
2025-09-13T20:06	10	0	0.1	0	0	377	0.3	376	377	13.7	89.5
2025-09-13T20:07	10	0	0.1	0	0	377	0.2	376	377	13.6	89.7
2025-09-13T20:08	10	0	0.1	0	0	377	0.2	376	377	13.6	89.7
2025-09-13T20:09	10	0	0.1	0	0	377	0.3	376	377	13.6	89.7
2025-09-13T20:10	10	0	0.1	0	0	377	0.2	377	378	13.6	89.7
2025-09-13T20:11	10	0	0.1	0	0	377	0.2	377	378	13.6	89.7
2025-09-13T20:12	10	0	0.1	0	0	377	0.2	377	378	13.6	89.7
2025-09-13T20:13	10	0	0.1	0	0	377	0.3	377	378	13.6	89.7
2025-09-13T20:14	10	0	0.1	0	0	377	0.2	377	378	13.6	89.7
2025-09-13T20:15	10	0	0.1	0	0	377	0.2	377	378	13.6	90.1
2025-09-13T20:16	10	0	0.1	0	0	377	0.2	377	378	13.6	90.8
2025-09-13T20:17	10	0	0.1	0	0	377	0.3	377	378	13.6	91.3
2025-09-13T20:18	10	0	0.1	0	0	377	0.3	377	378	13.6	91.6
2025-09-13T20:19	10	0	0.1	0	0	377	0.2	377	378	13.5	91.5
2025-09-13T20:20	10	0	0.1	0	0	377	0.2	377	378	13.5	91.9
2025-09-13T20:21	10	0	0.1	0	0	377	0.2	377	378	13.5	92.1
2025-09-13T20:22	10	0	0.1	0	0	377	0.2	377	378	13.5	91.8
2025-09-13T20:23	10	0	0.0	0	0	377	0.2	377	378	13.5	92.0
2025-09-13T20:24	10	0	0.1	0	0	377	0.2	377	378	13.5	92.0
2025-09-13T20:25	10	0	0.1	0	0	377	0.2	377	378	13.5	92.2
2025-09-13T20:26	10	0	0.1	0	0	377	0.2	377	378	13.5	92.3
2025-09-13T20:27	10	0	0.0	0	0	377	0.2	377	378	13.5	92.4
2025-09-13T20:28	10	0	0.1	0	0	377	0.2	377	378	13.5	92.5
2025-09-13T20:29	10	0	0.1	0	0	377	0.2	377	378	13.5	92.5
2025-09-13T20:30	10	0	0.1	0	0	377	0.2	377	378	13.5	92.4
2025-09-13T20:31	10	0	0.1	0	0	377	0.2	377	378	13.5	92.6
2025-09-13T20:32	10	0	0.1	0	0	377	0.2	377	378	13.5	92.5
2025-09-13T20:33	10	0	0.1	0	0	377	0.2	377	378	13.5	92.4
2025-09-13T20:34	10	0	0.1	0	0	377	0.3	377	378	13.5	92.1
2025-09-13T20:35	10	0	0.1	0	0	377	0.2	377	378	13.5	92.5
2025-09-13T20:36	10	0	0.1	0	0	377	0.2	377	378	13.5	92.6
2025-09-13T20:37	10	0	0.1	0	0	377	0.2	377	378	13.4	93.0
2025-09-13T20:38	10	0	0.1	0	0	377	0.2	377	378	13.4	92.9
2025-09-13T20:39	10	0	0.1	0	0	377	0.2	377	378	13.4	93.1
2025-09-13T20:40	10	0	0.1	0	0	377	0.2	377	378	13.4	92.6
2025-09-13T20:41	10	0	0.1	0	0	377	0.2	377	378	13.5	92.6
2025-09-13T20:42	10	0	0.1	0	0	377	0.2	377	378	13.4	93.1
2025-09-13T20:43	10	0	0.1	0	0	377	0.2	376	377	13.4	93.1
2025-09-13T20:44	10	0	0.1	0	0	377	0.2	377	378	13.4	92.7
2025-09-13T20:45	10	0	0.1	0	0	377	0.2	377	377	13.5	92.6
2025-09-13T20:46	10	0	0.1	0	0	377	0.2	377	378	13.4	92.6
2025-09-13T20:47	10	0	0.1	0	0	377	0.3	377	378	13.5	92.7
2025-09-13T20:48	10	0	0.1	0	0	378	0.2	377	378	13.5	92.6
2025-09-13T20:49	10	0	0.1	0	0	377	0.2	377	378	13.4	93.0
2025-09-13T20:50	10	0	0.1	0	0	378	0.2	377	378	13.4	93.3
2025-09-13T20:51	10	0	0.1	0	0	378	0.2	377	378	13.4	93.3
2025-09-13T20:52	10	0	0.1	0	0	378	0.2	377	378	13.4	93.0
2025-09-13T20:53	10	0	0.1	0	0	378	0.2	377	378	13.4	93.3
2025-09-13T20:54	10	0	0.1	0	0	378	0.2	377	378	13.4	93.2
2025-09-13T20:55	10	0	0.1	0	0	378	0.2	377	378	13.4	93.4
2025-09-13T20:56	10	0	0.1	0	0	378	0.2	377	378	13.4	93.7
2025-09-13T20:57	10	0	0.1	0	0	378	0.2	377	378	13.4	92.8
2025-09-13T20:58	10	0	0.0	0	0	378	0.2	377	378	13.4	92.9
2025-09-13T20:59	10	0	0.1	0	0	378	0.2	377	378	13.4	93.2
2025-09-13T21:00	10	0	0.1	0	0	378	0.2	377	378	13.4	93.1
2025-09-13T21:01	10	0	0.1	0	0	378	0.2	377	378	13.4	93.3
2025-09-13T21:02	10	0	0.1	0	0	378	0.2	377	378	13.4	93.6
2025-09-13T21:03	10	0	0.1	0	0	377	0.2	377	378	13.4	93.7
2025-09-13T21:04	10	0	0.1	0	0	377	0.2	377	378	13.4	93.6
2025-09-13T21:05	10	0	0.1	0	0	377	0.2	377	378	13.4	93.7
2025-09-13T21:06	10	0	0.1	0	0	377	0.2	377	378	13.4	93.7
2025-09-13T21:07	10	0	0.1	0	0	377	0.2	377	378	13.4	93.9
2025-09-13T21:08	10	0	0.1	0	0	377	0.2	377	378	13.4	93.9
2025-09-13T21:09	10	0	0.1	0	0	377	0.2	377	378	13.4	93.8
2025-09-13T21:10	10	0	0.1	0	0	377	0.2	377	378	13.4	93.8
2025-09-13T21:11	10	0	0.1	0	0	377	0.2	377	378	13.4	94.0
2025-09-13T21:12	10	0	0.1	0	0	377	0.2	377	378	13.4	94.3
2025-09-13T21:13	10	0	0.1	0	0	377	0.2	377	378	13.3	94.5
2025-09-13T21:14	10	0	0.1	0	0	378	0.2	377	378	13.3	94.3
2025-09-13T21:15	10	0	0.1	0	0	377	0.2	377	378	13.4	94.3
2025-09-13T21:16	10	0	0.1	0	0	377	0.2	377	378	13.4	94.4
2025-09-13T21:17	10	0	0.0	0	0	377	0.2	377	378	13.4	94.3
2025-09-13T21:18	10	0	0.1	0	0	377	0.2	376	377	13.4	94.3
2025-09-13T21:19	10	0	0.1	0	0	377	0.2	377	377	13.4	94.6
2025-09-13T21:20	10	0	0.1	0	0	377	0.2	377	377	13.3	94.6
2025-09-13T21:21	10	0	0.1	0	0	377	0.3	376	377	13.4	94.3
2025-09-13T21:22	10	0	0.1	0	0	377	0.2	376	377	13.4	94.5
2025-09-13T21:23	10	0	0.1	0	0	377	0.2	376	377	13.4	94.6
2025-09-13T21:24	10	0	0.1	0	0	377	0.2	376	377	13.4	94.5
2025-09-13T21:25	10	0	0.1	0	0	377	0.2	376	377	13.4	94.2
2025-09-13T21:26	10	0	0.1	0	0	377	0.2	377	377	13.4	94.3
2025-09-13T21:27	10	0	0.1	0	0	377	0.2	377	378	13.4	94.3
2025-09-13T21:28	10	0	0.1	0	0	377	0.3	377	378	13.4	94.3
2025-09-13T21:29	10	0	0.1	0	0	377	0.2	376	377	13.4	94.6
2025-09-13T21:30	10	0	0.1	0	0	377	0.2	376	377	13.4	94.8
2025-09-13T21:31	10	0	0.1	0	0	377	0.2	377	378	13.4	94.8
2025-09-13T21:32	10	0	0.1	0	0	377	0.2	377	378	13.4	94.5
2025-09-13T21:33	10	0	0.1	0	0	377	0.2	377	378	13.4	94.5
2025-09-13T21:34	10	0	0.1	0	0	377	0.2	377	378	13.4	94.6
2025-09-13T21:35	10	0	0.1	0	0	377	0.2	377	378	13.3	94.8
2025-09-13T21:36	10	0	0.1	0	0	378	0.2	377	378	13.4	95.1
2025-09-13T21:37	10	0	0.1	0	0	378	0.3	377	378	13.4	95.2
2025-09-13T21:38	10	0	0.1	0	0	377	0.2	377	378	13.4	95.3
2025-09-13T21:39	10	0	0.1	0	0	378	0.2	377	378	13.3	95.5
2025-09-13T21:40	10	0	0.1	0	0	377	0.3	377	378	13.3	95.4
2025-09-13T21:41	10	0	0.1	0	0	377	0.2	377	378	13.3	95.3
2025-09-13T21:42	10	0	0.1	0	0	378	0.2	377	378	13.3	95.4
2025-09-13T21:43	10	0	0.1	0	0	377	0.2	377	378	13.3	95.4
2025-09-13T21:44	10	0	0.1	0	0	377	0.2	377	378	13.3	95.2
2025-09-13T21:45	10	0	0.1	0	0	377	0.2	377	378	13.4	95.1
2025-09-13T21:46	10	0	0.1	0	0	377	0.2	377	378	13.4	95.5
2025-09-13T21:47	10	0	0.1	0	0	377	0.2	377	378	13.3	95.3
2025-09-13T21:48	10	0	0.1	0	0	377	0.3	376	378	13.4	94.8
2025-09-13T21:49	10	0	0.1	0	0	378	0.2	377	378	13.4	94.5
2025-09-13T21:50	10	0	0.1	0	0	377	0.2	377	378	13.4	94.8
2025-09-13T21:51	10	0	0.1	0	0	377	0.2	377	378	13.4	94.4
2025-09-13T21:52	10	0	0.1	0	0	378	0.3	377	378	13.5	94.1
2025-09-13T21:53	10	0	0.1	0	0	378	0.2	377	378	13.5	94.3
2025-09-13T21:54	10	0	0.1	0	0	378	0.3	377	378	13.5	94.2
2025-09-13T21:55	10	0	0.1	0	0	378	0.3	377	378	13.5	94.1
2025-09-13T21:56	10	0	0.1	0	0	378	0.2	377	378	13.6	93.8
2025-09-13T21:57	10	0	0.1	0	0	378	0.3	377	378	13.6	93.4
2025-09-13T21:58	10	0	0.1	0	0	378	0.2	377	378	13.6	93.5
2025-09-13T21:59	10	0	0.1	0	0	378	0.2	378	379	13.6	93.1
2025-09-13T22:00	10	0	0.1	0	0	378	0.3	378	379	13.7	92.6
2025-09-13T22:01	10	0	0.1	0	0	378	0.2	378	379	13.7	93.1
2025-09-13T22:02	10	0	0.1	0	0	378	0.2	378	379	13.7	92.9
2025-09-13T22:03	10	0	0.1	0	0	378	0.2	378	379	13.8	92.3
2025-09-13T22:04	10	0	0.1	0	0	378	0.2	378	379	13.8	92.2
2025-09-13T22:05	10	0	0.1	0	0	379	0.3	378	379	13.8	92.0
2025-09-13T22:06	10	0	0.1	0	0	379	0.2	378	379	13.8	92.2
2025-09-13T22:07	10	0	0.1	0	1	379	0.2	378	379	13.9	91.7
2025-09-13T22:08	10	0	0.1	0	0	379	0.3	378	379	13.9	92.1
2025-09-13T22:09	10	0	0.1	0	0	379	0.2	378	379	13.9	91.8
2025-09-13T22:10	10	0	0.1	0	0	379	0.2	378	380	13.8	92.4
2025-09-13T22:11	10	0	0.1	0	0	379	0.2	378	379	13.8	92.4
2025-09-13T22:12	10	0	0.1	0	0	379	0.2	378	379	13.8	92.7
2025-09-13T22:13	10	0	0.1	0	0	379	0.2	378	379	13.7	93.4
2025-09-13T22:14	10	0	0.1	0	0	379	0.2	378	379	13.7	93.5
2025-09-13T22:15	10	0	0.1	0	0	379	0.3	378	379	13.7	93.6
2025-09-13T22:16	10	0	0.1	0	0	379	0.2	378	379	13.7	93.9
2025-09-13T22:17	10	0	0.1	0	0	379	0.2	378	379	13.6	93.8
2025-09-13T22:18	10	0	0.1	0	0	379	0.3	378	379	13.6	94.0
2025-09-13T22:19	10	0	0.1	0	0	379	0.2	378	379	13.6	94.1
2025-09-13T22:20	10	0	0.1	0	0	378	0.2	378	379	13.6	94.4
2025-09-13T22:21	10	0	0.1	0	0	378	0.2	378	379	13.6	94.5
2025-09-13T22:22	10	0	0.1	0	0	379	0.2	378	379	13.6	94.4
2025-09-13T22:23	10	0	0.1	0	0	379	0.3	378	379	13.6	94.7
2025-09-13T22:24	10	0	0.1	0	0	379	0.3	378	379	13.6	94.8
2025-09-13T22:25	10	0	0.1	0	0	379	0.2	378	379	13.6	94.8
2025-09-13T22:26	10	0	0.1	0	0	379	0.3	378	379	13.6	94.5
2025-09-13T22:27	10	0	0.0	0	0	379	0.3	378	380	13.7	94.3
2025-09-13T22:28	10	0	0.1	0	0	379	0.2	378	379	13.7	94.1
2025-09-13T22:29	10	0	0.1	0	0	379	0.2	378	379	13.7	94.3
2025-09-13T22:30	10	0	0.1	0	0	379	0.3	378	379	13.7	94.5
2025-09-13T22:31	10	0	0.1	0	0	379	0.3	378	379	13.7	94.3
2025-09-13T22:32	10	0	0.1	0	0	379	0.2	378	380	13.7	94.0
2025-09-13T22:33	10	0	0.1	0	0	379	0.2	379	380	13.7	93.9
2025-09-13T22:34	10	0	0.1	0	0	379	0.2	378	379	13.7	94.0
2025-09-13T22:35	10	0	0.1	0	0	379	0.3	378	379	13.7	94.2
2025-09-13T22:36	10	0	0.1	0	0	379	0.2	378	379	13.7	94.3
2025-09-13T22:37	10	0	0.1	0	0	379	0.3	378	379	13.7	94.4
2025-09-13T22:38	10	0	0.1	0	0	379	0.2	379	379	13.7	94.6
2025-09-13T22:39	10	0	0.1	0	0	379	0.3	378	379	13.7	94.5
2025-09-13T22:40	10	0	0.0	0	0	379	0.2	378	379	13.7	94.7
2025-09-13T22:41	10	0	0.1	0	0	379	0.3	378	380	13.7	94.4
2025-09-13T22:42	10	0	0.1	0	0	379	0.2	378	380	13.7	94.3
2025-09-13T22:43	10	0	0.1	0	0	379	0.2	378	379	13.7	94.1
2025-09-13T22:44	10	0	0.1	0	0	379	0.3	378	379	13.7	94.4
2025-09-13T22:45	10	0	0.1	0	0	379	0.2	378	379	13.7	94.2
2025-09-13T22:46	10	0	0.1	0	0	379	0.3	379	380	13.8	93.6
2025-09-13T22:47	10	0	0.1	0	0	379	0.2	379	379	13.8	93.9
2025-09-13T22:48	10	0	0.1	0	0	379	0.3	378	379	13.7	94.1
2025-09-13T22:49	10	0	0.1	0	0	379	0.2	378	379	13.8	93.8
2025-09-13T22:50	10	0	0.1	0	0	379	0.3	379	380	13.8	93.4
2025-09-13T22:51	10	0	0.1	0	0	379	0.2	378	380	13.8	93.5
2025-09-13T22:52	10	0	0.1	0	0	379	0.2	379	379	13.8	93.7
2025-09-13T22:53	10	0	0.1	0	0	379	0.2	379	380	13.8	93.6
2025-09-13T22:54	10	0	0.1	0	0	379	0.2	379	380	13.8	93.8
2025-09-13T22:55	10	0	0.1	0	0	379	0.3	379	380	13.8	93.6
2025-09-13T22:56	10	0	0.1	0	0	379	0.2	379	380	13.8	93.9
2025-09-13T22:57	10	0	0.1	0	0	379	0.3	378	380	13.8	93.9
2025-09-13T22:58	10	0	0.1	0	0	379	0.2	379	380	13.8	93.4
2025-09-13T22:59	10	0	0.1	0	0	379	0.2	379	379	13.8	93.3
2025-09-13T23:00	10	0	0.0	0	0	379	0.2	379	380	13.9	92.6
2025-09-13T23:01	10	0	0.1	0	0	379	0.2	379	380	13.9	92.9
2025-09-13T23:02	10	0	0.1	0	0	379	0.2	379	380	13.9	93.0
2025-09-13T23:03	10	0	0.1	0	0	380	0.3	379	380	13.8	93.4
2025-09-13T23:04	10	0	0.1	0	0	379	0.3	379	380	13.8	93.6
2025-09-13T23:05	10	0	0.1	0	0	379	0.2	379	380	13.8	94.1
2025-09-13T23:06	10	0	0.1	0	0	380	0.2	379	380	13.8	93.9
2025-09-13T23:07	10	0	0.1	0	0	380	0.2	379	380	13.8	93.9
2025-09-13T23:08	10	0	0.1	0	0	380	0.2	379	380	13.8	93.8
2025-09-13T23:09	10	0	0.1	0	0	380	0.2	379	380	13.8	93.9
2025-09-13T23:10	10	0	0.1	0	0	379	0.2	379	380	13.8	93.8
2025-09-13T23:11	10	0	0.1	0	0	379	0.3	379	380	13.8	94.0
2025-09-13T23:12	10	0	0.1	0	0	380	0.2	379	380	13.8	94.2
2025-09-13T23:13	10	0	0.1	0	0	379	0.2	379	380	13.8	94.0
2025-09-13T23:14	10	0	0.1	0	0	380	0.2	379	380	13.8	94.1
2025-09-13T23:15	10	0	0.1	0	0	380	0.2	379	380	13.8	94.3
2025-09-13T23:16	10	0	0.1	0	0	380	0.2	379	380	13.8	94.3
2025-09-13T23:17	10	0	0.1	0	0	380	0.2	379	380	13.8	94.1
2025-09-13T23:18	10	0	0.1	0	0	380	0.2	379	380	13.8	94.1
2025-09-13T23:19	10	0	0.1	0	0	380	0.2	379	380	13.8	93.7
2025-09-13T23:20	10	0	0.1	0	0	380	0.2	379	380	13.8	93.6
2025-09-13T23:21	10	0	0.1	0	0	380	0.2	379	380	13.9	93.5
2025-09-13T23:22	10	0	0.1	0	0	380	0.3	379	381	13.9	92.6
2025-09-13T23:23	10	0	0.1	0	0	380	0.3	379	380	13.9	92.4
2025-09-13T23:24	10	0	0.1	0	0	380	0.2	380	380	13.9	93.1
2025-09-13T23:25	10	0	0.0	0	0	380	0.2	379	380	13.9	93.0
2025-09-13T23:26	10	0	0.1	0	0	380	0.2	380	381	13.9	92.7
2025-09-13T23:27	10	0	0.1	0	0	380	0.2	380	380	14.0	92.4
2025-09-13T23:28	10	0	0.4	0	2	380	0.3	379	380	14.0	92.4
2025-09-13T23:29	10	0	0.1	0	0	380	0.2	379	380	13.9	92.9
2025-09-13T23:30	10	0	0.1	0	0	380	0.2	379	380	13.9	92.4
2025-09-13T23:31	10	0	0.1	0	0	380	0.2	380	381	14.0	91.6
2025-09-13T23:32	10	0	0.1	0	0	380	0.2	379	381	14.0	92.2
2025-09-13T23:33	10	0	0.1	0	0	380	0.2	380	381	14.0	92.3
2025-09-13T23:34	10	0	0.1	0	0	380	0.3	379	380	13.9	92.3
2025-09-13T23:35	10	0	0.1	0	0	380	0.3	379	380	13.9	92.4
2025-09-13T23:36	10	0	0.1	0	0	380	0.2	379	380	13.9	92.4
2025-09-13T23:37	10	0	0.1	0	0	380	0.3	379	380	14.0	92.3
2025-09-13T23:38	10	0	0.1	0	0	380	0.2	379	380	13.9	92.5
2025-09-13T23:39	10	0	0.1	0	0	380	0.2	379	380	13.9	92.5
2025-09-13T23:40	10	0	0.1	0	0	380	0.2	379	380	13.9	92.6
2025-09-13T23:41	10	0	0.1	0	0	380	0.2	379	381	13.9	92.6
2025-09-13T23:42	10	0	0.0	0	0	380	0.2	379	380	13.9	93.0
2025-09-13T23:43	10	0	0.1	0	0	380	0.2	379	380	13.9	93.0
2025-09-13T23:44	10	0	0.1	0	0	380	0.2	379	380	13.9	92.9
2025-09-13T23:45	10	0	0.0	0	0	380	0.2	379	380	13.9	92.8
2025-09-13T23:46	10	0	0.1	0	0	379	0.2	379	380	13.9	93.4
2025-09-13T23:47	10	0	0.1	0	0	379	0.2	379	380	13.9	93.5
2025-09-13T23:48	10	0	0.1	0	0	379	0.3	379	380	13.9	92.8
2025-09-13T23:49	10	0	0.1	0	0	379	0.2	379	380	13.9	92.9
2025-09-13T23:50	10	0	0.1	0	0	380	0.3	379	380	13.9	92.9
2025-09-13T23:51	10	0	0.0	0	0	380	0.2	379	380	13.9	92.8
2025-09-13T23:52	10	0	0.0	0	0	379	0.2	379	380	14.0	92.7
2025-09-13T23:53	10	0	0.0	0	0	379	0.3	379	380	14.0	92.4
2025-09-13T23:54	10	0	0.1	0	0	380	0.2	379	380	14.0	92.3
2025-09-13T23:55	10	0	0.0	0	0	380	0.2	379	380	14.0	92.3
2025-09-13T23:56	10	0	0.1	0	0	380	0.3	379	380	14.0	92.5
2025-09-13T23:57	10	0	0.1	0	0	380	0.2	379	380	14.0	92.7
2025-09-13T23:58	10	0	0.1	0	0	380	0.3	379	380	14.0	92.6
2025-09-13T23:59	10	0	0.1	0	0	380	0.2	379	380	14.0	92.2
2025-09-14T00:00	10	0	0.1	0	0	380	0.2	379	381	14.0	92.3
2025-09-14T00:01	10	0	0.1	0	0	380	0.2	379	380	14.0	92.3
2025-09-14T00:02	10	0	0.1	0	0	380	0.2	379	380	14.0	92.5
2025-09-14T00:03	10	0	0.1	0	0	379	0.3	379	380	14.0	92.4
2025-09-14T00:04	10	0	0.1	0	0	379	0.2	379	380	14.0	92.6
2025-09-14T00:05	10	0	0.1	0	0	380	0.3	379	380	14.0	92.8
2025-09-14T00:06	10	0	0.1	0	0	380	0.2	379	380	14.0	92.7
2025-09-14T00:07	10	0	0.1	0	0	380	0.2	379	380	14.0	92.4
2025-09-14T00:08	10	0	0.1	0	0	380	0.3	379	380	14.0	92.8
2025-09-14T00:09	10	0	0.0	0	0	380	0.2	379	380	14.0	92.4
2025-09-14T00:10	10	0	0.1	0	0	380	0.2	379	380	14.1	92.2
2025-09-14T00:11	10	0	0.1	0	0	380	0.3	379	380	14.1	92.3
2025-09-14T00:12	10	0	0.1	0	0	380	0.2	379	380	14.1	92.2
2025-09-14T00:13	10	0	0.1	0	0	380	0.2	379	380	14.1	92.2
2025-09-14T00:14	10	0	0.1	0	0	380	0.2	379	380	14.1	92.3
2025-09-14T00:15	10	0	0.0	0	0	380	0.3	379	381	14.1	92.3
2025-09-14T00:16	10	0	0.1	0	0	380	0.3	379	380	14.1	92.6
2025-09-14T00:17	10	0	0.0	0	0	380	0.3	379	381	14.1	92.7
2025-09-14T00:18	10	0	0.1	0	0	380	0.2	379	380	14.1	92.7
2025-09-14T00:19	10	0	0.0	0	0	380	0.2	379	380	14.1	92.9
2025-09-14T00:20	10	0	0.1	0	0	380	0.2	379	380	14.0	93.3
2025-09-14T00:21	10	0	0.1	0	0	380	0.2	379	380	14.0	93.4
2025-09-14T00:22	10	0	0.1	0	0	380	0.2	380	381	14.0	93.2
2025-09-14T00:23	10	0	0.1	0	0	380	0.3	379	380	14.0	93.2
2025-09-14T00:24	10	0	0.1	0	0	380	0.2	379	380	14.0	93.5
2025-09-14T00:25	10	0	0.1	0	0	380	0.2	380	380	14.0	93.5
2025-09-14T00:26	10	0	0.0	0	0	380	0.2	379	380	14.0	93.7
2025-09-14T00:27	10	0	0.0	0	0	380	0.3	379	380	14.0	93.4
2025-09-14T00:28	10	0	0.1	0	0	380	0.3	379	380	14.1	93.1
2025-09-14T00:29	10	0	0.1	0	0	380	0.2	380	380	14.1	93.3
2025-09-14T00:30	10	0	0.1	0	0	380	0.2	379	380	14.1	93.0
2025-09-14T00:31	10	0	0.1	0	0	380	0.3	379	380	14.1	92.9
2025-09-14T00:32	10	0	0.1	0	0	380	0.2	379	380	14.1	92.7
2025-09-14T00:33	10	0	0.1	0	1	380	0.2	379	380	14.1	92.3
2025-09-14T00:34	10	0	0.1	0	0	380	0.2	380	381	14.3	91.1
2025-09-14T00:35	10	0	0.1	0	1	380	0.2	380	381	14.3	90.9
2025-09-14T00:36	10	0	0.1	0	0	380	0.2	380	381	14.3	90.4
2025-09-14T00:37	10	0	0.1	0	0	380	0.3	380	381	14.3	90.9
2025-09-14T00:38	10	0	0.1	0	0	380	0.4	379	381	14.3	91.1
2025-09-14T00:39	10	0	0.1	0	0	380	0.3	379	381	14.2	91.9
2025-09-14T00:40	10	0	0.1	0	1	380	0.3	379	381	14.2	91.9
2025-09-14T00:41	10	0	0.1	0	0	380	0.3	379	381	14.2	92.1
2025-09-14T00:42	10	0	0.1	0	1	380	0.2	380	381	14.2	91.5
2025-09-14T00:43	10	0	0.1	0	0	380	0.2	380	381	14.2	91.3
2025-09-14T00:44	10	0	0.1	0	0	380	0.2	380	381	14.3	91.3
2025-09-14T00:45	10	0	0.1	0	0	380	0.2	380	380	14.2	91.3
2025-09-14T00:46	10	0	0.0	0	0	380	0.2	380	381	14.4	90.1
2025-09-14T00:47	10	0	0.1	0	0	380	0.2	380	381	14.4	90.3
2025-09-14T00:48	10	0	0.1	0	0	380	0.3	380	381	14.2	91.3
2025-09-14T00:49	10	0	0.1	0	0	380	0.2	380	380	14.2	91.4
2025-09-14T00:50	10	0	0.1	0	0	380	0.3	379	380	14.1	92.0
2025-09-14T00:51	10	0	0.1	0	0	380	0.2	379	380	14.1	92.2
2025-09-14T00:52	10	0	0.1	0	0	380	0.3	379	381	14.2	91.7
2025-09-14T00:53	10	0	0.1	0	0	380	0.2	380	381	14.2	91.6
2025-09-14T00:54	10	0	0.1	0	0	380	0.2	379	380	14.2	91.7
2025-09-14T00:55	10	0	0.1	0	0	380	0.3	379	380	14.1	92.1
2025-09-14T00:56	10	0	0.0	0	0	380	0.2	379	380	14.1	91.9
2025-09-14T00:57	10	0	0.1	0	0	380	0.2	379	380	14.1	92.1
2025-09-14T00:58	10	0	0.1	0	0	380	0.2	379	380	14.2	91.7
2025-09-14T00:59	10	0	0.1	0	0	380	0.2	379	380	14.2	91.6
2025-09-14T01:00	10	0	0.1	0	0	380	0.2	379	380	14.1	91.9
2025-09-14T01:01	10	0	0.1	0	0	380	0.2	379	380	14.1	92.1
2025-09-14T01:02	10	0	0.1	0	0	380	0.3	379	380	14.1	91.9
2025-09-14T01:03	10	0	0.1	0	0	380	0.2	379	380	14.1	92.4
2025-09-14T01:04	10	0	0.1	0	0	380	0.2	379	380	14.1	92.1
2025-09-14T01:05	10	0	0.1	0	0	380	0.3	379	380	14.1	92.1
2025-09-14T01:06	10	0	0.1	0	0	380	0.2	379	380	14.1	92.0
2025-09-14T01:07	10	0	0.1	0	0	380	0.2	379	380	14.1	92.0
2025-09-14T01:08	10	0	0.1	0	0	380	0.2	379	380	14.1	91.9
2025-09-14T01:09	10	0	0.1	0	0	380	0.2	379	380	14.1	92.5
2025-09-14T01:10	10	0	0.1	0	0	380	0.2	379	380	14.1	92.0
2025-09-14T01:11	10	0	0.1	0	0	380	0.2	379	380	14.1	92.1
2025-09-14T01:12	10	0	0.1	0	0	379	0.2	379	380	14.1	92.1
2025-09-14T01:13	10	0	0.1	0	0	380	0.2	379	380	14.1	92.1
2025-09-14T01:14	10	0	0.1	0	0	380	0.2	379	380	14.1	91.9
2025-09-14T01:15	10	0	0.1	0	0	380	0.2	379	380	14.1	92.1
2025-09-14T01:16	10	0	0.1	0	0	379	0.2	379	380	14.1	92.1
2025-09-14T01:17	10	0	0.0	0	0	380	0.2	379	380	14.1	92.3
2025-09-14T01:18	10	0	0.1	0	0	380	0.2	379	380	14.1	92.3
2025-09-14T01:19	10	0	0.1	0	0	379	0.2	379	380	14.1	92.1
2025-09-14T01:20	10	0	0.0	0	0	380	0.2	379	380	14.2	91.4
2025-09-14T01:21	10	0	0.0	0	0	380	0.2	380	380	14.2	91.4
2025-09-14T01:22	10	0	0.1	0	0	380	0.2	379	380	14.2	91.7
2025-09-14T01:23	10	0	0.1	0	0	380	0.3	379	381	14.2	91.5
2025-09-14T01:24	10	0	0.1	0	0	380	0.2	379	380	14.1	92.5
2025-09-14T01:25	10	0	0.1	0	0	380	0.2	379	380	14.1	92.4
2025-09-14T01:26	10	0	0.1	0	0	380	0.3	379	381	14.1	92.0
2025-09-14T01:27	10	0	0.1	0	0	380	0.3	380	381	14.1	92.3
2025-09-14T01:28	10	0	0.1	0	0	380	0.2	379	380	14.1	92.3
2025-09-14T01:29	10	0	0.1	0	0	380	0.2	379	380	14.1	93.0
2025-09-14T01:30	10	0	0.1	0	0	380	0.2	379	380	13.9	93.7
2025-09-14T01:31	10	0	0.1	0	0	380	0.2	379	380	14.0	93.6
2025-09-14T01:32	10	0	0.1	0	0	379	0.2	379	380	13.9	94.2
2025-09-14T01:33	10	0	0.1	0	0	379	0.2	379	380	13.9	94.6
2025-09-14T01:34	10	0	0.1	0	0	379	0.2	379	380	13.9	94.7
2025-09-14T01:35	10	0	0.1	0	0	380	0.2	379	380	13.9	94.8
2025-09-14T01:36	10	0	0.1	0	0	379	0.2	379	380	13.9	95.3
2025-09-14T01:37	10	0	0.1	0	0	379	0.2	379	380	13.8	95.6
2025-09-14T01:38	10	0	0.1	0	0	379	0.3	379	380	13.8	95.7
2025-09-14T01:39	10	0	0.1	0	0	379	0.2	379	380	13.8	95.9
2025-09-14T01:40	10	0	0.1	0	0	379	0.2	379	380	13.8	95.9
2025-09-14T01:41	10	0	0.1	0	0	379	0.2	379	380	13.8	96.3
2025-09-14T01:42	10	0	0.1	0	0	379	0.2	379	380	13.8	96.5
2025-09-14T01:43	10	0	0.1	0	0	379	0.2	379	380	13.8	96.4
2025-09-14T01:44	10	0	0.1	0	0	379	0.3	379	380	13.7	96.8
2025-09-14T01:45	10	0	0.1	0	0	379	0.2	379	380	13.7	97.3
2025-09-14T01:46	10	0	0.1	0	0	379	0.3	378	380	13.7	97.5
2025-09-14T01:47	10	0	0.1	0	0	379	0.2	379	380	13.7	97.6
2025-09-14T01:48	10	0	0.0	0	0	379	0.2	379	380	13.7	97.5
2025-09-14T01:49	10	0	0.0	0	0	379	0.2	379	380	13.7	97.6
2025-09-14T01:50	10	0	0.0	0	0	379	0.2	379	380	13.7	97.5
2025-09-14T01:51	10	0	0.1	0	0	380	0.2	379	380	13.7	97.3
2025-09-14T01:52	10	0	0.1	0	0	379	0.2	379	380	13.7	97.0
2025-09-14T01:53	10	0	0.0	0	0	379	0.3	379	380	13.8	96.6
2025-09-14T01:54	10	0	0.1	0	0	379	0.2	379	380	13.8	95.9
2025-09-14T01:55	10	0	0.1	0	0	379	0.2	378	380	13.9	95.8
2025-09-14T01:56	10	0	0.1	0	0	379	0.2	379	380	13.9	95.5
2025-09-14T01:57	10	0	0.0	0	0	379	0.2	379	380	13.9	95.3
2025-09-14T01:58	10	0	0.0	0	0	379	0.2	379	380	13.9	95.4
2025-09-14T01:59	10	0	0.1	0	0	379	0.3	379	380	13.9	94.8
2025-09-14T02:00	10	0	0.0	0	0	380	0.3	379	380	13.9	94.2
2025-09-14T02:01	10	0	0.1	0	0	379	0.3	379	380	13.9	93.7
2025-09-14T02:02	10	0	0.0	0	0	379	0.2	379	380	14.0	92.9
2025-09-14T02:03	10	0	0.1	0	0	379	0.2	379	380	14.0	92.9
2025-09-14T02:04	10	0	0.1	0	0	379	0.2	379	380	14.0	93.2
2025-09-14T02:05	10	0	0.1	0	0	379	0.3	379	380	13.9	93.8
2025-09-14T02:06	10	0	0.0	0	0	380	0.2	379	380	13.9	94.0
2025-09-14T02:07	10	0	0.0	0	0	379	0.2	379	380	14.0	94.1
2025-09-14T02:08	10	0	0.1	0	0	379	0.3	379	380	13.9	94.6
2025-09-14T02:09	10	0	0.1	0	0	379	0.3	379	380	13.9	94.5
2025-09-14T02:10	10	0	0.1	0	0	380	0.2	379	380	14.0	94.2
2025-09-14T02:11	10	0	0.1	0	0	380	0.2	379	380	14.0	94.5
2025-09-14T02:12	10	0	0.1	0	0	380	0.2	379	380	13.9	94.9
2025-09-14T02:13	10	0	0.1	0	0	380	0.2	379	380	13.9	94.9
2025-09-14T02:14	10	0	0.1	0	0	380	0.2	379	380	13.9	95.0
2025-09-14T02:15	10	0	0.1	0	0	380	0.2	379	380	13.9	95.5
2025-09-14T02:16	10	0	0.1	0	0	380	0.2	379	380	13.9	95.9
2025-09-14T02:17	10	0	0.1	0	0	380	0.3	379	380	13.9	95.9
2025-09-14T02:18	10	0	0.1	0	0	380	0.2	379	380	13.9	96.3
2025-09-14T02:19	10	0	0.1	0	0	380	0.2	379	380	13.9	96.4
2025-09-14T02:20	10	0	0.1	0	0	380	0.2	379	380	13.8	96.6
2025-09-14T02:21	10	0	0.1	0	0	380	0.3	379	381	13.8	96.6
2025-09-14T02:22	10	0	0.1	0	0	380	0.3	379	380	13.8	96.7
2025-09-14T02:23	10	0	0.1	0	0	380	0.2	380	381	13.8	96.6
2025-09-14T02:24	10	0	0.1	0	0	380	0.2	379	380	13.8	96.5
2025-09-14T02:25	10	0	0.1	0	0	380	0.2	379	380	13.8	96.7
2025-09-14T02:26	10	0	0.1	0	0	379	0.2	379	380	13.8	96.8
2025-09-14T02:27	10	0	0.1	0	0	379	0.2	379	380	13.8	96.9
2025-09-14T02:28	10	0	0.1	0	0	379	0.2	379	380	13.8	97.1
2025-09-14T02:29	10	0	0.1	0	0	380	0.2	379	380	13.8	97.1
2025-09-14T02:30	10	0	0.1	0	0	379	0.2	379	380	13.8	96.9
2025-09-14T02:31	10	0	0.1	0	0	379	0.2	379	380	13.8	96.6
2025-09-14T02:32	10	0	0.1	0	0	380	0.2	379	380	13.8	96.6
2025-09-14T02:33	10	0	0.1	0	0	380	0.2	379	380	13.9	96.0
2025-09-14T02:34	10	0	0.1	0	0	380	0.2	379	380	13.9	96.0
2025-09-14T02:35	10	0	0.1	0	0	379	0.3	379	380	13.9	96.3
2025-09-14T02:36	10	0	0.1	0	0	379	0.2	379	380	13.8	96.7
2025-09-14T02:37	10	0	0.1	0	0	380	0.3	379	380	13.9	95.9
2025-09-14T02:38	10	0	0.1	0	0	380	0.3	379	380	14.0	93.9
2025-09-14T02:39	10	0	0.1	0	0	380	0.2	379	380	14.3	91.5
2025-09-14T02:40	10	0	0.1	0	0	380	0.3	379	381	14.4	90.6
2025-09-14T02:41	10	0	0.1	0	0	380	0.2	379	381	14.3	91.7
2025-09-14T02:42	10	0	0.1	0	0	380	0.2	379	380	14.3	91.4
2025-09-14T02:43	10	0	0.1	0	0	380	0.2	379	380	14.3	92.1
2025-09-14T02:44	10	0	0.1	0	0	380	0.3	379	380	14.3	91.8
2025-09-14T02:45	10	0	0.1	0	0	379	0.2	379	380	14.2	92.3
2025-09-14T02:46	10	0	0.1	0	0	379	0.3	378	380	14.2	92.9
2025-09-14T02:47	10	0	0.1	0	0	379	0.2	379	380	14.2	92.4
2025-09-14T02:48	10	0	0.1	0	0	379	0.2	379	380	14.2	92.8
2025-09-14T02:49	10	0	0.1	0	0	379	0.3	378	380	14.1	93.0
2025-09-14T02:50	10	0	0.1	0	0	379	0.3	379	380	14.1	93.1
2025-09-14T02:51	10	0	0.1	0	1	379	0.2	379	380	14.2	92.5
2025-09-14T02:52	10	0	0.1	0	0	379	0.2	379	380	14.2	92.5
2025-09-14T02:53	10	0	0.1	0	0	379	0.3	379	380	14.3	91.9
2025-09-14T02:54	10	0	0.1	0	0	379	0.2	379	380	14.2	92.6
2025-09-14T02:55	10	0	0.1	0	0	379	0.3	379	380	14.1	93.0
2025-09-14T02:56	10	0	0.1	0	0	379	0.2	379	380	14.1	93.3
2025-09-14T02:57	10	0	0.1	0	0	379	0.2	379	380	14.1	93.2
2025-09-14T02:58	10	0	0.1	0	0	379	0.2	379	380	14.1	93.7
2025-09-14T02:59	10	0	0.1	0	0	379	0.3	378	380	14.0	93.9
2025-09-14T03:00	10	0	0.1	0	0	379	0.2	379	380	14.0	93.9
2025-09-14T03:01	10	0	0.1	0	0	380	0.2	379	380	14.1	93.8
2025-09-14T03:02	10	0	0.1	0	0	380	0.3	379	380	14.1	93.5
2025-09-14T03:03	10	0	0.1	0	0	380	0.2	379	380	14.1	93.8
2025-09-14T03:04	10	0	0.1	0	0	380	0.2	380	381	14.0	94.3
2025-09-14T03:05	10	0	0.1	0	0	380	0.3	379	381	14.1	94.1
2025-09-14T03:06	10	0	0.1	0	0	380	0.2	379	380	14.0	94.4
2025-09-14T03:07	10	0	0.1	0	0	380	0.2	380	380	14.0	94.4
2025-09-14T03:08	10	0	0.1	0	0	380	0.2	379	380	14.0	94.6
2025-09-14T03:09	10	0	0.1	0	0	380	0.2	379	380	14.0	94.9
2025-09-14T03:10	10	0	0.1	0	0	379	0.3	378	380	13.9	95.4
2025-09-14T03:11	10	0	0.1	0	0	379	0.2	378	379	13.8	96.6
2025-09-14T03:12	10	0	0.1	0	0	379	0.3	378	379	13.7	96.7
2025-09-14T03:13	10	0	0.1	0	0	378	0.2	378	379	13.8	96.5
2025-09-14T03:14	10	0	0.1	0	0	379	0.2	378	379	13.8	96.8
2025-09-14T03:15	10	0	0.1	0	0	379	0.2	378	379	13.8	96.7
2025-09-14T03:16	10	0	0.0	0	0	379	0.2	378	379	13.8	96.4
2025-09-14T03:17	10	0	0.0	0	0	378	0.2	378	379	13.8	96.4
2025-09-14T03:18	10	0	0.0	0	0	378	0.3	378	379	13.8	96.4
2025-09-14T03:19	10	0	0.1	0	0	379	0.3	378	380	13.9	94.7
2025-09-14T03:20	10	0	0.0	0	0	378	0.2	378	379	14.0	93.7
2025-09-14T03:21	10	0	0.0	0	0	379	0.2	378	379	13.9	94.7
2025-09-14T03:22	10	0	0.1	0	0	379	0.2	378	379	13.9	94.8
2025-09-14T03:23	10	0	0.0	0	0	378	0.3	378	379	13.9	95.2
2025-09-14T03:24	10	0	0.1	0	0	378	0.2	378	379	13.9	95.2
2025-09-14T03:25	10	0	0.1	0	0	378	0.2	378	379	13.9	94.3
2025-09-14T03:26	10	0	0.1	0	0	378	0.2	378	379	14.0	93.8
2025-09-14T03:27	10	0	0.1	0	0	379	0.3	378	379	14.0	93.4
2025-09-14T03:28	10	0	0.1	0	0	378	0.2	378	379	14.0	92.9
2025-09-14T03:29	10	0	0.1	0	0	378	0.3	378	379	14.0	93.4
2025-09-14T03:30	10	0	0.1	0	0	378	0.3	378	379	14.0	92.7
2025-09-14T03:31	10	0	0.1	0	0	379	0.3	378	379	14.0	92.9
2025-09-14T03:32	10	0	0.1	0	0	379	0.2	378	379	14.0	92.7
2025-09-14T03:33	10	0	0.1	0	0	378	0.2	378	379	14.0	93.5
2025-09-14T03:34	10	0	0.1	0	0	378	0.2	378	379	14.0	93.4
2025-09-14T03:35	10	0	0.1	0	0	378	0.3	377	379	14.0	92.7
2025-09-14T03:36	10	0	0.1	0	0	379	0.2	378	379	14.1	92.4
2025-09-14T03:37	10	0	0.1	0	0	378	0.2	378	379	14.1	92.5
2025-09-14T03:38	10	0	0.1	0	0	378	0.2	378	379	14.0	92.9
2025-09-14T03:39	10	0	0.1	0	0	378	0.2	378	379	14.0	93.2
2025-09-14T03:40	10	0	0.1	0	0	378	0.1	378	378	14.0	93.2
2025-09-14T03:41	10	0	0.1	0	0	378	0.3	377	379	14.0	93.5
2025-09-14T03:42	10	0	0.1	0	0	378	0.2	378	379	14.0	92.8
2025-09-14T03:43	10	0	0.1	0	0	378	0.2	378	379	14.0	92.8
2025-09-14T03:44	10	0	0.1	0	0	378	0.3	377	379	14.0	93.1
2025-09-14T03:45	10	0	0.1	0	0	378	0.2	377	378	13.9	93.4
2025-09-14T03:46	10	0	0.1	0	0	378	0.2	377	379	14.0	92.8
2025-09-14T03:47	10	0	0.1	0	0	378	0.2	378	378	14.0	92.7
2025-09-14T03:48	10	0	0.1	0	0	378	0.3	377	378	14.0	92.9
2025-09-14T03:49	10	0	0.1	0	0	378	0.2	377	378	14.0	92.9
2025-09-14T03:50	10	0	0.1	0	0	378	0.2	378	378	14.0	92.8
2025-09-14T03:51	10	0	0.1	0	0	378	0.2	377	378	14.0	92.9
2025-09-14T03:52	10	0	0.1	0	0	378	0.2	377	378	14.0	92.3
2025-09-14T03:53	10	0	0.1	0	0	378	0.2	378	379	14.0	92.2
2025-09-14T03:54	10	0	0.1	0	0	378	0.2	377	378	14.0	92.4
2025-09-14T03:55	10	0	0.1	0	0	378	0.2	377	378	14.0	92.5
2025-09-14T03:56	10	0	0.1	0	0	378	0.2	377	378	14.0	92.3
2025-09-14T03:57	10	0	0.1	0	0	378	0.3	377	379	14.0	92.0
2025-09-14T03:58	10	0	0.1	0	0	377	0.3	377	378	14.0	92.3
2025-09-14T03:59	10	0	0.1	0	0	378	0.2	377	378	14.0	92.1
2025-09-14T04:00	10	0	0.1	0	0	377	0.2	377	378	13.9	92.6
2025-09-14T04:01	10	0	0.1	0	0	377	0.2	377	378	14.0	92.2
2025-09-14T04:02	10	0	0.1	0	0	377	0.2	377	378	14.0	92.2
2025-09-14T04:03	10	0	0.1	0	0	377	0.2	377	378	13.9	92.2
2025-09-14T04:04	10	0	0.1	0	0	377	0.3	376	378	13.9	92.3
2025-09-14T04:05	10	0	0.1	0	0	377	0.3	377	378	14.0	91.9
2025-09-14T04:06	10	0	0.1	0	0	377	0.3	377	378	13.9	92.0
2025-09-14T04:07	10	0	0.1	0	0	377	0.2	377	378	14.0	91.4
2025-09-14T04:08	10	0	0.1	0	0	377	0.2	377	378	14.0	91.2
2025-09-14T04:09	10	0	0.1	0	0	377	0.3	376	378	14.0	91.3
2025-09-14T04:10	10	0	0.1	0	0	377	0.3	376	377	14.0	91.5
2025-09-14T04:11	10	0	0.1	0	0	376	0.3	376	377	14.0	91.6
2025-09-14T04:12	10	0	0.1	0	0	376	0.3	376	377	14.0	90.9
2025-09-14T04:13	10	0	0.1	0	0	376	0.3	375	376	13.9	91.7
2025-09-14T04:14	10	0	0.1	0	0	376	0.2	375	376	13.9	91.8
2025-09-14T04:15	10	0	0.1	0	0	376	0.3	375	376	13.9	91.8
2025-09-14T04:16	10	0	0.1	0	0	376	0.3	375	376	13.9	91.7
2025-09-14T04:17	10	0	0.0	0	0	376	0.3	375	376	13.9	91.8
2025-09-14T04:18	10	0	0.1	0	0	376	0.2	376	377	13.9	91.5
2025-09-14T04:19	10	0	0.0	0	0	376	0.2	376	377	13.9	91.9
2025-09-14T04:20	10	0	0.1	0	0	376	0.3	375	377	13.8	92.1
2025-09-14T04:21	10	0	0.1	0	0	377	0.2	376	377	13.9	91.8
2025-09-14T04:22	10	0	0.0	0	0	377	0.2	376	377	13.9	91.6
2025-09-14T04:23	10	0	0.1	0	0	377	0.2	376	377	13.9	91.5
2025-09-14T04:24	10	0	0.1	0	0	377	0.2	377	377	13.9	91.3
2025-09-14T04:25	10	0	0.1	0	0	377	0.2	377	378	14.0	90.8
2025-09-14T04:26	10	0	0.1	0	0	377	0.2	377	378	14.0	90.3
2025-09-14T04:27	10	0	0.1	0	0	378	0.2	377	378	14.0	90.4
2025-09-14T04:28	10	0	0.1	0	0	378	0.2	377	378	14.0	90.4
2025-09-14T04:29	10	0	0.1	0	0	378	0.2	377	378	14.0	90.6
2025-09-14T04:30	10	0	0.1	0	0	378	0.3	377	378	14.0	90.5
2025-09-14T04:31	10	0	0.1	0	0	378	0.3	377	378	14.0	90.9
2025-09-14T04:32	10	0	0.1	0	0	378	0.3	377	378	14.0	90.6
2025-09-14T04:33	10	0	0.1	0	0	378	0.2	377	378	14.0	90.8
2025-09-14T04:34	10	0	0.1	0	0	378	0.2	377	378	14.0	90.8
2025-09-14T04:35	10	0	0.1	0	0	378	0.2	377	378	14.0	91.0
2025-09-14T04:36	10	0	0.1	0	0	378	0.2	377	378	13.9	91.4
2025-09-14T04:37	10	0	0.1	0	0	378	0.2	377	378	13.9	91.6
2025-09-14T04:38	10	0	0.1	0	0	378	0.3	377	378	13.9	91.6
2025-09-14T04:39	10	0	0.1	0	0	378	0.2	377	378	13.9	92.0
2025-09-14T04:40	10	0	0.1	0	0	378	0.3	377	378	13.8	92.2
2025-09-14T04:41	10	0	0.1	0	0	377	0.2	377	378	13.8	92.4
2025-09-14T04:42	10	0	0.1	0	0	377	0.2	377	378	13.8	92.7
2025-09-14T04:43	10	0	0.1	0	0	377	0.3	377	378	13.8	92.3
2025-09-14T04:44	10	0	0.1	0	0	378	0.2	377	378	13.8	92.4
2025-09-14T04:45	10	0	0.1	0	0	377	0.2	377	378	13.8	92.6
2025-09-14T04:46	10	0	0.1	0	0	377	0.2	377	378	13.8	92.6
2025-09-14T04:47	10	0	0.1	0	0	377	0.2	377	378	13.8	92.6
2025-09-14T04:48	10	0	0.1	0	0	377	0.2	377	378	13.8	92.6
2025-09-14T04:49	10	0	0.0	0	0	377	0.2	377	378	13.8	92.7
2025-09-14T04:50	10	0	0.1	0	0	378	0.2	377	378	13.8	91.8
2025-09-14T04:51	10	0	0.1	0	0	377	0.2	377	378	13.9	91.4
2025-09-14T04:52	10	0	0.1	0	0	378	0.2	377	378	13.9	91.6
2025-09-14T04:53	10	0	0.1	0	0	378	0.2	377	378	13.9	91.3
2025-09-14T04:54	10	0	0.1	0	0	378	0.2	377	378	13.9	90.6
2025-09-14T04:55	10	0	0.1	0	0	378	0.2	377	378	13.9	90.7
2025-09-14T04:56	10	0	0.1	0	0	378	0.2	377	378	13.9	91.2
2025-09-14T04:57	10	0	0.1	0	0	378	0.2	377	378	13.9	91.0
2025-09-14T04:58	10	0	0.1	0	0	378	0.2	377	378	13.9	91.5
2025-09-14T04:59	10	0	0.1	0	0	378	0.2	377	378	13.9	91.2
2025-09-14T05:00	10	0	0.1	0	0	378	0.2	377	378	13.9	91.8
2025-09-14T05:01	10	0	0.1	0	0	378	0.2	377	379	13.9	91.0
2025-09-14T05:02	10	0	0.1	0	0	378	0.2	377	378	13.9	91.5
2025-09-14T05:03	10	0	0.1	0	0	378	0.2	377	378	13.9	91.3
2025-09-14T05:04	10	0	0.1	0	0	378	0.2	377	379	13.9	90.8
2025-09-14T05:05	10	0	0.1	0	0	378	0.3	377	379	14.0	89.8
2025-09-14T05:06	10	0	0.1	0	0	378	0.2	378	379	14.0	89.8
2025-09-14T05:07	10	0	0.1	0	0	378	0.2	377	378	14.0	90.4
2025-09-14T05:08	10	0	0.1	0	1	378	0.2	378	378	13.9	90.7
2025-09-14T05:09	10	0	0.1	0	1	378	0.2	377	378	13.9	90.5
2025-09-14T05:10	10	0	0.1	0	1	378	0.3	377	378	13.9	91.0
2025-09-14T05:11	10	0	0.0	0	1	378	0.2	377	378	13.9	91.1
2025-09-14T05:12	10	0	0.1	0	1	378	0.2	377	378	13.9	91.5
2025-09-14T05:13	10	1	0.1	0	1	378	0.2	378	378	13.9	91.3
2025-09-14T05:14	10	0	0.1	0	1	378	0.3	377	378	13.9	91.1
2025-09-14T05:15	10	1	0.1	0	1	378	0.2	377	378	13.9	91.2
2025-09-14T05:16	10	1	0.1	1	1	378	0.2	377	378	13.8	91.6
2025-09-14T05:17	10	1	0.1	1	1	378	0.3	377	378	13.8	91.7
2025-09-14T05:18	10	1	0.1	1	1	378	0.2	377	378	13.8	92.5
2025-09-14T05:19	10	1	0.1	1	1	378	0.3	377	378	13.7	92.6
2025-09-14T05:20	10	1	0.1	1	1	378	0.2	377	378	13.8	92.4
2025-09-14T05:21	10	1	0.1	1	2	378	0.2	377	378	13.7	92.5
2025-09-14T05:22	10	1	0.1	1	2	378	0.2	377	378	13.7	92.5
2025-09-14T05:23	10	1	0.1	1	2	378	0.2	377	378	13.8	92.2
2025-09-14T05:24	10	1	0.1	1	2	378	0.3	377	378	13.8	92.1
2025-09-14T05:25	10	2	0.1	1	2	378	0.2	377	378	13.8	91.7
2025-09-14T05:26	10	2	0.1	2	2	378	0.2	377	378	13.9	91.6
2025-09-14T05:27	10	2	0.1	2	2	378	0.3	377	378	13.8	91.9
2025-09-14T05:28	10	2	0.1	2	2	378	0.2	377	378	13.8	91.8
2025-09-14T05:29	10	2	0.1	2	2	378	0.3	377	378	13.8	92.0
2025-09-14T05:30	10	2	0.1	2	2	378	0.2	378	379	13.8	92.2
2025-09-14T05:31	10	2	0.1	2	2	378	0.2	378	379	13.8	92.2
2025-09-14T05:32	10	2	0.1	2	2	378	0.3	377	378	13.8	92.3
2025-09-14T05:33	10	2	0.1	2	2	378	0.3	378	379	13.8	92.0
2025-09-14T05:34	10	2	0.1	2	2	378	0.2	377	379	13.8	92.4
2025-09-14T05:35	10	2	0.1	2	2	378	0.2	377	378	13.8	92.5
2025-09-14T05:36	10	2	0.1	2	3	378	0.2	377	379	13.7	92.7
2025-09-14T05:37	10	3	0.1	3	3	378	0.2	377	378	13.7	92.7
2025-09-14T05:38	10	3	0.1	3	3	378	0.2	378	379	13.8	92.4
2025-09-14T05:39	10	3	0.1	3	3	378	0.2	378	379	13.8	91.9
2025-09-14T05:40	10	3	0.1	3	3	378	0.2	378	379	13.8	91.9
2025-09-14T05:41	10	4	0.1	3	4	378	0.3	377	379	13.8	92.2
2025-09-14T05:42	10	4	0.1	4	4	378	0.3	378	379	13.8	92.3
2025-09-14T05:43	10	4	0.1	4	4	378	0.2	378	379	13.8	91.9
2025-09-14T05:44	10	4	0.2	4	5	379	0.2	378	379	13.9	91.4
2025-09-14T05:45	10	5	0.2	4	5	379	0.2	378	379	13.9	91.5
2025-09-14T05:46	10	5	0.1	5	5	379	0.3	378	379	13.9	91.4
2025-09-14T05:47	10	5	0.1	5	5	379	0.2	378	379	13.9	91.2
2025-09-14T05:48	10	5	0.1	5	5	379	0.2	378	379	13.9	91.0
2025-09-14T05:49	10	5	0.1	5	6	379	0.2	379	380	14.0	90.3
2025-09-14T05:50	10	6	0.1	5	6	379	0.3	378	380	14.0	90.9
2025-09-14T05:51	10	6	0.1	6	6	379	0.2	378	380	13.9	90.7
2025-09-14T05:52	10	6	0.1	6	6	379	0.3	378	380	13.9	91.0
2025-09-14T05:53	10	7	0.1	6	7	379	0.3	379	380	13.9	91.1
2025-09-14T05:54	10	7	0.1	7	7	379	0.3	379	380	13.9	90.8
2025-09-14T05:55	10	7	0.2	7	8	379	0.3	379	380	13.9	90.8
2025-09-14T05:56	10	8	0.2	8	8	380	0.2	379	380	14.0	90.7
2025-09-14T05:57	10	8	0.2	8	9	379	0.3	379	380	14.0	90.8
2025-09-14T05:58	10	9	0.2	8	9	380	0.3	379	380	14.0	90.6
2025-09-14T05:59	10	9	0.1	9	9	380	0.2	380	380	14.0	90.6
2025-09-14T06:00	10	10	0.2	9	10	380	0.3	379	380	14.0	89.9
2025-09-14T06:01	10	10	0.1	10	10	380	0.2	380	380	14.0	89.8
2025-09-14T06:02	10	10	0.1	10	10	380	0.2	380	381	14.1	89.7
2025-09-14T06:03	10	10	0.1	10	10	380	0.2	380	381	14.0	90.2
2025-09-14T06:04	10	10	0.1	10	10	380	0.4	379	381	14.0	90.3
2025-09-14T06:05	10	10	0.1	10	10	380	0.2	380	381	14.0	90.4
2025-09-14T06:06	10	10	0.2	10	10	380	0.3	379	381	14.0	90.8
2025-09-14T06:07	10	10	0.1	10	10	380	0.2	380	381	13.9	90.7
2025-09-14T06:08	10	10	0.1	10	10	380	0.3	380	381	14.0	89.9
2025-09-14T06:09	10	10	0.2	10	11	381	0.3	380	381	14.0	90.7
2025-09-14T06:10	10	11	0.2	11	11	381	0.2	380	381	14.0	89.8
2025-09-14T06:11	10	12	0.3	11	12	381	0.3	380	382	14.0	90.1
2025-09-14T06:12	10	13	0.2	12	13	381	0.2	380	381	14.0	89.3
2025-09-14T06:13	10	13	0.3	13	14	381	0.3	380	382	14.1	88.5
2025-09-14T06:14	10	14	0.1	14	14	381	0.2	381	382	14.1	87.6
2025-09-14T06:15	10	14	0.1	14	15	381	0.3	381	382	14.2	87.0
2025-09-14T06:16	10	15	0.1	14	15	381	0.2	381	382	14.3	85.4
2025-09-14T06:17	10	14	0.1	14	14	381	0.3	381	382	14.2	86.7
2025-09-14T06:18	10	14	0.2	13	14	381	0.5	381	382	14.2	85.8
2025-09-14T06:19	10	13	0.2	13	13	381	0.3	381	382	14.2	85.1
2025-09-14T06:20	10	13	0.2	12	13	381	0.2	380	381	14.2	85.5
2025-09-14T06:21	10	12	0.1	12	12	381	0.2	380	381	14.2	85.6
2025-09-14T06:22	10	12	0.1	12	12	381	0.2	380	381	14.2	85.3
2025-09-14T06:23	10	12	0.1	12	13	381	0.2	380	381	14.2	85.1
2025-09-14T06:24	10	13	0.2	12	13	380	0.2	380	381	14.2	85.8
2025-09-14T06:25	10	14	0.3	13	14	381	0.2	380	381	14.2	85.4
2025-09-14T06:26	10	15	0.4	14	15	381	0.2	380	381	14.1	85.8
2025-09-14T06:27	10	16	0.3	15	16	381	0.2	381	382	14.1	86.6
2025-09-14T06:28	10	16	0.2	16	17	381	0.2	381	382	14.1	87.0
2025-09-14T06:29	10	17	0.2	17	17	381	0.2	381	382	14.1	87.1
2025-09-14T06:30	10	18	0.2	17	18	382	0.2	381	382	14.1	86.8
2025-09-14T06:31	10	18	0.2	18	19	382	0.2	381	382	14.1	87.1
2025-09-14T06:32	10	19	0.2	19	19	382	0.3	381	382	14.0	87.6
2025-09-14T06:33	10	20	0.1	19	20	382	0.2	381	382	14.0	88.2
2025-09-14T06:34	10	20	0.1	20	20	382	0.2	381	382	14.0	88.5
2025-09-14T06:35	10	20	0.2	20	21	382	0.3	381	382	14.0	88.5
2025-09-14T06:36	10	21	0.2	21	21	382	0.2	381	382	14.0	88.5
2025-09-14T06:37	10	21	0.1	21	21	382	0.1	382	382	14.0	89.0
2025-09-14T06:38	10	21	0.2	20	21	382	0.3	381	383	14.0	88.8
2025-09-14T06:39	10	20	0.1	20	20	382	0.3	382	383	14.0	89.0
2025-09-14T06:40	10	20	0.1	20	20	382	0.3	381	382	13.9	89.4
2025-09-14T06:41	10	20	0.1	20	20	382	0.2	382	382	13.9	89.6
2025-09-14T06:42	10	20	0.1	20	20	382	0.3	382	383	13.9	89.7
2025-09-14T06:43	10	20	0.1	20	20	382	0.2	382	383	13.9	90.1
2025-09-14T06:44	10	20	0.1	20	21	382	0.3	381	383	14.0	89.6
2025-09-14T06:45	10	21	0.3	20	21	383	0.2	382	383	14.0	89.6
2025-09-14T06:46	10	22	0.3	21	23	383	0.3	382	384	14.0	89.4
2025-09-14T06:47	10	23	0.3	22	24	383	0.4	382	384	14.0	89.6
2025-09-14T06:48	10	24	0.2	24	24	383	0.3	382	384	14.0	89.2
2025-09-14T06:49	10	24	0.1	24	25	383	0.2	382	383	14.1	88.3
2025-09-14T06:50	10	24	0.1	24	25	383	0.4	382	384	14.1	89.2
2025-09-14T06:51	10	24	0.1	24	24	383	0.3	383	384	14.1	89.3
2025-09-14T06:52	10	24	0.1	24	24	383	0.2	383	384	14.1	89.1
2025-09-14T06:53	10	24	0.1	24	24	383	0.3	383	384	14.1	89.2
2025-09-14T06:54	10	24	0.1	23	24	383	0.2	383	384	14.1	89.3
2025-09-14T06:55	10	23	0.1	23	24	384	0.2	383	384	14.2	88.9
2025-09-14T06:56	10	24	0.1	23	24	384	0.3	383	384	14.2	89.0
2025-09-14T06:57	10	24	0.1	24	24	383	0.3	383	384	14.2	89.0
2025-09-14T06:58	10	24	0.1	23	24	384	0.3	383	384	14.2	88.6
2025-09-14T06:59	10	23	0.1	23	24	384	0.4	383	384	14.3	88.8
2025-09-14T07:00	10	23	0.2	23	23	383	0.2	383	384	14.3	88.0
2025-09-14T07:01	10	22	0.3	22	23	383	0.3	383	384	14.3	88.4
2025-09-14T07:02	10	22	0.1	21	22	383	0.3	382	384	14.3	87.7
2025-09-14T07:03	10	22	0.1	22	22	383	0.2	382	384	14.3	88.5
2025-09-14T07:04	10	22	0.2	22	23	383	0.2	382	383	14.3	87.9
2025-09-14T07:05	10	23	0.3	23	24	383	0.5	382	384	14.3	88.5
2025-09-14T07:06	10	24	0.3	24	25	383	0.3	382	383	14.3	88.8
2025-09-14T07:07	10	25	0.2	25	26	383	0.2	382	383	14.3	88.6
2025-09-14T07:08	10	26	0.1	25	26	383	0.3	383	384	14.3	89.2
2025-09-14T07:09	10	25	0.2	25	26	384	0.2	383	384	14.3	89.4
2025-09-14T07:10	10	25	0.2	25	25	384	0.3	383	385	14.3	89.2
2025-09-14T07:11	10	24	0.2	24	25	384	0.3	383	384	14.3	89.0
2025-09-14T07:12	10	24	0.2	24	24	384	0.3	383	385	14.3	89.1
2025-09-14T07:13	10	24	0.1	24	24	384	0.2	384	385	14.3	89.9
2025-09-14T07:14	10	24	0.2	24	25	384	0.2	384	385	14.3	89.7
2025-09-14T07:15	10	25	0.2	25	25	385	0.2	384	385	14.3	89.0
2025-09-14T07:16	10	26	0.3	25	27	385	0.2	384	385	14.3	89.2
2025-09-14T07:17	10	27	0.4	26	28	385	0.3	384	385	14.3	88.8
2025-09-14T07:18	10	29	0.5	28	29	385	0.3	385	386	14.3	89.4
2025-09-14T07:19	10	30	0.4	29	31	385	0.3	384	386	14.3	89.0
2025-09-14T07:20	10	31	0.4	31	32	385	0.4	385	386	14.4	89.0
2025-09-14T07:21	10	33	0.3	32	33	386	0.3	385	387	14.4	89.2
2025-09-14T07:22	10	34	0.3	33	34	386	0.3	385	386	14.4	88.5
2025-09-14T07:23	10	35	0.3	34	35	386	0.2	385	386	14.4	88.2
2025-09-14T07:24	10	36	0.3	35	36	386	0.3	385	387	14.4	88.5
2025-09-14T07:25	10	37	0.5	36	38	386	0.3	386	387	14.4	88.3
2025-09-14T07:26	10	38	0.4	38	39	386	0.3	386	387	14.5	87.8
2025-09-14T07:27	10	39	0.2	39	40	386	0.2	386	387	14.5	87.7
2025-09-14T07:28	10	40	0.1	40	40	387	0.3	386	387	14.5	87.9
2025-09-14T07:29	10	40	0.1	39	40	387	0.3	386	388	14.5	88.3
2025-09-14T07:30	10	40	0.2	39	40	387	0.2	387	388	14.5	88.4
2025-09-14T07:31	10	40	0.3	40	41	388	0.4	387	389	14.6	88.7
2025-09-14T07:32	10	41	0.3	41	42	388	0.3	388	389	14.6	88.8
2025-09-14T07:33	10	42	0.3	41	43	389	0.5	388	390	14.6	89.0
2025-09-14T07:34	10	43	0.3	42	43	390	0.3	389	390	14.6	89.3
2025-09-14T07:35	10	44	0.4	43	45	390	0.2	390	391	14.7	89.4
2025-09-14T07:36	10	45	0.3	44	46	390	0.3	390	391	14.7	88.2
2025-09-14T07:37	10	46	0.3	45	47	391	0.4	390	391	14.8	87.2
2025-09-14T07:38	10	47	0.2	46	47	391	0.3	390	391	14.8	86.7
2025-09-14T07:39	10	48	0.3	47	49	391	0.3	390	392	14.9	84.9
2025-09-14T07:40	10	48	0.2	47	48	391	0.3	390	392	15.0	84.6
2025-09-14T07:41	10	48	0.2	48	49	391	0.5	390	391	15.0	84.0
2025-09-14T07:42	10	48	0.2	48	49	391	0.3	390	391	15.1	84.2
2025-09-14T07:43	10	48	0.2	48	49	391	0.2	391	392	15.1	84.6
2025-09-14T07:44	10	48	0.2	48	49	391	0.4	390	392	15.1	83.8
2025-09-14T07:45	10	48	0.1	48	48	391	0.3	390	391	15.1	83.5
2025-09-14T07:46	10	49	0.2	48	49	391	0.3	390	391	15.2	81.7
2025-09-14T07:47	10	49	0.3	49	50	391	0.2	391	391	15.2	82.6
2025-09-14T07:48	10	50	0.3	49	50	391	0.3	390	391	15.2	82.8
2025-09-14T07:49	10	51	0.3	50	52	392	0.3	391	392	15.2	83.5
2025-09-14T07:50	10	51	0.2	51	52	392	0.4	391	392	15.2	84.0
2025-09-14T07:51	10	52	0.2	52	52	392	0.2	391	392	15.2	84.0
2025-09-14T07:52	10	52	0.2	52	53	392	0.2	392	393	15.2	83.8
2025-09-14T07:53	10	53	0.2	52	53	392	0.3	392	393	15.2	83.3
2025-09-14T07:54	10	53	0.3	53	54	393	0.3	392	394	15.2	83.3
2025-09-14T07:55	10	54	0.3	54	55	393	0.3	392	394	15.3	83.2
2025-09-14T07:56	10	55	0.2	55	56	394	0.2	393	394	15.3	83.5
2025-09-14T07:57	10	54	0.5	53	55	394	0.3	393	395	15.3	84.2
2025-09-14T07:58	10	53	0.5	52	53	394	0.3	393	394	15.3	83.7
2025-09-14T07:59	10	51	0.3	51	52	394	0.2	393	394	15.3	83.4
2025-09-14T08:00	10	51	0.1	50	51	394	0.2	393	394	15.4	83.6
2025-09-14T08:01	10	50	0.1	50	50	394	0.3	393	395	15.4	83.4
2025-09-14T08:02	10	50	0.1	50	51	393	0.5	392	394	15.4	82.3
2025-09-14T08:03	10	50	0.2	49	50	393	0.3	392	393	15.4	82.2
2025-09-14T08:04	10	49	0.2	49	49	393	0.2	393	394	15.4	82.8
2025-09-14T08:05	10	49	0.1	49	49	394	0.2	393	394	15.5	83.3
2025-09-14T08:06	10	49	0.1	49	49	393	0.4	392	394	15.5	82.8
2025-09-14T08:07	10	49	0.3	49	50	393	0.3	393	394	15.5	82.7
2025-09-14T08:08	10	51	0.7	50	53	393	0.2	392	394	15.5	82.7
2025-09-14T08:09	10	54	1.8	52	58	393	0.2	393	394	15.5	82.7
2025-09-14T08:10	10	52	0.8	51	54	393	0.4	392	394	15.4	81.3
2025-09-14T08:11	10	50	0.7	49	52	394	0.6	392	394	15.5	82.7
2025-09-14T08:12	10	49	0.8	47	51	393	0.3	392	394	15.5	82.7
2025-09-14T08:13	10	48	1.0	47	51	393	0.3	392	394	15.5	82.7
2025-09-14T08:14	10	50	1.6	47	53	393	0.2	392	393	15.5	82.5
2025-09-14T08:15	10	57	2.1	53	62	394	0.7	393	395	15.6	82.7
2025-09-14T08:16	10	66	3.5	56	71	395	0.8	393	396	15.6	83.2
2025-09-14T08:17	10	64	2.1	61	69	395	0.3	395	396	15.6	82.7
2025-09-14T08:18	10	64	2.6	60	70	396	0.4	395	396	15.6	82.9
2025-09-14T08:19	10	64	2.5	60	71	395	0.3	395	396	15.6	82.4
2025-09-14T08:20	10	65	1.8	63	70	396	0.3	395	396	15.7	82.8
2025-09-14T08:21	10	88	8.7	71	103	398	1.2	395	399	15.7	82.9
2025-09-14T08:22	10	83	7.3	72	99	398	0.4	397	399	15.7	82.4
2025-09-14T08:23	10	90	8.7	77	105	400	1.1	398	401	15.8	82.5
2025-09-14T08:24	10	88	7.1	74	102	401	0.4	400	401	15.9	82.6
2025-09-14T08:25	10	90	6.7	78	104	402	0.6	401	403	15.9	81.9
2025-09-14T08:26	10	91	6.4	79	100	402	1.0	401	404	15.9	81.8
2025-09-14T08:27	10	81	4.6	72	89	402	0.7	401	403	16.0	81.7
2025-09-14T08:28	10	72	2.5	68	77	400	1.0	398	402	16.0	81.0
2025-09-14T08:29	10	75	2.2	71	79	400	0.3	399	400	16.0	81.2
2025-09-14T08:30	10	73	2.0	70	78	400	0.3	399	401	16.0	81.4
2025-09-14T08:31	10	77	3.0	73	83	401	0.3	401	402	16.1	81.0
2025-09-14T08:32	10	76	3.0	72	83	401	0.9	399	402	16.1	80.2
2025-09-14T08:33	10	81	6.2	75	97	399	0.4	398	400	16.1	77.5
2025-09-14T08:34	10	81	4.3	75	94	400	0.9	399	402	16.1	77.6
2025-09-14T08:35	10	80	2.1	76	84	402	0.3	401	402	16.1	78.8
2025-09-14T08:36	10	75	1.2	73	78	402	0.3	401	402	16.2	79.7
2025-09-14T08:37	10	74	1.8	72	80	400	0.4	400	402	16.2	78.9
2025-09-14T08:38	10	77	2.9	73	84	401	0.6	400	402	16.2	80.5
2025-09-14T08:39	10	79	2.8	75	85	401	0.4	400	402	16.2	79.5
2025-09-14T08:40	10	78	1.7	75	81	400	0.4	399	401	16.2	79.4
2025-09-14T08:41	10	81	6.0	72	91	400	0.3	399	401	16.1	79.4
2025-09-14T08:42	10	74	3.8	68	83	401	0.4	400	402	16.2	80.8
2025-09-14T08:43	10	74	5.3	68	87	401	0.6	400	402	16.2	79.6
2025-09-14T08:44	10	84	6.2	76	102	403	0.5	402	404	16.3	80.1
2025-09-14T08:45	10	69	3.7	64	76	401	1.9	398	405	16.3	78.3
2025-09-14T08:46	10	65	2.8	62	71	398	0.7	397	400	16.4	74.7
2025-09-14T08:47	10	69	4.3	61	78	398	0.4	397	399	16.4	74.2
2025-09-14T08:48	10	81	9.7	69	108	399	0.7	398	402	16.4	75.0
2025-09-14T08:49	10	125	15.9	96	150	404	1.7	400	408	16.5	76.1
2025-09-14T08:50	10	142	6.7	122	148	409	1.3	406	411	16.5	76.2
2025-09-14T08:51	10	142	0.9	140	144	411	0.5	410	412	16.6	76.3
2025-09-14T08:52	10	139	0.7	138	141	412	0.7	410	413	16.7	76.0
2025-09-14T08:53	10	137	0.5	136	138	412	0.7	411	414	16.7	75.8
2025-09-14T08:54	10	134	1.0	133	137	412	0.5	411	413	16.7	74.6
2025-09-14T08:55	10	133	1.5	130	135	413	0.4	412	414	16.8	74.9
2025-09-14T08:56	10	124	4.9	116	133	414	0.7	413	415	17.0	75.2
2025-09-14T08:57	10	130	9.1	114	140	413	0.6	412	414	17.0	72.5
2025-09-14T08:58	10	124	14.4	94	139	413	2.2	410	415	17.1	73.0
2025-09-14T08:59	10	125	14.1	103	142	411	0.7	410	413	16.9	70.7
2025-09-14T09:00	10	142	1.5	138	144	413	1.2	412	416	17.0	71.9
2025-09-14T09:01	10	143	0.6	142	144	414	1.3	412	416	17.0	71.4
2025-09-14T09:02	10	146	1.6	141	147	413	0.3	413	414	16.9	71.8
2025-09-14T09:03	10	145	2.5	140	148	415	0.5	414	416	16.9	72.2
2025-09-14T09:04	10	141	0.7	139	142	416	0.6	415	418	17.1	72.9
2025-09-14T09:05	10	142	0.3	142	143	416	0.3	416	417	17.1	71.7
2025-09-14T09:06	10	144	1.1	143	147	417	0.3	416	418	17.2	72.7
2025-09-14T09:07	10	148	1.8	143	150	418	0.3	418	419	17.4	72.0
2025-09-14T09:08	10	151	1.0	148	152	418	0.4	418	419	17.4	69.7
2025-09-14T09:09	10	150	1.8	147	152	419	0.3	419	420	17.4	70.7
2025-09-14T09:10	10	145	1.4	143	147	418	0.4	418	419	17.3	70.0
2025-09-14T09:11	10	141	0.8	140	143	420	0.7	419	422	17.4	70.9
2025-09-14T09:12	10	140	0.1	140	140	420	1.3	418	422	17.6	70.8
2025-09-14T09:13	10	140	0.2	140	140	420	1.1	419	422	17.5	71.5
2025-09-14T09:14	10	141	0.1	140	141	421	1.2	419	423	17.7	71.4
2025-09-14T09:15	10	140	0.3	140	141	420	0.4	420	421	17.6	69.5
2025-09-14T09:16	10	140	0.3	139	140	421	0.4	420	422	17.8	71.1
2025-09-14T09:17	10	141	0.8	140	143	419	1.0	417	421	17.8	69.8
2025-09-14T09:18	10	145	1.3	143	147	418	0.3	417	419	17.6	70.0
2025-09-14T09:19	10	146	0.7	146	148	419	1.1	417	420	17.6	70.1
2025-09-14T09:20	10	150	0.7	148	151	420	1.0	419	422	17.6	67.8
2025-09-14T09:21	10	150	0.3	149	150	422	0.5	421	423	17.7	69.4
2025-09-14T09:22	10	150	0.9	148	152	420	1.2	419	423	17.7	67.7
2025-09-14T09:23	10	153	2.4	148	157	422	1.2	419	423	17.7	69.7
2025-09-14T09:24	10	156	8.2	144	166	423	0.4	422	424	17.7	69.3
2025-09-14T09:25	10	165	2.3	157	168	424	0.8	423	425	17.7	68.7
2025-09-14T09:26	10	166	1.0	164	168	422	1.4	420	425	17.6	67.5
2025-09-14T09:27	10	161	1.6	159	164	422	0.4	421	423	17.7	68.3
2025-09-14T09:28	10	154	4.4	141	159	425	1.2	423	428	17.8	69.5
2025-09-14T09:29	10	153	1.3	145	154	425	0.6	424	427	18.1	70.0
2025-09-14T09:30	10	144	17.5	90	156	424	1.9	419	426	18.0	68.3
2025-09-14T09:31	10	145	20.9	95	162	420	1.0	418	422	17.8	67.1
2025-09-14T09:32	10	165	6.9	130	172	420	0.6	419	421	17.8	65.7
2025-09-14T09:33	10	156	35.6	71	178	420	1.2	417	421	17.7	66.6
2025-09-14T09:34	10	173	16.7	94	180	424	3.3	416	428	18.0	69.2
2025-09-14T09:35	10	179	2.8	174	183	429	2.3	426	432	18.1	68.8
2025-09-14T09:36	10	183	1.2	181	185	428	1.6	427	432	18.0	66.2
2025-09-14T09:37	10	156	20.1	129	182	427	1.9	425	430	18.0	68.2
2025-09-14T09:38	10	160	10.0	125	169	424	0.9	423	426	17.9	66.3
2025-09-14T09:39	10	161	0.9	160	164	423	0.9	421	424	17.8	67.2
2025-09-14T09:40	10	163	0.8	160	164	426	1.8	423	428	18.1	68.7
2025-09-14T09:41	10	160	1.3	158	162	428	0.9	426	429	18.4	68.6
2025-09-14T09:42	10	156	1.5	153	158	427	0.4	426	428	18.3	69.0
2025-09-14T09:43	10	151	1.0	150	153	423	1.5	422	427	18.1	66.4
2025-09-14T09:44	10	149	0.2	149	150	423	0.3	422	423	17.8	66.1
2025-09-14T09:45	10	150	0.5	149	151	424	0.8	423	425	17.8	67.6
2025-09-14T09:46	10	152	0.7	151	153	423	0.8	422	425	17.9	67.1
2025-09-14T09:47	10	155	1.2	153	157	426	0.6	424	427	17.9	67.8
2025-09-14T09:48	10	160	1.5	157	163	426	0.6	425	428	17.9	67.0
2025-09-14T09:49	10	167	2.4	163	171	426	0.9	425	428	18.0	66.4
2025-09-14T09:50	10	175	1.8	171	177	428	0.6	427	429	18.0	66.3
2025-09-14T09:51	10	179	1.1	177	180	430	2.0	428	433	18.2	68.0
2025-09-14T09:52	10	173	13.2	141	182	428	1.3	426	431	18.1	65.7
2025-09-14T09:53	10	126	43.8	50	179	423	3.0	418	428	18.1	66.6
2025-09-14T09:54	10	179	5.6	163	186	429	2.4	424	433	18.2	67.1
2025-09-14T09:55	10	107	50.0	56	185	426	6.0	416	434	18.2	65.9
2025-09-14T09:56	10	97	46.1	57	182	418	1.9	415	423	18.1	66.7
2025-09-14T09:57	10	54	24.9	42	166	416	3.9	411	424	18.1	67.3
2025-09-14T09:58	10	44	1.5	43	49	410	1.3	408	413	18.1	67.0
2025-09-14T09:59	10	84	42.1	42	167	411	2.8	407	416	17.9	66.4
2025-09-14T10:00	10	72	45.6	40	168	409	2.3	407	416	18.0	67.6
2025-09-14T10:01	10	92	60.8	36	173	417	3.6	411	423	18.0	66.9
2025-09-14T10:02	10	39	1.6	36	42	408	1.9	406	413	17.9	65.4
2025-09-14T10:03	10	75	46.5	42	183	408	3.1	405	417	17.8	64.8
2025-09-14T10:04	10	142	40.3	72	183	421	3.0	413	425	17.9	65.9
2025-09-14T10:05	10	88	33.7	49	155	417	2.7	413	421	17.9	64.3
2025-09-14T10:06	10	114	37.1	54	165	415	3.3	411	422	17.9	64.1
2025-09-14T10:07	10	163	0.9	162	165	423	1.6	420	426	18.1	62.5
2025-09-14T10:08	10	165	1.8	162	167	427	1.0	425	428	18.2	61.8
2025-09-14T10:09	10	169	2.5	166	177	426	1.4	424	428	18.2	60.4
2025-09-14T10:10	10	181	3.8	169	185	430	1.5	427	432	18.4	61.9
2025-09-14T10:11	10	186	2.1	181	191	433	0.8	432	434	18.5	61.5
2025-09-14T10:12	10	149	33.3	95	197	432	1.7	429	435	18.6	62.4
2025-09-14T10:13	10	112	23.2	84	151	429	3.0	423	433	18.5	61.4
2025-09-14T10:14	10	140	41.9	88	189	424	2.5	420	429	18.4	61.5
2025-09-14T10:15	10	182	2.2	179	188	430	1.4	427	432	18.4	61.0
2025-09-14T10:16	10	180	1.6	176	183	433	0.4	432	434	18.5	61.0
2025-09-14T10:17	10	179	1.3	176	181	431	1.1	430	433	18.5	59.9
2025-09-14T10:18	10	177	3.6	171	184	431	0.8	430	432	18.5	60.3
2025-09-14T10:19	10	190	2.4	183	192	432	0.5	431	433	18.7	61.6
2025-09-14T10:20	10	190	0.7	189	192	432	1.1	431	434	18.8	60.6
2025-09-14T10:21	10	183	7.2	166	190	433	2.0	431	437	19.0	62.2
2025-09-14T10:22	10	149	29.9	80	182	434	1.6	431	437	19.1	61.3
2025-09-14T10:23	10	165	4.5	157	174	434	1.0	432	436	19.1	60.3
2025-09-14T10:24	10	160	0.4	159	161	431	2.1	426	433	18.9	60.4
2025-09-14T10:25	10	161	0.5	160	162	428	0.4	427	429	18.9	61.2
2025-09-14T10:26	10	161	0.7	160	162	427	1.8	425	430	18.7	60.1
2025-09-14T10:27	10	158	0.7	157	159	427	0.4	426	428	18.7	59.5
2025-09-14T10:28	10	157	0.9	156	158	430	1.6	427	432	18.7	60.0
2025-09-14T10:29	10	155	0.2	155	156	429	0.5	428	431	18.6	59.3
2025-09-14T10:30	10	157	1.3	155	160	429	0.6	428	431	18.6	59.7
2025-09-14T10:31	10	161	12.1	92	171	432	1.2	430	434	19.0	60.8
2025-09-14T10:32	10	56	19.6	38	119	423	4.9	417	434	19.0	60.3
2025-09-14T10:33	10	121	51.4	49	170	420	4.3	414	428	18.7	59.9
2025-09-14T10:34	10	162	1.8	159	165	427	0.5	426	428	18.6	60.4
2025-09-14T10:35	10	159	1.1	156	160	426	0.7	425	428	18.6	60.4
2025-09-14T10:36	10	157	0.6	156	158	430	1.8	426	433	18.6	60.9
2025-09-14T10:37	10	156	0.2	155	156	433	0.5	431	434	18.9	61.6
2025-09-14T10:38	10	155	0.4	154	156	433	0.8	432	435	19.0	60.2
2025-09-14T10:39	10	155	0.1	154	155	432	0.6	431	434	18.8	59.4
2025-09-14T10:40	10	155	0.8	154	157	435	0.9	433	436	19.1	61.6
2025-09-14T10:41	10	159	1.4	157	162	432	0.4	431	433	18.8	58.8
2025-09-14T10:42	10	162	1.1	160	163	434	0.9	432	436	18.7	60.4
2025-09-14T10:43	10	156	1.7	154	159	433	2.0	430	436	18.9	60.1
2025-09-14T10:44	10	153	0.4	152	154	432	0.7	431	433	18.8	59.8
2025-09-14T10:45	10	153	0.1	153	153	430	0.8	429	432	18.8	59.8
2025-09-14T10:46	10	153	0.5	152	153	430	0.5	429	432	18.7	59.5
2025-09-14T10:47	10	153	0.7	151	154	433	1.1	431	435	18.8	60.7
2025-09-14T10:48	10	154	0.4	152	154	434	2.0	429	436	19.0	60.7
2025-09-14T10:49	10	154	0.7	151	155	431	0.6	429	431	18.8	58.7
2025-09-14T10:50	10	154	0.2	154	155	430	0.5	429	431	18.8	58.0
2025-09-14T10:51	10	156	0.7	155	157	431	0.6	430	432	19.0	58.8
2025-09-14T10:52	10	150	23.1	81	164	433	1.0	430	434	19.1	59.7
2025-09-14T10:53	10	152	11.4	121	164	432	0.8	430	434	19.0	58.7
2025-09-14T10:54	10	158	1.9	156	162	435	0.9	433	436	19.2	61.3
2025-09-14T10:55	10	155	2.0	146	156	433	1.6	430	435	19.2	58.0
2025-09-14T10:56	10	156	1.3	148	156	431	1.2	430	434	19.0	58.3
2025-09-14T10:57	10	145	23.2	85	161	431	3.1	423	435	19.1	58.0
2025-09-14T10:58	10	146	19.9	88	157	426	1.6	423	428	19.0	57.1
2025-09-14T10:59	10	155	0.1	155	155	428	0.4	427	428	18.9	56.3
2025-09-14T11:00	10	156	0.6	155	157	430	1.3	427	432	19.1	58.1
2025-09-14T11:01	10	159	3.2	150	163	430	0.6	429	431	19.2	57.3
2025-09-14T11:02	10	124	29.1	65	157	425	2.9	421	431	19.1	55.7
2025-09-14T11:03	10	124	41.6	55	165	422	2.2	418	425	19.0	53.3
2025-09-14T11:04	10	158	3.7	151	163	427	1.4	424	428	19.0	53.6
2025-09-14T11:05	10	158	1.0	157	160	431	1.1	428	432	19.2	54.5
2025-09-14T11:06	10	155	1.7	150	157	430	0.8	428	431	19.1	53.5
2025-09-14T11:07	10	155	1.1	154	157	431	1.0	429	432	19.3	54.8
2025-09-14T11:08	10	154	1.9	151	156	432	0.9	430	434	19.3	55.3
2025-09-14T11:09	10	153	1.1	151	156	430	1.9	427	433	19.4	54.5
2025-09-14T11:10	10	153	1.3	150	155	428	1.2	425	430	19.2	54.1
2025-09-14T11:11	10	152	1.3	149	155	425	0.6	424	426	19.0	53.3
2025-09-14T11:12	10	142	32.8	48	161	427	1.3	423	429	19.1	53.2
2025-09-14T11:13	10	112	45.0	44	163	424	2.9	419	429	19.2	54.9
2025-09-14T11:14	10	144	18.8	100	160	426	1.9	423	429	19.3	54.3
2025-09-14T11:15	10	158	0.2	157	158	428	0.6	426	429	19.3	54.5
2025-09-14T11:16	10	155	3.4	145	158	428	0.6	427	429	19.3	54.1
2025-09-14T11:17	10	152	5.5	143	158	429	0.5	428	430	19.3	54.4
2025-09-14T11:18	10	150	4.9	141	156	428	1.0	427	430	19.3	54.7
2025-09-14T11:19	10	145	1.7	141	148	428	0.4	427	429	19.1	54.7
2025-09-14T11:20	10	147	4.1	141	154	430	0.6	429	431	19.3	55.1
2025-09-14T11:21	10	153	8.2	142	169	428	1.5	426	431	19.3	53.1
2025-09-14T11:22	10	169	2.4	164	172	429	1.3	426	431	19.4	52.9
2025-09-14T11:23	10	167	3.1	156	170	431	1.3	429	433	19.4	51.6
2025-09-14T11:24	10	172	1.6	169	174	432	0.7	431	434	19.5	52.0
2025-09-14T11:25	10	164	9.5	141	175	432	1.9	430	435	19.7	51.8
2025-09-14T11:26	10	166	6.7	153	174	432	0.6	431	433	19.5	51.6
2025-09-14T11:27	10	161	20.4	97	172	434	1.4	431	436	19.8	54.3
2025-09-14T11:28	10	169	0.8	168	172	434	0.5	433	435	19.6	52.5
2025-09-14T11:29	10	160	15.8	118	176	434	0.6	433	435	19.5	53.3
2025-09-14T11:30	10	130	29.7	91	175	431	1.3	427	433	19.5	54.4
2025-09-14T11:31	10	151	19.4	99	175	429	1.3	427	432	19.5	54.8
2025-09-14T11:32	10	169	1.0	168	172	432	0.2	431	432	19.5	55.5
2025-09-14T11:33	10	169	0.8	168	171	433	0.5	432	434	19.4	54.7
2025-09-14T11:34	10	170	2.1	167	174	435	1.6	432	437	19.4	55.1
2025-09-14T11:35	10	171	10.7	137	185	436	0.9	435	438	19.6	53.3
2025-09-14T11:36	10	182	18.9	134	196	437	0.8	435	438	19.6	53.0
2025-09-14T11:37	10	174	26.3	126	205	437	2.1	432	439	19.7	53.2
2025-09-14T11:38	10	108	12.2	86	126	430	2.4	426	434	19.5	53.3
2025-09-14T11:39	10	95	5.1	90	113	423	1.6	421	428	19.5	53.1
2025-09-14T11:40	10	114	13.3	92	140	422	1.0	421	425	19.3	54.3
2025-09-14T11:41	10	115	8.2	102	132	424	1.0	422	425	19.3	54.6
2025-09-14T11:42	10	172	37.6	102	232	429	3.0	422	433	19.3	55.0
2025-09-14T11:43	10	137	33.7	99	219	428	2.3	424	432	19.3	53.4
2025-09-14T11:44	10	132	16.1	96	166	426	1.1	424	428	19.3	55.1
2025-09-14T11:45	10	101	13.5	85	135	424	0.9	421	426	19.4	54.3
2025-09-14T11:46	10	82	1.8	79	86	418	1.7	416	422	19.3	53.7
2025-09-14T11:47	10	93	10.1	81	117	416	0.6	415	417	19.1	53.3
2025-09-14T11:48	10	110	4.4	99	120	418	0.7	416	419	19.0	53.4
2025-09-14T11:49	10	96	6.6	87	111	419	0.9	417	420	19.0	55.0
2025-09-14T11:50	10	97	2.9	93	105	420	0.7	419	421	19.1	56.1
2025-09-14T11:51	10	108	3.5	101	116	421	1.2	419	423	19.0	57.9
2025-09-14T11:52	10	123	11.0	103	139	423	1.0	421	424	19.1	58.2
2025-09-14T11:53	10	105	6.4	96	121	419	0.6	418	421	19.0	58.0
2025-09-14T11:54	10	112	9.8	99	136	420	1.0	418	422	18.8	57.8
2025-09-14T11:55	10	157	35.9	110	226	425	3.7	420	433	18.9	59.0
2025-09-14T11:56	10	126	21.3	107	191	428	2.0	425	432	19.0	59.0
2025-09-14T11:57	10	116	20.3	89	166	425	0.9	423	426	18.8	59.8
2025-09-14T11:58	10	146	26.9	105	204	427	2.8	424	431	19.0	60.8
2025-09-14T11:59	10	132	47.5	85	216	426	2.7	422	431	19.1	60.4
2025-09-14T12:00	10	147	21.1	117	196	428	1.7	425	431	19.0	60.1
2025-09-14T12:01	10	161	30.3	90	191	429	1.5	426	431	18.9	59.8
2025-09-14T12:02	10	165	12.2	135	182	432	1.0	429	433	19.0	60.2
2025-09-14T12:03	10	167	8.3	147	177	433	0.9	431	435	19.1	59.8
2025-09-14T12:04	10	169	4.2	157	175	435	1.3	433	437	19.1	60.8
2025-09-14T12:05	10	164	5.9	149	172	433	1.6	430	436	19.1	59.1
2025-09-14T12:06	10	172	4.6	161	176	433	0.7	431	434	19.1	59.4
2025-09-14T12:07	10	139	15.7	102	166	431	1.0	429	433	19.0	60.3
2025-09-14T12:08	10	153	9.6	134	166	432	0.7	431	433	19.2	60.4
2025-09-14T12:09	10	156	10.8	129	177	434	1.0	432	436	19.2	59.7
2025-09-14T12:10	10	136	28.9	88	174	431	4.2	425	437	19.5	59.4
2025-09-14T12:11	10	150	12.8	127	176	430	0.5	429	431	19.4	57.3
2025-09-14T12:12	10	145	7.4	128	157	431	0.5	430	432	19.5	58.1
2025-09-14T12:13	10	139	26.8	78	171	431	2.2	426	434	19.4	56.6
2025-09-14T12:14	10	139	24.0	95	178	430	1.0	428	431	19.3	56.7
2025-09-14T12:15	10	171	13.5	140	187	432	2.3	428	436	19.4	57.2
2025-09-14T12:16	10	118	36.4	73	185	430	2.6	427	436	19.5	57.9
2025-09-14T12:17	10	172	11.1	142	185	435	1.7	432	438	19.7	58.2
2025-09-14T12:18	10	149	46.6	62	185	438	2.9	430	441	19.9	57.8
2025-09-14T12:19	10	99	43.7	60	178	427	2.8	423	433	19.9	56.2
2025-09-14T12:20	10	106	24.3	61	154	427	2.1	423	431	19.7	55.5
2025-09-14T12:21	10	169	3.9	157	176	430	1.1	427	432	19.5	54.3
2025-09-14T12:22	10	166	7.6	149	176	432	1.3	430	434	19.5	55.8
2025-09-14T12:23	10	98	45.3	42	175	427	5.1	418	434	19.6	56.2
2025-09-14T12:24	10	113	34.6	48	151	423	3.1	420	428	19.7	57.0
2025-09-14T12:25	10	140	5.4	127	151	427	1.8	425	430	19.6	56.5
2025-09-14T12:26	10	156	3.5	150	162	430	0.7	428	431	19.6	56.1
2025-09-14T12:27	10	118	49.6	44	161	429	3.9	422	433	19.5	56.2
2025-09-14T12:28	10	103	26.1	78	169	424	1.6	422	427	19.5	56.1
2025-09-14T12:29	10	79	31.2	49	155	421	2.5	418	426	19.6	56.3
2025-09-14T12:30	10	161	6.2	142	166	428	1.5	424	430	19.7	56.5
2025-09-14T12:31	10	148	32.6	53	169	431	1.5	425	432	19.8	55.8
2025-09-14T12:32	10	142	44.2	48	169	427	2.5	422	430	19.7	55.4
2025-09-14T12:33	10	149	13.7	130	166	429	1.2	427	431	19.8	55.6
2025-09-14T12:34	10	113	38.1	47	151	426	3.1	420	429	19.8	55.3
2025-09-14T12:35	10	86	31.7	53	143	420	1.7	418	423	19.7	54.8
2025-09-14T12:36	10	153	22.2	86	168	425	4.2	417	430	19.6	55.6
2025-09-14T12:37	10	136	20.7	88	158	429	0.7	427	430	19.7	55.1
2025-09-14T12:38	10	138	10.6	101	151	428	0.8	427	430	19.7	54.2
2025-09-14T12:39	10	142	7.9	129	153	429	1.2	427	431	19.6	54.3
2025-09-14T12:40	10	123	33.4	37	144	427	1.2	422	428	19.6	54.8
2025-09-14T12:41	10	33	2.9	31	44	418	3.1	414	425	19.7	55.4
2025-09-14T12:42	10	143	34.6	46	168	422	5.8	412	430	19.7	56.5
2025-09-14T12:43	10	128	48.9	45	170	427	2.4	422	430	19.8	56.2
2025-09-14T12:44	10	158	21.9	65	167	429	1.6	424	431	19.8	56.1
2025-09-14T12:45	10	56	26.0	37	119	423	4.6	415	430	19.9	56.6
2025-09-14T12:46	10	131	53.9	39	178	422	5.8	415	431	19.6	55.5
2025-09-14T12:47	10	73	34.3	45	177	422	5.0	415	431	19.7	56.1
2025-09-14T12:48	10	74	23.3	45	121	417	1.6	414	419	19.6	55.9
2025-09-14T12:49	10	107	12.7	88	131	421	1.2	418	423	19.6	56.0
2025-09-14T12:50	10	99	38.0	43	157	423	2.3	419	426	19.6	55.7
2025-09-14T12:51	10	109	27.2	64	147	423	1.3	421	426	19.7	55.9
2025-09-14T12:52	10	153	7.1	136	165	427	2.0	424	431	19.8	56.1
2025-09-14T12:53	10	161	3.9	154	167	431	0.9	429	432	20.0	56.3
2025-09-14T12:54	10	164	3.4	156	168	432	1.0	430	433	20.0	55.3
2025-09-14T12:55	10	169	1.3	166	171	432	0.5	431	433	19.9	54.7
2025-09-14T12:56	10	166	4.6	157	170	435	1.5	432	438	20.1	55.6
2025-09-14T12:57	10	154	28.8	45	166	438	0.8	435	439	20.4	56.2
2025-09-14T12:58	10	101	53.3	39	163	430	3.1	425	436	20.4	56.0
2025-09-14T12:59	10	158	6.1	144	167	434	0.7	433	435	20.4	56.0
2025-09-14T13:00	10	156	12.1	128	173	435	1.0	433	437	20.4	56.2
2025-09-14T13:01	10	130	34.2	78	169	435	3.7	428	438	20.5	55.9
2025-09-14T13:02	10	129	26.8	89	168	430	2.1	426	433	20.3	55.0
2025-09-14T13:03	10	149	26.3	81	190	432	1.7	428	434	20.3	55.5
2025-09-14T13:04	10	71	3.5	66	80	425	3.0	422	432	20.2	55.5
2025-09-14T13:05	10	97	17.7	70	136	425	1.4	422	427	20.2	55.6
2025-09-14T13:06	10	91	15.7	67	113	423	1.4	420	424	20.1	55.0
2025-09-14T13:07	10	71	1.4	68	73	419	1.3	417	421	20.0	54.6
2025-09-14T13:08	10	65	5.3	60	75	416	1.4	414	418	19.9	54.0
2025-09-14T13:09	10	57	2.1	55	63	415	0.3	414	415	19.8	54.7
2025-09-14T13:10	10	59	2.0	55	62	414	0.5	414	416	19.9	55.3
2025-09-14T13:11	10	69	5.6	62	83	417	1.3	415	419	20.0	57.0
2025-09-14T13:12	10	100	21.5	77	151	421	1.8	418	426	20.0	56.1
2025-09-14T13:13	10	128	10.0	115	150	426	1.1	423	428	20.0	55.9
2025-09-14T13:14	10	96	8.5	83	113	420	1.6	418	424	19.9	54.6
2025-09-14T13:15	10	85	5.1	79	96	418	0.6	417	420	19.8	55.6
2025-09-14T13:16	10	90	7.6	79	106	419	1.0	417	420	19.9	55.9
2025-09-14T13:17	10	115	13.4	92	133	421	1.7	418	424	19.8	55.6
2025-09-14T13:18	10	152	15.1	131	182	427	2.2	421	430	19.9	56.0
2025-09-14T13:19	10	142	15.8	117	166	427	1.3	425	430	20.1	55.7
2025-09-14T13:20	10	177	8.8	164	189	430	2.4	426	434	20.1	55.7
2025-09-14T13:21	10	144	18.2	126	178	433	0.8	431	434	20.3	56.2
2025-09-14T13:22	10	153	9.6	135	173	431	0.9	430	433	20.3	55.1
2025-09-14T13:23	10	172	7.8	154	182	434	1.6	430	436	20.4	55.2
2025-09-14T13:24	10	176	1.6	173	181	432	1.0	430	434	20.3	54.7
2025-09-14T13:25	10	175	1.1	173	176	433	0.6	432	434	20.3	55.2
2025-09-14T13:26	10	169	4.7	159	173	434	0.8	432	435	20.4	55.4
2025-09-14T13:27	10	143	5.6	134	158	432	1.6	430	435	20.4	55.6
2025-09-14T13:28	10	150	3.5	143	157	432	0.5	431	434	20.2	55.6
2025-09-14T13:29	10	147	4.4	139	153	431	0.5	430	432	20.3	55.3
2025-09-14T13:30	10	155	5.9	141	163	433	2.0	430	436	20.5	56.2
2025-09-14T13:31	10	164	3.1	156	168	434	0.9	433	436	20.6	55.7
2025-09-14T13:32	10	132	11.1	106	153	431	1.3	429	434	20.5	55.8
2025-09-14T13:33	10	77	9.9	69	104	428	1.8	425	431	20.6	56.2
2025-09-14T13:34	10	78	2.4	74	82	426	0.8	424	427	20.6	56.8
2025-09-14T13:35	10	86	3.2	79	91	426	0.7	424	427	20.5	56.3
2025-09-14T13:36	10	77	1.2	75	79	424	0.3	423	425	20.2	56.0
2025-09-14T13:37	10	76	2.5	72	81	423	1.1	421	425	20.3	57.0
2025-09-14T13:38	10	69	1.1	68	72	420	0.9	419	422	20.2	57.1
2025-09-14T13:39	10	71	2.0	69	77	420	0.3	419	420	20.2	57.3
2025-09-14T13:40	10	71	1.2	69	73	419	0.6	418	420	20.1	56.9
2025-09-14T13:41	10	74	1.2	73	77	419	0.6	418	420	20.0	57.8
2025-09-14T13:42	10	76	1.5	73	79	420	0.4	419	421	20.0	57.5
2025-09-14T13:43	10	73	0.9	72	75	419	0.6	418	420	20.0	57.2
2025-09-14T13:44	10	78	4.0	74	87	418	0.6	417	420	19.9	57.4
2025-09-14T13:45	10	74	0.5	74	75	418	0.5	417	418	19.9	57.2
2025-09-14T13:46	10	82	3.8	76	88	418	1.0	416	420	19.9	57.8
2025-09-14T13:47	10	119	15.3	89	140	421	2.2	418	425	19.9	57.5
2025-09-14T13:48	10	112	14.0	95	140	423	0.6	422	424	19.9	57.2
2025-09-14T13:49	10	143	14.0	114	162	427	3.0	421	431	20.0	57.8
2025-09-14T13:50	10	112	6.3	97	121	425	1.7	423	429	20.0	57.0
2025-09-14T13:51	10	88	3.4	85	97	423	0.9	422	425	20.1	57.8
2025-09-14T13:52	10	87	1.0	86	90	423	0.5	422	424	20.2	58.5
2025-09-14T13:53	10	89	1.2	87	91	423	0.9	421	424	20.2	57.3
2025-09-14T13:54	10	83	1.6	81	87	421	0.7	420	422	20.0	57.3
2025-09-14T13:55	10	80	0.6	79	81	421	0.6	420	422	20.0	57.8
2025-09-14T13:56	10	94	10.1	80	110	421	1.0	420	423	20.0	57.5
2025-09-14T13:57	10	88	6.0	82	99	422	0.6	421	423	20.0	58.0
2025-09-14T13:58	10	89	4.6	84	102	420	0.6	419	422	20.0	57.3
2025-09-14T13:59	10	84	3.0	80	92	419	0.5	418	421	19.9	57.6
2025-09-14T14:00	10	83	4.0	79	93	419	0.5	418	420	20.0	58.0
2025-09-14T14:01	10	74	2.6	70	81	420	0.5	418	421	20.0	58.1
2025-09-14T14:02	10	68	1.2	67	71	419	0.3	418	419	20.0	58.1
2025-09-14T14:03	10	67	0.6	66	68	418	0.6	417	419	20.0	58.4
2025-09-14T14:04	10	64	1.2	62	66	418	0.4	417	419	20.0	58.7
2025-09-14T14:05	10	61	1.4	59	64	418	0.4	417	418	20.0	59.3
2025-09-14T14:06	10	58	1.0	57	60	418	0.4	417	419	20.0	60.0
2025-09-14T14:07	10	56	0.2	56	57	417	0.7	416	419	20.0	59.5
2025-09-14T14:08	10	56	0.3	56	57	417	0.9	415	418	20.0	59.9
2025-09-14T14:09	10	59	1.3	57	61	416	0.5	415	417	20.0	59.7
2025-09-14T14:10	10	62	1.3	60	64	416	0.6	415	417	19.9	60.1
2025-09-14T14:11	10	70	5.3	64	85	418	0.7	417	420	20.0	60.9
2025-09-14T14:12	10	75	8.4	70	101	418	0.7	417	421	19.9	59.8
2025-09-14T14:13	10	83	8.9	77	107	420	0.7	419	422	20.0	60.2
2025-09-14T14:14	10	117	25.8	80	157	422	2.2	418	426	20.0	60.1
2025-09-14T14:15	10	98	12.8	84	120	424	0.8	422	425	20.1	60.2
2025-09-14T14:16	10	82	3.7	77	97	422	1.4	420	425	20.1	60.2
2025-09-14T14:17	10	75	0.9	74	77	419	0.3	419	420	20.1	59.4
2025-09-14T14:18	10	74	1.0	74	78	421	0.5	420	422	20.2	60.5
2025-09-14T14:19	10	77	4.5	72	88	420	1.2	419	422	20.2	60.2
2025-09-14T14:20	10	76	2.7	72	81	419	0.4	418	419	20.1	59.8
2025-09-14T14:21	10	72	1.5	70	78	418	0.6	417	419	20.0	59.4
2025-09-14T14:22	10	98	21.0	72	144	419	2.1	416	423	20.0	59.5
2025-09-14T14:23	10	131	18.1	95	154	424	1.7	420	427	20.1	59.8
2025-09-14T14:24	10	97	10.7	84	122	425	0.8	424	427	20.2	60.0
2025-09-14T14:25	10	154	27.4	96	190	430	2.0	424	432	20.3	60.4
2025-09-14T14:26	10	116	21.6	88	152	428	0.8	426	430	20.2	60.2
2025-09-14T14:27	10	119	27.0	86	173	428	2.8	424	432	20.3	60.4
2025-09-14T14:28	10	152	28.1	91	175	429	3.2	424	434	20.4	60.8
2025-09-14T14:29	10	168	13.3	114	177	434	1.1	432	436	20.6	60.7
2025-09-14T14:30	10	103	29.9	66	154	428	3.2	422	435	20.5	59.3
2025-09-14T14:31	10	65	3.6	61	76	421	1.3	420	425	20.2	59.3
2025-09-14T14:32	10	61	0.4	60	61	419	0.8	418	421	20.3	59.9
2025-09-14T14:33	10	63	1.5	61	66	419	0.5	418	420	20.3	59.8
2025-09-14T14:34	10	72	4.2	67	83	419	0.3	418	419	20.2	60.1
2025-09-14T14:35	10	68	8.3	59	82	419	0.4	418	420	20.2	60.8
2025-09-14T14:36	10	56	1.3	55	59	418	0.6	417	420	20.2	60.3
2025-09-14T14:37	10	54	1.5	51	58	417	0.6	416	418	20.1	60.2
2025-09-14T14:38	10	50	0.7	49	51	416	0.3	415	417	20.1	60.5
2025-09-14T14:39	10	48	0.2	48	49	416	0.2	416	416	20.1	61.1
2025-09-14T14:40	10	50	2.9	48	58	415	0.3	415	416	20.1	60.5
2025-09-14T14:41	10	51	1.1	50	53	415	0.3	415	416	20.1	61.0
2025-09-14T14:42	10	53	2.3	51	58	415	0.5	414	416	20.0	60.8
2025-09-14T14:43	10	56	1.3	54	57	415	0.4	415	416	20.1	60.8
2025-09-14T14:44	10	54	0.5	54	55	416	0.3	415	416	20.1	60.2
2025-09-14T14:45	10	58	1.7	55	60	417	0.9	415	418	20.1	62.1
2025-09-14T14:46	10	68	9.9	60	95	418	0.5	417	419	20.1	60.8
2025-09-14T14:47	10	131	11.2	97	148	423	3.5	417	428	20.1	60.9
2025-09-14T14:48	10	100	26.0	70	146	423	1.7	421	426	20.2	60.9
2025-09-14T14:49	10	80	19.9	61	120	423	1.9	420	426	20.3	60.8
2025-09-14T14:50	10	63	1.1	61	65	419	0.9	418	421	20.2	60.3
2025-09-14T14:51	10	70	2.8	65	74	418	0.4	418	419	20.2	60.1
2025-09-14T14:52	10	65	2.2	63	71	417	0.4	417	418	20.1	59.9
2025-09-14T14:53	10	60	1.8	57	63	418	0.2	417	418	20.2	60.5
2025-09-14T14:54	10	56	0.3	55	57	417	0.3	416	418	20.2	60.1
2025-09-14T14:55	10	61	3.4	56	67	418	0.7	417	420	20.3	60.9
2025-09-14T14:56	10	91	15.9	68	128	422	1.9	419	426	20.3	60.8
2025-09-14T14:57	10	81	14.8	67	125	424	1.3	422	426	20.4	60.5
2025-09-14T14:58	10	66	0.6	65	67	422	0.8	420	424	20.5	59.9
2025-09-14T14:59	10	67	0.6	66	68	421	0.3	420	422	20.5	60.5
2025-09-14T15:00	10	66	1.0	64	67	420	0.7	419	422	20.5	59.3
2025-09-14T15:01	10	60	2.4	56	63	419	0.5	418	420	20.4	59.4
2025-09-14T15:02	10	52	1.8	49	56	417	0.7	416	419	20.4	58.6
2025-09-14T15:03	10	47	1.0	46	49	417	0.3	416	417	20.3	59.2
2025-09-14T15:04	10	45	0.5	44	46	416	0.3	416	417	20.4	59.5
2025-09-14T15:05	10	43	0.6	42	44	416	0.5	415	417	20.4	59.9
2025-09-14T15:06	10	42	0.3	41	42	417	0.2	416	417	20.4	60.0
2025-09-14T15:07	10	42	0.1	41	42	416	0.3	416	417	20.4	59.7
2025-09-14T15:08	10	42	0.1	41	42	416	0.4	415	417	20.3	59.2
2025-09-14T15:09	10	42	0.2	41	42	415	0.2	415	416	20.3	59.7
2025-09-14T15:10	10	42	0.1	42	43	416	0.2	415	416	20.4	60.3
2025-09-14T15:11	10	42	0.1	42	42	415	0.5	414	416	20.3	59.5
2025-09-14T15:12	10	42	0.3	41	42	415	0.4	414	415	20.4	59.1
2025-09-14T15:13	10	40	0.8	38	41	414	0.6	413	415	20.4	57.1
2025-09-14T15:14	10	37	0.8	36	39	413	0.3	412	414	20.4	56.6
2025-09-14T15:15	10	35	0.7	33	36	413	0.3	412	413	20.4	56.9
2025-09-14T15:16	10	33	0.5	32	34	412	0.2	412	413	20.3	57.7
2025-09-14T15:17	10	31	0.3	31	32	413	0.2	412	413	20.3	58.7
2025-09-14T15:18	10	30	0.1	30	31	412	0.2	412	412	20.3	58.3
2025-09-14T15:19	10	31	0.2	31	31	412	0.3	411	413	20.3	57.8
2025-09-14T15:20	10	31	0.1	31	31	412	0.4	411	413	20.3	58.7
2025-09-14T15:21	10	31	0.1	31	31	412	0.4	411	413	20.2	58.9
2025-09-14T15:22	10	31	0.2	31	32	412	0.4	411	413	20.3	57.7
2025-09-14T15:23	10	32	0.4	32	33	412	0.4	411	412	20.2	57.6
2025-09-14T15:24	10	34	0.6	33	35	411	0.2	411	412	20.2	57.4
2025-09-14T15:25	10	36	0.7	35	37	411	0.2	411	412	20.2	57.3
2025-09-14T15:26	10	38	0.5	37	39	411	0.3	411	412	20.2	56.8
2025-09-14T15:27	10	39	0.2	38	39	411	0.2	411	412	20.2	56.7
2025-09-14T15:28	10	38	0.6	36	38	411	0.3	410	412	20.1	56.5
2025-09-14T15:29	10	36	0.5	35	37	411	0.2	410	411	20.1	56.9
2025-09-14T15:30	10	35	0.2	34	35	410	0.3	410	411	20.0	57.3
2025-09-14T15:31	10	34	0.1	34	34	410	0.2	410	411	20.0	57.5
2025-09-14T15:32	10	35	0.2	34	35	410	0.2	410	411	20.0	57.8
2025-09-14T15:33	10	35	0.1	35	35	411	0.3	410	411	20.0	58.2
2025-09-14T15:34	10	34	0.3	34	35	411	0.3	410	411	20.0	58.8
2025-09-14T15:35	10	33	0.6	32	34	411	0.2	410	411	20.0	58.7
2025-09-14T15:36	10	30	0.7	29	32	410	0.2	409	410	20.0	58.6
2025-09-14T15:37	10	28	0.4	28	29	410	0.2	410	411	19.9	59.2
2025-09-14T15:38	10	28	0.2	27	28	410	0.2	410	411	19.9	59.9
2025-09-14T15:39	10	27	0.1	27	28	410	0.4	409	410	19.9	59.6
2025-09-14T15:40	10	28	0.2	27	28	409	0.3	409	410	19.9	59.4
2025-09-14T15:41	10	28	0.2	28	29	409	0.2	409	410	19.9	59.6
2025-09-14T15:42	10	29	0.2	29	30	409	0.2	409	410	19.9	59.7
2025-09-14T15:43	10	30	0.3	30	31	410	0.3	409	410	19.9	59.9
2025-09-14T15:44	10	31	0.1	30	31	410	0.2	409	410	19.9	60.0
2025-09-14T15:45	10	31	0.1	31	31	410	0.3	409	411	19.9	60.1
2025-09-14T15:46	10	30	0.2	30	31	410	0.3	409	411	19.9	60.0
2025-09-14T15:47	10	29	0.5	28	30	409	0.3	409	410	19.8	60.3
2025-09-14T15:48	10	28	0.3	27	28	409	0.2	409	410	19.8	60.1
2025-09-14T15:49	10	27	0.2	27	27	409	0.2	409	410	19.8	60.2
2025-09-14T15:50	10	26	0.4	26	27	409	0.2	409	409	19.8	60.2
2025-09-14T15:51	10	25	0.4	24	26	409	0.3	408	409	19.8	59.9
2025-09-14T15:52	10	24	0.3	23	24	409	0.2	408	409	19.8	60.8
2025-09-14T15:53	10	23	0.3	22	23	408	0.2	408	409	19.7	61.2
2025-09-14T15:54	10	22	0.4	21	22	408	0.2	407	409	19.7	61.0
2025-09-14T15:55	10	20	0.3	20	21	408	0.3	407	408	19.6	61.7
2025-09-14T15:56	10	19	0.2	19	20	407	0.3	407	408	19.6	61.3
2025-09-14T15:57	10	19	0.1	19	19	407	0.2	407	408	19.6	61.4
2025-09-14T15:58	10	19	0.1	19	20	407	0.2	407	408	19.6	61.9
2025-09-14T15:59	10	19	0.2	18	19	407	0.3	406	408	19.6	61.6
2025-09-14T16:00	10	18	0.2	18	19	407	0.2	407	408	19.6	62.2
2025-09-14T16:01	10	18	0.2	17	18	407	0.2	406	407	19.5	62.1
2025-09-14T16:02	10	17	0.2	17	17	407	0.3	406	407	19.5	62.3
2025-09-14T16:03	10	17	0.2	16	17	407	0.3	406	407	19.5	63.0
2025-09-14T16:04	10	16	0.1	16	16	406	0.3	406	407	19.5	62.5
2025-09-14T16:05	10	16	0.1	16	16	407	0.2	406	407	19.5	62.9
2025-09-14T16:06	10	17	0.2	16	17	406	0.2	406	407	19.5	63.0
2025-09-14T16:07	10	17	0.3	17	18	406	0.3	406	407	19.4	63.4
2025-09-14T16:08	10	18	0.2	18	19	406	0.2	406	407	19.4	63.2
2025-09-14T16:09	10	19	0.3	18	20	407	0.2	406	407	19.4	63.4
2025-09-14T16:10	10	20	0.3	19	21	407	0.3	406	407	19.4	64.1
2025-09-14T16:11	10	21	0.3	20	21	407	0.3	406	408	19.4	63.5
2025-09-14T16:12	10	22	0.3	21	22	407	0.3	406	407	19.4	64.2
2025-09-14T16:13	10	23	0.2	22	23	407	0.2	407	408	19.4	63.7
2025-09-14T16:14	10	23	0.1	23	23	407	0.3	407	408	19.4	64.2
2025-09-14T16:15	10	22	0.2	22	23	407	0.2	406	407	19.4	64.2
2025-09-14T16:16	10	22	0.2	21	22	407	0.2	406	407	19.3	64.6
2025-09-14T16:17	10	21	0.1	21	22	407	0.3	406	407	19.3	64.4
2025-09-14T16:18	10	21	0.3	20	21	407	0.3	406	407	19.3	64.7
2025-09-14T16:19	10	20	0.4	19	20	407	0.2	406	407	19.3	64.6
2025-09-14T16:20	10	18	0.4	18	19	406	0.2	406	407	19.3	65.3
2025-09-14T16:21	10	17	0.3	17	18	406	0.3	406	407	19.3	65.0
2025-09-14T16:22	10	16	0.2	16	17	406	0.2	405	406	19.2	65.2
2025-09-14T16:23	10	16	0.1	15	16	405	0.2	405	406	19.2	66.3
2025-09-14T16:24	10	16	0.1	16	16	406	0.3	405	406	19.2	66.3
2025-09-14T16:25	10	16	0.1	16	16	406	0.2	405	406	19.2	66.0
2025-09-14T16:26	10	16	0.1	16	16	405	0.2	405	406	19.2	65.5
2025-09-14T16:27	10	16	0.2	15	16	405	0.2	405	406	19.1	65.8
2025-09-14T16:28	10	15	0.4	14	15	405	0.2	405	405	19.2	64.8
2025-09-14T16:29	10	14	0.3	13	14	405	0.2	405	405	19.1	65.4
2025-09-14T16:30	10	12	0.3	12	13	405	0.2	404	405	19.1	65.8
2025-09-14T16:31	10	12	0.3	11	12	404	0.2	404	405	19.1	65.8
2025-09-14T16:32	10	11	0.2	10	11	404	0.2	404	405	19.0	66.6
2025-09-14T16:33	10	10	0.2	10	11	404	0.2	404	404	19.0	66.3
2025-09-14T16:34	10	10	0.2	9	10	404	0.3	403	404	19.0	66.2
2025-09-14T16:35	10	9	0.1	9	10	404	0.2	403	404	19.0	65.8
2025-09-14T16:36	10	9	0.1	9	10	404	0.2	403	404	19.0	66.0
2025-09-14T16:37	10	9	0.1	9	10	404	0.3	403	404	19.0	66.6
2025-09-14T16:38	10	10	0.1	9	10	404	0.3	403	404	19.0	66.5
2025-09-14T16:39	10	10	0.1	10	10	404	0.2	403	404	19.1	65.5
2025-09-14T16:40	10	10	0.2	10	10	404	0.2	403	404	19.0	66.0
2025-09-14T16:41	10	11	0.2	10	11	404	0.2	403	404	19.0	67.1
2025-09-14T16:42	10	11	0.2	11	12	404	0.3	403	404	19.0	66.7
2025-09-14T16:43	10	12	0.1	11	12	404	0.2	404	404	19.0	67.0
2025-09-14T16:44	10	12	0.2	11	12	404	0.2	404	404	18.9	67.4
2025-09-14T16:45	10	13	0.5	12	14	404	0.3	403	404	18.9	67.1
2025-09-14T16:46	10	15	0.7	14	16	403	0.2	403	404	18.9	67.5
2025-09-14T16:47	10	17	0.3	16	17	404	0.2	403	404	18.9	67.3
2025-09-14T16:48	10	17	0.2	16	17	404	0.2	403	404	18.9	67.6
2025-09-14T16:49	10	16	0.6	15	16	403	0.2	403	404	18.9	67.7
2025-09-14T16:50	10	13	0.7	12	15	403	0.3	402	403	18.8	68.2
2025-09-14T16:51	10	12	0.3	11	12	403	0.2	402	403	18.8	68.2
2025-09-14T16:52	10	11	0.1	11	11	402	0.2	401	402	18.8	68.5
2025-09-14T16:53	10	11	0.1	11	11	402	0.2	401	402	18.8	68.2
2025-09-14T16:54	10	11	0.2	11	12	402	0.3	401	402	18.7	69.1
2025-09-14T16:55	10	11	0.2	10	11	402	0.3	401	403	18.7	69.1
2025-09-14T16:56	10	10	0.1	10	10	401	0.3	401	402	18.6	69.8
2025-09-14T16:57	10	10	0.1	10	11	401	0.4	400	401	18.6	69.9
2025-09-14T16:58	10	11	0.1	10	11	401	0.2	400	401	18.5	70.1
2025-09-14T16:59	10	10	0.1	10	11	400	0.3	400	401	18.5	70.3
2025-09-14T17:00	10	10	0.1	10	11	401	0.3	400	401	18.5	70.4
2025-09-14T17:01	10	10	0.2	10	11	401	0.2	400	401	18.5	70.3
2025-09-14T17:02	10	10	0.2	10	11	401	0.4	400	401	18.4	71.2
2025-09-14T17:03	10	11	0.2	10	11	401	0.3	400	401	18.4	71.4
2025-09-14T17:04	10	11	0.2	11	11	401	0.3	400	402	18.4	70.9
2025-09-14T17:05	10	11	0.2	11	11	401	0.3	400	402	18.5	70.7
2025-09-14T17:06	10	11	0.2	10	11	401	0.2	401	402	18.5	71.0
2025-09-14T17:07	10	10	0.3	10	11	401	0.4	401	402	18.4	71.3
2025-09-14T17:08	10	10	0.2	9	10	401	0.3	400	402	18.4	72.0
2025-09-14T17:09	10	9	0.3	8	9	401	0.3	400	402	18.3	72.2
2025-09-14T17:10	10	8	0.3	7	8	401	0.3	400	401	18.3	72.8
2025-09-14T17:11	10	7	0.2	7	8	401	0.3	400	401	18.3	72.4
2025-09-14T17:12	10	7	0.1	6	7	401	0.3	400	401	18.3	72.3
2025-09-14T17:13	10	7	0.2	7	7	401	0.3	400	401	18.3	72.3
2025-09-14T17:14	10	7	0.2	7	8	401	0.4	400	401	18.3	72.6
2025-09-14T17:15	10	8	0.2	8	8	401	0.3	400	402	18.4	71.9
2025-09-14T17:16	10	9	0.2	8	9	401	0.3	400	401	18.4	72.1
2025-09-14T17:17	10	9	0.2	9	10	401	0.3	400	402	18.3	72.4
2025-09-14T17:18	10	9	0.2	9	10	401	0.3	401	402	18.3	72.3
2025-09-14T17:19	10	8	0.5	7	9	401	0.2	400	401	18.4	72.4
2025-09-14T17:20	10	7	0.4	6	7	401	0.3	400	402	18.3	72.7
2025-09-14T17:21	10	6	0.3	5	6	401	0.3	400	401	18.4	72.4
2025-09-14T17:22	10	5	0.2	4	5	401	0.3	400	402	18.4	72.3
2025-09-14T17:23	10	4	0.1	4	5	401	0.2	400	401	18.4	72.5
2025-09-14T17:24	10	4	0.2	4	4	401	0.2	400	401	18.4	72.1
2025-09-14T17:25	10	4	0.2	3	4	401	0.3	400	401	18.5	71.8
2025-09-14T17:26	10	3	0.1	3	4	401	0.2	400	401	18.4	72.3
2025-09-14T17:27	10	3	0.1	3	4	401	0.3	400	401	18.4	72.3
2025-09-14T17:28	10	3	0.1	3	3	401	0.2	400	401	18.4	72.4
2025-09-14T17:29	10	3	0.1	3	3	401	0.2	400	401	18.4	72.6
2025-09-14T17:30	10	3	0.2	2	3	400	0.3	400	401	18.4	72.9
2025-09-14T17:31	10	2	0.1	2	3	400	0.2	400	401	18.4	72.7
2025-09-14T17:32	10	2	0.1	2	2	400	0.2	399	401	18.4	72.8
2025-09-14T17:33	10	2	0.1	2	2	400	0.2	400	401	18.4	72.6
2025-09-14T17:34	10	2	0.1	2	2	400	0.2	400	401	18.4	72.4
2025-09-14T17:35	10	2	0.1	2	2	400	0.2	400	401	18.4	72.9
2025-09-14T17:36	10	2	0.1	1	2	400	0.2	400	401	18.4	72.8
2025-09-14T17:37	10	1	0.1	1	2	400	0.3	400	401	18.4	73.3
2025-09-14T17:38	10	1	0.1	1	2	400	0.2	400	400	18.4	73.2
2025-09-14T17:39	10	1	0.1	1	2	400	0.2	400	401	18.4	73.0
2025-09-14T17:40	10	1	0.1	1	2	400	0.2	400	400	18.4	73.3
2025-09-14T17:41	10	1	0.1	1	2	400	0.3	399	400	18.4	73.3
2025-09-14T17:42	10	1	0.1	1	2	400	0.2	400	401	18.3	73.5
2025-09-14T17:43	10	1	0.1	1	2	400	0.2	400	401	18.4	72.8
2025-09-14T17:44	10	1	0.1	1	1	400	0.2	400	401	18.4	73.0
2025-09-14T17:45	10	1	0.1	1	1	400	0.2	400	401	18.4	73.5
2025-09-14T17:46	10	1	0.1	1	1	400	0.3	399	401	18.4	73.4
2025-09-14T17:47	10	1	0.1	1	1	400	0.3	399	401	18.4	73.3
2025-09-14T17:48	10	1	0.1	0	1	400	0.2	400	401	18.4	73.2
2025-09-14T17:49	10	1	0.1	0	1	400	0.2	400	401	18.4	73.2
2025-09-14T17:50	10	1	0.1	0	1	401	0.2	400	401	18.5	72.6
2025-09-14T17:51	10	0	0.1	0	1	401	0.2	400	401	18.5	72.8
2025-09-14T17:52	10	0	0.1	0	1	400	0.2	400	401	18.4	73.3
2025-09-14T17:53	10	0	0.1	0	1	400	0.2	400	401	18.4	73.8
2025-09-14T17:54	10	0	0.1	0	1	400	0.3	399	401	18.4	73.7
2025-09-14T17:55	10	0	0.1	0	1	400	0.2	400	401	18.5	73.2
2025-09-14T17:56	10	0	0.1	0	0	401	0.2	400	401	18.5	73.4
2025-09-14T17:57	10	0	0.1	0	0	400	0.2	400	401	18.4	73.7
2025-09-14T17:58	10	0	0.1	0	0	400	0.2	400	401	18.4	73.8
2025-09-14T17:59	10	0	0.1	0	1	400	0.3	400	401	18.5	73.7
2025-09-14T18:00	10	0	0.1	0	0	400	0.2	400	401	18.4	74.1
2025-09-14T18:01	10	0	0.1	0	0	400	0.2	399	401	18.4	74.4
2025-09-14T18:02	10	0	0.1	0	1	400	0.2	400	401	18.4	74.3
2025-09-14T18:03	10	0	0.1	0	0	400	0.2	400	401	18.4	74.3
2025-09-14T18:04	10	0	0.1	0	0	401	0.3	400	401	18.5	73.9
2025-09-14T18:05	10	0	0.1	0	0	400	0.3	400	401	18.4	74.4
2025-09-14T18:06	10	0	0.1	0	0	400	0.3	400	401	18.4	74.4
2025-09-14T18:07	10	0	0.1	0	0	401	0.2	400	401	18.4	74.2
2025-09-14T18:08	10	0	0.1	0	0	400	0.3	400	401	18.4	74.3
2025-09-14T18:09	10	0	0.1	0	0	401	0.3	400	401	18.4	74.4
2025-09-14T18:10	10	0	0.1	0	0	400	0.2	400	401	18.4	74.6
2025-09-14T18:11	10	0	0.1	0	0	400	0.2	399	401	18.4	74.6
2025-09-14T18:12	10	0	0.1	0	0	401	0.2	400	401	18.4	74.4
2025-09-14T18:13	10	0	0.1	0	0	401	0.3	400	401	18.5	74.0
2025-09-14T18:14	10	0	0.1	0	0	401	0.3	400	401	18.5	74.3
2025-09-14T18:15	10	0	0.1	0	0	400	0.2	400	401	18.4	74.8
2025-09-14T18:16	10	0	0.1	0	0	401	0.2	400	401	18.4	74.7
2025-09-14T18:17	10	0	0.1	0	0	401	0.2	400	401	18.4	74.6
2025-09-14T18:18	10	0	0.1	0	0	400	0.3	400	401	18.4	74.7
2025-09-14T18:19	10	0	0.1	0	0	400	0.3	399	401	18.4	75.2
2025-09-14T18:20	10	0	0.1	0	0	400	0.2	400	401	18.3	75.1
2025-09-14T18:21	10	0	0.1	0	0	400	0.3	400	401	18.4	75.0
2025-09-14T18:22	10	0	0.1	0	0	400	0.2	400	401	18.4	75.1
2025-09-14T18:23	10	0	0.1	0	0	400	0.2	399	400	18.3	75.2
2025-09-14T18:24	10	0	0.1	0	0	400	0.3	399	400	18.3	75.6
2025-09-14T18:25	10	0	0.1	0	0	400	0.2	399	400	18.3	75.6
2025-09-14T18:26	10	0	0.1	0	0	400	0.3	399	400	18.3	75.4
2025-09-14T18:27	10	0	0.1	0	0	400	0.2	399	400	18.3	75.7
2025-09-14T18:28	10	0	0.1	0	0	400	0.3	399	401	18.3	75.5
2025-09-14T18:29	10	0	0.1	0	0	400	0.3	399	401	18.3	75.8
2025-09-14T18:30	10	0	0.1	0	0	400	0.2	399	401	18.3	75.5
2025-09-14T18:31	10	0	0.1	0	0	400	0.3	400	401	18.3	75.6
2025-09-14T18:32	10	0	0.1	0	0	400	0.2	399	400	18.3	75.8
2025-09-14T18:33	10	0	0.1	0	0	400	0.3	399	400	18.2	75.8
2025-09-14T18:34	10	0	0.1	0	0	400	0.2	399	400	18.3	75.6
2025-09-14T18:35	10	0	0.1	0	0	400	0.2	399	400	18.3	75.7
2025-09-14T18:36	10	0	0.1	0	0	400	0.2	399	400	18.3	75.6
2025-09-14T18:37	10	0	0.1	0	0	400	0.3	399	400	18.2	75.9
2025-09-14T18:38	10	0	0.1	0	0	400	0.3	399	400	18.2	76.0
2025-09-14T18:39	10	0	0.1	0	0	400	0.2	399	400	18.2	76.2
2025-09-14T18:40	10	0	0.1	0	0	400	0.2	399	400	18.2	75.8
2025-09-14T18:41	10	0	0.1	0	0	400	0.2	400	400	18.2	75.9
2025-09-14T18:42	10	0	0.1	0	0	400	0.2	399	400	18.2	75.9
2025-09-14T18:43	10	0	0.1	0	0	400	0.2	399	400	18.2	76.0
2025-09-14T18:44	10	0	0.1	0	1	400	0.2	399	400	18.2	76.2
2025-09-14T18:45	10	0	0.1	0	1	400	0.3	399	400	18.2	75.9
2025-09-14T18:46	10	0	0.1	0	0	400	0.2	399	400	18.2	75.8
2025-09-14T18:47	10	0	0.1	0	1	399	0.2	399	400	18.2	76.4
2025-09-14T18:48	10	0	0.1	0	1	399	0.3	398	400	18.1	76.5
2025-09-14T18:49	10	0	0.1	0	0	399	0.3	399	400	18.2	76.0
2025-09-14T18:50	10	0	0.1	0	0	400	0.3	399	400	18.2	76.1
2025-09-14T18:51	10	0	0.1	0	0	400	0.3	399	400	18.2	76.2
2025-09-14T18:52	10	0	0.1	0	1	399	0.2	399	400	18.2	76.3
2025-09-14T18:53	10	0	0.1	0	0	400	0.2	399	400	18.1	76.6
2025-09-14T18:54	10	0	0.1	0	0	400	0.3	399	400	18.2	76.3
2025-09-14T18:55	10	0	0.1	0	1	400	0.3	399	400	18.2	76.2
2025-09-14T18:56	10	0	0.1	0	0	399	0.2	399	400	18.1	76.7
2025-09-14T18:57	10	0	0.1	0	0	399	0.3	399	400	18.1	76.8
2025-09-14T18:58	10	0	0.1	0	0	399	0.3	399	400	18.1	76.9
2025-09-14T18:59	10	0	0.1	0	0	399	0.3	398	400	18.1	77.1
2025-09-14T19:00	10	0	0.1	0	0	399	0.2	399	400	18.1	76.9
2025-09-14T19:01	10	0	0.1	0	1	399	0.2	398	399	18.0	77.8
2025-09-14T19:02	10	0	0.1	0	0	399	0.3	398	400	18.0	77.6
2025-09-14T19:03	10	0	0.1	0	0	399	0.2	398	399	18.0	77.7
2025-09-14T19:04	10	0	0.1	0	1	399	0.2	399	400	18.0	77.5
2025-09-14T19:05	10	0	0.1	0	0	399	0.2	399	400	18.0	77.4
2025-09-14T19:06	10	0	0.1	0	0	399	0.3	398	400	18.1	77.3
2025-09-14T19:07	10	0	0.1	0	1	399	0.3	398	400	18.1	76.9
2025-09-14T19:08	10	0	0.1	0	0	399	0.2	399	400	18.1	77.3
2025-09-14T19:09	10	0	0.1	0	1	399	0.3	399	400	18.0	77.4
2025-09-14T19:10	10	0	0.1	0	0	399	0.3	398	400	18.0	77.6
2025-09-14T19:11	10	0	0.1	0	0	399	0.3	398	400	18.0	77.9
2025-09-14T19:12	10	0	0.1	0	0	399	0.3	398	399	18.0	77.8
2025-09-14T19:13	10	0	0.1	0	0	399	0.2	398	399	18.0	77.7
2025-09-14T19:14	10	0	0.1	0	0	399	0.3	398	399	18.0	78.5
2025-09-14T19:15	10	0	0.1	0	0	399	0.2	398	399	18.0	78.3
2025-09-14T19:16	10	0	0.1	0	1	399	0.2	398	399	18.0	77.9
2025-09-14T19:17	10	0	0.1	0	1	399	0.3	398	400	18.0	77.9
2025-09-14T19:18	10	0	0.1	0	0	399	0.3	399	400	18.0	77.8
2025-09-14T19:19	10	0	0.1	0	0	399	0.2	399	400	18.0	77.8
2025-09-14T19:20	10	0	0.1	0	0	399	0.2	398	399	18.0	78.0
2025-09-14T19:21	10	0	0.1	0	1	399	0.3	398	399	18.0	78.4
2025-09-14T19:22	10	0	0.1	0	1	399	0.2	398	399	18.0	78.4
2025-09-14T19:23	10	0	0.1	0	1	399	0.2	398	399	18.0	78.6
2025-09-14T19:24	10	0	0.1	0	0	399	0.2	398	399	18.0	78.4
2025-09-14T19:25	10	0	0.1	0	0	399	0.3	398	400	18.0	78.1
2025-09-14T19:26	10	0	0.1	0	1	399	0.3	398	400	18.0	78.4
2025-09-14T19:27	10	0	0.1	0	0	399	0.3	398	400	18.0	78.8
2025-09-14T19:28	10	0	0.1	0	0	399	0.2	398	399	18.0	78.6
2025-09-14T19:29	10	0	0.1	0	1	399	0.2	398	399	17.9	78.9
2025-09-14T19:30	10	0	0.1	0	0	399	0.2	398	399	18.0	78.7
2025-09-14T19:31	10	0	0.1	0	1	399	0.2	398	399	18.0	78.6
2025-09-14T19:32	10	0	0.1	0	1	399	0.2	398	399	18.0	78.7
2025-09-14T19:33	10	0	0.1	0	1	399	0.3	398	399	17.9	79.0
2025-09-14T19:34	10	0	0.1	0	1	399	0.2	398	400	17.9	78.9
2025-09-14T19:35	10	0	0.1	0	0	399	0.2	398	399	17.9	79.1
2025-09-14T19:36	10	0	0.1	0	0	398	0.2	398	399	17.9	79.1
2025-09-14T19:37	10	0	0.1	0	1	399	0.2	398	399	17.9	79.3
2025-09-14T19:38	10	0	0.1	0	0	398	0.2	398	399	17.9	79.3
2025-09-14T19:39	10	0	0.1	0	1	398	0.2	398	399	17.9	79.5
2025-09-14T19:40	10	0	0.1	0	1	398	0.3	398	399	17.9	79.4
2025-09-14T19:41	10	0	0.1	0	1	398	0.2	398	399	17.9	79.6
2025-09-14T19:42	10	0	0.1	0	0	398	0.3	398	399	17.9	79.4
2025-09-14T19:43	10	0	0.1	0	0	398	0.2	398	399	17.9	79.6
2025-09-14T19:44	10	0	0.1	0	0	399	0.3	398	399	17.9	79.0
2025-09-14T19:45	10	0	0.1	0	1	398	0.2	398	399	17.9	79.3
2025-09-14T19:46	10	0	0.1	0	0	398	0.3	398	399	17.9	79.5
2025-09-14T19:47	10	0	0.1	0	0	398	0.3	398	399	17.9	79.3
2025-09-14T19:48	10	0	0.1	0	1	398	0.2	398	399	17.9	79.3
2025-09-14T19:49	10	0	0.1	0	1	398	0.2	398	399	17.9	79.3
2025-09-14T19:50	10	0	0.1	0	0	398	0.2	398	399	17.9	79.4
2025-09-14T19:51	10	0	0.1	0	0	398	0.2	398	399	17.9	79.7
2025-09-14T19:52	10	0	0.1	0	1	398	0.2	398	399	17.9	79.7
2025-09-14T19:53	10	0	0.1	0	1	398	0.3	398	399	17.8	79.8
2025-09-14T19:54	10	0	0.1	0	0	398	0.3	397	398	17.8	80.3
2025-09-14T19:55	10	0	0.1	0	0	397	0.3	397	398	17.8	80.2
2025-09-14T19:56	10	0	0.1	0	0	397	0.3	396	397	17.8	80.2
2025-09-14T19:57	10	0	0.1	0	0	397	0.3	396	398	17.9	79.8
2025-09-14T19:58	10	0	0.1	0	0	397	0.3	397	398	17.9	79.6
2025-09-14T19:59	10	0	0.1	0	0	397	0.3	397	398	17.9	79.7
2025-09-14T20:00	10	0	0.1	0	0	397	0.2	397	398	17.9	79.9
2025-09-14T20:01	10	0	0.1	0	0	398	0.3	397	398	17.9	80.0
2025-09-14T20:02	10	0	0.1	0	0	398	0.2	397	398	17.8	80.2
2025-09-14T20:03	10	0	0.1	0	0	398	0.3	397	398	17.8	80.3
2025-09-14T20:04	10	0	0.1	0	0	398	0.2	397	398	17.8	80.2
2025-09-14T20:05	10	0	0.1	0	0	398	0.3	398	399	17.9	80.1
2025-09-14T20:06	10	0	0.1	0	0	398	0.2	398	399	17.8	80.1
2025-09-14T20:07	10	0	0.1	0	0	398	0.2	398	399	17.9	80.1
2025-09-14T20:08	10	0	0.1	0	0	398	0.3	397	399	17.9	80.1
2025-09-14T20:09	10	0	0.1	0	1	398	0.2	398	399	17.5	80.1
2025-09-14T20:10	10	0	0.1	0	0	398	0.3	398	399	17.9	80.1
2025-09-14T20:11	10	0	0.1	0	0	398	0.2	397	399	17.9	80.1
2025-09-14T20:12	10	0	0.1	0	0	398	0.2	398	399	17.9	80.1
2025-09-14T20:13	10	0	0.1	0	0	398	0.2	397	398	17.8	80.5
2025-09-14T20:14	10	0	0.1	0	0	398	0.2	398	399	17.8	80.6
2025-09-14T20:15	10	0	0.1	0	1	398	0.2	398	399	17.8	80.9
2025-09-14T20:16	10	0	0.1	0	0	398	0.3	398	399	17.8	81.3
2025-09-14T20:17	10	0	0.1	0	0	398	0.2	398	399	17.8	81.0
2025-09-14T20:18	10	0	0.1	0	0	398	0.3	398	399	17.8	81.1
2025-09-14T20:19	10	0	0.1	0	0	398	0.2	398	399	17.8	81.3
2025-09-14T20:20	10	0	0.1	0	1	398	0.2	398	399	17.8	81.4
2025-09-14T20:21	10	0	0.1	0	0	398	0.3	397	398	17.7	81.7
2025-09-14T20:22	10	0	0.1	0	0	398	0.2	397	398	17.7	81.7
2025-09-14T20:23	10	0	0.1	0	1	398	0.2	398	399	17.7	81.7
2025-09-14T20:24	10	0	0.1	0	0	398	0.2	397	398	17.7	81.7
2025-09-14T20:25	10	0	0.1	0	1	398	0.2	398	398	17.8	81.5
2025-09-14T20:26	10	0	0.1	0	0	398	0.2	397	398	17.8	81.6
2025-09-14T20:27	10	0	0.1	0	0	398	0.2	398	399	17.8	81.5
2025-09-14T20:28	10	0	0.1	0	0	398	0.2	398	399	17.8	81.3
2025-09-14T20:29	10	0	0.1	0	0	398	0.3	398	399	17.8	81.5
2025-09-14T20:30	10	0	0.1	0	0	398	0.3	397	399	17.8	81.6
2025-09-14T20:31	10	0	0.1	0	0	398	0.2	398	398	17.8	81.5
2025-09-14T20:32	10	0	0.1	0	0	398	0.3	397	399	17.8	81.4
2025-09-14T20:33	10	0	0.1	0	0	398	0.2	398	399	17.8	81.4
2025-09-14T20:34	10	0	0.1	0	0	398	0.2	398	399	17.8	81.4
2025-09-14T20:35	10	0	0.1	0	0	398	0.2	397	398	17.8	81.6
2025-09-14T20:36	10	0	0.1	0	1	398	0.3	398	399	17.8	81.6
2025-09-14T20:37	10	0	0.1	0	0	398	0.3	398	399	17.8	81.3
2025-09-14T20:38	10	0	0.1	0	1	398	0.2	397	399	17.8	81.7
2025-09-14T20:39	10	0	0.1	0	0	398	0.2	397	398	17.7	82.1
2025-09-14T20:40	10	0	0.1	0	0	398	0.3	397	398	17.8	81.7
2025-09-14T20:41	10	0	0.1	0	0	398	0.3	397	399	17.8	81.8
2025-09-14T20:42	10	0	0.1	0	0	398	0.3	397	398	17.8	81.4
2025-09-14T20:43	10	0	0.1	0	0	398	0.2	398	398	17.8	81.6
2025-09-14T20:44	10	0	0.1	0	0	398	0.2	398	399	17.8	81.7
2025-09-14T20:45	10	0	0.1	0	1	398	0.3	397	398	17.8	82.0
2025-09-14T20:46	10	0	0.1	0	0	398	0.2	397	398	17.8	81.5
2025-09-14T20:47	10	0	0.1	0	0	397	0.3	397	398	17.8	81.7
2025-09-14T20:48	10	0	0.1	0	0	397	0.2	397	398	17.8	81.6
2025-09-14T20:49	10	0	0.1	0	0	398	0.3	397	398	17.8	81.6
2025-09-14T20:50	10	0	0.1	0	0	398	0.2	397	398	17.8	81.6
2025-09-14T20:51	10	0	0.0	0	0	398	0.2	397	398	17.8	81.8
2025-09-14T20:52	10	0	0.1	0	0	398	0.2	397	398	17.8	81.6
2025-09-14T20:53	10	0	0.1	0	0	398	0.2	397	398	17.8	81.8
2025-09-14T20:54	10	0	0.1	0	0	397	0.2	397	398	17.7	82.3
2025-09-14T20:55	10	0	0.1	0	0	398	0.2	397	398	17.8	82.0
2025-09-14T20:56	10	0	0.1	0	0	397	0.2	397	398	17.8	81.8
2025-09-14T20:57	10	0	0.1	0	0	397	0.2	397	398	17.8	81.5
2025-09-14T20:58	10	0	0.1	0	0	397	0.4	396	398	17.8	81.6
2025-09-14T20:59	10	0	0.1	0	0	396	0.2	395	397	17.8	81.6
2025-09-14T21:00	10	0	0.1	0	0	396	0.3	395	396	17.8	81.5
2025-09-14T21:01	10	0	0.0	0	0	395	0.2	395	396	17.8	81.6
2025-09-14T21:02	10	0	0.0	0	0	395	0.3	394	395	17.8	81.7
2025-09-14T21:03	10	0	0.0	0	0	395	0.2	394	395	17.7	81.9
2025-09-14T21:04	10	0	0.0	0	0	395	0.3	394	395	17.8	81.9
2025-09-14T21:05	10	0	0.0	0	0	395	0.2	394	395	17.8	81.7
2025-09-14T21:06	10	0	0.0	0	0	395	0.3	394	395	17.8	81.9
2025-09-14T21:07	10	0	0.0	0	0	394	0.2	393	394	17.7	82.3
2025-09-14T21:08	10	0	0.0	0	0	394	0.3	394	395	17.7	82.4
2025-09-14T21:09	10	0	0.1	0	0	394	0.2	394	395	17.7	82.1
2025-09-14T21:10	10	0	0.0	0	0	394	0.3	393	395	17.7	82.2
2025-09-14T21:11	10	0	0.0	0	0	394	0.2	393	394	17.6	82.7
2025-09-14T21:12	10	0	0.1	0	0	394	0.3	393	394	17.6	82.9
2025-09-14T21:13	10	0	0.0	0	0	394	0.3	393	395	17.6	82.9
2025-09-14T21:14	10	0	0.0	0	0	394	0.3	393	394	17.6	82.9
2025-09-14T21:15	10	0	0.0	0	0	393	0.2	393	394	17.6	83.1
2025-09-14T21:16	10	0	0.0	0	0	394	0.3	393	394	17.7	82.4
2025-09-14T21:17	10	0	0.0	0	0	394	0.3	393	394	17.6	82.7
2025-09-14T21:18	10	0	0.0	0	0	393	0.3	393	394	17.5	83.2
2025-09-14T21:19	10	0	0.1	0	0	393	0.3	392	393	17.5	83.2
2025-09-14T21:20	10	0	0.0	0	0	394	0.3	393	394	17.6	82.7
2025-09-14T21:21	10	0	0.0	0	0	393	0.3	393	394	17.6	82.7
2025-09-14T21:22	10	0	0.0	0	0	394	0.2	393	394	17.6	82.5
2025-09-14T21:23	10	0	0.0	0	0	394	0.2	393	394	17.6	82.5
2025-09-14T21:24	10	0	0.0	0	0	393	0.2	392	393	17.5	83.2
2025-09-14T21:25	10	0	0.0	0	0	393	0.2	392	394	17.5	83.4
2025-09-14T21:26	10	0	0.0	0	0	393	0.2	393	394	17.5	83.4
2025-09-14T21:27	10	0	0.0	0	0	393	0.2	392	393	17.5	83.5
2025-09-14T21:28	10	0	0.0	0	0	392	0.2	392	393	17.4	83.9
2025-09-14T21:29	10	0	0.0	0	0	392	0.3	391	393	17.4	84.1
2025-09-14T21:30	10	0	0.1	0	1	393	0.2	392	393	17.4	83.9
2025-09-14T21:31	10	0	0.0	0	0	393	0.3	392	394	17.4	84.4
2025-09-14T21:32	10	0	0.1	0	1	394	0.3	393	394	17.4	83.8
2025-09-14T21:33	10	0	0.0	0	1	394	0.2	393	394	17.4	84.3
2025-09-14T21:34	10	0	0.0	0	1	394	0.3	393	395	17.4	84.3
2025-09-14T21:35	10	0	0.0	0	1	395	0.2	394	395	17.5	83.6
2025-09-14T21:36	10	0	0.1	0	1	394	0.3	394	395	17.5	83.7
2025-09-14T21:37	10	0	0.1	0	1	395	0.3	394	395	17.5	83.7
2025-09-14T21:38	10	0	0.1	0	1	395	0.3	394	396	17.4	83.8
2025-09-14T21:39	10	0	0.1	0	1	396	0.3	395	396	17.5	83.5
2025-09-14T21:40	10	0	0.1	0	1	396	0.2	395	396	17.5	83.6
2025-09-14T21:41	10	0	0.1	0	0	396	0.2	395	396	17.5	83.6
2025-09-14T21:42	10	0	0.1	0	1	396	0.2	395	396	17.5	83.5
2025-09-14T21:43	10	0	0.1	0	1	395	0.2	395	396	17.5	83.4
2025-09-14T21:44	10	0	0.1	0	1	395	0.2	395	396	17.5	83.8
2025-09-14T21:45	10	0	0.1	0	1	395	0.2	395	396	17.5	84.1
2025-09-14T21:46	10	0	0.1	0	0	395	0.2	395	396	17.5	84.0
2025-09-14T21:47	10	0	0.1	0	0	395	0.3	395	396	17.5	84.1
2025-09-14T21:48	10	0	0.1	0	0	395	0.2	395	396	17.4	84.2
2025-09-14T21:49	10	0	0.1	0	0	395	0.3	394	395	17.4	84.6
2025-09-14T21:50	10	0	0.1	0	0	395	0.2	394	395	17.4	84.6
2025-09-14T21:51	10	0	0.1	0	0	395	0.3	394	396	17.4	84.3
2025-09-14T21:52	10	0	0.1	0	0	395	0.2	395	395	17.5	83.9
2025-09-14T21:53	10	0	0.1	0	0	394	0.3	394	395	17.5	84.2
2025-09-14T21:54	10	0	0.1	0	0	394	0.3	393	395	17.4	84.5
2025-09-14T21:55	10	0	0.1	0	0	393	0.3	393	394	17.5	84.4
2025-09-14T21:56	10	0	0.1	0	0	393	0.2	392	393	17.4	85.0
2025-09-14T21:57	10	0	0.0	0	0	392	0.2	392	393	17.3	85.3
2025-09-14T21:58	10	0	0.1	0	0	392	0.2	391	392	17.3	85.5
2025-09-14T21:59	10	0	0.0	0	0	392	0.3	391	392	17.3	85.5
2025-09-14T22:00	10	0	0.0	0	0	392	0.2	392	393	17.3	85.5
2025-09-14T22:01	10	0	0.1	0	1	393	0.3	392	394	17.4	84.9
2025-09-14T22:02	10	0	0.1	0	1	393	0.3	393	394	17.4	84.9
2025-09-14T22:03	10	0	0.0	0	0	393	0.3	393	394	17.4	85.1
2025-09-14T22:04	10	0	0.1	0	0	394	0.2	393	394	17.4	85.1
2025-09-14T22:05	10	0	0.1	0	0	394	0.3	393	394	17.3	85.4
2025-09-14T22:06	10	0	0.1	0	0	394	0.3	394	395	17.4	85.1
2025-09-14T22:07	10	0	0.0	0	0	395	0.3	394	395	17.4	85.0
2025-09-14T22:08	10	0	0.1	0	0	395	0.2	395	396	17.5	84.5
2025-09-14T22:09	10	0	0.1	0	0	396	0.2	395	396	17.4	85.0
2025-09-14T22:10	10	0	0.1	0	0	396	0.2	395	396	17.4	85.0
2025-09-14T22:11	10	0	0.1	0	0	396	0.2	395	396	17.4	85.1
2025-09-14T22:12	10	0	0.1	0	0	396	0.3	395	396	17.5	84.8
2025-09-14T22:13	10	0	0.1	0	0	396	0.3	395	396	17.4	85.6
2025-09-14T22:14	10	0	0.1	0	0	396	0.3	395	397	17.4	85.7
2025-09-14T22:15	10	0	0.0	0	0	396	0.2	396	396	17.3	85.9
2025-09-14T22:16	10	0	0.1	0	0	396	0.2	395	397	17.4	85.7
2025-09-14T22:17	10	0	0.1	0	0	396	0.2	396	397	17.4	85.6
2025-09-14T22:18	10	0	0.1	0	1	396	0.2	396	397	17.4	85.7
2025-09-14T22:19	10	0	0.1	0	1	396	0.2	396	397	17.4	86.1
2025-09-14T22:20	10	0	0.1	0	0	396	0.2	396	397	17.4	86.0
2025-09-14T22:21	10	0	0.1	0	1	396	0.3	396	397	17.4	86.1
2025-09-14T22:22	10	0	0.1	0	1	396	0.2	396	397	17.4	86.2
2025-09-14T22:23	10	0	0.1	0	0	396	0.2	396	397	17.4	86.2
2025-09-14T22:24	10	0	0.1	0	0	396	0.3	396	397	17.4	86.1
2025-09-14T22:25	10	0	0.1	0	1	396	0.2	396	397	17.3	86.5
2025-09-14T22:26	10	0	0.1	0	1	396	0.3	395	397	17.4	86.3
2025-09-14T22:27	10	0	0.1	0	0	396	0.3	395	396	17.3	86.7
2025-09-14T22:28	10	0	0.1	0	1	396	0.2	396	397	17.3	86.6
2025-09-14T22:29	10	0	0.1	0	1	396	0.3	395	397	17.3	86.6
2025-09-14T22:30	10	0	0.1	0	1	396	0.2	396	397	17.4	86.5
2025-09-14T22:31	10	0	0.1	0	1	396	0.2	395	397	17.4	86.6
2025-09-14T22:32	10	0	0.1	0	1	396	0.3	396	397	17.4	86.5
2025-09-14T22:33	10	0	0.1	0	1	396	0.2	396	397	17.4	86.3
2025-09-14T22:34	10	0	0.1	0	1	396	0.2	396	397	17.4	86.1
2025-09-14T22:35	10	0	0.1	0	1	396	0.3	395	396	17.4	86.2
2025-09-14T22:36	10	0	0.1	0	1	396	0.2	395	396	17.4	86.4
2025-09-14T22:37	10	0	0.1	0	1	395	0.2	395	396	17.4	86.4
2025-09-14T22:38	10	0	0.1	0	1	395	0.2	394	395	17.4	86.1
2025-09-14T22:39	10	0	0.1	0	1	394	0.3	394	395	17.4	86.2
2025-09-14T22:40	10	0	0.1	0	1	395	0.2	394	395	17.5	85.5
2025-09-14T22:41	10	0	0.1	0	1	394	0.3	394	395	17.4	85.8
2025-09-14T22:42	10	1	0.1	0	1	394	0.3	393	395	17.3	86.3
2025-09-14T22:43	10	0	0.1	0	1	394	0.3	393	395	17.4	85.8
2025-09-14T22:44	10	0	0.1	0	1	394	0.2	394	395	17.4	85.8
2025-09-14T22:45	10	0	0.1	0	1	395	0.2	394	395	17.4	85.9
2025-09-14T22:46	10	0	0.1	0	1	395	0.3	394	396	17.4	85.7
2025-09-14T22:47	10	0	0.1	0	1	395	0.3	395	396	17.5	85.5
2025-09-14T22:48	10	0	0.1	0	1	395	0.2	394	395	17.4	86.0
2025-09-14T22:49	10	0	0.1	0	1	395	0.2	394	395	17.4	86.0
2025-09-14T22:50	10	0	0.1	0	1	394	0.3	394	395	17.5	85.5
2025-09-14T22:51	10	0	0.1	0	1	394	0.2	394	395	17.4	86.0
2025-09-14T22:52	10	0	0.1	0	1	394	0.3	393	395	17.4	86.1
2025-09-14T22:53	10	0	0.2	0	1	394	0.2	394	394	17.4	85.6
2025-09-14T22:54	10	0	0.1	0	1	394	0.2	394	395	17.5	85.4
2025-09-14T22:55	10	0	0.2	0	1	394	0.3	394	395	17.5	85.3
2025-09-14T22:56	10	0	0.1	0	1	394	0.3	394	395	17.5	85.1
2025-09-14T22:57	10	0	0.1	0	1	394	0.2	394	395	17.4	85.7
2025-09-14T22:58	10	0	0.1	0	1	395	0.3	394	395	17.4	85.7
2025-09-14T22:59	10	0	0.1	0	1	394	0.2	394	395	17.4	86.3
2025-09-14T23:00	10	0	0.1	0	1	395	0.2	394	395	17.3	86.6
2025-09-14T23:01	10	0	0.2	0	1	394	0.3	394	395	17.3	86.9
2025-09-14T23:02	10	0	0.2	0	1	394	0.4	393	395	17.2	87.2
2025-09-14T23:03	10	0	0.1	0	1	394	0.2	394	395	17.2	87.5
2025-09-14T23:04	10	0	0.2	0	1	394	0.2	393	394	17.2	87.4
2025-09-14T23:05	10	0	0.2	0	1	394	0.3	393	395	17.2	87.3
2025-09-14T23:06	10	0	0.1	0	1	394	0.2	394	394	17.3	86.8
2025-09-14T23:07	10	0	0.2	0	1	394	0.2	393	394	17.2	86.9
2025-09-14T23:08	10	0	0.2	0	1	394	0.2	393	394	17.3	86.8
2025-09-14T23:09	10	0	0.1	0	1	394	0.2	394	395	17.3	86.6
2025-09-14T23:10	10	0	0.1	0	1	394	0.2	393	394	17.3	86.6
2025-09-14T23:11	10	0	0.2	0	1	394	0.2	393	394	17.3	86.3
2025-09-14T23:12	10	0	0.1	0	1	394	0.3	393	395	17.4	85.5
2025-09-14T23:13	10	0	0.1	0	1	394	0.3	393	394	17.3	86.4
2025-09-14T23:14	10	0	0.2	0	1	394	0.3	393	394	17.3	86.4
2025-09-14T23:15	10	0	0.2	0	1	394	0.3	393	395	17.3	86.1
2025-09-14T23:16	10	0	0.1	0	1	394	0.2	394	395	17.3	86.1
2025-09-14T23:17	10	0	0.1	0	1	394	0.3	394	395	17.4	86.0
2025-09-14T23:18	10	0	0.2	0	1	395	0.2	394	395	17.4	86.0
2025-09-14T23:19	10	0	0.1	0	1	395	0.2	394	395	17.3	86.1
2025-09-14T23:20	10	0	0.1	0	1	395	0.2	395	396	17.4	85.8
2025-09-14T23:21	10	0	0.2	0	1	395	0.2	394	396	17.4	85.9
2025-09-14T23:22	10	0	0.2	0	1	395	0.2	395	396	17.4	86.0
2025-09-14T23:23	10	0	0.1	0	1	396	0.2	395	396	17.4	85.9
2025-09-14T23:24	10	0	0.1	0	1	396	0.2	395	396	17.4	85.8
2025-09-14T23:25	10	0	0.2	0	1	396	0.3	395	396	17.3	86.2
2025-09-14T23:26	10	0	0.1	0	1	396	0.3	395	396	17.4	85.7
2025-09-14T23:27	10	0	0.2	0	1	396	0.2	395	396	17.4	85.4
2025-09-14T23:28	10	0	0.1	0	1	395	0.2	395	396	17.4	85.4
2025-09-14T23:29	10	0	0.1	0	1	396	0.2	395	396	17.4	85.6
2025-09-14T23:30	10	0	0.2	0	1	395	0.2	395	396	17.4	85.5
2025-09-14T23:31	10	0	0.1	0	1	395	0.3	394	396	17.5	85.3
2025-09-14T23:32	10	0	0.2	0	1	395	0.3	394	396	17.5	85.1
2025-09-14T23:33	10	0	0.1	0	1	395	0.2	394	395	17.5	85.1
2025-09-14T23:34	10	0	0.2	0	1	395	0.3	395	396	17.5	84.6
2025-09-14T23:35	10	0	0.2	0	1	395	0.3	394	396	17.5	84.8
2025-09-14T23:36	10	0	0.1	0	1	395	0.3	395	396	17.5	84.8
2025-09-14T23:37	10	0	0.2	0	1	396	0.2	395	396	17.6	84.5
2025-09-14T23:38	10	0	0.2	0	1	396	0.2	396	397	17.6	84.4
2025-09-14T23:39	10	0	0.2	0	1	397	0.2	396	397	17.6	84.6
2025-09-14T23:40	10	0	0.1	0	1	397	0.3	396	397	17.6	84.5
2025-09-14T23:41	10	0	0.1	0	1	397	0.3	396	397	17.6	84.4
2025-09-14T23:42	10	0	0.1	0	1	397	0.3	396	397	17.6	84.6
2025-09-14T23:43	10	0	0.1	0	1	397	0.2	396	397	17.6	84.6
2025-09-14T23:44	10	0	0.1	0	1	397	0.2	397	397	17.6	84.4
2025-09-14T23:45	10	0	0.1	0	1	397	0.2	397	397	17.7	84.0
2025-09-14T23:46	10	0	0.1	0	1	397	0.3	397	398	17.6	84.5
2025-09-14T23:47	10	0	0.1	0	1	397	0.2	397	398	17.6	84.4
2025-09-14T23:48	10	0	0.1	0	1	397	0.3	396	398	17.6	84.3
2025-09-14T23:49	10	0	0.1	0	1	397	0.3	397	398	17.7	84.2
2025-09-14T23:50	10	0	0.1	0	1	398	0.3	397	398	17.7	83.9
2025-09-14T23:51	10	0	0.2	0	1	397	0.2	397	398	17.7	84.0
2025-09-14T23:52	10	0	0.2	0	1	397	0.3	396	398	17.7	84.0
2025-09-14T23:53	10	0	0.2	0	1	398	0.2	397	398	17.7	83.7
2025-09-14T23:54	10	0	0.2	0	1	397	0.3	397	398	17.7	84.0
2025-09-14T23:55	10	0	0.1	0	1	397	0.2	397	398	17.7	84.2
2025-09-14T23:56	10	0	0.2	0	1	397	0.3	397	398	17.7	84.4
2025-09-14T23:57	10	0	0.1	0	1	397	0.3	397	398	17.7	84.4
2025-09-14T23:58	10	0	0.1	0	1	397	0.2	397	398	17.6	84.8
2025-09-14T23:59	10	0	0.1	0	1	397	0.3	397	398	17.6	84.7
2025-09-15T00:00	10	0	0.1	0	1	397	0.2	397	398	17.6	84.7
2025-09-15T00:01	10	0	0.1	0	1	397	0.3	397	398	17.7	84.3
2025-09-15T00:02	10	0	0.1	0	0	397	0.3	397	398	17.7	84.4
2025-09-15T00:03	10	0	0.1	0	1	397	0.3	396	398	17.6	84.7
2025-09-15T00:04	10	0	0.2	0	1	397	0.2	396	397	17.6	84.7
2025-09-15T00:05	10	0	0.1	0	1	397	0.3	396	397	17.6	85.1
2025-09-15T00:06	10	0	0.1	0	1	397	0.3	396	397	17.6	85.1
2025-09-15T00:07	10	0	0.2	0	1	397	0.2	396	397	17.6	85.1
2025-09-15T00:08	10	0	0.1	0	0	397	0.3	396	397	17.6	85.0
2025-09-15T00:09	10	0	0.2	0	1	397	0.2	396	397	17.6	84.8
2025-09-15T00:10	10	0	0.1	0	1	397	0.2	396	398	17.6	84.6
2025-09-15T00:11	10	0	0.1	0	1	397	0.3	396	397	17.5	85.2
2025-09-15T00:12	10	0	0.1	0	1	397	0.2	396	397	17.5	84.9
2025-09-15T00:13	10	0	0.2	0	1	397	0.2	396	397	17.6	84.7
2025-09-15T00:14	10	0	0.1	0	1	397	0.2	396	397	17.5	84.9
2025-09-15T00:15	10	0	0.2	0	1	396	0.2	396	397	17.5	85.3
2025-09-15T00:16	10	0	0.1	0	1	397	0.3	396	398	17.5	85.4
2025-09-15T00:17	10	0	0.2	0	1	396	0.2	396	397	17.5	85.3
2025-09-15T00:18	10	0	0.2	0	1	396	0.3	395	397	17.5	84.7
2025-09-15T00:19	10	0	0.1	0	1	396	0.2	396	397	17.5	85.1
2025-09-15T00:20	10	0	0.1	0	0	396	0.2	396	397	17.5	84.8
2025-09-15T00:21	10	0	0.2	0	1	396	0.3	396	397	17.5	84.8
2025-09-15T00:22	10	0	0.1	0	1	396	0.2	395	396	17.5	85.4
2025-09-15T00:23	10	0	0.1	0	1	395	0.2	395	396	17.5	85.2
2025-09-15T00:24	10	0	0.1	0	1	396	0.2	395	396	17.5	84.9
2025-09-15T00:25	10	0	0.2	0	1	395	0.3	395	396	17.5	85.1
2025-09-15T00:26	10	0	0.1	0	1	395	0.2	394	396	17.5	85.3
2025-09-15T00:27	10	0	0.1	0	1	395	0.2	394	396	17.4	85.7
2025-09-15T00:28	10	0	0.1	0	1	395	0.3	395	396	17.4	85.6
2025-09-15T00:29	10	0	0.1	0	1	395	0.2	395	396	17.4	85.7
2025-09-15T00:30	10	0	0.1	0	1	395	0.2	395	396	17.5	85.3
2025-09-15T00:31	10	0	0.1	0	1	396	0.3	395	397	17.5	85.1
2025-09-15T00:32	10	0	0.1	0	1	396	0.2	395	396	17.5	85.0
2025-09-15T00:33	10	0	0.2	0	1	396	0.3	394	397	17.5	85.2
2025-09-15T00:34	10	0	0.1	0	1	396	0.3	395	397	17.4	85.5
2025-09-15T00:35	10	0	0.1	0	1	396	0.2	396	397	17.5	85.0
2025-09-15T00:36	10	0	0.2	0	1	396	0.3	396	397	17.4	85.5
2025-09-15T00:37	10	0	0.1	0	1	396	0.3	396	397	17.5	85.4
2025-09-15T00:38	10	0	0.1	0	1	397	0.2	396	397	17.5	85.1
2025-09-15T00:39	10	0	0.1	0	1	396	0.2	396	397	17.4	85.6
2025-09-15T00:40	10	0	0.1	0	1	396	0.2	395	396	17.4	85.8
2025-09-15T00:41	10	0	0.1	0	1	396	0.3	395	397	17.4	85.9
2025-09-15T00:42	10	0	0.1	0	1	396	0.3	395	396	17.4	85.9
2025-09-15T00:43	10	0	0.1	0	1	396	0.2	396	397	17.4	85.6
2025-09-15T00:44	10	0	0.1	0	1	396	0.2	396	397	17.4	85.7
2025-09-15T00:45	10	0	0.1	0	1	396	0.2	396	396	17.4	85.6
2025-09-15T00:46	10	0	0.1	0	1	396	0.3	395	397	17.5	85.5
2025-09-15T00:47	10	0	0.1	0	1	396	0.2	396	396	17.4	85.6
2025-09-15T00:48	10	0	0.1	0	1	396	0.2	395	397	17.4	85.5
2025-09-15T00:49	10	0	0.1	0	1	396	0.3	395	397	17.5	85.4
2025-09-15T00:50	10	0	0.1	0	1	396	0.3	395	397	17.4	85.6
2025-09-15T00:51	10	0	0.1	0	1	396	0.3	395	397	17.5	85.3
2025-09-15T00:52	10	0	0.1	0	1	396	0.2	396	397	17.5	85.4
2025-09-15T00:53	10	0	0.1	0	1	396	0.3	395	396	17.4	85.7
2025-09-15T00:54	10	0	0.1	0	0	395	0.2	395	396	17.5	85.4
2025-09-15T00:55	10	0	0.1	0	1	395	0.3	394	395	17.4	85.6
2025-09-15T00:56	10	0	0.1	0	0	395	0.2	395	396	17.5	85.0
2025-09-15T00:57	10	0	0.1	0	0	395	0.3	394	396	17.5	85.1
2025-09-15T00:58	10	0	0.1	0	0	395	0.2	395	395	17.5	85.2
2025-09-15T00:59	10	0	0.1	0	1	395	0.3	394	396	17.4	85.8
2025-09-15T01:00	10	0	0.1	0	1	395	0.2	395	396	17.4	85.6
2025-09-15T01:01	10	0	0.1	0	1	395	0.3	394	396	17.4	85.9
2025-09-15T01:02	10	0	0.2	0	1	395	0.2	394	396	17.4	86.0
2025-09-15T01:03	10	0	0.1	0	1	395	0.3	395	396	17.4	85.6
2025-09-15T01:04	10	0	0.1	0	1	395	0.2	395	396	17.5	85.5
2025-09-15T01:05	10	0	0.1	0	1	395	0.3	395	396	17.4	85.8
2025-09-15T01:06	10	0	0.1	0	1	395	0.2	395	396	17.4	85.9
2025-09-15T01:07	10	0	0.0	0	1	395	0.2	395	396	17.4	85.8
2025-09-15T01:08	10	0	0.1	0	1	395	0.2	395	396	17.4	86.1
2025-09-15T01:09	10	0	0.1	0	1	396	0.2	395	396	17.5	85.6
2025-09-15T01:10	10	0	0.0	0	1	396	0.2	395	396	17.4	85.7
2025-09-15T01:11	10	0	0.1	0	1	396	0.2	395	396	17.4	85.8
2025-09-15T01:12	10	0	0.1	0	1	396	0.2	395	396	17.4	85.9
2025-09-15T01:13	10	0	0.1	0	1	395	0.2	395	396	17.4	86.3
2025-09-15T01:14	10	0	0.1	0	1	396	0.2	395	396	17.4	86.1
2025-09-15T01:15	10	0	0.1	0	1	396	0.2	395	396	17.4	86.1
2025-09-15T01:16	10	0	0.1	0	1	396	0.2	395	396	17.3	86.4
2025-09-15T01:17	10	0	0.1	0	1	396	0.2	395	396	17.3	86.4
2025-09-15T01:18	10	0	0.1	0	1	396	0.2	395	396	17.4	86.4
2025-09-15T01:19	10	0	0.1	0	1	396	0.2	395	396	17.4	86.2
2025-09-15T01:20	10	0	0.1	0	1	396	0.2	395	396	17.4	86.2
2025-09-15T01:21	10	0	0.1	0	1	396	0.2	396	396	17.5	85.5
2025-09-15T01:22	10	0	0.1	0	1	396	0.3	396	397	17.4	85.8
2025-09-15T01:23	10	0	0.1	0	1	396	0.2	395	396	17.4	85.9
2025-09-15T01:24	10	0	0.1	0	1	396	0.2	396	397	17.4	86.1
2025-09-15T01:25	10	1	0.1	0	1	396	0.3	395	396	17.4	86.4
2025-09-15T01:26	10	0	0.1	0	1	396	0.2	395	396	17.4	86.5
2025-09-15T01:27	10	0	0.1	0	1	396	0.3	396	397	17.4	86.3
2025-09-15T01:28	10	0	0.1	0	1	396	0.2	396	397	17.5	85.6
2025-09-15T01:29	10	0	0.2	0	1	396	0.3	396	397	17.4	85.9
2025-09-15T01:30	10	0	0.1	0	1	396	0.3	396	397	17.4	85.8
2025-09-15T01:31	10	0	0.1	0	1	396	0.2	396	397	17.4	86.0
2025-09-15T01:32	10	0	0.1	0	1	397	0.2	396	397	17.5	85.0
2025-09-15T01:33	10	0	0.1	0	1	397	0.2	396	397	17.5	85.0
2025-09-15T01:34	10	0	0.1	0	1	396	0.3	396	397	17.5	85.2
2025-09-15T01:35	10	0	0.2	0	1	396	0.2	396	397	17.4	85.6
2025-09-15T01:36	10	0	0.1	0	1	396	0.3	395	396	17.4	86.0
2025-09-15T01:37	10	0	0.2	0	1	396	0.3	395	396	17.4	85.8
2025-09-15T01:38	10	0	0.1	0	1	396	0.3	395	396	17.4	86.3
2025-09-15T01:39	10	0	0.1	0	1	396	0.2	395	397	17.4	86.3
2025-09-15T01:40	10	0	0.1	0	1	396	0.2	395	396	17.4	86.4
2025-09-15T01:41	10	0	0.1	0	1	396	0.3	395	396	17.3	86.5
2025-09-15T01:42	10	1	0.2	0	1	396	0.3	395	396	17.3	86.5
2025-09-15T01:43	10	0	0.1	0	1	396	0.2	395	396	17.4	86.5
2025-09-15T01:44	10	0	0.2	0	1	396	0.2	395	396	17.3	86.7
2025-09-15T01:45	10	0	0.2	0	1	396	0.2	395	396	17.3	87.0
2025-09-15T01:46	10	0	0.1	0	1	396	0.2	395	396	17.3	86.8
2025-09-15T01:47	10	0	0.1	0	1	395	0.2	395	396	17.3	86.7
2025-09-15T01:48	10	0	0.2	0	1	395	0.3	395	396	17.3	86.8
2025-09-15T01:49	10	0	0.1	0	1	395	0.3	395	396	17.3	86.6
2025-09-15T01:50	10	0	0.1	0	1	395	0.3	394	396	17.4	86.4
2025-09-15T01:51	10	0	0.2	0	1	395	0.2	395	395	17.3	87.1
2025-09-15T01:52	10	0	0.2	0	1	395	0.2	394	395	17.3	87.0
2025-09-15T01:53	10	0	0.1	0	1	395	0.2	394	395	17.3	87.0
2025-09-15T01:54	10	0	0.1	0	1	395	0.2	395	395	17.3	86.8
2025-09-15T01:55	10	0	0.1	0	1	395	0.2	395	396	17.3	86.9
2025-09-15T01:56	10	1	0.1	0	1	395	0.2	395	396	17.2	87.2
2025-09-15T01:57	10	0	0.2	0	1	395	0.3	395	396	17.3	87.0
2025-09-15T01:58	10	0	0.1	0	1	395	0.3	394	396	17.3	86.7
2025-09-15T01:59	10	0	0.1	0	1	395	0.2	395	396	17.3	86.8
2025-09-15T02:00	10	0	0.2	0	1	395	0.3	395	396	17.3	86.8
2025-09-15T02:01	10	0	0.1	0	1	395	0.2	394	395	17.3	87.0
2025-09-15T02:02	10	0	0.1	0	1	395	0.2	394	395	17.3	86.9
2025-09-15T02:03	10	0	0.1	0	1	395	0.3	394	395	17.3	87.0
2025-09-15T02:04	10	0	0.1	0	1	394	0.3	394	395	17.2	87.1
2025-09-15T02:05	10	0	0.1	0	1	394	0.3	393	395	17.2	87.4
2025-09-15T02:06	10	0	0.2	0	1	394	0.3	393	394	17.1	87.8
2025-09-15T02:07	10	0	0.2	0	1	394	0.2	393	394	17.2	87.4
2025-09-15T02:08	10	0	0.1	0	1	393	0.3	393	394	17.1	87.5
2025-09-15T02:09	10	0	0.2	0	1	393	0.2	393	394	17.1	87.6
2025-09-15T02:10	10	0	0.1	0	1	393	0.3	392	393	17.1	87.5
2025-09-15T02:11	10	0	0.1	0	1	392	0.3	392	393	17.2	87.3
2025-09-15T02:12	10	0	0.1	0	1	392	0.3	391	393	17.1	87.4
2025-09-15T02:13	10	0	0.2	0	1	392	0.3	392	393	17.1	87.4
2025-09-15T02:14	10	0	0.1	0	1	392	0.3	391	393	17.2	87.0
2025-09-15T02:15	10	0	0.1	0	1	392	0.3	391	393	17.1	87.2
2025-09-15T02:16	10	0	0.2	0	1	393	0.2	393	394	17.3	86.0
2025-09-15T02:17	10	0	0.1	0	1	393	0.2	393	394	17.3	85.8
2025-09-15T02:18	10	0	0.1	0	1	393	0.2	393	394	17.4	85.3
2025-09-15T02:19	10	0	0.1	0	1	394	0.3	393	395	17.5	84.7
2025-09-15T02:20	10	0	0.1	0	1	394	0.2	394	395	17.5	84.5
2025-09-15T02:21	10	0	0.1	0	1	395	0.4	394	396	17.5	84.1
2025-09-15T02:22	10	0	0.1	0	1	395	0.2	394	395	17.6	83.5
2025-09-15T02:23	10	1	0.2	0	1	395	0.4	394	396	17.6	83.6
2025-09-15T02:24	10	1	0.1	0	1	395	0.2	394	395	17.5	83.7
2025-09-15T02:25	10	1	0.2	0	1	395	0.3	394	395	17.5	83.8
2025-09-15T02:26	10	1	0.2	0	1	394	0.3	394	395	17.6	83.7
2025-09-15T02:27	10	1	0.2	0	1	394	0.3	394	395	17.5	83.9
2025-09-15T02:28	10	1	0.1	0	1	394	0.2	394	395	17.5	83.9
2025-09-15T02:29	10	1	0.2	0	1	395	0.2	394	395	17.6	83.5
2025-09-15T02:30	10	0	0.1	0	1	394	0.3	394	395	17.5	83.8
2025-09-15T02:31	10	1	0.1	0	1	394	0.3	394	395	17.5	84.0
2025-09-15T02:32	10	0	0.1	0	1	394	0.2	393	394	17.4	84.5
2025-09-15T02:33	10	0	0.1	0	1	394	0.3	393	394	17.4	84.4
2025-09-15T02:34	10	0	0.1	0	1	393	0.2	393	394	17.4	84.4
2025-09-15T02:35	10	0	0.1	0	1	393	0.3	392	393	17.5	84.1
2025-09-15T02:36	10	0	0.1	0	1	393	0.3	392	393	17.4	84.4
2025-09-15T02:37	10	1	0.2	0	1	392	0.3	391	393	17.4	84.5
2025-09-15T02:38	10	1	0.2	0	1	392	0.3	392	393	17.4	84.5
2025-09-15T02:39	10	0	0.1	0	1	392	0.4	392	393	17.5	84.1
2025-09-15T02:40	10	0	0.2	0	1	392	0.3	392	393	17.5	83.9
2025-09-15T02:41	10	0	0.1	0	1	392	0.2	391	392	17.5	83.7
2025-09-15T02:42	10	1	0.1	0	1	392	0.3	391	393	17.5	83.8
2025-09-15T02:43	10	0	0.1	0	1	392	0.3	391	392	17.4	84.2
2025-09-15T02:44	10	1	0.1	0	1	392	0.3	391	392	17.4	84.1
2025-09-15T02:45	10	0	0.1	0	1	392	0.2	391	393	17.5	83.8
2025-09-15T02:46	10	0	0.1	0	1	392	0.2	391	392	17.5	83.8
2025-09-15T02:47	10	1	0.1	0	1	392	0.2	391	392	17.5	83.7
2025-09-15T02:48	10	0	0.2	0	1	391	0.3	391	392	17.4	84.1
2025-09-15T02:49	10	0	0.1	0	1	392	0.5	391	393	17.6	83.4
2025-09-15T02:50	10	0	0.1	0	1	392	0.3	391	392	17.5	83.6
2025-09-15T02:51	10	0	0.1	0	1	392	0.4	391	393	17.5	83.8
2025-09-15T02:52	10	1	0.2	0	1	392	0.2	391	392	17.5	84.0
2025-09-15T02:53	10	0	0.1	0	1	391	0.2	391	392	17.5	83.9
2025-09-15T02:54	10	0	0.1	0	1	392	0.3	391	393	17.5	83.8
2025-09-15T02:55	10	0	0.1	0	1	392	0.3	391	392	17.4	84.2
2025-09-15T02:56	10	1	0.1	0	1	392	0.2	391	392	17.5	84.2
2025-09-15T02:57	10	1	0.1	0	1	392	0.3	392	393	17.5	83.8
2025-09-15T02:58	10	1	0.1	0	1	392	0.4	390	393	17.5	83.9
2025-09-15T02:59	10	0	0.1	0	1	391	0.3	390	392	17.4	84.5
2025-09-15T03:00	10	1	0.2	0	1	391	0.2	391	392	17.4	84.5
2025-09-15T03:01	10	1	0.2	0	1	391	0.3	390	392	17.4	84.3
2025-09-15T03:02	10	0	0.1	0	1	391	0.3	391	392	17.5	84.1
2025-09-15T03:03	10	1	0.2	0	1	391	0.3	390	391	17.4	84.7
2025-09-15T03:04	10	0	0.1	0	1	390	0.3	389	391	17.3	84.8
2025-09-15T03:05	10	0	0.2	0	1	390	0.3	389	391	17.3	85.2
2025-09-15T03:06	10	0	0.1	0	1	390	0.4	389	391	17.4	84.4
2025-09-15T03:07	10	0	0.1	0	1	390	0.3	390	391	17.4	84.5
2025-09-15T03:08	10	0	0.1	0	1	391	0.2	390	391	17.4	84.5
2025-09-15T03:09	10	0	0.1	0	1	391	0.3	390	391	17.4	84.6
2025-09-15T03:10	10	0	0.2	0	1	390	0.5	389	391	17.3	84.9
2025-09-15T03:11	10	0	0.1	0	1	390	0.3	389	391	17.3	85.1
2025-09-15T03:12	10	0	0.2	0	1	389	0.3	388	390	17.1	85.7
2025-09-15T03:13	10	0	0.1	0	1	389	0.2	388	389	17.2	85.7
2025-09-15T03:14	10	0	0.1	0	1	388	0.3	388	389	17.1	86.1
2025-09-15T03:15	10	0	0.1	0	1	388	0.2	387	389	17.0	86.3
2025-09-15T03:16	10	0	0.2	0	1	387	0.2	387	388	16.9	87.0
2025-09-15T03:17	10	0	0.2	0	1	387	0.2	387	388	16.9	87.3
2025-09-15T03:18	10	0	0.1	0	1	387	0.3	387	388	16.9	87.6
2025-09-15T03:19	10	0	0.1	0	1	387	0.3	386	388	16.8	87.9
2025-09-15T03:20	10	0	0.1	0	1	387	0.3	386	388	16.7	88.5
2025-09-15T03:21	10	0	0.1	0	1	387	0.2	386	387	16.6	88.9
2025-09-15T03:22	10	0	0.2	0	1	387	0.3	386	387	16.6	89.1
2025-09-15T03:23	10	0	0.1	0	1	387	0.3	386	388	16.6	89.1
2025-09-15T03:24	10	0	0.1	0	1	388	0.2	387	388	16.7	89.0
2025-09-15T03:25	10	0	0.1	0	1	388	0.3	387	389	16.7	89.0
2025-09-15T03:26	10	0	0.1	0	1	387	0.3	387	388	16.6	89.3
2025-09-15T03:27	10	0	0.1	0	1	388	0.2	387	388	16.6	89.3
2025-09-15T03:28	10	0	0.2	0	1	387	0.2	387	388	16.6	89.6
2025-09-15T03:29	10	0	0.1	0	1	387	0.3	387	388	16.6	89.6
2025-09-15T03:30	10	0	0.1	0	0	387	0.2	386	387	16.6	89.8
2025-09-15T03:31	10	0	0.1	0	1	386	0.2	386	387	16.5	89.9
2025-09-15T03:32	10	0	0.2	0	1	386	0.3	385	386	16.5	90.1
2025-09-15T03:33	10	0	0.1	0	0	386	0.2	385	386	16.5	90.1
2025-09-15T03:34	10	0	0.1	0	0	386	0.3	385	386	16.5	90.1
2025-09-15T03:35	10	0	0.1	0	0	385	0.2	384	385	16.5	90.1
2025-09-15T03:36	10	0	0.0	0	0	385	0.2	384	385	16.5	90.2
2025-09-15T03:37	10	0	0.1	0	0	385	0.4	384	386	16.4	90.3
2025-09-15T03:38	10	0	0.1	0	0	385	0.3	385	386	16.5	90.2
2025-09-15T03:39	10	0	0.1	0	0	385	0.2	385	386	16.5	90.3
2025-09-15T03:40	10	0	0.1	0	0	385	0.3	384	385	16.5	90.2
2025-09-15T03:41	10	0	0.1	0	1	385	0.3	384	386	16.5	90.0
2025-09-15T03:42	10	0	0.1	0	0	385	0.3	385	386	16.5	90.1
2025-09-15T03:43	10	0	0.0	0	0	386	0.3	385	386	16.5	89.7
2025-09-15T03:44	10	0	0.1	0	1	386	0.4	386	387	16.6	89.3
2025-09-15T03:45	10	0	0.1	0	1	386	0.2	386	387	16.6	89.2
2025-09-15T03:46	10	0	0.1	0	0	386	0.3	385	387	16.6	89.3
2025-09-15T03:47	10	0	0.1	0	0	386	0.3	385	386	16.5	89.6
2025-09-15T03:48	10	0	0.0	0	0	386	0.3	386	387	16.6	89.3
2025-09-15T03:49	10	0	0.1	0	0	387	0.2	386	387	16.6	89.3
2025-09-15T03:50	10	0	0.1	0	0	387	0.3	386	387	16.6	89.4
2025-09-15T03:51	10	0	0.1	0	0	387	0.2	386	387	16.6	89.2
2025-09-15T03:52	10	0	0.1	0	1	387	0.3	386	387	16.6	89.3
2025-09-15T03:53	10	0	0.1	0	1	387	0.4	386	387	16.6	89.2
2025-09-15T03:54	10	0	0.1	0	0	386	0.2	386	387	16.6	89.4
2025-09-15T03:55	10	0	0.1	0	1	387	0.2	386	387	16.6	89.1
2025-09-15T03:56	10	0	0.1	0	0	386	0.2	386	387	16.6	89.3
2025-09-15T03:57	10	0	0.1	0	1	387	0.3	386	387	16.6	89.2
2025-09-15T03:58	10	0	0.0	0	0	387	0.3	386	388	16.6	89.0
2025-09-15T03:59	10	0	0.1	0	1	387	0.3	386	387	16.7	88.7
2025-09-15T04:00	10	0	0.1	0	0	387	0.3	386	387	16.6	88.9
2025-09-15T04:01	10	0	0.0	0	0	386	0.2	385	387	16.6	89.0
2025-09-15T04:02	10	0	0.1	0	0	387	0.3	386	387	16.6	89.0
2025-09-15T04:03	10	0	0.1	0	0	386	0.3	386	387	16.6	89.2
2025-09-15T04:04	10	0	0.1	0	0	386	0.3	385	387	16.5	89.6
2025-09-15T04:05	10	0	0.1	0	1	386	0.3	385	386	16.4	90.0
2025-09-15T04:06	10	0	0.0	0	0	385	0.3	385	386	16.4	90.2
2025-09-15T04:07	10	0	0.0	0	1	385	0.3	384	386	16.3	90.2
2025-09-15T04:08	10	0	0.0	0	1	385	0.3	385	386	16.3	90.3
2025-09-15T04:09	10	0	0.0	0	0	385	0.2	385	386	16.4	90.3
2025-09-15T04:10	10	0	0.0	0	0	385	0.3	385	386	16.4	90.3
2025-09-15T04:11	10	0	0.0	0	0	385	0.2	385	386	16.4	90.3
2025-09-15T04:12	10	0	0.1	0	0	386	0.3	385	386	16.4	90.3
2025-09-15T04:13	10	0	0.0	0	0	386	0.3	385	386	16.3	90.4
2025-09-15T04:14	10	0	0.1	0	0	386	0.2	385	386	16.3	90.6
2025-09-15T04:15	10	0	0.0	0	0	386	0.2	385	386	16.3	90.5
2025-09-15T04:16	10	0	0.1	0	0	386	0.3	385	387	16.3	90.3
2025-09-15T04:17	10	0	0.1	0	0	386	0.2	386	387	16.4	90.2
2025-09-15T04:18	10	0	0.1	0	1	386	0.2	386	387	16.4	90.0
2025-09-15T04:19	10	0	0.1	0	1	386	0.2	386	387	16.4	90.0
2025-09-15T04:20	10	0	0.1	0	0	387	0.2	386	387	16.4	89.9
2025-09-15T04:21	10	0	0.1	0	1	386	0.2	386	387	16.4	90.0
2025-09-15T04:22	10	0	0.1	0	1	387	0.2	386	387	16.4	90.0
2025-09-15T04:23	10	0	0.1	0	1	387	0.2	386	387	16.4	89.9
2025-09-15T04:24	10	0	0.1	0	0	386	0.3	386	387	16.4	90.0
2025-09-15T04:25	10	0	0.1	0	1	386	0.2	386	387	16.3	90.2
2025-09-15T04:26	10	0	0.0	0	1	387	0.2	386	387	16.4	89.9
2025-09-15T04:27	10	0	0.1	0	1	386	0.2	386	387	16.3	90.3
2025-09-15T04:28	10	0	0.1	0	1	386	0.3	385	387	16.3	90.3
2025-09-15T04:29	10	0	0.1	0	1	386	0.2	386	386	16.2	90.6
2025-09-15T04:30	10	0	0.1	0	0	386	0.3	385	386	16.2	90.6
2025-09-15T04:31	10	0	0.1	0	1	386	0.3	385	386	16.2	90.6
2025-09-15T04:32	10	0	0.0	0	0	386	0.3	386	387	16.3	90.2
2025-09-15T04:33	10	0	0.1	0	1	386	0.3	386	387	16.3	90.0
2025-09-15T04:34	10	0	0.1	0	0	386	0.2	386	387	16.3	90.1
2025-09-15T04:35	10	0	0.1	0	1	386	0.3	386	387	16.4	89.8
2025-09-15T04:36	10	0	0.1	0	1	386	0.3	386	387	16.3	90.2
2025-09-15T04:37	10	0	0.0	0	0	386	0.3	385	386	16.3	90.3
2025-09-15T04:38	10	0	0.1	0	1	386	0.3	385	386	16.4	89.8
2025-09-15T04:39	10	0	0.1	0	1	386	0.2	385	386	16.4	89.8
2025-09-15T04:40	10	0	0.1	0	1	387	0.5	385	387	16.4	89.4
2025-09-15T04:41	10	0	0.1	0	1	386	0.2	386	387	16.4	89.3
2025-09-15T04:42	10	0	0.1	0	0	386	0.3	385	387	16.4	89.5
2025-09-15T04:43	10	0	0.1	0	1	387	0.4	386	387	16.5	89.0
2025-09-15T04:44	10	0	0.1	0	1	386	0.2	386	387	16.5	88.9
2025-09-15T04:45	10	0	0.1	0	1	386	0.2	385	386	16.4	89.3
2025-09-15T04:46	10	0	0.1	0	1	386	0.3	385	386	16.3	89.8
2025-09-15T04:47	10	1	0.1	0	1	386	0.2	385	386	16.3	89.8
2025-09-15T04:48	10	0	0.1	0	1	386	0.3	385	386	16.3	89.7
2025-09-15T04:49	10	0	0.1	0	1	385	0.2	385	386	16.2	89.8
2025-09-15T04:50	10	1	0.1	0	1	385	0.3	385	386	16.2	89.8
2025-09-15T04:51	10	1	0.1	0	1	386	0.3	385	386	16.3	89.3
2025-09-15T04:52	10	1	0.1	0	1	385	0.3	385	386	16.2	89.2
2025-09-15T04:53	10	1	0.1	0	1	385	0.3	384	385	16.2	88.9
2025-09-15T04:54	10	1	0.1	0	1	385	0.3	384	386	16.2	88.8
2025-09-15T04:55	10	1	0.1	0	1	385	0.2	385	386	16.3	87.9
2025-09-15T04:56	10	1	0.1	0	1	385	0.3	384	386	16.4	87.0
2025-09-15T04:57	10	1	0.1	0	1	385	0.3	384	386	16.3	87.3
2025-09-15T04:58	10	1	0.1	1	1	385	0.3	384	386	16.3	87.1
2025-09-15T04:59	10	1	0.1	0	1	385	0.3	385	386	16.4	86.4
2025-09-15T05:00	10	1	0.1	1	1	385	0.2	385	385	16.4	86.7
2025-09-15T05:01	10	1	0.1	1	1	385	0.2	384	385	16.3	86.7
2025-09-15T05:02	10	1	0.1	0	1	384	0.3	384	385	16.3	87.0
2025-09-15T05:03	10	1	0.1	1	1	384	0.2	384	385	16.3	86.8
2025-09-15T05:04	10	1	0.1	1	1	384	0.3	384	385	16.3	86.9
2025-09-15T05:05	10	1	0.1	1	1	384	0.3	384	385	16.3	86.7
2025-09-15T05:06	10	1	0.1	1	1	384	0.3	384	385	16.2	87.1
2025-09-15T05:07	10	1	0.1	1	1	385	0.2	384	385	16.1	87.6
2025-09-15T05:08	10	1	0.1	1	1	384	0.3	384	385	16.2	87.7
2025-09-15T05:09	10	1	0.1	1	1	385	0.3	385	386	16.3	87.3
2025-09-15T05:10	10	1	0.1	1	1	385	0.3	385	386	16.3	87.4
2025-09-15T05:11	10	1	0.1	1	2	386	0.3	385	386	16.4	87.1
2025-09-15T05:12	10	1	0.1	1	2	386	0.2	385	386	16.4	87.1
2025-09-15T05:13	10	2	0.1	1	2	385	0.3	385	386	16.4	87.1
2025-09-15T05:14	10	2	0.1	1	2	386	0.3	385	387	16.4	86.8
2025-09-15T05:15	10	2	0.1	2	2	386	0.2	386	387	16.5	86.6
2025-09-15T05:16	10	2	0.1	2	2	386	0.2	386	387	16.5	86.3
2025-09-15T05:17	10	2	0.1	2	2	386	0.3	386	387	16.5	86.5
2025-09-15T05:18	10	2	0.1	2	2	387	0.3	386	387	16.5	86.4
2025-09-15T05:19	10	2	0.1	2	2	387	0.2	386	388	16.6	85.8
2025-09-15T05:20	10	2	0.1	2	2	387	0.2	386	388	16.7	85.8
2025-09-15T05:21	10	2	0.1	2	2	387	0.2	386	388	16.6	85.8
2025-09-15T05:22	10	2	0.1	2	2	387	0.2	386	387	16.6	86.0
2025-09-15T05:23	10	2	0.1	2	2	387	0.3	387	388	16.7	85.6
2025-09-15T05:24	10	3	0.2	2	3	387	0.2	387	388	16.7	85.7
2025-09-15T05:25	10	4	0.3	3	4	387	0.3	387	388	16.6	86.0
2025-09-15T05:26	10	4	0.2	4	5	387	0.2	386	387	16.5	86.8
2025-09-15T05:27	10	5	0.1	4	5	386	0.2	386	387	16.5	86.8
2025-09-15T05:28	10	5	0.1	5	5	386	0.2	385	386	16.4	87.3
2025-09-15T05:29	10	5	0.1	5	5	386	0.3	385	387	16.3	87.6
2025-09-15T05:30	10	5	0.1	5	5	386	0.2	385	386	16.3	88.1
2025-09-15T05:31	10	5	0.1	5	5	385	0.2	385	386	16.1	88.8
2025-09-15T05:32	10	5	0.1	5	5	385	0.2	385	386	16.0	89.3
2025-09-15T05:33	10	5	0.1	5	5	385	0.2	385	386	16.0	89.6
2025-09-15T05:34	10	5	0.1	5	6	385	0.4	385	386	16.0	89.3
2025-09-15T05:35	10	6	0.2	5	6	386	0.3	385	387	16.1	88.8
2025-09-15T05:36	10	6	0.2	6	6	387	0.2	386	387	16.2	88.3
2025-09-15T05:37	10	7	0.3	6	8	386	0.2	386	387	16.2	88.3
2025-09-15T05:38	10	8	0.3	7	8	387	0.2	386	387	16.3	87.9
2025-09-15T05:39	10	9	0.3	8	9	387	0.3	386	387	16.3	88.0
2025-09-15T05:40	10	10	0.3	9	10	387	0.3	387	388	16.4	87.2
2025-09-15T05:41	10	11	0.3	10	11	387	0.3	387	388	16.4	86.7
2025-09-15T05:42	10	12	0.2	11	12	388	0.2	387	388	16.5	86.5
2025-09-15T05:43	10	12	0.2	12	13	388	0.2	387	388	16.5	86.4
2025-09-15T05:44	10	13	0.2	12	13	388	0.2	387	388	16.4	86.5
2025-09-15T05:45	10	14	0.3	13	14	388	0.2	387	388	16.4	86.8
2025-09-15T05:46	10	14	0.2	14	15	388	0.2	387	388	16.4	86.8
2025-09-15T05:47	10	15	0.2	14	15	388	0.3	387	389	16.5	85.7
2025-09-15T05:48	10	16	0.2	15	16	388	0.3	388	389	16.5	85.7
2025-09-15T05:49	10	16	0.2	16	16	388	0.3	388	389	16.5	86.1
2025-09-15T05:50	10	17	0.2	16	17	388	0.2	388	389	16.4	86.1
2025-09-15T05:51	10	17	0.2	17	18	388	0.2	388	389	16.5	85.8
2025-09-15T05:52	10	18	0.2	18	18	388	0.2	388	389	16.5	86.1
2025-09-15T05:53	10	19	0.2	18	19	388	0.3	388	389	16.5	86.2
2025-09-15T05:54	10	19	0.2	19	20	389	0.3	388	389	16.5	86.2
2025-09-15T05:55	10	20	0.2	20	20	389	0.2	388	389	16.5	85.7
2025-09-15T05:56	10	21	0.2	20	21	389	0.2	388	390	16.6	84.7
2025-09-15T05:57	10	21	0.2	21	22	389	0.3	389	390	16.7	84.2
2025-09-15T05:58	10	22	0.2	22	22	390	0.2	389	390	16.8	83.5
2025-09-15T05:59	10	23	0.2	22	23	390	0.3	390	391	16.9	82.6
2025-09-15T06:00	10	23	0.2	23	24	390	0.2	390	390	17.0	81.9
2025-09-15T06:01	10	24	0.3	24	25	390	0.2	390	391	17.0	81.6
2025-09-15T06:02	10	25	0.2	25	26	390	0.2	390	391	17.0	81.9
2025-09-15T06:03	10	26	0.3	25	27	391	0.1	390	391	17.0	81.2
2025-09-15T06:04	10	27	0.2	26	27	391	0.2	390	391	17.0	81.5
2025-09-15T06:05	10	28	0.2	27	28	391	0.3	390	391	16.9	82.0
2025-09-15T06:06	10	28	0.2	28	29	391	0.2	390	391	16.9	81.7
2025-09-15T06:07	10	29	0.1	29	29	391	0.3	390	391	16.9	82.1
2025-09-15T06:08	10	29	0.2	29	30	391	0.3	390	391	16.8	82.2
2025-09-15T06:09	10	30	0.2	30	30	391	0.3	391	392	16.9	81.9
2025-09-15T06:10	10	30	0.2	30	31	391	0.2	391	392	16.9	81.1
2025-09-15T06:11	10	31	0.2	31	32	391	0.3	391	392	16.9	81.1
2025-09-15T06:12	10	32	0.2	31	32	391	0.2	391	392	16.9	81.3
2025-09-15T06:13	10	33	0.5	32	34	392	0.3	391	392	16.9	81.2
2025-09-15T06:14	10	34	0.5	33	35	392	0.3	391	392	16.9	80.7
2025-09-15T06:15	10	26	5.3	15	34	392	0.5	391	392	16.9	81.2
2025-09-15T06:16	10	8	2.9	5	15	390	0.6	389	392	16.9	81.1
2025-09-15T06:17	10	17	7.9	5	29	390	0.4	389	391	16.9	81.0
2025-09-15T06:18	10	35	5.1	26	39	391	0.6	390	392	16.9	80.6
2025-09-15T06:19	10	39	0.2	39	40	392	0.4	391	393	17.0	80.0
2025-09-15T06:20	10	40	0.2	40	40	392	0.2	392	393	17.0	79.8
2025-09-15T06:21	10	41	0.2	40	41	393	0.2	392	393	17.1	79.5
2025-09-15T06:22	10	41	0.1	41	41	393	0.3	392	393	17.1	79.2
2025-09-15T06:23	10	41	0.1	41	41	393	0.3	392	393	17.1	78.7
2025-09-15T06:24	10	42	0.2	41	42	393	0.3	393	394	17.2	78.5
2025-09-15T06:25	10	42	0.1	42	42	394	0.2	393	394	17.2	78.1
2025-09-15T06:26	10	42	0.1	42	42	394	0.3	393	394	17.3	78.1
2025-09-15T06:27	10	43	0.2	42	43	394	0.2	393	394	17.3	77.7
2025-09-15T06:28	10	43	0.1	43	44	394	0.2	394	395	17.3	77.9
2025-09-15T06:29	10	44	0.2	43	44	394	0.3	394	395	17.3	77.8
2025-09-15T06:30	10	44	0.1	44	44	395	0.2	394	395	17.3	78.0
2025-09-15T06:31	10	44	0.1	44	45	395	0.2	394	395	17.3	77.6
2025-09-15T06:32	10	45	0.2	44	45	395	0.3	394	395	17.4	77.3
2025-09-15T06:33	10	45	0.2	45	46	395	0.3	395	396	17.4	77.3
2025-09-15T06:34	10	46	0.2	46	46	395	0.4	394	396	17.4	77.5
2025-09-15T06:35	10	47	0.3	46	47	395	0.3	395	396	17.4	77.0
2025-09-15T06:36	10	48	0.2	47	48	395	0.3	395	396	17.4	76.7
2025-09-15T06:37	10	48	0.2	48	49	395	0.2	395	396	17.4	77.2
2025-09-15T06:38	10	49	0.2	49	49	396	0.3	395	396	17.4	77.1
2025-09-15T06:39	10	50	0.2	49	50	396	0.2	396	397	17.4	77.2
2025-09-15T06:40	10	50	0.3	50	51	396	0.3	396	397	17.5	77.3
2025-09-15T06:41	10	51	0.2	51	52	396	0.2	396	397	17.5	77.4
2025-09-15T06:42	10	52	0.2	51	52	397	0.3	396	397	17.5	77.3
2025-09-15T06:43	10	53	0.3	52	53	397	0.2	397	398	17.5	77.1
2025-09-15T06:44	10	53	0.3	53	54	397	0.2	397	398	17.5	77.0
2025-09-15T06:45	10	54	0.3	53	54	398	0.3	397	398	17.6	77.2
2025-09-15T06:46	10	55	0.2	54	55	398	0.3	397	399	17.6	76.9
2025-09-15T06:47	10	55	0.3	55	56	398	0.3	397	398	17.6	77.0
2025-09-15T06:48	10	56	0.2	56	57	399	0.3	398	399	17.7	76.7
2025-09-15T06:49	10	57	0.3	56	57	399	0.3	398	399	17.7	76.6
2025-09-15T06:50	10	57	0.3	57	58	399	0.3	398	400	17.8	76.6
2025-09-15T06:51	10	58	0.3	58	59	399	0.3	399	400	17.8	76.5
2025-09-15T06:52	10	59	0.3	58	60	400	0.3	399	400	17.9	76.2
2025-09-15T06:53	10	60	0.3	59	60	400	0.3	399	401	17.9	76.6
2025-09-15T06:54	10	60	0.3	60	61	400	0.2	400	400	18.0	76.3
2025-09-15T06:55	10	61	0.2	61	62	400	0.3	400	401	18.0	76.0
2025-09-15T06:56	10	62	0.3	61	62	401	0.3	400	401	18.0	76.4
2025-09-15T06:57	10	63	0.2	62	63	401	0.2	401	402	18.1	76.3
2025-09-15T06:58	10	63	0.2	63	64	401	0.3	400	401	18.1	76.1
2025-09-15T06:59	10	64	0.1	64	64	401	0.2	400	402	18.1	76.0
2025-09-15T07:00	10	65	0.2	64	65	401	0.3	400	402	18.2	75.9
2025-09-15T07:01	10	65	0.2	65	66	401	0.3	401	402	18.2	75.9
2025-09-15T07:02	10	66	0.2	65	66	402	0.2	401	402	18.2	75.8
2025-09-15T07:03	10	66	0.2	66	67	402	0.2	401	402	18.2	75.8
2025-09-15T07:04	10	67	0.3	67	68	402	0.3	402	403	18.3	76.2
2025-09-15T07:05	10	68	0.2	68	68	403	0.3	402	404	18.3	76.1
2025-09-15T07:06	10	69	0.2	68	69	403	0.2	402	403	18.3	76.1
2025-09-15T07:07	10	69	0.1	69	70	403	0.2	402	403	18.3	76.1
2025-09-15T07:08	10	70	0.2	70	71	403	0.3	402	404	18.3	75.9
2025-09-15T07:09	10	71	0.2	70	71	403	0.3	403	404	18.3	75.9
2025-09-15T07:10	10	71	0.2	71	72	404	0.4	403	404	18.4	75.8
2025-09-15T07:11	10	72	0.3	72	73	404	0.5	403	405	18.4	75.6
2025-09-15T07:12	10	73	0.3	73	74	404	0.3	403	404	18.4	75.4
2025-09-15T07:13	10	74	0.5	74	75	404	0.2	403	404	18.4	75.5
2025-09-15T07:14	10	76	0.6	75	77	405	0.2	404	405	18.5	75.6
2025-09-15T07:15	10	79	0.8	77	80	405	0.2	404	405	18.5	75.3
2025-09-15T07:16	10	81	0.6	80	82	405	0.3	405	406	18.5	75.1
2025-09-15T07:17	10	82	0.4	81	83	406	0.4	405	407	18.5	75.2
2025-09-15T07:18	10	68	21.0	30	83	405	1.1	402	407	18.6	74.8
2025-09-15T07:19	10	65	17.1	37	82	404	0.9	403	406	18.6	75.1
2025-09-15T07:20	10	81	0.1	81	81	406	0.2	405	406	18.6	74.9
2025-09-15T07:21	10	82	0.2	81	82	406	0.2	406	407	18.7	74.6
2025-09-15T07:22	10	82	0.1	82	82	406	0.2	405	406	18.7	74.3
2025-09-15T07:23	10	82	0.2	82	83	407	0.3	406	408	18.7	74.9
2025-09-15T07:24	10	83	0.2	83	83	407	0.3	406	408	18.7	74.3
2025-09-15T07:25	10	83	0.2	83	84	407	0.3	406	408	18.8	74.2
2025-09-15T07:26	10	84	0.2	84	84	407	0.3	406	407	18.8	73.8
2025-09-15T07:27	10	84	0.2	84	85	408	0.5	407	408	18.8	74.2
2025-09-15T07:28	10	85	0.2	85	85	409	0.3	408	409	18.9	74.6
2025-09-15T07:29	10	86	0.2	85	86	408	0.4	407	409	18.9	73.6
2025-09-15T07:30	10	86	0.2	86	86	408	0.3	408	409	18.9	73.7
2025-09-15T07:31	10	87	0.2	86	87	408	0.4	407	409	18.9	73.7
2025-09-15T07:32	10	87	0.2	87	88	409	0.3	409	410	18.9	73.6
2025-09-15T07:33	10	88	0.1	87	88	408	0.5	407	410	18.9	72.6
2025-09-15T07:34	10	88	0.2	88	89	409	0.3	409	410	19.0	73.2
2025-09-15T07:35	10	89	0.2	89	89	409	0.5	408	410	19.0	72.8
2025-09-15T07:36	10	90	0.3	89	90	410	0.4	409	410	19.0	73.1
2025-09-15T07:37	10	90	0.2	90	91	410	0.4	409	411	19.0	73.0
2025-09-15T07:38	10	91	0.4	91	92	410	0.4	410	411	19.1	73.1
2025-09-15T07:39	10	93	0.5	92	94	411	0.4	410	411	19.1	73.3
2025-09-15T07:40	10	95	0.7	94	96	411	0.6	410	412	19.1	73.1
2025-09-15T07:41	10	98	0.6	96	99	411	0.6	410	413	19.1	73.1
2025-09-15T07:42	10	99	0.1	98	99	412	0.4	412	413	19.1	73.3
2025-09-15T07:43	10	98	0.2	98	99	412	0.4	411	413	19.2	73.4
2025-09-15T07:44	10	98	0.4	97	98	412	0.2	412	413	19.2	73.2
2025-09-15T07:45	10	97	0.2	96	97	413	0.3	412	414	19.2	73.4
2025-09-15T07:46	10	96	0.1	96	97	413	0.4	412	414	19.3	73.2
2025-09-15T07:47	10	96	0.1	96	96	413	0.5	412	414	19.3	73.2
2025-09-15T07:48	10	96	0.2	96	97	415	0.2	414	415	19.4	73.8
2025-09-15T07:49	10	97	0.2	96	97	414	0.3	413	415	19.4	73.0
2025-09-15T07:50	10	97	0.2	97	98	414	0.4	413	415	19.4	73.4
2025-09-15T07:51	10	98	0.2	97	98	414	0.4	413	415	19.4	73.1
2025-09-15T07:52	10	98	0.2	98	99	415	0.3	414	416	19.5	73.6
2025-09-15T07:53	10	99	0.2	99	100	414	0.5	413	415	19.4	73.1
2025-09-15T07:54	10	100	0.5	100	101	414	0.6	413	415	19.4	72.9
2025-09-15T07:55	10	102	0.7	101	103	414	0.7	413	415	19.4	73.1
2025-09-15T07:56	10	105	0.8	104	106	416	0.7	415	417	19.4	73.4
2025-09-15T07:57	10	105	6.9	79	110	417	0.3	416	417	19.5	73.3
2025-09-15T07:58	10	106	0.8	105	109	417	0.5	415	417	19.5	73.1
2025-09-15T07:59	10	105	1.0	102	106	416	0.4	415	417	19.5	73.0
2025-09-15T08:00	10	105	0.5	104	106	416	0.2	415	416	19.5	73.0
2025-09-15T08:01	10	104	6.1	80	109	416	0.3	415	417	19.5	73.0
2025-09-15T08:02	10	87	21.5	45	109	415	1.5	413	417	19.6	73.1
2025-09-15T08:03	10	106	2.6	92	110	416	1.0	414	417	19.6	73.3
2025-09-15T08:04	10	106	0.5	105	107	417	0.6	416	418	18.9	72.8
2025-09-15T08:05	10	97	11.2	75	108	416	1.1	414	418	19.5	70.3
2025-09-15T08:06	10	88	8.9	74	109	415	0.6	413	416	19.5	72.7
2025-09-15T08:07	10	103	14.2	68	118	415	0.8	413	417	19.5	72.7
2025-09-15T08:08	10	115	2.5	103	117	417	0.6	416	418	19.5	72.7
2025-09-15T08:09	10	103	20.1	50	118	417	0.8	415	418	19.5	72.7
2025-09-15T08:10	10	108	17.7	58	118	418	0.8	416	419	19.5	72.7
2025-09-15T08:11	10	99	18.4	50	117	417	0.6	415	418	19.5	72.7
2025-09-15T08:12	10	90	22.7	38	114	415	1.2	413	417	19.6	72.8
2025-09-15T08:13	10	102	14.8	64	113	415	0.6	414	416	19.6	72.4
2025-09-15T08:14	10	112	0.3	111	112	417	0.7	415	418	19.7	72.5
2025-09-15T08:15	10	113	0.2	112	113	418	0.3	418	419	19.8	72.5
2025-09-15T08:16	10	113	0.2	113	114	419	0.4	418	420	19.8	72.6
2025-09-15T08:17	10	112	5.4	90	115	419	0.2	419	420	19.9	72.2
2025-09-15T08:18	10	111	6.9	93	120	421	1.1	419	423	20.0	72.2
2025-09-15T08:19	10	104	15.8	66	119	420	1.5	417	422	20.0	71.7
2025-09-15T08:20	10	117	3.5	107	121	421	1.2	418	423	20.1	72.2
2025-09-15T08:21	10	119	2.3	110	121	423	0.5	422	424	20.2	72.1
2025-09-15T08:22	10	120	0.2	119	120	424	0.3	423	425	20.3	72.2
2025-09-15T08:23	10	121	0.4	120	122	423	0.5	422	424	20.2	71.2
2025-09-15T08:24	10	122	0.3	122	123	423	0.5	422	424	20.2	71.4
2025-09-15T08:25	10	123	0.3	122	123	425	0.4	424	426	20.4	71.3
2025-09-15T08:26	10	121	4.8	107	125	424	0.9	423	426	20.4	70.5
2025-09-15T08:27	10	114	7.7	95	126	425	0.3	424	426	20.5	71.2
2025-09-15T08:28	10	126	1.0	123	127	425	0.4	424	426	20.5	71.3
2025-09-15T08:29	10	126	0.2	126	127	426	0.8	424	427	20.5	70.7
2025-09-15T08:30	10	127	0.2	126	127	425	0.4	424	426	20.5	70.9
2025-09-15T08:31	10	127	0.2	126	128	425	0.6	424	426	20.5	70.9
2025-09-15T08:32	10	127	0.2	126	127	426	0.5	425	427	20.6	70.5
2025-09-15T08:33	10	127	0.5	126	128	426	1.0	425	428	20.6	70.6
2025-09-15T08:34	10	130	0.8	128	131	428	0.4	427	429	20.7	70.4
2025-09-15T08:35	10	132	0.4	131	133	427	0.9	425	429	20.6	70.2
2025-09-15T08:36	10	132	0.2	132	133	428	0.6	426	429	20.7	70.6
2025-09-15T08:37	10	131	0.5	130	132	427	0.6	425	428	20.7	70.3
2025-09-15T08:38	10	130	0.3	130	131	427	0.9	426	429	20.7	70.3
2025-09-15T08:39	10	130	0.2	129	131	426	0.4	425	427	20.7	70.1
2025-09-15T08:40	10	131	0.8	130	132	427	0.5	426	428	20.7	70.2
2025-09-15T08:41	10	134	1.1	132	136	426	0.6	425	428	20.7	70.0
2025-09-15T08:42	10	137	0.7	136	138	428	0.5	427	429	20.8	69.5
2025-09-15T08:43	10	138	0.2	138	139	429	0.5	428	430	20.9	69.4
2025-09-15T08:44	10	139	0.1	138	139	429	0.4	428	430	20.9	69.4
2025-09-15T08:45	10	138	0.3	137	139	431	0.5	429	432	21.0	69.9
2025-09-15T08:46	10	136	1.1	134	137	430	0.5	429	431	20.9	69.7
2025-09-15T08:47	10	133	0.5	132	134	429	0.7	428	430	20.9	69.8
2025-09-15T08:48	10	132	0.4	131	132	429	0.5	428	430	20.9	70.0
2025-09-15T08:49	10	130	0.3	130	131	429	0.4	428	430	20.9	69.9
2025-09-15T08:50	10	129	0.2	129	130	429	0.7	427	430	20.9	69.5
2025-09-15T08:51	10	128	0.5	127	129	428	0.5	427	429	20.9	69.4
2025-09-15T08:52	10	127	0.4	126	127	428	0.5	427	429	21.0	69.6
2025-09-15T08:53	10	126	0.2	125	126	429	0.5	429	431	21.2	69.6
2025-09-15T08:54	10	126	0.1	125	126	428	0.6	427	429	21.0	68.7
2025-09-15T08:55	10	126	0.1	125	126	428	0.7	427	429	21.0	69.3
2025-09-15T08:56	10	126	0.1	125	126	428	0.7	427	430	21.1	68.6
2025-09-15T08:57	10	126	0.1	125	126	429	0.5	428	430	21.2	68.7
2025-09-15T08:58	10	126	0.2	126	126	429	0.5	428	430	21.1	68.3
2025-09-15T08:59	10	126	0.2	126	127	430	0.8	428	431	21.1	68.7
2025-09-15T09:00	10	127	0.3	127	128	429	1.1	428	431	21.1	68.4
2025-09-15T09:01	10	127	0.1	127	127	429	0.3	428	429	21.1	68.3
2025-09-15T09:02	10	127	0.1	127	127	430	1.1	429	433	21.2	68.7
2025-09-15T09:03	10	127	0.2	127	128	431	0.6	430	433	21.3	68.3
2025-09-15T09:04	10	127	0.1	127	128	430	0.7	429	431	21.3	68.4
2025-09-15T09:05	10	128	0.2	127	128	430	0.8	429	432	21.4	68.7
2025-09-15T09:06	10	128	0.1	127	128	430	0.5	429	431	21.4	68.5
2025-09-15T09:07	10	128	0.1	128	128	430	0.4	429	431	21.3	68.9
2025-09-15T09:08	10	128	0.2	127	128	430	0.5	429	431	21.2	68.6
2025-09-15T09:09	10	128	0.2	128	128	432	0.9	430	434	21.3	68.9
2025-09-15T09:10	10	128	0.2	128	129	433	0.8	431	435	21.5	68.8
2025-09-15T09:11	10	129	0.1	129	129	432	0.7	431	433	21.5	68.6
2025-09-15T09:12	10	129	0.1	129	129	433	0.3	433	434	21.5	68.6
2025-09-15T09:13	10	129	0.3	129	130	434	0.7	432	435	21.5	68.7
2025-09-15T09:14	10	130	0.1	129	130	433	0.5	432	434	21.5	68.4
2025-09-15T09:15	10	130	0.2	129	130	431	0.5	430	433	21.4	68.0
2025-09-15T09:16	10	130	0.1	130	130	433	0.8	432	435	21.5	68.5
2025-09-15T09:17	10	130	0.2	130	131	434	0.4	433	435	21.6	68.0
2025-09-15T09:18	10	131	0.2	130	131	433	0.5	432	434	21.6	67.0
2025-09-15T09:19	10	131	0.2	131	131	435	1.0	433	437	21.7	67.9
2025-09-15T09:20	10	131	0.1	131	131	433	0.6	433	435	21.6	67.3
2025-09-15T09:21	10	131	0.2	131	132	434	0.6	433	435	21.6	67.3
2025-09-15T09:22	10	132	0.2	131	132	433	0.5	433	434	21.6	67.1
2025-09-15T09:23	10	132	0.2	132	132	435	1.0	433	436	21.6	67.6
2025-09-15T09:24	10	132	0.2	132	133	435	1.1	433	437	21.6	67.2
2025-09-15T09:25	10	132	0.1	132	133	433	0.6	432	435	21.7	66.9
2025-09-15T09:26	10	133	0.2	132	133	433	0.4	432	433	21.6	67.1
2025-09-15T09:27	10	133	0.2	133	134	434	0.3	433	434	21.6	67.1
2025-09-15T09:28	10	133	0.1	133	134	435	0.5	434	436	21.8	67.1
2025-09-15T09:29	10	134	0.1	134	134	435	0.4	434	436	21.7	66.8
2025-09-15T09:30	10	134	0.2	134	134	436	0.3	435	436	21.8	67.2
2025-09-15T09:31	10	135	0.2	134	135	437	1.2	436	440	21.9	67.2
2025-09-15T09:32	10	135	0.1	135	135	439	0.5	438	440	22.1	67.6
2025-09-15T09:33	10	135	0.2	135	136	438	0.4	437	439	22.1	66.7
2025-09-15T09:34	10	136	0.1	135	136	437	0.5	436	439	21.9	66.5
2025-09-15T09:35	10	136	0.2	136	137	439	0.8	436	439	22.1	67.2
2025-09-15T09:36	10	136	0.1	136	137	436	0.4	435	437	22.0	65.6
2025-09-15T09:37	10	137	0.1	136	137	435	0.8	434	437	22.1	64.8
2025-09-15T09:38	10	137	0.1	136	137	436	0.7	435	437	22.0	64.5
2025-09-15T09:39	10	137	0.1	136	137	435	0.3	434	436	22.0	64.6
2025-09-15T09:40	10	137	0.2	137	137	434	0.7	433	436	22.0	64.3
2025-09-15T09:41	10	137	0.1	137	137	434	1.1	433	436	22.1	64.4
2025-09-15T09:42	10	138	0.1	137	138	438	1.2	435	440	22.3	64.8
2025-09-15T09:43	10	138	0.2	137	138	438	1.6	435	440	22.3	63.6
2025-09-15T09:44	10	138	0.1	138	138	435	0.9	433	437	22.2	63.1
2025-09-15T09:45	10	138	0.2	138	139	437	0.8	436	439	22.4	63.4
2025-09-15T09:46	10	139	0.1	139	139	436	0.4	435	437	22.4	62.0
2025-09-15T09:47	10	139	0.1	139	139	435	0.6	434	436	22.3	62.4
2025-09-15T09:48	10	139	0.2	139	140	436	0.8	434	437	22.4	62.1
2025-09-15T09:49	10	139	0.1	139	140	435	0.5	434	436	22.4	61.2
2025-09-15T09:50	10	139	0.1	139	140	434	0.5	433	435	22.3	60.8
2025-09-15T09:51	10	139	0.3	139	140	436	0.4	435	436	22.4	61.1
2025-09-15T09:52	10	140	0.2	140	140	435	0.5	434	436	22.4	60.7
2025-09-15T09:53	10	140	0.2	140	141	438	0.8	436	439	22.5	61.7
2025-09-15T09:54	10	141	0.3	140	141	435	1.3	433	437	22.4	61.1
2025-09-15T09:55	10	141	0.1	140	141	435	0.2	434	435	22.2	61.4
2025-09-15T09:56	10	141	0.1	141	141	437	0.7	434	437	22.4	62.1
2025-09-15T09:57	10	141	0.1	140	141	439	1.1	436	440	22.5	62.0
2025-09-15T09:58	10	141	0.3	141	142	440	0.3	439	440	22.6	61.9
2025-09-15T09:59	10	142	0.1	141	142	440	0.8	439	442	22.6	61.6
2025-09-15T10:00	10	142	0.1	142	142	438	0.8	437	440	22.4	61.7
2025-09-15T10:01	10	142	0.1	142	142	438	1.1	436	440	22.4	61.6
2025-09-15T10:02	10	142	0.1	141	142	437	0.6	437	439	22.3	61.6
2025-09-15T10:03	10	142	0.1	142	142	436	0.5	436	438	22.3	61.8
2025-09-15T10:04	10	142	0.1	142	142	437	0.4	437	438	22.4	62.0
2025-09-15T10:05	10	142	0.1	142	143	439	0.5	437	440	22.5	61.7
2025-09-15T10:06	10	142	0.1	142	143	438	0.9	436	439	22.5	60.8
2025-09-15T10:07	10	142	0.2	142	143	437	1.0	436	439	22.4	59.7
2025-09-15T10:08	10	142	0.8	140	143	437	0.6	436	438	22.5	59.8
2025-09-15T10:09	10	143	0.2	142	143	438	0.8	437	439	22.5	60.3
2025-09-15T10:10	10	143	0.3	143	144	440	1.1	439	442	22.6	60.7
2025-09-15T10:11	10	144	0.1	144	144	441	0.7	440	442	22.7	60.5
2025-09-15T10:12	10	144	0.2	144	144	442	0.3	441	443	22.7	59.8
2025-09-15T10:13	10	144	0.1	144	145	441	0.5	440	442	22.7	59.7
2025-09-15T10:14	10	144	0.1	144	145	440	1.1	438	442	22.6	59.3
2025-09-15T10:15	10	144	0.1	144	144	438	0.6	436	439	22.5	59.1
2025-09-15T10:16	10	144	0.2	144	145	436	0.7	435	437	22.4	58.5
2025-09-15T10:17	10	144	0.1	144	144	438	0.9	436	439	22.5	59.3
2025-09-15T10:18	10	144	0.2	144	145	438	0.5	437	439	22.5	59.6
2025-09-15T10:19	10	145	0.2	144	145	437	0.4	436	438	22.3	59.4
2025-09-15T10:20	10	145	0.1	144	145	438	1.0	436	439	22.4	60.1
2025-09-15T10:21	10	145	0.1	145	145	436	0.7	435	438	22.3	59.7
2025-09-15T10:22	10	145	0.2	145	145	438	1.4	435	440	22.4	60.4
2025-09-15T10:23	10	145	0.1	145	146	441	1.4	439	444	22.5	61.2
2025-09-15T10:24	10	145	0.2	145	146	441	2.2	437	443	22.5	60.3
2025-09-15T10:25	10	146	0.2	146	146	439	1.0	438	441	22.4	60.5
2025-09-15T10:26	10	146	0.2	146	147	440	0.4	439	441	22.5	60.5
2025-09-15T10:27	10	146	0.1	146	146	440	1.1	438	441	22.5	60.1
2025-09-15T10:28	10	146	0.1	146	146	439	0.3	438	440	22.5	59.9
2025-09-15T10:29	10	146	0.1	146	146	438	0.6	437	439	22.4	59.9
2025-09-15T10:30	10	146	0.2	146	147	438	0.7	437	440	22.5	59.7
2025-09-15T10:31	10	147	0.1	146	147	439	0.5	438	441	22.6	58.5
2025-09-15T10:32	10	147	0.1	147	147	441	0.7	440	443	22.7	59.1
2025-09-15T10:33	10	147	0.1	147	147	440	1.3	438	442	22.6	59.0
2025-09-15T10:34	10	147	0.1	147	147	438	0.6	437	440	22.5	59.7
2025-09-15T10:35	10	147	0.1	147	148	439	0.7	437	440	22.5	59.5
2025-09-15T10:36	10	147	0.2	147	148	440	0.5	439	441	22.5	59.6
2025-09-15T10:37	10	148	0.2	147	148	441	0.8	440	443	22.6	59.5
2025-09-15T10:38	10	148	0.1	148	148	439	0.8	438	441	22.5	60.4
2025-09-15T10:39	10	148	0.2	148	149	441	0.5	440	442	22.6	60.4
2025-09-15T10:40	10	148	0.1	148	149	441	1.1	440	443	22.7	60.1
2025-09-15T10:41	10	148	0.1	148	149	439	0.8	437	441	22.5	59.4
2025-09-15T10:42	10	149	0.3	148	149	440	0.5	439	441	22.6	59.3
2025-09-15T10:43	10	149	0.2	149	150	441	1.0	439	442	22.7	59.5
2025-09-15T10:44	10	149	0.1	149	149	439	0.4	439	440	22.5	59.6
2025-09-15T10:45	10	149	0.1	149	150	440	1.2	438	442	22.5	59.5
2025-09-15T10:46	10	149	0.1	149	150	442	1.0	440	444	22.6	59.9
2025-09-15T10:47	10	150	0.1	149	150	442	0.5	441	443	22.7	60.3
2025-09-15T10:48	10	150	0.1	150	150	441	0.6	440	443	22.7	60.2
2025-09-15T10:49	10	150	0.6	148	151	441	0.7	440	442	22.6	59.9
2025-09-15T10:50	10	150	0.4	148	151	441	0.6	440	442	22.7	59.5
2025-09-15T10:51	10	150	0.2	150	150	440	0.4	439	441	22.7	58.5
2025-09-15T10:52	10	150	0.2	149	150	441	0.5	440	442	22.6	58.9
2025-09-15T10:53	10	150	0.2	150	150	443	1.1	442	445	22.7	60.1
2025-09-15T10:54	10	150	0.1	150	150	444	0.6	442	445	22.9	59.7
2025-09-15T10:55	10	150	0.1	150	151	442	1.6	440	445	22.9	58.0
2025-09-15T10:56	10	151	0.3	150	151	441	0.4	440	442	22.8	57.8
2025-09-15T10:57	10	151	0.2	150	151	441	1.2	439	442	22.9	57.5
2025-09-15T10:58	10	150	0.1	150	151	440	0.8	438	441	22.8	57.1
2025-09-15T10:59	10	151	0.2	151	151	439	0.5	439	441	22.7	56.3
2025-09-15T11:00	10	151	0.2	150	151	441	0.8	440	443	22.8	57.5
2025-09-15T11:01	10	151	0.2	150	151	441	0.9	439	442	22.9	57.4
2025-09-15T11:02	10	151	0.1	151	151	439	0.5	438	440	22.8	56.1
2025-09-15T11:03	10	151	0.1	151	151	440	0.7	438	441	22.8	57.8
2025-09-15T11:04	10	151	0.1	151	151	443	2.0	440	447	23.0	58.9
2025-09-15T11:05	10	151	0.1	150	151	447	0.6	446	449	23.2	59.0
2025-09-15T11:06	10	151	0.2	151	152	445	2.1	442	449	23.1	58.5
2025-09-15T11:07	10	152	0.2	151	152	444	1.1	443	446	23.0	59.2
2025-09-15T11:08	10	151	0.2	151	152	443	1.0	442	446	23.0	58.3
2025-09-15T11:09	10	151	0.1	151	151	444	0.7	443	445	23.0	58.5
2025-09-15T11:10	10	151	0.2	151	152	445	0.6	444	446	23.0	58.5
2025-09-15T11:11	10	152	0.2	151	152	447	0.6	446	448	23.2	59.0
2025-09-15T11:12	10	152	0.2	152	153	444	1.8	442	447	23.3	58.5
2025-09-15T11:13	10	152	0.2	152	153	442	0.5	441	443	23.0	57.2
2025-09-15T11:14	10	152	0.2	152	153	443	0.9	441	445	23.1	57.5
2025-09-15T11:15	10	152	0.3	152	153	441	0.8	439	442	23.0	56.3
2025-09-15T11:16	10	152	0.2	151	152	440	0.8	439	442	23.0	56.6
2025-09-15T11:17	10	152	0.4	151	153	440	0.5	440	442	23.0	56.1
2025-09-15T11:18	10	155	1.7	153	160	442	0.5	441	443	23.1	56.5
2025-09-15T11:19	10	160	3.0	148	163	442	0.7	441	444	23.1	56.5
2025-09-15T11:20	10	155	1.7	153	159	444	0.6	442	445	23.1	57.0
2025-09-15T11:21	10	152	0.3	152	153	446	1.0	444	447	23.4	57.7
2025-09-15T11:22	10	153	0.2	152	153	444	0.6	443	445	23.3	56.3
2025-09-15T11:23	10	153	0.4	152	154	445	0.4	444	446	23.4	56.7
2025-09-15T11:24	10	154	0.8	152	156	444	0.9	442	445	23.3	55.9
2025-09-15T11:25	10	152	0.2	152	153	445	1.1	442	446	23.3	56.4
2025-09-15T11:26	10	153	0.2	152	153	443	0.8	442	445	23.2	55.9
2025-09-15T11:27	10	153	0.2	152	153	444	1.0	443	446	23.3	57.1
2025-09-15T11:28	10	153	0.3	153	154	444	1.5	442	447	23.2	56.6
2025-09-15T11:29	10	153	0.2	153	154	443	0.9	442	445	23.3	57.3
2025-09-15T11:30	10	153	0.2	152	153	442	0.5	441	443	23.2	56.2
2025-09-15T11:31	10	153	0.2	152	153	442	1.0	440	444	23.1	56.0
2025-09-15T11:32	10	153	0.2	152	154	444	0.5	443	445	23.2	56.7
2025-09-15T11:33	10	153	0.3	153	155	444	1.0	443	446	23.3	57.1
2025-09-15T11:34	10	154	0.2	153	154	444	0.8	443	446	23.3	56.2
2025-09-15T11:35	10	154	0.2	153	154	444	0.8	442	445	23.3	56.5
2025-09-15T11:36	10	154	0.2	153	154	445	1.0	444	447	23.3	56.8
2025-09-15T11:37	10	154	0.1	154	155	444	1.2	441	445	23.3	56.1
2025-09-15T11:38	10	154	0.4	153	155	443	1.0	441	444	23.2	55.6
2025-09-15T11:39	10	154	0.2	153	154	444	0.5	443	445	23.3	56.2
2025-09-15T11:40	10	154	0.2	153	154	444	0.4	443	445	23.5	56.5
2025-09-15T11:41	10	154	0.1	153	154	444	0.3	443	444	23.4	56.2
2025-09-15T11:42	10	154	0.2	153	154	444	0.4	443	445	23.4	56.3
2025-09-15T11:43	10	154	0.2	153	154	444	0.5	444	446	23.4	55.7
2025-09-15T11:44	10	154	0.1	153	154	446	1.0	444	447	23.5	55.6
2025-09-15T11:45	10	154	0.1	153	154	444	0.7	443	445	23.5	55.3
2025-09-15T11:46	10	154	0.8	152	156	445	0.7	443	446	23.6	54.9
2025-09-15T11:47	10	139	29.0	68	157	443	2.0	438	445	23.5	55.1
2025-09-15T11:48	10	154	0.1	154	155	446	0.7	444	447	23.5	55.2
2025-09-15T11:49	10	154	0.1	154	155	447	0.6	446	448	23.6	55.2
2025-09-15T11:50	10	154	0.2	154	155	447	0.6	446	448	23.7	55.3
2025-09-15T11:51	10	154	0.1	154	154	448	1.7	445	450	23.8	55.0
2025-09-15T11:52	10	154	0.2	154	155	449	0.5	448	450	24.0	52.8
2025-09-15T11:53	10	155	1.4	150	157	449	1.4	446	451	24.0	52.5
2025-09-15T11:54	10	154	0.2	154	155	448	0.4	448	449	23.9	53.6
2025-09-15T11:55	10	154	0.2	154	155	449	0.5	448	450	24.0	53.7
2025-09-15T11:56	10	155	0.1	154	155	449	0.8	447	451	24.0	52.8
2025-09-15T11:57	10	155	0.1	154	155	451	0.8	449	452	24.1	53.7
2025-09-15T11:58	10	154	0.2	154	155	452	0.9	451	454	24.3	53.4
2025-09-15T11:59	10	155	0.3	154	155	454	0.5	453	455	24.4	53.3
2025-09-15T12:00	10	156	0.1	155	156	451	1.5	449	455	24.2	53.1
2025-09-15T12:01	10	156	0.1	156	156	451	0.6	450	453	24.2	53.7
2025-09-15T12:02	10	156	0.3	156	157	450	3.0	446	454	24.1	51.8
2025-09-15T12:03	10	156	0.1	156	156	447	0.6	446	448	24.0	52.5
2025-09-15T12:04	10	156	0.1	156	156	449	0.4	448	450	24.1	52.2
2025-09-15T12:05	10	156	0.1	156	156	451	1.3	449	453	24.1	51.9
2025-09-15T12:06	10	156	0.2	156	157	452	0.6	451	453	24.2	52.1
2025-09-15T12:07	10	157	0.1	156	157	453	0.8	451	455	24.4	52.7
2025-09-15T12:08	10	157	0.2	157	157	451	0.9	450	453	24.4	52.0
2025-09-15T12:09	10	157	0.1	157	157	451	0.8	451	453	24.5	51.8
2025-09-15T12:10	10	156	0.1	156	156	451	1.1	449	453	24.5	49.3
2025-09-15T12:11	10	156	0.3	155	157	451	0.3	450	451	24.3	48.1
2025-09-15T12:12	10	156	0.2	155	156	449	0.9	447	451	24.3	48.0
2025-09-15T12:13	10	155	0.2	155	156	447	2.1	444	450	24.3	47.0
2025-09-15T12:14	10	155	0.2	155	156	445	0.6	444	446	24.1	46.8
2025-09-15T12:15	10	155	0.2	155	155	447	0.6	446	448	24.2	47.8
2025-09-15T12:16	10	154	0.3	154	155	446	0.9	445	448	24.2	47.9
2025-09-15T12:17	10	154	0.1	154	155	446	0.7	444	448	24.1	47.8
2025-09-15T12:18	10	154	0.3	153	155	445	0.4	444	446	24.1	47.8
2025-09-15T12:19	10	153	0.2	153	154	447	1.6	444	449	24.2	48.1
2025-09-15T12:20	10	154	0.2	153	154	447	1.2	445	449	24.1	48.0
2025-09-15T12:21	10	154	0.1	153	154	446	0.5	445	447	24.1	47.7
2025-09-15T12:22	10	154	0.2	154	154	446	0.4	446	447	24.2	48.2
2025-09-15T12:23	10	154	0.2	154	155	447	0.6	446	448	24.3	48.2
2025-09-15T12:24	10	154	0.2	154	154	446	0.6	445	448	24.2	48.0
2025-09-15T12:25	10	154	0.2	153	154	446	0.4	445	447	24.2	48.3
2025-09-15T12:26	10	153	0.1	153	154	446	0.5	445	447	24.2	48.2
2025-09-15T12:27	10	153	0.1	153	154	446	0.6	445	447	24.1	48.5
2025-09-15T12:28	10	153	0.2	153	154	447	0.6	446	448	24.3	48.7
2025-09-15T12:29	10	154	0.1	154	154	447	0.5	446	448	24.3	48.3
2025-09-15T12:30	10	154	0.1	154	154	449	0.9	447	451	24.3	48.8
2025-09-15T12:31	10	154	0.2	154	155	449	0.8	448	450	24.4	48.9
2025-09-15T12:32	10	155	0.2	154	155	447	0.5	446	448	24.3	48.3
2025-09-15T12:33	10	155	0.2	155	156	448	0.4	448	449	24.4	48.7
2025-09-15T12:34	10	156	0.5	155	157	450	0.7	448	451	24.5	48.6
2025-09-15T12:35	10	159	1.1	157	161	450	0.4	449	451	24.5	48.4
2025-09-15T12:36	10	166	3.6	161	180	450	0.4	449	451	24.5	48.0
2025-09-15T12:37	10	164	27.8	64	179	449	1.2	444	450	24.4	48.0
2025-09-15T12:38	10	91	56.9	46	185	441	3.0	436	447	24.3	48.0
2025-09-15T12:39	10	85	37.5	50	184	443	3.5	438	449	24.4	48.6
2025-09-15T12:40	10	143	46.9	69	192	443	4.1	439	450	24.5	48.3
2025-09-15T12:41	10	192	3.8	184	196	453	2.6	447	457	24.6	48.3
2025-09-15T12:42	10	195	2.1	189	197	456	0.5	455	457	24.8	48.1
2025-09-15T12:43	10	188	11.9	155	197	456	1.2	454	458	24.9	47.9
2025-09-15T12:44	10	188	10.0	152	196	455	1.1	453	456	24.7	47.5
2025-09-15T12:45	10	174	23.5	113	196	454	1.5	451	456	24.8	48.3
2025-09-15T12:46	10	153	28.0	77	194	453	1.8	449	456	24.8	47.8
2025-09-15T12:47	10	140	54.5	61	191	449	3.4	444	454	24.7	48.4
2025-09-15T12:48	10	183	17.0	103	191	452	0.8	451	454	24.6	48.1
2025-09-15T12:49	10	172	20.7	96	183	451	1.6	448	454	24.6	48.5
2025-09-15T12:50	10	182	4.3	168	188	455	0.9	453	456	24.7	48.6
2025-09-15T12:51	10	137	37.9	80	193	450	3.3	445	456	24.7	47.9
2025-09-15T12:52	10	127	38.5	61	187	448	2.7	444	452	24.7	48.6
2025-09-15T12:53	10	67	17.6	45	93	442	2.7	437	448	24.7	49.1
2025-09-15T12:54	10	54	23.7	45	159	437	1.2	435	439	24.6	48.9
2025-09-15T12:55	10	101	45.5	51	182	441	2.7	437	446	24.5	49.0
2025-09-15T12:56	10	126	50.6	53	187	443	4.6	436	449	24.6	49.3
2025-09-15T12:57	10	185	4.8	167	189	450	1.7	446	452	24.7	48.7
2025-09-15T12:58	10	182	1.1	181	184	454	1.9	450	456	24.8	48.9
2025-09-15T12:59	10	180	0.6	179	181	455	0.8	454	456	24.9	48.9
2025-09-15T13:00	10	178	0.5	177	179	452	0.7	451	454	24.8	48.7
2025-09-15T13:01	10	178	0.1	177	178	453	1.3	451	455	24.8	48.8
2025-09-15T13:02	10	174	7.3	151	179	453	0.8	452	455	24.8	48.7
2025-09-15T13:03	10	165	12.9	141	182	452	0.6	451	453	24.9	48.8
2025-09-15T13:04	10	106	50.0	53	187	447	5.7	440	454	24.9	48.5
2025-09-15T13:05	10	112	31.4	64	172	444	1.9	441	448	24.9	48.8
2025-09-15T13:06	10	172	7.6	149	180	450	2.2	445	453	24.9	48.5
2025-09-15T13:07	10	145	47.0	48	178	449	3.4	440	452	24.8	46.8
2025-09-15T13:08	10	154	17.2	88	166	446	1.8	442	448	24.8	47.2
2025-09-15T13:09	10	156	1.8	153	159	447	0.5	446	448	24.8	46.3
2025-09-15T13:10	10	151	1.2	149	153	447	1.0	445	449	24.8	46.2
2025-09-15T13:11	10	148	0.5	147	149	446	0.5	445	447	24.8	46.1
2025-09-15T13:12	10	147	0.2	146	147	445	0.4	445	446	24.9	45.2
2025-09-15T13:13	10	147	0.2	146	147	446	0.7	445	448	24.9	46.6
2025-09-15T13:14	10	147	0.2	146	147	447	0.5	445	448	24.9	46.4
2025-09-15T13:15	10	147	0.2	146	148	448	0.9	446	449	24.9	45.9
2025-09-15T13:16	10	147	0.2	146	148	447	0.5	446	448	24.8	44.6
2025-09-15T13:17	10	147	0.4	146	147	447	0.7	446	448	24.9	44.9
2025-09-15T13:18	10	147	0.4	146	147	447	0.5	446	448	24.9	45.0
2025-09-15T13:19	10	147	0.2	146	147	448	0.4	447	449	24.9	45.5
2025-09-15T13:20	10	146	0.2	146	147	448	1.1	446	449	24.9	45.6
2025-09-15T13:21	10	142	10.7	106	150	447	0.5	446	448	24.9	46.1
2025-09-15T13:22	10	103	44.5	19	146	445	3.0	437	447	24.9	45.9
2025-09-15T13:23	10	83	60.7	19	153	438	3.3	434	444	24.8	46.4
2025-09-15T13:24	10	150	0.4	150	151	445	1.8	442	448	24.8	46.8
2025-09-15T13:25	10	149	1.8	143	151	448	0.6	447	449	24.9	46.8
2025-09-15T13:26	10	148	0.4	148	149	448	0.6	447	449	24.9	45.2
2025-09-15T13:27	10	147	0.6	146	148	447	0.4	447	448	24.9	44.5
2025-09-15T13:28	10	146	0.6	144	146	448	0.6	447	449	25.0	44.7
2025-09-15T13:29	10	144	0.4	143	145	448	0.4	447	449	25.0	44.2
2025-09-15T13:30	10	143	0.3	143	144	447	0.6	446	449	25.0	44.4
2025-09-15T13:31	10	143	0.2	142	143	447	1.3	445	449	25.1	43.5
2025-09-15T13:32	10	142	0.1	142	143	447	0.6	446	448	25.0	43.1
2025-09-15T13:33	10	142	0.2	142	142	447	0.8	446	448	25.1	43.5
2025-09-15T13:34	10	142	0.2	142	143	447	0.6	446	448	25.1	43.5
2025-09-15T13:35	10	143	0.3	143	144	447	1.0	446	449	25.1	43.3
2025-09-15T13:36	10	144	0.3	144	145	448	0.8	447	450	25.1	42.9
2025-09-15T13:37	10	145	0.3	145	146	448	0.6	447	450	25.1	43.3
2025-09-15T13:38	10	146	0.2	145	146	448	0.8	446	450	25.1	43.4
2025-09-15T13:39	10	146	0.2	146	146	448	0.4	447	449	25.1	42.7
2025-09-15T13:40	10	145	3.1	134	147	448	0.4	447	449	25.0	42.3
2025-09-15T13:41	10	145	1.1	139	146	448	0.4	447	449	25.1	43.1
2025-09-15T13:42	10	147	0.4	146	147	447	0.5	446	448	25.1	42.7
2025-09-15T13:43	10	147	0.2	147	148	449	1.1	447	450	25.2	43.7
2025-09-15T13:44	10	148	0.1	148	148	449	0.5	448	451	25.2	43.0
2025-09-15T13:45	10	148	0.5	146	148	449	1.3	447	452	25.2	43.2
2025-09-15T13:46	10	150	0.9	148	151	449	1.8	447	451	25.2	42.7
2025-09-15T13:47	10	151	0.2	151	152	449	0.9	447	450	25.2	42.9
2025-09-15T13:48	10	149	0.9	148	151	449	0.5	449	451	25.2	42.8
2025-09-15T13:49	10	146	0.9	145	148	449	0.5	448	450	25.2	43.2
2025-09-15T13:50	10	144	0.6	143	145	450	0.8	448	451	25.2	43.5
2025-09-15T13:51	10	141	0.7	140	143	447	1.1	445	449	25.0	41.9
2025-09-15T13:52	10	140	0.2	140	140	446	0.4	445	447	25.0	42.7
2025-09-15T13:53	10	140	0.2	139	140	446	0.4	445	447	25.0	42.9
2025-09-15T13:54	10	139	0.2	139	139	447	0.8	445	448	25.1	43.2
2025-09-15T13:55	10	138	0.1	138	139	446	0.3	445	447	25.0	43.0
2025-09-15T13:56	10	138	0.1	138	139	445	0.9	444	446	24.9	42.5
2025-09-15T13:57	10	139	0.3	138	140	445	0.9	444	447	24.9	43.0
2025-09-15T13:58	10	140	0.4	140	141	446	0.9	444	447	25.0	43.3
2025-09-15T13:59	10	136	6.8	119	141	444	1.2	442	445	24.9	43.7
2025-09-15T14:00	10	141	0.3	140	142	444	0.6	443	446	24.8	44.1
2025-09-15T14:01	10	141	0.5	140	142	444	0.8	443	446	24.8	44.3
2025-09-15T14:02	10	142	0.3	141	142	445	0.6	443	446	24.8	44.5
2025-09-15T14:03	10	141	0.5	140	142	443	0.2	443	444	24.7	44.5
2025-09-15T14:04	10	139	0.7	138	140	444	0.6	443	445	24.8	44.8
2025-09-15T14:05	10	138	0.1	137	138	445	0.4	444	446	24.8	45.5
2025-09-15T14:06	10	120	38.8	22	141	445	1.6	440	447	24.8	45.6
2025-09-15T14:07	10	27	6.0	21	37	436	2.7	433	443	24.8	46.0
2025-09-15T14:08	10	105	50.1	29	147	437	4.7	431	444	24.7	45.9
2025-09-15T14:09	10	119	38.7	37	147	441	2.0	437	444	24.6	45.5
2025-09-15T14:10	10	145	0.5	144	146	444	0.8	442	446	24.7	45.1
2025-09-15T14:11	10	142	0.8	141	144	446	0.7	444	447	24.8	45.6
2025-09-15T14:12	10	140	0.6	139	141	448	0.8	446	449	24.9	46.2
2025-09-15T14:13	10	137	6.7	102	140	447	1.1	444	448	25.0	45.5
2025-09-15T14:14	10	136	13.8	90	142	445	0.8	443	446	24.9	45.5
2025-09-15T14:15	10	143	0.5	142	144	446	0.3	445	447	24.9	45.7
2025-09-15T14:16	10	144	1.0	144	151	445	0.5	444	446	24.8	45.8
2025-09-15T14:17	10	147	1.1	144	148	445	0.6	444	446	24.8	46.1
2025-09-15T14:18	10	149	0.4	148	150	446	0.3	445	447	24.8	46.4
2025-09-15T14:19	10	149	0.4	149	150	446	0.5	445	447	24.7	46.6
2025-09-15T14:20	10	149	0.3	148	149	445	0.8	444	447	24.7	46.9
2025-09-15T14:21	10	149	0.1	149	150	447	0.8	445	448	24.8	47.5
2025-09-15T14:22	10	148	0.8	147	149	447	0.5	446	448	24.7	46.8
2025-09-15T14:23	10	146	0.3	146	147	448	0.4	448	449	24.8	47.7
2025-09-15T14:24	10	147	0.3	146	147	449	0.7	447	450	24.9	47.4
2025-09-15T14:25	10	146	0.4	146	147	448	0.5	448	449	24.9	47.4
2025-09-15T14:26	10	145	0.7	143	146	447	0.6	446	449	24.8	46.8
2025-09-15T14:27	10	142	1.0	140	143	448	0.5	446	448	24.8	47.2
2025-09-15T14:28	10	138	1.2	136	140	447	1.3	444	448	24.9	46.9
2025-09-15T14:29	10	135	0.7	134	136	446	1.0	444	448	25.0	47.1
2025-09-15T14:30	10	133	0.3	133	134	445	0.6	444	447	25.0	45.9
2025-09-15T14:31	10	133	0.4	132	133	445	0.4	444	446	25.0	46.3
2025-09-15T14:32	10	131	0.5	130	132	445	0.4	444	446	25.0	46.4
2025-09-15T14:33	10	119	17.3	81	131	443	2.1	439	445	25.0	46.1
2025-09-15T14:34	10	74	35.1	31	133	439	3.1	435	443	24.8	45.9
2025-09-15T14:35	10	27	11.9	22	74	433	2.3	430	438	24.8	46.3
2025-09-15T14:36	10	23	1.0	22	25	430	0.6	429	432	24.7	46.0
2025-09-15T14:37	10	30	3.8	25	40	430	0.2	429	430	24.7	46.8
2025-09-15T14:38	10	69	30.9	39	140	432	2.5	429	439	24.6	47.6
2025-09-15T14:39	10	67	35.8	42	147	436	2.2	432	440	24.6	47.5
2025-09-15T14:40	10	40	1.4	38	43	432	0.6	432	434	24.6	47.2
2025-09-15T14:41	10	35	1.5	33	38	431	0.6	430	432	24.6	47.7
2025-09-15T14:42	10	33	0.2	33	34	430	0.3	430	431	24.5	47.2
2025-09-15T14:43	10	40	9.2	34	84	430	0.5	429	432	24.5	46.4
2025-09-15T14:44	10	131	19.0	72	141	437	3.5	429	441	24.5	46.5
2025-09-15T14:45	10	137	8.6	91	140	441	2.2	437	444	24.6	46.3
2025-09-15T14:46	10	140	0.3	139	141	445	1.7	442	448	24.8	47.0
2025-09-15T14:47	10	137	1.7	134	139	446	0.6	445	447	24.9	47.4
2025-09-15T14:48	10	131	1.8	128	134	446	0.2	446	447	25.0	47.2
2025-09-15T14:49	10	125	1.3	123	128	444	1.1	443	446	25.0	46.9
2025-09-15T14:50	10	123	0.3	122	123	444	0.7	443	446	25.0	47.3
2025-09-15T14:51	10	112	16.4	57	124	445	0.6	442	445	25.1	47.6
2025-09-15T14:52	10	48	6.7	32	59	438	2.3	435	444	25.1	47.2
2025-09-15T14:53	10	48	14.3	29	84	434	0.6	434	436	24.9	47.0
2025-09-15T14:54	10	116	17.7	59	130	439	3.0	433	444	24.9	47.6
2025-09-15T14:55	10	132	1.9	127	134	444	0.8	442	445	25.0	47.2
2025-09-15T14:56	10	133	2.4	126	135	442	0.4	442	443	25.0	46.0
2025-09-15T14:57	10	136	0.3	135	136	444	0.5	443	445	25.0	46.5
2025-09-15T14:58	10	90	46.1	37	136	443	3.5	436	447	25.1	46.6
2025-09-15T14:59	10	62	30.8	36	127	436	1.4	433	439	25.0	46.2
2025-09-15T15:00	10	128	1.3	127	131	441	1.4	438	443	24.9	46.3
2025-09-15T15:01	10	125	1.0	123	127	441	0.2	441	442	24.8	45.8
2025-09-15T15:02	10	122	1.0	120	123	441	0.4	440	442	24.8	45.5
2025-09-15T15:03	10	119	0.8	117	120	440	0.4	440	441	24.9	46.0
2025-09-15T15:04	10	116	0.9	114	117	440	0.2	439	440	24.9	45.1
2025-09-15T15:05	10	113	0.5	113	114	440	0.3	439	441	24.9	45.5
2025-09-15T15:06	10	112	0.4	111	113	440	0.5	439	441	24.9	45.7
2025-09-15T15:07	10	111	0.3	110	111	440	0.6	439	441	25.0	45.5
2025-09-15T15:08	10	110	0.9	107	110	439	0.5	438	440	24.9	44.9
2025-09-15T15:09	10	97	15.8	60	109	439	0.8	437	440	24.9	45.1
2025-09-15T15:10	10	108	1.1	106	109	438	0.4	437	439	24.9	45.6
2025-09-15T15:11	10	108	0.2	108	109	439	0.3	438	439	24.9	45.5
2025-09-15T15:12	10	108	0.4	107	108	439	0.4	438	440	24.9	45.8
2025-09-15T15:13	10	106	0.6	105	107	438	0.5	437	439	24.9	45.3
2025-09-15T15:14	10	104	0.6	103	105	438	0.3	438	439	24.9	45.5
2025-09-15T15:15	10	102	0.5	101	103	437	0.3	437	438	24.9	45.3
2025-09-15T15:16	10	101	0.2	100	101	437	0.4	437	438	24.9	46.1
2025-09-15T15:17	10	100	1.7	91	100	438	0.3	437	438	24.9	46.0
2025-09-15T15:18	10	99	2.7	90	100	438	0.5	437	439	24.9	46.4
2025-09-15T15:19	10	100	0.2	100	100	438	0.4	437	438	24.9	46.3
2025-09-15T15:20	10	101	0.6	100	102	438	0.4	437	439	24.9	46.7
2025-09-15T15:21	10	103	0.2	102	103	439	0.3	438	439	24.9	46.5
2025-09-15T15:22	10	103	0.1	103	103	439	0.3	438	440	24.9	46.9
2025-09-15T15:23	10	103	0.3	102	103	439	0.2	439	440	24.9	46.9
2025-09-15T15:24	10	102	0.2	102	103	438	0.3	437	439	24.9	46.1
2025-09-15T15:25	10	103	1.7	98	105	439	0.5	438	439	24.9	46.8
2025-09-15T15:26	10	51	23.0	23	105	436	2.6	432	440	24.9	46.8
2025-09-15T15:27	10	93	17.7	55	107	436	2.1	433	439	24.9	47.5
2025-09-15T15:28	10	95	24.4	30	107	437	1.3	433	439	24.9	46.7
2025-09-15T15:29	10	25	0.6	25	29	432	1.6	430	436	24.8	46.7
2025-09-15T15:30	10	27	0.6	26	28	430	0.5	429	431	24.7	46.6
2025-09-15T15:31	10	29	0.8	28	31	429	0.3	429	430	24.5	47.4
2025-09-15T15:32	10	59	28.0	31	109	431	1.8	429	435	24.5	47.0
2025-09-15T15:33	10	45	19.5	31	92	432	1.6	429	434	24.5	47.3
2025-09-15T15:34	10	32	2.9	31	43	430	0.2	429	430	24.5	47.8
2025-09-15T15:35	10	82	18.7	44	110	432	2.1	429	436	24.4	48.3
2025-09-15T15:36	10	108	4.9	85	110	436	1.2	433	438	24.5	47.9
2025-09-15T15:37	10	42	9.5	36	80	433	2.1	431	438	24.6	47.6
2025-09-15T15:38	10	40	3.3	37	47	431	0.4	430	432	24.5	48.1
2025-09-15T15:39	10	96	26.2	42	115	434	3.1	429	439	24.4	48.7
2025-09-15T15:40	10	100	17.0	64	115	438	0.9	436	439	24.5	48.7
2025-09-15T15:41	10	107	6.9	91	113	437	1.6	435	440	24.5	48.5
2025-09-15T15:42	10	113	0.2	112	113	439	0.3	439	440	24.6	48.3
2025-09-15T15:43	10	112	0.6	111	112	439	0.3	438	440	24.7	48.3
2025-09-15T15:44	10	110	0.9	108	111	440	0.4	439	440	24.7	48.6
2025-09-15T15:45	10	85	27.9	35	108	438	1.7	434	440	24.8	48.3
2025-09-15T15:46	10	61	13.1	41	76	435	1.3	433	437	24.7	48.5
2025-09-15T15:47	10	32	5.5	23	41	431	1.2	429	434	24.6	48.6
2025-09-15T15:48	10	22	0.3	22	23	429	0.9	427	431	24.6	48.8
2025-09-15T15:49	10	26	2.3	23	31	427	0.3	427	428	24.5	49.1
2025-09-15T15:50	10	47	10.9	31	66	429	0.9	427	430	24.4	49.3
2025-09-15T15:51	10	52	8.4	39	64	430	0.4	429	431	24.4	49.5
2025-09-15T15:52	10	37	1.6	33	40	429	0.3	429	430	24.4	49.5
2025-09-15T15:53	10	66	24.4	33	93	430	1.8	428	433	24.4	49.3
2025-09-15T15:54	10	92	0.6	91	93	433	0.8	431	435	24.4	49.8
2025-09-15T15:55	10	90	0.6	89	91	434	0.3	433	434	24.4	49.9
2025-09-15T15:56	10	88	0.5	87	89	434	0.3	433	435	24.4	50.1
2025-09-15T15:57	10	86	0.5	85	87	434	0.3	434	435	24.5	50.1
2025-09-15T15:58	10	82	2.3	78	85	434	0.3	433	434	24.5	49.9
2025-09-15T15:59	10	78	0.7	76	79	433	0.3	432	433	24.5	49.8
2025-09-15T16:00	10	72	4.5	62	76	432	0.5	431	433	24.5	49.9
2025-09-15T16:01	10	52	3.0	47	61	430	0.9	429	432	24.5	49.0
2025-09-15T16:02	10	33	10.4	17	47	428	1.1	426	430	24.4	49.7
2025-09-15T16:03	10	12	1.7	10	16	425	1.0	424	427	24.3	50.0
2025-09-15T16:04	10	10	0.3	10	11	424	0.4	423	425	24.3	50.3
2025-09-15T16:05	10	9	0.2	9	10	423	0.3	422	424	24.2	50.5
2025-09-15T16:06	10	9	0.1	9	9	423	0.2	422	423	24.1	50.9
2025-09-15T16:07	10	9	0.1	8	9	422	0.2	422	423	24.1	51.0
2025-09-15T16:08	10	9	0.1	8	9	422	0.5	422	423	24.1	50.8
2025-09-15T16:09	10	9	0.1	8	9	422	0.4	421	423	24.1	50.8
2025-09-15T16:10	10	9	0.1	9	9	422	0.4	421	423	24.0	51.5
2025-09-15T16:11	10	9	0.1	9	9	422	0.3	421	423	23.9	51.5
2025-09-15T16:12	10	9	0.2	9	10	421	0.3	421	422	23.9	52.0
2025-09-15T16:13	10	10	0.2	9	10	421	0.2	421	422	23.8	52.2
2025-09-15T16:14	10	10	0.2	10	11	422	0.5	421	423	23.9	51.3
2025-09-15T16:15	10	11	0.2	10	11	423	0.2	422	423	23.9	50.9
2025-09-15T16:16	10	11	0.3	11	12	423	0.2	422	423	23.9	51.4
2025-09-15T16:17	10	12	0.3	12	13	423	0.2	422	423	23.8	51.5
2025-09-15T16:18	10	13	0.2	13	14	423	0.3	422	424	23.7	52.3
2025-09-15T16:19	10	14	0.2	14	14	423	0.4	423	424	23.7	52.4
2025-09-15T16:20	10	14	0.1	14	15	424	0.4	423	425	23.9	51.1
2025-09-15T16:21	10	14	0.3	13	14	424	0.2	423	425	23.8	51.5
2025-09-15T16:22	10	12	0.5	12	13	424	0.3	423	424	23.8	51.6
2025-09-15T16:23	10	11	0.5	10	11	424	0.2	423	424	23.8	51.5
2025-09-15T16:24	10	9	0.3	9	10	423	0.3	422	423	23.7	52.2
2025-09-15T16:25	10	9	0.2	8	9	422	0.3	421	423	23.7	52.3
2025-09-15T16:26	10	8	0.1	8	8	422	0.3	421	423	23.6	52.8
2025-09-15T16:27	10	9	0.2	8	9	423	0.2	422	423	23.6	52.4
2025-09-15T16:28	10	9	0.3	9	10	423	0.2	422	423	23.6	52.6
2025-09-15T16:29	10	10	0.1	10	10	423	0.3	422	423	23.6	52.9
2025-09-15T16:30	10	10	0.1	10	10	423	0.2	422	423	23.5	53.3
2025-09-15T16:31	10	10	0.1	10	11	423	0.3	422	424	23.5	52.9
2025-09-15T16:32	10	10	0.1	10	11	422	0.3	422	423	23.5	53.0
2025-09-15T16:33	10	10	0.1	10	10	422	0.2	422	423	23.5	53.4
2025-09-15T16:34	10	10	0.2	9	10	423	0.2	422	423	23.5	52.9
2025-09-15T16:35	10	9	0.1	9	10	423	0.2	422	423	23.6	52.9
2025-09-15T16:36	10	9	0.1	9	9	423	0.2	422	423	23.5	53.2
2025-09-15T16:37	10	8	0.3	8	9	423	0.3	422	424	23.5	53.2
2025-09-15T16:38	10	7	0.4	6	8	423	0.2	422	423	23.5	53.3
2025-09-15T16:39	10	6	0.4	5	6	422	0.2	422	423	23.5	53.2
2025-09-15T16:40	10	4	0.3	4	5	422	0.3	422	423	23.6	53.1
2025-09-15T16:41	10	4	0.2	3	4	422	0.2	422	423	23.5	53.5
2025-09-15T16:42	10	3	0.1	3	3	423	0.3	422	423	23.6	53.0
2025-09-15T16:43	10	3	0.1	3	3	422	0.2	422	423	23.6	53.2
2025-09-15T16:44	10	3	0.1	3	3	422	0.2	422	423	23.5	53.7
2025-09-15T16:45	10	3	0.1	2	3	422	0.3	421	423	23.5	53.5
2025-09-15T16:46	10	3	0.1	3	3	422	0.2	422	423	23.6	53.1
2025-09-15T16:47	10	3	0.1	3	3	422	0.3	422	423	23.5	53.5
2025-09-15T16:48	10	3	0.1	3	3	422	0.3	421	423	23.5	53.7
2025-09-15T16:49	10	3	0.1	2	3	422	0.4	421	423	23.5	53.6
2025-09-15T16:50	10	3	0.1	2	3	422	0.2	422	423	23.5	53.6
2025-09-15T16:51	10	3	0.1	3	3	422	0.2	422	423	23.5	53.6
2025-09-15T16:52	10	3	0.1	2	3	422	0.4	421	423	23.5	53.8
2025-09-15T16:53	10	2	0.2	2	3	421	0.6	420	422	23.5	53.7
2025-09-15T16:54	10	2	0.2	1	2	419	0.5	418	420	23.4	55.0
2025-09-15T16:55	10	2	0.2	1	2	419	0.4	418	419	23.1	56.7
2025-09-15T16:56	10	1	0.1	1	2	418	0.9	416	419	22.7	58.8
2025-09-15T16:57	10	1	0.2	1	2	415	1.6	411	417	21.8	64.1
2025-09-15T16:58	10	1	0.5	0	1	411	1.6	408	414	20.8	70.7
2025-09-15T16:59	10	-1	0.4	-1	0	409	0.2	408	409	20.2	74.8
2025-09-15T17:00	10	-2	0.2	-2	-1	408	0.4	407	409	20.0	76.4
2025-09-15T17:01	10	-2	0.2	-3	-2	408	0.5	407	409	19.9	77.6
2025-09-15T17:02	10	-2	0.1	-2	-2	408	0.4	407	408	19.8	77.7
2025-09-15T17:03	10	-2	0.1	-2	-2	408	0.6	407	409	19.7	78.6
2025-09-15T17:04	10	-1	0.2	-2	-1	408	0.5	407	409	19.8	77.6
2025-09-15T17:05	10	-1	0.2	-1	-1	407	0.5	406	408	19.8	77.1
2025-09-15T17:06	10	0	0.2	-1	0	407	0.6	405	408	19.9	76.9
2025-09-15T17:07	10	0	0.1	0	0	405	0.3	405	406	19.0	82.9
2025-09-15T17:08	10	1	0.2	1	1	404	1.7	400	406	18.3	87.2
2025-09-15T17:09	10	2	0.1	2	2	404	0.8	403	406	17.5	89.5
2025-09-15T17:10	10	1	0.1	1	2	404	1.1	402	406	17.8	89.5
2025-09-15T17:11	10	2	0.4	1	3	404	1.1	402	406	18.4	87.3
2025-09-15T17:12	10	3	0.4	2	4	403	1.1	402	405	18.8	83.7
2025-09-15T17:13	10	4	0.6	3	5	403	0.6	402	404	18.8	83.9
2025-09-15T17:14	10	7	0.7	5	8	403	0.6	402	404	18.6	85.6
2025-09-15T17:15	10	8	0.5	7	9	403	0.7	402	404	18.6	86.3
2025-09-15T17:16	10	10	0.4	9	10	403	0.5	402	404	19.0	81.4
2025-09-15T17:17	10	11	0.2	10	11	403	0.5	402	404	19.0	82.8
2025-09-15T17:18	10	9	1.2	7	11	403	0.4	402	404	18.9	83.1
2025-09-15T17:19	10	7	0.3	6	7	403	0.5	402	404	18.8	84.1
2025-09-15T17:20	10	6	0.2	5	6	403	0.2	402	403	18.9	82.7
2025-09-15T17:21	10	5	0.2	4	5	403	0.3	402	403	18.9	82.9
2025-09-15T17:22	10	4	0.1	4	5	403	0.2	402	403	19.0	81.8
2025-09-15T17:23	10	4	0.1	4	5	402	0.3	402	403	19.1	81.0
2025-09-15T17:24	10	4	0.1	4	4	402	0.3	402	403	19.0	81.9
2025-09-15T17:25	10	4	0.2	4	5	402	0.3	401	403	18.9	82.3
2025-09-15T17:26	10	4	0.2	4	5	402	0.3	401	402	19.0	81.4
2025-09-15T17:27	10	5	0.2	4	5	401	0.2	401	402	19.0	80.9
2025-09-15T17:28	10	4	0.2	4	5	402	0.3	401	402	19.0	80.8
2025-09-15T17:29	10	4	0.2	4	5	401	0.3	401	402	19.0	81.2
2025-09-15T17:30	10	4	0.2	3	4	401	0.2	401	402	19.0	80.2
2025-09-15T17:31	10	3	0.2	3	3	401	0.3	400	401	19.0	80.1
2025-09-15T17:32	10	3	0.1	2	3	400	0.2	400	401	19.0	80.7
2025-09-15T17:33	10	2	0.1	2	3	400	0.3	399	401	19.0	80.4
2025-09-15T17:34	10	2	0.1	2	2	400	0.2	399	400	18.9	81.1
2025-09-15T17:35	10	2	0.1	2	2	400	0.3	399	400	18.8	81.7
2025-09-15T17:36	10	2	0.1	2	2	400	0.3	399	401	19.1	78.2
2025-09-15T17:37	10	2	0.1	2	2	400	0.3	399	400	19.0	79.7
2025-09-15T17:38	10	2	0.1	2	2	400	0.2	399	400	18.9	79.9
2025-09-15T17:39	10	1	0.1	1	2	400	0.2	399	400	18.8	80.6
2025-09-15T17:40	10	1	0.1	1	1	400	0.2	399	400	18.8	80.4
2025-09-15T17:41	10	0	0.2	0	1	400	0.2	399	400	18.8	80.4
2025-09-15T17:42	10	0	0.1	0	0	400	0.2	400	401	18.8	80.1
2025-09-15T17:43	10	0	0.1	0	0	400	0.3	399	400	18.8	80.3
2025-09-15T17:44	10	0	0.1	0	0	400	0.3	400	401	18.8	79.3
2025-09-15T17:45	10	0	0.1	-1	0	400	0.2	399	400	18.7	79.8
2025-09-15T17:46	10	0	0.1	-1	0	400	0.2	400	401	18.7	80.1
2025-09-15T17:47	10	0	0.1	-1	0	400	0.3	400	401	18.8	79.6
2025-09-15T17:48	10	0	0.1	-1	0	400	0.3	399	401	18.8	79.6
2025-09-15T17:49	10	0	0.1	-1	0	400	0.3	399	401	18.7	80.3
2025-09-15T17:50	10	0	0.1	-1	0	399	0.3	399	400	18.6	80.9
2025-09-15T17:51	10	0	0.1	-1	0	399	0.2	399	400	18.6	81.0
2025-09-15T17:52	10	0	0.1	-1	0	399	0.4	398	400	18.5	82.7
2025-09-15T17:53	10	-1	0.1	-1	0	399	0.4	398	399	18.6	81.0
2025-09-15T17:54	10	0	0.1	-1	0	399	0.2	398	399	18.7	80.3
2025-09-15T17:55	10	-1	0.1	-1	0	398	0.4	397	399	18.5	82.0
2025-09-15T17:56	10	-1	0.1	-1	-1	398	0.3	397	398	18.5	82.1
2025-09-15T17:57	10	-1	0.1	-1	-1	397	0.3	397	398	18.4	82.9
2025-09-15T17:58	10	-1	0.1	-1	-1	397	0.3	396	397	18.3	83.3
2025-09-15T17:59	10	-1	0.1	-1	-1	397	0.3	396	397	18.3	83.3
2025-09-15T18:00	10	-1	0.1	-1	-1	397	0.3	396	398	18.4	82.3
2025-09-15T18:01	10	-1	0.1	-1	-1	396	0.3	396	397	18.3	82.7
2025-09-15T18:02	10	-1	0.1	-1	-1	396	0.3	396	397	18.3	82.8
2025-09-15T18:03	10	-1	0.1	-1	-1	396	0.2	396	397	18.3	82.8
2025-09-15T18:04	10	-1	0.1	-1	-1	396	0.2	395	396	18.3	83.2
2025-09-15T18:05	10	-1	0.0	-1	-1	396	0.3	395	397	18.3	83.7
2025-09-15T18:06	10	-1	0.1	-1	-1	396	0.2	396	397	18.3	83.1
2025-09-15T18:07	10	-1	0.1	-1	0	396	0.2	396	397	18.3	83.7
2025-09-15T18:08	10	-1	0.1	-1	0	396	0.5	395	397	18.3	83.5
2025-09-15T18:09	10	-1	0.1	-1	0	397	0.2	396	397	18.5	81.6
2025-09-15T18:10	10	-1	0.1	-1	0	397	0.4	396	398	18.5	81.2
2025-09-15T18:11	10	-1	0.1	-1	0	398	0.3	397	398	18.6	79.4
2025-09-15T18:12	10	-1	0.1	-1	0	397	0.2	397	398	18.6	79.6
2025-09-15T18:13	10	-1	0.1	-1	0	397	0.5	396	398	18.6	79.2
2025-09-15T18:14	10	-1	0.2	-1	0	397	0.5	396	398	18.8	77.5
2025-09-15T18:15	10	-1	0.2	-1	0	397	0.4	396	398	18.7	77.2
2025-09-15T18:16	10	-1	0.2	-1	0	397	0.3	397	398	18.7	77.2
2025-09-15T18:17	10	-1	0.1	-1	0	397	0.2	397	398	18.7	77.0
2025-09-15T18:18	10	-1	0.2	-1	0	397	0.3	396	397	18.6	77.6
2025-09-15T18:19	10	-1	0.2	-1	0	396	0.3	396	397	18.6	77.4
2025-09-15T18:20	10	-1	0.1	-1	0	396	0.3	396	397	18.5	78.2
2025-09-15T18:21	10	-1	0.1	-1	0	396	0.3	396	397	18.5	78.1
2025-09-15T18:22	10	-1	0.2	-1	0	396	0.3	395	397	18.4	78.1
2025-09-15T18:23	10	-1	0.1	-1	0	396	0.2	395	396	18.3	79.1
2025-09-15T18:24	10	-1	0.1	-1	0	396	0.2	395	396	18.3	79.6
2025-09-15T18:25	10	-1	0.1	-1	0	396	0.2	395	396	18.1	80.6
2025-09-15T18:26	10	-1	0.1	-1	0	396	0.3	396	397	18.2	80.4
2025-09-15T18:27	10	-1	0.1	-1	0	396	0.3	396	397	18.1	81.2
2025-09-15T18:28	10	-1	0.1	-1	0	396	0.3	396	397	18.0	81.8
2025-09-15T18:29	10	-1	0.1	-1	0	397	0.2	396	397	18.1	80.7
2025-09-15T18:30	10	-1	0.0	-1	0	397	0.4	396	397	18.1	81.3
2025-09-15T18:31	10	0	0.1	-1	0	397	0.3	396	397	18.3	79.1
2025-09-15T18:32	10	-1	0.1	-1	0	397	0.2	396	397	18.3	79.3
2025-09-15T18:33	10	0	0.1	-1	0	396	0.3	396	397	18.2	80.0
2025-09-15T18:34	10	0	0.1	-1	0	396	0.3	396	397	18.3	79.0
2025-09-15T18:35	10	0	0.1	-1	0	397	0.3	396	397	18.3	79.3
2025-09-15T18:36	10	0	0.1	-1	0	397	0.2	396	397	18.2	79.7
2025-09-15T18:37	10	0	0.1	-1	0	397	0.3	397	398	18.3	79.0
2025-09-15T18:38	10	0	0.1	0	0	397	0.2	397	398	18.4	78.5
2025-09-15T18:39	10	0	0.1	0	0	397	0.3	397	398	18.5	77.7
2025-09-15T18:40	10	0	0.1	0	0	398	0.2	397	398	18.7	75.9
2025-09-15T18:41	10	0	0.1	0	0	397	0.3	397	398	18.5	77.4
2025-09-15T18:42	10	0	0.0	0	0	397	0.2	397	398	18.5	77.8
2025-09-15T18:43	10	0	0.1	0	0	397	0.2	396	397	18.4	78.0
2025-09-15T18:44	10	0	0.1	0	0	397	0.2	397	398	18.4	77.7
2025-09-15T18:45	10	0	0.0	0	0	397	0.2	397	398	18.5	77.2
2025-09-15T18:46	10	0	0.1	0	0	397	0.3	396	398	18.5	76.7
2025-09-15T18:47	10	0	0.0	0	0	397	0.2	396	397	18.5	77.2
2025-09-15T18:48	10	0	0.1	0	0	397	0.3	396	397	18.4	77.6
2025-09-15T18:49	10	0	0.1	0	0	397	0.3	396	397	18.5	76.8
2025-09-15T18:50	10	0	0.1	0	0	398	0.2	397	398	18.9	73.5
2025-09-15T18:51	10	0	0.1	0	0	398	0.2	398	399	18.9	73.4
2025-09-15T18:52	10	0	0.1	0	0	398	0.4	397	398	19.0	72.5
2025-09-15T18:53	10	0	0.1	0	0	397	0.3	396	398	18.9	73.4
2025-09-15T18:54	10	0	0.1	0	1	397	0.4	396	398	19.0	73.1
2025-09-15T18:55	10	0	0.1	0	0	396	0.3	396	397	18.8	74.2
2025-09-15T18:56	10	0	0.1	0	0	397	0.5	396	398	18.9	73.1
2025-09-15T18:57	10	0	0.1	0	0	397	0.3	396	397	18.9	73.3
2025-09-15T18:58	10	0	0.1	0	1	396	0.3	395	397	18.7	75.1
2025-09-15T18:59	10	0	0.1	0	0	396	0.2	395	396	18.6	75.4
2025-09-15T19:00	10	0	0.1	0	0	396	0.2	396	397	18.8	74.2
2025-09-15T19:01	10	0	0.1	0	0	397	0.2	396	397	18.8	73.6
2025-09-15T19:02	10	0	0.1	0	0	397	0.2	397	398	18.9	73.2
2025-09-15T19:03	10	0	0.1	0	0	397	0.5	396	398	18.8	74.3
2025-09-15T19:04	10	0	0.1	0	0	396	0.3	395	396	18.6	75.8
2025-09-15T19:05	10	0	0.1	0	0	396	0.4	395	397	18.6	75.5
2025-09-15T19:06	10	0	0.1	0	0	396	0.3	396	397	18.7	74.7
2025-09-15T19:07	10	0	0.1	0	0	396	0.3	396	397	18.6	75.1
2025-09-15T19:08	10	0	0.1	0	0	396	0.3	395	396	18.5	75.8
2025-09-15T19:09	10	0	0.1	0	0	396	0.2	395	396	18.5	75.4
2025-09-15T19:10	10	0	0.1	0	0	396	0.5	395	397	18.6	73.6
2025-09-15T19:11	10	0	0.1	0	0	397	0.3	396	398	19.0	70.6
2025-09-15T19:12	10	0	0.1	0	0	397	0.3	396	398	19.0	70.1
2025-09-15T19:13	10	0	0.1	0	0	397	0.3	396	397	19.0	70.5
2025-09-15T19:14	10	0	0.1	0	0	397	0.5	397	398	19.1	69.7
2025-09-15T19:15	10	0	0.1	0	0	397	0.4	396	398	19.1	69.1
2025-09-15T19:16	10	0	0.1	0	0	397	0.2	396	397	19.0	69.9
2025-09-15T19:17	10	0	0.1	0	0	397	0.3	396	398	19.0	69.6
2025-09-15T19:18	10	0	0.1	0	0	397	0.3	397	398	19.1	69.1
2025-09-15T19:19	10	0	0.1	0	0	397	0.3	397	398	19.1	69.5
2025-09-15T19:20	10	0	0.1	0	0	397	0.3	396	398	19.0	70.1
2025-09-15T19:21	10	0	0.1	0	1	397	0.3	396	398	19.0	70.5
2025-09-15T19:22	10	0	0.1	0	0	397	0.3	396	397	18.9	71.2
2025-09-15T19:23	10	0	0.1	0	0	397	0.3	396	397	18.6	73.1
2025-09-15T19:24	10	0	0.1	0	0	396	0.2	396	397	18.4	74.7
2025-09-15T19:25	10	0	0.1	0	0	396	0.3	395	396	18.3	75.4
2025-09-15T19:26	10	0	0.1	0	0	395	0.2	395	396	18.4	75.1
2025-09-15T19:27	10	0	0.1	0	0	395	0.2	394	395	18.3	75.3
2025-09-15T19:28	10	0	0.1	0	0	395	0.3	394	396	18.5	74.3
2025-09-15T19:29	10	0	0.1	0	0	395	0.2	395	396	18.5	73.8
2025-09-15T19:30	10	0	0.1	0	0	395	0.3	395	396	18.6	73.5
2025-09-15T19:31	10	0	0.1	0	0	396	0.2	395	396	18.7	73.1
2025-09-15T19:32	10	0	0.1	0	0	396	0.3	395	396	18.6	73.4
2025-09-15T19:33	10	0	0.1	0	0	396	0.3	395	396	18.7	73.3
2025-09-15T19:34	10	0	0.1	0	0	395	0.3	395	396	18.7	73.4
2025-09-15T19:35	10	0	0.1	0	0	395	0.4	394	396	18.6	73.6
2025-09-15T19:36	10	0	0.0	0	0	395	0.2	394	395	18.6	73.5
2025-09-15T19:37	10	0	0.1	0	0	395	0.3	394	396	18.6	73.4
2025-09-15T19:38	10	0	0.1	0	0	395	0.2	395	396	18.7	72.9
2025-09-15T19:39	10	0	0.1	0	0	396	0.3	395	397	18.8	72.3
2025-09-15T19:40	10	0	0.1	0	0	396	0.5	395	397	18.7	72.9
2025-09-15T19:41	10	0	0.1	0	0	397	0.3	396	397	18.8	72.1
2025-09-15T19:42	10	0	0.1	0	0	397	0.3	397	398	18.9	72.0
2025-09-15T19:43	10	0	0.1	0	0	397	0.2	397	398	18.9	72.1
2025-09-15T19:44	10	0	0.1	0	0	397	0.2	397	398	18.8	72.4
2025-09-15T19:45	10	0	0.1	0	0	398	0.2	397	398	18.9	71.5
2025-09-15T19:46	10	0	0.1	0	0	398	0.2	397	398	18.9	71.6
2025-09-15T19:47	10	0	0.1	0	0	398	0.3	397	398	18.8	72.0
2025-09-15T19:48	10	0	0.1	0	0	398	0.3	397	398	18.9	71.7
2025-09-15T19:49	10	0	0.1	0	0	397	0.2	397	398	18.8	72.5
2025-09-15T19:50	10	0	0.1	0	0	397	0.3	396	398	18.7	73.3
2025-09-15T19:51	10	0	0.1	0	0	396	0.4	396	397	18.5	75.0
2025-09-15T19:52	10	0	0.1	0	0	395	0.4	395	396	18.3	76.3
2025-09-15T19:53	10	0	0.1	0	0	395	0.3	394	395	18.2	76.8
2025-09-15T19:54	10	0	0.1	0	0	394	0.3	394	395	18.2	76.8
2025-09-15T19:55	10	0	0.1	0	0	394	0.3	393	394	18.2	76.9
2025-09-15T19:56	10	0	0.1	0	0	393	0.3	392	394	18.1	77.4
2025-09-15T19:57	10	0	0.1	0	0	393	0.3	392	394	18.0	78.3
2025-09-15T19:58	10	0	0.1	0	0	393	0.3	393	394	18.0	78.1
2025-09-15T19:59	10	0	0.1	0	0	394	0.2	393	394	18.0	77.9
2025-09-15T20:00	10	0	0.1	0	0	394	0.3	393	394	18.0	77.7
2025-09-15T20:01	10	0	0.1	0	0	394	0.4	393	395	18.1	77.4
2025-09-15T20:02	10	0	0.1	0	0	394	0.4	394	395	18.1	77.5
2025-09-15T20:03	10	0	0.1	0	0	395	0.3	394	396	18.1	76.9
2025-09-15T20:04	10	0	0.1	0	0	395	0.2	395	396	18.1	74.4
2025-09-15T20:05	10	0	0.1	0	0	396	0.2	395	396	18.1	77.0
2025-09-15T20:06	10	0	0.1	0	0	396	0.2	395	396	18.1	77.0
2025-09-15T20:07	10	0	0.1	0	0	395	0.2	395	396	18.1	77.0
2025-09-15T20:08	10	0	0.1	0	0	397	0.6	395	397	18.1	77.0
2025-09-15T20:09	10	0	0.1	0	0	396	0.4	395	397	18.1	77.0
2025-09-15T20:10	10	0	0.1	0	0	396	0.3	395	396	18.1	77.0
2025-09-15T20:11	10	0	0.1	0	0	396	0.3	395	397	18.3	75.4
2025-09-15T20:12	10	0	0.1	0	0	397	0.4	396	398	18.5	73.5
2025-09-15T20:13	10	0	0.1	0	0	397	0.3	397	397	18.7	72.6
2025-09-15T20:14	10	0	0.1	0	0	397	0.4	396	397	18.7	72.8
2025-09-15T20:15	10	0	0.1	0	0	396	0.3	395	397	18.5	74.1
2025-09-15T20:16	10	0	0.1	0	0	395	0.3	394	396	18.5	74.3
2025-09-15T20:17	10	0	0.1	0	0	395	0.2	394	395	18.5	73.4
2025-09-15T20:18	10	0	0.1	0	1	395	0.3	394	396	18.6	72.5
2025-09-15T20:19	10	0	0.1	0	0	395	0.5	395	396	18.7	71.5
2025-09-15T20:20	10	0	0.1	0	0	396	0.3	395	396	18.8	70.8
2025-09-15T20:21	10	0	0.1	0	1	395	0.3	395	396	18.8	70.7
2025-09-15T20:22	10	0	0.1	0	0	396	0.2	395	396	18.8	70.3
2025-09-15T20:23	10	0	0.1	0	0	396	0.3	395	396	18.8	70.6
2025-09-15T20:24	10	0	0.1	0	1	396	0.2	396	397	18.8	70.5
2025-09-15T20:25	10	0	0.1	0	1	397	0.3	396	397	18.7	71.1
2025-09-15T20:26	10	0	0.1	0	0	397	0.3	396	398	18.7	71.1
2025-09-15T20:27	10	0	0.1	0	0	397	0.3	397	398	18.8	70.6
2025-09-15T20:28	10	0	0.1	0	0	397	0.3	396	398	18.8	70.9
2025-09-15T20:29	10	0	0.1	0	1	396	0.3	396	397	18.8	71.0
2025-09-15T20:30	10	0	0.1	0	1	396	0.3	396	397	18.7	71.5
2025-09-15T20:31	10	0	0.1	0	0	397	0.2	396	397	18.8	71.1
2025-09-15T20:32	10	0	0.1	0	0	397	0.2	396	397	18.8	70.7
2025-09-15T20:33	10	0	0.1	0	0	397	0.3	397	398	18.8	70.8
2025-09-15T20:34	10	0	0.1	0	0	397	0.2	397	398	18.9	70.4
2025-09-15T20:35	10	0	0.1	0	0	398	0.2	397	398	18.9	70.2
2025-09-15T20:36	10	0	0.1	0	0	398	0.3	397	398	18.9	70.2
2025-09-15T20:37	10	0	0.1	0	1	398	0.2	397	398	18.9	70.4
2025-09-15T20:38	10	0	0.1	0	1	398	0.3	397	399	18.8	70.6
2025-09-15T20:39	10	0	0.1	0	0	398	0.3	397	398	18.8	70.9
2025-09-15T20:40	10	0	0.1	0	0	397	0.4	396	398	18.7	71.7
2025-09-15T20:41	10	0	0.1	0	0	397	0.3	396	397	18.6	72.7
2025-09-15T20:42	10	0	0.1	0	0	397	0.4	396	398	18.6	71.7
2025-09-15T20:43	10	0	0.1	0	0	397	0.3	397	398	18.9	69.9
2025-09-15T20:44	10	0	0.1	0	0	397	0.2	396	397	18.8	70.8
2025-09-15T20:45	10	0	0.1	0	0	397	0.3	396	398	18.7	71.1
2025-09-15T20:46	10	0	0.2	0	0	396	0.4	395	397	18.6	71.7
2025-09-15T20:47	10	0	0.1	-1	0	396	0.2	396	396	18.4	72.4
2025-09-15T20:48	10	-1	0.1	-1	0	396	0.3	395	396	18.4	72.2
2025-09-15T20:49	10	-1	0.1	-1	-1	396	0.3	395	396	18.3	73.0
2025-09-15T20:50	10	-1	0.1	-1	0	396	0.4	395	397	18.4	71.8
2025-09-15T20:51	10	-1	0.1	-1	0	396	0.3	395	396	18.4	71.7
2025-09-15T20:52	10	0	0.1	-1	0	396	0.2	395	396	18.4	71.9
2025-09-15T20:53	10	0	0.1	0	0	395	0.3	395	396	18.3	72.9
2025-09-15T20:54	10	0	0.1	0	0	396	0.3	395	397	18.4	72.2
2025-09-15T20:55	10	0	0.1	0	0	396	0.4	394	396	18.4	72.6
2025-09-15T20:56	10	0	0.1	0	0	395	0.2	395	396	18.4	72.7
2025-09-15T20:57	10	0	0.1	0	1	395	0.3	395	396	18.3	73.2
2025-09-15T20:58	10	0	0.1	0	1	396	0.4	395	396	18.5	71.5
2025-09-15T20:59	10	0	0.1	0	0	396	0.2	395	396	18.5	71.7
2025-09-15T21:00	10	0	0.1	0	0	396	0.3	395	397	18.4	72.1
2025-09-15T21:01	10	0	0.1	0	0	396	0.2	396	397	18.5	71.2
2025-09-15T21:02	10	0	0.1	0	0	396	0.3	395	397	18.4	72.4
2025-09-15T21:03	10	0	0.1	0	0	396	0.3	395	397	18.3	72.6
2025-09-15T21:04	10	0	0.1	0	0	396	0.4	395	396	18.4	72.6
2025-09-15T21:05	10	0	0.1	0	0	396	0.3	395	396	18.3	73.4
2025-09-15T21:06	10	0	0.1	0	0	395	0.2	395	396	18.2	74.2
2025-09-15T21:07	10	0	0.1	-1	0	395	0.4	394	395	18.0	75.3
2025-09-15T21:08	10	0	0.1	-1	0	394	0.4	393	395	17.9	77.3
2025-09-15T21:09	10	0	0.1	0	0	393	0.3	392	394	17.7	78.0
2025-09-15T21:10	10	0	0.1	0	0	393	0.2	392	393	17.6	78.7
2025-09-15T21:11	10	0	0.1	0	0	393	0.3	392	394	17.6	78.5
2025-09-15T21:12	10	0	0.1	0	0	393	0.3	392	394	17.5	80.1
2025-09-15T21:13	10	0	0.1	0	0	393	0.4	392	394	17.5	79.8
2025-09-15T21:14	10	0	0.1	0	0	394	0.3	393	394	17.5	79.6
2025-09-15T21:15	10	0	0.1	0	0	393	0.5	392	394	17.4	80.3
2025-09-15T21:16	10	0	0.1	0	0	394	0.2	393	394	17.5	79.3
2025-09-15T21:17	10	0	0.0	0	0	393	0.3	393	394	17.5	79.8
2025-09-15T21:18	10	0	0.0	0	0	394	0.3	393	394	17.4	80.6
2025-09-15T21:19	10	0	0.1	0	0	394	0.2	393	394	17.4	80.4
2025-09-15T21:20	10	0	0.1	0	0	394	0.3	393	394	17.4	80.1
2025-09-15T21:21	10	0	0.1	0	0	394	0.2	393	394	17.5	78.8
2025-09-15T21:22	10	0	0.1	0	0	394	0.2	393	394	17.6	77.1
2025-09-15T21:23	10	0	0.1	0	0	394	0.3	393	394	17.6	76.9
2025-09-15T21:24	10	0	0.1	0	1	393	0.2	393	394	17.5	78.3
2025-09-15T21:25	10	0	0.1	0	1	393	0.3	393	394	17.5	78.3
2025-09-15T21:26	10	0	0.1	0	1	394	0.2	393	394	17.5	77.8
2025-09-15T21:27	10	0	0.1	0	0	394	0.2	393	394	17.5	77.2
2025-09-15T21:28	10	0	0.1	0	1	394	0.2	393	394	17.6	76.7
2025-09-15T21:29	10	0	0.1	0	1	393	0.2	393	394	17.6	76.3
2025-09-15T21:30	10	0	0.1	0	1	394	0.2	393	394	17.6	75.8
2025-09-15T21:31	10	0	0.1	0	0	393	0.2	393	394	17.7	75.2
2025-09-15T21:32	10	0	0.1	0	1	393	0.2	393	394	17.7	75.1
2025-09-15T21:33	10	0	0.1	0	1	394	0.2	393	394	17.7	74.7
2025-09-15T21:34	10	0	0.1	0	1	393	0.3	393	394	17.6	75.4
2025-09-15T21:35	10	0	0.1	0	1	393	0.3	393	394	17.5	76.3
2025-09-15T21:36	10	0	0.1	0	1	393	0.3	393	394	17.6	76.1
2025-09-15T21:37	10	0	0.1	0	0	393	0.2	393	394	17.5	76.3
2025-09-15T21:38	10	0	0.1	0	1	393	0.3	393	394	17.7	74.2
2025-09-15T21:39	10	0	0.1	0	1	393	0.2	393	394	17.7	74.3
2025-09-15T21:40	10	0	0.1	0	1	393	0.2	393	394	17.6	75.2
2025-09-15T21:41	10	0	0.1	0	1	393	0.3	393	394	17.7	74.6
2025-09-15T21:42	10	0	0.1	0	1	394	0.3	393	394	17.6	75.3
2025-09-15T21:43	10	0	0.1	0	1	394	0.3	393	394	17.8	73.0
2025-09-15T21:44	10	0	0.1	0	1	394	0.2	393	394	17.8	74.0
2025-09-15T21:45	10	0	0.1	0	0	394	0.2	393	394	17.8	73.2
2025-09-15T21:46	10	0	0.1	0	1	393	0.3	393	394	17.8	72.8
2025-09-15T21:47	10	0	0.1	0	1	393	0.2	393	394	17.8	73.2
2025-09-15T21:48	10	0	0.1	0	1	394	0.3	393	394	17.7	73.7
2025-09-15T21:49	10	0	0.1	0	1	393	0.4	392	394	17.7	73.5
2025-09-15T21:50	10	0	0.2	0	1	393	0.3	392	393	17.6	74.2
2025-09-15T21:51	10	0	0.2	0	1	393	0.3	392	393	17.5	75.1
2025-09-15T21:52	10	0	0.1	0	0	393	0.3	392	393	17.6	74.3
2025-09-15T21:53	10	0	0.1	0	0	392	0.3	391	393	17.3	76.9
2025-09-15T21:54	10	0	0.2	0	0	393	0.4	392	393	17.4	75.3
2025-09-15T21:55	10	0	0.1	0	0	392	0.2	392	393	17.5	75.4
2025-09-15T21:56	10	0	0.1	0	0	392	0.3	392	393	17.4	75.6
2025-09-15T21:57	10	0	0.1	0	0	392	0.4	392	393	17.5	74.2
2025-09-15T21:58	10	0	0.1	0	0	392	0.3	392	393	17.7	72.2
2025-09-15T21:59	10	0	0.1	0	0	392	0.3	392	393	17.6	73.5
2025-09-15T22:00	10	0	0.1	0	0	392	0.3	391	392	17.5	74.8
2025-09-15T22:01	10	0	0.2	0	1	392	0.3	391	393	17.4	75.4
2025-09-15T22:02	10	0	0.1	0	0	392	0.4	392	393	17.5	73.1
2025-09-15T22:03	10	0	0.2	0	1	392	0.3	391	393	17.6	72.5
2025-09-15T22:04	10	0	0.1	0	1	392	0.3	392	393	17.6	71.3
2025-09-15T22:05	10	0	0.1	0	1	392	0.2	391	392	17.7	71.3
2025-09-15T22:06	10	0	0.1	0	1	391	0.3	391	392	17.7	70.4
2025-09-15T22:07	10	0	0.2	0	1	391	0.3	390	392	17.7	70.6
2025-09-15T22:08	10	0	0.1	0	1	391	0.3	390	391	17.6	71.5
2025-09-15T22:09	10	0	0.1	0	1	390	0.3	390	391	17.5	73.0
2025-09-15T22:10	10	0	0.1	0	1	390	0.3	390	391	17.5	73.3
2025-09-15T22:11	10	0	0.1	0	1	390	0.4	389	391	17.4	73.5
2025-09-15T22:12	10	0	0.2	0	1	391	0.2	390	391	17.5	73.1
2025-09-15T22:13	10	0	0.1	0	1	390	0.3	389	391	17.4	74.6
2025-09-15T22:14	10	0	0.1	0	1	390	0.3	389	391	17.5	72.7
2025-09-15T22:15	10	0	0.2	0	1	390	0.3	389	390	17.4	74.7
2025-09-15T22:16	10	0	0.1	0	1	390	0.3	389	390	17.3	76.3
2025-09-15T22:17	10	0	0.1	0	1	390	0.3	389	391	17.2	76.1
2025-09-15T22:18	10	0	0.1	0	0	390	0.4	389	391	17.3	74.6
2025-09-15T22:19	10	0	0.2	0	1	390	0.3	390	391	17.4	73.9
2025-09-15T22:20	10	0	0.1	0	1	391	0.3	390	391	17.5	71.7
2025-09-15T22:21	10	0	0.2	0	1	390	0.6	389	391	17.5	71.7
2025-09-15T22:22	10	0	0.1	0	1	389	0.3	389	390	17.4	73.4
2025-09-15T22:23	10	0	0.1	0	1	389	0.3	388	390	17.4	73.2
2025-09-15T22:24	10	0	0.1	0	0	389	0.3	388	390	17.3	74.3
2025-09-15T22:25	10	0	0.1	0	0	389	0.3	388	390	17.3	73.9
2025-09-15T22:26	10	0	0.1	0	0	390	0.5	388	391	17.4	71.2
2025-09-15T22:27	10	0	0.1	0	0	390	0.3	389	390	17.5	71.1
2025-09-15T22:28	10	0	0.2	0	1	389	0.3	388	390	17.3	72.2
2025-09-15T22:29	10	0	0.1	0	1	389	0.3	388	389	17.3	72.6
2025-09-15T22:30	10	0	0.1	0	1	389	0.2	388	389	17.4	70.5
2025-09-15T22:31	10	0	0.1	0	0	389	0.3	388	389	17.3	70.7
2025-09-15T22:32	10	0	0.1	0	0	389	0.3	388	389	17.4	69.7
2025-09-15T22:33	10	0	0.1	0	0	389	0.3	388	390	17.4	69.2
2025-09-15T22:34	10	0	0.1	0	1	389	0.2	388	389	17.4	68.8
2025-09-15T22:35	10	0	0.2	0	1	388	0.2	388	389	17.4	68.6
2025-09-15T22:36	10	0	0.1	0	1	388	0.3	387	389	17.4	68.2
2025-09-15T22:37	10	0	0.1	0	1	388	0.2	387	388	17.4	68.1
2025-09-15T22:38	10	0	0.1	0	0	388	0.3	387	388	17.3	68.4
2025-09-15T22:39	10	0	0.1	0	0	388	0.2	387	388	17.3	68.4
2025-09-15T22:40	10	0	0.1	0	0	387	0.2	387	388	17.3	68.4
2025-09-15T22:41	10	0	0.1	0	0	387	0.2	387	388	17.1	69.5
2025-09-15T22:42	10	0	0.1	0	0	387	0.3	386	387	17.1	69.3
2025-09-15T22:43	10	0	0.1	0	0	387	0.3	386	387	17.1	69.1
2025-09-15T22:44	10	0	0.1	0	0	387	0.3	386	387	17.1	68.8
2025-09-15T22:45	10	0	0.1	0	0	387	0.2	387	388	17.3	67.2
2025-09-15T22:46	10	0	0.1	0	0	387	0.4	386	388	17.3	66.7
2025-09-15T22:47	10	0	0.1	0	0	387	0.3	386	387	17.3	66.9
2025-09-15T22:48	10	0	0.1	0	0	387	0.3	386	387	17.3	66.6
2025-09-15T22:49	10	0	0.1	0	0	387	0.2	386	387	17.4	66.2
2025-09-15T22:50	10	0	0.1	0	0	387	0.3	386	387	17.3	67.2
2025-09-15T22:51	10	0	0.1	0	0	387	0.3	386	388	17.4	65.5
2025-09-15T22:52	10	0	0.0	0	0	387	0.3	386	388	17.5	64.8
2025-09-15T22:53	10	0	0.0	0	0	387	0.4	386	388	17.6	64.0
2025-09-15T22:54	10	0	0.0	0	0	386	0.5	385	387	17.5	66.0
2025-09-15T22:55	10	0	0.0	0	0	386	0.2	385	386	17.2	67.8
2025-09-15T22:56	10	0	0.1	0	0	385	0.3	385	386	17.1	68.9
2025-09-15T22:57	10	0	0.0	0	0	385	0.2	384	385	17.0	69.9
2025-09-15T22:58	10	0	0.1	0	0	384	0.2	383	384	16.9	70.5
2025-09-15T22:59	10	0	0.1	0	0	384	0.3	383	385	16.9	70.4
2025-09-15T23:00	10	0	0.1	0	0	384	0.3	384	385	16.9	70.5
2025-09-15T23:01	10	0	0.1	0	0	384	0.4	383	385	16.8	70.6
2025-09-15T23:02	10	0	0.1	0	0	384	0.3	384	385	17.0	68.9
2025-09-15T23:03	10	0	0.1	0	0	384	0.4	384	385	17.0	68.9
2025-09-15T23:04	10	0	0.1	0	0	385	0.3	384	385	17.0	68.8
2025-09-15T23:05	10	0	0.1	0	0	384	0.3	383	385	16.9	70.3
2025-09-15T23:06	10	0	0.1	0	0	384	0.5	383	385	16.8	71.0
2025-09-15T23:07	10	0	0.1	0	0	386	0.4	385	386	17.1	67.5
2025-09-15T23:08	10	0	0.1	0	0	385	0.3	384	385	17.0	69.2
2025-09-15T23:09	10	0	0.0	0	0	385	0.3	384	385	16.9	70.0
2025-09-15T23:10	10	0	0.1	0	0	384	0.4	384	385	16.9	68.9
2025-09-15T23:11	10	0	0.1	0	0	385	0.4	384	386	17.1	67.6
2025-09-15T23:12	10	0	0.0	0	0	385	0.2	384	385	17.0	67.5
2025-09-15T23:13	10	0	0.0	0	0	384	0.5	383	385	17.0	67.7
2025-09-15T23:14	10	0	0.0	0	0	383	0.3	383	384	16.9	68.5
2025-09-15T23:15	10	0	0.1	0	0	383	0.5	382	384	16.9	68.6
2025-09-15T23:16	10	0	0.1	0	0	384	0.4	383	385	16.9	68.6
2025-09-15T23:17	10	0	0.1	0	0	384	0.2	383	384	16.9	69.2
2025-09-15T23:18	10	0	0.1	0	0	384	0.3	383	385	16.8	69.4
2025-09-15T23:19	10	0	0.1	0	0	383	0.4	382	383	16.7	70.3
2025-09-15T23:20	10	0	0.1	0	0	382	0.2	381	382	16.6	70.8
2025-09-15T23:21	10	0	0.1	0	0	383	0.4	382	383	16.7	70.4
2025-09-15T23:22	10	0	0.1	0	0	383	0.4	383	384	16.7	69.8
2025-09-15T23:23	10	0	0.1	0	0	383	0.3	382	384	16.7	69.6
2025-09-15T23:24	10	0	0.1	0	0	383	0.6	382	385	16.7	69.7
2025-09-15T23:25	10	0	0.1	0	0	384	0.3	383	385	17.0	66.5
2025-09-15T23:26	10	0	0.1	0	0	385	0.2	384	385	17.1	64.8
2025-09-15T23:27	10	0	0.1	0	0	384	0.4	383	385	17.0	65.6
2025-09-15T23:28	10	0	0.1	0	0	383	0.4	383	384	16.9	66.7
2025-09-15T23:29	10	0	0.0	0	0	385	0.3	384	386	17.0	65.2
2025-09-15T23:30	10	0	0.1	0	0	386	0.3	385	386	17.1	64.7
2025-09-15T23:31	10	0	0.0	0	0	386	0.3	385	386	17.0	65.5
2025-09-15T23:32	10	0	0.1	0	0	385	0.4	385	386	17.0	65.4
2025-09-15T23:33	10	0	0.1	0	0	386	0.2	385	386	17.0	65.1
2025-09-15T23:34	10	0	0.1	0	0	386	0.2	386	387	17.1	64.3
2025-09-15T23:35	10	0	0.1	0	0	386	0.3	385	386	17.1	65.3
2025-09-15T23:36	10	0	0.1	0	1	386	0.5	385	387	17.0	65.8
2025-09-15T23:37	10	0	0.1	0	0	386	0.3	385	386	16.8	67.4
2025-09-15T23:38	10	0	0.1	0	0	386	0.2	386	387	16.8	67.1
2025-09-15T23:39	10	0	0.0	0	0	387	0.4	386	387	17.0	65.4
2025-09-15T23:40	10	0	0.1	0	0	386	0.3	386	387	16.9	65.9
2025-09-15T23:41	10	0	0.0	0	0	386	0.3	385	386	16.8	66.9
2025-09-15T23:42	10	0	0.1	0	0	386	0.3	385	386	16.8	66.4
2025-09-15T23:43	10	0	0.1	0	0	385	0.3	384	386	16.8	66.5
2025-09-15T23:44	10	0	0.0	0	0	386	0.6	384	386	16.9	65.4
2025-09-15T23:45	10	0	0.1	0	0	385	0.3	385	386	16.9	65.3
2025-09-15T23:46	10	0	0.1	0	0	385	0.3	385	386	16.8	66.0
2025-09-15T23:47	10	0	0.1	0	0	385	0.2	385	386	16.7	66.7
2025-09-15T23:48	10	0	0.1	0	0	385	0.4	384	386	16.7	66.8
2025-09-15T23:49	10	0	0.1	0	0	384	0.2	384	385	16.6	67.0
2025-09-15T23:50	10	0	0.1	0	0	384	0.3	383	384	16.6	66.9
2025-09-15T23:51	10	0	0.1	0	0	385	0.4	384	385	16.8	64.9
2025-09-15T23:52	10	0	0.1	0	0	385	0.5	384	386	16.9	64.3
2025-09-15T23:53	10	0	0.1	0	0	385	0.2	384	385	16.9	64.5
2025-09-15T23:54	10	0	0.1	0	0	384	0.2	384	385	16.8	65.2
2025-09-15T23:55	10	0	0.1	0	0	384	0.4	383	385	16.8	65.4
2025-09-15T23:56	10	0	0.1	0	0	384	0.2	383	384	16.8	65.3
2025-09-15T23:57	10	0	0.1	0	0	384	0.3	383	384	16.8	64.9
2025-09-15T23:58	10	0	0.1	0	0	384	0.3	384	385	16.8	65.4
2025-09-15T23:59	10	0	0.1	0	0	384	0.2	383	384	16.7	65.9
2025-09-16T00:00	10	0	0.1	0	0	383	0.3	383	384	16.7	65.5
2025-09-16T00:01	10	0	0.1	0	0	384	0.5	383	385	16.7	65.3
2025-09-16T00:02	10	0	0.1	0	0	384	0.3	383	384	16.7	65.3
2025-09-16T00:03	10	0	0.1	0	0	383	0.3	382	384	16.6	66.0
2025-09-16T00:04	10	0	0.1	0	0	383	0.3	382	383	16.6	65.6
2025-09-16T00:05	10	0	0.0	0	0	383	0.3	382	384	16.6	65.2
2025-09-16T00:06	10	0	0.1	0	0	383	0.4	382	384	16.6	65.8
2025-09-16T00:07	10	0	0.1	0	0	382	0.3	382	383	16.5	65.7
2025-09-16T00:08	10	0	0.1	0	0	383	0.3	382	383	16.6	65.0
2025-09-16T00:09	10	0	0.1	0	0	383	0.4	382	384	16.6	64.4
2025-09-16T00:10	10	0	0.1	0	0	383	0.3	382	384	16.6	64.4
2025-09-16T00:11	10	0	0.1	0	0	383	0.3	382	384	16.6	63.8
2025-09-16T00:12	10	0	0.1	0	0	383	0.3	382	383	16.7	64.1
2025-09-16T00:13	10	0	0.1	0	0	383	0.2	382	384	16.5	64.5
2025-09-16T00:14	10	0	0.1	0	0	383	0.2	382	383	16.6	64.3
2025-09-16T00:15	10	0	0.1	0	0	382	0.4	382	383	16.5	64.7
2025-09-16T00:16	10	0	0.1	0	0	383	0.3	382	384	16.5	64.2
2025-09-16T00:17	10	0	0.1	0	0	384	0.6	383	385	16.5	63.8
2025-09-16T00:18	10	0	0.1	0	0	385	0.2	384	385	16.6	63.0
2025-09-16T00:19	10	0	0.1	0	0	385	0.3	384	385	16.6	63.0
2025-09-16T00:20	10	0	0.1	0	0	384	0.3	384	385	16.5	64.0
2025-09-16T00:21	10	0	0.1	0	0	385	0.3	384	385	16.5	63.4
2025-09-16T00:22	10	0	0.1	0	0	385	0.2	384	385	16.5	63.4
2025-09-16T00:23	10	0	0.1	0	0	384	0.2	384	385	16.5	63.0
2025-09-16T00:24	10	0	0.1	0	0	384	0.5	383	385	16.5	63.1
2025-09-16T00:25	10	0	0.1	0	0	383	0.3	383	384	16.4	63.6
2025-09-16T00:26	10	0	0.1	0	0	383	0.3	383	384	16.5	62.9
2025-09-16T00:27	10	0	0.1	0	0	383	0.2	383	384	16.4	63.5
2025-09-16T00:28	10	0	0.1	0	0	383	0.3	383	384	16.3	63.5
2025-09-16T00:29	10	0	0.1	0	0	384	0.4	383	385	16.4	62.7
2025-09-16T00:30	10	0	0.1	0	0	384	0.2	384	385	16.4	62.7
2025-09-16T00:31	10	0	0.1	0	0	384	0.2	384	385	16.4	63.0
2025-09-16T00:32	10	0	0.1	0	0	385	0.5	384	386	16.5	61.7
2025-09-16T00:33	10	0	0.1	0	0	385	0.3	384	385	16.5	61.7
2025-09-16T00:34	10	0	0.1	0	0	384	0.3	384	385	16.4	62.3
2025-09-16T00:35	10	0	0.1	0	0	384	0.5	383	385	16.3	62.8
2025-09-16T00:36	10	0	0.1	0	0	384	0.2	383	384	16.3	62.3
2025-09-16T00:37	10	0	0.1	0	0	384	0.4	383	385	16.3	62.5
2025-09-16T00:38	10	0	0.1	0	0	384	0.4	383	385	16.4	61.6
2025-09-16T00:39	10	0	0.1	0	0	383	0.3	382	384	16.3	61.9
2025-09-16T00:40	10	0	0.1	0	0	383	0.3	382	383	16.3	61.8
2025-09-16T00:41	10	0	0.1	0	0	383	0.5	382	383	16.3	61.2
2025-09-16T00:42	10	0	0.1	0	0	382	0.3	382	383	16.3	61.9
2025-09-16T00:43	10	0	0.1	0	0	383	0.4	382	384	16.3	61.0
2025-09-16T00:44	10	0	0.1	0	0	383	0.3	382	383	16.3	61.0
2025-09-16T00:45	10	0	0.1	0	0	382	0.5	381	383	16.3	61.0
2025-09-16T00:46	10	0	0.1	0	0	382	0.3	381	382	16.3	60.7
2025-09-16T00:47	10	0	0.1	0	0	381	0.3	381	382	16.3	60.5
2025-09-16T00:48	10	0	0.1	0	0	381	0.3	381	382	16.3	60.3
2025-09-16T00:49	10	0	0.1	0	0	381	0.4	380	382	16.3	60.6
2025-09-16T00:50	10	0	0.1	0	0	381	0.5	380	382	16.2	60.8
2025-09-16T00:51	10	0	0.1	0	0	380	0.3	380	381	16.2	61.0
2025-09-16T00:52	10	0	0.1	0	0	380	0.4	379	381	16.1	61.0
2025-09-16T00:53	10	0	0.1	0	0	381	0.3	380	381	16.2	60.2
2025-09-16T00:54	10	0	0.1	0	0	380	0.5	378	381	16.1	61.0
2025-09-16T00:55	10	0	0.1	0	0	380	0.5	379	381	16.2	60.1
2025-09-16T00:56	10	0	0.1	0	0	380	0.4	379	381	16.2	60.2
2025-09-16T00:57	10	0	0.2	0	0	379	0.4	378	380	16.0	60.9
2025-09-16T00:58	10	0	0.1	0	0	379	0.4	378	380	16.0	60.8
2025-09-16T00:59	10	0	0.1	0	0	379	0.3	378	379	16.0	61.1
2025-09-16T01:00	10	0	0.1	0	0	379	0.3	378	379	16.0	61.1
2025-09-16T01:01	10	0	0.1	0	0	378	0.3	377	379	16.0	60.8
2025-09-16T01:02	10	0	0.1	0	0	377	0.5	376	378	15.9	61.4
2025-09-16T01:03	10	0	0.1	0	0	377	0.4	377	378	15.9	60.9
2025-09-16T01:04	10	0	0.1	0	0	377	0.3	377	378	15.9	60.8
2025-09-16T01:05	10	0	0.1	0	0	378	0.7	377	379	15.9	60.4
2025-09-16T01:06	10	0	0.1	0	0	378	0.2	378	379	15.9	59.8
2025-09-16T01:07	10	0	0.1	0	0	379	0.2	378	379	16.1	58.8
2025-09-16T01:08	10	0	0.1	0	0	378	0.4	377	379	16.0	59.4
2025-09-16T01:09	10	0	0.1	0	0	378	0.4	377	379	16.0	59.3
2025-09-16T01:10	10	0	0.1	0	0	377	0.3	376	378	15.8	60.4
2025-09-16T01:11	10	0	0.1	0	0	377	0.3	376	378	15.8	60.2
2025-09-16T01:12	10	0	0.1	0	0	377	0.3	376	378	15.8	60.1
2025-09-16T01:13	10	0	0.1	0	0	378	0.5	377	379	16.0	59.1
2025-09-16T01:14	10	0	0.1	0	0	378	0.3	377	379	16.0	58.8
2025-09-16T01:15	10	0	0.0	0	0	377	0.4	376	378	15.9	59.4
2025-09-16T01:16	10	0	0.1	0	0	377	0.4	376	378	15.8	60.5
2025-09-16T01:17	10	0	0.1	0	0	377	0.3	376	378	15.8	60.4
2025-09-16T01:18	10	0	0.1	0	0	377	0.3	376	377	15.7	60.7
2025-09-16T01:19	10	0	0.1	0	0	376	0.3	376	377	15.7	60.8
2025-09-16T01:20	10	0	0.1	0	0	377	0.2	376	377	15.7	60.7
2025-09-16T01:21	10	0	0.1	0	0	377	0.3	376	378	15.7	60.6
2025-09-16T01:22	10	0	0.1	0	0	377	0.3	376	378	15.7	60.5
2025-09-16T01:23	10	0	0.1	0	0	377	0.4	377	378	15.7	60.3
2025-09-16T01:24	10	0	0.1	0	0	378	0.5	378	379	15.9	58.3
2025-09-16T01:25	10	0	0.1	0	0	379	0.3	378	379	16.0	57.5
2025-09-16T01:26	10	0	0.1	0	0	379	0.3	378	379	16.0	57.7
2025-09-16T01:27	10	0	0.1	0	0	378	0.4	378	379	16.0	58.0
2025-09-16T01:28	10	0	0.1	0	0	379	0.3	378	380	16.0	57.8
2025-09-16T01:29	10	0	0.0	0	0	379	0.3	378	379	16.0	57.9
2025-09-16T01:30	10	0	0.1	0	0	378	0.3	378	379	16.0	57.8
2025-09-16T01:31	10	0	0.1	0	0	378	0.2	378	379	16.0	57.7
2025-09-16T01:32	10	0	0.1	0	0	378	0.2	378	379	15.9	58.4
2025-09-16T01:33	10	0	0.1	0	0	377	0.5	377	379	15.9	58.5
2025-09-16T01:34	10	0	0.1	0	0	378	0.3	377	378	15.8	59.1
2025-09-16T01:35	10	0	0.1	0	0	378	0.4	377	379	15.8	58.9
2025-09-16T01:36	10	0	0.0	0	0	378	0.3	377	379	15.9	58.3
2025-09-16T01:37	10	0	0.1	0	0	378	0.4	377	379	15.9	58.7
2025-09-16T01:38	10	0	0.1	0	0	377	0.3	376	377	15.8	59.3
2025-09-16T01:39	10	0	0.1	0	0	377	0.4	376	378	15.8	58.7
2025-09-16T01:40	10	0	0.1	0	0	377	0.2	376	377	15.8	58.9
2025-09-16T01:41	10	0	0.1	0	0	377	0.6	376	378	15.7	59.1
2025-09-16T01:42	10	0	0.1	0	0	377	0.2	376	377	15.7	59.1
2025-09-16T01:43	10	0	0.1	0	0	377	0.5	376	378	15.7	59.1
2025-09-16T01:44	10	0	0.1	0	0	377	0.5	376	378	15.8	58.9
2025-09-16T01:45	10	0	0.1	0	0	376	0.2	376	377	15.7	59.1
2025-09-16T01:46	10	0	0.1	0	0	377	0.5	375	377	15.7	58.9
2025-09-16T01:47	10	0	0.1	0	0	377	0.4	376	378	15.7	59.2
2025-09-16T01:48	10	0	0.1	0	0	377	0.2	377	378	15.8	58.7
2025-09-16T01:49	10	0	0.1	0	0	377	0.3	377	378	15.8	58.5
2025-09-16T01:50	10	0	0.1	0	0	376	0.5	375	377	15.7	59.3
2025-09-16T01:51	10	0	0.0	0	0	376	0.4	376	377	15.7	59.3
2025-09-16T01:52	10	0	0.1	0	0	377	0.6	376	378	15.9	58.4
2025-09-16T01:53	10	0	0.1	0	0	377	0.4	376	378	15.8	59.0
2025-09-16T01:54	10	0	0.1	0	0	377	0.4	376	378	15.8	58.7
2025-09-16T01:55	10	0	0.1	0	0	377	0.2	376	377	15.7	59.6
2025-09-16T01:56	10	0	0.1	0	0	377	0.3	376	377	15.6	60.1
2025-09-16T01:57	10	0	0.1	0	0	376	0.4	375	377	15.5	61.0
2025-09-16T01:58	10	0	0.1	0	0	375	0.4	374	376	15.5	60.9
2025-09-16T01:59	10	0	0.1	0	0	376	0.2	375	376	15.6	60.3
2025-09-16T02:00	10	0	0.1	0	0	377	0.6	375	378	15.6	60.0
2025-09-16T02:01	10	0	0.1	0	0	377	0.3	377	378	15.8	58.9
2025-09-16T02:02	10	0	0.1	0	0	377	0.3	376	377	15.7	59.5
2025-09-16T02:03	10	0	0.1	0	0	376	0.3	376	377	15.6	59.9
2025-09-16T02:04	10	0	0.1	0	0	376	0.3	376	377	15.7	59.5
2025-09-16T02:05	10	0	0.1	0	0	376	0.3	376	377	15.6	60.2
2025-09-16T02:06	10	0	0.1	0	0	377	0.4	376	378	15.6	60.3
2025-09-16T02:07	10	0	0.1	0	0	377	0.3	376	378	15.6	60.1
2025-09-16T02:08	10	0	0.1	0	0	376	0.2	375	377	15.5	60.8
2025-09-16T02:09	10	0	0.1	0	0	376	0.3	375	377	15.5	60.3
2025-09-16T02:10	10	0	0.1	0	0	375	0.3	375	376	15.5	61.0
2025-09-16T02:11	10	0	0.1	0	0	376	0.2	375	376	15.5	60.6
2025-09-16T02:12	10	0	0.1	0	0	375	0.3	374	376	15.4	61.5
2025-09-16T02:13	10	0	0.1	0	0	375	0.3	374	375	15.3	61.7
2025-09-16T02:14	10	0	0.1	0	0	375	0.3	374	376	15.3	61.5
2025-09-16T02:15	10	0	0.1	0	0	375	0.3	374	376	15.3	61.8
2025-09-16T02:16	10	0	0.1	0	0	374	0.4	374	375	15.2	62.0
2025-09-16T02:17	10	0	0.1	0	0	375	0.5	374	376	15.2	62.1
2025-09-16T02:18	10	0	0.1	0	0	376	0.3	375	376	15.3	61.4
2025-09-16T02:19	10	0	0.2	0	0	375	0.2	374	375	15.2	62.1
2025-09-16T02:20	10	0	0.1	0	0	374	0.4	373	375	15.1	62.7
2025-09-16T02:21	10	0	0.2	0	0	373	0.5	372	374	15.1	63.2
2025-09-16T02:22	10	0	0.2	0	0	375	0.5	374	376	15.1	62.8
2025-09-16T02:23	10	0	0.1	0	0	375	0.2	375	376	15.1	63.0
2025-09-16T02:24	10	0	0.2	0	1	375	0.3	374	376	15.1	62.8
2025-09-16T02:25	10	0	0.1	0	0	375	0.2	374	375	15.1	63.5
2025-09-16T02:26	10	0	0.2	0	0	374	0.4	374	375	15.1	63.4
2025-09-16T02:27	10	0	0.1	0	0	375	0.2	375	376	15.1	62.7
2025-09-16T02:28	10	0	0.1	0	0	376	0.3	375	376	15.1	62.6
2025-09-16T02:29	10	0	0.1	0	0	375	0.4	375	376	15.1	62.9
2025-09-16T02:30	10	0	0.1	0	0	375	0.3	375	376	15.1	62.4
2025-09-16T02:31	10	0	0.1	0	0	375	0.2	375	376	15.1	62.4
2025-09-16T02:32	10	0	0.1	0	0	375	0.3	374	375	15.1	61.9
2025-09-16T02:33	10	0	0.1	0	0	375	0.3	374	376	15.1	62.0
2025-09-16T02:34	10	0	0.1	0	0	375	0.2	374	375	15.1	62.0
2025-09-16T02:35	10	0	0.1	0	1	375	0.2	375	375	15.0	62.1
2025-09-16T02:36	10	0	0.1	0	0	374	0.3	374	375	15.1	61.8
2025-09-16T02:37	10	0	0.1	0	0	374	0.3	373	375	15.0	62.5
2025-09-16T02:38	10	0	0.1	0	0	375	0.3	374	375	15.0	61.8
2025-09-16T02:39	10	0	0.2	0	0	374	0.5	373	375	14.9	62.4
2025-09-16T02:40	10	0	0.1	0	0	374	0.3	373	374	14.9	62.4
2025-09-16T02:41	10	0	0.1	0	0	373	0.4	372	373	14.9	62.8
2025-09-16T02:42	10	0	0.1	0	0	372	0.4	372	373	14.8	62.8
2025-09-16T02:43	10	0	0.1	0	0	373	0.3	372	373	14.8	63.1
2025-09-16T02:44	10	0	0.2	0	1	373	0.4	372	374	14.8	63.3
2025-09-16T02:45	10	0	0.2	0	0	372	0.2	371	372	14.7	63.5
2025-09-16T02:46	10	0	0.2	0	0	372	0.3	371	372	14.7	63.3
2025-09-16T02:47	10	0	0.2	0	1	371	0.3	371	372	14.7	63.5
2025-09-16T02:48	10	0	0.2	0	1	371	0.6	370	373	14.7	63.4
2025-09-16T02:49	10	0	0.2	0	0	372	0.3	372	373	14.8	62.5
2025-09-16T02:50	10	0	0.1	0	0	372	0.4	371	373	14.8	62.5
2025-09-16T02:51	10	0	0.1	0	0	372	0.3	372	373	14.7	62.9
2025-09-16T02:52	10	0	0.1	0	0	373	0.3	372	373	14.7	62.8
2025-09-16T02:53	10	0	0.2	0	1	372	0.3	371	372	14.7	63.2
2025-09-16T02:54	10	0	0.1	0	0	372	0.5	371	373	14.6	63.3
2025-09-16T02:55	10	0	0.2	0	1	372	0.3	371	372	14.6	63.5
2025-09-16T02:56	10	0	0.2	0	0	371	0.2	371	372	14.6	63.8
2025-09-16T02:57	10	0	0.1	0	0	371	0.3	370	371	14.6	63.6
2025-09-16T02:58	10	0	0.1	0	1	371	0.3	371	372	14.6	63.5
2025-09-16T02:59	10	0	0.1	0	0	371	0.2	371	371	14.5	64.2
2025-09-16T03:00	10	0	0.2	0	1	371	0.3	370	372	14.5	64.0
2025-09-16T03:01	10	0	0.1	0	0	372	0.5	371	373	14.5	63.9
2025-09-16T03:02	10	0	0.1	0	0	372	0.3	371	373	14.4	64.6
2025-09-16T03:03	10	0	0.1	0	0	372	0.3	371	372	14.5	64.1
2025-09-16T03:04	10	0	0.1	0	0	372	0.3	372	373	14.5	63.9
2025-09-16T03:05	10	0	0.1	0	0	372	0.2	372	373	14.4	64.4
2025-09-16T03:06	10	0	0.1	0	0	372	0.4	371	373	14.4	64.3
2025-09-16T03:07	10	0	0.1	0	0	372	0.2	372	373	14.4	64.6
2025-09-16T03:08	10	0	0.1	0	0	373	0.4	372	374	14.3	65.3
2025-09-16T03:09	10	0	0.1	0	0	373	0.3	373	374	14.3	64.9
2025-09-16T03:10	10	0	0.1	0	1	374	0.3	374	375	14.3	64.8
2025-09-16T03:11	10	0	0.1	0	0	375	0.2	374	375	14.3	64.8
2025-09-16T03:12	10	0	0.1	0	0	375	0.5	374	376	14.3	64.9
2025-09-16T03:13	10	0	0.1	0	0	376	0.2	375	376	14.5	63.4
2025-09-16T03:14	10	0	0.1	0	0	375	0.3	375	376	14.4	64.9
2025-09-16T03:15	10	0	0.2	0	1	376	0.3	375	376	14.4	64.1
2025-09-16T03:16	10	0	0.1	0	0	376	0.2	375	376	14.5	63.8
2025-09-16T03:17	10	0	0.1	0	0	376	0.2	375	376	14.4	64.3
2025-09-16T03:18	10	0	0.1	0	0	376	0.2	375	376	14.4	63.8
2025-09-16T03:19	10	0	0.1	0	1	376	0.3	375	376	14.5	63.7
2025-09-16T03:20	10	0	0.1	0	1	376	0.2	376	376	14.4	64.6
2025-09-16T03:21	10	0	0.1	0	0	376	0.2	375	377	14.4	64.2
2025-09-16T03:22	10	0	0.1	0	0	376	0.3	376	377	14.4	64.1
2025-09-16T03:23	10	0	0.1	0	1	376	0.2	376	377	14.4	63.8
2025-09-16T03:24	10	0	0.1	0	0	376	0.3	376	377	14.4	63.9
2025-09-16T03:25	10	0	0.2	0	1	376	0.3	376	377	14.4	64.0
2025-09-16T03:26	10	0	0.1	0	0	376	0.2	376	377	14.4	63.9
2025-09-16T03:27	10	0	0.1	0	0	376	0.2	375	376	14.4	64.0
2025-09-16T03:28	10	0	0.1	0	1	375	0.2	375	376	14.4	64.6
2025-09-16T03:29	10	0	0.1	0	0	375	0.2	375	376	14.4	64.5
2025-09-16T03:30	10	0	0.1	0	0	376	0.2	375	376	14.3	65.3
2025-09-16T03:31	10	0	0.1	0	0	375	0.2	375	376	14.3	65.5
2025-09-16T03:32	10	0	0.1	0	0	375	0.2	375	376	14.2	65.6
2025-09-16T03:33	10	0	0.1	0	0	375	0.3	375	376	14.3	65.3
2025-09-16T03:34	10	0	0.1	0	0	376	0.2	375	376	14.3	64.7
2025-09-16T03:35	10	0	0.1	0	0	375	0.2	375	376	14.3	65.2
2025-09-16T03:36	10	0	0.1	0	0	375	0.2	375	376	14.2	66.0
2025-09-16T03:37	10	0	0.1	0	0	375	0.2	375	376	14.2	65.8
2025-09-16T03:38	10	0	0.1	0	0	375	0.2	375	376	14.2	65.6
2025-09-16T03:39	10	0	0.1	0	0	375	0.2	375	376	14.2	66.2
2025-09-16T03:40	10	0	0.1	0	0	376	0.3	375	376	14.1	66.5
2025-09-16T03:41	10	0	0.1	0	0	376	0.2	375	376	14.2	65.5
2025-09-16T03:42	10	0	0.1	0	0	376	0.2	376	376	14.2	66.0
2025-09-16T03:43	10	0	0.1	0	0	376	0.2	375	376	14.2	65.5
2025-09-16T03:44	10	0	0.1	0	0	376	0.2	376	377	14.2	65.2
2025-09-16T03:45	10	0	0.2	0	1	376	0.2	376	377	14.3	65.0
2025-09-16T03:46	10	0	0.1	0	0	376	0.2	376	377	14.3	65.3
2025-09-16T03:47	10	0	0.2	0	1	376	0.2	375	377	14.2	65.8
2025-09-16T03:48	10	0	0.1	0	0	376	0.3	375	376	14.2	66.6
2025-09-16T03:49	10	0	0.1	0	1	376	0.3	375	377	14.2	66.6
2025-09-16T03:50	10	0	0.1	0	0	376	0.3	375	376	14.1	66.5
2025-09-16T03:51	10	0	0.1	0	0	376	0.3	375	377	14.1	66.6
2025-09-16T03:52	10	0	0.2	0	0	376	0.3	375	377	14.1	66.5
2025-09-16T03:53	10	0	0.1	0	0	376	0.3	375	376	14.2	66.1
2025-09-16T03:54	10	0	0.1	0	1	376	0.3	376	377	14.3	64.7
2025-09-16T03:55	10	0	0.1	0	1	376	0.2	376	377	14.2	65.8
2025-09-16T03:56	10	0	0.1	0	0	376	0.3	375	377	14.2	66.4
2025-09-16T03:57	10	0	0.1	0	0	376	0.3	376	377	14.2	65.8
2025-09-16T03:58	10	0	0.2	0	0	376	0.3	376	377	14.3	65.2
2025-09-16T03:59	10	0	0.2	0	1	376	0.2	376	377	14.2	65.8
2025-09-16T04:00	10	0	0.2	0	1	376	0.2	375	377	14.2	65.8
2025-09-16T04:01	10	0	0.1	0	0	376	0.2	375	376	14.2	66.2
2025-09-16T04:02	10	0	0.1	0	0	376	0.2	375	376	14.2	66.3
2025-09-16T04:03	10	0	0.1	0	0	376	0.3	375	377	14.2	65.7
2025-09-16T04:04	10	0	0.1	0	0	376	0.2	375	376	14.3	65.2
2025-09-16T04:05	10	0	0.2	0	1	376	0.2	375	376	14.2	66.0
2025-09-16T04:06	10	0	0.2	0	0	375	0.2	375	376	14.2	66.1
2025-09-16T04:07	10	0	0.1	0	0	375	0.4	375	376	14.2	66.1
2025-09-16T04:08	10	0	0.1	0	0	375	0.2	375	376	14.2	66.1
2025-09-16T04:09	10	0	0.1	0	0	375	0.2	374	376	14.1	67.4
2025-09-16T04:10	10	0	0.2	0	1	375	0.2	375	376	14.1	67.4
2025-09-16T04:11	10	0	0.1	0	0	375	0.3	374	376	14.0	68.2
2025-09-16T04:12	10	0	0.1	0	0	376	0.3	375	376	14.1	67.3
2025-09-16T04:13	10	0	0.1	0	1	375	0.2	375	376	14.1	67.1
2025-09-16T04:14	10	0	0.1	0	0	375	0.2	375	376	14.1	67.3
2025-09-16T04:15	10	0	0.1	0	1	376	0.3	375	376	14.1	67.2
2025-09-16T04:16	10	0	0.1	0	0	375	0.2	375	376	14.1	67.1
2025-09-16T04:17	10	0	0.1	0	0	375	0.3	374	376	14.0	68.3
2025-09-16T04:18	10	0	0.1	0	1	375	0.2	374	375	14.0	68.5
2025-09-16T04:19	10	0	0.1	0	0	375	0.2	375	375	14.0	67.7
2025-09-16T04:20	10	0	0.1	0	0	374	0.3	374	375	14.0	68.1
2025-09-16T04:21	10	0	0.1	0	0	375	0.2	374	375	14.0	67.9
2025-09-16T04:22	10	0	0.1	0	0	375	0.2	374	375	14.0	68.0
2025-09-16T04:23	10	0	0.1	0	0	375	0.2	374	375	14.0	68.1
2025-09-16T04:24	10	0	0.1	0	0	375	0.4	374	376	14.0	68.0
2025-09-16T04:25	10	0	0.1	0	0	375	0.2	375	376	14.0	67.1
2025-09-16T04:26	10	0	0.1	0	0	375	0.2	375	376	14.1	67.2
2025-09-16T04:27	10	0	0.1	0	0	375	0.3	375	376	14.0	68.2
2025-09-16T04:28	10	0	0.1	0	0	375	0.2	375	376	14.0	66.8
2025-09-16T04:29	10	0	0.1	0	1	375	0.3	375	376	14.1	67.2
2025-09-16T04:30	10	0	0.1	0	0	375	0.3	375	376	14.0	67.9
2025-09-16T04:31	10	0	0.1	0	0	375	0.2	374	375	13.9	68.9
2025-09-16T04:32	10	0	0.1	0	0	375	0.2	375	375	13.9	69.2
2025-09-16T04:33	10	0	0.0	0	0	375	0.2	374	375	13.9	68.5
2025-09-16T04:34	10	0	0.1	0	0	375	0.2	374	375	13.8	69.3
2025-09-16T04:35	10	0	0.0	0	0	375	0.2	375	376	13.9	67.9
2025-09-16T04:36	10	0	0.0	0	0	375	0.3	375	376	14.0	67.0
2025-09-16T04:37	10	0	0.1	0	0	375	0.2	375	376	14.0	66.7
2025-09-16T04:38	10	0	0.0	0	0	375	0.2	374	376	14.0	67.6
2025-09-16T04:39	10	0	0.0	0	0	375	0.2	374	375	13.9	67.9
2025-09-16T04:40	10	0	0.1	0	0	375	0.2	374	375	13.9	68.3
2025-09-16T04:41	10	0	0.0	0	0	375	0.2	374	375	13.9	68.1
2025-09-16T04:42	10	0	0.0	0	0	375	0.2	374	375	13.9	68.4
2025-09-16T04:43	10	0	0.0	0	0	375	0.2	374	375	13.9	68.1
2025-09-16T04:44	10	0	0.0	0	0	375	0.2	374	375	13.9	68.0
2025-09-16T04:45	10	0	0.0	0	0	375	0.2	374	375	13.9	68.2
2025-09-16T04:46	10	0	0.0	0	0	375	0.2	374	375	13.9	68.0
2025-09-16T04:47	10	0	0.0	0	0	375	0.3	374	375	13.9	68.3
2025-09-16T04:48	10	0	0.0	0	0	375	0.2	374	375	13.9	68.5
2025-09-16T04:49	10	0	0.0	0	0	374	0.2	374	375	13.8	68.6
2025-09-16T04:50	10	0	0.0	0	0	374	0.2	374	375	13.8	68.8
2025-09-16T04:51	10	0	0.0	0	0	374	0.2	374	375	13.8	68.5
2025-09-16T04:52	10	0	0.0	0	0	374	0.2	374	375	13.9	68.1
2025-09-16T04:53	10	0	0.1	0	0	374	0.2	374	375	13.9	68.3
2025-09-16T04:54	10	0	0.0	0	0	374	0.2	374	375	13.9	68.1
2025-09-16T04:55	10	0	0.1	0	0	374	0.2	374	375	13.8	68.2
2025-09-16T04:56	10	0	0.0	0	0	374	0.2	374	375	13.8	68.1
2025-09-16T04:57	10	0	0.0	0	0	375	0.2	374	375	13.9	67.0
2025-09-16T04:58	10	0	0.1	0	0	374	0.2	374	375	13.9	67.7
2025-09-16T04:59	10	0	0.1	0	0	374	0.3	374	375	13.8	68.6
2025-09-16T05:00	10	0	0.1	0	0	374	0.2	374	375	13.8	68.5
2025-09-16T05:01	10	0	0.1	0	0	374	0.2	374	375	13.8	67.9
2025-09-16T05:02	10	0	0.0	0	0	374	0.2	374	375	13.8	69.1
2025-09-16T05:03	10	0	0.1	0	0	374	0.2	373	374	13.7	69.3
2025-09-16T05:04	10	1	0.1	0	1	374	0.2	374	375	13.8	68.4
2025-09-16T05:05	10	1	0.1	0	1	374	0.2	374	375	13.9	67.6
2025-09-16T05:06	10	1	0.1	0	1	375	0.2	374	375	13.8	68.2
2025-09-16T05:07	10	0	0.1	0	1	375	0.2	374	375	13.9	67.1
2025-09-16T05:08	10	0	0.1	0	1	375	0.3	374	376	13.9	66.1
2025-09-16T05:09	10	1	0.1	0	1	375	0.3	374	375	13.9	66.4
2025-09-16T05:10	10	1	0.1	1	1	375	0.2	374	375	13.9	67.7
2025-09-16T05:11	10	1	0.1	1	1	375	0.3	374	375	13.8	67.9
2025-09-16T05:12	10	1	0.1	1	1	375	0.2	375	375	13.8	67.5
2025-09-16T05:13	10	1	0.1	1	1	375	0.3	374	375	13.8	67.8
2025-09-16T05:14	10	1	0.1	1	1	374	0.2	374	375	13.8	68.7
2025-09-16T05:15	10	1	0.1	1	1	374	0.2	374	375	13.8	68.4
2025-09-16T05:16	10	1	0.1	1	1	374	0.2	374	375	13.8	68.4
2025-09-16T05:17	10	1	0.1	1	1	374	0.2	374	375	13.8	67.7
2025-09-16T05:18	10	1	0.1	1	1	374	0.3	374	375	13.8	68.1
2025-09-16T05:19	10	1	0.0	1	2	374	0.2	374	374	13.7	69.5
2025-09-16T05:20	10	2	0.1	1	2	374	0.2	373	374	13.7	68.9
2025-09-16T05:21	10	2	0.1	2	2	374	0.3	373	375	13.8	67.2
2025-09-16T05:22	10	2	0.1	2	2	373	0.2	373	374	13.8	67.8
2025-09-16T05:23	10	2	0.1	2	2	373	0.2	373	374	13.8	67.7
2025-09-16T05:24	10	2	0.1	2	3	373	0.3	373	374	13.8	68.2
2025-09-16T05:25	10	3	0.1	2	3	373	0.3	372	374	13.8	68.2
2025-09-16T05:26	10	3	0.1	2	3	373	0.3	372	374	13.8	67.5
2025-09-16T05:27	10	3	0.1	3	3	373	0.2	372	373	13.8	67.1
2025-09-16T05:28	10	3	0.1	3	3	373	0.2	372	373	13.8	67.1
2025-09-16T05:29	10	4	0.1	3	4	372	0.2	372	373	13.8	67.6
2025-09-16T05:30	10	4	0.1	4	4	373	0.2	372	373	13.8	68.4
2025-09-16T05:31	10	4	0.1	4	4	373	0.2	372	373	13.8	67.7
2025-09-16T05:32	10	4	0.1	4	4	373	0.2	373	373	13.8	67.7
2025-09-16T05:33	10	4	0.1	4	5	373	0.3	373	374	13.7	68.5
2025-09-16T05:34	10	5	0.1	4	5	374	0.2	373	374	13.7	68.0
2025-09-16T05:35	10	5	0.1	5	5	374	0.2	373	374	13.7	68.4
2025-09-16T05:36	10	5	0.1	5	6	373	0.2	373	374	13.6	69.5
2025-09-16T05:37	10	6	0.1	6	6	373	0.3	373	374	13.6	69.3
2025-09-16T05:38	10	6	0.1	6	6	373	0.2	373	374	13.7	68.7
2025-09-16T05:39	10	6	0.1	6	6	373	0.3	373	374	13.6	70.2
2025-09-16T05:40	10	6	0.1	6	6	373	0.2	373	374	13.6	68.7
2025-09-16T05:41	10	5	0.3	5	6	373	0.2	373	374	13.7	67.7
2025-09-16T05:42	10	5	0.1	4	5	373	0.2	372	373	13.7	68.3
2025-09-16T05:43	10	5	0.3	5	6	373	0.2	372	373	13.7	68.2
2025-09-16T05:44	10	6	0.2	6	6	373	0.2	372	373	13.7	68.5
2025-09-16T05:45	10	7	0.1	7	7	372	0.2	372	373	13.7	69.1
2025-09-16T05:46	10	7	0.1	7	7	372	0.2	372	372	13.6	68.9
2025-09-16T05:47	10	7	0.1	7	7	371	0.4	371	372	13.6	69.5
2025-09-16T05:48	10	7	0.1	7	7	370	0.3	370	371	13.5	70.6
2025-09-16T05:49	10	7	0.2	7	7	370	0.2	369	370	13.6	69.6
2025-09-16T05:50	10	6	0.2	6	7	369	0.2	368	370	13.6	68.6
2025-09-16T05:51	10	6	0.1	6	6	368	0.2	368	369	13.6	68.3
2025-09-16T05:52	10	6	0.2	6	6	368	0.2	367	368	13.6	68.4
2025-09-16T05:53	10	8	0.7	6	8	367	0.3	366	368	13.6	69.2
2025-09-16T05:54	10	8	0.5	8	9	367	0.3	366	367	13.5	69.6
2025-09-16T05:55	10	7	0.3	7	8	367	0.2	366	367	13.4	69.8
2025-09-16T05:56	10	7	0.9	7	10	367	0.3	366	368	13.5	68.8
2025-09-16T05:57	10	12	2.5	9	17	367	0.4	367	368	13.5	68.2
2025-09-16T05:58	10	14	1.1	11	16	368	0.3	367	368	13.6	67.6
2025-09-16T05:59	10	11	1.2	8	13	368	0.4	367	368	13.6	67.7
2025-09-16T06:00	10	14	4.1	9	19	368	0.5	367	369	13.6	67.9
2025-09-16T06:01	10	14	4.9	8	20	368	0.5	367	369	13.6	67.7
2025-09-16T06:02	10	9	1.0	8	11	368	0.2	368	369	13.6	67.7
2025-09-16T06:03	10	8	0.1	8	8	368	0.2	368	369	13.6	67.8
2025-09-16T06:04	10	8	0.4	8	9	369	0.3	368	369	13.6	66.8
2025-09-16T06:05	10	8	0.4	7	9	368	0.3	368	369	13.7	66.6
2025-09-16T06:06	10	7	0.1	7	7	368	0.3	367	369	13.6	67.1
2025-09-16T06:07	10	7	0.1	7	7	368	0.2	367	369	13.6	66.7
2025-09-16T06:08	10	7	0.2	7	7	368	0.2	368	369	13.6	66.8
2025-09-16T06:09	10	8	0.2	7	8	368	0.2	368	369	13.6	67.4
2025-09-16T06:10	10	10	2.1	8	14	368	0.3	367	369	13.6	67.0
2025-09-16T06:11	10	9	0.5	9	10	368	0.3	368	369	13.6	66.8
2025-09-16T06:12	10	9	0.2	9	10	368	0.2	368	369	13.6	66.8
2025-09-16T06:13	10	10	0.4	10	11	368	0.2	368	368	13.5	67.6
2025-09-16T06:14	10	12	0.4	11	12	368	0.3	368	369	13.4	68.2
2025-09-16T06:15	10	12	0.1	12	13	369	0.3	368	369	13.4	67.7
2025-09-16T06:16	10	12	0.1	12	12	369	0.3	369	370	13.5	67.2
2025-09-16T06:17	10	14	3.2	11	21	370	0.4	369	371	13.6	66.1
2025-09-16T06:18	10	12	1.1	11	14	370	0.3	369	370	13.6	66.8
2025-09-16T06:19	10	13	2.3	11	19	369	0.2	369	369	13.5	67.9
2025-09-16T06:20	10	11	1.4	10	15	369	0.2	368	369	13.5	67.8
2025-09-16T06:21	10	12	1.9	10	15	369	0.2	368	369	13.5	67.0
2025-09-16T06:22	10	10	0.2	10	11	369	0.3	368	370	13.5	67.2
2025-09-16T06:23	10	11	0.2	10	11	369	0.2	369	369	13.5	67.3
2025-09-16T06:24	10	11	0.2	11	12	369	0.2	368	369	13.5	67.7
2025-09-16T06:25	10	12	0.1	12	12	369	0.2	368	369	13.4	68.0
2025-09-16T06:26	10	13	0.2	12	13	369	0.3	368	369	13.4	68.1
2025-09-16T06:27	10	13	0.2	13	14	369	0.2	369	370	13.4	67.9
2025-09-16T06:28	10	14	0.2	14	14	369	0.3	369	370	13.5	67.5
2025-09-16T06:29	10	15	0.1	14	15	370	0.2	369	370	13.4	68.0
2025-09-16T06:30	10	15	0.5	15	17	370	0.3	369	371	13.4	68.4
2025-09-16T06:31	10	18	0.9	16	19	371	0.4	370	372	13.4	67.8
2025-09-16T06:32	10	21	0.8	19	22	372	0.4	371	373	13.5	67.9
2025-09-16T06:33	10	23	0.4	22	23	373	0.5	372	374	13.4	68.0
2025-09-16T06:34	10	24	0.4	23	25	374	0.4	374	375	13.5	67.8
2025-09-16T06:35	10	25	0.4	25	26	376	0.3	375	376	13.5	67.7
2025-09-16T06:36	10	27	0.7	26	29	377	0.4	375	377	13.5	68.7
2025-09-16T06:37	10	29	0.4	29	30	378	0.4	377	378	13.4	69.1
2025-09-16T06:38	10	31	0.5	30	32	379	0.5	378	379	13.4	68.6
2025-09-16T06:39	10	32	0.4	32	33	380	0.4	379	380	13.5	68.0
2025-09-16T06:40	10	33	0.2	33	34	380	0.2	380	381	13.5	68.9
2025-09-16T06:41	10	33	0.3	33	33	381	0.3	380	381	13.5	69.1
2025-09-16T06:42	10	33	0.6	33	34	381	0.4	381	382	13.5	69.9
2025-09-16T06:43	10	34	0.1	34	34	382	0.3	381	382	13.6	68.8
2025-09-16T06:44	10	34	0.1	34	35	382	0.2	381	382	13.6	68.8
2025-09-16T06:45	10	34	0.4	33	34	382	0.4	381	383	13.6	68.7
2025-09-16T06:46	10	32	0.3	32	33	381	0.2	381	382	13.7	69.3
2025-09-16T06:47	10	32	0.1	32	32	382	0.2	381	382	13.7	68.7
2025-09-16T06:48	10	33	0.6	32	34	382	0.3	381	382	13.8	67.9
2025-09-16T06:49	10	34	0.4	33	34	382	0.2	381	382	13.9	67.1
2025-09-16T06:50	10	32	0.4	31	33	382	0.4	381	383	13.9	67.8
2025-09-16T06:51	10	31	0.2	31	32	381	0.3	381	382	14.0	65.7
2025-09-16T06:52	10	31	0.4	30	31	381	0.2	381	382	14.0	66.7
2025-09-16T06:53	10	28	0.9	27	30	381	0.2	381	382	14.0	66.9
2025-09-16T06:54	10	25	0.8	24	27	381	0.4	380	382	14.0	67.0
2025-09-16T06:55	10	23	0.4	22	24	380	0.6	379	381	14.0	66.9
2025-09-16T06:56	10	24	1.1	22	26	380	0.3	379	380	14.0	66.8
2025-09-16T06:57	10	28	1.0	26	29	381	0.4	380	381	14.0	67.8
2025-09-16T06:58	10	29	0.4	29	30	381	0.2	381	382	14.0	68.0
2025-09-16T06:59	10	31	0.2	30	31	381	0.3	380	382	14.0	66.4
2025-09-16T07:00	10	30	0.5	29	30	381	0.3	380	381	14.0	66.9
2025-09-16T07:01	10	28	0.2	28	29	380	0.5	379	381	14.0	66.6
2025-09-16T07:02	10	30	0.9	28	31	380	0.3	379	380	14.0	66.1
2025-09-16T07:03	10	33	0.9	31	34	380	0.4	379	381	14.0	65.4
2025-09-16T07:04	10	36	0.9	34	38	381	0.2	380	381	14.0	65.6
2025-09-16T07:05	10	40	1.3	38	42	381	0.5	381	382	14.0	65.9
2025-09-16T07:06	10	43	0.6	42	44	383	0.5	382	384	14.0	66.4
2025-09-16T07:07	10	46	1.1	44	48	384	0.3	383	384	14.0	66.9
2025-09-16T07:08	10	49	1.0	48	51	385	0.3	384	385	14.1	67.4
2025-09-16T07:09	10	51	0.4	51	52	386	0.2	385	386	14.1	65.7
2025-09-16T07:10	10	52	1.2	50	54	386	0.4	385	387	14.1	66.7
2025-09-16T07:11	10	49	0.5	49	51	387	0.3	386	387	14.1	66.3
2025-09-16T07:12	10	49	0.1	48	49	387	0.2	386	387	14.1	66.0
2025-09-16T07:13	10	47	0.9	45	48	387	0.2	387	388	14.2	66.8
2025-09-16T07:14	10	46	3.9	43	57	387	0.3	387	388	14.2	66.5
2025-09-16T07:15	10	39	2.2	36	46	387	0.5	386	388	14.2	65.9
2025-09-16T07:16	10	37	1.7	34	40	386	0.3	385	387	14.2	65.4
2025-09-16T07:17	10	31	1.1	30	34	385	0.5	384	386	14.2	67.1
2025-09-16T07:18	10	30	0.2	29	30	384	0.4	384	385	14.3	67.8
2025-09-16T07:19	10	30	0.2	30	30	384	0.3	383	385	14.3	66.9
2025-09-16T07:20	10	30	0.2	30	31	383	0.2	382	383	14.3	67.4
2025-09-16T07:21	10	32	1.1	31	34	382	0.4	382	383	14.3	66.0
2025-09-16T07:22	10	36	2.0	34	41	382	0.2	382	383	14.3	65.8
2025-09-16T07:23	10	39	1.1	37	41	383	0.3	382	383	14.2	65.6
2025-09-16T07:24	10	42	1.6	40	46	384	0.3	383	384	14.3	66.8
2025-09-16T07:25	10	67	16.5	43	93	385	1.7	383	388	14.3	65.2
2025-09-16T07:26	10	74	18.8	53	101	388	1.5	386	390	14.3	65.3
2025-09-16T07:27	10	90	12.8	55	99	391	1.2	389	393	14.4	64.8
2025-09-16T07:28	10	66	11.9	53	85	390	0.5	390	391	14.5	66.8
2025-09-16T07:29	10	69	16.0	54	103	390	1.1	388	392	14.5	65.7
2025-09-16T07:30	10	65	5.0	60	75	391	0.4	390	391	14.5	64.8
2025-09-16T07:31	10	93	15.8	65	108	392	1.9	389	395	14.5	63.9
2025-09-16T07:32	10	85	10.4	74	103	394	1.2	392	396	14.6	64.0
2025-09-16T07:33	10	78	14.7	60	98	393	0.6	391	394	14.6	63.2
2025-09-16T07:34	10	61	3.6	59	75	391	0.6	390	392	14.7	63.7
2025-09-16T07:35	10	80	8.4	66	92	392	0.8	391	394	14.7	64.2
2025-09-16T07:36	10	66	10.4	56	91	392	1.0	391	394	14.7	63.1
2025-09-16T07:37	10	54	5.2	51	70	391	1.1	389	392	14.8	63.5
2025-09-16T07:38	10	50	0.6	49	51	388	1.0	387	391	14.8	62.8
2025-09-16T07:39	10	47	0.5	47	49	387	0.7	386	388	14.8	61.7
2025-09-16T07:40	10	48	0.9	47	50	387	0.3	386	387	14.8	63.3
2025-09-16T07:41	10	52	1.1	50	56	387	0.4	386	388	14.7	61.3
2025-09-16T07:42	10	56	4.9	50	65	388	0.3	387	389	14.7	61.7
2025-09-16T07:43	10	52	1.9	50	56	389	0.3	388	389	14.8	63.4
2025-09-16T07:44	10	57	3.3	51	62	389	0.4	388	390	14.8	62.9
2025-09-16T07:45	10	55	1.1	54	59	389	0.4	388	390	14.9	63.1
2025-09-16T07:46	10	68	3.9	60	73	389	0.5	388	390	14.8	61.2
2025-09-16T07:47	10	59	3.9	51	66	389	0.4	389	390	14.8	62.8
2025-09-16T07:48	10	49	0.5	48	50	389	0.5	388	390	14.9	63.1
2025-09-16T07:49	10	48	1.1	47	51	388	0.3	388	389	14.9	62.5
2025-09-16T07:50	10	51	4.9	47	64	388	0.4	388	389	14.9	63.2
2025-09-16T07:51	10	63	1.0	59	64	389	0.3	389	390	14.9	62.6
2025-09-16T07:52	10	57	1.9	54	60	389	0.6	387	390	14.8	62.3
2025-09-16T07:53	10	64	5.3	56	71	389	1.0	388	391	14.9	63.4
2025-09-16T07:54	10	78	4.5	71	86	392	0.8	390	393	14.9	63.7
2025-09-16T07:55	10	91	2.3	86	94	394	0.9	392	396	15.0	62.2
2025-09-16T07:56	10	91	4.2	83	97	397	0.9	395	398	15.0	63.1
2025-09-16T07:57	10	76	6.0	66	84	397	0.5	396	398	15.1	63.2
2025-09-16T07:58	10	67	3.0	65	76	395	0.5	394	396	15.1	62.5
2025-09-16T07:59	10	77	7.8	65	86	395	1.1	394	397	15.1	61.4
2025-09-16T08:00	10	68	7.8	57	80	395	1.5	392	397	15.1	58.3
2025-09-16T08:01	10	59	1.1	57	60	393	0.2	392	394	15.1	59.0
2025-09-16T08:02	10	57	0.7	56	59	392	0.7	391	393	14.9	58.6
2025-09-16T08:03	10	57	0.7	56	59	392	0.3	391	392	15.2	60.7
2025-09-16T08:04	10	61	2.0	58	65	393	0.3	392	394	15.2	60.7
2025-09-16T08:05	10	68	1.7	65	70	393	0.4	392	394	15.2	57.7
2025-09-16T08:06	10	77	4.6	70	85	394	0.9	393	396	15.2	59.7
2025-09-16T08:07	10	86	2.9	78	89	396	0.4	395	397	15.2	60.7
2025-09-16T08:08	10	69	3.5	66	78	395	0.5	394	396	15.2	60.7
2025-09-16T08:09	10	63	1.6	61	68	395	0.3	394	396	15.2	60.7
2025-09-16T08:10	10	67	3.2	62	74	395	0.5	394	396	15.2	59.0
2025-09-16T08:11	10	57	2.1	54	62	393	0.4	392	394	15.2	59.1
2025-09-16T08:12	10	53	0.4	53	54	393	0.2	392	393	15.3	61.1
2025-09-16T08:13	10	53	0.2	53	53	392	0.6	391	393	15.3	60.2
2025-09-16T08:14	10	53	0.3	52	53	391	0.7	390	392	15.3	60.6
2025-09-16T08:15	10	55	1.8	52	58	390	0.5	389	391	15.2	59.3
2025-09-16T08:16	10	54	2.1	52	58	390	0.3	389	390	15.1	58.6
2025-09-16T08:17	10	55	1.8	53	58	389	0.6	388	391	15.1	58.3
2025-09-16T08:18	10	55	0.6	54	57	390	0.6	389	391	15.1	59.9
2025-09-16T08:19	10	55	0.6	55	57	391	0.5	390	392	15.2	60.6
2025-09-16T08:20	10	58	1.2	56	60	391	0.3	391	392	15.2	59.3
2025-09-16T08:21	10	61	0.8	60	62	392	0.6	391	393	15.2	59.5
2025-09-16T08:22	10	64	1.0	62	66	393	0.4	392	394	15.2	58.9
2025-09-16T08:23	10	62	2.1	58	65	393	0.8	392	394	15.2	58.3
2025-09-16T08:24	10	54	1.9	52	58	392	0.3	392	393	15.2	58.6
2025-09-16T08:25	10	53	0.9	52	55	392	0.4	391	393	15.2	58.8
2025-09-16T08:26	10	58	1.5	55	60	393	0.6	391	394	15.3	59.4
2025-09-16T08:27	10	62	1.6	60	66	394	0.5	393	395	15.3	59.0
2025-09-16T08:28	10	67	0.5	66	67	395	0.3	394	396	15.2	58.1
2025-09-16T08:29	10	62	2.2	58	65	396	0.4	395	397	15.3	59.9
2025-09-16T08:30	10	56	1.4	54	58	394	1.5	392	397	15.3	59.1
2025-09-16T08:31	10	53	0.4	52	54	392	0.7	391	393	15.3	58.5
2025-09-16T08:32	10	52	0.3	51	53	392	0.5	391	392	15.3	59.4
2025-09-16T08:33	10	54	1.3	52	57	391	0.4	390	392	15.3	58.8
2025-09-16T08:34	10	65	5.4	57	78	391	0.4	390	392	15.2	57.1
2025-09-16T08:35	10	85	3.9	79	96	394	1.2	391	395	15.2	57.0
2025-09-16T08:36	10	103	6.1	89	112	396	0.8	394	397	15.2	57.6
2025-09-16T08:37	10	93	2.6	89	100	397	0.3	396	397	15.3	58.3
2025-09-16T08:38	10	103	12.7	82	124	397	1.2	395	399	15.3	57.5
2025-09-16T08:39	10	117	10.9	100	135	399	0.7	397	400	15.3	56.8
2025-09-16T08:40	10	122	23.8	77	145	400	2.1	397	404	15.4	58.0
2025-09-16T08:41	10	84	19.9	63	145	400	2.8	395	405	15.5	58.8
2025-09-16T08:42	10	97	16.8	79	144	397	0.8	396	399	15.5	59.1
2025-09-16T08:43	10	149	1.8	146	152	401	1.0	398	402	15.5	57.8
2025-09-16T08:44	10	148	1.0	146	150	404	1.0	402	405	15.5	57.6
2025-09-16T08:45	10	135	13.7	101	152	405	0.5	404	406	15.6	57.7
2025-09-16T08:46	10	94	14.4	70	122	401	2.8	397	406	15.8	57.9
2025-09-16T08:47	10	72	3.3	67	79	396	2.0	393	399	15.7	56.0
2025-09-16T08:48	10	117	20.2	79	145	398	2.9	394	402	15.5	56.3
2025-09-16T08:49	10	94	5.9	84	112	398	1.7	396	402	15.5	56.2
2025-09-16T08:50	10	128	7.5	106	136	400	1.6	397	402	15.5	57.0
2025-09-16T08:51	10	114	10.3	92	127	402	0.8	401	403	15.7	56.7
2025-09-16T08:52	10	129	12.3	103	141	403	1.9	401	406	15.7	54.9
2025-09-16T08:53	10	120	22.6	89	154	404	1.0	403	406	15.7	55.6
2025-09-16T08:54	10	156	3.1	150	161	408	1.1	405	409	15.7	56.5
2025-09-16T08:55	10	158	6.8	144	167	408	0.8	407	409	15.6	55.4
2025-09-16T08:56	10	101	30.8	63	150	405	3.2	399	408	15.7	55.0
2025-09-16T08:57	10	70	3.3	66	78	399	1.1	398	402	15.7	55.7
2025-09-16T08:58	10	56	8.1	48	74	396	1.9	393	399	15.8	55.7
2025-09-16T08:59	10	69	9.5	50	85	394	0.8	393	396	15.7	55.5
2025-09-16T09:00	10	100	19.6	60	130	396	1.4	394	399	15.7	55.3
2025-09-16T09:01	10	85	14.2	68	109	396	1.9	393	399	15.7	54.3
2025-09-16T09:02	10	95	14.4	68	120	396	1.0	394	398	15.6	53.4
2025-09-16T09:03	10	146	8.5	119	155	401	2.2	396	404	15.6	52.8
2025-09-16T09:04	10	145	2.4	139	148	403	0.5	402	404	15.6	52.4
2025-09-16T09:05	10	137	2.6	134	146	403	0.9	401	404	15.7	52.0
2025-09-16T09:06	10	148	2.1	144	152	403	0.7	402	404	15.6	51.4
2025-09-16T09:07	10	138	3.3	133	146	404	0.7	403	406	15.6	52.3
2025-09-16T09:08	10	133	5.2	122	142	404	1.3	402	406	15.8	52.5
2025-09-16T09:09	10	104	10.4	91	127	401	1.9	397	403	15.8	51.5
2025-09-16T09:10	10	99	5.6	89	112	397	0.4	396	399	15.7	50.3
2025-09-16T09:11	10	116	5.7	108	127	397	0.5	396	398	15.7	51.1
2025-09-16T09:12	10	118	10.6	98	138	399	1.2	397	401	15.7	51.8
2025-09-16T09:13	10	125	7.4	108	137	402	0.8	400	403	15.8	52.8
2025-09-16T09:14	10	123	18.7	100	157	400	1.4	398	404	15.7	51.3
2025-09-16T09:15	10	140	10.4	116	158	403	0.5	403	405	15.7	52.5
2025-09-16T09:16	10	142	5.2	132	149	406	1.2	404	408	15.9	53.4
2025-09-16T09:17	10	148	3.3	142	154	405	0.4	404	406	16.0	52.8
2025-09-16T09:18	10	138	10.0	118	150	406	1.2	404	408	15.9	52.4
2025-09-16T09:19	10	119	0.9	118	121	404	0.3	403	405	16.0	53.1
2025-09-16T09:20	10	117	2.6	112	121	403	0.5	402	404	16.0	52.8
2025-09-16T09:21	10	110	1.8	107	114	402	0.4	402	403	15.9	52.6
2025-09-16T09:22	10	116	6.8	107	131	403	0.5	402	404	15.9	53.0
2025-09-16T09:23	10	134	1.5	131	137	405	0.6	403	406	16.0	53.3
2025-09-16T09:24	10	148	6.4	135	156	407	1.0	405	408	16.1	52.6
2025-09-16T09:25	10	154	1.0	153	156	407	0.4	406	408	16.0	52.7
2025-09-16T09:26	10	155	1.0	154	157	408	0.7	406	409	16.0	51.3
2025-09-16T09:27	10	152	2.4	146	155	409	1.1	406	410	16.2	53.1
2025-09-16T09:28	10	138	4.6	130	146	406	1.4	403	408	16.0	50.9
2025-09-16T09:29	10	132	1.6	129	135	404	0.3	403	404	15.9	51.1
2025-09-16T09:30	10	139	2.5	134	143	405	1.5	403	408	16.0	52.2
2025-09-16T09:31	10	136	3.8	129	142	408	0.4	407	409	16.0	51.2
2025-09-16T09:32	10	138	1.5	137	142	410	0.4	409	410	16.1	52.5
2025-09-16T09:33	10	133	3.9	128	140	409	1.5	406	411	16.2	51.8
2025-09-16T09:34	10	133	3.2	129	138	405	0.8	404	407	16.0	50.2
2025-09-16T09:35	10	138	1.1	136	140	405	0.8	404	406	16.2	51.0
2025-09-16T09:36	10	137	1.6	132	139	407	0.4	406	408	16.2	51.3
2025-09-16T09:37	10	131	1.5	129	133	407	0.6	406	408	16.2	49.5
2025-09-16T09:38	10	128	1.9	125	132	406	0.7	404	407	16.2	50.8
2025-09-16T09:39	10	129	0.9	127	130	405	0.3	404	405	16.2	50.4
2025-09-16T09:40	10	130	2.1	126	133	404	0.3	404	405	16.2	49.6
2025-09-16T09:41	10	126	1.5	124	130	405	0.6	403	406	16.2	49.7
2025-09-16T09:42	10	124	4.0	118	129	404	0.5	404	405	16.2	49.4
2025-09-16T09:43	10	127	6.4	116	134	405	0.7	404	407	16.3	50.5
2025-09-16T09:44	10	135	2.5	129	137	407	0.4	406	408	16.3	51.0
2025-09-16T09:45	10	136	1.6	133	139	408	1.2	407	411	16.5	51.3
2025-09-16T09:46	10	135	2.0	131	139	410	0.7	409	412	16.6	51.4
2025-09-16T09:47	10	142	3.4	137	149	410	0.7	409	411	16.5	50.3
2025-09-16T09:48	10	149	0.8	147	150	408	0.4	408	409	16.3	49.5
2025-09-16T09:49	10	148	1.5	145	150	409	0.7	408	410	16.3	50.3
2025-09-16T09:50	10	149	2.1	146	153	410	0.9	409	412	16.5	51.8
2025-09-16T09:51	10	145	3.5	132	148	411	0.3	411	412	16.5	50.9
2025-09-16T09:52	10	147	5.5	139	155	413	0.7	411	414	16.6	51.4
2025-09-16T09:53	10	155	2.3	152	159	414	0.5	413	416	16.6	51.5
2025-09-16T09:54	10	158	0.5	157	159	414	0.8	412	415	16.7	51.6
2025-09-16T09:55	10	157	2.7	153	161	412	2.2	408	416	16.6	50.0
2025-09-16T09:56	10	150	6.2	138	157	411	0.9	409	412	16.5	50.0
2025-09-16T09:57	10	150	3.2	141	153	411	0.6	409	412	16.5	49.4
2025-09-16T09:58	10	153	2.5	149	158	411	1.2	410	414	16.4	48.3
2025-09-16T09:59	10	156	2.0	152	159	413	0.8	412	415	16.6	50.2
2025-09-16T10:00	10	150	3.2	146	156	413	0.7	411	414	16.6	49.1
2025-09-16T10:01	10	141	3.0	138	147	413	0.9	411	414	16.6	48.9
2025-09-16T10:02	10	151	6.2	138	157	411	0.5	410	412	16.5	48.2
2025-09-16T10:03	10	143	11.0	126	156	412	1.2	410	414	16.5	48.2
2025-09-16T10:04	10	135	2.7	127	138	411	0.4	411	412	16.6	48.8
2025-09-16T10:05	10	134	1.1	132	137	411	0.2	411	412	16.7	48.1
2025-09-16T10:06	10	128	2.9	122	133	410	0.8	409	412	16.7	48.2
2025-09-16T10:07	10	127	6.2	117	135	411	0.8	409	412	16.8	49.4
2025-09-16T10:08	10	144	5.8	135	151	410	1.0	409	412	16.7	48.8
2025-09-16T10:09	10	156	3.9	146	159	413	0.8	411	414	16.6	48.7
2025-09-16T10:10	10	154	7.1	143	161	413	1.1	411	415	16.6	49.3
2025-09-16T10:11	10	154	2.4	149	157	412	0.5	411	413	16.5	49.1
2025-09-16T10:12	10	149	2.7	141	153	412	1.0	410	414	16.5	49.0
2025-09-16T10:13	10	145	3.9	136	151	411	0.4	411	412	16.6	49.5
2025-09-16T10:14	10	133	2.3	127	138	413	0.7	412	415	16.7	49.8
2025-09-16T10:15	10	140	2.4	134	143	414	0.6	413	415	16.8	49.7
2025-09-16T10:16	10	136	3.8	131	144	414	0.8	413	415	16.8	50.3
2025-09-16T10:17	10	134	3.8	126	139	414	0.7	413	416	16.7	50.3
2025-09-16T10:18	10	133	4.1	126	138	412	0.9	411	414	16.7	50.2
2025-09-16T10:19	10	130	13.6	98	149	414	0.5	413	415	16.8	51.8
2025-09-16T10:20	10	146	8.3	135	162	414	0.6	412	415	16.7	50.3
2025-09-16T10:21	10	151	8.9	140	165	416	1.4	414	418	16.9	51.8
2025-09-16T10:22	10	158	4.7	149	165	418	0.5	417	419	16.9	51.0
2025-09-16T10:23	10	148	4.9	140	156	419	0.5	418	420	16.9	50.7
2025-09-16T10:24	10	152	2.3	143	154	419	0.9	417	420	16.9	51.1
2025-09-16T10:25	10	147	5.6	136	154	420	0.9	418	421	17.0	51.0
2025-09-16T10:26	10	144	18.7	87	162	417	0.7	416	419	16.9	51.2
2025-09-16T10:27	10	136	14.6	104	149	416	0.4	415	417	17.0	51.2
2025-09-16T10:28	10	96	37.2	46	146	414	3.7	406	417	17.0	52.3
2025-09-16T10:29	10	72	38.3	44	169	404	2.1	401	409	17.0	52.0
2025-09-16T10:30	10	125	33.4	69	180	410	1.6	407	413	16.7	51.1
2025-09-16T10:31	10	96	30.9	65	165	408	1.2	405	410	16.8	51.7
2025-09-16T10:32	10	134	22.4	88	164	411	1.2	408	414	16.7	50.9
2025-09-16T10:33	10	158	3.2	150	162	416	1.1	413	417	16.9	50.9
2025-09-16T10:34	10	153	2.8	149	158	417	1.5	415	419	17.1	50.4
2025-09-16T10:35	10	158	0.9	156	159	415	1.0	414	418	16.9	48.7
2025-09-16T10:36	10	153	2.4	148	157	416	1.2	414	418	17.1	50.4
2025-09-16T10:37	10	147	1.5	144	150	419	0.4	418	419	17.3	50.6
2025-09-16T10:38	10	145	2.8	139	148	418	1.3	416	420	17.3	50.9
2025-09-16T10:39	10	144	5.6	138	154	415	0.5	414	416	17.1	49.4
2025-09-16T10:40	10	157	1.9	154	160	417	0.6	416	418	17.0	50.0
2025-09-16T10:41	10	150	5.8	137	160	419	0.5	417	420	17.2	50.7
2025-09-16T10:42	10	142	7.5	119	149	417	0.8	415	418	17.1	48.4
2025-09-16T10:43	10	124	18.3	91	155	415	0.9	414	418	17.0	49.5
2025-09-16T10:44	10	144	5.5	130	154	416	1.0	415	418	17.1	49.2
2025-09-16T10:45	10	148	5.5	139	156	416	1.3	414	418	17.0	49.3
2025-09-16T10:46	10	144	8.3	117	152	416	0.6	415	418	17.0	48.6
2025-09-16T10:47	10	148	3.5	141	154	417	0.7	416	419	17.0	49.6
2025-09-16T10:48	10	147	2.7	141	151	415	0.9	414	417	17.2	50.1
2025-09-16T10:49	10	141	3.8	135	147	415	0.6	414	416	17.0	48.4
2025-09-16T10:50	10	143	3.9	135	151	415	0.9	414	416	17.0	48.2
2025-09-16T10:51	10	142	3.8	136	149	414	1.0	413	417	16.9	48.0
2025-09-16T10:52	10	150	3.9	144	159	421	2.1	417	424	17.0	48.7
2025-09-16T10:53	10	147	4.7	137	158	420	3.2	415	424	17.3	48.9
2025-09-16T10:54	10	139	3.4	131	144	416	0.7	415	417	17.0	48.4
2025-09-16T10:55	10	144	4.6	135	153	418	1.2	416	420	17.1	49.2
2025-09-16T10:56	10	161	4.7	152	169	421	1.6	419	425	17.2	49.4
2025-09-16T10:57	10	169	3.4	162	174	425	0.7	424	426	17.5	51.5
2025-09-16T10:58	10	165	2.7	159	169	427	1.0	426	429	17.7	51.2
2025-09-16T10:59	10	162	3.4	152	167	425	2.0	421	428	17.6	50.1
2025-09-16T11:00	10	153	3.2	148	158	420	1.6	417	423	17.4	49.3
2025-09-16T11:01	10	153	2.6	148	157	419	0.9	417	420	17.3	49.3
2025-09-16T11:02	10	145	4.5	135	152	418	0.5	417	418	17.1	48.0
2025-09-16T11:03	10	140	3.6	134	146	418	0.6	417	419	17.1	49.0
2025-09-16T11:04	10	132	4.0	123	139	414	1.5	413	419	16.9	48.2
2025-09-16T11:05	10	128	5.3	119	142	413	0.5	412	414	17.0	48.7
2025-09-16T11:06	10	131	5.9	115	140	414	0.4	413	415	17.2	48.8
2025-09-16T11:07	10	129	10.2	110	146	414	0.8	413	416	17.3	49.0
2025-09-16T11:08	10	116	10.7	96	135	412	0.8	411	414	17.1	48.5
2025-09-16T11:09	10	122	10.0	98	142	412	0.5	412	414	17.1	48.7
2025-09-16T11:10	10	138	7.8	123	154	413	1.5	411	417	17.0	48.6
2025-09-16T11:11	10	132	5.8	121	142	415	0.4	414	416	17.1	49.0
2025-09-16T11:12	10	143	16.5	103	161	416	1.2	414	418	17.0	48.4
2025-09-16T11:13	10	143	15.8	114	163	415	1.0	413	417	17.0	48.3
2025-09-16T11:14	10	159	5.0	151	169	419	1.2	416	421	17.1	49.6
2025-09-16T11:15	10	168	1.6	165	170	419	0.4	418	420	17.1	47.9
2025-09-16T11:16	10	156	7.3	147	168	417	1.8	415	420	17.1	48.4
2025-09-16T11:17	10	152	4.4	147	160	416	0.8	415	417	17.0	48.0
2025-09-16T11:18	10	163	2.3	159	167	419	2.3	415	423	16.9	47.5
2025-09-16T11:19	10	163	2.3	160	170	423	0.7	422	424	17.2	49.3
2025-09-16T11:20	10	167	2.0	164	171	423	0.8	421	424	17.4	48.3
2025-09-16T11:21	10	165	3.3	161	171	421	0.3	420	422	17.1	47.6
2025-09-16T11:22	10	168	4.3	161	174	422	0.4	421	423	17.1	48.1
2025-09-16T11:23	10	168	4.3	161	174	423	0.4	422	423	17.3	48.2
2025-09-16T11:24	10	154	7.3	142	167	422	0.9	420	424	17.4	48.4
2025-09-16T11:25	10	146	4.7	136	153	422	1.0	421	424	17.6	49.7
2025-09-16T11:26	10	149	3.5	142	155	424	1.3	421	425	17.7	48.2
2025-09-16T11:27	10	148	4.7	139	154	421	1.8	417	423	17.4	47.6
2025-09-16T11:28	10	145	4.7	135	153	417	0.5	416	418	17.1	47.7
2025-09-16T11:29	10	154	6.6	144	162	418	0.8	416	419	17.1	47.7
2025-09-16T11:30	10	157	4.1	149	162	418	1.0	417	420	17.3	48.5
2025-09-16T11:31	10	144	3.1	140	151	417	0.4	416	418	17.5	48.0
2025-09-16T11:32	10	138	4.0	127	144	416	0.5	415	417	17.3	47.7
2025-09-16T11:33	10	112	16.4	68	137	414	1.1	411	416	17.4	48.2
2025-09-16T11:34	10	76	21.3	63	133	409	1.8	406	413	17.5	48.8
2025-09-16T11:35	10	147	5.8	134	158	413	1.8	409	416	17.3	47.3
2025-09-16T11:36	10	166	2.6	159	170	417	0.9	415	418	17.1	47.1
2025-09-16T11:37	10	173	3.3	165	178	421	1.9	418	424	17.1	47.5
2025-09-16T11:38	10	173	2.3	169	178	425	1.3	422	427	17.3	48.0
2025-09-16T11:39	10	140	29.1	97	177	423	2.6	420	427	17.4	47.1
2025-09-16T11:40	10	178	2.1	175	183	428	1.9	423	430	17.3	47.0
2025-09-16T11:41	10	171	10.6	149	182	428	2.2	423	431	17.5	47.7
2025-09-16T11:42	10	172	8.0	154	181	425	0.8	423	426	17.6	47.8
2025-09-16T11:43	10	169	4.6	163	178	428	0.7	426	429	17.6	48.0
2025-09-16T11:44	10	171	2.0	165	174	427	1.1	425	429	17.4	46.8
2025-09-16T11:45	10	165	5.2	157	175	425	0.7	424	426	17.4	47.3
2025-09-16T11:46	10	177	6.4	162	187	424	0.8	423	426	17.5	47.8
2025-09-16T11:47	10	148	9.1	127	166	424	1.6	421	426	17.7	47.5
2025-09-16T11:48	10	144	18.9	109	184	420	1.3	418	422	17.4	47.1
2025-09-16T11:49	10	179	6.7	164	189	424	1.6	421	427	17.5	47.3
2025-09-16T11:50	10	137	32.2	87	177	422	2.7	418	426	17.6	47.5
2025-09-16T11:51	10	159	6.9	141	172	424	2.2	419	428	17.8	47.9
2025-09-16T11:52	10	170	1.8	164	173	430	1.4	427	432	18.0	49.3
2025-09-16T11:53	10	170	3.5	159	175	431	0.3	431	432	18.3	49.7
2025-09-16T11:54	10	162	3.3	155	168	430	0.5	429	431	18.3	48.1
2025-09-16T11:55	10	177	3.8	167	181	430	0.5	429	431	18.3	48.2
2025-09-16T11:56	10	178	3.2	172	184	432	0.7	431	433	18.0	47.7
2025-09-16T11:57	10	180	2.2	176	185	430	1.2	429	432	17.8	46.1
2025-09-16T11:58	10	172	7.9	158	181	431	1.1	429	433	17.7	47.4
2025-09-16T11:59	10	160	3.0	153	165	430	0.4	429	431	17.8	47.6
2025-09-16T12:00	10	156	2.6	151	161	431	0.5	430	431	18.0	49.9
2025-09-16T12:01	10	151	3.1	147	159	428	1.8	425	431	18.0	47.9
2025-09-16T12:02	10	152	3.7	144	157	425	0.9	424	427	18.0	47.8
2025-09-16T12:03	10	161	6.4	151	170	426	1.0	424	428	18.2	48.8
2025-09-16T12:04	10	173	1.9	170	177	426	1.3	424	428	18.1	47.5
2025-09-16T12:05	10	168	3.8	160	175	425	0.5	424	426	17.9	47.2
2025-09-16T12:06	10	153	5.0	144	161	425	0.3	424	425	17.8	47.5
2025-09-16T12:07	10	157	6.5	143	167	427	1.2	424	428	17.9	47.7
2025-09-16T12:08	10	154	5.3	143	164	428	0.8	427	430	18.0	47.6
2025-09-16T12:09	10	151	4.9	142	160	429	0.4	428	430	18.0	47.6
2025-09-16T12:10	10	147	6.1	140	157	431	0.4	430	432	18.1	48.8
2025-09-16T12:11	10	154	6.8	142	166	431	0.6	430	432	18.2	49.3
2025-09-16T12:12	10	177	4.5	163	184	431	0.9	430	433	18.2	47.2
2025-09-16T12:13	10	177	1.9	174	180	433	1.5	430	435	18.0	47.0
2025-09-16T12:14	10	172	2.9	167	177	435	0.8	434	437	18.2	48.5
2025-09-16T12:15	10	165	4.9	157	172	436	0.5	435	437	18.5	48.5
2025-09-16T12:16	10	151	5.5	142	161	429	4.0	425	436	18.5	48.0
2025-09-16T12:17	10	169	7.9	156	180	426	1.1	424	428	18.2	47.4
2025-09-16T12:18	10	165	6.5	152	175	425	1.3	423	427	18.2	47.4
2025-09-16T12:19	10	131	13.7	104	153	421	1.7	420	425	18.2	47.2
2025-09-16T12:20	10	143	3.8	139	155	421	0.7	420	423	18.0	46.4
2025-09-16T12:21	10	143	4.7	136	156	425	0.7	422	426	18.1	48.2
2025-09-16T12:22	10	154	5.9	142	164	425	0.3	425	426	18.4	48.0
2025-09-16T12:23	10	133	28.0	86	162	424	2.4	418	426	18.4	47.6
2025-09-16T12:24	10	120	34.5	84	163	419	3.1	415	425	18.1	47.0
2025-09-16T12:25	10	162	5.5	147	169	425	0.8	423	426	18.4	48.5
2025-09-16T12:26	10	163	5.1	150	172	424	0.3	424	425	18.4	46.7
2025-09-16T12:27	10	171	8.6	158	188	423	0.7	421	424	18.0	45.9
2025-09-16T12:28	10	184	7.6	172	198	425	0.6	423	426	18.0	46.3
2025-09-16T12:29	10	184	5.5	169	193	426	1.1	424	428	18.0	46.1
2025-09-16T12:30	10	163	11.6	144	185	426	1.1	424	428	18.1	46.5
2025-09-16T12:31	10	165	7.6	149	178	426	1.5	424	429	18.1	45.8
2025-09-16T12:32	10	159	6.9	149	173	429	1.8	425	431	18.2	47.5
2025-09-16T12:33	10	161	8.0	153	184	425	0.4	425	426	18.1	45.5
2025-09-16T12:34	10	178	3.4	170	184	428	1.2	426	430	18.0	45.6
2025-09-16T12:35	10	172	4.0	164	177	430	0.6	429	431	18.1	45.7
2025-09-16T12:36	10	119	35.4	78	171	428	3.2	423	432	18.3	46.0
2025-09-16T12:37	10	125	20.2	90	154	424	2.5	420	428	18.5	46.4
2025-09-16T12:38	10	115	24.0	90	158	418	2.3	415	423	18.3	45.8
2025-09-16T12:39	10	173	7.5	158	185	424	2.5	419	427	18.2	45.4
2025-09-16T12:40	10	192	6.0	179	201	430	2.5	426	435	18.1	44.5
2025-09-16T12:41	10	168	11.5	151	191	435	0.5	434	436	18.4	47.4
2025-09-16T12:42	10	145	7.5	129	158	432	1.4	430	434	18.5	45.8
2025-09-16T12:43	10	158	9.1	142	173	430	0.4	429	431	18.7	46.4
2025-09-16T12:44	10	176	12.2	153	197	429	0.6	428	431	18.5	44.8
2025-09-16T12:45	10	139	34.9	90	189	427	3.1	421	431	18.2	44.2
2025-09-16T12:46	10	85	2.2	82	90	419	2.3	416	423	18.2	45.7
2025-09-16T12:47	10	98	5.3	89	106	417	0.8	416	419	18.2	45.4
2025-09-16T12:48	10	94	10.5	85	121	417	1.7	415	420	18.4	46.0
2025-09-16T12:49	10	147	21.7	94	171	421	4.2	414	426	18.5	46.8
2025-09-16T12:50	10	165	6.8	153	179	426	0.6	425	428	18.6	46.5
2025-09-16T12:51	10	170	22.7	135	202	428	2.3	425	434	18.7	46.7
2025-09-16T12:52	10	198	2.3	194	202	436	1.2	432	437	18.6	45.9
2025-09-16T12:53	10	189	5.3	179	198	434	1.6	431	437	18.6	46.0
2025-09-16T12:54	10	181	4.7	173	194	432	0.8	431	434	18.5	45.3
2025-09-16T12:55	10	184	8.6	164	194	435	1.1	433	437	18.8	46.5
2025-09-16T12:56	10	171	11.6	151	191	433	1.6	429	436	18.7	45.5
2025-09-16T12:57	10	147	8.5	129	157	429	0.9	427	430	18.6	45.7
2025-09-16T12:58	10	154	7.0	134	166	427	1.3	425	429	18.4	44.8
2025-09-16T12:59	10	135	9.3	119	152	425	0.5	424	426	18.1	44.6
2025-09-16T13:00	10	119	1.1	116	121	424	1.0	423	426	18.5	45.8
2025-09-16T13:01	10	123	3.8	117	133	422	0.5	421	423	18.7	45.7
2025-09-16T13:02	10	134	4.9	123	143	421	0.4	420	422	18.4	44.4
2025-09-16T13:03	10	132	9.5	115	148	421	0.7	420	422	18.4	44.3
2025-09-16T13:04	10	126	5.6	117	142	419	1.0	418	421	18.4	44.0
2025-09-16T13:05	10	125	7.1	114	140	421	1.5	419	423	18.4	45.1
2025-09-16T13:06	10	122	6.3	111	139	423	0.5	422	424	18.6	46.0
2025-09-16T13:07	10	118	3.7	111	126	423	0.3	422	423	18.8	46.1
2025-09-16T13:08	10	115	3.8	108	123	419	1.4	417	422	18.6	44.3
2025-09-16T13:09	10	118	4.0	112	126	417	0.7	417	419	18.4	44.0
2025-09-16T13:10	10	134	10.5	122	151	418	1.5	416	421	18.4	44.6
2025-09-16T13:11	10	142	4.3	134	150	422	0.8	420	423	18.7	45.8
2025-09-16T13:12	10	138	4.9	132	153	423	0.8	421	425	18.8	45.8
2025-09-16T13:13	10	135	7.7	121	149	424	0.4	422	424	18.9	45.7
2025-09-16T13:14	10	136	2.6	130	139	423	0.5	422	424	18.8	44.8
2025-09-16T13:15	10	117	6.2	108	131	421	1.3	420	424	18.6	44.2
2025-09-16T13:16	10	102	4.3	95	111	419	1.1	418	421	18.6	44.4
2025-09-16T13:17	10	93	2.7	90	100	416	1.7	413	419	18.5	43.8
2025-09-16T13:18	10	104	9.0	92	122	414	1.1	413	416	18.4	43.9
2025-09-16T13:19	10	125	9.4	112	141	416	0.6	415	417	18.4	44.0
2025-09-16T13:20	10	123	5.4	117	139	416	0.5	415	417	18.3	43.3
2025-09-16T13:21	10	113	2.4	109	118	415	0.5	414	416	18.2	43.5
2025-09-16T13:22	10	109	4.0	104	117	416	0.4	415	417	18.3	43.7
2025-09-16T13:23	10	106	4.2	99	116	418	0.5	417	419	18.3	43.6
2025-09-16T13:24	10	101	2.7	96	105	418	0.4	417	419	18.4	43.8
2025-09-16T13:25	10	95	2.9	91	103	416	0.6	415	418	18.5	45.0
2025-09-16T13:26	10	92	2.1	89	95	414	1.3	412	416	18.5	44.4
2025-09-16T13:27	10	100	4.3	93	108	413	0.8	412	414	18.4	44.1
2025-09-16T13:28	10	101	5.1	95	111	414	0.4	413	415	18.4	43.5
2025-09-16T13:29	10	94	2.7	91	101	413	0.3	413	414	18.3	43.4
2025-09-16T13:30	10	94	0.9	92	96	413	0.2	413	414	18.3	43.9
2025-09-16T13:31	10	100	2.2	96	103	413	0.3	412	414	18.4	44.5
2025-09-16T13:32	10	108	3.2	103	116	413	0.8	412	415	18.3	43.9
2025-09-16T13:33	10	111	1.5	109	114	414	0.5	413	415	18.3	43.7
2025-09-16T13:34	10	116	3.7	111	125	416	0.6	415	417	18.4	44.6
2025-09-16T13:35	10	118	2.5	114	124	417	0.4	416	418	18.5	44.6
2025-09-16T13:36	10	111	3.7	105	118	417	0.6	416	418	18.5	44.4
2025-09-16T13:37	10	104	1.8	101	108	416	0.8	414	417	18.5	44.6
2025-09-16T13:38	10	102	1.1	101	106	415	0.4	414	416	18.5	44.3
2025-09-16T13:39	10	105	1.4	103	108	417	0.5	416	418	18.6	46.0
2025-09-16T13:40	10	101	1.4	99	105	415	1.0	414	417	18.7	45.2
2025-09-16T13:41	10	99	2.3	97	107	415	0.3	414	415	18.6	45.5
2025-09-16T13:42	10	96	1.5	93	99	413	1.5	411	415	18.4	44.2
2025-09-16T13:43	10	89	2.4	85	94	412	0.7	411	413	18.4	45.4
2025-09-16T13:44	10	83	1.0	82	85	413	0.4	412	414	18.5	46.6
2025-09-16T13:45	10	82	0.2	82	83	411	0.9	410	413	18.5	45.5
2025-09-16T13:46	10	83	0.2	83	83	409	0.6	408	410	18.2	45.3
2025-09-16T13:47	10	81	1.1	79	83	408	0.3	408	409	18.2	46.0
2025-09-16T13:48	10	77	1.3	74	79	410	0.6	408	410	18.5	46.6
2025-09-16T13:49	10	73	0.9	71	74	408	0.3	407	409	18.5	46.5
2025-09-16T13:50	10	69	1.4	67	71	406	0.9	405	408	18.3	46.0
2025-09-16T13:51	10	66	0.5	65	67	404	0.5	404	406	18.1	46.3
2025-09-16T13:52	10	66	0.5	65	67	404	0.2	403	404	18.1	46.2
2025-09-16T13:53	10	69	1.2	67	71	405	0.5	404	406	18.1	46.7
2025-09-16T13:54	10	72	0.9	71	74	404	0.2	404	405	18.1	46.2
2025-09-16T13:55	10	72	0.9	70	74	405	0.4	404	406	18.1	47.0
2025-09-16T13:56	10	68	1.3	66	70	406	0.3	405	406	18.2	47.5
2025-09-16T13:57	10	66	0.2	65	66	405	0.6	404	406	18.2	46.8
2025-09-16T13:58	10	68	1.4	66	71	404	0.3	403	405	18.1	46.0
2025-09-16T13:59	10	73	1.5	71	76	405	0.6	404	407	18.1	46.2
2025-09-16T14:00	10	79	1.6	76	82	407	0.3	406	407	18.1	46.6
2025-09-16T14:01	10	80	2.0	76	84	406	0.3	406	407	18.0	46.4
2025-09-16T14:02	10	74	1.0	73	76	406	0.6	405	407	18.1	46.9
2025-09-16T14:03	10	74	1.1	73	76	405	0.3	404	406	18.1	46.6
2025-09-16T14:04	10	79	1.7	76	82	405	0.9	404	407	18.0	46.6
2025-09-16T14:05	10	82	1.7	78	85	407	0.5	406	408	18.0	47.4
2025-09-16T14:06	10	74	2.1	71	78	407	0.2	407	408	18.2	49.1
2025-09-16T14:07	10	71	0.5	70	72	406	0.8	405	408	18.2	47.8
2025-09-16T14:08	10	75	1.4	72	77	406	0.8	405	408	18.1	48.3
2025-09-16T14:09	10	77	0.5	75	77	407	0.3	406	408	18.2	48.1
2025-09-16T14:10	10	73	1.6	70	76	406	0.8	405	407	18.1	47.1
2025-09-16T14:11	10	70	0.2	69	70	405	0.3	404	406	18.0	47.2
2025-09-16T14:12	10	71	1.2	70	74	405	0.4	404	406	18.0	46.8
2025-09-16T14:13	10	81	4.4	74	88	406	1.0	405	407	18.0	46.6
2025-09-16T14:14	10	97	6.1	88	111	409	1.7	406	412	18.0	46.9
2025-09-16T14:15	10	88	5.6	79	102	411	1.0	409	412	18.1	47.3
2025-09-16T14:16	10	76	1.8	74	82	407	0.8	406	409	18.1	47.1
2025-09-16T14:17	10	74	0.4	73	75	407	0.3	406	408	18.1	47.8
2025-09-16T14:18	10	78	1.7	76	82	407	0.3	407	408	18.1	48.1
2025-09-16T14:19	10	91	4.9	82	98	409	0.7	407	410	18.1	48.1
2025-09-16T14:20	10	87	8.4	71	98	409	0.9	406	410	18.1	47.4
2025-09-16T14:21	10	65	2.3	63	71	406	0.9	404	407	18.1	46.2
2025-09-16T14:22	10	64	0.4	63	65	404	0.4	403	405	18.1	46.2
2025-09-16T14:23	10	65	0.4	64	66	403	0.3	403	404	18.0	45.9
2025-09-16T14:24	10	68	1.6	66	72	403	0.3	403	404	18.0	46.2
2025-09-16T14:25	10	80	4.5	72	86	404	0.8	403	406	18.0	45.5
2025-09-16T14:26	10	86	4.1	80	96	405	0.3	404	406	18.0	45.1
2025-09-16T14:27	10	85	2.6	80	90	406	0.5	405	407	18.1	46.6
2025-09-16T14:28	10	74	7.6	61	85	406	0.2	405	406	18.1	45.5
2025-09-16T14:29	10	56	2.1	54	61	404	0.8	403	406	18.1	46.4
2025-09-16T14:30	10	52	0.9	51	54	403	0.3	402	404	18.1	47.5
2025-09-16T14:31	10	50	0.5	49	51	403	0.3	402	403	18.1	47.1
2025-09-16T14:32	10	49	0.1	49	49	402	0.3	401	402	18.0	47.1
2025-09-16T14:33	10	50	0.5	49	51	402	0.3	401	402	18.0	46.3
2025-09-16T14:34	10	52	1.1	51	55	401	0.3	401	402	18.0	46.3
2025-09-16T14:35	10	60	3.2	55	65	401	0.3	401	402	18.0	45.8
2025-09-16T14:36	10	63	1.3	61	65	402	0.2	401	402	17.9	45.8
2025-09-16T14:37	10	60	0.3	60	61	402	0.2	401	402	17.9	46.6
2025-09-16T14:38	10	60	0.3	59	60	402	0.3	401	403	18.0	46.8
2025-09-16T14:39	10	58	0.4	58	59	403	0.2	402	403	17.9	46.8
2025-09-16T14:40	10	57	0.3	57	58	402	0.3	401	402	17.9	46.5
2025-09-16T14:41	10	57	0.2	56	57	402	0.3	401	402	17.9	46.9
2025-09-16T14:42	10	55	0.6	54	56	401	0.4	400	402	17.8	46.7
2025-09-16T14:43	10	53	0.6	52	54	401	0.2	400	401	17.9	46.8
2025-09-16T14:44	10	52	0.2	51	52	400	0.3	400	401	17.9	46.2
2025-09-16T14:45	10	52	0.2	51	52	400	0.2	399	400	17.9	46.8
2025-09-16T14:46	10	52	0.3	51	52	400	0.4	399	401	17.9	47.9
2025-09-16T14:47	10	53	0.9	52	55	402	0.6	401	403	17.9	48.6
2025-09-16T14:48	10	55	0.8	54	57	403	0.2	402	403	17.9	47.2
2025-09-16T14:49	10	58	0.3	57	58	403	0.3	402	404	18.0	47.7
2025-09-16T14:50	10	59	0.5	58	60	403	0.3	403	404	18.0	47.3
2025-09-16T14:51	10	60	0.4	59	60	403	0.2	403	404	17.9	47.9
2025-09-16T14:52	10	57	1.2	55	59	403	0.5	402	404	17.9	47.2
2025-09-16T14:53	10	52	1.5	50	55	402	0.5	401	403	17.9	47.4
2025-09-16T14:54	10	49	0.7	48	50	401	0.2	400	401	17.8	47.5
2025-09-16T14:55	10	46	0.7	45	48	401	0.3	400	401	17.8	46.6
2025-09-16T14:56	10	45	0.3	44	45	400	0.5	398	401	17.8	45.8
2025-09-16T14:57	10	45	0.2	44	45	398	0.4	397	399	17.8	44.9
2025-09-16T14:58	10	46	0.3	45	46	397	0.2	397	398	17.7	44.3
2025-09-16T14:59	10	46	0.2	46	47	397	0.3	397	398	17.7	44.8
2025-09-16T15:00	10	45	0.6	44	47	398	0.2	397	398	17.7	45.6
2025-09-16T15:01	10	44	0.4	43	45	398	0.2	397	398	17.6	45.3
2025-09-16T15:02	10	44	0.2	43	44	398	0.2	397	398	17.6	46.1
2025-09-16T15:03	10	44	0.3	43	45	398	0.3	397	399	17.6	45.7
2025-09-16T15:04	10	43	0.3	42	43	397	0.3	396	398	17.6	45.8
2025-09-16T15:05	10	41	0.5	40	42	398	0.4	397	399	17.6	46.6
2025-09-16T15:06	10	40	0.4	39	41	398	0.3	397	399	17.6	46.3
2025-09-16T15:07	10	38	0.7	37	39	398	0.3	397	398	17.6	46.8
2025-09-16T15:08	10	36	0.5	35	37	397	0.5	396	398	17.5	45.2
2025-09-16T15:09	10	35	0.2	35	36	396	0.2	396	396	17.5	46.0
2025-09-16T15:10	10	36	0.3	35	37	396	0.2	395	396	17.5	46.5
2025-09-16T15:11	10	37	0.2	36	37	396	0.3	395	396	17.5	45.4
2025-09-16T15:12	10	36	0.3	35	37	396	0.3	395	397	17.5	46.0
2025-09-16T15:13	10	35	0.5	34	36	396	0.4	395	397	17.5	47.0
2025-09-16T15:14	10	33	0.7	31	34	396	0.3	396	397	17.5	47.9
2025-09-16T15:15	10	30	0.8	29	31	396	0.4	395	397	17.4	47.7
2025-09-16T15:16	10	27	0.7	26	29	395	0.4	394	396	17.4	46.6
2025-09-16T15:17	10	26	0.3	25	27	394	0.4	393	395	17.4	47.2
2025-09-16T15:18	10	25	0.2	25	26	393	0.3	393	394	17.3	46.9
2025-09-16T15:19	10	25	0.2	25	26	393	0.3	392	394	17.3	46.8
2025-09-16T15:20	10	25	0.2	25	26	393	0.3	392	393	17.2	47.4
2025-09-16T15:21	10	25	0.2	25	26	393	0.4	392	394	17.2	47.7
2025-09-16T15:22	10	25	0.1	25	26	393	0.2	393	394	17.2	47.4
2025-09-16T15:23	10	25	0.1	25	26	393	0.3	393	394	17.2	47.5
2025-09-16T15:24	10	26	0.3	25	27	393	0.3	392	394	17.2	47.7
2025-09-16T15:25	10	26	0.2	26	27	393	0.3	392	394	17.2	47.7
2025-09-16T15:26	10	28	1.3	26	30	393	0.4	393	394	17.2	47.1
2025-09-16T15:27	10	29	0.3	28	29	394	0.2	393	394	17.2	47.4
2025-09-16T15:28	10	29	0.4	28	30	395	0.4	393	395	17.2	47.9
2025-09-16T15:29	10	31	0.4	30	31	395	0.3	395	396	17.2	48.2
2025-09-16T15:30	10	32	0.2	31	32	395	0.3	394	396	17.2	47.8
2025-09-16T15:31	10	32	0.1	32	32	395	0.2	395	396	17.2	47.9
2025-09-16T15:32	10	32	0.1	32	32	395	0.3	394	396	17.1	49.0
2025-09-16T15:33	10	31	0.3	30	32	395	0.5	394	396	17.1	48.9
2025-09-16T15:34	10	29	0.6	28	30	396	0.3	395	396	17.1	49.3
2025-09-16T15:35	10	27	0.7	26	28	396	0.2	395	396	17.1	49.9
2025-09-16T15:36	10	25	0.5	24	26	395	0.4	394	396	17.1	49.4
2025-09-16T15:37	10	23	0.5	22	24	394	0.3	393	395	17.1	50.2
2025-09-16T15:38	10	22	0.3	21	22	394	0.2	393	395	17.1	50.1
2025-09-16T15:39	10	22	0.2	21	22	394	0.2	393	394	17.0	50.1
2025-09-16T15:40	10	23	0.7	22	25	393	0.2	393	394	17.0	50.4
2025-09-16T15:41	10	27	1.3	25	29	393	0.2	393	394	17.0	48.7
2025-09-16T15:42	10	31	1.1	29	33	394	0.6	393	396	17.0	49.5
2025-09-16T15:43	10	33	0.1	33	33	395	0.3	395	396	17.0	49.7
2025-09-16T15:44	10	34	0.4	33	35	395	0.3	395	396	17.0	49.6
2025-09-16T15:45	10	34	0.4	34	35	395	0.2	395	396	17.0	48.7
2025-09-16T15:46	10	33	0.4	32	34	395	0.3	394	395	16.9	49.3
2025-09-16T15:47	10	31	0.7	30	32	394	0.3	394	395	16.9	49.8
2025-09-16T15:48	10	28	0.9	27	30	394	0.3	393	394	16.9	49.2
2025-09-16T15:49	10	26	0.6	25	27	393	0.2	393	394	16.9	49.9
2025-09-16T15:50	10	25	0.4	24	25	393	0.2	393	394	16.9	50.8
2025-09-16T15:51	10	23	0.8	21	24	393	0.3	392	393	16.9	50.6
2025-09-16T15:52	10	19	1.0	18	21	392	0.3	392	393	16.8	50.5
2025-09-16T15:53	10	16	0.7	15	18	391	0.3	391	392	16.8	50.7
2025-09-16T15:54	10	14	0.4	14	15	391	0.3	390	392	16.8	50.7
2025-09-16T15:55	10	14	0.1	13	14	390	0.2	390	391	16.8	50.1
2025-09-16T15:56	10	14	0.2	13	14	389	0.2	389	390	16.7	49.9
2025-09-16T15:57	10	14	0.2	14	15	389	0.2	389	389	16.7	49.8
2025-09-16T15:58	10	15	0.2	15	15	389	0.2	389	389	16.7	50.2
2025-09-16T15:59	10	15	0.1	15	15	389	0.2	389	390	16.7	50.9
2025-09-16T16:00	10	15	0.1	15	16	389	0.2	388	389	16.6	49.3
2025-09-16T16:01	10	15	0.1	15	16	388	0.2	388	389	16.6	50.5
2025-09-16T16:02	10	15	0.1	15	16	388	0.3	388	389	16.6	49.3
2025-09-16T16:03	10	16	0.2	15	16	388	0.2	388	389	16.6	49.5
2025-09-16T16:04	10	16	0.1	16	16	388	0.2	388	389	16.6	50.0
2025-09-16T16:05	10	16	0.1	16	17	388	0.3	387	388	16.6	47.6
2025-09-16T16:06	10	16	0.1	16	17	388	0.2	388	388	16.6	48.5
2025-09-16T16:07	10	16	0.1	16	16	388	0.2	388	388	16.6	49.5
2025-09-16T16:08	10	16	0.1	15	16	388	0.2	387	388	16.6	48.7
2025-09-16T16:09	10	15	0.2	15	16	387	0.2	387	388	16.6	47.7
2025-09-16T16:10	10	15	0.1	15	15	387	0.3	386	388	16.6	48.3
2025-09-16T16:11	10	15	0.1	15	15	387	0.2	387	388	16.5	50.2
2025-09-16T16:12	10	15	0.1	15	15	387	0.2	387	388	16.5	51.3
2025-09-16T16:13	10	15	0.1	14	15	387	0.2	387	388	16.5	49.5
2025-09-16T16:14	10	14	0.1	14	15	387	0.2	386	388	16.5	49.9
2025-09-16T16:15	10	14	0.1	14	15	387	0.2	386	387	16.4	51.2
2025-09-16T16:16	10	14	0.1	14	15	387	0.2	386	387	16.4	50.5
2025-09-16T16:17	10	14	0.1	14	15	387	0.3	386	387	16.4	50.9
2025-09-16T16:18	10	15	0.1	14	15	386	0.2	386	387	16.4	50.8
2025-09-16T16:19	10	15	0.1	14	15	387	0.3	386	387	16.3	51.1
2025-09-16T16:20	10	14	0.2	14	15	387	0.2	386	387	16.4	50.0
2025-09-16T16:21	10	14	0.3	13	14	386	0.3	386	387	16.3	51.2
2025-09-16T16:22	10	13	0.2	12	13	386	0.2	386	387	16.3	51.1
2025-09-16T16:23	10	12	0.2	12	12	386	0.2	386	387	16.3	51.7
2025-09-16T16:24	10	11	0.2	11	12	386	0.3	385	386	16.3	51.5
2025-09-16T16:25	10	11	0.1	11	11	386	0.2	385	386	16.3	50.8
2025-09-16T16:26	10	11	0.1	10	11	385	0.2	385	386	16.3	50.8
2025-09-16T16:27	10	11	0.1	10	11	385	0.2	385	386	16.3	51.3
2025-09-16T16:28	10	10	0.1	10	11	385	0.2	384	385	16.2	52.3
2025-09-16T16:29	10	10	0.1	10	11	385	0.2	384	385	16.1	53.8
2025-09-16T16:30	10	10	0.1	10	11	385	0.2	384	385	16.1	53.5
2025-09-16T16:31	10	10	0.1	10	10	385	0.2	385	385	16.1	52.1
2025-09-16T16:32	10	10	0.2	10	10	385	0.3	384	385	16.1	52.8
2025-09-16T16:33	10	10	0.2	9	10	385	0.2	384	385	16.1	51.4
2025-09-16T16:34	10	9	0.2	9	9	385	0.2	384	385	16.1	51.9
2025-09-16T16:35	10	9	0.1	9	9	385	0.2	384	385	16.2	50.2
2025-09-16T16:36	10	9	0.1	8	9	384	0.3	384	385	16.1	52.0
2025-09-16T16:37	10	8	0.1	8	9	384	0.2	383	384	16.0	52.0
2025-09-16T16:38	10	8	0.1	8	9	384	0.3	383	384	16.1	51.4
2025-09-16T16:39	10	8	0.1	8	8	384	0.2	383	384	16.1	50.9
2025-09-16T16:40	10	8	0.2	7	8	384	0.2	383	384	16.1	51.4
2025-09-16T16:41	10	7	0.2	7	8	383	0.2	383	384	16.0	51.3
2025-09-16T16:42	10	7	0.1	7	7	383	0.3	383	384	16.1	51.0
2025-09-16T16:43	10	7	0.1	7	7	383	0.2	383	384	16.1	51.5
2025-09-16T16:44	10	7	0.1	6	7	383	0.2	382	384	16.0	52.0
2025-09-16T16:45	10	6	0.1	6	7	383	0.2	383	384	16.0	52.7
2025-09-16T16:46	10	6	0.1	6	6	383	0.3	383	384	16.0	52.5
2025-09-16T16:47	10	6	0.1	6	6	383	0.2	383	384	16.0	52.0
2025-09-16T16:48	10	6	0.1	6	6	383	0.2	383	384	16.0	52.4
2025-09-16T16:49	10	6	0.1	5	6	383	0.3	383	384	16.0	52.5
2025-09-16T16:50	10	6	0.1	5	6	383	0.2	383	384	16.0	52.6
2025-09-16T16:51	10	5	0.1	5	6	383	0.3	382	384	16.0	52.3
2025-09-16T16:52	10	5	0.1	5	5	383	0.2	382	383	16.0	52.7
2025-09-16T16:53	10	5	0.1	5	6	383	0.2	382	383	15.9	53.3
2025-09-16T16:54	10	5	0.1	5	6	383	0.2	382	383	15.9	53.7
2025-09-16T16:55	10	6	0.1	5	6	383	0.2	382	383	15.9	54.4
2025-09-16T16:56	10	6	0.0	6	6	383	0.3	382	383	15.9	53.6
2025-09-16T16:57	10	6	0.1	6	6	382	0.3	382	383	15.8	55.4
2025-09-16T16:58	10	6	0.1	5	6	383	0.2	382	383	15.9	53.0
2025-09-16T16:59	10	5	0.1	5	6	382	0.2	382	383	15.8	55.4
2025-09-16T17:00	10	5	0.1	5	6	383	0.2	382	383	15.8	54.6
2025-09-16T17:01	10	5	0.1	5	5	382	0.2	382	383	15.8	54.8
2025-09-16T17:02	10	5	0.1	5	5	383	0.2	382	383	15.8	54.6
2025-09-16T17:03	10	5	0.1	4	5	383	0.2	382	383	15.8	54.7
2025-09-16T17:04	10	4	0.1	4	4	383	0.3	382	383	15.8	55.1
2025-09-16T17:05	10	4	0.1	4	4	383	0.2	382	383	15.7	55.2
2025-09-16T17:06	10	4	0.1	4	4	382	0.2	382	383	15.7	55.5
2025-09-16T17:07	10	4	0.1	4	4	382	0.2	382	383	15.7	55.6
2025-09-16T17:08	10	4	0.1	3	4	382	0.2	382	383	15.7	55.8
2025-09-16T17:09	10	3	0.1	3	4	382	0.2	382	383	15.6	55.9
2025-09-16T17:10	10	3	0.1	3	3	382	0.2	382	383	15.6	56.1
2025-09-16T17:11	10	3	0.1	3	3	383	0.2	382	383	15.6	56.6
2025-09-16T17:12	10	3	0.1	3	3	383	0.3	382	383	15.5	56.8
2025-09-16T17:13	10	3	0.2	2	3	383	0.3	382	383	15.6	56.2
2025-09-16T17:14	10	2	0.2	2	3	383	0.3	382	383	15.5	56.4
2025-09-16T17:15	10	2	0.1	2	3	383	0.3	382	384	15.6	55.7
2025-09-16T17:16	10	2	0.2	2	3	383	0.3	382	383	15.6	55.2
2025-09-16T17:17	10	2	0.1	2	3	382	0.3	382	383	15.6	55.8
2025-09-16T17:18	10	2	0.2	2	3	382	0.3	382	383	15.6	55.3
2025-09-16T17:19	10	2	0.2	2	2	382	0.2	381	383	15.6	55.6
2025-09-16T17:20	10	2	0.2	1	2	382	0.2	381	383	15.5	55.8
2025-09-16T17:21	10	2	0.2	1	2	382	0.2	381	382	15.5	56.4
2025-09-16T17:22	10	1	0.2	1	2	382	0.2	381	382	15.5	56.7
2025-09-16T17:23	10	1	0.2	1	2	382	0.2	381	382	15.5	56.3
2025-09-16T17:24	10	1	0.2	1	2	382	0.3	381	382	15.4	56.4
2025-09-16T17:25	10	1	0.2	1	2	382	0.2	381	382	15.5	55.9
2025-09-16T17:26	10	1	0.1	1	1	382	0.2	382	383	15.5	56.5
2025-09-16T17:27	10	1	0.2	0	1	382	0.2	381	382	15.5	56.4
2025-09-16T17:28	10	1	0.1	1	1	382	0.3	382	383	15.5	56.9
2025-09-16T17:29	10	1	0.1	1	1	382	0.2	382	382	15.4	57.5
2025-09-16T17:30	10	1	0.1	0	1	382	0.2	382	383	15.4	57.4
2025-09-16T17:31	10	1	0.1	0	1	382	0.3	381	383	15.4	56.8
2025-09-16T17:32	10	0	0.1	0	1	382	0.2	381	382	15.4	57.1
2025-09-16T17:33	10	0	0.1	0	0	382	0.2	382	383	15.4	56.9
2025-09-16T17:34	10	0	0.1	0	1	382	0.2	382	383	15.4	55.9
2025-09-16T17:35	10	0	0.1	0	0	382	0.2	382	383	15.5	56.2
2025-09-16T17:36	10	0	0.1	0	0	382	0.2	382	383	15.5	56.5
2025-09-16T17:37	10	0	0.1	0	0	382	0.2	382	383	15.5	56.2
2025-09-16T17:38	10	0	0.1	0	0	382	0.2	382	383	15.5	56.2
2025-09-16T17:39	10	0	0.1	0	0	383	0.2	382	383	15.5	55.9
2025-09-16T17:40	10	0	0.1	0	0	383	0.2	382	383	15.5	56.2
2025-09-16T17:41	10	0	0.1	0	0	383	0.2	383	383	15.5	56.4
2025-09-16T17:42	10	0	0.1	0	0	383	0.2	382	383	15.5	56.6
2025-09-16T17:43	10	0	0.1	0	0	383	0.2	382	383	15.4	56.5
2025-09-16T17:44	10	0	0.1	0	0	383	0.2	382	383	15.5	55.5
2025-09-16T17:45	10	0	0.1	0	0	383	0.2	382	383	15.5	55.4
2025-09-16T17:46	10	0	0.1	0	0	382	0.3	382	383	15.5	55.8
2025-09-16T17:47	10	0	0.1	0	0	382	0.2	382	383	15.5	55.4
2025-09-16T17:48	10	0	0.1	0	0	382	0.2	382	383	15.5	55.8
2025-09-16T17:49	10	0	0.1	0	0	382	0.2	382	383	15.4	56.2
2025-09-16T17:50	10	0	0.1	0	0	382	0.2	382	383	15.4	55.8
2025-09-16T17:51	10	0	0.1	0	0	382	0.2	382	383	15.4	56.1
2025-09-16T17:52	10	0	0.1	0	0	382	0.2	382	383	15.4	56.0
2025-09-16T17:53	10	0	0.1	0	0	382	0.3	382	383	15.4	56.8
2025-09-16T17:54	10	0	0.0	0	0	382	0.2	382	383	15.4	55.7
2025-09-16T17:55	10	0	0.1	0	0	383	0.3	382	383	15.4	55.9
2025-09-16T17:56	10	0	0.1	0	0	382	0.3	382	383	15.4	57.2
2025-09-16T17:57	10	0	0.1	0	0	382	0.3	382	383	15.4	55.8
2025-09-16T17:58	10	0	0.1	0	0	382	0.2	382	383	15.3	57.3
2025-09-16T17:59	10	0	0.1	0	0	382	0.2	382	383	15.3	56.5
2025-09-16T18:00	10	0	0.1	0	0	382	0.2	382	383	15.3	56.5
2025-09-16T18:01	10	0	0.1	0	0	382	0.2	381	382	15.3	55.9
2025-09-16T18:02	10	0	0.1	0	0	382	0.2	381	382	15.4	55.4
2025-09-16T18:03	10	0	0.1	0	0	382	0.2	381	382	15.4	55.9
2025-09-16T18:04	10	0	0.1	0	0	381	0.2	381	382	15.4	56.0
2025-09-16T18:05	10	0	0.1	0	0	381	0.2	381	381	15.3	55.9
2025-09-16T18:06	10	0	0.0	0	0	381	0.2	381	381	15.3	56.0
2025-09-16T18:07	10	0	0.0	0	0	381	0.2	381	381	15.3	55.7
2025-09-16T18:08	10	0	0.1	0	0	381	0.2	380	382	15.3	55.3
2025-09-16T18:09	10	0	0.1	0	0	381	0.3	381	382	15.4	54.5
2025-09-16T18:10	10	0	0.1	0	0	381	0.2	381	382	15.4	54.5
2025-09-16T18:11	10	0	0.1	0	0	381	0.2	381	382	15.4	54.0
2025-09-16T18:12	10	0	0.1	0	0	381	0.2	381	382	15.4	54.2
2025-09-16T18:13	10	0	0.1	0	0	381	0.2	380	381	15.4	54.3
2025-09-16T18:14	10	0	0.1	0	0	381	0.2	380	381	15.4	54.5
2025-09-16T18:15	10	0	0.1	0	0	381	0.2	380	381	15.4	54.7
2025-09-16T18:16	10	0	0.1	0	0	380	0.2	380	381	15.3	56.0
2025-09-16T18:17	10	0	0.1	0	0	380	0.3	379	381	15.3	57.2
2025-09-16T18:18	10	0	0.0	0	0	380	0.2	380	381	15.2	57.6
2025-09-16T18:19	10	0	0.1	0	0	380	0.2	380	381	15.2	55.6
2025-09-16T18:20	10	0	0.0	0	0	380	0.2	380	380	15.3	54.7
2025-09-16T18:21	10	0	0.1	0	0	380	0.2	379	380	15.3	55.9
2025-09-16T18:22	10	0	0.1	0	0	380	0.2	380	380	15.2	56.7
2025-09-16T18:23	10	0	0.0	0	0	380	0.2	379	380	15.2	57.1
2025-09-16T18:24	10	0	0.0	0	0	379	0.3	379	380	15.2	56.8
2025-09-16T18:25	10	0	0.1	0	0	379	0.2	378	380	15.1	57.5
2025-09-16T18:26	10	0	0.1	0	0	379	0.2	379	380	15.1	59.7
2025-09-16T18:27	10	0	0.1	0	0	379	0.3	379	380	15.1	56.8
2025-09-16T18:28	10	0	0.0	0	0	379	0.2	379	380	15.2	56.2
2025-09-16T18:29	10	0	0.1	0	0	379	0.2	379	380	15.2	57.2
2025-09-16T18:30	10	0	0.1	0	0	379	0.2	379	379	15.2	57.0
2025-09-16T18:31	10	0	0.1	0	0	379	0.2	379	379	15.2	56.4
2025-09-16T18:32	10	0	0.1	0	0	379	0.2	378	379	15.3	56.3
2025-09-16T18:33	10	0	0.0	0	0	379	0.2	378	379	15.3	56.0
2025-09-16T18:34	10	0	0.1	0	0	379	0.3	378	379	15.3	56.0
2025-09-16T18:35	10	0	0.1	0	0	378	0.2	378	379	15.3	56.7
2025-09-16T18:36	10	0	0.1	0	0	378	0.2	378	378	15.2	57.3
2025-09-16T18:37	10	0	0.1	0	0	378	0.2	378	379	15.2	57.3
2025-09-16T18:38	10	0	0.1	0	0	378	0.3	377	378	15.1	58.8
2025-09-16T18:39	10	0	0.1	0	0	378	0.3	377	378	14.9	67.5
2025-09-16T18:40	10	0	0.0	0	0	378	0.2	378	378	14.6	68.2
2025-09-16T18:41	10	0	0.1	0	0	378	0.2	377	379	14.6	64.6
2025-09-16T18:42	10	0	0.1	0	0	379	0.3	378	379	14.7	62.7
2025-09-16T18:43	10	0	0.1	0	0	378	0.2	378	379	14.7	61.7
2025-09-16T18:44	10	0	0.1	0	0	378	0.3	378	379	14.7	61.4
2025-09-16T18:45	10	0	0.1	0	0	378	0.2	378	379	14.8	62.5
2025-09-16T18:46	10	0	0.1	0	0	378	0.2	377	378	14.7	65.3
2025-09-16T18:47	10	0	0.1	0	0	378	0.3	377	378	14.6	65.9
2025-09-16T18:48	10	0	0.0	0	0	378	0.2	377	378	14.6	65.2
2025-09-16T18:49	10	0	0.1	0	0	378	0.3	377	378	14.6	64.3
2025-09-16T18:50	10	0	0.1	0	0	378	0.2	377	378	14.6	64.4
2025-09-16T18:51	10	0	0.1	0	0	378	0.2	377	378	14.6	62.4
2025-09-16T18:52	10	0	0.1	0	0	378	0.3	377	379	14.7	61.2
2025-09-16T18:53	10	0	0.1	0	0	378	0.2	377	378	14.7	61.6
2025-09-16T18:54	10	0	0.1	0	0	378	0.3	377	378	14.7	61.9
2025-09-16T18:55	10	0	0.1	0	0	377	0.2	377	378	14.7	62.9
2025-09-16T18:56	10	0	0.1	0	0	378	0.2	377	378	14.7	63.2
2025-09-16T18:57	10	0	0.1	0	0	377	0.4	376	378	14.7	63.9
2025-09-16T18:58	10	0	0.1	0	0	377	0.2	377	378	14.4	70.4
2025-09-16T18:59	10	0	0.1	0	0	377	0.2	377	378	14.4	64.7
2025-09-16T19:00	10	0	0.1	0	0	377	0.2	377	378	14.5	63.9
2025-09-16T19:01	10	0	0.1	0	0	377	0.3	377	378	14.4	66.8
2025-09-16T19:02	10	0	0.1	0	0	377	0.3	376	378	14.4	65.5
2025-09-16T19:03	10	0	0.1	0	0	377	0.2	376	378	14.4	65.4
2025-09-16T19:04	10	0	0.1	0	0	377	0.3	377	378	14.5	62.0
2025-09-16T19:05	10	0	0.1	0	0	377	0.3	377	378	14.4	68.1
2025-09-16T19:06	10	0	0.1	0	1	378	0.3	377	378	14.4	65.0
2025-09-16T19:07	10	0	0.1	0	0	378	0.3	377	378	14.6	61.8
2025-09-16T19:08	10	0	0.1	0	0	378	0.2	377	378	14.8	60.8
2025-09-16T19:09	10	0	0.1	0	0	377	0.2	377	378	14.6	65.0
2025-09-16T19:10	10	0	0.1	0	0	378	0.2	377	378	14.7	59.8
2025-09-16T19:11	10	0	0.1	0	0	377	0.4	377	378	14.9	59.7
2025-09-16T19:12	10	0	0.1	0	0	377	0.2	377	378	14.7	62.3
2025-09-16T19:13	10	0	0.1	0	0	377	0.4	376	378	14.7	61.1
2025-09-16T19:14	10	0	0.1	0	0	377	0.2	376	377	14.5	63.5
2025-09-16T19:15	10	0	0.1	0	0	376	0.2	376	377	14.6	62.4
2025-09-16T19:16	10	0	0.1	0	0	376	0.2	375	377	14.5	64.0
2025-09-16T19:17	10	0	0.1	0	0	376	0.2	376	377	14.4	64.4
2025-09-16T19:18	10	0	0.1	0	0	376	0.2	375	376	14.4	65.3
2025-09-16T19:19	10	0	0.1	0	0	376	0.3	375	376	14.4	64.7
2025-09-16T19:20	10	0	0.1	0	0	376	0.2	375	376	14.4	62.6
2025-09-16T19:21	10	0	0.1	0	0	376	0.2	375	376	14.5	62.8
2025-09-16T19:22	10	0	0.1	0	0	376	0.2	375	376	14.5	63.8
2025-09-16T19:23	10	0	0.1	0	0	376	0.2	375	376	14.4	63.7
2025-09-16T19:24	10	0	0.1	0	0	376	0.2	375	376	14.4	63.5
2025-09-16T19:25	10	0	0.1	0	0	375	0.3	375	376	14.4	63.5
2025-09-16T19:26	10	0	0.1	0	0	375	0.3	375	376	14.4	63.9
2025-09-16T19:27	10	0	0.1	0	0	375	0.2	375	376	14.3	64.4
2025-09-16T19:28	10	0	0.0	0	0	375	0.2	374	375	14.3	66.0
2025-09-16T19:29	10	0	0.0	0	0	375	0.2	374	375	14.2	66.4
2025-09-16T19:30	10	0	0.1	0	0	375	0.3	374	375	14.2	65.9
2025-09-16T19:31	10	0	0.1	0	0	375	0.3	374	375	14.1	66.2
2025-09-16T19:32	10	0	0.1	0	0	374	0.3	374	375	14.1	67.0
2025-09-16T19:33	10	0	0.1	0	0	374	0.3	374	375	14.1	66.1
2025-09-16T19:34	10	0	0.1	0	0	375	0.3	374	375	14.1	65.9
2025-09-16T19:35	10	0	0.1	0	0	375	0.2	374	375	14.1	65.1
2025-09-16T19:36	10	0	0.1	0	0	374	0.2	374	375	14.2	64.1
2025-09-16T19:37	10	0	0.1	0	0	374	0.2	374	374	14.1	65.2
2025-09-16T19:38	10	0	0.0	0	0	374	0.2	373	374	14.1	66.4
2025-09-16T19:39	10	0	0.0	0	0	374	0.2	373	374	14.0	67.3
2025-09-16T19:40	10	0	0.0	0	0	373	0.3	373	374	13.9	68.1
2025-09-16T19:41	10	0	0.0	0	0	373	0.2	373	373	13.9	69.0
2025-09-16T19:42	10	0	0.1	0	0	373	0.2	372	373	13.9	67.6
2025-09-16T19:43	10	0	0.1	0	0	373	0.2	372	373	14.0	66.7
2025-09-16T19:44	10	0	0.0	0	0	373	0.3	372	373	13.9	67.6
2025-09-16T19:45	10	0	0.0	0	0	372	0.2	372	373	14.0	64.8
2025-09-16T19:46	10	0	0.1	0	0	372	0.2	372	373	14.0	66.4
2025-09-16T19:47	10	0	0.0	0	0	372	0.2	372	373	13.9	66.8
2025-09-16T19:48	10	0	0.0	0	0	372	0.2	372	373	13.9	66.3
2025-09-16T19:49	10	0	0.1	0	0	373	0.3	372	373	13.9	65.7
2025-09-16T19:50	10	0	0.1	0	0	372	0.2	372	373	14.0	64.4
2025-09-16T19:51	10	0	0.0	0	0	372	0.2	372	373	14.0	63.7
2025-09-16T19:52	10	0	0.1	0	0	373	0.2	372	373	14.0	64.8
2025-09-16T19:53	10	0	0.0	0	0	372	0.2	372	373	14.0	64.8
2025-09-16T19:54	10	0	0.0	0	0	372	0.3	372	373	14.0	65.3
2025-09-16T19:55	10	0	0.0	0	0	372	0.2	372	373	13.9	65.1
2025-09-16T19:56	10	0	0.1	0	0	372	0.4	372	373	14.0	63.6
2025-09-16T19:57	10	0	0.0	0	0	372	0.2	371	372	14.0	65.3
2025-09-16T19:58	10	0	0.0	0	0	372	0.2	372	372	14.0	64.6
2025-09-16T19:59	10	0	0.0	0	0	372	0.2	371	372	14.0	64.4
2025-09-16T20:00	10	0	0.0	0	0	372	0.2	372	373	13.9	64.2
2025-09-16T20:01	10	0	0.0	0	0	372	0.2	372	373	14.0	63.6
2025-09-16T20:02	10	0	0.1	0	0	372	0.2	372	373	14.0	63.5
2025-09-16T20:03	10	0	0.1	0	0	373	0.2	372	373	14.0	59.2
2025-09-16T20:04	10	0	0.1	0	0	373	0.2	372	373	14.0	61.3
2025-09-16T20:05	10	0	0.0	0	0	373	0.2	372	373	14.0	63.5
2025-09-16T20:06	10	0	0.0	0	0	372	0.2	372	373	14.0	63.5
2025-09-16T20:07	10	0	0.1	0	0	372	0.2	372	373	14.0	63.5
2025-09-16T20:08	10	0	0.1	0	0	372	0.2	372	373	14.0	63.5
2025-09-16T20:09	10	0	0.1	0	0	372	0.3	371	373	14.1	63.4
2025-09-16T20:10	10	0	0.1	0	0	372	0.2	372	373	14.1	63.5
2025-09-16T20:11	10	0	0.1	0	0	372	0.2	371	373	14.0	64.2
2025-09-16T20:12	10	0	0.2	0	0	372	0.2	372	373	14.0	64.4
2025-09-16T20:13	10	0	0.1	0	0	373	0.3	372	374	14.0	64.1
2025-09-16T20:14	10	0	0.1	0	0	373	0.2	373	373	13.9	64.7
2025-09-16T20:15	10	0	0.1	0	0	373	0.2	373	374	13.9	64.1
2025-09-16T20:16	10	0	0.1	0	0	373	0.3	373	374	13.9	64.7
2025-09-16T20:17	10	0	0.2	0	0	374	0.4	373	375	13.9	64.6
2025-09-16T20:18	10	0	0.2	-1	0	374	0.3	373	374	13.9	65.6
2025-09-16T20:19	10	0	0.1	-1	0	374	0.3	373	374	13.7	67.8
2025-09-16T20:20	10	0	0.1	0	0	374	0.3	373	374	13.7	66.8
2025-09-16T20:21	10	0	0.2	-1	0	374	0.2	373	374	13.7	66.7
2025-09-16T20:22	10	0	0.1	-1	0	374	0.2	373	374	13.7	66.8
2025-09-16T20:23	10	0	0.1	-1	0	373	0.3	373	374	13.7	66.5
2025-09-16T20:24	10	0	0.1	-1	0	373	0.2	373	374	13.7	66.7
2025-09-16T20:25	10	0	0.1	0	0	373	0.2	372	373	13.6	66.8
2025-09-16T20:26	10	0	0.1	0	0	372	0.2	372	373	13.6	67.2
2025-09-16T20:27	10	0	0.2	-1	0	372	0.2	372	373	13.6	67.0
2025-09-16T20:28	10	0	0.1	-1	0	372	0.2	371	372	13.6	67.5
2025-09-16T20:29	10	0	0.2	-1	0	371	0.3	370	372	13.6	67.2
2025-09-16T20:30	10	0	0.2	-1	0	371	0.2	370	371	13.6	67.0
2025-09-16T20:31	10	0	0.1	-1	0	370	0.3	370	371	13.6	67.1
2025-09-16T20:32	10	0	0.2	-1	0	370	0.3	370	371	13.6	66.0
2025-09-16T20:33	10	0	0.2	-1	0	370	0.2	370	371	13.6	66.6
2025-09-16T20:34	10	0	0.1	0	0	370	0.2	370	371	13.6	67.8
2025-09-16T20:35	10	0	0.2	-1	0	370	0.3	370	371	13.5	67.7
2025-09-16T20:36	10	0	0.2	-1	0	371	0.2	370	371	13.5	67.4
2025-09-16T20:37	10	0	0.2	-1	0	371	0.2	370	371	13.5	67.8
2025-09-16T20:38	10	0	0.2	-1	0	371	0.3	370	371	13.5	67.6
2025-09-16T20:39	10	0	0.1	-1	0	371	0.3	370	372	13.5	67.6
2025-09-16T20:40	10	0	0.1	0	0	371	0.2	371	372	13.5	66.8
2025-09-16T20:41	10	0	0.2	-1	0	371	0.3	371	372	13.5	67.6
2025-09-16T20:42	10	0	0.1	-1	0	371	0.2	371	372	13.5	67.4
2025-09-16T20:43	10	0	0.2	0	0	371	0.3	370	372	13.5	67.5
2025-09-16T20:44	10	0	0.1	0	0	372	0.3	371	372	13.4	68.8
2025-09-16T20:45	10	0	0.1	0	0	372	0.3	371	372	13.4	67.4
2025-09-16T20:46	10	0	0.1	0	0	372	0.3	371	373	13.6	65.4
2025-09-16T20:47	10	0	0.1	0	0	372	0.2	371	372	13.6	65.8
2025-09-16T20:48	10	0	0.1	0	0	372	0.2	371	372	13.6	65.7
2025-09-16T20:49	10	0	0.1	-1	0	372	0.3	371	372	13.6	65.5
2025-09-16T20:50	10	0	0.2	-1	0	372	0.2	371	372	13.6	66.0
2025-09-16T20:51	10	0	0.1	0	0	372	0.3	371	372	13.6	64.6
2025-09-16T20:52	10	0	0.2	-1	0	371	0.2	371	372	13.6	64.9
2025-09-16T20:53	10	0	0.1	0	0	371	0.3	370	372	13.6	64.9
2025-09-16T20:54	10	0	0.1	0	0	370	0.2	370	371	13.6	65.4
2025-09-16T20:55	10	0	0.1	0	0	370	0.3	370	371	13.6	65.8
2025-09-16T20:56	10	0	0.1	0	0	370	0.2	369	370	13.5	66.9
2025-09-16T20:57	10	0	0.1	0	0	370	0.3	369	370	13.5	66.1
2025-09-16T20:58	10	0	0.1	0	0	369	0.2	369	370	13.5	66.8
2025-09-16T20:59	10	0	0.1	0	0	369	0.3	368	370	13.4	66.3
2025-09-16T21:00	10	0	0.1	0	0	369	0.2	368	369	13.4	66.7
2025-09-16T21:01	10	0	0.1	0	0	369	0.2	368	369	13.4	66.5
2025-09-16T21:02	10	0	0.1	0	0	369	0.2	368	369	13.4	66.2
2025-09-16T21:03	10	0	0.1	0	0	368	0.2	368	369	13.4	66.5
2025-09-16T21:04	10	0	0.1	0	0	368	0.2	368	369	13.4	66.5
2025-09-16T21:05	10	0	0.1	0	0	368	0.3	367	369	13.4	67.5
2025-09-16T21:06	10	0	0.1	0	0	368	0.2	367	368	13.3	68.8
2025-09-16T21:07	10	0	0.1	0	0	367	0.2	367	368	13.2	68.7
2025-09-16T21:08	10	0	0.1	0	0	367	0.2	366	367	13.2	68.4
2025-09-16T21:09	10	0	0.1	0	0	367	0.2	367	367	13.2	68.8
2025-09-16T21:10	10	0	0.1	0	0	367	0.2	366	367	13.2	69.4
2025-09-16T21:11	10	0	0.0	0	0	367	0.2	366	367	13.1	70.0
2025-09-16T21:12	10	0	0.1	0	0	367	0.3	367	368	13.1	68.9
2025-09-16T21:13	10	0	0.1	0	0	367	0.3	366	368	13.1	68.6
2025-09-16T21:14	10	0	0.1	0	0	367	0.2	367	368	13.2	67.7
2025-09-16T21:15	10	0	0.1	0	0	368	0.3	367	368	13.3	66.5
2025-09-16T21:16	10	0	0.0	0	0	368	0.3	367	368	13.3	67.3
2025-09-16T21:17	10	0	0.1	0	0	368	0.3	367	368	13.3	67.9
2025-09-16T21:18	10	0	0.1	0	0	368	0.2	368	369	13.2	69.3
2025-09-16T21:19	10	0	0.1	0	0	368	0.2	368	369	13.2	68.4
2025-09-16T21:20	10	0	0.0	0	0	368	0.2	368	369	13.2	69.2
2025-09-16T21:21	10	0	0.0	0	0	369	0.2	368	369	13.2	68.9
2025-09-16T21:22	10	0	0.0	0	0	369	0.2	368	369	13.2	69.1
2025-09-16T21:23	10	0	0.0	0	0	369	0.2	368	369	13.1	69.5
2025-09-16T21:24	10	0	0.0	0	0	369	0.2	369	370	13.1	69.3
2025-09-16T21:25	10	0	0.1	0	0	369	0.2	369	370	13.1	70.4
2025-09-16T21:26	10	0	0.0	0	0	370	0.2	369	370	13.0	71.5
2025-09-16T21:27	10	0	0.1	0	0	369	0.2	369	370	13.0	72.3
2025-09-16T21:28	10	0	0.1	0	0	369	0.2	369	370	12.7	76.8
2025-09-16T21:29	10	0	0.1	0	0	370	0.2	369	370	12.8	73.4
2025-09-16T21:30	10	0	0.0	0	0	370	0.3	369	370	12.9	71.8
2025-09-16T21:31	10	0	0.1	0	0	370	0.2	369	370	13.0	69.9
2025-09-16T21:32	10	0	0.1	0	0	370	0.2	369	370	12.9	71.8
2025-09-16T21:33	10	0	0.1	0	0	370	0.2	369	370	12.9	71.0
2025-09-16T21:34	10	0	0.1	0	0	370	0.3	369	371	12.9	70.3
2025-09-16T21:35	10	0	0.0	0	0	370	0.2	369	370	12.9	69.6
2025-09-16T21:36	10	0	0.0	0	0	370	0.2	370	371	12.9	69.3
2025-09-16T21:37	10	0	0.1	0	0	370	0.2	369	370	13.0	68.6
2025-09-16T21:38	10	0	0.0	0	0	370	0.2	370	371	13.0	68.6
2025-09-16T21:39	10	0	0.0	0	0	370	0.2	369	370	12.9	68.9
2025-09-16T21:40	10	0	0.0	0	0	370	0.2	369	370	12.9	69.0
2025-09-16T21:41	10	0	0.0	0	0	370	0.3	369	370	12.9	68.8
2025-09-16T21:42	10	0	0.1	0	0	369	0.2	369	370	12.9	68.7
2025-09-16T21:43	10	0	0.1	0	0	369	0.2	369	370	13.0	68.1
2025-09-16T21:44	10	0	0.0	0	0	369	0.2	368	369	12.9	69.5
2025-09-16T21:45	10	0	0.1	0	0	369	0.2	368	369	12.9	70.3
2025-09-16T21:46	10	0	0.0	0	0	369	0.3	368	369	12.9	68.8
2025-09-16T21:47	10	0	0.0	0	0	368	0.2	367	369	12.9	67.7
2025-09-16T21:48	10	0	0.1	0	0	367	0.4	367	368	12.9	68.8
2025-09-16T21:49	10	0	0.1	0	0	367	0.3	366	367	12.8	71.8
2025-09-16T21:50	10	0	0.1	0	0	367	0.2	366	367	12.7	72.8
2025-09-16T21:51	10	0	0.1	0	0	367	0.2	366	367	12.7	70.2
2025-09-16T21:52	10	0	0.1	0	0	367	0.3	366	367	12.9	69.3
2025-09-16T21:53	10	0	0.1	0	0	367	0.3	366	367	12.9	68.6
2025-09-16T21:54	10	0	0.1	0	0	367	0.3	366	368	13.0	68.3
2025-09-16T21:55	10	0	0.1	0	0	367	0.2	367	368	13.0	68.0
2025-09-16T21:56	10	0	0.1	0	0	367	0.2	366	367	13.0	68.6
2025-09-16T21:57	10	0	0.1	0	0	367	0.2	367	368	12.9	68.5
2025-09-16T21:58	10	0	0.1	0	0	367	0.2	367	368	12.9	68.9
2025-09-16T21:59	10	0	0.1	0	0	367	0.2	367	368	12.9	68.3
2025-09-16T22:00	10	0	0.1	0	0	368	0.2	367	368	12.9	69.0
2025-09-16T22:01	10	0	0.1	0	0	367	0.2	367	368	12.8	69.9
2025-09-16T22:02	10	0	0.1	0	0	368	0.2	367	368	12.8	70.2
2025-09-16T22:03	10	0	0.1	0	0	368	0.3	367	368	12.8	69.6
2025-09-16T22:04	10	0	0.1	0	0	368	0.2	367	368	12.8	69.3
2025-09-16T22:05	10	0	0.1	0	0	368	0.2	367	368	12.9	69.0
2025-09-16T22:06	10	0	0.1	0	0	367	0.3	366	368	12.9	69.2
2025-09-16T22:07	10	0	0.1	0	0	367	0.2	366	367	12.8	70.5
2025-09-16T22:08	10	0	0.1	0	0	366	0.4	365	367	12.7	71.8
2025-09-16T22:09	10	0	0.1	0	0	366	0.3	365	366	12.5	72.5
2025-09-16T22:10	10	0	0.1	0	0	365	0.3	365	366	12.5	72.5
2025-09-16T22:11	10	0	0.1	0	0	365	0.2	364	365	12.6	71.0
2025-09-16T22:12	10	0	0.1	0	0	365	0.2	364	365	12.6	70.7
2025-09-16T22:13	10	0	0.1	0	0	365	0.2	364	365	12.6	70.6
2025-09-16T22:14	10	0	0.1	0	0	365	0.2	364	365	12.7	70.4
2025-09-16T22:15	10	0	0.1	0	0	365	0.2	365	366	12.6	71.0
2025-09-16T22:16	10	0	0.1	0	0	365	0.3	365	366	12.6	71.5
2025-09-16T22:17	10	0	0.1	0	0	366	0.3	365	366	12.6	72.3
2025-09-16T22:18	10	0	0.1	0	0	366	0.2	365	366	12.5	74.3
2025-09-16T22:19	10	0	0.1	0	0	366	0.2	365	366	12.4	76.9
2025-09-16T22:20	10	0	0.1	0	0	366	0.3	366	367	12.3	75.1
2025-09-16T22:21	10	0	0.1	0	0	366	0.3	365	367	12.4	73.5
2025-09-16T22:22	10	0	0.1	0	0	366	0.2	366	367	12.6	69.7
2025-09-16T22:23	10	0	0.1	0	0	366	0.3	366	367	12.6	70.6
2025-09-16T22:24	10	0	0.1	0	0	366	0.3	365	367	12.6	70.8
2025-09-16T22:25	10	0	0.1	0	0	366	0.2	365	367	12.6	70.8
2025-09-16T22:26	10	0	0.1	0	0	366	0.3	366	367	12.5	72.3
2025-09-16T22:27	10	0	0.1	0	0	366	0.2	366	367	12.6	70.7
2025-09-16T22:28	10	0	0.1	0	0	367	0.3	366	367	12.6	71.8
2025-09-16T22:29	10	0	0.1	0	0	366	0.2	366	367	12.5	72.9
2025-09-16T22:30	10	0	0.1	0	0	367	0.2	366	367	12.5	72.0
2025-09-16T22:31	10	0	0.1	0	0	367	0.2	366	367	12.5	71.4
2025-09-16T22:32	10	0	0.1	0	0	367	0.2	366	367	12.5	71.9
2025-09-16T22:33	10	0	0.1	0	0	367	0.2	366	367	12.5	72.1
2025-09-16T22:34	10	0	0.1	0	0	367	0.2	367	367	12.5	70.8
2025-09-16T22:35	10	0	0.1	0	0	367	0.3	367	368	12.7	69.1
2025-09-16T22:36	10	0	0.1	0	0	367	0.2	366	367	12.7	69.2
2025-09-16T22:37	10	0	0.1	0	0	367	0.2	366	367	12.6	70.1
2025-09-16T22:38	10	0	0.1	0	0	367	0.2	367	368	12.6	69.6
2025-09-16T22:39	10	0	0.1	0	0	367	0.2	366	367	12.7	69.2
2025-09-16T22:40	10	0	0.1	0	0	367	0.2	367	368	12.7	68.9
2025-09-16T22:41	10	0	0.1	0	0	367	0.3	366	368	12.7	68.6
2025-09-16T22:42	10	0	0.1	0	0	367	0.2	367	368	12.8	67.9
2025-09-16T22:43	10	0	0.0	0	0	367	0.3	367	368	12.8	68.2
2025-09-16T22:44	10	0	0.1	0	0	367	0.3	366	368	12.8	68.6
2025-09-16T22:45	10	0	0.1	0	0	367	0.2	367	368	12.8	68.3
2025-09-16T22:46	10	0	0.1	0	0	368	0.2	367	368	12.8	68.6
2025-09-16T22:47	10	0	0.1	0	0	368	0.2	367	368	12.9	67.7
2025-09-16T22:48	10	0	0.1	0	0	368	0.2	367	368	12.9	67.8
2025-09-16T22:49	10	0	0.1	0	0	367	0.2	367	368	12.8	69.3
2025-09-16T22:50	10	0	0.1	0	0	367	0.2	367	368	12.8	69.4
2025-09-16T22:51	10	0	0.1	0	0	367	0.2	367	368	12.8	69.1
2025-09-16T22:52	10	0	0.1	0	0	367	0.2	367	368	12.8	69.1
2025-09-16T22:53	10	0	0.1	0	0	367	0.3	367	368	12.7	70.3
2025-09-16T22:54	10	0	0.1	0	0	367	0.3	367	368	12.6	70.3
2025-09-16T22:55	10	0	0.1	0	0	367	0.3	367	368	12.6	70.4
2025-09-16T22:56	10	0	0.1	0	0	367	0.2	366	367	12.6	70.7
2025-09-16T22:57	10	0	0.1	0	0	367	0.2	366	367	12.6	70.7
2025-09-16T22:58	10	0	0.1	0	0	367	0.2	366	367	12.5	71.3
2025-09-16T22:59	10	0	0.0	0	0	366	0.2	366	367	12.5	71.5
2025-09-16T23:00	10	0	0.1	0	0	366	0.3	366	367	12.5	71.8
2025-09-16T23:01	10	0	0.1	0	0	366	0.3	366	367	12.5	71.4
2025-09-16T23:02	10	0	0.1	0	0	366	0.2	366	367	12.5	71.8
2025-09-16T23:03	10	0	0.1	0	0	366	0.3	365	367	12.4	71.9
2025-09-16T23:04	10	0	0.1	0	0	366	0.2	366	367	12.4	73.5
2025-09-16T23:05	10	0	0.1	0	0	366	0.3	366	367	12.3	75.0
2025-09-16T23:06	10	0	0.1	0	0	367	0.2	366	367	12.2	74.6
2025-09-16T23:07	10	0	0.1	0	0	366	0.2	366	367	12.2	75.7
2025-09-16T23:08	10	0	0.1	0	0	366	0.2	366	367	12.2	75.1
2025-09-16T23:09	10	0	0.1	0	0	366	0.2	365	366	12.2	75.6
2025-09-16T23:10	10	0	0.1	0	0	366	0.2	366	367	12.2	74.5
2025-09-16T23:11	10	0	0.1	0	0	366	0.3	365	366	12.2	76.0
2025-09-16T23:12	10	0	0.1	0	0	366	0.3	365	366	12.1	76.9
2025-09-16T23:13	10	0	0.1	0	0	366	0.2	365	366	12.2	73.9
2025-09-16T23:14	10	0	0.1	0	0	365	0.2	365	366	12.3	74.2
2025-09-16T23:15	10	0	0.1	0	0	365	0.2	365	365	12.3	73.4
2025-09-16T23:16	10	0	0.1	0	0	365	0.2	364	366	12.3	73.0
2025-09-16T23:17	10	0	0.1	0	0	365	0.2	364	365	12.3	74.4
2025-09-16T23:18	10	0	0.1	0	0	364	0.2	364	365	12.3	72.9
2025-09-16T23:19	10	0	0.1	0	0	364	0.3	364	365	12.3	72.8
2025-09-16T23:20	10	0	0.1	0	0	364	0.2	364	365	12.3	73.6
2025-09-16T23:21	10	0	0.1	0	0	364	0.2	364	364	12.3	72.8
2025-09-16T23:22	10	0	0.1	0	0	364	0.2	364	365	12.3	72.7
2025-09-16T23:23	10	0	0.1	0	0	364	0.3	364	365	12.3	72.4
2025-09-16T23:24	10	0	0.0	0	0	364	0.2	364	365	12.3	72.2
2025-09-16T23:25	10	0	0.1	0	0	364	0.2	363	364	12.3	72.0
2025-09-16T23:26	10	0	0.0	0	0	364	0.2	364	365	12.3	72.9
2025-09-16T23:27	10	0	0.0	0	0	364	0.2	364	365	12.2	73.2
2025-09-16T23:28	10	0	0.1	0	0	365	0.2	364	365	12.2	73.3
2025-09-16T23:29	10	0	0.1	0	0	365	0.3	364	365	12.2	74.3
2025-09-16T23:30	10	0	0.1	0	0	365	0.2	364	365	12.2	73.5
2025-09-16T23:31	10	0	0.1	0	0	365	0.2	364	365	12.2	72.8
2025-09-16T23:32	10	0	0.1	0	0	365	0.2	364	365	12.2	72.6
2025-09-16T23:33	10	0	0.1	0	0	365	0.2	364	365	12.2	72.7
2025-09-16T23:34	10	0	0.1	0	0	365	0.3	364	365	12.2	73.1
2025-09-16T23:35	10	0	0.1	0	0	364	0.2	364	365	12.2	73.4
2025-09-16T23:36	10	0	0.0	0	0	364	0.2	364	365	12.2	73.4
2025-09-16T23:37	10	0	0.1	0	0	364	0.2	364	365	12.2	73.8
2025-09-16T23:38	10	0	0.1	0	0	364	0.3	363	365	12.1	74.9
2025-09-16T23:39	10	0	0.1	0	0	364	0.3	363	364	12.1	76.1
2025-09-16T23:40	10	0	0.1	0	0	363	0.2	363	364	12.0	77.8
2025-09-16T23:41	10	0	0.1	0	0	363	0.2	363	363	11.9	77.9
2025-09-16T23:42	10	0	0.1	0	0	363	0.2	362	363	11.8	78.0
2025-09-16T23:43	10	0	0.1	0	0	362	0.3	362	363	11.9	75.9
2025-09-16T23:44	10	0	0.1	0	0	362	0.2	361	362	11.9	77.2
2025-09-16T23:45	10	0	0.1	0	0	361	0.4	361	362	11.8	78.4
2025-09-16T23:46	10	0	0.1	0	0	361	0.2	360	361	11.7	78.4
2025-09-16T23:47	10	0	0.1	0	0	360	0.2	360	361	11.7	78.0
2025-09-16T23:48	10	0	0.1	0	0	360	0.2	359	360	11.7	79.7
2025-09-16T23:49	10	0	0.1	0	0	359	0.2	359	360	11.6	80.2
2025-09-16T23:50	10	0	0.1	0	0	359	0.2	358	359	11.6	79.3
2025-09-16T23:51	10	0	0.1	0	0	359	0.3	358	359	11.6	80.8
2025-09-16T23:52	10	0	0.1	0	0	358	0.2	358	359	11.6	79.8
2025-09-16T23:53	10	0	0.1	0	0	358	0.2	357	358	11.6	79.6
2025-09-16T23:54	10	0	0.1	0	0	358	0.2	357	358	11.6	79.4
2025-09-16T23:55	10	0	0.1	0	0	357	0.2	357	358	11.6	79.4
2025-09-16T23:56	10	0	0.1	0	0	357	0.2	357	358	11.6	79.7
2025-09-16T23:57	10	0	0.1	0	0	357	0.2	356	358	11.5	80.3
2025-09-16T23:58	10	0	0.1	0	0	357	0.2	356	357	11.5	79.8
2025-09-16T23:59	10	0	0.1	0	0	356	0.2	356	357	11.6	79.1
2025-09-17T00:00	10	0	0.1	0	0	356	0.3	355	356	11.5	80.2
2025-09-17T00:01	10	0	0.1	0	0	355	0.2	355	356	11.5	79.8
2025-09-17T00:02	10	0	0.1	0	0	354	0.3	354	355	11.4	81.3
2025-09-17T00:03	10	0	0.1	0	0	354	0.2	354	355	11.4	81.1
2025-09-17T00:04	10	0	0.1	0	0	354	0.2	353	354	11.4	82.4
2025-09-17T00:05	10	0	0.1	0	0	353	0.2	353	354	11.3	82.8
2025-09-17T00:06	10	0	0.1	0	0	353	0.2	352	353	11.3	83.4
2025-09-17T00:07	10	0	0.1	0	0	353	0.2	353	354	11.2	83.7
2025-09-17T00:08	10	0	0.1	0	0	353	0.2	353	353	11.2	81.9
2025-09-17T00:09	10	0	0.1	0	0	353	0.2	352	353	11.2	81.7
2025-09-17T00:10	10	0	0.1	0	0	353	0.2	352	353	11.2	81.2
2025-09-17T00:11	10	0	0.1	0	0	353	0.2	352	353	11.3	80.2
2025-09-17T00:12	10	0	0.1	0	0	352	0.3	352	353	11.3	80.0
2025-09-17T00:13	10	0	0.1	0	0	352	0.2	352	353	11.3	79.1
2025-09-17T00:14	10	0	0.1	0	0	352	0.2	352	353	11.4	80.0
2025-09-17T00:15	10	0	0.1	0	0	353	0.3	352	353	11.3	80.7
2025-09-17T00:16	10	0	0.1	0	0	353	0.3	352	354	11.3	80.9
2025-09-17T00:17	10	0	0.1	0	0	353	0.3	353	354	11.2	82.6
2025-09-17T00:18	10	0	0.1	0	0	354	0.2	354	355	11.0	84.4
2025-09-17T00:19	10	0	0.1	0	0	355	0.3	354	355	10.9	85.0
2025-09-17T00:20	10	0	0.1	0	0	355	0.4	354	356	10.9	85.4
2025-09-17T00:21	10	0	0.1	0	0	356	0.4	355	357	10.9	84.3
2025-09-17T00:22	10	0	0.1	0	0	357	0.4	356	357	10.9	84.1
2025-09-17T00:23	10	0	0.1	0	0	358	0.5	357	359	10.9	83.4
2025-09-17T00:24	10	0	0.1	0	0	359	0.3	358	359	10.9	83.4
2025-09-17T00:25	10	0	0.1	0	0	359	0.2	359	360	10.9	83.0
2025-09-17T00:26	10	0	0.1	0	0	359	0.2	359	360	11.0	79.9
2025-09-17T00:27	10	0	0.1	0	0	359	0.2	359	360	11.1	77.2
2025-09-17T00:28	10	0	0.1	0	0	360	0.2	359	360	11.2	76.7
2025-09-17T00:29	10	0	0.1	0	0	360	0.3	359	361	11.3	77.5
2025-09-17T00:30	10	0	0.1	0	0	360	0.2	360	361	11.4	76.8
2025-09-17T00:31	10	0	0.1	0	0	361	0.3	360	361	11.4	76.6
2025-09-17T00:32	10	0	0.1	0	0	361	0.3	360	361	11.4	76.1
2025-09-17T00:33	10	0	0.1	0	0	361	0.3	360	361	11.4	75.9
2025-09-17T00:34	10	0	0.1	0	0	361	0.3	360	361	11.5	75.1
2025-09-17T00:35	10	0	0.1	0	0	361	0.2	361	361	11.5	74.9
2025-09-17T00:36	10	0	0.1	0	0	361	0.2	361	362	11.6	74.7
2025-09-17T00:37	10	0	0.1	0	0	362	0.3	361	362	11.6	74.6
2025-09-17T00:38	10	0	0.1	0	0	362	0.3	361	363	11.6	75.1
2025-09-17T00:39	10	0	0.1	0	0	362	0.2	362	363	11.5	75.9
2025-09-17T00:40	10	0	0.1	0	0	362	0.3	362	363	11.4	77.3
2025-09-17T00:41	10	0	0.1	0	0	363	0.3	362	364	11.4	77.7
2025-09-17T00:42	10	0	0.1	0	0	363	0.3	362	364	11.4	77.5
2025-09-17T00:43	10	0	0.1	0	0	364	0.2	363	365	11.4	77.5
2025-09-17T00:44	10	0	0.1	0	0	364	0.2	363	364	11.4	77.0
2025-09-17T00:45	10	0	0.1	0	0	364	0.3	364	365	11.4	76.7
2025-09-17T00:46	10	0	0.1	0	0	364	0.3	364	365	11.5	76.2
2025-09-17T00:47	10	0	0.1	0	0	365	0.2	364	365	11.6	75.4
2025-09-17T00:48	10	0	0.1	0	0	365	0.2	364	365	11.5	76.4
2025-09-17T00:49	10	0	0.1	0	0	365	0.2	364	365	11.4	77.5
2025-09-17T00:50	10	0	0.1	0	0	365	0.2	364	365	11.3	78.3
2025-09-17T00:51	10	0	0.1	0	0	365	0.2	364	365	11.2	79.8
2025-09-17T00:52	10	0	0.0	0	0	365	0.2	364	365	11.2	81.5
2025-09-17T00:53	10	0	0.1	0	0	365	0.2	364	365	11.1	82.1
2025-09-17T00:54	10	0	0.2	0	0	365	0.2	364	365	11.2	81.4
2025-09-17T00:55	10	0	0.0	0	0	365	0.2	364	365	11.2	80.4
2025-09-17T00:56	10	0	0.1	0	0	365	0.2	365	365	11.4	77.2
2025-09-17T00:57	10	0	0.1	0	0	365	0.2	365	365	11.5	75.6
2025-09-17T00:58	10	0	0.1	0	0	365	0.3	364	365	11.5	76.8
2025-09-17T00:59	10	0	0.1	0	0	365	0.2	364	365	11.3	82.0
2025-09-17T01:00	10	0	0.1	0	0	365	0.2	365	366	11.3	78.0
2025-09-17T01:01	10	0	0.1	0	0	365	0.2	365	366	11.3	79.0
2025-09-17T01:02	10	0	0.1	0	0	365	0.2	365	366	11.3	78.6
2025-09-17T01:03	10	0	0.1	0	0	365	0.3	365	366	11.4	77.7
2025-09-17T01:04	10	0	0.1	0	0	365	0.2	365	366	11.4	77.1
2025-09-17T01:05	10	0	0.1	0	0	366	0.3	365	366	11.4	77.0
2025-09-17T01:06	10	0	0.1	0	0	366	0.2	365	366	11.4	76.4
2025-09-17T01:07	10	0	0.1	0	0	366	0.2	365	366	11.4	78.4
2025-09-17T01:08	10	0	0.0	0	0	366	0.3	365	366	11.4	78.7
2025-09-17T01:09	10	0	0.1	0	0	365	0.2	365	366	11.3	79.2
2025-09-17T01:10	10	0	0.1	0	0	366	0.2	365	366	11.3	79.3
2025-09-17T01:11	10	0	0.1	0	0	366	0.2	365	366	11.3	79.1
2025-09-17T01:12	10	0	0.1	0	0	366	0.3	365	366	11.3	79.5
2025-09-17T01:13	10	0	0.1	0	0	366	0.3	365	366	11.2	79.5
2025-09-17T01:14	10	0	0.1	0	0	365	0.2	365	366	11.2	79.6
2025-09-17T01:15	10	0	0.1	0	0	366	0.3	365	366	11.2	79.9
2025-09-17T01:16	10	0	0.1	0	0	366	0.2	365	366	11.2	79.8
2025-09-17T01:17	10	0	0.1	0	0	366	0.3	365	366	11.2	79.0
2025-09-17T01:18	10	0	0.1	0	0	366	0.2	365	366	11.2	78.8
2025-09-17T01:19	10	0	0.1	0	0	365	0.2	365	366	11.2	80.2
2025-09-17T01:20	10	0	0.1	0	0	365	0.2	365	366	11.1	83.2
2025-09-17T01:21	10	0	0.1	0	0	365	0.2	365	366	11.0	84.2
2025-09-17T01:22	10	0	0.1	0	0	365	0.2	365	366	11.0	83.5
2025-09-17T01:23	10	0	0.1	0	0	365	0.2	365	366	11.0	82.7
2025-09-17T01:24	10	0	0.1	0	0	365	0.2	365	366	10.9	83.2
2025-09-17T01:25	10	0	0.1	0	0	365	0.2	365	365	10.9	82.9
2025-09-17T01:26	10	0	0.1	0	0	365	0.2	364	365	11.0	81.9
2025-09-17T01:27	10	0	0.1	0	0	365	0.2	364	365	11.0	82.4
2025-09-17T01:28	10	0	0.1	0	0	365	0.2	364	365	11.0	82.6
2025-09-17T01:29	10	0	0.1	0	0	365	0.2	364	365	10.9	84.7
2025-09-17T01:30	10	0	0.1	0	0	365	0.2	364	365	10.9	84.5
2025-09-17T01:31	10	0	0.1	0	0	365	0.2	364	365	11.0	83.6
2025-09-17T01:32	10	0	0.0	0	0	364	0.2	364	365	11.0	82.0
2025-09-17T01:33	10	0	0.1	0	0	364	0.3	364	365	11.1	81.1
2025-09-17T01:34	10	0	0.1	0	0	364	0.2	364	364	11.1	80.4
2025-09-17T01:35	10	0	0.1	0	0	364	0.2	364	365	11.1	81.0
2025-09-17T01:36	10	0	0.1	0	0	364	0.2	363	364	11.1	81.5
2025-09-17T01:37	10	0	0.1	0	0	364	0.2	363	364	11.1	82.8
2025-09-17T01:38	10	0	0.1	0	0	363	0.2	363	364	11.1	82.6
2025-09-17T01:39	10	0	0.1	0	0	364	0.2	363	364	11.2	81.4
2025-09-17T01:40	10	0	0.1	0	0	363	0.2	363	364	11.2	81.3
2025-09-17T01:41	10	0	0.0	0	0	364	0.2	363	364	11.2	82.1
2025-09-17T01:42	10	0	0.1	0	0	364	0.2	363	364	11.2	80.9
2025-09-17T01:43	10	0	0.0	0	0	363	0.2	363	364	11.2	81.1
2025-09-17T01:44	10	0	0.0	0	0	363	0.2	363	364	11.2	81.0
2025-09-17T01:45	10	0	0.1	0	0	363	0.2	363	364	11.2	80.8
2025-09-17T01:46	10	0	0.1	0	0	363	0.3	363	364	11.2	79.8
2025-09-17T01:47	10	0	0.1	0	0	363	0.2	362	363	11.1	81.6
2025-09-17T01:48	10	0	0.0	0	0	363	0.2	362	363	11.1	81.6
2025-09-17T01:49	10	0	0.1	0	0	363	0.2	363	363	11.0	82.7
2025-09-17T01:50	10	0	0.1	0	0	363	0.2	362	363	11.0	82.8
2025-09-17T01:51	10	0	0.0	0	0	363	0.2	363	363	11.0	83.1
2025-09-17T01:52	10	0	0.0	0	0	363	0.2	363	364	11.0	82.8
2025-09-17T01:53	10	0	0.0	0	0	363	0.3	363	364	11.0	83.2
2025-09-17T01:54	10	0	0.1	0	0	363	0.2	363	364	11.0	83.4
2025-09-17T01:55	10	0	0.0	0	0	363	0.3	363	364	11.0	82.0
2025-09-17T01:56	10	0	0.0	0	0	363	0.2	363	364	11.1	81.8
2025-09-17T01:57	10	0	0.0	0	0	363	0.3	363	364	11.0	82.2
2025-09-17T01:58	10	0	0.0	0	0	364	0.3	363	364	11.0	82.4
2025-09-17T01:59	10	0	0.0	0	0	364	0.3	363	364	11.0	82.7
2025-09-17T02:00	10	0	0.0	0	0	364	0.2	364	364	11.0	82.5
2025-09-17T02:01	10	0	0.0	0	0	364	0.2	363	364	11.1	81.6
2025-09-17T02:02	10	0	0.0	0	0	364	0.2	363	364	11.1	82.2
2025-09-17T02:03	10	0	0.0	0	0	364	0.2	364	364	11.1	82.4
2025-09-17T02:04	10	0	0.1	0	0	364	0.2	363	365	11.1	82.0
2025-09-17T02:05	10	0	0.1	0	0	364	0.2	364	365	11.1	81.8
2025-09-17T02:06	10	0	0.1	0	0	364	0.2	364	365	11.1	81.7
2025-09-17T02:07	10	0	0.0	0	0	364	0.2	364	365	11.1	82.2
2025-09-17T02:08	10	0	0.0	0	0	364	0.2	364	364	11.0	83.1
2025-09-17T02:09	10	0	0.1	0	0	365	0.6	364	366	11.0	83.0
2025-09-17T02:10	10	0	0.1	0	0	365	0.2	365	366	11.1	82.3
2025-09-17T02:11	10	0	0.1	0	0	365	0.3	365	366	11.1	82.3
2025-09-17T02:12	10	0	0.1	0	0	366	0.2	365	366	11.1	82.3
2025-09-17T02:13	10	0	0.1	0	0	366	0.2	365	366	11.1	81.5
2025-09-17T02:14	10	0	0.1	0	0	366	0.2	365	366	11.1	81.3
2025-09-17T02:15	10	0	0.1	0	0	366	0.2	365	366	11.2	80.4
2025-09-17T02:16	10	0	0.1	0	0	366	0.2	365	366	11.3	80.0
2025-09-17T02:17	10	0	0.1	0	0	366	0.2	366	366	11.3	79.4
2025-09-17T02:18	10	0	0.1	0	0	366	0.2	366	367	11.3	78.9
2025-09-17T02:19	10	0	0.1	0	0	366	0.2	366	366	11.4	78.5
2025-09-17T02:20	10	0	0.1	0	0	366	0.2	366	367	11.4	78.2
2025-09-17T02:21	10	0	0.1	0	0	366	0.2	366	367	11.4	78.1
2025-09-17T02:22	10	0	0.1	0	0	366	0.2	366	367	11.4	77.9
2025-09-17T02:23	10	0	0.1	0	0	366	0.2	366	367	11.5	77.6
2025-09-17T02:24	10	0	0.1	0	0	366	0.2	366	367	11.5	77.7
2025-09-17T02:25	10	0	0.1	0	0	366	0.2	366	367	11.4	78.2
2025-09-17T02:26	10	0	0.1	0	0	366	0.2	366	367	11.4	78.1
2025-09-17T02:27	10	0	0.1	0	0	367	0.3	366	367	11.4	78.1
2025-09-17T02:28	10	0	0.1	0	0	367	0.2	366	367	11.5	78.3
2025-09-17T02:29	10	0	0.1	0	0	367	0.2	366	367	11.4	78.5
2025-09-17T02:30	10	0	0.1	0	0	366	0.2	366	367	11.4	78.0
2025-09-17T02:31	10	0	0.1	0	0	366	0.2	366	367	11.4	78.9
2025-09-17T02:32	10	0	0.1	0	0	366	0.2	366	367	11.4	79.0
2025-09-17T02:33	10	0	0.1	0	0	366	0.2	366	367	11.4	79.4
2025-09-17T02:34	10	0	0.1	0	0	366	0.2	365	366	11.4	79.6
2025-09-17T02:35	10	0	0.1	0	0	366	0.2	366	366	11.4	78.9
2025-09-17T02:36	10	0	0.1	0	0	366	0.3	365	367	11.4	79.1
2025-09-17T02:37	10	0	0.1	0	0	366	0.2	365	366	11.4	79.2
2025-09-17T02:38	10	0	0.1	0	0	366	0.2	365	366	11.4	79.7
2025-09-17T02:39	10	0	0.1	0	0	365	0.2	365	366	11.4	79.6
2025-09-17T02:40	10	0	0.0	0	0	365	0.2	365	366	11.4	78.9
2025-09-17T02:41	10	0	0.0	0	0	365	0.2	365	366	11.4	78.7
2025-09-17T02:42	10	0	0.1	0	0	365	0.2	365	366	11.5	78.3
2025-09-17T02:43	10	0	0.1	0	0	365	0.2	365	366	11.5	78.7
2025-09-17T02:44	10	0	0.1	0	0	365	0.3	365	366	11.5	77.8
2025-09-17T02:45	10	0	0.1	0	0	365	0.3	365	366	11.5	77.9
2025-09-17T02:46	10	0	0.1	0	0	365	0.3	364	365	11.5	78.1
2025-09-17T02:47	10	0	0.1	0	0	364	0.3	364	365	11.5	78.2
2025-09-17T02:48	10	0	0.1	0	0	364	0.3	364	365	11.5	78.8
2025-09-17T02:49	10	0	0.0	0	0	364	0.3	363	364	11.4	79.2
2025-09-17T02:50	10	0	0.0	0	0	363	0.2	363	364	11.4	79.9
2025-09-17T02:51	10	0	0.1	0	0	363	0.2	362	364	11.4	80.8
2025-09-17T02:52	10	0	0.1	0	0	363	0.3	362	363	11.3	81.8
2025-09-17T02:53	10	0	0.0	0	0	362	0.2	362	363	11.3	82.0
2025-09-17T02:54	10	0	0.0	0	0	362	0.3	362	363	11.3	82.2
2025-09-17T02:55	10	0	0.0	0	0	362	0.3	361	363	11.3	82.0
2025-09-17T02:56	10	0	0.0	0	0	361	0.2	361	362	11.3	81.5
2025-09-17T02:57	10	0	0.0	0	0	361	0.3	360	362	11.3	81.1
2025-09-17T02:58	10	0	0.0	0	0	361	0.3	360	362	11.3	81.4
2025-09-17T02:59	10	0	0.0	0	0	361	0.2	360	361	11.3	81.6
2025-09-17T03:00	10	0	0.0	0	0	360	0.2	360	361	11.3	81.2
2025-09-17T03:01	10	0	0.1	0	0	360	0.2	360	361	11.3	81.0
2025-09-17T03:02	10	0	0.0	0	0	360	0.2	359	360	11.3	81.5
2025-09-17T03:03	10	0	0.1	0	0	360	0.2	359	360	11.3	82.0
2025-09-17T03:04	10	0	0.1	0	0	360	0.3	359	360	11.2	82.5
2025-09-17T03:05	10	0	0.1	0	0	360	0.2	359	360	11.2	83.3
2025-09-17T03:06	10	0	0.1	0	0	359	0.2	359	360	11.1	83.6
2025-09-17T03:07	10	0	0.1	0	0	359	0.3	359	360	11.1	82.9
2025-09-17T03:08	10	0	0.1	0	0	359	0.2	359	360	11.2	82.5
2025-09-17T03:09	10	0	0.1	0	0	359	0.2	359	360	11.2	82.1
2025-09-17T03:10	10	0	0.1	0	0	359	0.2	359	360	11.2	81.6
2025-09-17T03:11	10	0	0.1	0	0	359	0.3	358	360	11.2	81.5
2025-09-17T03:12	10	0	0.1	0	0	359	0.2	358	359	11.2	81.4
2025-09-17T03:13	10	0	0.1	0	0	358	0.3	358	359	11.2	81.1
2025-09-17T03:14	10	0	0.1	0	0	358	0.2	358	359	11.2	80.9
2025-09-17T03:15	10	0	0.1	0	0	358	0.3	357	359	11.2	80.9
2025-09-17T03:16	10	0	0.1	0	0	358	0.4	357	358	11.2	80.8
2025-09-17T03:17	10	0	0.1	0	0	357	0.3	356	358	11.2	81.0
2025-09-17T03:18	10	0	0.1	0	0	357	0.3	356	358	11.2	81.4
2025-09-17T03:19	10	0	0.0	0	0	357	0.2	356	357	11.2	80.5
2025-09-17T03:20	10	0	0.1	0	0	356	0.3	356	357	11.3	79.8
2025-09-17T03:21	10	0	0.1	0	0	356	0.3	356	357	11.3	79.9
2025-09-17T03:22	10	0	0.1	0	0	356	0.3	355	357	11.3	79.8
2025-09-17T03:23	10	0	0.1	0	0	356	0.3	355	356	11.3	79.5
2025-09-17T03:24	10	0	0.1	0	0	356	0.2	356	356	11.3	80.0
2025-09-17T03:25	10	0	0.1	0	0	356	0.4	355	357	11.3	79.4
2025-09-17T03:26	10	0	0.1	0	0	357	0.3	356	357	11.4	79.3
2025-09-17T03:27	10	0	0.1	0	0	357	0.3	356	358	11.4	80.1
2025-09-17T03:28	10	0	0.1	0	0	357	0.3	356	357	11.3	80.9
2025-09-17T03:29	10	0	0.1	0	0	357	0.3	356	357	11.2	81.8
2025-09-17T03:30	10	0	0.1	0	0	357	0.3	356	357	11.2	81.3
2025-09-17T03:31	10	0	0.1	0	0	356	0.3	356	357	11.3	81.2
2025-09-17T03:32	10	0	0.1	0	0	356	0.2	356	357	11.3	80.9
2025-09-17T03:33	10	0	0.1	0	0	356	0.2	356	357	11.3	80.6
2025-09-17T03:34	10	0	0.1	0	0	356	0.3	356	357	11.3	81.0
2025-09-17T03:35	10	0	0.1	0	0	356	0.2	356	357	11.3	81.1
2025-09-17T03:36	10	0	0.1	0	0	356	0.2	355	356	11.3	81.4
2025-09-17T03:37	10	0	0.1	0	0	356	0.2	356	357	11.2	81.5
2025-09-17T03:38	10	0	0.1	0	0	356	0.2	355	356	11.2	81.8
2025-09-17T03:39	10	0	0.1	0	0	356	0.2	355	356	11.1	82.2
2025-09-17T03:40	10	0	0.1	0	0	356	0.2	355	356	11.1	82.5
2025-09-17T03:41	10	0	0.1	0	0	355	0.2	355	356	11.1	83.0
2025-09-17T03:42	10	0	0.1	0	0	356	0.2	355	356	11.1	82.8
2025-09-17T03:43	10	0	0.1	0	0	355	0.2	355	356	11.1	83.0
2025-09-17T03:44	10	0	0.1	0	0	355	0.3	355	356	11.1	83.0
2025-09-17T03:45	10	0	0.1	0	0	355	0.2	355	356	11.1	82.5
2025-09-17T03:46	10	0	0.1	0	0	355	0.3	354	355	11.1	82.0
2025-09-17T03:47	10	0	0.1	0	0	354	0.2	354	355	11.1	82.4
2025-09-17T03:48	10	0	0.1	0	0	354	0.3	353	354	10.9	83.5
2025-09-17T03:49	10	0	0.1	0	0	353	0.3	353	354	10.9	83.7
2025-09-17T03:50	10	0	0.1	0	0	353	0.3	352	353	10.9	84.1
2025-09-17T03:51	10	0	0.1	0	0	353	0.2	352	353	10.8	84.7
2025-09-17T03:52	10	0	0.1	0	0	352	0.3	352	353	10.7	84.6
2025-09-17T03:53	10	0	0.1	0	0	352	0.3	352	353	10.7	84.8
2025-09-17T03:54	10	0	0.1	0	0	352	0.2	352	353	10.6	85.2
2025-09-17T03:55	10	0	0.1	0	0	352	0.3	352	353	10.6	84.8
2025-09-17T03:56	10	0	0.1	0	0	352	0.2	352	353	10.7	84.6
2025-09-17T03:57	10	0	0.1	0	0	353	0.3	352	353	10.7	83.7
2025-09-17T03:58	10	0	0.1	0	0	353	0.3	352	353	10.8	83.0
2025-09-17T03:59	10	0	0.1	0	0	353	0.2	352	353	10.9	82.7
2025-09-17T04:00	10	0	0.1	0	0	353	0.2	352	353	10.9	82.4
2025-09-17T04:01	10	0	0.1	0	0	353	0.2	352	353	10.9	82.3
2025-09-17T04:02	10	0	0.1	0	0	353	0.2	352	353	10.9	82.3
2025-09-17T04:03	10	0	0.1	0	0	353	0.2	353	353	10.9	82.1
2025-09-17T04:04	10	0	0.1	0	0	353	0.3	352	353	10.9	82.0
2025-09-17T04:05	10	0	0.1	0	0	353	0.2	352	353	10.9	82.1
2025-09-17T04:06	10	0	0.1	0	0	353	0.3	352	354	10.9	82.0
2025-09-17T04:07	10	0	0.1	0	0	353	0.2	352	353	10.9	82.0
2025-09-17T04:08	10	0	0.1	0	0	352	0.2	352	353	10.9	82.3
2025-09-17T04:09	10	0	0.1	0	0	353	0.2	352	353	10.8	82.7
2025-09-17T04:10	10	0	0.1	0	0	352	0.3	352	353	10.7	83.1
2025-09-17T04:11	10	0	0.1	0	0	352	0.1	352	352	10.6	83.5
2025-09-17T04:12	10	0	0.1	0	0	352	0.3	351	353	10.6	84.0
2025-09-17T04:13	10	0	0.1	0	0	352	0.2	352	353	10.5	84.4
2025-09-17T04:14	10	0	0.1	0	0	352	0.2	352	353	10.5	84.4
2025-09-17T04:15	10	0	0.1	0	0	352	0.2	352	353	10.5	84.3
2025-09-17T04:16	10	0	0.1	0	0	352	0.2	352	353	10.6	84.7
2025-09-17T04:17	10	0	0.1	0	0	352	0.3	351	353	10.5	84.9
2025-09-17T04:18	10	0	0.1	0	0	352	0.3	351	352	10.5	85.3
2025-09-17T04:19	10	0	0.1	0	0	352	0.3	351	352	10.4	85.4
2025-09-17T04:20	10	0	0.1	0	0	352	0.2	351	352	10.4	86.1
2025-09-17T04:21	10	0	0.1	0	0	352	0.2	351	352	10.4	86.9
2025-09-17T04:22	10	0	0.1	0	0	352	0.3	351	352	10.3	87.6
2025-09-17T04:23	10	0	0.1	0	0	352	0.2	351	352	10.3	88.0
2025-09-17T04:24	10	0	0.1	0	0	352	0.2	351	352	10.3	87.9
2025-09-17T04:25	10	0	0.1	0	0	352	0.3	351	352	10.2	88.2
2025-09-17T04:26	10	0	0.1	0	0	352	0.3	351	352	10.1	88.9
2025-09-17T04:27	10	0	0.1	0	0	352	0.3	351	352	10.1	89.4
2025-09-17T04:28	10	0	0.1	0	0	352	0.3	351	352	10.1	89.2
2025-09-17T04:29	10	0	0.1	0	0	352	0.2	351	353	10.1	88.8
2025-09-17T04:30	10	0	0.1	0	0	352	0.2	351	352	10.0	89.1
2025-09-17T04:31	10	0	0.1	0	0	352	0.2	351	352	9.9	89.7
2025-09-17T04:32	10	0	0.1	0	0	352	0.3	351	353	9.9	90.1
2025-09-17T04:33	10	0	0.1	0	0	352	0.2	351	352	9.9	89.4
2025-09-17T04:34	10	0	0.1	0	0	351	0.2	351	352	9.9	89.9
2025-09-17T04:35	10	0	0.1	0	0	351	0.2	351	352	9.8	90.1
2025-09-17T04:36	10	0	0.1	0	0	351	0.3	351	352	9.8	90.0
2025-09-17T04:37	10	0	0.1	0	0	351	0.2	351	352	9.9	89.9
2025-09-17T04:38	10	0	0.1	0	0	351	0.3	350	351	9.8	90.2
2025-09-17T04:39	10	0	0.1	0	0	351	0.2	350	351	9.8	90.5
2025-09-17T04:40	10	0	0.1	0	0	350	0.3	350	351	9.8	90.0
2025-09-17T04:41	10	0	0.1	0	0	350	0.2	350	351	10.0	88.6
2025-09-17T04:42	10	0	0.1	0	0	350	0.2	349	350	10.0	88.3
2025-09-17T04:43	10	0	0.1	0	0	350	0.3	349	350	10.0	88.6
2025-09-17T04:44	10	0	0.1	0	0	349	0.3	349	350	10.0	88.4
2025-09-17T04:45	10	0	0.1	0	0	349	0.3	349	350	10.1	87.6
2025-09-17T04:46	10	0	0.1	0	0	349	0.3	349	350	10.2	86.2
2025-09-17T04:47	10	0	0.1	0	0	349	0.2	349	349	10.3	86.4
2025-09-17T04:48	10	0	0.1	0	0	349	0.4	348	350	10.2	86.9
2025-09-17T04:49	10	0	0.1	0	0	349	0.2	349	350	10.2	86.9
2025-09-17T04:50	10	0	0.1	0	0	350	0.3	349	350	10.2	85.9
2025-09-17T04:51	10	0	0.1	0	0	350	0.2	350	351	10.4	84.1
2025-09-17T04:52	10	0	0.1	0	0	350	0.2	350	351	10.7	81.3
2025-09-17T04:53	10	0	0.1	0	0	350	0.2	350	351	10.7	81.8
2025-09-17T04:54	10	0	0.1	0	0	350	0.2	349	351	10.5	83.2
2025-09-17T04:55	10	0	0.1	0	0	350	0.3	350	351	10.4	84.2
2025-09-17T04:56	10	0	0.1	0	0	351	0.2	350	351	10.4	84.0
2025-09-17T04:57	10	0	0.1	0	0	351	0.3	350	351	10.4	83.8
2025-09-17T04:58	10	0	0.1	0	0	351	0.2	350	351	10.4	83.1
2025-09-17T04:59	10	0	0.1	0	0	350	0.3	350	351	10.6	82.2
2025-09-17T05:00	10	0	0.1	0	0	350	0.2	350	351	10.4	83.9
2025-09-17T05:01	10	0	0.1	0	0	349	0.3	349	350	10.5	83.5
2025-09-17T05:02	10	0	0.1	0	0	349	0.3	348	350	10.5	83.5
2025-09-17T05:03	10	0	0.1	0	0	349	0.4	348	349	10.4	85.2
2025-09-17T05:04	10	0	0.1	0	0	348	0.3	348	349	10.1	87.6
2025-09-17T05:05	10	0	0.1	0	1	348	0.2	348	349	10.0	87.8
2025-09-17T05:06	10	0	0.1	0	1	348	0.2	348	349	10.0	87.3
2025-09-17T05:07	10	0	0.1	0	1	348	0.2	347	348	10.0	87.9
2025-09-17T05:08	10	0	0.1	0	1	348	0.2	348	349	9.9	88.7
2025-09-17T05:09	10	0	0.1	0	1	348	0.2	347	348	9.9	89.0
2025-09-17T05:10	10	0	0.1	0	1	348	0.2	347	348	9.8	89.4
2025-09-17T05:11	10	0	0.1	0	1	347	0.2	347	348	9.8	89.6
2025-09-17T05:12	10	0	0.1	0	1	347	0.3	347	348	9.9	88.7
2025-09-17T05:13	10	1	0.1	0	1	347	0.2	347	348	9.9	88.5
2025-09-17T05:14	10	1	0.1	1	1	347	0.3	346	348	9.9	88.2
2025-09-17T05:15	10	1	0.1	1	1	348	0.3	347	348	9.9	87.5
2025-09-17T05:16	10	1	0.1	1	1	348	0.2	348	349	9.9	87.7
2025-09-17T05:17	10	1	0.1	1	1	348	0.2	348	348	9.8	88.1
2025-09-17T05:18	10	1	0.1	1	2	348	0.3	347	349	9.7	88.3
2025-09-17T05:19	10	2	0.1	1	2	348	0.2	348	349	9.7	88.1
2025-09-17T05:20	10	2	0.1	2	2	348	0.3	348	349	9.7	88.3
2025-09-17T05:21	10	2	0.1	2	2	348	0.2	348	349	9.6	88.8
2025-09-17T05:22	10	2	0.1	2	2	348	0.2	347	348	9.6	89.2
2025-09-17T05:23	10	2	0.1	2	2	348	0.2	347	348	9.5	89.5
2025-09-17T05:24	10	2	0.1	2	3	347	0.2	347	348	9.4	89.8
2025-09-17T05:25	10	2	0.1	2	3	347	0.3	346	348	9.3	90.3
2025-09-17T05:26	10	2	0.1	2	3	347	0.3	346	347	9.4	89.9
2025-09-17T05:27	10	3	0.1	2	3	347	0.6	346	348	9.4	89.6
2025-09-17T05:28	10	3	0.1	3	3	349	0.4	348	349	9.3	89.7
2025-09-17T05:29	10	3	0.1	3	3	349	0.3	348	350	9.3	90.0
2025-09-17T05:30	10	3	0.1	3	3	349	0.3	349	350	9.3	89.8
2025-09-17T05:31	10	3	0.1	3	3	349	0.3	348	349	9.3	89.6
2025-09-17T05:32	10	3	0.1	3	3	348	0.2	348	349	9.3	89.7
2025-09-17T05:33	10	3	0.1	3	4	348	0.3	347	348	9.2	90.1
2025-09-17T05:34	10	4	0.1	3	4	347	0.2	347	348	9.2	89.9
2025-09-17T05:35	10	4	0.1	4	4	348	0.3	347	348	9.3	89.3
2025-09-17T05:36	10	4	0.1	4	4	348	0.2	347	348	9.4	88.9
2025-09-17T05:37	10	4	0.1	4	4	348	0.2	347	348	9.4	88.7
2025-09-17T05:38	10	4	0.2	4	5	348	0.2	347	348	9.5	88.3
2025-09-17T05:39	10	5	0.3	5	6	348	0.2	347	348	9.5	88.4
2025-09-17T05:40	10	6	0.2	6	6	348	0.2	348	349	9.5	88.4
2025-09-17T05:41	10	7	0.3	6	7	348	0.3	348	349	9.5	88.5
2025-09-17T05:42	10	8	0.5	7	9	349	0.4	348	350	9.5	88.6
2025-09-17T05:43	10	9	0.1	9	9	350	0.3	349	350	9.5	88.7
2025-09-17T05:44	10	9	0.1	9	9	350	0.3	350	351	9.5	88.8
2025-09-17T05:45	10	10	0.4	9	11	351	0.3	350	351	9.5	88.6
2025-09-17T05:46	10	11	0.2	11	12	351	0.3	351	352	9.5	88.6
2025-09-17T05:47	10	12	0.2	12	12	352	0.2	351	352	9.6	88.5
2025-09-17T05:48	10	12	0.3	12	13	352	0.3	352	353	9.6	88.4
2025-09-17T05:49	10	14	0.8	13	15	353	0.3	352	353	9.6	88.3
2025-09-17T05:50	10	16	0.4	15	17	353	0.2	353	354	9.6	88.3
2025-09-17T05:51	10	17	0.1	17	17	354	0.2	353	354	9.6	88.1
2025-09-17T05:52	10	15	0.8	14	17	354	0.2	353	354	9.6	87.8
2025-09-17T05:53	10	16	1.0	14	17	354	0.2	353	355	9.7	87.8
2025-09-17T05:54	10	18	0.4	17	18	354	0.2	354	355	9.7	87.7
2025-09-17T05:55	10	18	0.1	18	18	355	0.2	354	355	9.7	87.5
2025-09-17T05:56	10	19	0.9	18	21	355	0.2	354	355	9.8	87.2
2025-09-17T05:57	10	21	0.1	21	22	355	0.2	355	356	9.8	86.8
2025-09-17T05:58	10	21	0.2	21	22	355	0.2	355	356	9.8	87.0
2025-09-17T05:59	10	23	0.7	22	24	356	0.3	355	356	9.7	87.8
2025-09-17T06:00	10	24	0.3	23	24	356	0.3	356	357	9.8	87.4
2025-09-17T06:01	10	24	0.3	23	24	357	0.2	356	357	9.9	87.2
2025-09-17T06:02	10	23	0.3	23	24	357	0.2	357	358	10.0	86.6
2025-09-17T06:03	10	25	0.7	24	26	358	0.2	357	358	10.1	86.2
2025-09-17T06:04	10	26	0.3	26	27	358	0.3	358	359	10.1	85.6
2025-09-17T06:05	10	28	0.3	27	28	359	0.2	358	359	10.1	85.5
2025-09-17T06:06	10	28	0.1	28	28	359	0.2	359	360	10.2	84.7
2025-09-17T06:07	10	28	0.2	28	28	359	0.2	359	360	10.3	84.9
2025-09-17T06:08	10	29	0.4	28	30	360	0.3	359	360	10.2	85.1
2025-09-17T06:09	10	28	1.5	25	30	360	0.3	359	360	10.2	85.4
2025-09-17T06:10	10	24	1.3	23	27	360	0.2	359	361	10.2	86.2
2025-09-17T06:11	10	29	0.4	27	29	360	0.2	360	361	10.2	86.1
2025-09-17T06:12	10	30	1.0	29	32	360	0.2	360	361	10.2	86.0
2025-09-17T06:13	10	33	0.5	32	34	361	0.3	360	362	10.3	85.4
2025-09-17T06:14	10	35	0.7	34	36	361	0.2	361	362	10.3	86.2
2025-09-17T06:15	10	36	0.3	36	37	362	0.3	361	363	10.3	86.4
2025-09-17T06:16	10	37	0.8	36	38	362	0.3	362	363	10.3	86.2
2025-09-17T06:17	10	38	0.8	36	39	363	0.2	362	363	10.3	86.1
2025-09-17T06:18	10	36	0.4	36	37	363	0.2	362	363	10.3	85.0
2025-09-17T06:19	10	36	0.9	35	37	363	0.2	363	364	10.4	84.4
2025-09-17T06:20	10	34	0.1	34	35	363	0.2	363	364	10.5	84.3
2025-09-17T06:21	10	36	0.8	34	37	363	0.2	363	364	10.5	84.3
2025-09-17T06:22	10	36	0.7	35	37	363	0.2	363	364	10.5	82.8
2025-09-17T06:23	10	35	0.2	34	35	364	0.2	363	364	10.6	82.4
2025-09-17T06:24	10	34	0.5	33	35	364	0.2	363	364	10.6	82.8
2025-09-17T06:25	10	34	0.2	34	34	364	0.2	363	364	10.6	83.1
2025-09-17T06:26	10	34	0.3	33	35	364	0.3	364	365	10.7	82.2
2025-09-17T06:27	10	35	0.5	34	36	365	0.2	364	365	10.8	81.7
2025-09-17T06:28	10	37	1.1	36	40	365	0.2	364	365	10.8	81.5
2025-09-17T06:29	10	40	0.6	39	41	365	0.2	365	366	10.7	81.8
2025-09-17T06:30	10	42	0.2	41	42	366	0.2	365	366	10.8	81.6
2025-09-17T06:31	10	43	0.6	42	44	366	0.3	366	367	10.9	81.0
2025-09-17T06:32	10	44	0.3	44	45	367	0.3	366	368	11.0	81.0
2025-09-17T06:33	10	41	1.8	39	45	368	0.2	367	368	11.1	80.4
2025-09-17T06:34	10	39	0.6	38	40	367	0.3	366	368	11.1	81.2
2025-09-17T06:35	10	42	1.7	39	44	368	0.3	367	368	11.1	80.5
2025-09-17T06:36	10	47	1.3	45	49	368	0.3	368	369	11.1	80.0
2025-09-17T06:37	10	47	0.3	46	48	369	0.2	368	370	11.3	79.5
2025-09-17T06:38	10	45	0.3	45	46	369	0.3	369	370	11.4	80.6
2025-09-17T06:39	10	43	0.8	42	45	369	0.4	368	370	11.3	80.6
2025-09-17T06:40	10	45	1.0	43	46	370	0.3	369	370	11.4	80.5
2025-09-17T06:41	10	45	0.5	45	46	370	0.3	370	371	11.4	81.1
2025-09-17T06:42	10	47	0.2	46	47	371	0.3	370	371	11.4	80.4
2025-09-17T06:43	10	49	0.9	47	50	371	0.3	370	372	11.3	80.6
2025-09-17T06:44	10	49	0.8	48	50	371	0.2	371	372	11.4	78.7
2025-09-17T06:45	10	51	0.9	48	52	371	0.2	371	372	11.4	78.7
2025-09-17T06:46	10	50	1.2	48	52	372	0.2	371	372	11.5	78.6
2025-09-17T06:47	10	52	0.1	52	52	372	0.3	372	373	11.5	78.6
2025-09-17T06:48	10	53	0.4	52	53	373	0.2	372	373	11.5	78.3
2025-09-17T06:49	10	52	0.9	51	53	373	0.2	372	373	11.5	78.1
2025-09-17T06:50	10	51	0.8	49	52	373	0.2	373	373	11.6	79.2
2025-09-17T06:51	10	53	0.4	52	53	373	0.4	372	374	11.5	81.8
2025-09-17T06:52	10	54	0.4	53	55	373	0.2	372	374	11.3	81.8
2025-09-17T06:53	10	55	0.5	54	56	373	0.3	372	374	11.3	82.7
2025-09-17T06:54	10	55	0.3	55	56	373	0.2	372	373	11.3	82.9
2025-09-17T06:55	10	56	0.3	55	56	373	0.2	373	374	11.3	81.7
2025-09-17T06:56	10	52	1.3	50	55	373	0.3	372	373	11.3	81.7
2025-09-17T06:57	10	55	1.1	53	56	373	0.2	372	373	11.4	81.0
2025-09-17T06:58	10	54	0.3	53	55	374	0.2	373	374	11.4	80.5
2025-09-17T06:59	10	59	1.9	55	61	374	0.3	374	375	11.5	81.0
2025-09-17T07:00	10	61	0.8	58	61	375	0.2	375	376	11.5	80.8
2025-09-17T07:01	10	59	0.6	58	60	375	0.2	375	376	11.6	80.9
2025-09-17T07:02	10	61	0.5	60	62	376	0.2	375	376	11.6	80.1
2025-09-17T07:03	10	60	0.9	58	62	376	0.3	375	377	11.6	80.7
2025-09-17T07:04	10	59	0.3	58	60	376	0.4	375	377	11.7	79.8
2025-09-17T07:05	10	59	0.5	58	60	377	0.3	376	377	11.7	79.8
2025-09-17T07:06	10	59	0.2	58	59	377	0.3	376	377	11.8	79.7
2025-09-17T07:07	10	58	1.0	56	61	377	0.3	376	378	11.8	79.7
2025-09-17T07:08	10	59	1.4	56	61	378	0.2	377	378	11.9	80.8
2025-09-17T07:09	10	56	0.6	54	57	377	0.4	376	378	12.0	79.4
2025-09-17T07:10	10	56	4.3	52	65	377	0.3	376	377	12.0	78.7
2025-09-17T07:11	10	68	1.0	65	69	378	0.5	377	379	12.0	79.1
2025-09-17T07:12	10	68	0.5	66	69	378	0.3	378	379	12.0	78.9
2025-09-17T07:13	10	64	0.8	63	66	378	0.4	377	379	12.1	78.6
2025-09-17T07:14	10	63	1.5	61	65	378	0.3	377	379	12.1	78.8
2025-09-17T07:15	10	62	4.6	55	68	378	0.4	377	379	12.1	79.2
2025-09-17T07:16	10	67	0.9	66	68	379	0.3	378	379	12.1	78.6
2025-09-17T07:17	10	64	1.1	63	66	379	0.2	379	380	12.2	78.6
2025-09-17T07:18	10	64	0.9	62	65	380	0.3	379	380	12.4	78.8
2025-09-17T07:19	10	67	0.9	65	68	380	0.4	379	380	12.3	77.2
2025-09-17T07:20	10	69	1.1	67	71	381	0.2	380	381	12.4	78.2
2025-09-17T07:21	10	69	1.0	67	70	381	0.3	380	381	12.6	77.2
2025-09-17T07:22	10	74	1.6	70	76	381	0.2	380	381	12.6	75.8
2025-09-17T07:23	10	74	1.3	71	76	381	0.2	380	382	12.6	75.7
2025-09-17T07:24	10	72	1.4	69	75	381	0.2	380	381	12.7	74.5
2025-09-17T07:25	10	76	1.9	74	79	381	0.6	380	382	12.7	75.2
2025-09-17T07:26	10	80	0.5	79	81	382	0.2	382	383	12.7	76.0
2025-09-17T07:27	10	78	0.3	78	79	382	0.2	382	383	12.7	75.4
2025-09-17T07:28	10	78	0.2	78	79	382	0.2	382	383	12.7	74.8
2025-09-17T07:29	10	77	1.3	76	79	383	0.2	382	383	12.7	75.4
2025-09-17T07:30	10	80	1.1	78	82	383	0.3	383	384	12.7	75.3
2025-09-17T07:31	10	75	2.3	72	80	383	0.3	382	384	12.8	75.6
2025-09-17T07:32	10	78	1.3	76	80	383	0.4	383	384	12.8	75.7
2025-09-17T07:33	10	79	0.8	77	80	385	0.4	384	385	12.9	76.1
2025-09-17T07:34	10	83	1.2	79	84	385	0.2	385	385	12.9	76.0
2025-09-17T07:35	10	82	0.6	81	84	385	0.2	385	386	12.9	75.2
2025-09-17T07:36	10	83	0.4	82	84	386	0.3	385	387	13.0	75.1
2025-09-17T07:37	10	83	0.5	82	84	387	0.3	386	388	13.1	74.9
2025-09-17T07:38	10	84	0.7	83	85	387	0.3	387	388	13.3	75.1
2025-09-17T07:39	10	87	0.6	85	88	388	0.4	387	389	13.3	73.8
2025-09-17T07:40	10	88	0.3	88	89	389	0.2	388	389	13.4	74.1
2025-09-17T07:41	10	90	0.8	88	91	389	0.3	389	390	13.4	74.5
2025-09-17T07:42	10	90	0.6	89	91	390	0.2	389	390	13.5	74.6
2025-09-17T07:43	10	89	0.6	88	90	390	0.2	389	390	13.5	74.3
2025-09-17T07:44	10	90	0.6	89	91	390	0.2	390	391	13.5	73.2
2025-09-17T07:45	10	92	0.5	91	93	391	0.3	390	392	13.6	73.2
2025-09-17T07:46	10	93	0.4	93	94	392	0.3	391	392	13.7	73.1
2025-09-17T07:47	10	93	0.3	92	93	392	0.3	391	393	13.8	75.7
2025-09-17T07:48	10	94	0.9	93	96	392	0.3	391	393	13.6	72.8
2025-09-17T07:49	10	96	0.5	95	96	393	0.3	392	393	13.6	74.0
2025-09-17T07:50	10	97	0.4	96	97	393	0.2	392	393	13.6	73.7
2025-09-17T07:51	10	97	0.6	96	98	393	0.2	393	394	13.5	73.7
2025-09-17T07:52	10	98	0.2	98	99	394	0.3	393	394	13.7	73.2
2025-09-17T07:53	10	99	0.5	99	100	394	0.2	394	395	13.9	71.9
2025-09-17T07:54	10	100	0.4	99	100	395	0.2	394	395	14.1	69.1
2025-09-17T07:55	10	100	0.7	99	101	395	0.3	395	396	14.5	67.5
2025-09-17T07:56	10	100	0.5	99	101	396	0.1	395	396	14.6	69.5
2025-09-17T07:57	10	101	1.2	99	102	396	0.2	396	397	14.2	73.7
2025-09-17T07:58	10	102	0.7	101	104	396	0.5	395	397	13.9	73.2
2025-09-17T07:59	10	102	1.9	100	105	396	0.3	395	396	13.9	73.3
2025-09-17T08:00	10	105	0.7	103	106	397	0.2	397	398	13.9	71.3
2025-09-17T08:01	10	106	0.5	105	107	397	0.2	397	398	14.1	73.5
2025-09-17T08:02	10	99	2.0	96	104	397	0.3	397	398	14.1	73.5
2025-09-17T08:03	10	101	2.2	96	104	397	0.3	396	398	14.1	73.5
2025-09-17T08:04	10	98	1.6	96	100	398	0.4	396	398	14.1	73.5
2025-09-17T08:05	10	100	1.2	98	103	397	0.3	396	398	14.1	73.5
2025-09-17T08:06	10	101	1.5	98	103	397	0.5	396	398	14.1	73.5
2025-09-17T08:07	10	92	6.9	80	100	397	1.0	395	398	14.1	73.5
2025-09-17T08:08	10	99	0.5	98	99	397	0.4	396	398	14.0	73.3
2025-09-17T08:09	10	95	1.0	93	98	397	0.6	396	398	14.1	75.7
2025-09-17T08:10	10	98	0.9	95	99	396	0.2	396	397	13.9	73.2
2025-09-17T08:11	10	94	2.0	90	97	396	0.5	395	396	13.8	73.7
2025-09-17T08:12	10	97	1.7	92	98	396	0.3	395	396	13.7	73.5
2025-09-17T08:13	10	97	0.6	96	98	396	0.4	395	397	13.7	73.3
2025-09-17T08:14	10	96	0.7	94	97	397	0.3	396	398	13.8	74.5
2025-09-17T08:15	10	100	1.0	97	101	397	0.4	397	398	13.8	73.3
2025-09-17T08:16	10	102	0.7	101	104	398	0.4	397	399	13.8	73.5
2025-09-17T08:17	10	105	1.2	103	107	399	0.2	399	400	13.9	73.6
2025-09-17T08:18	10	108	0.7	107	110	400	0.4	399	401	13.9	72.9
2025-09-17T08:19	10	110	0.7	109	111	400	0.3	399	401	13.9	72.8
2025-09-17T08:20	10	110	0.7	109	111	400	0.2	399	401	14.0	71.9
2025-09-17T08:21	10	110	0.6	109	111	400	0.2	400	401	14.1	71.2
2025-09-17T08:22	10	112	0.6	111	113	401	0.2	401	401	14.1	72.5
2025-09-17T08:23	10	113	0.6	112	114	402	0.2	401	402	14.3	72.2
2025-09-17T08:24	10	113	0.6	112	114	402	0.2	402	403	14.4	71.5
2025-09-17T08:25	10	113	1.0	112	115	403	0.3	402	403	14.6	71.2
2025-09-17T08:26	10	115	0.4	115	116	404	0.4	403	404	14.6	71.1
2025-09-17T08:27	10	116	0.2	115	116	404	0.3	404	405	14.4	70.8
2025-09-17T08:28	10	116	0.2	116	117	405	0.3	404	405	14.4	71.2
2025-09-17T08:29	10	117	0.1	117	117	405	0.3	404	406	14.4	71.1
2025-09-17T08:30	10	117	0.1	117	118	405	0.3	405	406	14.3	71.7
2025-09-17T08:31	10	118	0.2	118	118	406	0.4	405	407	14.5	71.2
2025-09-17T08:32	10	118	0.2	118	119	406	0.3	405	406	14.6	70.7
2025-09-17T08:33	10	118	0.1	118	119	406	0.3	405	407	14.6	71.6
2025-09-17T08:34	10	116	2.0	113	119	406	0.4	406	407	14.7	71.5
2025-09-17T08:35	10	119	0.2	119	119	406	0.3	406	407	14.8	71.1
2025-09-17T08:36	10	120	0.2	119	120	407	0.3	406	408	15.0	68.3
2025-09-17T08:37	10	120	0.2	120	120	407	0.3	407	408	15.1	67.0
2025-09-17T08:38	10	120	0.2	120	121	407	0.3	406	408	15.2	65.7
2025-09-17T08:39	10	120	0.6	118	120	407	0.4	406	408	15.7	63.9
2025-09-17T08:40	10	119	0.3	118	120	407	0.2	407	408	15.6	67.2
2025-09-17T08:41	10	120	0.2	119	120	408	0.3	407	409	15.2	67.4
2025-09-17T08:42	10	120	0.4	119	121	408	0.2	408	409	15.1	68.8
2025-09-17T08:43	10	121	0.2	120	121	409	0.3	408	409	15.1	68.4
2025-09-17T08:44	10	120	0.7	119	121	409	0.2	408	409	15.5	67.8
2025-09-17T08:45	10	121	0.4	121	122	409	0.3	408	410	15.2	66.4
2025-09-17T08:46	10	123	0.1	122	123	409	0.3	409	410	15.1	66.7
2025-09-17T08:47	10	123	0.1	123	123	409	0.3	409	410	15.3	67.0
2025-09-17T08:48	10	123	0.1	123	123	409	0.2	409	410	15.2	66.4
2025-09-17T08:49	10	123	0.1	123	123	409	0.3	408	410	15.2	66.3
2025-09-17T08:50	10	123	0.3	123	124	409	0.3	408	409	15.2	66.5
2025-09-17T08:51	10	123	0.4	122	123	409	0.3	408	410	15.3	66.8
2025-09-17T08:52	10	123	0.4	123	124	410	0.3	410	411	15.4	68.3
2025-09-17T08:53	10	124	0.1	124	124	410	0.2	410	410	15.4	67.1
2025-09-17T08:54	10	124	1.2	120	125	410	0.3	409	411	15.3	65.2
2025-09-17T08:55	10	121	3.9	115	125	410	0.4	409	411	15.3	66.5
2025-09-17T08:56	10	125	0.1	125	125	411	0.3	410	412	15.7	64.6
2025-09-17T08:57	10	125	0.1	125	126	411	0.2	411	412	15.9	65.4
2025-09-17T08:58	10	126	0.1	126	126	412	0.2	411	412	15.6	65.6
2025-09-17T08:59	10	126	0.4	125	126	412	0.2	411	412	15.6	64.9
2025-09-17T09:00	10	126	0.3	125	126	412	0.2	411	412	15.7	65.2
2025-09-17T09:01	10	125	1.0	123	126	412	0.3	411	412	15.7	64.1
2025-09-17T09:02	10	126	0.3	125	126	412	0.3	412	413	15.6	63.7
2025-09-17T09:03	10	127	0.4	126	127	412	0.4	412	413	15.5	63.3
2025-09-17T09:04	10	127	0.1	127	127	412	0.3	412	413	15.6	62.7
2025-09-17T09:05	10	128	0.2	127	128	414	0.4	413	415	15.6	63.3
2025-09-17T09:06	10	128	0.2	127	129	414	0.4	413	415	15.4	62.8
2025-09-17T09:07	10	128	0.2	128	129	414	0.3	413	415	15.4	63.4
2025-09-17T09:08	10	128	0.2	128	129	415	0.5	414	416	15.6	63.3
2025-09-17T09:09	10	128	0.3	127	129	414	0.5	413	415	15.5	61.6
2025-09-17T09:10	10	129	0.4	128	129	413	0.3	413	414	15.7	61.6
2025-09-17T09:11	10	129	0.2	129	130	414	0.5	414	416	15.9	60.3
2025-09-17T09:12	10	129	0.2	129	130	415	0.5	414	416	16.1	62.1
2025-09-17T09:13	10	130	0.2	129	130	414	0.3	414	415	15.7	60.4
2025-09-17T09:14	10	130	0.2	130	131	414	0.2	413	415	15.5	60.6
2025-09-17T09:15	10	130	0.2	130	131	414	0.6	413	415	15.6	60.7
2025-09-17T09:16	10	131	0.2	130	131	414	0.3	414	415	15.6	60.7
2025-09-17T09:17	10	131	0.1	131	131	415	0.3	415	416	15.8	61.0
2025-09-17T09:18	10	131	0.2	131	132	415	0.5	414	416	15.8	60.5
2025-09-17T09:19	10	131	0.2	131	132	415	0.4	414	416	15.6	61.0
2025-09-17T09:20	10	132	0.2	131	132	415	1.0	414	417	15.6	60.0
2025-09-17T09:21	10	132	0.2	131	132	417	0.3	416	417	15.9	61.7
2025-09-17T09:22	10	132	0.2	132	133	416	0.2	416	417	15.9	59.9
2025-09-17T09:23	10	132	0.2	132	133	417	0.3	416	418	16.0	59.9
2025-09-17T09:24	10	133	0.1	133	133	418	0.5	416	419	16.3	58.2
2025-09-17T09:25	10	133	0.1	133	134	417	0.3	416	417	16.0	53.1
2025-09-17T09:26	10	133	0.1	133	134	416	0.3	415	417	15.9	52.3
2025-09-17T09:27	10	134	0.2	133	134	417	0.3	416	418	16.0	53.1
2025-09-17T09:28	10	134	0.1	134	134	418	0.3	417	418	16.0	53.4
2025-09-17T09:29	10	134	0.1	134	135	417	0.7	416	418	16.0	54.9
2025-09-17T09:30	10	135	0.2	134	135	417	0.5	416	419	15.8	54.7
2025-09-17T09:31	10	135	0.2	135	135	417	0.6	416	419	15.9	56.3
2025-09-17T09:32	10	135	0.1	135	135	417	0.3	416	417	15.8	55.8
2025-09-17T09:33	10	135	0.1	135	135	418	0.4	417	418	15.8	57.2
2025-09-17T09:34	10	135	0.3	135	136	417	0.2	416	417	15.8	56.9
2025-09-17T09:35	10	136	0.1	135	136	417	0.3	416	418	15.8	58.8
2025-09-17T09:36	10	136	0.1	136	136	418	0.3	418	419	15.9	59.9
2025-09-17T09:37	10	136	0.1	136	136	418	0.4	417	418	15.7	58.4
2025-09-17T09:38	10	136	0.1	136	137	417	0.6	416	419	15.7	57.7
2025-09-17T09:39	10	136	0.1	136	137	416	0.5	415	416	15.6	57.7
2025-09-17T09:40	10	137	0.1	136	137	416	0.8	415	417	15.8	58.3
2025-09-17T09:41	10	137	0.1	137	137	418	0.7	417	419	16.0	58.8
2025-09-17T09:42	10	137	0.2	137	138	420	1.0	418	421	16.2	58.5
2025-09-17T09:43	10	138	0.2	138	138	420	0.5	419	421	16.3	57.9
2025-09-17T09:44	10	138	0.2	138	139	419	0.3	418	419	15.9	56.4
2025-09-17T09:45	10	139	0.1	139	139	419	0.4	418	420	15.9	56.6
2025-09-17T09:46	10	139	0.2	138	139	420	0.3	419	421	15.9	55.8
2025-09-17T09:47	10	140	0.2	139	140	420	0.3	419	420	15.9	55.0
2025-09-17T09:48	10	140	0.2	140	140	420	0.4	420	421	16.0	55.3
2025-09-17T09:49	10	140	0.1	140	141	422	0.6	421	423	16.2	57.2
2025-09-17T09:50	10	140	0.8	138	141	421	0.7	420	423	16.3	56.0
2025-09-17T09:51	10	137	1.3	135	140	419	0.9	418	421	16.2	54.6
2025-09-17T09:52	10	141	0.5	140	142	421	0.8	419	422	16.2	55.2
2025-09-17T09:53	10	141	0.2	141	142	423	0.4	422	424	16.3	55.6
2025-09-17T09:54	10	142	0.2	141	142	422	0.7	422	424	16.4	55.3
2025-09-17T09:55	10	142	0.2	142	143	422	0.5	422	424	16.3	54.3
2025-09-17T09:56	10	142	0.2	142	143	423	0.2	423	424	16.4	54.3
2025-09-17T09:57	10	143	0.2	142	143	423	0.2	422	423	16.7	52.8
2025-09-17T09:58	10	143	0.2	143	144	424	0.3	423	424	17.0	53.0
2025-09-17T09:59	10	143	0.2	143	144	425	0.3	424	425	17.0	54.5
2025-09-17T10:00	10	144	0.2	143	144	425	0.2	425	426	16.9	54.2
2025-09-17T10:01	10	144	0.2	144	145	424	0.6	423	425	16.4	53.2
2025-09-17T10:02	10	145	0.1	144	145	423	0.6	422	424	16.4	54.5
2025-09-17T10:03	10	144	1.9	138	146	423	0.2	423	424	16.2	54.1
2025-09-17T10:04	10	136	7.0	124	148	423	0.3	423	424	16.4	54.8
2025-09-17T10:05	10	147	0.2	147	147	424	0.4	423	424	16.3	55.2
2025-09-17T10:06	10	145	5.4	126	149	424	0.8	422	425	16.5	54.4
2025-09-17T10:07	10	129	18.7	102	153	421	1.3	419	423	16.3	53.8
2025-09-17T10:08	10	135	19.4	101	153	422	1.2	420	424	16.4	54.4
2025-09-17T10:09	10	125	19.0	93	152	419	1.2	417	421	16.4	54.2
2025-09-17T10:10	10	147	3.6	139	153	423	1.3	421	425	16.5	53.7
2025-09-17T10:11	10	146	0.8	145	148	425	0.4	424	425	16.5	53.6
2025-09-17T10:12	10	145	0.5	145	146	425	0.6	423	425	16.7	55.9
2025-09-17T10:13	10	145	0.7	144	146	423	0.7	422	424	16.6	53.3
2025-09-17T10:14	10	144	1.1	142	145	424	0.3	423	424	16.6	55.0
2025-09-17T10:15	10	145	0.8	144	147	424	0.5	423	424	16.6	55.0
2025-09-17T10:16	10	144	1.9	141	146	424	0.3	424	425	16.5	55.2
2025-09-17T10:17	10	141	0.6	141	143	425	0.3	424	425	16.5	55.8
2025-09-17T10:18	10	144	0.4	143	144	424	1.0	422	425	16.6	55.5
2025-09-17T10:19	10	145	0.4	144	146	422	0.6	421	423	16.6	55.0
2025-09-17T10:20	10	144	0.4	144	145	423	0.3	423	424	16.6	53.7
2025-09-17T10:21	10	147	0.9	145	148	424	0.3	424	425	16.7	54.7
2025-09-17T10:22	10	148	0.5	147	149	426	0.6	424	427	16.6	53.6
2025-09-17T10:23	10	149	0.3	148	149	427	0.2	426	427	16.7	53.4
2025-09-17T10:24	10	149	0.2	149	150	427	0.3	426	428	16.8	53.9
2025-09-17T10:25	10	149	0.6	148	149	428	0.4	427	428	16.9	54.0
2025-09-17T10:26	10	148	0.6	147	149	429	0.2	428	429	17.0	53.8
2025-09-17T10:27	10	146	0.6	145	147	429	0.4	429	430	17.3	56.1
2025-09-17T10:28	10	145	0.2	144	145	429	0.8	428	430	17.3	54.3
2025-09-17T10:29	10	144	0.6	143	145	429	0.3	428	429	17.1	54.2
2025-09-17T10:30	10	145	0.5	144	146	426	2.0	423	430	17.0	53.8
2025-09-17T10:31	10	145	0.6	144	146	424	0.4	423	425	16.9	53.1
2025-09-17T10:32	10	146	0.5	145	147	426	0.8	425	427	16.9	54.5
2025-09-17T10:33	10	147	0.3	146	147	427	0.4	426	428	16.9	53.2
2025-09-17T10:34	10	148	0.7	146	148	427	0.5	426	428	16.9	53.8
2025-09-17T10:35	10	148	0.4	147	148	427	0.4	427	429	17.0	53.5
2025-09-17T10:36	10	147	0.6	146	148	428	0.4	427	428	17.0	53.6
2025-09-17T10:37	10	146	0.5	145	147	428	0.3	428	429	17.1	54.1
2025-09-17T10:38	10	146	0.8	145	147	429	0.3	428	430	17.2	54.0
2025-09-17T10:39	10	148	1.2	145	150	427	0.6	426	428	17.2	53.8
2025-09-17T10:40	10	150	0.4	150	151	427	0.2	427	428	17.0	53.8
2025-09-17T10:41	10	151	0.7	150	153	428	0.2	427	428	17.0	54.0
2025-09-17T10:42	10	140	8.5	123	153	428	0.5	427	429	16.9	53.3
2025-09-17T10:43	10	133	9.8	114	147	428	0.6	427	429	17.0	53.9
2025-09-17T10:44	10	146	12.6	120	169	429	1.2	427	432	17.3	53.0
2025-09-17T10:45	10	172	1.2	169	174	433	1.5	430	435	17.6	52.8
2025-09-17T10:46	10	175	3.7	164	180	435	0.6	434	437	17.8	51.9
2025-09-17T10:47	10	165	7.0	153	175	436	0.3	435	436	17.9	50.6
2025-09-17T10:48	10	161	12.1	145	182	436	0.8	434	437	17.9	52.9
2025-09-17T10:49	10	165	8.1	152	178	435	0.6	434	436	17.5	52.3
2025-09-17T10:50	10	155	15.6	131	187	433	1.9	430	435	17.2	52.4
2025-09-17T10:51	10	139	12.2	122	164	431	0.9	430	433	17.2	53.2
2025-09-17T10:52	10	167	27.4	127	217	434	2.3	430	437	17.5	53.5
2025-09-17T10:53	10	133	9.2	114	152	431	1.0	429	434	17.7	54.5
2025-09-17T10:54	10	137	12.0	112	158	427	2.0	424	431	17.4	52.9
2025-09-17T10:55	10	153	32.6	106	192	426	3.1	422	432	17.3	53.4
2025-09-17T10:56	10	169	18.2	132	189	430	1.2	428	431	17.1	52.7
2025-09-17T10:57	10	180	2.6	173	184	433	2.1	429	436	17.4	54.0
2025-09-17T10:58	10	174	2.1	168	177	434	1.1	433	436	17.6	52.7
2025-09-17T10:59	10	173	5.4	154	178	434	0.6	433	435	17.3	51.8
2025-09-17T11:00	10	175	1.6	171	178	435	0.8	434	437	17.4	52.8
2025-09-17T11:01	10	174	0.4	174	175	435	0.4	435	437	17.5	51.7
2025-09-17T11:02	10	173	0.2	173	174	437	0.5	435	438	17.9	52.9
2025-09-17T11:03	10	176	1.3	174	179	433	1.0	431	435	17.5	51.0
2025-09-17T11:04	10	182	1.8	179	185	434	0.5	433	435	17.3	51.4
2025-09-17T11:05	10	183	4.2	172	189	436	1.4	433	438	17.3	51.3
2025-09-17T11:06	10	149	9.0	134	168	435	1.3	433	439	17.5	50.9
2025-09-17T11:07	10	155	6.8	143	171	435	0.5	434	436	17.4	51.0
2025-09-17T11:08	10	150	5.2	141	158	434	1.4	431	436	17.4	51.6
2025-09-17T11:09	10	161	8.2	151	182	433	1.1	432	436	17.4	50.8
2025-09-17T11:10	10	153	12.1	135	174	435	0.7	433	436	17.4	51.0
2025-09-17T11:11	10	176	6.3	165	188	438	1.3	435	440	17.6	50.7
2025-09-17T11:12	10	167	10.2	145	181	439	0.6	438	441	17.7	50.4
2025-09-17T11:13	10	142	14.9	118	174	437	2.1	432	440	17.7	50.0
2025-09-17T11:14	10	114	2.3	110	118	432	1.2	430	434	17.9	51.2
2025-09-17T11:15	10	113	2.9	110	119	431	0.4	430	431	18.0	51.3
2025-09-17T11:16	10	116	3.4	110	120	430	0.6	429	431	17.9	49.4
2025-09-17T11:17	10	108	1.9	106	112	428	0.3	428	429	17.8	47.8
2025-09-17T11:18	10	107	1.9	105	114	428	0.3	428	429	18.0	48.9
2025-09-17T11:19	10	106	2.6	103	114	428	0.6	427	429	18.0	49.5
2025-09-17T11:20	10	121	7.5	107	139	428	0.7	426	429	17.9	48.7
2025-09-17T11:21	10	114	1.5	112	117	426	0.3	426	427	17.8	48.2
2025-09-17T11:22	10	113	5.2	109	127	427	0.6	426	428	18.0	47.2
2025-09-17T11:23	10	116	7.2	110	141	428	0.5	426	428	18.0	47.1
2025-09-17T11:24	10	122	11.4	109	145	429	0.7	428	430	18.0	48.2
2025-09-17T11:25	10	119	7.6	112	155	429	0.4	428	430	18.2	47.7
2025-09-17T11:26	10	168	18.9	144	209	434	1.8	429	437	18.1	47.6
2025-09-17T11:27	10	147	12.2	130	170	435	1.7	433	438	18.4	47.2
2025-09-17T11:28	10	151	20.1	116	178	434	1.6	431	437	18.2	47.8
2025-09-17T11:29	10	172	11.7	146	189	437	0.5	436	438	18.2	47.3
2025-09-17T11:30	10	140	21.2	106	179	435	2.7	431	439	18.1	48.3
2025-09-17T11:31	10	158	14.6	135	178	434	1.8	432	437	18.1	47.7
2025-09-17T11:32	10	151	17.3	125	172	436	1.7	433	438	18.3	47.7
2025-09-17T11:33	10	132	6.3	121	147	433	0.5	432	434	18.7	47.7
2025-09-17T11:34	10	150	8.1	132	158	435	1.1	433	436	18.6	49.1
2025-09-17T11:35	10	155	1.4	153	157	435	0.6	434	436	18.2	47.9
2025-09-17T11:36	10	153	0.4	152	154	434	0.3	433	435	18.0	49.3
2025-09-17T11:37	10	151	0.6	150	152	434	0.5	433	435	18.1	48.7
2025-09-17T11:38	10	151	0.3	151	152	434	0.3	433	435	17.9	49.1
2025-09-17T11:39	10	151	0.5	150	152	434	0.5	433	436	17.9	48.7
2025-09-17T11:40	10	150	0.3	150	151	435	0.2	435	436	18.0	48.7
2025-09-17T11:41	10	150	0.4	149	150	435	0.6	434	437	18.1	49.2
2025-09-17T11:42	10	148	0.8	147	149	432	1.6	430	435	18.0	49.3
2025-09-17T11:43	10	146	0.9	145	148	431	0.6	430	432	17.9	49.1
2025-09-17T11:44	10	146	0.3	145	146	432	0.9	431	433	17.9	49.5
2025-09-17T11:45	10	142	7.5	124	148	433	0.6	432	434	18.0	49.0
2025-09-17T11:46	10	146	0.3	146	147	433	0.5	432	434	18.0	48.8
2025-09-17T11:47	10	147	0.9	145	148	434	0.7	433	435	18.1	50.0
2025-09-17T11:48	10	147	0.4	147	148	435	0.6	434	436	18.2	49.4
2025-09-17T11:49	10	147	0.3	147	148	434	1.0	433	436	18.2	48.3
2025-09-17T11:50	10	147	0.5	146	148	433	0.3	433	434	17.9	48.3
2025-09-17T11:51	10	147	0.2	146	147	434	0.4	433	435	17.9	48.9
2025-09-17T11:52	10	147	0.8	146	148	434	0.6	433	435	18.0	49.3
2025-09-17T11:53	10	147	0.5	147	148	435	0.2	434	435	18.0	48.7
2025-09-17T11:54	10	147	0.6	146	148	436	0.6	435	437	18.2	48.6
2025-09-17T11:55	10	147	0.4	146	148	434	0.8	433	436	18.1	48.4
2025-09-17T11:56	10	147	0.5	147	149	435	0.5	434	436	18.1	48.6
2025-09-17T11:57	10	151	0.8	149	152	436	0.3	435	437	18.2	48.5
2025-09-17T11:58	10	151	0.5	150	152	436	0.4	436	437	18.4	48.4
2025-09-17T11:59	10	152	1.0	150	153	436	0.2	435	436	18.3	47.5
2025-09-17T12:00	10	153	0.7	151	154	436	0.6	435	438	18.2	47.8
2025-09-17T12:01	10	154	0.2	154	155	437	0.2	437	438	18.5	47.9
2025-09-17T12:02	10	154	0.4	154	155	438	0.4	437	439	18.6	47.6
2025-09-17T12:03	10	155	0.2	155	156	437	0.3	436	438	18.6	47.1
2025-09-17T12:04	10	155	0.3	154	156	438	0.5	437	439	18.6	47.2
2025-09-17T12:05	10	154	1.2	150	155	440	0.4	439	441	18.8	49.5
2025-09-17T12:06	10	156	0.7	154	157	440	0.4	439	441	18.9	46.3
2025-09-17T12:07	10	158	1.0	156	160	441	0.6	439	442	19.0	47.9
2025-09-17T12:08	10	160	0.4	159	161	438	0.9	436	440	19.0	47.2
2025-09-17T12:09	10	161	0.5	160	162	437	0.4	436	438	18.6	47.0
2025-09-17T12:10	10	159	5.3	145	163	437	0.5	436	438	18.5	47.0
2025-09-17T12:11	10	161	2.7	154	163	440	0.7	438	441	18.8	46.9
2025-09-17T12:12	10	147	13.9	119	163	440	1.3	437	441	19.1	47.3
2025-09-17T12:13	10	153	6.8	131	162	440	0.8	438	441	19.3	47.0
2025-09-17T12:14	10	143	12.8	118	160	439	0.5	439	441	19.3	49.1
2025-09-17T12:15	10	151	4.2	144	160	440	0.3	439	441	19.4	49.2
2025-09-17T12:16	10	145	9.5	122	155	439	0.5	438	440	19.0	47.2
2025-09-17T12:17	10	152	0.5	151	153	439	0.3	438	439	18.8	46.7
2025-09-17T12:18	10	150	0.6	149	151	438	1.0	436	439	18.6	47.8
2025-09-17T12:19	10	150	0.4	150	151	435	0.6	434	436	18.5	48.2
2025-09-17T12:20	10	150	0.3	150	151	436	0.8	435	437	18.4	47.9
2025-09-17T12:21	10	148	0.5	148	149	435	1.6	433	437	18.4	47.7
2025-09-17T12:22	10	148	0.7	146	149	434	0.5	433	435	18.4	47.1
2025-09-17T12:23	10	145	0.7	144	146	436	0.5	435	437	18.6	47.0
2025-09-17T12:24	10	145	0.3	144	146	437	0.5	436	438	18.8	48.2
2025-09-17T12:25	10	145	0.4	144	146	438	0.3	437	438	18.9	47.1
2025-09-17T12:26	10	144	0.6	143	145	437	0.7	436	439	19.1	46.0
2025-09-17T12:27	10	144	0.5	143	145	439	0.2	438	439	19.2	47.9
2025-09-17T12:28	10	143	0.2	143	143	438	0.3	438	439	19.2	47.7
2025-09-17T12:29	10	144	0.5	143	145	438	0.5	437	438	19.0	46.2
2025-09-17T12:30	10	145	0.3	144	146	437	0.4	436	438	19.1	45.7
2025-09-17T12:31	10	145	0.4	145	146	438	0.4	437	439	19.1	47.0
2025-09-17T12:32	10	146	0.3	145	147	437	0.3	437	438	19.0	47.4
2025-09-17T12:33	10	145	0.2	145	146	439	0.5	437	440	19.1	48.0
2025-09-17T12:34	10	145	0.5	145	146	436	0.8	434	438	18.8	47.0
2025-09-17T12:35	10	146	0.1	146	146	434	0.4	433	435	18.8	47.2
2025-09-17T12:36	10	146	0.2	146	146	434	0.5	433	435	18.8	47.0
2025-09-17T12:37	10	146	0.4	145	146	434	0.3	434	435	18.8	46.5
2025-09-17T12:38	10	144	0.6	143	145	436	0.8	434	437	18.9	48.0
2025-09-17T12:39	10	145	0.2	145	146	437	0.4	436	438	19.3	48.6
2025-09-17T12:40	10	145	0.4	144	146	437	0.7	435	438	19.1	47.0
2025-09-17T12:41	10	144	0.5	143	145	435	0.8	434	436	19.0	46.3
2025-09-17T12:42	10	145	0.2	144	145	437	0.3	436	438	19.0	47.0
2025-09-17T12:43	10	144	0.2	144	145	437	0.6	436	438	19.0	46.4
2025-09-17T12:44	10	145	0.6	145	146	436	0.4	435	437	19.0	47.4
2025-09-17T12:45	10	145	0.5	145	146	437	0.3	436	437	19.2	45.6
2025-09-17T12:46	10	145	0.2	145	145	437	0.2	437	438	19.3	45.5
2025-09-17T12:47	10	145	0.4	144	145	438	0.4	437	439	19.5	44.9
2025-09-17T12:48	10	146	0.2	145	146	439	0.4	438	440	19.6	47.3
2025-09-17T12:49	10	146	0.4	145	147	439	0.2	439	440	19.7	46.2
2025-09-17T12:50	10	146	0.6	145	147	439	0.3	439	440	19.8	45.9
2025-09-17T12:51	10	146	0.4	145	146	440	0.3	439	440	19.7	47.3
2025-09-17T12:52	10	145	0.5	144	146	439	0.2	439	440	19.9	45.9
2025-09-17T12:53	10	144	0.3	144	145	439	0.3	439	440	19.8	45.3
2025-09-17T12:54	10	144	0.2	144	145	440	0.5	439	441	19.7	46.2
2025-09-17T12:55	10	143	0.4	142	144	438	1.0	437	440	19.7	45.8
2025-09-17T12:56	10	142	0.5	141	143	437	0.6	436	438	19.4	46.0
2025-09-17T12:57	10	141	0.2	141	141	436	0.5	435	437	19.3	47.3
2025-09-17T12:58	10	141	0.2	141	142	435	0.2	435	436	19.2	46.2
2025-09-17T12:59	10	141	0.1	140	141	434	0.4	434	435	19.0	45.8
2025-09-17T13:00	10	142	0.3	141	142	435	0.5	434	436	19.0	45.9
2025-09-17T13:01	10	142	0.4	141	142	437	0.4	435	437	19.1	46.1
2025-09-17T13:02	10	141	0.1	141	142	436	0.5	436	438	19.2	45.5
2025-09-17T13:03	10	141	0.3	141	142	437	0.3	437	438	19.3	45.8
2025-09-17T13:04	10	141	0.2	141	142	438	0.4	437	439	19.4	45.4
2025-09-17T13:05	10	142	0.3	142	143	439	0.5	438	439	19.5	45.7
2025-09-17T13:06	10	143	0.1	142	143	439	0.2	439	440	19.8	47.0
2025-09-17T13:07	10	143	0.1	143	143	440	0.4	439	440	19.7	45.4
2025-09-17T13:08	10	142	0.4	142	143	438	1.0	437	440	19.6	45.7
2025-09-17T13:09	10	142	0.1	142	142	438	0.3	437	438	19.5	45.8
2025-09-17T13:10	10	142	0.1	141	142	437	0.4	437	438	19.5	45.8
2025-09-17T13:11	10	141	0.2	141	142	438	0.5	436	438	19.5	46.3
2025-09-17T13:12	10	141	0.1	141	142	437	0.5	436	438	19.3	44.9
2025-09-17T13:13	10	141	0.1	141	141	437	0.7	436	438	19.3	45.3
2025-09-17T13:14	10	140	0.2	140	141	436	0.6	435	438	19.3	45.8
2025-09-17T13:15	10	140	0.1	140	140	436	0.5	435	437	19.5	46.3
2025-09-17T13:16	10	140	0.2	140	141	437	0.3	436	438	19.7	46.1
2025-09-17T13:17	10	140	0.2	139	140	437	0.6	436	438	19.7	46.3
2025-09-17T13:18	10	140	0.3	139	141	436	0.3	436	437	19.5	44.9
2025-09-17T13:19	10	139	0.2	138	140	437	0.5	436	438	19.4	45.8
2025-09-17T13:20	10	139	0.2	138	139	437	0.5	436	439	19.6	46.3
2025-09-17T13:21	10	139	0.2	138	139	437	0.4	436	438	19.6	45.7
2025-09-17T13:22	10	139	0.2	138	139	437	0.8	435	438	19.7	46.2
2025-09-17T13:23	10	139	0.2	138	139	437	0.3	436	437	19.9	46.1
2025-09-17T13:24	10	138	0.1	138	139	437	0.5	436	438	19.9	44.0
2025-09-17T13:25	10	138	0.2	138	139	438	0.3	437	438	19.6	43.6
2025-09-17T13:26	10	138	0.2	137	138	438	0.3	437	439	19.7	44.1
2025-09-17T13:27	10	137	0.2	137	138	438	0.6	437	439	19.5	43.7
2025-09-17T13:28	10	137	0.2	137	137	437	0.3	436	437	19.4	43.2
2025-09-17T13:29	10	137	0.3	136	137	437	0.3	436	438	19.5	43.9
2025-09-17T13:30	10	137	0.1	136	137	437	0.2	437	437	19.5	43.3
2025-09-17T13:31	10	137	0.1	136	137	437	0.2	436	437	19.6	43.9
2025-09-17T13:32	10	136	0.4	135	137	438	0.4	437	439	19.8	44.9
2025-09-17T13:33	10	135	0.2	135	135	439	0.4	438	440	19.9	46.0
2025-09-17T13:34	10	134	0.2	134	135	439	0.8	437	440	20.1	44.9
2025-09-17T13:35	10	135	0.1	134	135	436	0.4	435	437	19.7	43.6
2025-09-17T13:36	10	135	0.2	134	135	437	0.5	436	438	19.7	44.7
2025-09-17T13:37	10	134	0.1	134	134	437	0.4	437	438	19.8	44.8
2025-09-17T13:38	10	134	0.1	134	134	436	1.2	433	438	19.8	44.8
2025-09-17T13:39	10	134	0.1	133	134	435	1.2	433	437	19.9	45.0
2025-09-17T13:40	10	134	0.1	134	134	436	0.6	435	438	19.9	43.5
2025-09-17T13:41	10	135	0.4	134	135	436	0.3	435	437	19.8	44.1
2025-09-17T13:42	10	135	0.2	134	135	435	0.3	435	436	19.8	43.4
2025-09-17T13:43	10	129	1.8	127	134	436	0.5	435	437	19.7	43.7
2025-09-17T13:44	10	128	0.4	128	129	435	0.4	435	436	19.9	44.9
2025-09-17T13:45	10	129	0.8	128	130	435	0.4	435	436	19.9	43.8
2025-09-17T13:46	10	129	0.4	129	130	437	0.4	436	437	19.9	44.9
2025-09-17T13:47	10	130	0.5	129	131	436	0.4	435	437	20.0	44.5
2025-09-17T13:48	10	132	0.5	131	133	436	0.4	435	437	19.9	44.2
2025-09-17T13:49	10	133	0.1	132	133	436	0.4	435	437	19.9	43.9
2025-09-17T13:50	10	132	0.1	132	133	436	0.3	435	436	20.1	43.1
2025-09-17T13:51	10	132	0.1	132	133	437	0.3	436	437	20.0	44.2
2025-09-17T13:52	10	132	0.2	132	132	438	0.5	436	439	20.2	44.4
2025-09-17T13:53	10	131	0.1	131	132	438	0.3	437	439	20.4	46.1
2025-09-17T13:54	10	131	0.2	131	131	438	0.3	437	439	20.3	44.4
2025-09-17T13:55	10	131	0.1	131	131	437	0.4	436	438	20.3	44.1
2025-09-17T13:56	10	130	0.1	130	131	438	0.3	437	438	20.3	44.3
2025-09-17T13:57	10	130	0.1	130	130	437	0.3	436	438	20.2	43.2
2025-09-17T13:58	10	130	0.1	130	130	438	0.5	437	438	20.3	43.7
2025-09-17T13:59	10	130	0.1	129	130	438	0.6	437	439	20.2	44.0
2025-09-17T14:00	10	129	0.1	129	130	437	0.3	436	438	20.2	43.2
2025-09-17T14:01	10	129	0.1	129	129	437	0.4	436	438	20.2	43.5
2025-09-17T14:02	10	128	0.1	128	129	438	0.3	437	438	20.2	43.6
2025-09-17T14:03	10	128	0.2	128	128	437	0.4	436	438	20.1	43.4
2025-09-17T14:04	10	127	0.1	127	128	436	0.2	436	437	20.2	43.5
2025-09-17T14:05	10	127	0.2	127	127	437	0.4	436	438	20.2	43.3
2025-09-17T14:06	10	126	0.1	126	127	437	0.3	437	438	20.2	44.4
2025-09-17T14:07	10	126	0.1	126	127	437	0.2	437	438	20.3	45.3
2025-09-17T14:08	10	126	0.3	125	126	438	0.2	437	438	20.3	45.2
2025-09-17T14:09	10	125	0.1	125	126	438	0.5	437	439	20.6	44.4
2025-09-17T14:10	10	125	0.2	125	125	436	0.5	435	438	20.4	43.3
2025-09-17T14:11	10	125	0.1	124	125	436	0.8	435	437	20.2	44.5
2025-09-17T14:12	10	124	0.1	124	125	435	0.4	434	436	20.1	44.3
2025-09-17T14:13	10	124	0.2	124	124	435	0.3	435	436	20.1	45.7
2025-09-17T14:14	10	123	0.2	123	124	434	0.6	433	435	20.0	44.6
2025-09-17T14:15	10	123	0.2	122	123	434	0.7	432	435	19.9	44.8
2025-09-17T14:16	10	122	0.1	122	123	433	0.4	432	434	19.9	44.7
2025-09-17T14:17	10	122	0.1	122	122	434	0.3	433	434	20.0	45.0
2025-09-17T14:18	10	122	0.2	121	122	434	0.4	433	435	20.0	44.6
2025-09-17T14:19	10	121	0.1	121	121	434	0.3	433	435	20.1	44.7
2025-09-17T14:20	10	121	0.2	120	121	434	0.3	433	435	20.1	44.2
2025-09-17T14:21	10	120	0.1	120	120	434	0.3	434	435	20.1	44.3
2025-09-17T14:22	10	120	0.1	120	120	435	0.4	434	436	20.3	44.3
2025-09-17T14:23	10	120	0.1	119	120	436	0.2	435	436	20.4	44.2
2025-09-17T14:24	10	119	0.1	119	120	436	0.2	436	437	20.7	44.8
2025-09-17T14:25	10	119	0.1	119	119	436	0.4	435	437	20.8	43.0
2025-09-17T14:26	10	119	0.1	119	119	435	0.2	435	436	20.8	41.5
2025-09-17T14:27	10	119	0.3	118	119	435	0.4	434	435	20.9	41.4
2025-09-17T14:28	10	119	0.2	118	119	435	0.3	434	435	20.9	42.8
2025-09-17T14:29	10	118	0.2	118	119	436	0.5	435	436	20.8	42.7
2025-09-17T14:30	10	118	0.2	117	119	435	0.3	434	436	20.8	43.0
2025-09-17T14:31	10	117	0.2	117	118	435	0.2	434	435	21.0	41.9
2025-09-17T14:32	10	117	0.2	117	118	435	0.3	434	436	21.1	42.1
2025-09-17T14:33	10	116	0.3	116	117	435	0.4	434	436	21.1	43.9
2025-09-17T14:34	10	116	0.2	115	117	434	0.4	433	435	21.1	45.3
2025-09-17T14:35	10	115	0.5	114	116	435	0.4	434	436	21.0	44.3
2025-09-17T14:36	10	115	0.5	114	116	433	1.0	430	434	20.9	43.3
2025-09-17T14:37	10	113	1.1	111	115	431	0.3	431	432	20.8	43.0
2025-09-17T14:38	10	109	0.7	108	111	432	0.4	431	433	20.8	43.5
2025-09-17T14:39	10	107	0.8	105	108	431	0.4	430	432	20.8	42.7
2025-09-17T14:40	10	103	2.4	100	108	432	0.4	431	432	20.8	43.0
2025-09-17T14:41	10	105	1.9	102	109	431	0.5	430	432	20.7	42.6
2025-09-17T14:42	10	111	1.2	109	113	433	0.6	432	434	20.8	43.0
2025-09-17T14:43	10	112	0.2	112	113	433	0.3	433	434	21.1	41.9
2025-09-17T14:44	10	112	0.3	112	113	434	0.4	433	435	21.1	44.4
2025-09-17T14:45	10	111	0.6	110	112	434	0.4	433	435	21.0	45.9
2025-09-17T14:46	10	111	0.2	110	111	434	0.2	434	435	21.1	46.0
2025-09-17T14:47	10	111	0.3	110	112	433	0.5	433	435	21.2	43.2
2025-09-17T14:48	10	110	0.2	109	110	432	1.5	430	434	21.1	43.9
2025-09-17T14:49	10	110	0.2	109	110	430	0.3	429	430	20.7	43.2
2025-09-17T14:50	10	109	0.1	109	110	431	0.9	430	432	20.6	44.0
2025-09-17T14:51	10	109	0.2	109	110	433	0.4	432	434	20.7	43.8
2025-09-17T14:52	10	109	0.1	108	109	432	0.6	431	433	20.9	43.3
2025-09-17T14:53	10	108	0.2	107	108	431	0.4	430	432	21.0	42.4
2025-09-17T14:54	10	107	0.3	107	108	432	0.3	431	432	20.9	43.7
2025-09-17T14:55	10	107	0.2	106	107	432	0.2	432	433	21.1	45.7
2025-09-17T14:56	10	106	0.2	106	106	431	0.3	431	432	21.0	43.8
2025-09-17T14:57	10	106	0.2	105	106	431	0.2	430	431	20.9	43.1
2025-09-17T14:58	10	105	0.2	105	105	432	0.5	430	432	20.9	44.1
2025-09-17T14:59	10	104	0.6	103	105	432	0.3	432	433	20.9	44.6
2025-09-17T15:00	10	102	0.3	102	103	432	0.4	431	433	21.0	45.6
2025-09-17T15:01	10	102	0.3	102	103	432	0.5	430	432	21.0	46.5
2025-09-17T15:02	10	101	0.4	100	102	430	0.5	429	431	20.8	44.4
2025-09-17T15:03	10	100	0.2	100	101	429	0.2	429	430	20.6	44.0
2025-09-17T15:04	10	100	0.4	99	101	430	0.4	429	431	20.6	44.9
2025-09-17T15:05	10	100	0.1	100	101	430	0.4	429	431	21.0	43.6
2025-09-17T15:06	10	99	0.7	98	100	431	0.4	430	432	21.0	43.9
2025-09-17T15:07	10	98	0.4	98	99	431	0.3	430	431	21.0	44.5
2025-09-17T15:08	10	98	0.2	98	99	430	0.2	429	430	21.0	45.2
2025-09-17T15:09	10	98	0.1	98	98	430	0.3	430	431	21.2	43.5
2025-09-17T15:10	10	98	0.2	98	98	430	0.2	430	431	21.2	43.9
2025-09-17T15:11	10	97	0.1	97	98	430	0.4	429	431	21.3	44.7
2025-09-17T15:12	10	97	0.2	97	98	428	0.6	427	430	20.9	43.8
2025-09-17T15:13	10	96	0.3	96	97	427	0.3	427	428	20.8	44.8
2025-09-17T15:14	10	95	0.3	95	96	428	0.2	427	428	20.8	44.9
2025-09-17T15:15	10	95	0.1	94	95	428	0.3	427	428	21.0	45.0
2025-09-17T15:16	10	94	0.2	94	95	427	0.3	427	428	21.2	46.4
2025-09-17T15:17	10	94	0.1	94	94	426	0.4	425	427	21.1	45.0
2025-09-17T15:18	10	94	0.2	93	94	425	0.3	424	426	21.0	44.2
2025-09-17T15:19	10	93	0.2	93	94	425	0.3	425	426	20.9	44.9
2025-09-17T15:20	10	93	0.2	92	93	425	0.5	424	426	20.9	44.2
2025-09-17T15:21	10	92	0.1	92	92	425	0.6	425	427	20.8	44.7
2025-09-17T15:22	10	92	0.2	91	92	427	0.4	426	428	20.9	45.8
2025-09-17T15:23	10	90	0.7	89	91	425	0.5	425	427	20.7	50.0
2025-09-17T15:24	10	89	0.2	89	89	425	0.3	425	426	20.7	51.5
2025-09-17T15:25	10	89	0.2	89	89	425	0.5	424	426	20.8	50.8
2025-09-17T15:26	10	89	0.1	89	89	424	0.4	423	425	20.6	50.2
2025-09-17T15:27	10	88	0.3	88	89	423	0.7	421	424	20.4	51.7
2025-09-17T15:28	10	88	0.2	87	88	422	0.6	421	423	20.2	53.1
2025-09-17T15:29	10	87	0.1	87	87	421	1.0	420	423	20.1	53.3
2025-09-17T15:30	10	87	0.2	86	87	421	0.7	420	423	20.0	53.0
2025-09-17T15:31	10	86	0.2	86	87	422	0.6	421	422	20.2	53.3
2025-09-17T15:32	10	86	0.2	85	86	421	0.5	421	422	20.1	52.7
2025-09-17T15:33	10	85	0.2	85	85	421	0.3	421	422	20.2	52.8
2025-09-17T15:34	10	85	0.2	84	85	421	0.8	420	423	20.2	52.5
2025-09-17T15:35	10	84	0.1	84	85	423	0.3	422	423	20.3	52.3
2025-09-17T15:36	10	84	0.1	83	84	423	0.3	422	423	20.5	53.2
2025-09-17T15:37	10	83	0.2	83	84	422	0.6	420	422	20.4	51.1
2025-09-17T15:38	10	82	0.2	82	83	421	0.2	420	421	20.2	50.6
2025-09-17T15:39	10	82	0.2	82	82	421	0.3	420	421	20.2	50.5
2025-09-17T15:40	10	81	0.2	81	82	421	0.4	420	422	20.3	52.0
2025-09-17T15:41	10	81	0.1	80	81	420	0.8	419	422	20.3	51.1
2025-09-17T15:42	10	80	0.2	80	80	419	0.3	418	420	20.1	53.2
2025-09-17T15:43	10	79	0.2	79	80	419	0.4	418	420	20.2	52.9
2025-09-17T15:44	10	79	0.2	78	79	419	0.4	418	420	20.1	53.1
2025-09-17T15:45	10	78	0.2	78	79	419	0.2	419	420	20.2	53.8
2025-09-17T15:46	10	78	0.2	77	78	419	0.3	419	420	20.2	53.8
2025-09-17T15:47	10	77	0.1	77	77	419	0.4	418	419	20.2	53.5
2025-09-17T15:48	10	76	0.2	76	77	417	0.4	416	418	20.0	52.9
2025-09-17T15:49	10	76	0.2	75	76	417	0.3	416	418	19.9	53.5
2025-09-17T15:50	10	75	0.2	75	76	417	0.2	416	417	20.0	53.9
2025-09-17T15:51	10	75	0.3	74	75	417	0.4	416	417	20.0	53.5
2025-09-17T15:52	10	74	0.2	74	75	416	0.2	416	417	19.9	54.3
2025-09-17T15:53	10	73	0.2	73	74	416	0.3	415	416	19.8	53.5
2025-09-17T15:54	10	73	0.2	72	73	415	0.2	415	416	19.7	53.7
2025-09-17T15:55	10	72	0.2	72	73	415	0.3	415	416	19.8	53.6
2025-09-17T15:56	10	71	0.2	71	72	416	0.4	415	417	19.8	53.9
2025-09-17T15:57	10	71	0.2	70	71	416	0.5	415	417	19.9	53.8
2025-09-17T15:58	10	70	0.2	70	71	417	0.3	416	417	20.0	53.4
2025-09-17T15:59	10	70	0.3	69	70	416	0.3	415	417	19.9	52.6
2025-09-17T16:00	10	69	0.3	69	70	415	0.2	415	416	19.8	52.7
2025-09-17T16:01	10	68	0.3	68	69	416	0.2	415	416	20.0	54.1
2025-09-17T16:02	10	68	0.3	67	68	415	0.3	415	416	20.0	54.7
2025-09-17T16:03	10	67	0.3	66	67	415	0.2	415	416	19.9	54.3
2025-09-17T16:04	10	67	0.3	66	67	415	0.3	414	416	19.9	55.0
2025-09-17T16:05	10	66	0.2	65	66	414	0.7	413	415	19.8	54.8
2025-09-17T16:06	10	65	0.2	65	66	414	0.5	413	415	19.8	54.3
2025-09-17T16:07	10	64	0.2	64	65	414	0.3	413	414	19.8	53.1
2025-09-17T16:08	10	64	0.2	63	64	413	0.4	412	414	19.7	53.4
2025-09-17T16:09	10	63	0.2	63	63	412	0.2	412	413	19.7	53.6
2025-09-17T16:10	10	62	0.2	62	63	412	0.3	412	413	19.7	53.8
2025-09-17T16:11	10	62	0.2	61	62	412	0.2	411	412	19.6	53.4
2025-09-17T16:12	10	61	0.2	61	61	412	0.3	411	412	19.6	54.4
2025-09-17T16:13	10	60	0.2	60	61	411	0.2	411	412	19.6	54.4
2025-09-17T16:14	10	60	0.2	59	60	411	0.2	410	412	19.5	54.3
2025-09-17T16:15	10	59	0.2	59	59	411	0.3	410	411	19.5	54.5
2025-09-17T16:16	10	58	0.2	58	59	411	0.2	411	412	19.6	55.0
2025-09-17T16:17	10	58	0.2	57	58	410	0.4	410	411	19.5	54.6
2025-09-17T16:18	10	57	0.2	57	57	411	0.2	410	411	19.6	55.0
2025-09-17T16:19	10	56	0.2	56	57	410	0.4	409	410	19.5	54.9
2025-09-17T16:20	10	56	0.2	55	56	409	0.2	409	410	19.5	54.9
2025-09-17T16:21	10	55	0.2	55	55	410	0.3	409	410	19.5	54.9
2025-09-17T16:22	10	54	0.2	54	55	410	0.3	409	410	19.5	55.3
2025-09-17T16:23	10	53	0.2	53	54	409	0.2	409	410	19.5	55.2
2025-09-17T16:24	10	53	0.2	52	53	409	0.2	409	410	19.5	55.8
2025-09-17T16:25	10	52	0.2	52	53	409	0.3	409	410	19.6	56.2
2025-09-17T16:26	10	51	0.3	51	52	409	0.2	409	409	19.6	55.4
2025-09-17T16:27	10	51	0.3	50	51	409	0.3	408	409	19.6	55.3
2025-09-17T16:28	10	50	0.3	49	50	409	0.2	409	410	19.7	55.3
2025-09-17T16:29	10	49	0.2	49	50	409	0.2	409	410	19.7	55.7
2025-09-17T16:30	10	49	0.2	48	49	408	0.3	408	409	19.6	54.1
2025-09-17T16:31	10	48	0.2	47	48	408	0.3	407	409	19.6	54.0
2025-09-17T16:32	10	47	0.2	47	48	408	0.2	407	408	19.5	53.6
2025-09-17T16:33	10	46	0.2	46	47	407	0.3	407	408	19.5	53.2
2025-09-17T16:34	10	46	0.2	45	46	407	0.2	407	408	19.5	53.7
2025-09-17T16:35	10	45	0.2	44	45	407	0.3	407	408	19.5	53.4
2025-09-17T16:36	10	44	0.2	44	45	407	0.2	407	408	19.5	53.2
2025-09-17T16:37	10	43	0.2	43	44	407	0.2	406	407	19.5	53.6
2025-09-17T16:38	10	43	0.3	42	43	407	0.3	406	407	19.5	53.9
2025-09-17T16:39	10	42	0.2	42	42	407	0.2	406	407	19.6	54.7
2025-09-17T16:40	10	41	0.2	41	42	407	0.2	406	407	19.6	54.2
2025-09-17T16:41	10	41	0.2	40	41	406	0.2	406	407	19.5	54.8
2025-09-17T16:42	10	40	0.3	39	40	406	0.3	405	406	19.5	54.6
2025-09-17T16:43	10	39	0.2	39	39	405	0.3	405	406	19.5	54.2
2025-09-17T16:44	10	38	0.2	38	39	404	0.3	404	405	19.5	54.1
2025-09-17T16:45	10	37	0.2	37	38	404	0.2	404	405	19.4	53.6
2025-09-17T16:46	10	37	0.3	36	37	404	0.3	403	404	19.4	54.2
2025-09-17T16:47	10	36	0.2	35	36	404	0.2	403	404	19.4	54.8
2025-09-17T16:48	10	35	0.3	35	36	404	0.2	403	405	19.4	54.9
2025-09-17T16:49	10	34	0.2	34	35	403	0.2	403	404	19.4	54.6
2025-09-17T16:50	10	34	0.3	33	34	403	0.2	403	404	19.3	53.7
2025-09-17T16:51	10	33	0.3	32	33	403	0.3	402	403	19.4	53.9
2025-09-17T16:52	10	32	0.2	31	32	402	0.2	402	403	19.4	54.3
2025-09-17T16:53	10	31	0.2	31	32	402	0.2	402	403	19.4	54.5
2025-09-17T16:54	10	30	0.2	30	31	402	0.3	401	403	19.4	54.8
2025-09-17T16:55	10	30	0.3	29	30	402	0.3	401	402	19.3	55.5
2025-09-17T16:56	10	29	0.2	28	29	401	0.2	401	402	19.3	54.7
2025-09-17T16:57	10	28	0.2	28	28	401	0.2	401	401	19.3	54.9
2025-09-17T16:58	10	27	0.2	27	28	401	0.2	400	401	19.3	54.9
2025-09-17T16:59	10	26	0.2	26	27	401	0.2	400	401	19.3	54.7
2025-09-17T17:00	10	26	0.3	25	26	400	0.2	400	401	19.3	54.8
2025-09-17T17:01	10	25	0.3	24	25	400	0.2	399	400	19.2	55.0
2025-09-17T17:02	10	24	0.2	24	24	399	0.2	399	400	19.2	55.7
2025-09-17T17:03	10	23	0.3	23	24	399	0.2	399	400	19.2	55.0
2025-09-17T17:04	10	22	0.2	22	23	399	0.2	399	399	19.2	54.5
2025-09-17T17:05	10	22	0.2	21	22	399	0.2	398	399	19.3	54.1
2025-09-17T17:06	10	21	0.3	20	21	398	0.2	398	399	19.3	54.6
2025-09-17T17:07	10	20	0.3	19	20	398	0.2	398	399	19.2	55.0
2025-09-17T17:08	10	19	0.3	18	20	398	0.3	397	398	19.2	55.7
2025-09-17T17:09	10	18	0.3	18	19	397	0.2	397	398	19.2	55.4
2025-09-17T17:10	10	17	0.3	17	18	397	0.2	397	398	19.2	55.4
2025-09-17T17:11	10	16	0.3	15	17	397	0.4	396	397	19.2	55.6
2025-09-17T17:12	10	15	0.4	14	15	396	0.2	396	396	19.1	55.7
2025-09-17T17:13	10	14	0.4	13	14	396	0.2	395	397	19.2	55.2
2025-09-17T17:14	10	12	0.4	12	13	396	0.3	395	396	19.2	55.5
2025-09-17T17:15	10	11	0.8	9	12	395	0.3	394	395	19.1	56.6
2025-09-17T17:16	10	8	0.8	6	9	394	0.3	394	395	19.0	57.1
2025-09-17T17:17	10	6	0.3	6	7	394	0.3	393	395	19.0	57.4
2025-09-17T17:18	10	7	0.4	7	8	394	0.2	393	395	19.0	57.5
2025-09-17T17:19	10	8	0.2	7	8	394	0.3	393	394	19.0	57.7
2025-09-17T17:20	10	7	0.3	7	8	394	0.3	393	395	19.0	57.4
2025-09-17T17:21	10	7	0.3	6	7	394	0.2	393	394	19.0	57.6
2025-09-17T17:22	10	6	0.3	6	7	394	0.2	393	394	19.0	57.7
2025-09-17T17:23	10	6	0.2	5	6	393	0.2	393	394	18.9	58.1
2025-09-17T17:24	10	5	0.2	5	6	393	0.2	393	394	18.9	58.2
2025-09-17T17:25	10	5	0.2	4	6	392	0.3	392	393	18.9	58.8
2025-09-17T17:26	10	4	0.2	4	5	391	0.4	390	392	18.8	59.1
2025-09-17T17:27	10	4	0.2	4	4	391	0.2	390	391	18.8	59.5
2025-09-17T17:28	10	4	0.2	3	4	390	0.3	390	391	18.7	60.0
2025-09-17T17:29	10	3	0.2	2	3	390	0.2	389	390	18.7	60.1
2025-09-17T17:30	10	2	0.2	2	3	390	0.2	389	390	18.7	59.6
2025-09-17T17:31	10	2	0.1	1	2	389	0.2	389	390	18.6	59.9
2025-09-17T17:32	10	1	0.1	1	2	389	0.3	388	389	18.5	60.0
2025-09-17T17:33	10	1	0.1	1	2	388	0.3	388	389	18.5	60.0
2025-09-17T17:34	10	1	0.1	1	1	388	0.3	387	388	18.4	60.1
2025-09-17T17:35	10	1	0.1	1	1	387	0.2	387	388	18.4	60.7
2025-09-17T17:36	10	1	0.1	1	1	387	0.2	386	388	18.3	61.1
2025-09-17T17:37	10	1	0.1	1	1	387	0.2	386	387	18.3	61.6
2025-09-17T17:38	10	1	0.1	1	1	386	0.3	386	387	18.2	61.7
2025-09-17T17:39	10	1	0.1	1	1	386	0.2	386	387	18.3	61.1
2025-09-17T17:40	10	1	0.1	1	1	386	0.2	386	386	18.3	60.8
2025-09-17T17:41	10	1	0.1	1	1	386	0.3	385	386	18.2	62.4
2025-09-17T17:42	10	1	0.1	0	1	386	0.3	385	386	18.1	62.2
2025-09-17T17:43	10	1	0.1	0	1	386	0.2	385	386	18.2	62.3
2025-09-17T17:44	10	1	0.1	0	1	386	0.2	385	386	18.1	63.0
2025-09-17T17:45	10	1	0.1	0	1	386	0.2	385	386	18.1	63.7
2025-09-17T17:46	10	0	0.1	0	1	385	0.3	385	386	18.0	63.9
2025-09-17T17:47	10	0	0.1	0	1	385	0.2	385	386	18.0	63.8
2025-09-17T17:48	10	0	0.1	0	1	385	0.3	385	386	18.0	63.6
2025-09-17T17:49	10	0	0.1	0	1	385	0.3	384	385	18.0	63.6
2025-09-17T17:50	10	0	0.1	0	0	384	0.2	384	385	18.0	63.7
2025-09-17T17:51	10	0	0.1	0	0	384	0.2	383	384	17.9	64.9
2025-09-17T17:52	10	0	0.1	0	1	383	0.3	383	384	17.8	65.4
2025-09-17T17:53	10	0	0.1	0	0	383	0.2	383	384	17.7	66.2
2025-09-17T17:54	10	0	0.1	0	0	383	0.2	382	383	17.6	67.2
2025-09-17T17:55	10	0	0.1	0	0	383	0.2	382	383	17.5	67.2
2025-09-17T17:56	10	0	0.1	0	0	382	0.2	382	383	17.4	68.0
2025-09-17T17:57	10	0	0.1	0	0	382	0.3	382	383	17.4	68.4
2025-09-17T17:58	10	0	0.1	0	0	382	0.2	382	383	17.4	66.7
2025-09-17T17:59	10	0	0.1	0	0	382	0.2	381	382	17.5	65.8
2025-09-17T18:00	10	0	0.1	0	0	382	0.3	381	382	17.5	65.6
2025-09-17T18:01	10	0	0.1	0	0	381	0.2	381	382	17.5	65.9
2025-09-17T18:02	10	0	0.1	0	0	381	0.2	381	382	17.4	66.9
2025-09-17T18:03	10	0	0.1	0	0	381	0.2	381	382	17.4	66.3
2025-09-17T18:04	10	0	0.1	0	0	381	0.2	381	382	17.4	65.9
2025-09-17T18:05	10	0	0.1	0	0	381	0.2	381	382	17.4	66.5
2025-09-17T18:06	10	0	0.1	0	1	381	0.2	380	381	17.3	67.4
2025-09-17T18:07	10	0	0.2	0	0	381	0.2	380	381	17.2	68.8
2025-09-17T18:08	10	0	0.1	0	0	380	0.3	379	381	17.1	68.4
2025-09-17T18:09	10	0	0.1	0	0	380	0.2	379	381	17.2	66.9
2025-09-17T18:10	10	0	0.1	0	0	380	0.2	379	380	17.1	67.7
2025-09-17T18:11	10	0	0.1	0	0	380	0.2	380	381	17.1	67.4
2025-09-17T18:12	10	0	0.1	0	0	380	0.2	380	381	17.1	66.8
2025-09-17T18:13	10	0	0.1	0	0	380	0.2	380	380	17.1	67.5
2025-09-17T18:14	10	0	0.1	0	0	380	0.2	380	380	17.0	67.8
2025-09-17T18:15	10	0	0.1	0	0	380	0.2	379	380	17.0	67.3
2025-09-17T18:16	10	0	0.1	0	0	380	0.2	379	380	17.1	67.0
2025-09-17T18:17	10	0	0.1	0	0	379	0.2	379	380	17.1	66.9
2025-09-17T18:18	10	0	0.1	0	0	379	0.2	379	379	17.1	67.2
2025-09-17T18:19	10	0	0.1	0	0	379	0.3	378	380	17.0	68.1
2025-09-17T18:20	10	0	0.1	0	0	378	0.2	378	379	16.8	69.9
2025-09-17T18:21	10	0	0.1	0	0	378	0.2	378	379	16.6	72.1
2025-09-17T18:22	10	0	0.1	0	0	378	0.2	378	378	16.5	72.5
2025-09-17T18:23	10	0	0.1	0	0	378	0.2	377	378	16.5	72.2
2025-09-17T18:24	10	0	0.1	0	0	378	0.2	377	378	16.5	72.3
2025-09-17T18:25	10	0	0.1	0	0	377	0.2	377	378	16.4	72.3
2025-09-17T18:26	10	0	0.1	0	0	377	0.2	377	378	16.4	72.6
2025-09-17T18:27	10	0	0.1	0	0	377	0.3	377	378	16.3	73.0
2025-09-17T18:28	10	0	0.1	0	0	377	0.2	376	377	16.2	73.9
2025-09-17T18:29	10	0	0.1	0	0	377	0.2	376	377	16.2	74.1
2025-09-17T18:30	10	0	0.1	0	1	377	0.3	376	378	16.2	73.9
2025-09-17T18:31	10	0	0.1	0	0	377	0.2	376	377	16.2	73.5
2025-09-17T18:32	10	0	0.1	0	1	376	0.3	376	377	16.2	72.8
2025-09-17T18:33	10	0	0.1	0	0	376	0.2	376	377	16.2	72.1
2025-09-17T18:34	10	0	0.1	0	0	376	0.3	376	377	16.2	72.6
2025-09-17T18:35	10	0	0.1	0	0	376	0.2	376	377	16.2	72.7
2025-09-17T18:36	10	0	0.1	0	0	376	0.4	375	377	16.2	72.6
2025-09-17T18:37	10	0	0.1	0	0	376	0.3	375	376	16.2	72.3
2025-09-17T18:38	10	0	0.1	0	0	376	0.3	375	377	16.1	72.3
2025-09-17T18:39	10	0	0.1	0	0	376	0.3	376	377	16.2	71.8
2025-09-17T18:40	10	0	0.1	0	0	376	0.2	376	377	16.3	71.0
2025-09-17T18:41	10	0	0.1	0	0	376	0.3	376	377	16.4	70.5
2025-09-17T18:42	10	0	0.0	0	0	377	0.3	376	377	16.5	69.6
2025-09-17T18:43	10	0	0.1	0	0	377	0.4	376	377	16.4	71.3
2025-09-17T18:44	10	0	0.0	0	0	377	0.3	376	377	16.2	73.9
2025-09-17T18:45	10	0	0.0	0	0	376	0.3	375	377	16.0	74.5
2025-09-17T18:46	10	0	0.1	0	1	376	0.2	376	377	16.0	74.1
2025-09-17T18:47	10	0	0.0	0	0	376	0.3	376	377	16.1	71.0
2025-09-17T18:48	10	0	0.1	0	1	376	0.3	375	376	16.3	69.7
2025-09-17T18:49	10	0	0.0	0	0	375	0.3	374	376	16.3	69.9
2025-09-17T18:50	10	0	0.1	0	1	375	0.2	374	375	16.2	71.8
2025-09-17T18:51	10	0	0.1	0	1	375	0.3	374	376	16.2	71.5
2025-09-17T18:52	10	0	0.2	0	1	376	0.3	375	376	16.3	70.0
2025-09-17T18:53	10	0	0.1	0	0	375	0.4	374	376	16.4	69.2
2025-09-17T18:54	10	0	0.2	0	1	374	0.5	374	375	16.3	72.1
2025-09-17T18:55	10	0	0.2	0	1	374	0.2	374	375	16.2	73.2
2025-09-17T18:56	10	0	0.2	0	1	374	0.4	374	375	16.0	73.6
2025-09-17T18:57	10	0	0.2	0	1	375	0.2	374	375	16.2	71.5
2025-09-17T18:58	10	0	0.1	0	1	374	0.4	373	375	16.2	73.2
2025-09-17T18:59	10	0	0.2	0	1	375	0.3	374	375	15.9	75.2
2025-09-17T19:00	10	0	0.2	0	1	375	0.2	374	375	15.9	74.4
2025-09-17T19:01	10	0	0.2	0	1	374	0.3	374	375	15.9	73.4
2025-09-17T19:02	10	0	0.1	0	1	374	0.3	374	375	15.9	73.3
2025-09-17T19:03	10	0	0.1	0	0	374	0.2	374	375	15.9	73.1
2025-09-17T19:04	10	0	0.1	0	0	374	0.2	374	375	15.9	73.4
2025-09-17T19:05	10	0	0.1	0	0	374	0.3	373	374	15.9	74.1
2025-09-17T19:06	10	0	0.1	0	0	374	0.3	373	374	15.7	75.2
2025-09-17T19:07	10	0	0.1	0	0	374	0.3	373	375	15.7	74.4
2025-09-17T19:08	10	0	0.1	0	0	375	0.4	374	376	15.8	74.8
2025-09-17T19:09	10	0	0.1	0	0	375	0.3	375	376	15.8	74.8
2025-09-17T19:10	10	0	0.1	0	0	375	0.2	375	375	15.9	74.5
2025-09-17T19:11	10	0	0.1	0	0	375	0.2	374	375	15.8	75.1
2025-09-17T19:12	10	0	0.1	0	0	375	0.2	374	375	15.7	75.3
2025-09-17T19:13	10	0	0.1	0	0	374	0.2	374	375	15.7	75.4
2025-09-17T19:14	10	0	0.1	0	0	374	0.2	374	375	15.5	76.6
2025-09-17T19:15	10	0	0.1	0	0	373	0.3	373	374	15.4	77.1
2025-09-17T19:16	10	0	0.1	0	1	373	0.2	373	374	15.3	77.8
2025-09-17T19:17	10	0	0.1	0	0	373	0.3	372	373	15.4	76.1
2025-09-17T19:18	10	0	0.1	0	0	373	0.3	372	373	15.5	75.6
2025-09-17T19:19	10	0	0.1	0	0	372	0.2	372	373	15.4	76.4
2025-09-17T19:20	10	0	0.1	0	0	372	0.2	372	373	15.3	76.9
2025-09-17T19:21	10	0	0.1	0	0	372	0.3	371	373	15.3	77.0
2025-09-17T19:22	10	0	0.1	0	0	372	0.3	372	373	15.4	76.0
2025-09-17T19:23	10	0	0.1	0	0	373	0.2	372	373	15.7	74.3
2025-09-17T19:24	10	0	0.1	0	1	373	0.3	372	374	15.9	73.5
2025-09-17T19:25	10	0	0.1	0	0	373	0.3	373	374	15.8	74.1
2025-09-17T19:26	10	0	0.1	0	0	374	0.3	373	374	15.9	73.7
2025-09-17T19:27	10	0	0.1	0	0	373	0.2	373	374	15.9	74.2
2025-09-17T19:28	10	0	0.1	0	0	374	0.3	373	374	15.7	75.2
2025-09-17T19:29	10	0	0.1	0	0	374	0.2	373	374	15.6	75.8
2025-09-17T19:30	10	0	0.1	0	0	373	0.3	373	374	15.5	76.7
2025-09-17T19:31	10	0	0.1	0	0	372	0.5	371	373	15.4	77.9
2025-09-17T19:32	10	0	0.1	0	0	372	0.2	371	372	15.0	80.2
2025-09-17T19:33	10	0	0.1	0	0	372	0.2	371	372	14.9	81.2
2025-09-17T19:34	10	0	0.1	0	0	371	0.4	371	372	14.9	81.0
2025-09-17T19:35	10	0	0.1	0	0	372	0.3	371	372	15.0	79.9
2025-09-17T19:36	10	0	0.1	0	0	372	0.3	371	373	15.1	79.1
2025-09-17T19:37	10	0	0.1	0	0	372	0.2	372	373	15.2	78.5
2025-09-17T19:38	10	0	0.1	0	0	372	0.3	372	373	15.2	78.0
2025-09-17T19:39	10	0	0.1	0	0	372	0.3	371	373	15.3	77.5
2025-09-17T19:40	10	0	0.1	0	0	372	0.2	371	373	15.3	77.5
2025-09-17T19:41	10	0	0.1	0	0	372	0.2	371	373	15.4	77.4
2025-09-17T19:42	10	0	0.0	0	0	372	0.2	372	372	15.3	77.5
2025-09-17T19:43	10	0	0.0	0	0	372	0.3	372	373	15.3	77.8
2025-09-17T19:44	10	0	0.0	0	0	372	0.2	372	373	15.3	78.0
2025-09-17T19:45	10	0	0.0	0	0	372	0.2	372	373	15.2	78.5
2025-09-17T19:46	10	0	0.1	0	0	372	0.3	371	373	15.1	79.1
2025-09-17T19:47	10	0	0.0	0	0	372	0.2	371	372	15.1	79.4
2025-09-17T19:48	10	0	0.0	0	0	372	0.3	371	372	15.0	79.9
2025-09-17T19:49	10	0	0.0	0	0	372	0.2	371	372	14.9	80.4
2025-09-17T19:50	10	0	0.1	0	0	371	0.2	371	372	15.0	79.3
2025-09-17T19:51	10	0	0.0	0	0	371	0.3	370	372	15.1	78.8
2025-09-17T19:52	10	0	0.1	0	0	371	0.2	370	371	14.9	79.8
2025-09-17T19:53	10	0	0.1	0	0	371	0.2	370	371	14.8	80.4
2025-09-17T19:54	10	0	0.1	0	0	371	0.2	370	371	14.9	80.3
2025-09-17T19:55	10	0	0.1	0	0	370	0.3	370	371	14.9	80.2
2025-09-17T19:56	10	0	0.1	0	0	370	0.3	370	371	15.0	79.9
2025-09-17T19:57	10	0	0.1	0	1	371	0.2	370	371	15.1	79.3
2025-09-17T19:58	10	0	0.1	0	0	371	0.3	370	372	15.1	79.2
2025-09-17T19:59	10	0	0.1	0	0	371	0.2	370	371	15.0	79.9
2025-09-17T20:00	10	0	0.1	0	0	372	0.3	371	372	15.0	80.0
2025-09-17T20:01	10	0	0.1	0	1	372	0.3	371	372	15.0	80.0
2025-09-17T20:02	10	0	0.1	0	1	372	0.3	371	372	15.0	80.0
2025-09-17T20:03	10	0	0.1	0	0	371	0.4	370	372	15.0	80.0
2025-09-17T20:04	10	0	0.1	0	0	371	0.2	371	371	15.0	80.0
2025-09-17T20:05	10	0	0.1	0	1	371	0.3	370	371	15.0	80.0
2025-09-17T20:06	10	0	0.1	0	0	370	0.2	370	371	15.0	80.0
2025-09-17T20:07	10	0	0.1	0	1	370	0.2	369	370	14.8	81.3
2025-09-17T20:08	10	0	0.1	0	1	370	0.2	369	370	14.5	83.3
2025-09-17T20:09	10	0	0.1	0	0	370	0.4	370	371	14.4	83.8
2025-09-17T20:10	10	0	0.1	0	1	370	0.3	370	371	14.6	82.7
2025-09-17T20:11	10	0	0.1	0	1	370	0.2	370	371	14.6	82.5
2025-09-17T20:12	10	0	0.1	0	1	370	0.5	369	371	14.8	81.5
2025-09-17T20:13	10	0	0.1	0	1	370	0.2	370	370	14.9	81.0
2025-09-17T20:14	10	0	0.1	0	1	370	0.2	369	370	14.8	81.2
2025-09-17T20:15	10	0	0.1	0	1	370	0.2	369	371	14.8	81.4
2025-09-17T20:16	10	0	0.1	0	0	370	0.2	370	370	14.8	81.2
2025-09-17T20:17	10	0	0.0	0	0	370	0.2	369	371	14.8	80.9
2025-09-17T20:18	10	0	0.0	0	0	370	0.2	369	370	14.9	80.7
2025-09-17T20:19	10	0	0.0	0	0	370	0.2	370	370	14.8	81.1
2025-09-17T20:20	10	0	0.1	0	0	370	0.2	370	371	14.7	81.9
2025-09-17T20:21	10	0	0.0	0	0	371	0.3	370	371	14.6	82.0
2025-09-17T20:22	10	0	0.1	0	0	371	0.2	370	371	14.6	82.3
2025-09-17T20:23	10	0	0.0	0	0	371	0.3	370	371	14.5	82.8
2025-09-17T20:24	10	0	0.0	0	0	370	0.3	369	371	14.5	82.6
2025-09-17T20:25	10	0	0.0	0	0	370	0.2	369	370	14.5	82.5
2025-09-17T20:26	10	0	0.1	0	0	369	0.3	368	369	14.5	82.8
2025-09-17T20:27	10	0	0.0	0	0	368	0.2	368	369	14.4	83.3
2025-09-17T20:28	10	0	0.1	0	0	368	0.3	368	369	14.4	83.4
2025-09-17T20:29	10	0	0.1	0	0	369	0.2	368	369	14.4	83.1
2025-09-17T20:30	10	0	0.1	0	0	368	0.2	368	369	14.5	83.0
2025-09-17T20:31	10	0	0.1	0	0	368	0.2	368	369	14.5	83.0
2025-09-17T20:32	10	0	0.1	0	0	368	0.3	367	368	14.4	83.4
2025-09-17T20:33	10	0	0.1	0	0	367	0.3	367	368	14.3	84.2
2025-09-17T20:34	10	0	0.1	0	0	367	0.2	366	367	14.2	85.0
2025-09-17T20:35	10	0	0.1	0	0	367	0.2	366	368	14.2	84.8
2025-09-17T20:36	10	0	0.1	0	0	367	0.2	367	367	14.1	84.9
2025-09-17T20:37	10	0	0.1	0	0	367	0.3	366	367	14.1	85.1
2025-09-17T20:38	10	0	0.1	0	0	366	0.2	366	367	14.1	85.3
2025-09-17T20:39	10	0	0.1	0	0	367	0.2	366	367	14.1	85.4
2025-09-17T20:40	10	0	0.1	0	0	366	0.3	366	367	14.0	85.7
2025-09-17T20:41	10	0	0.1	0	0	366	0.2	366	367	14.0	86.0
2025-09-17T20:42	10	0	0.1	0	0	366	0.2	366	367	14.0	85.7
2025-09-17T20:43	10	0	0.1	0	0	366	0.2	366	367	13.9	86.0
2025-09-17T20:44	10	0	0.7	0	5	367	0.6	366	368	13.9	86.3
2025-09-17T20:45	10	0	0.0	0	0	367	0.2	367	368	14.0	85.5
2025-09-17T20:46	10	0	0.1	0	0	368	0.4	367	369	14.0	85.7
2025-09-17T20:47	10	0	0.1	0	0	368	0.2	367	368	14.1	85.4
2025-09-17T20:48	10	0	0.1	0	0	368	0.2	368	368	14.1	85.2
2025-09-17T20:49	10	0	0.1	0	0	368	0.3	367	368	14.1	85.2
2025-09-17T20:50	10	0	0.1	0	0	368	0.3	367	368	14.1	84.9
2025-09-17T20:51	10	0	0.1	0	0	368	0.2	367	368	14.0	85.7
2025-09-17T20:52	10	0	0.1	0	0	368	0.2	367	368	13.9	86.3
2025-09-17T20:53	10	0	0.1	0	0	367	0.4	366	368	13.9	86.2
2025-09-17T20:54	10	0	0.1	0	0	367	0.5	366	368	13.9	86.1
2025-09-17T20:55	10	0	0.1	0	0	367	0.3	366	367	14.0	85.3
2025-09-17T20:56	10	0	0.1	0	0	366	0.3	366	367	13.9	85.8
2025-09-17T20:57	10	0	0.1	0	0	366	0.2	366	367	13.9	86.0
2025-09-17T20:58	10	0	0.1	0	1	367	0.2	366	367	13.9	85.8
2025-09-17T20:59	10	0	0.1	0	1	367	0.3	366	367	13.9	85.9
2025-09-17T21:00	10	0	0.1	0	0	366	0.2	366	367	13.9	85.5
2025-09-17T21:01	10	0	0.1	0	0	366	0.2	366	367	13.9	85.5
2025-09-17T21:02	10	0	0.1	0	0	366	0.2	366	367	13.9	85.5
2025-09-17T21:03	10	0	0.1	0	0	366	0.2	365	366	13.9	85.2
2025-09-17T21:04	10	0	0.1	0	0	366	0.4	365	367	14.0	85.0
2025-09-17T21:05	10	0	0.1	0	0	365	0.2	365	366	13.9	85.7
2025-09-17T21:06	10	0	0.1	0	0	366	0.2	365	367	13.8	86.1
2025-09-17T21:07	10	0	0.1	0	0	366	0.3	366	367	13.9	85.5
2025-09-17T21:08	10	0	0.1	0	0	366	0.3	366	367	14.0	84.7
2025-09-17T21:09	10	0	0.1	0	0	366	0.2	366	367	14.1	84.2
2025-09-17T21:10	10	0	0.1	0	0	367	0.3	366	367	14.1	84.1
2025-09-17T21:11	10	0	0.1	0	0	368	0.3	367	368	14.2	83.5
2025-09-17T21:12	10	0	0.1	0	0	368	0.2	368	369	14.3	83.2
2025-09-17T21:13	10	0	0.1	0	0	369	0.2	368	369	14.4	83.0
2025-09-17T21:14	10	0	0.1	0	0	369	0.3	368	369	14.4	82.8
2025-09-17T21:15	10	0	0.1	0	0	368	0.2	368	369	14.4	82.7
2025-09-17T21:16	10	0	0.1	0	0	368	0.2	368	369	14.4	82.8
2025-09-17T21:17	10	0	0.1	0	0	368	0.2	368	369	14.4	82.9
2025-09-17T21:18	10	0	0.1	0	0	368	0.2	368	369	14.3	83.2
2025-09-17T21:19	10	0	0.5	0	3	369	0.2	368	369	14.3	83.3
2025-09-17T21:20	10	0	0.1	0	0	368	0.2	368	369	14.3	83.2
2025-09-17T21:21	10	0	0.1	0	0	369	0.2	368	369	14.3	83.3
2025-09-17T21:22	10	0	0.0	0	0	368	0.3	368	369	14.2	83.6
2025-09-17T21:23	10	0	0.1	0	0	368	0.3	367	368	14.2	83.8
2025-09-17T21:24	10	0	0.0	0	0	368	0.2	367	368	14.2	83.7
2025-09-17T21:25	10	0	0.0	0	0	367	0.2	366	368	14.3	83.5
2025-09-17T21:26	10	0	0.0	0	0	367	0.3	366	368	14.3	83.5
2025-09-17T21:27	10	0	0.0	0	0	366	0.3	366	367	14.2	83.7
2025-09-17T21:28	10	0	0.1	0	0	366	0.3	365	366	14.2	84.0
2025-09-17T21:29	10	0	0.1	0	0	365	0.3	365	366	14.2	84.1
2025-09-17T21:30	10	0	0.1	0	0	365	0.2	365	366	14.1	84.2
2025-09-17T21:31	10	0	0.1	0	0	365	0.2	364	365	14.1	84.6
2025-09-17T21:32	10	0	0.1	0	0	365	0.2	364	365	14.1	84.7
2025-09-17T21:33	10	0	0.1	0	0	365	0.2	364	365	14.0	85.1
2025-09-17T21:34	10	0	0.1	0	0	365	0.2	364	365	13.9	85.4
2025-09-17T21:35	10	0	0.1	0	0	364	0.2	364	365	13.9	85.8
2025-09-17T21:36	10	0	0.1	0	0	365	0.2	364	365	13.8	86.1
2025-09-17T21:37	10	0	0.1	0	0	365	0.2	365	366	13.7	86.3
2025-09-17T21:38	10	0	0.1	0	0	365	0.2	364	365	13.7	86.5
2025-09-17T21:39	10	0	0.1	0	0	365	0.2	365	365	13.6	86.8
2025-09-17T21:40	10	0	0.1	0	0	365	0.3	364	365	13.6	86.9
2025-09-17T21:41	10	0	0.1	0	0	365	0.2	364	365	13.5	87.4
2025-09-17T21:42	10	0	0.0	0	0	364	0.2	364	365	13.5	87.4
2025-09-17T21:43	10	0	0.1	0	0	364	0.2	364	365	13.4	87.6
2025-09-17T21:44	10	0	0.0	0	0	364	0.2	364	365	13.3	88.1
2025-09-17T21:45	10	0	0.1	0	0	364	0.2	363	365	13.4	88.1
2025-09-17T21:46	10	0	0.1	0	0	364	0.2	364	364	13.4	88.4
2025-09-17T21:47	10	0	0.1	0	0	364	0.2	364	364	13.4	88.2
2025-09-17T21:48	10	0	0.1	0	0	364	0.2	363	364	13.4	88.1
2025-09-17T21:49	10	0	0.1	0	0	363	0.2	363	364	13.4	88.3
2025-09-17T21:50	10	0	0.1	0	0	363	0.3	362	364	13.4	88.3
2025-09-17T21:51	10	0	0.1	0	0	363	0.2	363	364	13.5	88.0
2025-09-17T21:52	10	0	0.1	0	0	363	0.3	363	364	13.4	88.0
2025-09-17T21:53	10	0	0.1	0	0	363	0.2	363	363	13.4	88.0
2025-09-17T21:54	10	0	0.1	0	0	363	0.2	362	363	13.4	88.0
2025-09-17T21:55	10	0	0.1	0	0	363	0.2	362	363	13.3	88.3
2025-09-17T21:56	10	0	0.1	0	0	362	0.3	362	363	13.3	88.6
2025-09-17T21:57	10	0	0.1	0	0	362	0.2	362	362	13.2	88.7
2025-09-17T21:58	10	0	0.1	0	0	362	0.2	362	363	13.2	88.9
2025-09-17T21:59	10	0	0.1	0	0	362	0.2	362	363	13.2	89.1
2025-09-17T22:00	10	0	0.1	0	0	362	0.3	362	363	13.1	89.3
2025-09-17T22:01	10	0	0.1	0	0	362	0.2	362	363	13.1	89.4
2025-09-17T22:02	10	0	0.1	0	0	362	0.2	362	363	13.2	89.3
2025-09-17T22:03	10	0	0.1	0	0	362	0.2	362	363	13.2	89.3
2025-09-17T22:04	10	0	0.1	0	1	363	0.2	362	363	13.1	89.9
2025-09-17T22:05	10	0	0.1	0	0	362	0.2	362	363	13.0	90.2
2025-09-17T22:06	10	0	0.2	0	1	362	0.2	362	363	13.0	90.2
2025-09-17T22:07	10	0	0.1	0	1	362	0.4	361	363	12.9	90.7
2025-09-17T22:08	10	0	0.1	0	0	362	0.2	361	362	12.9	90.0
2025-09-17T22:09	10	0	0.1	0	1	362	0.2	362	363	12.9	89.3
2025-09-17T22:10	10	0	0.1	0	0	363	0.5	362	364	12.7	89.6
2025-09-17T22:11	10	0	0.1	0	1	364	0.3	363	364	12.7	89.6
2025-09-17T22:12	10	0	0.2	0	1	364	0.4	363	366	12.6	90.1
2025-09-17T22:13	10	0	0.1	0	0	365	0.3	364	366	12.6	90.2
2025-09-17T22:14	10	0	0.1	0	1	365	0.2	365	366	12.6	89.9
2025-09-17T22:15	10	0	0.1	0	0	365	0.2	364	365	12.5	90.2
2025-09-17T22:16	10	0	0.2	0	1	365	0.3	364	365	12.5	90.1
2025-09-17T22:17	10	0	0.2	0	1	365	0.3	364	366	12.6	89.7
2025-09-17T22:18	10	0	0.2	0	1	364	0.3	364	365	12.7	89.5
2025-09-17T22:19	10	0	0.1	0	0	365	0.4	364	365	12.8	89.1
2025-09-17T22:20	10	0	0.2	0	1	365	0.3	365	366	12.9	88.8
2025-09-17T22:21	10	0	0.2	0	1	365	0.5	364	366	12.7	89.3
2025-09-17T22:22	10	0	0.2	0	1	364	0.3	363	365	12.6	89.9
2025-09-17T22:23	10	0	0.1	0	1	364	0.3	363	365	12.5	90.3
2025-09-17T22:24	10	0	0.1	0	0	364	0.2	364	365	12.6	90.3
2025-09-17T22:25	10	0	0.1	0	1	364	0.2	363	364	12.5	90.3
2025-09-17T22:26	10	0	0.1	0	0	363	0.3	363	364	12.5	90.6
2025-09-17T22:27	10	0	0.7	0	5	363	0.2	362	363	12.5	90.8
2025-09-17T22:28	10	0	0.1	0	0	363	0.3	362	363	12.6	90.5
2025-09-17T22:29	10	0	0.1	0	0	363	0.3	362	363	12.7	90.4
2025-09-17T22:30	10	0	0.1	0	0	363	0.3	362	363	12.7	90.0
2025-09-17T22:31	10	0	0.1	0	0	363	0.2	363	364	12.8	89.8
2025-09-17T22:32	10	0	0.1	0	0	364	0.4	363	365	12.7	89.8
2025-09-17T22:33	10	0	0.1	0	0	365	0.3	364	366	12.8	89.4
2025-09-17T22:34	10	0	0.1	0	0	366	0.3	365	366	12.9	89.1
2025-09-17T22:35	10	0	0.0	0	0	366	0.2	366	367	13.0	88.9
2025-09-17T22:36	10	0	0.0	0	0	366	0.2	366	367	12.9	89.1
2025-09-17T22:37	10	0	0.1	0	0	366	0.2	366	367	12.8	89.4
2025-09-17T22:38	10	0	0.0	0	0	366	0.2	366	367	12.8	89.6
2025-09-17T22:39	10	0	0.0	0	0	367	0.2	366	367	12.7	89.9
2025-09-17T22:40	10	0	0.0	0	0	367	0.2	366	367	12.8	89.9
2025-09-17T22:41	10	0	0.0	0	0	367	0.2	366	367	12.8	90.0
2025-09-17T22:42	10	0	0.0	0	0	367	0.2	367	368	12.8	89.9
2025-09-17T22:43	10	0	0.0	0	0	367	0.2	367	367	12.8	89.8
2025-09-17T22:44	10	0	0.1	0	0	367	0.2	367	368	12.8	90.0
2025-09-17T22:45	10	0	0.0	0	0	367	0.2	367	368	12.8	90.0
2025-09-17T22:46	10	0	0.1	0	0	367	0.3	367	368	12.8	89.9
2025-09-17T22:47	10	0	0.0	0	0	368	0.2	367	368	12.8	89.6
2025-09-17T22:48	10	0	0.0	0	0	368	0.2	367	368	12.8	89.9
2025-09-17T22:49	10	0	0.6	0	4	367	0.2	367	368	12.7	90.0
2025-09-17T22:50	10	0	0.0	0	0	368	0.2	367	368	12.7	90.1
2025-09-17T22:51	10	0	0.1	0	0	367	0.2	367	368	12.7	89.9
2025-09-17T22:52	10	0	0.0	0	0	367	0.2	367	368	12.7	89.9
2025-09-17T22:53	10	0	0.0	0	0	367	0.2	366	368	12.8	89.7
2025-09-17T22:54	10	0	0.0	0	0	367	0.2	367	368	12.8	89.6
2025-09-17T22:55	10	0	0.0	0	0	367	0.2	366	367	12.8	89.6
2025-09-17T22:56	10	0	0.1	0	0	367	0.3	366	367	12.8	89.7
2025-09-17T22:57	10	0	0.1	0	0	367	0.3	366	367	12.8	89.7
2025-09-17T22:58	10	0	0.0	0	0	366	0.2	366	367	12.7	89.9
2025-09-17T22:59	10	0	0.0	0	0	367	0.2	366	367	12.7	89.8
2025-09-17T23:00	10	0	0.0	0	0	366	0.3	366	367	12.7	89.9
2025-09-17T23:01	10	0	0.1	0	0	366	0.3	366	367	12.7	90.0
2025-09-17T23:02	10	0	0.1	0	0	366	0.2	366	367	12.7	89.9
2025-09-17T23:03	10	0	0.0	0	0	366	0.2	366	367	12.7	89.9
2025-09-17T23:04	10	0	0.1	0	0	367	0.3	366	367	12.7	90.0
2025-09-17T23:05	10	0	0.1	0	0	366	0.2	366	367	12.6	90.1
2025-09-17T23:06	10	0	0.1	0	0	366	0.2	366	367	12.6	90.2
2025-09-17T23:07	10	0	0.1	0	0	367	0.2	366	367	12.6	90.3
2025-09-17T23:08	10	0	0.1	0	0	367	0.2	366	367	12.7	90.1
2025-09-17T23:09	10	0	0.0	0	0	367	0.2	366	367	12.6	90.2
2025-09-17T23:10	10	0	0.0	0	0	367	0.2	367	367	12.6	90.3
2025-09-17T23:11	10	0	0.1	0	0	368	0.2	367	368	12.6	90.3
2025-09-17T23:12	10	0	0.1	0	0	368	0.3	367	368	12.6	90.3
2025-09-17T23:13	10	0	0.1	0	0	368	0.2	367	368	12.6	90.2
2025-09-17T23:14	10	0	0.0	0	0	368	0.2	367	368	12.6	90.3
2025-09-17T23:15	10	0	0.1	0	0	368	0.2	367	368	12.6	90.3
2025-09-17T23:16	10	0	0.1	0	0	368	0.2	367	368	12.7	90.1
2025-09-17T23:17	10	0	0.1	0	0	368	0.2	368	368	12.7	89.9
2025-09-17T23:18	10	0	0.1	0	0	368	0.3	368	369	12.8	89.4
2025-09-17T23:19	10	0	0.1	0	0	368	0.2	367	369	12.7	89.3
2025-09-17T23:20	10	0	0.1	0	0	368	0.2	368	368	12.7	89.2
2025-09-17T23:21	10	0	0.1	0	0	368	0.3	367	368	12.8	89.0
2025-09-17T23:22	10	0	0.1	0	0	368	0.2	368	368	12.7	89.2
2025-09-17T23:23	10	0	0.1	0	0	368	0.2	367	368	12.7	89.2
2025-09-17T23:24	10	0	0.1	0	0	368	0.3	367	368	12.6	89.7
2025-09-17T23:25	10	0	0.1	0	0	367	0.2	367	368	12.5	90.3
2025-09-17T23:26	10	0	0.1	0	0	367	0.3	366	368	12.4	90.7
2025-09-17T23:27	10	0	0.1	0	0	367	0.2	366	367	12.4	90.9
2025-09-17T23:28	10	0	0.1	0	0	366	0.2	366	367	12.3	91.1
2025-09-17T23:29	10	0	0.1	0	0	366	0.3	365	366	12.3	91.3
2025-09-17T23:30	10	0	0.1	0	0	366	0.3	365	366	12.3	91.4
2025-09-17T23:31	10	0	0.1	0	0	365	0.3	365	366	12.3	91.5
2025-09-17T23:32	10	0	0.1	0	0	365	0.3	365	366	12.3	91.6
2025-09-17T23:33	10	0	0.1	0	0	365	0.2	364	365	12.2	91.6
2025-09-17T23:34	10	0	0.1	0	0	365	0.2	364	365	12.3	91.5
2025-09-17T23:35	10	0	0.1	0	0	365	0.3	365	366	12.3	91.3
2025-09-17T23:36	10	0	0.1	0	0	366	0.3	365	367	12.4	91.0
2025-09-17T23:37	10	0	0.1	0	0	366	0.2	366	367	12.4	90.8
2025-09-17T23:38	10	0	0.1	0	0	366	0.2	366	367	12.4	90.9
2025-09-17T23:39	10	0	0.1	0	0	367	0.2	367	367	12.5	90.3
2025-09-17T23:40	10	0	0.1	0	0	367	0.3	366	368	12.4	90.5
2025-09-17T23:41	10	0	0.1	0	0	367	0.3	366	367	12.4	90.4
2025-09-17T23:42	10	0	0.1	0	0	367	0.2	366	367	12.4	90.0
2025-09-17T23:43	10	0	0.0	0	0	367	0.2	366	367	12.5	89.5
2025-09-17T23:44	10	0	0.0	0	0	367	0.2	366	367	12.5	89.6
2025-09-17T23:45	10	0	0.1	0	0	367	0.3	366	367	12.4	89.7
2025-09-17T23:46	10	0	0.1	0	0	367	0.3	366	368	12.5	89.6
2025-09-17T23:47	10	0	0.1	0	0	367	0.2	366	367	12.5	89.7
2025-09-17T23:48	10	0	0.1	0	0	367	0.3	366	367	12.4	89.9
2025-09-17T23:49	10	0	0.1	0	0	367	0.1	366	367	12.4	90.0
2025-09-17T23:50	10	0	0.1	0	0	367	0.3	366	367	12.5	89.7
2025-09-17T23:51	10	0	0.1	0	0	366	0.3	366	367	12.4	89.8
2025-09-17T23:52	10	0	0.1	0	0	366	0.2	366	367	12.4	89.8
2025-09-17T23:53	10	0	0.0	0	0	366	0.2	365	366	12.4	90.1
2025-09-17T23:54	10	0	0.1	0	0	366	0.2	365	366	12.4	90.1
2025-09-17T23:55	10	0	0.1	0	0	366	0.3	365	366	12.4	90.1
2025-09-17T23:56	10	0	0.1	0	0	365	0.2	365	366	12.4	90.1
2025-09-17T23:57	10	0	0.1	0	0	365	0.2	365	366	12.4	90.0
2025-09-17T23:58	10	0	0.1	0	0	365	0.3	364	366	12.4	89.8
2025-09-17T23:59	10	0	0.1	0	0	365	0.2	365	365	12.4	89.9
2025-09-18T00:00	10	0	0.0	0	0	365	0.2	365	366	12.4	89.5
2025-09-18T00:01	10	0	0.1	0	0	365	0.3	364	365	12.4	89.3
2025-09-18T00:02	10	0	0.1	0	0	364	0.3	364	365	12.4	89.3
2025-09-18T00:03	10	0	0.0	0	0	364	0.2	363	364	12.4	89.2
2025-09-18T00:04	10	0	0.0	0	0	364	0.2	363	364	12.4	89.2
2025-09-18T00:05	10	0	0.1	0	0	363	0.2	363	364	12.4	89.3
2025-09-18T00:06	10	0	0.0	0	0	363	0.2	363	364	12.4	89.7
2025-09-18T00:07	10	0	0.0	0	0	364	0.2	364	364	12.3	90.0
2025-09-18T00:08	10	0	0.1	0	0	364	0.3	363	364	12.3	90.1
2025-09-18T00:09	10	0	0.1	0	0	364	0.2	363	364	12.3	90.3
2025-09-18T00:10	10	0	0.0	0	0	364	0.2	363	364	12.3	90.4
2025-09-18T00:11	10	0	0.1	0	0	363	0.2	363	364	12.2	90.7
2025-09-18T00:12	10	0	0.1	0	0	363	0.3	362	364	12.2	90.7
2025-09-18T00:13	10	0	0.1	0	0	363	0.2	363	364	12.2	90.7
2025-09-18T00:14	10	0	0.1	0	0	363	0.3	362	363	12.2	90.7
2025-09-18T00:15	10	0	0.0	0	0	363	0.2	362	363	12.3	90.6
2025-09-18T00:16	10	0	0.1	0	0	362	0.2	362	363	12.2	90.8
2025-09-18T00:17	10	0	0.1	0	0	362	0.3	361	363	12.2	90.8
2025-09-18T00:18	10	0	0.1	0	0	362	0.2	361	362	12.2	91.0
2025-09-18T00:19	10	0	0.1	0	0	362	0.2	362	362	12.2	90.9
2025-09-18T00:20	10	0	0.1	0	0	362	0.3	362	363	12.2	91.1
2025-09-18T00:21	10	0	0.1	0	0	362	0.2	362	362	12.1	91.2
2025-09-18T00:22	10	0	0.1	0	0	362	0.3	362	363	12.1	91.2
2025-09-18T00:23	10	0	0.1	0	0	361	0.2	361	362	12.1	91.3
2025-09-18T00:24	10	0	0.1	0	0	361	0.2	361	362	12.1	91.3
2025-09-18T00:25	10	0	0.1	0	0	362	0.3	361	363	12.1	91.3
2025-09-18T00:26	10	0	0.1	0	0	362	0.2	361	362	12.2	90.8
2025-09-18T00:27	10	0	0.1	0	0	361	0.3	361	362	12.1	90.9
2025-09-18T00:28	10	0	0.1	0	0	362	0.2	361	362	12.0	91.3
2025-09-18T00:29	10	0	0.1	0	0	362	0.2	361	362	12.0	91.2
2025-09-18T00:30	10	0	0.1	0	0	361	0.2	361	362	12.0	91.1
2025-09-18T00:31	10	0	0.1	0	0	361	0.2	361	362	12.0	90.9
2025-09-18T00:32	10	0	0.1	0	0	361	0.2	361	362	12.0	91.1
2025-09-18T00:33	10	0	0.1	0	0	361	0.2	360	361	12.0	91.5
2025-09-18T00:34	10	0	0.1	0	0	361	0.3	360	361	11.9	91.7
2025-09-18T00:35	10	0	0.1	0	0	360	0.2	360	361	11.9	91.7
2025-09-18T00:36	10	0	0.1	0	0	360	0.2	360	361	11.9	91.7
2025-09-18T00:37	10	0	0.1	0	0	360	0.2	360	361	12.0	90.8
2025-09-18T00:38	10	0	0.1	0	0	361	0.3	360	361	12.1	89.9
2025-09-18T00:39	10	0	0.1	0	0	361	0.3	361	362	12.3	89.1
2025-09-18T00:40	10	0	0.0	0	0	362	0.2	361	362	12.4	88.1
2025-09-18T00:41	10	0	0.0	0	0	362	0.3	362	363	12.6	86.7
2025-09-18T00:42	10	0	0.0	0	0	363	0.4	362	364	12.9	85.4
2025-09-18T00:43	10	0	0.1	0	0	364	0.4	363	365	12.9	84.9
2025-09-18T00:44	10	0	0.1	0	0	363	0.4	363	364	12.6	86.5
2025-09-18T00:45	10	0	0.0	0	0	363	0.4	363	364	12.2	88.2
2025-09-18T00:46	10	0	0.0	0	0	363	0.3	363	364	12.1	89.0
2025-09-18T00:47	10	0	0.1	0	0	363	0.3	363	364	12.1	89.1
2025-09-18T00:48	10	0	0.1	0	0	363	0.2	363	363	11.9	89.9
2025-09-18T00:49	10	0	0.1	0	0	363	0.2	362	363	11.9	90.3
2025-09-18T00:50	10	0	0.1	0	0	363	0.3	362	363	11.9	90.3
2025-09-18T00:51	10	0	0.0	0	0	362	0.3	362	363	11.9	90.3
2025-09-18T00:52	10	0	0.1	0	0	362	0.3	361	362	12.0	90.1
2025-09-18T00:53	10	0	0.1	0	0	362	0.3	361	362	11.9	90.4
2025-09-18T00:54	10	0	0.0	0	0	362	0.3	362	363	12.2	89.2
2025-09-18T00:55	10	0	0.0	0	0	362	0.2	362	363	12.2	89.4
2025-09-18T00:56	10	0	0.1	0	0	362	0.2	362	363	12.1	89.6
2025-09-18T00:57	10	0	0.0	0	0	362	0.2	362	363	12.1	90.0
2025-09-18T00:58	10	0	0.1	0	0	362	0.3	361	362	12.1	90.2
2025-09-18T00:59	10	0	0.1	0	0	361	0.2	360	361	11.9	90.9
2025-09-18T01:00	10	0	0.1	0	0	361	0.2	361	362	11.8	91.5
2025-09-18T01:01	10	0	0.1	0	0	361	0.2	361	362	11.9	91.7
2025-09-18T01:02	10	0	0.1	0	0	362	0.5	361	363	11.9	91.8
2025-09-18T01:03	10	0	0.1	0	0	363	0.2	362	363	11.9	91.3
2025-09-18T01:04	10	0	0.1	0	0	363	0.2	363	364	11.9	91.3
2025-09-18T01:05	10	0	0.1	0	0	364	0.3	363	364	11.8	91.5
2025-09-18T01:06	10	0	0.1	0	0	364	0.3	363	365	11.8	91.3
2025-09-18T01:07	10	0	0.1	0	0	364	0.2	364	364	12.0	90.4
2025-09-18T01:08	10	0	0.1	0	0	364	0.2	363	364	12.0	90.2
2025-09-18T01:09	10	0	0.1	0	0	364	0.3	363	364	12.0	89.9
2025-09-18T01:10	10	0	0.0	0	0	364	0.2	363	364	12.1	89.5
2025-09-18T01:11	10	0	0.1	0	0	364	0.2	363	364	12.1	89.6
2025-09-18T01:12	10	0	0.0	0	0	363	0.3	363	364	12.0	89.8
2025-09-18T01:13	10	0	0.1	0	0	364	0.2	363	364	12.0	89.9
2025-09-18T01:14	10	0	0.1	0	0	363	0.2	363	364	12.0	89.7
2025-09-18T01:15	10	0	0.0	0	0	364	0.3	363	365	12.0	89.8
2025-09-18T01:16	10	0	0.1	0	0	364	0.2	364	364	12.1	89.2
2025-09-18T01:17	10	0	0.1	0	0	364	0.2	364	365	12.1	89.1
2025-09-18T01:18	10	0	0.0	0	0	364	0.2	363	364	12.1	88.9
2025-09-18T01:19	10	0	0.1	0	0	364	0.2	363	365	12.1	89.0
2025-09-18T01:20	10	0	0.0	0	0	364	0.2	364	365	12.1	88.9
2025-09-18T01:21	10	0	0.1	0	1	364	0.2	363	364	12.1	88.8
2025-09-18T01:22	10	0	0.1	0	0	364	0.3	363	365	12.2	88.3
2025-09-18T01:23	10	0	0.1	0	0	364	0.2	364	364	12.2	88.1
2025-09-18T01:24	10	0	0.1	0	0	364	0.3	363	365	12.2	87.9
2025-09-18T01:25	10	0	0.1	0	0	364	0.2	364	365	12.2	88.0
2025-09-18T01:26	10	0	0.1	0	0	364	0.2	364	364	12.2	88.3
2025-09-18T01:27	10	0	0.1	0	0	364	0.3	363	364	12.2	87.8
2025-09-18T01:28	10	0	0.1	0	0	364	0.2	363	364	12.2	88.0
2025-09-18T01:29	10	0	0.1	0	0	364	0.3	364	365	12.3	87.5
2025-09-18T01:30	10	0	0.1	0	0	364	0.3	364	365	12.3	87.6
2025-09-18T01:31	10	0	0.1	0	0	364	0.3	363	365	12.3	87.3
2025-09-18T01:32	10	0	0.1	0	0	364	0.2	364	365	12.3	87.4
2025-09-18T01:33	10	0	0.1	0	0	364	0.3	363	365	12.3	86.8
2025-09-18T01:34	10	0	0.1	0	0	364	0.2	364	365	12.4	86.3
2025-09-18T01:35	10	0	0.1	0	0	364	0.2	364	364	12.4	86.1
2025-09-18T01:36	10	0	0.1	0	0	364	0.3	363	364	12.4	86.3
2025-09-18T01:37	10	0	0.1	0	0	363	0.4	363	364	12.4	86.5
2025-09-18T01:38	10	0	0.1	0	0	363	0.2	363	363	12.4	86.2
2025-09-18T01:39	10	0	0.1	0	0	362	0.3	362	363	12.4	85.9
2025-09-18T01:40	10	0	0.1	0	0	362	0.4	361	363	12.4	86.2
2025-09-18T01:41	10	0	0.1	0	0	361	0.4	361	362	12.4	85.8
2025-09-18T01:42	10	0	0.1	0	0	361	0.2	361	361	12.4	86.1
2025-09-18T01:43	10	0	0.1	0	0	361	0.2	361	362	12.4	86.2
2025-09-18T01:44	10	0	0.1	0	0	361	0.2	360	361	12.3	86.6
2025-09-18T01:45	10	0	0.1	0	0	361	0.3	360	361	12.3	87.0
2025-09-18T01:46	10	0	0.1	0	0	360	0.2	360	361	12.2	87.3
2025-09-18T01:47	10	0	0.1	0	0	360	0.2	359	360	12.1	87.6
2025-09-18T01:48	10	0	0.1	0	0	359	0.3	359	360	12.1	88.1
2025-09-18T01:49	10	0	0.1	0	0	359	0.3	358	360	11.9	88.9
2025-09-18T01:50	10	0	0.1	0	0	358	0.3	358	359	11.8	89.8
2025-09-18T01:51	10	0	0.1	0	0	358	0.2	358	359	11.7	90.1
2025-09-18T01:52	10	0	0.1	0	0	358	0.2	357	358	11.6	90.5
2025-09-18T01:53	10	0	0.1	0	0	358	0.2	357	359	11.6	91.1
2025-09-18T01:54	10	0	0.1	0	0	357	0.2	357	358	11.5	91.5
2025-09-18T01:55	10	0	0.1	0	0	357	0.3	357	358	11.6	91.7
2025-09-18T01:56	10	0	0.1	0	0	357	0.3	357	358	11.6	91.8
2025-09-18T01:57	10	0	0.1	0	0	357	0.2	357	358	11.6	91.8
2025-09-18T01:58	10	0	0.1	0	0	357	0.2	356	357	11.5	92.0
2025-09-18T01:59	10	0	0.1	0	0	357	0.2	356	357	11.5	92.0
2025-09-18T02:00	10	0	0.1	0	0	356	0.3	355	357	11.4	92.0
2025-09-18T02:01	10	0	0.1	0	0	356	0.2	355	357	11.4	92.0
2025-09-18T02:02	10	0	0.1	0	0	356	0.2	355	356	11.4	92.0
2025-09-18T02:03	10	0	0.1	0	0	356	0.2	355	356	11.5	91.8
2025-09-18T02:04	10	0	0.1	0	0	355	0.2	355	356	11.4	92.0
2025-09-18T02:05	10	0	0.1	0	0	355	0.3	355	356	11.4	92.0
2025-09-18T02:06	10	0	0.1	0	0	355	0.2	355	356	11.5	91.7
2025-09-18T02:07	10	0	0.1	0	0	355	0.2	355	356	11.5	91.6
2025-09-18T02:08	10	0	0.1	0	0	356	0.4	355	356	11.4	91.7
2025-09-18T02:09	10	0	0.1	0	0	356	0.2	355	356	11.4	91.7
2025-09-18T02:10	10	0	0.1	0	0	355	0.3	355	356	11.4	91.9
2025-09-18T02:11	10	0	0.1	0	0	355	0.2	355	356	11.4	92.0
2025-09-18T02:12	10	0	0.1	0	0	355	0.2	355	356	11.3	92.3
2025-09-18T02:13	10	0	0.1	0	0	356	0.3	355	356	11.3	92.6
2025-09-18T02:14	10	0	0.1	0	0	356	0.3	356	357	11.2	92.9
2025-09-18T02:15	10	0	0.1	0	0	357	0.2	356	357	11.2	93.3
2025-09-18T02:16	10	0	0.1	0	0	357	0.2	356	357	11.2	93.4
2025-09-18T02:17	10	0	0.1	0	0	357	0.3	356	358	11.2	93.2
2025-09-18T02:18	10	0	0.1	0	0	357	0.3	357	358	11.2	93.4
2025-09-18T02:19	10	0	0.1	0	0	357	0.2	357	357	11.1	93.5
2025-09-18T02:20	10	0	0.2	0	0	357	0.2	357	358	11.1	93.2
2025-09-18T02:21	10	0	0.1	0	0	357	0.2	356	357	11.0	93.0
2025-09-18T02:22	10	0	0.2	0	0	357	0.2	357	358	11.0	93.1
2025-09-18T02:23	10	0	0.1	0	0	357	0.3	356	357	11.0	93.1
2025-09-18T02:24	10	0	0.1	0	0	357	0.3	356	357	11.0	93.1
2025-09-18T02:25	10	0	0.2	0	0	357	0.3	356	357	10.9	93.2
2025-09-18T02:26	10	0	0.1	0	0	357	0.2	356	357	10.9	93.5
2025-09-18T02:27	10	0	0.1	0	0	357	0.2	356	357	10.8	93.6
2025-09-18T02:28	10	0	0.1	0	0	357	0.2	356	357	10.8	93.7
2025-09-18T02:29	10	0	0.2	0	0	357	0.2	356	357	10.7	94.1
2025-09-18T02:30	10	0	0.1	0	0	357	0.3	356	357	10.7	94.3
2025-09-18T02:31	10	0	0.1	0	0	357	0.2	357	358	10.6	94.5
2025-09-18T02:32	10	0	0.1	0	1	357	0.2	356	357	10.7	94.8
2025-09-18T02:33	10	0	0.1	0	0	357	0.3	356	357	10.7	94.9
2025-09-18T02:34	10	0	0.1	0	0	357	0.2	357	358	10.8	94.8
2025-09-18T02:35	10	0	0.1	0	0	357	0.2	357	358	10.8	94.6
2025-09-18T02:36	10	0	0.1	0	0	357	0.3	356	357	10.8	94.2
2025-09-18T02:37	10	0	0.1	0	0	356	0.3	355	357	10.7	94.0
2025-09-18T02:38	10	0	0.1	0	0	356	0.3	356	357	10.8	93.6
2025-09-18T02:39	10	0	0.1	0	0	357	0.3	356	357	10.9	93.4
2025-09-18T02:40	10	0	0.1	0	0	357	0.3	356	357	11.0	93.0
2025-09-18T02:41	10	0	0.1	0	0	357	0.2	356	357	11.0	92.6
2025-09-18T02:42	10	0	0.1	0	0	356	0.3	356	357	11.0	92.3
2025-09-18T02:43	10	0	0.1	0	0	355	0.2	355	356	11.0	92.1
2025-09-18T02:44	10	0	0.1	0	0	355	0.2	355	356	10.9	92.3
2025-09-18T02:45	10	0	0.1	0	0	355	0.2	354	355	10.9	92.2
2025-09-18T02:46	10	0	0.1	0	0	354	0.2	354	355	10.9	92.3
2025-09-18T02:47	10	0	0.1	0	0	354	0.2	354	355	10.9	92.4
2025-09-18T02:48	10	0	0.0	0	0	354	0.2	354	355	11.0	92.2
2025-09-18T02:49	10	0	0.1	0	0	354	0.2	354	355	11.0	92.4
2025-09-18T02:50	10	0	0.1	0	0	354	0.3	353	355	11.0	92.6
2025-09-18T02:51	10	0	0.1	0	0	354	0.2	354	354	11.0	92.7
2025-09-18T02:52	10	0	0.1	0	0	354	0.3	353	355	11.0	93.0
2025-09-18T02:53	10	0	0.1	0	0	354	0.3	353	354	10.9	93.0
2025-09-18T02:54	10	0	0.1	0	0	354	0.3	353	355	10.9	93.1
2025-09-18T02:55	10	0	0.0	0	0	354	0.2	354	354	10.8	93.4
2025-09-18T02:56	10	0	0.1	0	0	354	0.2	354	355	10.8	93.6
2025-09-18T02:57	10	0	0.1	0	0	354	0.2	353	354	10.7	94.1
2025-09-18T02:58	10	0	0.1	0	0	354	0.3	354	355	10.7	94.3
2025-09-18T02:59	10	0	0.1	0	0	354	0.3	354	355	10.8	94.2
2025-09-18T03:00	10	0	0.1	0	0	354	0.2	354	355	10.6	94.4
2025-09-18T03:01	10	0	0.1	0	0	354	0.3	354	355	10.6	94.2
2025-09-18T03:02	10	0	0.1	0	0	355	0.2	354	355	10.6	94.2
2025-09-18T03:03	10	0	0.1	0	0	354	0.2	354	355	10.6	93.8
2025-09-18T03:04	10	0	0.1	0	0	355	0.2	354	355	10.6	93.8
2025-09-18T03:05	10	0	0.0	0	0	354	0.2	354	355	10.6	94.1
2025-09-18T03:06	10	0	0.1	0	0	354	0.2	354	355	10.6	93.9
2025-09-18T03:07	10	0	0.1	0	0	354	0.2	354	355	10.7	93.8
2025-09-18T03:08	10	0	0.1	0	0	354	0.2	353	354	10.7	93.6
2025-09-18T03:09	10	0	0.1	0	0	354	0.2	353	354	10.7	93.9
2025-09-18T03:10	10	0	0.1	0	0	353	0.3	353	354	10.6	93.9
2025-09-18T03:11	10	0	0.1	0	0	353	0.3	352	354	10.6	94.2
2025-09-18T03:12	10	0	0.1	0	0	353	0.2	352	353	10.5	94.6
2025-09-18T03:13	10	0	0.0	0	0	353	0.2	352	353	10.4	94.9
2025-09-18T03:14	10	0	0.1	0	0	352	0.2	352	353	10.4	95.1
2025-09-18T03:15	10	0	0.1	0	0	353	0.3	352	353	10.4	95.1
2025-09-18T03:16	10	0	0.1	0	0	352	0.2	352	353	10.6	95.0
2025-09-18T03:17	10	0	0.1	0	0	352	0.3	352	353	10.5	95.0
2025-09-18T03:18	10	0	0.1	0	0	352	0.2	352	353	10.5	94.9
2025-09-18T03:19	10	0	0.1	0	0	352	0.2	352	352	10.6	94.6
2025-09-18T03:20	10	0	0.1	0	0	352	0.2	351	352	10.6	94.5
2025-09-18T03:21	10	0	0.1	0	0	351	0.3	351	352	10.6	94.4
2025-09-18T03:22	10	0	0.1	0	0	351	0.2	350	352	10.5	94.5
2025-09-18T03:23	10	0	0.1	0	0	351	0.3	350	351	10.5	94.6
2025-09-18T03:24	10	0	0.1	0	0	351	0.2	350	351	10.5	94.6
2025-09-18T03:25	10	0	0.1	0	0	351	0.4	350	351	10.5	94.7
2025-09-18T03:26	10	0	0.1	-1	0	351	0.2	350	351	10.6	94.7
2025-09-18T03:27	10	0	0.1	0	0	351	0.3	350	352	10.6	94.6
2025-09-18T03:28	10	0	0.1	0	0	351	0.4	350	352	10.7	94.5
2025-09-18T03:29	10	0	0.1	0	0	351	0.2	351	352	10.7	94.2
2025-09-18T03:30	10	0	0.1	0	0	351	0.2	351	352	10.8	94.0
2025-09-18T03:31	10	0	0.1	0	0	351	0.3	351	352	10.8	93.9
2025-09-18T03:32	10	0	0.1	0	0	351	0.2	351	352	10.7	94.0
2025-09-18T03:33	10	0	0.1	0	0	351	0.2	351	352	10.5	94.4
2025-09-18T03:34	10	0	0.1	0	0	351	0.2	350	352	10.4	94.5
2025-09-18T03:35	10	0	0.1	0	0	351	0.3	351	352	10.4	94.6
2025-09-18T03:36	10	0	0.1	0	0	352	0.3	351	353	10.4	94.6
2025-09-18T03:37	10	0	0.1	0	0	352	0.3	352	353	10.6	94.5
2025-09-18T03:38	10	0	0.1	0	0	353	0.3	353	354	10.7	93.8
2025-09-18T03:39	10	0	0.1	0	0	354	0.2	353	354	10.8	92.9
2025-09-18T03:40	10	0	0.1	0	0	354	0.2	353	354	10.8	92.7
2025-09-18T03:41	10	0	0.1	0	0	353	0.2	353	354	10.8	93.1
2025-09-18T03:42	10	0	0.1	0	0	353	0.2	353	354	10.8	93.0
2025-09-18T03:43	10	0	0.1	0	0	353	0.2	353	354	10.9	92.6
2025-09-18T03:44	10	0	0.1	0	0	354	0.2	353	354	10.9	92.3
2025-09-18T03:45	10	0	0.1	0	0	354	0.2	353	354	10.9	92.2
2025-09-18T03:46	10	0	0.1	0	0	354	0.3	353	354	11.0	92.1
2025-09-18T03:47	10	0	0.1	0	0	354	0.2	353	355	11.0	91.9
2025-09-18T03:48	10	0	0.1	0	0	354	0.2	353	354	11.0	91.9
2025-09-18T03:49	10	0	0.1	0	0	354	0.2	353	354	11.0	92.2
2025-09-18T03:50	10	0	0.1	0	0	354	0.3	353	354	10.9	92.3
2025-09-18T03:51	10	0	0.1	0	0	353	0.2	353	354	10.9	92.6
2025-09-18T03:52	10	0	0.1	0	0	353	0.2	353	354	10.9	92.5
2025-09-18T03:53	10	0	0.1	0	0	353	0.3	352	354	10.9	92.6
2025-09-18T03:54	10	0	0.1	0	0	353	0.2	352	353	10.9	92.7
2025-09-18T03:55	10	0	0.1	0	0	353	0.2	352	353	10.9	92.7
2025-09-18T03:56	10	0	0.1	0	0	353	0.2	352	353	10.9	92.7
2025-09-18T03:57	10	0	0.1	0	0	352	0.3	352	353	10.9	92.7
2025-09-18T03:58	10	0	0.1	0	0	352	0.2	352	353	10.9	92.9
2025-09-18T03:59	10	0	0.1	0	0	352	0.2	352	353	10.9	92.8
2025-09-18T04:00	10	0	0.1	0	0	352	0.2	351	352	10.9	92.8
2025-09-18T04:01	10	0	0.1	0	0	351	0.3	351	352	10.8	93.0
2025-09-18T04:02	10	0	0.1	0	0	351	0.3	350	351	10.6	93.5
2025-09-18T04:03	10	0	0.1	0	0	351	0.3	350	351	10.5	93.9
2025-09-18T04:04	10	0	0.1	0	0	350	0.2	350	351	10.4	94.2
2025-09-18T04:05	10	0	0.1	0	0	350	0.2	350	351	10.4	94.4
2025-09-18T04:06	10	0	0.1	0	0	350	0.2	350	351	10.4	94.6
2025-09-18T04:07	10	0	0.1	0	0	350	0.3	350	351	10.3	94.9
2025-09-18T04:08	10	0	0.1	0	0	350	0.2	349	350	10.3	95.1
2025-09-18T04:09	10	0	0.1	0	0	350	0.2	349	350	10.2	95.3
2025-09-18T04:10	10	0	0.1	0	0	350	0.3	350	351	10.2	95.5
2025-09-18T04:11	10	0	0.1	0	0	351	0.2	350	351	10.3	95.4
2025-09-18T04:12	10	0	0.1	0	0	350	0.2	350	351	10.3	95.2
2025-09-18T04:13	10	0	0.1	0	0	350	0.2	350	351	10.4	95.1
2025-09-18T04:14	10	0	0.1	0	0	350	0.2	350	351	10.4	95.3
2025-09-18T04:15	10	0	0.1	0	0	350	0.2	350	351	10.4	95.1
2025-09-18T04:16	10	0	0.1	0	0	350	0.2	349	350	10.4	94.8
2025-09-18T04:17	10	0	0.1	0	0	350	0.2	349	350	10.5	94.6
2025-09-18T04:18	10	0	0.1	0	0	350	0.3	349	350	10.5	94.5
2025-09-18T04:19	10	0	0.1	0	0	350	0.3	349	350	10.4	94.3
2025-09-18T04:20	10	0	0.1	0	0	350	0.3	350	351	10.4	94.0
2025-09-18T04:21	10	0	0.1	0	0	350	0.2	350	351	10.4	93.9
2025-09-18T04:22	10	0	0.1	0	0	350	0.2	350	351	10.4	93.7
2025-09-18T04:23	10	0	0.1	0	0	350	0.3	350	351	10.4	93.7
2025-09-18T04:24	10	0	0.1	0	0	351	0.2	351	352	10.5	93.6
2025-09-18T04:25	10	0	0.1	0	0	352	0.2	351	352	10.4	93.6
2025-09-18T04:26	10	0	0.1	0	0	352	0.3	352	353	10.5	93.7
2025-09-18T04:27	10	0	0.1	0	0	353	0.2	352	353	10.4	93.8
2025-09-18T04:28	10	0	0.1	0	0	353	0.3	352	353	10.4	93.9
2025-09-18T04:29	10	0	0.1	0	0	353	0.2	353	354	10.4	94.0
2025-09-18T04:30	10	0	0.1	0	0	353	0.3	352	353	10.3	94.4
2025-09-18T04:31	10	0	0.1	0	0	353	0.2	352	353	10.3	94.4
2025-09-18T04:32	10	0	0.1	0	0	353	0.2	353	354	10.2	94.9
2025-09-18T04:33	10	0	0.1	0	0	353	0.2	352	353	10.1	95.3
2025-09-18T04:34	10	0	0.1	0	0	353	0.3	352	353	10.1	95.3
2025-09-18T04:35	10	0	0.1	0	0	353	0.3	352	353	10.2	95.5
2025-09-18T04:36	10	0	0.1	0	0	353	0.2	352	353	10.2	95.7
2025-09-18T04:37	10	0	0.1	0	0	353	0.3	352	353	10.4	95.2
2025-09-18T04:38	10	0	0.1	0	0	353	0.2	353	354	10.4	94.9
2025-09-18T04:39	10	0	0.1	0	0	354	0.2	353	354	10.3	94.4
2025-09-18T04:40	10	0	0.1	0	0	354	0.3	354	355	10.4	93.7
2025-09-18T04:41	10	0	0.1	0	0	354	0.3	354	355	10.5	93.1
2025-09-18T04:42	10	0	0.1	0	0	354	0.2	354	355	10.5	92.6
2025-09-18T04:43	10	0	0.1	0	0	354	0.2	354	355	10.5	92.4
2025-09-18T04:44	10	0	0.1	0	0	354	0.2	354	355	10.5	92.2
2025-09-18T04:45	10	0	0.1	0	0	354	0.2	354	354	10.6	92.0
2025-09-18T04:46	10	0	0.1	0	0	354	0.2	354	354	10.6	91.9
2025-09-18T04:47	10	0	0.1	0	0	353	0.3	353	354	10.6	92.0
2025-09-18T04:48	10	0	0.1	0	0	353	0.3	352	354	10.6	91.6
2025-09-18T04:49	10	0	0.1	0	0	353	0.2	353	354	10.7	91.4
2025-09-18T04:50	10	0	0.1	0	0	353	0.2	353	354	10.8	90.8
2025-09-18T04:51	10	0	0.1	0	0	353	0.2	353	354	10.9	89.8
2025-09-18T04:52	10	0	0.0	0	0	353	0.2	353	354	11.0	89.3
2025-09-18T04:53	10	0	0.1	0	0	353	0.3	353	354	11.1	89.2
2025-09-18T04:54	10	0	0.0	0	0	354	0.3	353	354	11.1	89.2
2025-09-18T04:55	10	0	0.1	0	0	354	0.2	354	354	11.1	88.9
2025-09-18T04:56	10	0	0.1	0	0	354	0.2	353	354	11.0	89.3
2025-09-18T04:57	10	0	0.1	0	0	353	0.4	353	354	10.9	89.8
2025-09-18T04:58	10	0	0.0	0	0	353	0.2	353	354	10.8	90.5
2025-09-18T04:59	10	0	0.0	0	0	353	0.2	353	354	10.8	90.8
2025-09-18T05:00	10	0	0.0	0	0	353	0.2	353	354	10.8	91.0
2025-09-18T05:01	10	0	0.1	0	0	353	0.3	353	354	10.9	90.9
2025-09-18T05:02	10	0	0.1	0	0	353	0.4	352	353	10.9	90.7
2025-09-18T05:03	10	0	0.1	0	0	352	0.3	352	353	10.7	91.8
2025-09-18T05:04	10	0	0.1	0	0	352	0.3	351	352	10.5	92.4
2025-09-18T05:05	10	0	0.1	0	0	352	0.2	351	352	10.4	92.8
2025-09-18T05:06	10	0	0.1	0	0	352	0.2	351	352	10.4	92.8
2025-09-18T05:07	10	0	0.1	0	0	352	0.3	351	352	10.4	92.9
2025-09-18T05:08	10	0	0.1	0	0	352	0.2	351	352	10.5	92.9
2025-09-18T05:09	10	0	0.1	0	0	352	0.2	351	352	10.6	92.8
2025-09-18T05:10	10	0	0.1	0	1	352	0.2	351	352	10.7	91.9
2025-09-18T05:11	10	0	0.1	0	1	352	0.3	351	352	10.8	91.1
2025-09-18T05:12	10	1	0.1	0	1	352	0.3	351	353	10.8	90.6
2025-09-18T05:13	10	1	0.1	1	1	352	0.2	351	352	10.8	90.3
2025-09-18T05:14	10	1	0.1	1	1	352	0.2	351	352	10.8	90.2
2025-09-18T05:15	10	1	0.1	1	1	352	0.2	351	352	10.8	90.0
2025-09-18T05:16	10	1	0.1	1	1	351	0.3	351	352	10.8	89.9
2025-09-18T05:17	10	1	0.1	1	1	351	0.2	351	352	10.6	90.5
2025-09-18T05:18	10	1	0.1	1	1	352	0.2	352	353	10.5	91.2
2025-09-18T05:19	10	1	0.1	1	1	352	0.3	351	353	10.5	91.6
2025-09-18T05:20	10	1	0.1	1	1	352	0.2	351	352	10.5	91.9
2025-09-18T05:21	10	1	0.1	1	1	351	0.2	351	351	10.5	91.9
2025-09-18T05:22	10	1	0.1	1	1	351	0.2	351	352	10.4	91.9
2025-09-18T05:23	10	1	0.1	1	2	351	0.2	351	352	10.4	92.0
2025-09-18T05:24	10	2	0.1	1	2	351	0.2	351	352	10.3	92.4
2025-09-18T05:25	10	2	0.1	1	2	351	0.3	351	352	10.2	93.1
2025-09-18T05:26	10	2	0.1	1	2	351	0.2	351	351	10.1	93.6
2025-09-18T05:27	10	2	0.1	2	2	351	0.2	351	352	10.2	93.8
2025-09-18T05:28	10	2	0.1	2	2	351	0.2	350	351	10.0	94.2
2025-09-18T05:29	10	2	0.1	2	2	351	0.2	350	351	9.9	94.8
2025-09-18T05:30	10	2	0.1	2	2	350	0.2	350	351	9.9	95.1
2025-09-18T05:31	10	2	0.1	2	2	350	0.2	350	351	9.9	95.3
2025-09-18T05:32	10	2	0.1	2	3	350	0.2	350	351	9.9	95.5
2025-09-18T05:33	10	3	0.1	3	3	350	0.2	350	351	9.9	95.6
2025-09-18T05:34	10	3	0.1	3	3	350	0.4	349	351	10.0	95.4
2025-09-18T05:35	10	3	0.1	3	3	350	0.3	350	351	10.1	95.1
2025-09-18T05:36	10	3	0.1	3	4	350	0.2	350	351	10.3	94.6
2025-09-18T05:37	10	3	0.1	3	4	350	0.2	350	351	10.4	94.1
2025-09-18T05:38	10	4	0.2	4	4	350	0.2	350	351	10.4	93.6
2025-09-18T05:39	10	5	0.3	4	5	351	0.2	350	351	10.4	93.5
2025-09-18T05:40	10	5	0.3	5	6	351	0.3	351	352	10.4	93.4
2025-09-18T05:41	10	6	0.4	6	7	352	0.2	351	352	10.4	93.2
2025-09-18T05:42	10	8	0.3	7	8	352	0.3	352	353	10.5	92.8
2025-09-18T05:43	10	9	0.3	8	9	353	0.2	352	353	10.5	92.5
2025-09-18T05:44	10	10	0.3	9	10	353	0.1	352	353	10.5	92.4
2025-09-18T05:45	10	10	0.2	10	11	353	0.2	352	353	10.5	92.7
2025-09-18T05:46	10	11	0.2	11	12	353	0.2	352	353	10.3	92.9
2025-09-18T05:47	10	12	0.2	12	12	353	0.3	352	354	10.3	93.2
2025-09-18T05:48	10	13	0.2	12	13	354	0.3	353	354	10.5	92.7
2025-09-18T05:49	10	13	0.2	13	14	354	0.2	354	355	10.6	92.1
2025-09-18T05:50	10	14	0.2	14	14	355	0.2	354	355	10.7	91.6
2025-09-18T05:51	10	14	0.2	14	15	355	0.3	354	356	10.7	91.5
2025-09-18T05:52	10	15	0.2	15	16	355	0.2	355	356	10.6	91.7
2025-09-18T05:53	10	16	0.2	15	16	355	0.3	355	356	10.6	91.7
2025-09-18T05:54	10	16	0.2	16	17	356	0.3	355	357	10.7	91.4
2025-09-18T05:55	10	17	0.2	17	17	357	0.2	356	357	10.8	90.9
2025-09-18T05:56	10	18	0.2	17	18	357	0.3	357	358	10.9	90.5
2025-09-18T05:57	10	18	0.2	18	19	358	0.2	357	358	10.9	90.0
2025-09-18T05:58	10	19	0.2	19	20	358	0.3	358	359	11.0	89.7
2025-09-18T05:59	10	20	0.2	19	20	358	0.2	358	359	11.0	89.3
2025-09-18T06:00	10	20	0.2	20	21	359	0.3	358	359	11.0	89.3
2025-09-18T06:01	10	21	0.2	21	21	359	0.2	359	360	11.0	89.2
2025-09-18T06:02	10	22	0.2	21	22	360	0.2	359	360	11.0	89.5
2025-09-18T06:03	10	22	0.2	22	23	360	0.3	360	361	11.0	89.7
2025-09-18T06:04	10	23	0.2	23	23	361	0.3	360	362	11.0	89.3
2025-09-18T06:05	10	24	0.2	23	24	361	0.2	361	362	11.0	89.6
2025-09-18T06:06	10	24	0.2	24	25	362	0.2	361	362	11.1	89.5
2025-09-18T06:07	10	25	0.2	25	26	362	0.2	362	363	11.1	89.6
2025-09-18T06:08	10	26	0.2	25	26	363	0.3	362	363	11.2	88.8
2025-09-18T06:09	10	27	0.3	26	27	363	0.2	363	364	11.3	88.2
2025-09-18T06:10	10	27	0.3	27	28	364	0.2	363	364	11.4	87.9
2025-09-18T06:11	10	28	0.3	28	29	364	0.3	364	365	11.4	87.9
2025-09-18T06:12	10	29	0.3	29	30	365	0.2	364	365	11.5	87.8
2025-09-18T06:13	10	30	0.4	30	31	365	0.2	365	366	11.6	87.4
2025-09-18T06:14	10	32	0.4	31	32	366	0.2	365	366	11.7	87.2
2025-09-18T06:15	10	33	0.4	32	34	366	0.2	366	367	11.7	87.2
2025-09-18T06:16	10	34	0.4	34	35	367	0.2	366	367	11.8	87.3
2025-09-18T06:17	10	35	0.3	35	36	367	0.3	366	368	11.9	86.6
2025-09-18T06:18	10	36	0.2	36	37	367	0.2	367	368	12.0	85.7
2025-09-18T06:19	10	37	0.2	36	37	368	0.2	367	368	12.1	85.0
2025-09-18T06:20	10	38	0.2	37	38	368	0.3	367	368	12.1	85.1
2025-09-18T06:21	10	38	0.2	38	39	368	0.2	367	368	11.9	86.6
2025-09-18T06:22	10	39	0.2	39	40	368	0.2	368	369	11.7	88.8
2025-09-18T06:23	10	40	0.2	39	40	369	0.3	368	370	11.7	88.3
2025-09-18T06:24	10	40	0.2	40	41	369	0.2	369	370	11.9	86.3
2025-09-18T06:25	10	41	0.1	41	41	370	0.2	370	371	12.3	84.1
2025-09-18T06:26	10	41	0.1	41	42	370	0.2	370	371	12.6	82.8
2025-09-18T06:27	10	42	0.2	42	42	371	0.2	371	371	12.9	80.9
2025-09-18T06:28	10	42	0.2	42	43	371	0.2	371	372	12.8	80.6
2025-09-18T06:29	10	43	0.2	42	43	372	0.2	371	372	12.9	81.6
2025-09-18T06:30	10	43	0.1	43	44	372	0.2	371	372	12.9	82.3
2025-09-18T06:31	10	44	0.1	43	44	372	0.2	372	373	12.9	82.4
2025-09-18T06:32	10	44	0.1	44	44	373	0.2	372	373	12.9	83.2
2025-09-18T06:33	10	44	0.1	44	45	373	0.2	372	374	12.8	84.5
2025-09-18T06:34	10	45	0.1	45	45	373	0.2	373	374	12.5	85.3
2025-09-18T06:35	10	45	0.2	45	46	374	0.2	373	374	12.4	85.5
2025-09-18T06:36	10	46	0.2	46	46	374	0.2	374	375	12.4	85.9
2025-09-18T06:37	10	47	0.2	46	47	374	0.2	374	375	12.5	85.5
2025-09-18T06:38	10	47	0.2	47	48	375	0.3	374	376	12.4	85.3
2025-09-18T06:39	10	48	0.2	48	49	375	0.2	375	376	12.4	85.1
2025-09-18T06:40	10	49	0.3	48	49	376	0.2	375	376	12.4	84.9
2025-09-18T06:41	10	49	0.2	49	50	376	0.2	375	376	12.4	84.5
2025-09-18T06:42	10	50	0.3	50	51	376	0.3	375	377	12.4	84.7
2025-09-18T06:43	10	51	0.2	50	52	375	0.4	374	376	12.2	87.0
2025-09-18T06:44	10	51	0.2	51	52	375	0.3	374	376	11.9	88.4
2025-09-18T06:45	10	52	0.2	52	53	375	0.2	374	375	11.9	88.4
2025-09-18T06:46	10	53	0.2	52	53	376	0.3	375	376	11.9	88.4
2025-09-18T06:47	10	54	0.2	53	54	376	0.3	375	377	11.9	89.0
2025-09-18T06:48	10	54	0.2	54	55	377	0.2	376	377	11.9	88.8
2025-09-18T06:49	10	55	0.2	54	55	377	0.3	376	377	11.9	88.2
2025-09-18T06:50	10	56	0.2	55	56	377	0.2	377	377	12.0	87.6
2025-09-18T06:51	10	56	0.2	56	57	377	0.2	377	378	12.0	87.8
2025-09-18T06:52	10	57	0.2	57	57	378	0.2	377	378	12.0	87.7
2025-09-18T06:53	10	58	0.2	57	58	378	0.4	377	379	12.0	87.6
2025-09-18T06:54	10	58	0.2	58	59	378	0.3	378	379	12.2	88.0
2025-09-18T06:55	10	59	0.2	59	60	379	0.3	379	380	12.3	87.8
2025-09-18T06:56	10	60	0.2	59	60	379	0.2	379	380	12.5	87.4
2025-09-18T06:57	10	61	0.3	60	61	380	0.2	379	380	12.6	85.7
2025-09-18T06:58	10	61	0.2	61	62	380	0.2	380	381	12.7	85.2
2025-09-18T06:59	10	62	0.2	62	63	381	0.2	380	381	12.7	85.7
2025-09-18T07:00	10	63	0.2	62	63	381	0.3	381	382	12.7	86.7
2025-09-18T07:01	10	63	0.3	63	64	382	0.2	382	383	12.8	87.0
2025-09-18T07:02	10	64	0.2	64	64	383	0.4	382	383	12.9	87.0
2025-09-18T07:03	10	65	0.2	64	65	383	0.3	382	383	12.9	85.2
2025-09-18T07:04	10	65	0.2	65	66	383	0.3	382	383	12.8	84.6
2025-09-18T07:05	10	66	0.2	66	66	383	0.2	382	383	12.9	84.1
2025-09-18T07:06	10	67	0.2	66	67	383	0.3	382	383	12.9	82.9
2025-09-18T07:07	10	67	0.2	67	68	383	0.2	383	384	13.0	82.2
2025-09-18T07:08	10	68	0.2	68	68	384	0.3	383	384	13.0	82.7
2025-09-18T07:09	10	69	0.2	69	69	384	0.2	384	385	13.0	83.2
2025-09-18T07:10	10	70	0.2	69	70	385	0.3	384	385	13.1	83.5
2025-09-18T07:11	10	70	0.2	70	71	385	0.2	384	385	13.1	83.0
2025-09-18T07:12	10	71	0.2	71	72	385	0.3	385	386	13.2	82.3
2025-09-18T07:13	10	72	0.2	71	72	386	0.3	385	387	13.3	82.6
2025-09-18T07:14	10	73	0.2	72	73	386	0.3	386	387	13.3	84.1
2025-09-18T07:15	10	73	0.2	73	74	386	0.2	386	387	13.1	83.9
2025-09-18T07:16	10	74	0.2	74	75	387	0.2	386	387	13.1	82.7
2025-09-18T07:17	10	75	0.3	75	76	387	0.3	386	388	13.2	83.4
2025-09-18T07:18	10	76	0.3	76	77	388	0.3	387	388	13.3	83.0
2025-09-18T07:19	10	77	0.3	76	77	388	0.2	387	388	13.3	82.4
2025-09-18T07:20	10	78	0.3	77	78	388	0.2	387	388	13.2	82.1
2025-09-18T07:21	10	79	0.2	78	79	389	0.2	388	389	13.2	82.1
2025-09-18T07:22	10	80	0.3	79	80	389	0.1	389	389	13.3	82.1
2025-09-18T07:23	10	80	0.3	80	81	389	0.2	389	390	13.5	82.3
2025-09-18T07:24	10	81	0.3	81	82	390	0.2	389	390	13.6	82.2
2025-09-18T07:25	10	82	0.2	81	83	390	0.3	390	391	13.7	81.5
2025-09-18T07:26	10	82	0.2	82	83	390	0.2	390	391	13.7	80.5
2025-09-18T07:27	10	83	0.2	83	84	391	0.2	390	391	13.7	80.2
2025-09-18T07:28	10	84	0.3	83	84	391	0.2	390	391	13.7	79.8
2025-09-18T07:29	10	84	0.3	84	85	391	0.3	390	391	13.6	79.8
2025-09-18T07:30	10	85	0.2	84	85	391	0.3	390	392	13.6	79.9
2025-09-18T07:31	10	85	0.2	85	86	391	0.2	391	392	13.6	80.1
2025-09-18T07:32	10	86	0.2	85	86	392	0.3	391	393	13.7	80.3
2025-09-18T07:33	10	86	0.2	86	86	392	0.2	392	393	13.8	79.9
2025-09-18T07:34	10	87	0.1	86	87	393	0.2	393	393	13.9	79.9
2025-09-18T07:35	10	87	0.2	87	88	393	0.2	393	394	14.0	79.6
2025-09-18T07:36	10	88	0.2	88	88	394	0.2	393	394	14.1	79.6
2025-09-18T07:37	10	89	0.1	88	89	394	0.2	394	395	14.1	80.0
2025-09-18T07:38	10	89	0.2	89	89	395	0.2	394	395	14.1	80.1
2025-09-18T07:39	10	90	0.2	89	90	395	0.3	394	395	14.1	79.9
2025-09-18T07:40	10	90	0.2	90	90	395	0.2	394	395	14.3	79.2
2025-09-18T07:41	10	91	0.2	90	91	395	0.3	394	396	14.5	77.7
2025-09-18T07:42	10	91	0.2	91	92	395	0.2	395	396	14.9	76.6
2025-09-18T07:43	10	92	0.2	91	92	396	0.2	395	396	15.1	76.2
2025-09-18T07:44	10	92	0.2	92	93	396	0.2	395	397	15.0	76.5
2025-09-18T07:45	10	93	0.2	93	93	396	0.2	396	397	15.0	76.3
2025-09-18T07:46	10	94	0.2	93	94	397	0.3	396	397	15.1	75.2
2025-09-18T07:47	10	94	0.1	94	94	397	0.3	397	398	15.3	74.0
2025-09-18T07:48	10	95	0.2	94	95	397	0.2	397	398	15.6	72.7
2025-09-18T07:49	10	95	0.2	95	96	398	0.2	397	398	15.8	72.6
2025-09-18T07:50	10	96	0.2	95	96	398	0.2	398	399	16.0	72.6
2025-09-18T07:51	10	96	0.2	96	97	399	0.2	398	399	15.8	73.8
2025-09-18T07:52	10	97	0.2	96	97	399	0.2	398	399	15.5	74.2
2025-09-18T07:53	10	97	0.2	97	98	399	0.3	398	400	15.7	72.9
2025-09-18T07:54	10	98	0.2	98	98	400	0.2	399	400	15.9	72.1
2025-09-18T07:55	10	98	0.2	98	99	400	0.2	399	400	15.8	73.9
2025-09-18T07:56	10	99	0.2	99	99	401	0.4	400	402	15.7	73.4
2025-09-18T07:57	10	99	0.2	99	100	401	0.3	400	401	15.8	74.3
2025-09-18T07:58	10	100	0.2	99	100	401	0.3	400	402	16.0	73.6
2025-09-18T07:59	10	100	0.2	100	101	402	0.3	401	402	16.0	73.9
2025-09-18T08:00	10	101	0.1	101	101	402	0.2	402	402	15.8	71.4
2025-09-18T08:01	10	101	0.1	101	102	402	0.3	401	403	16.0	73.9
2025-09-18T08:02	10	102	0.2	102	102	402	0.2	402	403	16.0	73.9
2025-09-18T08:03	10	103	0.2	102	103	403	0.2	402	403	16.0	73.9
2025-09-18T08:04	10	103	0.2	103	103	403	0.2	402	403	16.0	73.9
2025-09-18T08:05	10	104	0.1	103	104	403	0.3	403	404	16.0	73.9
2025-09-18T08:06	10	104	0.2	104	104	404	0.4	403	405	15.9	74.0
2025-09-18T08:07	10	104	0.1	104	105	404	0.3	403	405	16.0	76.4
2025-09-18T08:08	10	105	0.2	105	105	404	0.3	404	405	15.6	74.5
2025-09-18T08:09	10	105	0.2	105	106	404	0.2	404	405	15.6	70.6
2025-09-18T08:10	10	106	0.2	105	106	404	0.2	403	404	15.6	70.9
2025-09-18T08:11	10	106	0.2	106	107	405	0.4	404	406	15.6	73.9
2025-09-18T08:12	10	107	0.2	106	107	406	0.4	405	407	15.6	76.0
2025-09-18T08:13	10	107	0.2	107	108	405	0.3	404	406	15.6	73.3
2025-09-18T08:14	10	108	0.2	108	108	405	0.3	405	406	15.6	70.9
2025-09-18T08:15	10	108	0.2	108	109	406	0.5	405	407	15.8	70.9
2025-09-18T08:16	10	109	0.2	108	109	407	0.3	406	408	15.8	71.6
2025-09-18T08:17	10	109	0.2	109	110	407	0.2	406	407	15.8	70.9
2025-09-18T08:18	10	110	0.2	109	110	407	0.3	406	408	15.8	69.1
2025-09-18T08:19	10	110	0.2	110	111	407	0.2	406	407	15.9	68.4
2025-09-18T08:20	10	111	0.2	110	111	407	0.3	406	408	16.0	69.4
2025-09-18T08:21	10	111	0.3	110	111	408	0.3	407	408	15.9	68.9
2025-09-18T08:22	10	111	0.2	111	112	408	0.3	408	409	15.9	71.1
2025-09-18T08:23	10	112	0.2	111	112	408	0.2	408	409	15.9	69.7
2025-09-18T08:24	10	112	0.2	112	113	409	0.3	408	409	15.9	70.2
2025-09-18T08:25	10	113	0.2	112	113	410	0.5	409	411	16.2	71.7
2025-09-18T08:26	10	113	0.1	113	113	410	0.2	409	411	16.3	72.2
2025-09-18T08:27	10	114	0.1	113	114	410	0.3	409	411	16.0	69.4
2025-09-18T08:28	10	114	0.1	114	114	410	0.2	409	410	16.0	70.0
2025-09-18T08:29	10	114	0.1	114	115	409	0.2	409	410	16.0	70.4
2025-09-18T08:30	10	115	0.1	114	115	410	0.3	409	410	16.0	70.3
2025-09-18T08:31	10	115	0.1	115	115	410	0.3	409	410	16.0	70.2
2025-09-18T08:32	10	116	0.2	115	116	410	0.3	410	411	16.2	70.1
2025-09-18T08:33	10	116	0.1	116	116	411	0.4	411	412	16.4	69.2
2025-09-18T08:34	10	116	0.1	116	117	412	0.4	412	413	16.5	69.5
2025-09-18T08:35	10	117	0.2	116	117	414	0.3	413	414	16.6	71.4
2025-09-18T08:36	10	117	0.1	117	117	413	0.3	413	414	16.6	71.2
2025-09-18T08:37	10	118	0.2	117	118	413	0.3	413	414	16.4	70.2
2025-09-18T08:38	10	118	0.1	118	118	413	0.3	412	413	16.5	69.1
2025-09-18T08:39	10	118	0.1	118	119	413	0.2	412	413	16.7	68.1
2025-09-18T08:40	10	119	0.1	118	119	413	0.2	413	414	16.8	68.4
2025-09-18T08:41	10	119	0.1	119	120	414	0.3	413	414	17.2	66.5
2025-09-18T08:42	10	120	0.1	119	120	414	0.5	413	415	17.4	66.9
2025-09-18T08:43	10	120	0.2	120	120	415	0.2	415	416	17.1	68.0
2025-09-18T08:44	10	120	0.1	120	121	415	0.4	414	416	17.0	67.0
2025-09-18T08:45	10	121	0.2	120	121	415	0.2	414	416	16.9	65.4
2025-09-18T08:46	10	121	0.2	121	122	415	0.3	415	416	16.9	65.5
2025-09-18T08:47	10	122	0.1	121	122	415	0.3	414	416	16.8	66.1
2025-09-18T08:48	10	122	0.1	122	122	416	0.2	415	416	16.7	66.9
2025-09-18T08:49	10	122	0.1	122	123	415	0.3	415	416	16.8	66.0
2025-09-18T08:50	10	123	0.2	122	123	416	0.2	416	417	16.9	65.9
2025-09-18T08:51	10	123	0.2	123	123	416	0.2	416	417	16.8	64.8
2025-09-18T08:52	10	123	0.1	123	124	417	0.4	416	417	16.8	65.3
2025-09-18T08:53	10	124	0.1	123	124	417	0.3	416	417	16.8	65.9
2025-09-18T08:54	10	124	0.1	124	124	417	0.3	416	417	16.7	65.6
2025-09-18T08:55	10	124	0.1	124	125	417	0.5	416	418	16.7	66.0
2025-09-18T08:56	10	125	0.1	125	125	417	0.3	416	418	16.7	65.8
2025-09-18T08:57	10	125	0.1	125	125	418	0.3	417	418	16.7	66.2
2025-09-18T08:58	10	125	0.1	125	126	417	0.2	417	418	16.8	66.0
2025-09-18T08:59	10	126	0.1	125	126	418	0.3	417	419	17.1	66.0
2025-09-18T09:00	10	126	0.1	126	126	418	0.3	418	419	17.1	65.3
2025-09-18T09:01	10	126	0.1	126	127	419	0.4	419	420	17.1	65.8
2025-09-18T09:02	10	127	0.1	127	127	420	0.2	420	421	17.3	65.1
2025-09-18T09:03	10	127	0.1	127	127	420	0.2	420	421	17.6	64.4
2025-09-18T09:04	10	128	0.2	127	128	420	0.2	420	421	17.5	65.5
2025-09-18T09:05	10	128	0.1	128	128	421	0.4	421	422	17.3	65.3
2025-09-18T09:06	10	128	0.1	128	128	422	0.2	421	422	17.5	66.3
2025-09-18T09:07	10	129	0.1	128	129	422	0.3	421	422	17.6	65.2
2025-09-18T09:08	10	129	0.1	129	129	422	0.3	422	423	17.7	65.0
2025-09-18T09:09	10	129	0.1	129	129	423	0.3	422	423	17.9	65.2
2025-09-18T09:10	10	129	0.1	129	130	423	0.3	422	423	17.6	64.1
2025-09-18T09:11	10	130	0.1	129	130	422	0.4	421	423	17.3	64.9
2025-09-18T09:12	10	130	0.1	130	130	422	0.3	421	423	17.3	65.3
2025-09-18T09:13	10	130	0.1	130	130	422	0.3	421	422	17.5	65.4
2025-09-18T09:14	10	131	0.1	130	131	422	0.4	421	423	17.5	65.6
2025-09-18T09:15	10	131	0.1	131	131	422	0.6	420	423	17.3	64.6
2025-09-18T09:16	10	131	0.1	131	131	421	0.2	421	422	17.2	64.4
2025-09-18T09:17	10	131	0.2	131	132	422	0.3	421	423	17.3	64.6
2025-09-18T09:18	10	132	0.1	131	132	423	0.4	423	424	17.5	65.8
2025-09-18T09:19	10	132	0.1	132	132	424	0.2	423	424	17.6	63.4
2025-09-18T09:20	10	132	0.1	132	133	424	0.2	423	424	17.8	63.3
2025-09-18T09:21	10	133	0.1	132	133	424	0.4	423	425	17.9	64.8
2025-09-18T09:22	10	133	0.2	133	133	425	0.3	425	426	18.0	65.3
2025-09-18T09:23	10	133	0.1	133	134	425	0.3	425	426	18.0	63.4
2025-09-18T09:24	10	134	0.1	134	134	425	0.1	425	425	17.9	63.2
2025-09-18T09:25	10	134	0.1	134	134	426	0.2	425	426	18.0	64.1
2025-09-18T09:26	10	135	0.2	134	135	426	0.2	426	427	18.0	63.8
2025-09-18T09:27	10	135	0.1	135	135	426	0.2	426	427	18.0	63.2
2025-09-18T09:28	10	135	0.1	135	136	427	0.3	426	427	18.2	62.3
2025-09-18T09:29	10	135	0.1	135	136	427	0.3	426	427	18.1	65.3
2025-09-18T09:30	10	136	0.1	135	136	426	0.4	425	427	17.7	65.4
2025-09-18T09:31	10	136	0.2	136	137	427	0.3	426	427	17.7	65.8
2025-09-18T09:32	10	136	0.1	136	136	427	0.3	426	427	18.0	66.7
2025-09-18T09:33	10	136	0.1	136	137	427	0.5	426	427	17.9	66.0
2025-09-18T09:34	10	137	0.1	137	137	426	0.3	426	427	17.8	65.1
2025-09-18T09:35	10	137	0.1	137	137	427	0.4	426	428	18.0	64.8
2025-09-18T09:36	10	137	0.1	137	138	428	0.3	427	429	18.1	65.6
2025-09-18T09:37	10	138	0.2	137	138	428	0.3	428	429	18.1	67.1
2025-09-18T09:38	10	138	0.2	138	138	428	0.4	427	429	18.1	65.3
2025-09-18T09:39	10	138	0.1	138	139	428	0.2	428	428	18.1	65.3
2025-09-18T09:40	10	139	0.1	138	139	429	0.3	428	430	18.2	65.3
2025-09-18T09:41	10	139	0.1	139	139	429	0.3	429	430	18.1	64.9
2025-09-18T09:42	10	139	0.1	139	139	428	0.2	428	429	18.0	64.5
2025-09-18T09:43	10	139	0.1	139	140	428	0.2	428	429	18.0	64.3
2025-09-18T09:44	10	140	0.1	140	140	429	0.5	428	430	18.2	64.6
2025-09-18T09:45	10	140	0.1	140	140	430	0.3	430	431	18.5	65.9
2025-09-18T09:46	10	141	0.1	140	141	432	0.3	431	432	18.4	64.0
2025-09-18T09:47	10	141	0.1	141	141	431	0.3	430	431	18.3	64.0
2025-09-18T09:48	10	141	0.1	141	141	431	0.2	431	431	18.3	64.1
2025-09-18T09:49	10	141	0.1	141	142	432	0.5	431	433	18.3	64.4
2025-09-18T09:50	10	142	0.2	141	142	431	0.3	430	432	18.5	64.6
2025-09-18T09:51	10	142	0.2	142	143	432	0.4	431	432	18.6	63.4
2025-09-18T09:52	10	142	0.2	142	143	432	0.4	431	433	18.8	63.4
2025-09-18T09:53	10	143	0.2	142	143	432	0.5	431	433	18.8	64.4
2025-09-18T09:54	10	143	0.2	143	143	432	0.3	431	433	18.5	63.8
2025-09-18T09:55	10	143	0.2	143	144	432	0.4	431	433	18.5	63.3
2025-09-18T09:56	10	144	0.2	143	144	434	0.4	433	434	18.7	64.9
2025-09-18T09:57	10	144	0.2	144	144	434	0.3	434	435	19.0	64.9
2025-09-18T09:58	10	144	0.2	144	145	435	0.4	435	436	19.2	65.3
2025-09-18T09:59	10	144	0.2	144	145	433	0.9	432	435	18.9	63.0
2025-09-18T10:00	10	145	0.2	144	145	433	0.5	432	434	18.8	64.3
2025-09-18T10:01	10	145	0.2	144	145	432	0.5	431	433	18.7	64.5
2025-09-18T10:02	10	145	0.2	145	145	432	0.4	431	433	18.5	64.5
2025-09-18T10:03	10	145	0.2	145	146	432	0.2	432	433	18.5	64.2
2025-09-18T10:04	10	146	0.2	145	146	433	0.4	432	434	18.6	64.1
2025-09-18T10:05	10	146	0.2	145	146	434	0.5	433	435	18.7	64.7
2025-09-18T10:06	10	146	0.2	146	147	434	0.5	433	435	18.9	64.1
2025-09-18T10:07	10	146	0.2	146	147	435	0.3	434	435	19.0	63.3
2025-09-18T10:08	10	147	0.2	146	147	435	0.5	434	436	19.1	63.3
2025-09-18T10:09	10	147	0.2	146	147	436	0.2	435	436	19.0	62.9
2025-09-18T10:10	10	147	0.2	147	148	435	0.2	435	436	19.2	62.0
2025-09-18T10:11	10	147	0.2	147	148	435	0.3	434	436	19.5	60.9
2025-09-18T10:12	10	148	0.2	147	148	436	0.6	435	438	19.8	60.7
2025-09-18T10:13	10	148	0.2	148	148	438	0.6	437	439	19.7	62.4
2025-09-18T10:14	10	148	0.2	148	149	438	0.6	436	439	19.5	62.3
2025-09-18T10:15	10	148	0.1	148	149	436	0.6	435	437	19.2	62.2
2025-09-18T10:16	10	149	0.2	148	149	436	0.5	436	438	19.2	61.7
2025-09-18T10:17	10	149	0.2	148	149	437	0.3	437	438	19.4	61.8
2025-09-18T10:18	10	149	0.2	149	149	438	0.6	438	440	19.6	63.5
2025-09-18T10:19	10	149	0.2	149	149	439	0.6	438	440	19.6	61.9
2025-09-18T10:20	10	149	0.1	149	149	439	0.4	438	440	19.8	63.3
2025-09-18T10:21	10	149	0.1	149	150	437	0.7	436	439	19.6	62.4
2025-09-18T10:22	10	149	0.1	149	150	435	0.6	434	436	19.3	63.0
2025-09-18T10:23	10	149	0.1	149	150	435	0.4	434	436	19.2	62.5
2025-09-18T10:24	10	149	0.1	149	150	436	0.3	435	436	19.1	62.4
2025-09-18T10:25	10	150	0.1	149	150	436	0.2	436	437	19.2	62.7
2025-09-18T10:26	10	150	0.1	150	150	438	0.4	437	439	19.3	62.4
2025-09-18T10:27	10	150	0.1	150	150	438	0.4	437	439	19.4	63.1
2025-09-18T10:28	10	150	0.1	150	150	440	0.9	438	441	19.9	63.3
2025-09-18T10:29	10	150	0.2	150	151	440	0.4	439	441	19.8	62.3
2025-09-18T10:30	10	151	0.1	150	151	440	0.7	438	441	20.0	63.3
2025-09-18T10:31	10	150	0.1	150	151	438	1.2	435	439	19.5	62.8
2025-09-18T10:32	10	150	0.1	150	151	436	0.3	435	437	19.3	63.2
2025-09-18T10:33	10	151	0.1	150	151	436	0.2	436	437	19.4	63.0
2025-09-18T10:34	10	151	0.2	150	151	438	0.9	437	440	19.5	63.2
2025-09-18T10:35	10	151	0.1	151	151	439	0.3	438	439	19.7	63.2
2025-09-18T10:36	10	151	0.1	151	151	439	0.6	438	440	19.8	63.5
2025-09-18T10:37	10	151	0.1	151	152	440	0.4	439	441	20.1	63.2
2025-09-18T10:38	10	152	0.1	152	152	440	0.7	438	441	19.8	62.0
2025-09-18T10:39	10	152	0.1	152	152	438	0.5	437	439	19.6	63.1
2025-09-18T10:40	10	152	0.1	152	152	439	0.5	438	440	19.8	63.3
2025-09-18T10:41	10	152	0.1	152	152	440	0.4	439	440	20.0	62.9
2025-09-18T10:42	10	152	0.1	152	152	439	0.3	439	440	19.8	61.9
2025-09-18T10:43	10	152	0.1	152	153	441	0.7	439	442	19.8	62.9
2025-09-18T10:44	10	153	0.1	152	153	441	0.4	440	442	20.0	62.4
2025-09-18T10:45	10	153	0.1	152	153	440	0.3	439	441	19.7	61.9
2025-09-18T10:46	10	153	0.1	153	153	440	0.3	440	441	19.8	62.5
2025-09-18T10:47	10	153	0.1	153	153	442	0.7	440	443	19.9	62.9
2025-09-18T10:48	10	153	0.1	153	153	442	0.8	440	443	20.1	62.3
2025-09-18T10:49	10	153	0.1	153	153	441	0.5	440	442	20.0	61.8
2025-09-18T10:50	10	153	0.1	153	153	440	0.3	439	440	19.8	60.5
2025-09-18T10:51	10	153	0.1	153	153	440	0.3	439	441	19.8	60.6
2025-09-18T10:52	10	153	0.1	153	153	440	0.5	439	441	19.9	60.7
2025-09-18T10:53	10	153	0.2	153	154	441	0.4	440	441	19.9	60.7
2025-09-18T10:54	10	154	0.2	153	154	442	0.7	441	443	20.0	61.1
2025-09-18T10:55	10	154	0.2	154	154	443	0.3	442	444	20.2	62.1
2025-09-18T10:56	10	154	0.1	154	155	443	0.3	442	444	20.2	60.3
2025-09-18T10:57	10	155	0.1	154	155	444	0.7	442	444	20.2	61.2
2025-09-18T10:58	10	155	0.1	154	155	442	0.2	441	442	20.1	61.0
2025-09-18T10:59	10	155	0.1	154	155	442	0.2	441	443	20.1	61.1
2025-09-18T11:00	10	155	0.1	155	155	444	0.5	442	445	20.3	62.0
2025-09-18T11:01	10	155	0.1	155	155	444	0.2	443	444	20.3	61.5
2025-09-18T11:02	10	155	0.1	155	155	444	0.3	443	445	20.3	61.2
2025-09-18T11:03	10	155	0.1	155	155	444	0.7	443	445	20.4	61.5
2025-09-18T11:04	10	155	0.1	155	155	444	0.5	443	445	20.3	62.0
2025-09-18T11:05	10	155	0.1	155	155	444	0.5	443	446	20.2	61.8
2025-09-18T11:06	10	155	0.1	155	156	446	0.4	445	446	20.5	62.3
2025-09-18T11:07	10	156	0.1	155	156	445	0.3	444	446	20.4	60.3
2025-09-18T11:08	10	156	0.1	156	156	446	1.0	445	448	20.5	61.1
2025-09-18T11:09	10	156	0.1	156	156	447	0.8	446	448	20.6	60.4
2025-09-18T11:10	10	156	0.1	156	157	445	0.9	443	446	20.3	59.8
2025-09-18T11:11	10	156	0.2	156	157	444	0.4	443	445	20.3	60.2
2025-09-18T11:12	10	156	0.1	156	157	445	0.5	444	446	20.6	60.5
2025-09-18T11:13	10	157	0.1	156	157	446	0.4	445	447	20.7	58.8
2025-09-18T11:14	10	157	0.1	156	157	447	0.4	446	448	20.8	60.3
2025-09-18T11:15	10	157	0.1	156	157	446	0.6	445	448	20.6	59.7
2025-09-18T11:16	10	157	0.1	157	157	445	0.4	445	446	20.5	59.6
2025-09-18T11:17	10	157	0.1	157	157	445	0.4	445	446	20.5	60.5
2025-09-18T11:18	10	157	0.1	157	157	446	0.4	445	447	20.8	59.5
2025-09-18T11:19	10	157	0.1	157	157	447	0.4	447	448	21.0	61.1
2025-09-18T11:20	10	157	0.1	157	157	448	0.6	447	449	20.8	58.4
2025-09-18T11:21	10	157	0.1	157	158	447	0.3	447	448	20.8	58.9
2025-09-18T11:22	10	157	0.1	157	158	447	0.3	447	448	20.8	58.6
2025-09-18T11:23	10	157	0.1	157	157	447	0.5	446	448	20.8	59.0
2025-09-18T11:24	10	157	0.1	157	158	447	0.5	446	448	20.8	60.1
2025-09-18T11:25	10	157	0.1	157	158	448	0.2	448	448	20.8	59.2
2025-09-18T11:26	10	157	0.1	157	158	448	0.3	447	448	20.9	58.1
2025-09-18T11:27	10	158	0.1	157	158	448	0.3	447	448	21.0	57.7
2025-09-18T11:28	10	158	0.1	158	158	449	0.3	448	449	21.1	57.7
2025-09-18T11:29	10	158	0.1	158	158	449	0.3	448	449	21.5	56.3
2025-09-18T11:30	10	158	0.1	158	158	450	0.2	449	450	21.7	56.0
2025-09-18T11:31	10	158	0.1	158	158	450	0.3	450	451	21.6	56.7
2025-09-18T11:32	10	158	0.1	158	158	450	0.5	449	451	21.3	57.6
2025-09-18T11:33	10	158	0.1	158	158	450	0.9	448	451	21.3	58.6
2025-09-18T11:34	10	158	0.2	157	158	446	0.9	445	448	20.8	58.7
2025-09-18T11:35	10	158	0.1	157	158	446	0.6	445	447	20.8	58.4
2025-09-18T11:36	10	158	0.1	157	158	448	0.6	447	449	21.0	58.5
2025-09-18T11:37	10	158	0.1	157	158	449	0.2	449	450	21.3	58.3
2025-09-18T11:38	10	158	0.1	158	158	449	0.2	449	450	21.5	57.1
2025-09-18T11:39	10	158	0.2	158	159	451	0.3	450	451	21.6	59.9
2025-09-18T11:40	10	158	0.2	158	159	451	0.3	450	451	21.6	57.6
2025-09-18T11:41	10	159	0.2	158	159	451	0.4	450	452	21.6	57.9
2025-09-18T11:42	10	159	0.2	158	159	450	0.8	449	452	21.4	58.3
2025-09-18T11:43	10	159	0.2	158	159	451	0.4	450	452	21.3	59.5
2025-09-18T11:44	10	159	0.2	158	159	449	0.7	448	451	21.4	60.0
2025-09-18T11:45	10	159	0.2	158	159	448	0.5	447	449	21.2	59.3
2025-09-18T11:46	10	158	0.2	158	159	447	1.0	446	449	21.2	58.9
2025-09-18T11:47	10	158	0.2	158	159	447	0.2	447	448	21.1	59.2
2025-09-18T11:48	10	158	0.2	158	159	449	0.7	447	450	21.2	59.7
2025-09-18T11:49	10	159	0.2	158	159	450	0.3	450	451	21.7	59.1
2025-09-18T11:50	10	159	0.1	159	159	450	0.8	448	451	21.4	58.3
2025-09-18T11:51	10	159	0.1	159	159	449	0.5	449	450	21.4	58.8
2025-09-18T11:52	10	159	0.1	159	159	450	0.7	449	451	21.5	58.3
2025-09-18T11:53	10	159	0.1	159	159	450	0.3	449	450	21.6	57.3
2025-09-18T11:54	10	159	0.1	159	159	451	0.3	450	452	21.5	57.3
2025-09-18T11:55	10	159	0.1	159	159	450	0.3	450	451	21.5	58.1
2025-09-18T11:56	10	159	0.1	159	159	451	0.3	450	452	21.7	57.4
2025-09-18T11:57	10	159	0.1	159	159	452	0.4	451	453	21.8	57.9
2025-09-18T11:58	10	159	0.1	159	159	453	0.3	452	454	22.1	59.2
2025-09-18T11:59	10	159	0.1	159	159	453	0.6	452	454	22.3	55.1
2025-09-18T12:00	10	159	0.1	159	159	454	0.3	453	455	22.4	57.4
2025-09-18T12:01	10	159	0.1	159	159	454	0.8	452	455	22.3	58.1
2025-09-18T12:02	10	159	0.1	159	159	451	0.8	450	453	21.6	57.8
2025-09-18T12:03	10	159	0.1	158	159	450	0.2	450	451	21.5	58.2
2025-09-18T12:04	10	159	0.1	158	159	449	0.4	449	450	21.4	57.9
2025-09-18T12:05	10	159	0.1	159	159	451	0.4	450	452	21.5	58.0
2025-09-18T12:06	10	159	0.1	159	159	451	0.3	451	452	21.6	57.5
2025-09-18T12:07	10	159	0.1	159	159	452	0.5	451	453	21.8	57.6
2025-09-18T12:08	10	159	0.1	159	159	451	1.0	450	453	22.0	57.9
2025-09-18T12:09	10	159	0.1	159	159	451	0.4	450	452	22.0	57.5
2025-09-18T12:10	10	159	0.1	159	159	452	0.7	451	454	22.0	57.8
2025-09-18T12:11	10	159	0.1	159	159	452	0.4	452	453	22.0	56.9
2025-09-18T12:12	10	159	0.1	159	159	453	0.4	452	454	22.2	57.2
2025-09-18T12:13	10	159	0.1	159	159	455	0.6	454	456	22.4	58.1
2025-09-18T12:14	10	159	0.1	159	159	453	1.3	451	456	22.3	56.1
2025-09-18T12:15	10	159	0.1	159	159	453	0.4	453	454	22.2	56.9
2025-09-18T12:16	10	159	0.1	159	159	454	0.4	453	455	22.4	57.2
2025-09-18T12:17	10	159	0.1	159	159	454	0.7	453	455	22.5	57.5
2025-09-18T12:18	10	159	0.1	158	159	454	0.6	453	455	22.3	55.8
2025-09-18T12:19	10	159	0.1	158	159	453	0.2	452	453	22.3	56.2
2025-09-18T12:20	10	158	0.1	158	159	453	0.5	453	454	22.3	56.0
2025-09-18T12:21	10	158	0.1	158	159	454	0.4	453	455	22.5	56.3
2025-09-18T12:22	10	158	0.1	158	159	453	0.4	452	454	22.3	55.5
2025-09-18T12:23	10	158	0.1	158	159	453	0.3	452	453	22.3	56.2
2025-09-18T12:24	10	158	0.1	158	158	453	0.3	453	454	22.3	55.8
2025-09-18T12:25	10	158	0.1	157	158	453	0.3	453	454	22.3	56.1
2025-09-18T12:26	10	158	0.1	158	158	453	0.1	453	453	22.3	55.6
2025-09-18T12:27	10	158	0.1	157	158	454	0.4	453	455	22.4	56.3
2025-09-18T12:28	10	158	0.2	157	158	454	0.3	454	455	22.4	55.5
2025-09-18T12:29	10	158	0.2	157	158	454	0.2	454	455	22.5	55.5
2025-09-18T12:30	10	157	0.2	157	158	454	0.4	453	455	22.6	55.8
2025-09-18T12:31	10	158	0.1	157	158	454	0.7	453	456	22.8	56.6
2025-09-18T12:32	10	157	0.2	157	158	457	0.8	455	459	23.1	57.2
2025-09-18T12:33	10	157	0.1	157	157	456	0.6	455	457	23.0	56.7
2025-09-18T12:34	10	157	0.1	157	157	456	0.2	455	456	22.8	56.2
2025-09-18T12:35	10	157	0.1	157	157	456	0.3	455	456	22.9	56.7
2025-09-18T12:36	10	156	0.2	156	157	456	0.4	455	457	22.9	54.8
2025-09-18T12:37	10	156	0.1	156	156	455	0.3	454	456	22.9	54.2
2025-09-18T12:38	10	155	0.2	155	156	455	0.4	454	455	22.9	54.6
2025-09-18T12:39	10	155	0.1	155	155	455	0.4	454	456	23.0	55.4
2025-09-18T12:40	10	155	0.1	155	155	456	0.4	455	456	23.1	54.6
2025-09-18T12:41	10	155	0.1	155	155	455	0.7	454	457	22.9	53.6
2025-09-18T12:42	10	155	0.1	154	155	454	0.3	454	455	22.8	54.9
2025-09-18T12:43	10	154	0.1	154	155	455	0.3	454	456	22.8	53.3
2025-09-18T12:44	10	154	0.1	154	154	455	0.4	454	456	22.9	54.1
2025-09-18T12:45	10	154	0.1	154	154	456	0.2	455	456	23.2	53.5
2025-09-18T12:46	10	154	0.1	154	154	456	0.3	455	457	23.3	55.0
2025-09-18T12:47	10	154	0.1	154	154	455	0.7	454	457	23.3	54.1
2025-09-18T12:48	10	153	0.2	153	154	453	1.3	451	455	22.9	54.1
2025-09-18T12:49	10	153	0.3	152	153	451	0.3	450	452	22.8	56.1
2025-09-18T12:50	10	152	0.1	152	152	453	0.5	452	454	23.2	55.5
2025-09-18T12:51	10	152	0.1	152	152	454	0.3	453	455	23.1	55.4
2025-09-18T12:52	10	152	0.1	152	152	452	0.9	451	454	22.8	54.0
2025-09-18T12:53	10	152	0.1	152	152	452	0.3	451	453	22.8	54.4
2025-09-18T12:54	10	152	0.1	152	153	452	0.5	451	453	22.8	54.1
2025-09-18T12:55	10	153	0.1	152	153	454	0.9	452	456	22.9	54.9
2025-09-18T12:56	10	153	0.1	153	153	455	0.4	454	456	23.1	53.4
2025-09-18T12:57	10	153	0.1	153	153	454	0.9	452	455	22.9	53.8
2025-09-18T12:58	10	153	0.1	152	153	453	0.4	452	454	22.9	54.4
2025-09-18T12:59	10	152	0.1	152	153	452	0.4	452	453	22.8	54.8
2025-09-18T13:00	10	152	0.1	152	152	453	0.3	453	454	22.8	54.6
2025-09-18T13:01	10	152	0.1	152	152	453	0.3	453	454	23.1	55.2
2025-09-18T13:02	10	152	0.1	151	152	454	0.6	453	455	23.0	54.2
2025-09-18T13:03	10	151	0.1	151	151	455	0.4	454	456	23.1	53.8
2025-09-18T13:04	10	151	0.1	151	152	454	0.3	453	454	23.0	53.2
2025-09-18T13:05	10	151	0.1	151	151	454	0.4	454	456	23.0	53.2
2025-09-18T13:06	10	151	0.1	150	151	455	0.3	455	456	23.2	53.5
2025-09-18T13:07	10	150	0.2	150	151	455	0.2	455	456	23.3	52.5
2025-09-18T13:08	10	150	0.2	150	150	455	0.2	455	456	23.4	53.1
2025-09-18T13:09	10	150	0.2	149	151	456	0.3	455	457	23.6	53.7
2025-09-18T13:10	10	150	0.3	149	150	456	0.4	455	457	23.4	54.4
2025-09-18T13:11	10	149	0.2	149	150	456	0.5	455	457	23.4	54.8
2025-09-18T13:12	10	149	0.3	149	150	455	1.0	452	456	23.4	54.8
2025-09-18T13:13	10	149	0.2	148	149	452	0.6	451	453	23.1	53.9
2025-09-18T13:14	10	148	0.2	148	149	451	0.7	450	452	23.0	53.5
2025-09-18T13:15	10	148	0.1	148	148	452	0.2	451	452	23.1	53.7
2025-09-18T13:16	10	148	0.1	148	148	453	0.6	452	454	23.2	53.5
2025-09-18T13:17	10	147	0.1	147	148	454	0.6	453	455	23.3	53.9
2025-09-18T13:18	10	147	0.1	147	147	454	0.2	453	454	23.3	53.7
2025-09-18T13:19	10	147	0.1	147	147	454	0.6	452	454	23.3	53.4
2025-09-18T13:20	10	147	0.1	146	147	453	0.4	452	454	23.3	53.8
2025-09-18T13:21	10	146	0.1	146	147	454	0.6	453	455	23.4	53.0
2025-09-18T13:22	10	146	0.1	146	146	455	0.3	455	456	23.7	54.0
2025-09-18T13:23	10	146	0.1	146	146	456	0.3	455	456	23.8	52.1
2025-09-18T13:24	10	146	0.1	146	146	456	0.4	456	457	23.9	53.6
2025-09-18T13:25	10	146	0.1	146	146	457	0.4	456	458	23.9	52.9
2025-09-18T13:26	10	146	0.1	146	146	456	0.4	455	457	23.7	53.2
2025-09-18T13:27	10	146	0.2	145	146	455	0.7	454	457	23.6	53.1
2025-09-18T13:28	10	145	0.1	145	145	455	0.3	454	456	23.5	53.1
2025-09-18T13:29	10	145	0.3	144	145	455	0.2	455	456	23.6	53.2
2025-09-18T13:30	10	144	0.1	144	145	455	0.3	455	456	23.8	55.1
2025-09-18T13:31	10	144	0.1	144	144	456	0.3	456	457	24.0	53.9
2025-09-18T13:32	10	144	0.2	143	144	456	0.5	455	457	23.9	53.9
2025-09-18T13:33	10	143	0.1	143	144	456	0.2	455	456	23.8	52.8
2025-09-18T13:34	10	143	0.2	143	143	456	0.2	456	457	24.0	
2025-09-18T13:35	10	142	0.1	142	143	455	0.8	454	457	23.9	52.9
2025-09-18T13:36	10	142	0.2	142	143	455	0.5	453	455	23.8	53.2
2025-09-18T13:37	10	142	0.2	141	142	454	0.3	453	454	23.6	52.8
2025-09-18T13:38	10	141	0.1	141	142	455	0.4	454	455	23.8	53.2
2025-09-18T13:39	10	141	0.1	141	141	452	0.8	451	455	23.7	52.3
2025-09-18T13:40	10	141	0.1	141	141	453	0.6	452	454	23.7	52.6
2025-09-18T13:41	10	141	0.1	140	141	454	0.3	454	455	23.8	52.0
2025-09-18T13:42	10	140	0.1	140	140	455	0.3	455	456	23.8	53.5
2025-09-18T13:43	10	140	0.1	140	140	455	0.4	454	456	24.0	53.3
2025-09-18T13:44	10	140	0.2	139	140	455	0.5	454	456	24.0	53.0
2025-09-18T13:45	10	139	0.2	139	140	455	0.4	455	456	24.1	53.8
2025-09-18T13:46	10	139	0.2	138	139	454	0.6	452	455	23.9	53.0
2025-09-18T13:47	10	138	0.1	138	139	453	0.4	452	454	23.8	52.9
2025-09-18T13:48	10	138	0.4	137	138	454	0.3	453	454	23.9	53.4
2025-09-18T13:49	10	138	0.3	137	138	454	0.4	453	455	24.0	53.3
2025-09-18T13:50	10	137	0.2	137	138	455	0.6	453	455	24.0	52.8
2025-09-18T13:51	10	137	0.1	137	138	455	0.3	454	456	24.0	52.0
2025-09-18T13:52	10	137	0.4	136	137	454	0.3	453	454	23.9	52.4
2025-09-18T13:53	10	136	0.3	136	137	454	0.5	453	456	24.2	53.8
2025-09-18T13:54	10	136	0.3	135	136	454	0.5	453	456	24.3	52.9
2025-09-18T13:55	10	136	0.3	135	136	454	0.3	453	455	24.2	52.9
2025-09-18T13:56	10	135	0.4	134	135	453	0.6	452	454	23.9	52.3
2025-09-18T13:57	10	134	0.5	133	135	453	0.5	452	454	23.8	52.6
2025-09-18T13:58	10	134	0.4	133	135	452	1.1	450	454	23.9	52.9
2025-09-18T13:59	10	134	0.2	133	134	451	0.5	450	452	23.8	52.1
2025-09-18T14:00	10	133	0.2	133	134	453	0.9	452	455	23.9	52.8
2025-09-18T14:01	10	133	0.2	132	133	454	0.4	453	455	24.0	51.7
2025-09-18T14:02	10	133	0.2	132	133	455	0.4	454	456	24.3	52.2
2025-09-18T14:03	10	133	0.3	132	133	456	0.3	455	457	24.5	52.9
2025-09-18T14:04	10	132	0.3	132	133	457	0.5	456	458	24.4	52.3
2025-09-18T14:05	10	132	0.2	131	133	456	0.4	455	457	24.3	51.6
2025-09-18T14:06	10	132	0.3	131	133	456	0.3	455	457	24.1	51.6
2025-09-18T14:07	10	131	0.2	131	132	456	0.4	455	457	24.3	53.2
2025-09-18T14:08	10	131	0.2	130	131	456	0.3	455	456	24.4	52.0
2025-09-18T14:09	10	130	0.2	130	131	456	0.2	455	456	24.6	50.8
2025-09-18T14:10	10	130	0.2	130	130	456	0.3	456	457	24.7	52.1
2025-09-18T14:11	10	129	0.3	129	130	455	0.4	454	456	24.3	52.8
2025-09-18T14:12	10	129	0.2	128	129	454	0.2	454	454	24.4	52.6
2025-09-18T14:13	10	128	0.5	127	129	456	0.6	454	456	24.5	53.3
2025-09-18T14:14	10	127	0.5	126	128	456	0.7	454	456	24.5	52.8
2025-09-18T14:15	10	127	0.4	126	128	454	0.3	454	455	24.3	52.1
2025-09-18T14:16	10	127	0.1	127	127	455	0.3	454	455	24.4	52.8
2025-09-18T14:17	10	127	0.2	126	127	456	0.5	455	457	24.5	53.0
2025-09-18T14:18	10	126	0.1	126	127	456	0.3	456	457	24.7	52.8
2025-09-18T14:19	10	126	0.1	126	126	455	1.2	452	457	24.5	51.5
2025-09-18T14:20	10	126	0.2	126	126	452	0.4	451	453	24.2	51.3
2025-09-18T14:21	10	125	0.2	125	126	452	0.3	451	452	24.2	51.5
2025-09-18T14:22	10	125	0.1	125	125	452	0.5	451	453	24.2	51.9
2025-09-18T14:23	10	125	0.2	124	125	454	0.4	453	454	24.3	51.7
2025-09-18T14:24	10	124	0.2	124	125	453	0.3	453	454	24.3	51.6
2025-09-18T14:25	10	124	0.2	124	124	453	0.3	453	454	24.2	51.6
2025-09-18T14:26	10	123	0.2	123	124	454	0.4	453	455	24.3	51.9
2025-09-18T14:27	10	123	0.2	122	123	453	0.2	453	454	24.2	51.4
2025-09-18T14:28	10	123	0.1	122	123	454	0.4	453	455	24.3	51.5
2025-09-18T14:29	10	122	0.1	122	122	454	0.4	453	455	24.3	51.4
2025-09-18T14:30	10	121	0.3	121	122	454	0.6	453	456	24.4	51.3
2025-09-18T14:31	10	121	0.2	121	121	454	0.5	453	456	24.6	50.9
2025-09-18T14:32	10	120	0.1	120	121	455	0.2	454	455	24.6	51.2
2025-09-18T14:33	10	120	0.2	120	120	455	0.3	454	456	24.7	51.1
2025-09-18T14:34	10	120	0.2	119	120	455	0.6	454	456	24.7	52.1
2025-09-18T14:35	10	119	0.2	119	119	454	0.2	453	454	24.6	51.7
2025-09-18T14:36	10	119	0.2	118	119	453	0.6	452	454	24.6	52.4
2025-09-18T14:37	10	118	0.2	118	119	452	0.4	452	453	24.5	51.5
2025-09-18T14:38	10	118	0.2	117	118	454	0.5	453	454	24.4	51.6
2025-09-18T14:39	10	117	0.2	117	118	454	0.3	453	455	24.5	51.9
2025-09-18T14:40	10	117	0.2	117	117	454	0.3	454	455	24.6	52.5
2025-09-18T14:41	10	116	0.2	116	117	453	0.5	452	454	24.6	52.5
2025-09-18T14:42	10	116	0.2	115	116	452	0.2	452	453	24.6	53.1
2025-09-18T14:43	10	115	0.2	115	116	452	0.5	451	453	24.7	52.5
2025-09-18T14:44	10	115	0.2	114	115	452	0.5	451	453	24.6	51.7
2025-09-18T14:45	10	114	0.2	114	115	453	0.3	452	453	24.6	51.9
2025-09-18T14:46	10	114	0.2	114	114	452	0.3	452	453	24.6	52.2
2025-09-18T14:47	10	113	0.2	113	114	453	0.4	452	453	24.7	52.6
2025-09-18T14:48	10	113	0.2	112	113	451	0.4	451	452	24.7	53.2
2025-09-18T14:49	10	112	0.2	112	113	451	0.5	450	452	24.7	53.2
2025-09-18T14:50	10	112	0.2	111	112	451	0.5	450	451	24.7	53.2
2025-09-18T14:51	10	111	0.2	111	111	451	0.2	451	452	24.7	51.9
2025-09-18T14:52	10	110	0.2	110	111	452	0.4	451	452	24.7	53.4
2025-09-18T14:53	10	110	0.2	110	110	451	0.3	451	452	24.7	53.3
2025-09-18T14:54	10	109	0.1	109	110	450	1.2	449	452	24.7	52.1
2025-09-18T14:55	10	109	0.2	109	109	450	0.5	449	451	24.6	52.5
2025-09-18T14:56	10	109	0.3	108	109	449	0.5	448	449	24.5	52.4
2025-09-18T14:57	10	108	0.3	107	108	448	0.2	447	448	24.5	52.7
2025-09-18T14:58	10	107	0.2	107	107	448	0.4	447	449	24.6	52.7
2025-09-18T14:59	10	107	0.1	106	107	447	0.6	446	448	24.5	52.2
2025-09-18T15:00	10	106	0.1	106	106	448	1.0	446	449	24.5	52.7
2025-09-18T15:01	10	106	0.1	106	106	449	0.4	448	449	24.6	52.7
2025-09-18T15:02	10	105	0.1	105	106	448	0.2	448	448	24.6	52.2
2025-09-18T15:03	10	105	0.2	104	105	448	0.3	447	449	24.5	52.0
2025-09-18T15:04	10	104	0.1	104	105	448	0.6	447	449	24.7	53.1
2025-09-18T15:05	10	104	0.2	103	104	447	0.3	446	448	24.6	52.2
2025-09-18T15:06	10	103	0.2	103	104	447	0.3	446	447	24.4	52.2
2025-09-18T15:07	10	103	0.2	102	103	447	0.3	446	447	24.4	52.2
2025-09-18T15:08	10	102	0.2	102	102	446	0.4	445	447	24.4	52.4
2025-09-18T15:09	10	101	0.2	101	102	446	0.5	445	447	24.5	52.5
2025-09-18T15:10	10	101	0.2	100	101	447	0.6	446	448	24.4	52.0
2025-09-18T15:11	10	100	0.2	100	101	446	0.4	445	447	24.4	52.7
2025-09-18T15:12	10	100	0.1	99	100	447	0.3	446	448	24.5	52.9
2025-09-18T15:13	10	99	0.1	99	99	447	0.3	446	447	24.5	53.0
2025-09-18T15:14	10	99	0.2	98	99	445	1.1	443	446	24.5	52.7
2025-09-18T15:15	10	98	0.2	98	99	442	0.3	442	443	24.2	52.7
2025-09-18T15:16	10	97	0.2	97	98	444	0.7	442	445	24.2	53.3
2025-09-18T15:17	10	97	0.2	96	97	443	0.5	442	444	24.3	53.0
2025-09-18T15:18	10	96	0.2	96	97	443	0.2	442	443	24.2	53.2
2025-09-18T15:19	10	95	0.2	95	96	442	0.2	442	443	24.2	53.2
2025-09-18T15:20	10	95	0.2	94	95	442	0.3	442	443	24.4	53.6
2025-09-18T15:21	10	94	0.2	94	95	442	0.3	441	442	24.3	54.0
2025-09-18T15:22	10	94	0.2	93	94	442	0.3	441	442	24.2	53.5
2025-09-18T15:23	10	93	0.2	93	94	443	0.5	442	444	24.3	54.1
2025-09-18T15:24	10	93	0.2	92	93	443	0.2	443	444	24.4	53.4
2025-09-18T15:25	10	92	0.2	92	92	443	0.3	443	444	24.3	52.8
2025-09-18T15:26	10	92	0.2	91	92	444	0.5	443	445	24.4	53.2
2025-09-18T15:27	10	91	0.2	91	91	444	0.2	443	444	24.4	53.8
2025-09-18T15:28	10	91	0.2	90	91	443	0.3	443	444	24.5	54.0
2025-09-18T15:29	10	90	0.2	90	91	441	1.1	440	444	24.2	54.3
2025-09-18T15:30	10	89	0.2	89	90	440	0.3	440	441	24.1	55.4
2025-09-18T15:31	10	89	0.2	88	89	440	0.2	439	440	24.1	56.2
2025-09-18T15:32	10	88	0.2	88	88	439	0.4	439	440	24.0	56.0
2025-09-18T15:33	10	87	0.2	87	88	438	0.5	437	439	23.9	56.5
2025-09-18T15:34	10	87	0.2	86	87	438	0.2	438	439	23.8	56.4
2025-09-18T15:35	10	86	0.2	86	86	438	0.4	437	439	23.8	56.6
2025-09-18T15:36	10	86	0.2	85	86	438	0.5	437	439	23.8	56.3
2025-09-18T15:37	10	85	0.2	85	85	438	0.3	437	438	23.8	56.6
2025-09-18T15:38	10	84	0.2	84	85	438	0.3	437	439	23.8	56.8
2025-09-18T15:39	10	84	0.2	83	84	437	0.7	436	438	23.7	56.5
2025-09-18T15:40	10	83	0.3	82	84	436	0.3	435	436	23.5	56.4
2025-09-18T15:41	10	82	0.3	82	83	436	0.3	435	436	23.5	56.8
2025-09-18T15:42	10	81	0.2	81	82	435	0.3	434	436	23.4	56.8
2025-09-18T15:43	10	81	0.3	80	81	435	0.4	434	435	23.5	56.5
2025-09-18T15:44	10	80	0.2	79	80	434	0.4	434	435	23.5	56.5
2025-09-18T15:45	10	79	0.2	79	80	434	0.3	434	435	23.5	56.3
2025-09-18T15:46	10	79	0.2	78	79	435	0.5	434	436	23.5	56.3
2025-09-18T15:47	10	78	0.2	78	79	435	0.3	435	436	23.5	57.0
2025-09-18T15:48	10	78	0.1	78	78	435	0.3	434	435	23.6	56.4
2025-09-18T15:49	10	77	0.2	77	78	434	0.3	434	435	23.6	56.0
2025-09-18T15:50	10	77	0.2	77	77	435	0.4	434	436	23.7	56.8
2025-09-18T15:51	10	76	0.2	76	77	433	0.5	433	434	23.5	56.3
2025-09-18T15:52	10	76	0.2	75	76	433	0.3	432	433	23.5	56.3
2025-09-18T15:53	10	75	0.2	75	75	433	0.4	432	434	23.5	56.1
2025-09-18T15:54	10	74	0.2	74	75	434	0.4	433	435	23.6	56.8
2025-09-18T15:55	10	74	0.2	73	74	433	0.4	432	434	23.4	56.3
2025-09-18T15:56	10	73	0.2	73	73	432	0.2	432	433	23.4	56.5
2025-09-18T15:57	10	72	0.2	72	73	433	0.3	432	433	23.5	56.3
2025-09-18T15:58	10	72	0.2	71	72	432	0.3	431	432	23.5	56.3
2025-09-18T15:59	10	71	0.2	71	71	432	0.2	432	433	23.5	56.9
2025-09-18T16:00	10	70	0.2	70	71	432	0.2	431	433	23.5	56.6
2025-09-18T16:01	10	70	0.2	69	70	432	0.3	431	433	23.5	56.5
2025-09-18T16:02	10	69	0.2	69	70	432	0.5	431	433	23.5	56.9
2025-09-18T16:03	10	68	0.2	68	69	432	0.3	431	433	23.5	57.4
2025-09-18T16:04	10	68	0.2	67	68	431	0.5	429	432	23.5	56.6
2025-09-18T16:05	10	67	0.2	66	67	430	0.2	430	431	23.4	56.7
2025-09-18T16:06	10	66	0.3	66	66	431	0.3	430	431	23.4	57.3
2025-09-18T16:07	10	65	0.2	65	66	430	0.2	430	431	23.4	57.4
2025-09-18T16:08	10	64	0.2	64	65	431	0.2	430	431	23.4	57.7
2025-09-18T16:09	10	64	0.2	63	64	430	0.5	429	431	23.4	57.3
2025-09-18T16:10	10	63	0.2	63	63	429	0.2	429	429	23.3	57.0
2025-09-18T16:11	10	62	0.2	62	63	429	0.2	429	430	23.3	57.4
2025-09-18T16:12	10	62	0.2	61	62	429	0.2	428	429	23.3	57.4
2025-09-18T16:13	10	61	0.2	60	61	429	0.2	428	429	23.4	57.9
2025-09-18T16:14	10	60	0.2	60	61	429	0.2	428	429	23.4	57.8
2025-09-18T16:15	10	59	0.2	59	60	428	0.3	428	429	23.4	57.5
2025-09-18T16:16	10	59	0.2	58	59	428	0.2	427	428	23.3	57.5
2025-09-18T16:17	10	58	0.3	57	59	428	0.3	427	428	23.3	57.0
2025-09-18T16:18	10	57	0.3	57	58	427	0.3	426	427	23.3	56.7
2025-09-18T16:19	10	57	0.2	56	57	427	0.3	427	428	23.3	57.5
2025-09-18T16:20	10	56	0.3	55	56	427	0.2	427	428	23.3	57.6
2025-09-18T16:21	10	55	0.3	54	56	427	0.3	426	428	23.3	57.6
2025-09-18T16:22	10	54	0.3	54	55	426	0.3	426	427	23.3	57.5
2025-09-18T16:23	10	54	0.3	53	54	426	0.2	426	427	23.2	57.9
2025-09-18T16:24	10	53	0.4	52	54	425	0.4	424	426	23.1	57.6
2025-09-18T16:25	10	52	0.4	51	53	425	0.2	424	425	23.0	57.9
2025-09-18T16:26	10	51	0.3	50	52	425	0.3	424	426	23.0	58.3
2025-09-18T16:27	10	50	0.3	50	51	425	0.2	424	425	23.0	57.8
2025-09-18T16:28	10	49	0.4	49	50	424	0.3	423	425	23.0	58.1
2025-09-18T16:29	10	49	0.3	48	49	424	0.3	424	425	23.0	57.9
2025-09-18T16:30	10	48	0.2	47	48	424	0.3	423	425	23.1	58.2
2025-09-18T16:31	10	47	0.3	47	48	424	0.2	423	424	23.1	58.4
2025-09-18T16:32	10	46	0.3	46	47	423	0.2	423	424	23.1	58.6
2025-09-18T16:33	10	46	0.3	45	46	423	0.3	422	424	23.0	58.5
2025-09-18T16:34	10	45	0.3	45	46	423	0.2	422	423	23.0	58.0
2025-09-18T16:35	10	44	0.3	44	45	423	0.2	422	423	23.0	58.4
2025-09-18T16:36	10	44	0.2	43	44	422	0.3	422	423	23.0	58.4
2025-09-18T16:37	10	43	0.3	42	43	422	0.2	422	422	23.0	58.0
2025-09-18T16:38	10	42	0.3	42	43	422	0.2	422	422	23.0	58.3
2025-09-18T16:39	10	41	0.2	41	42	421	0.2	421	422	23.0	58.4
2025-09-18T16:40	10	40	0.2	40	41	421	0.2	420	421	23.0	57.8
2025-09-18T16:41	10	40	0.2	39	40	421	0.2	420	421	23.0	58.0
2025-09-18T16:42	10	39	0.3	39	39	420	0.2	420	421	22.9	58.4
2025-09-18T16:43	10	38	0.2	38	39	420	0.2	419	420	22.9	58.6
2025-09-18T16:44	10	37	0.2	37	38	420	0.3	419	420	22.9	57.8
2025-09-18T16:45	10	37	0.3	36	37	419	0.2	419	420	22.9	58.1
2025-09-18T16:46	10	36	0.2	35	36	419	0.3	418	419	22.8	58.8
2025-09-18T16:47	10	35	0.2	35	35	419	0.2	418	419	22.8	58.8
2025-09-18T16:48	10	34	0.2	34	35	418	0.2	418	419	22.8	57.7
2025-09-18T16:49	10	33	0.2	33	34	418	0.2	417	418	22.8	57.3
2025-09-18T16:50	10	33	0.3	32	33	418	0.3	417	418	22.8	57.1
2025-09-18T16:51	10	32	0.2	31	32	417	0.2	416	418	22.8	57.5
2025-09-18T16:52	10	31	0.2	31	31	417	0.3	416	418	22.8	57.5
2025-09-18T16:53	10	30	0.2	30	31	416	0.2	416	417	22.8	57.3
2025-09-18T16:54	10	29	0.3	29	30	416	0.2	416	417	22.8	57.8
2025-09-18T16:55	10	28	0.3	28	29	416	0.2	415	416	22.8	57.9
2025-09-18T16:56	10	28	0.3	27	28	415	0.3	415	416	22.8	58.3
2025-09-18T16:57	10	27	0.2	26	27	415	0.3	414	416	22.7	58.3
2025-09-18T16:58	10	26	0.3	26	27	415	0.3	414	415	22.7	57.6
2025-09-18T16:59	10	25	0.3	25	26	415	0.2	414	415	22.8	57.3
2025-09-18T17:00	10	24	0.3	24	25	414	0.2	413	415	22.8	57.2
2025-09-18T17:01	10	23	0.2	23	24	414	0.3	413	414	22.8	57.4
2025-09-18T17:02	10	23	0.2	22	23	413	0.3	412	414	22.7	58.3
2025-09-18T17:03	10	22	0.3	21	22	413	0.2	412	413	22.7	57.6
2025-09-18T17:04	10	21	0.3	20	21	413	0.3	412	413	22.7	57.5
2025-09-18T17:05	10	20	0.3	19	20	412	0.3	412	413	22.6	58.7
2025-09-18T17:06	10	19	0.3	18	19	412	0.3	411	412	22.6	57.9
2025-09-18T17:07	10	18	0.3	17	18	412	0.3	411	412	22.6	58.2
2025-09-18T17:08	10	17	0.3	16	17	411	0.3	410	411	22.6	57.7
2025-09-18T17:09	10	16	0.3	15	16	411	0.2	410	411	22.6	57.3
2025-09-18T17:10	10	15	0.4	14	15	410	0.3	409	410	22.6	58.0
2025-09-18T17:11	10	13	0.4	13	14	409	0.2	409	410	22.6	57.9
2025-09-18T17:12	10	12	0.3	12	13	409	0.3	408	409	22.6	57.7
2025-09-18T17:13	10	11	0.3	10	12	408	0.3	407	408	22.6	58.1
2025-09-18T17:14	10	10	0.3	10	11	407	0.3	407	408	22.6	58.0
2025-09-18T17:15	10	9	0.3	9	10	407	0.3	406	408	22.6	58.0
2025-09-18T17:16	10	9	0.2	8	9	407	0.2	407	408	22.6	57.3
2025-09-18T17:17	10	8	0.2	8	9	407	0.2	407	408	22.6	56.8
2025-09-18T17:18	10	7	0.2	7	8	407	0.3	406	407	22.6	56.7
2025-09-18T17:19	10	7	0.2	6	7	406	0.3	406	407	22.6	57.6
2025-09-18T17:20	10	6	0.2	6	7	405	0.3	405	406	22.5	58.1
2025-09-18T17:21	10	6	0.2	5	6	405	0.2	404	406	22.5	58.5
2025-09-18T17:22	10	5	0.1	5	6	405	0.2	404	405	22.5	58.4
2025-09-18T17:23	10	5	0.1	5	5	404	0.2	404	405	22.4	58.6
2025-09-18T17:24	10	4	0.1	4	5	404	0.4	403	404	22.4	59.1
2025-09-18T17:25	10	4	0.1	4	4	403	0.3	403	404	22.4	58.9
2025-09-18T17:26	10	4	0.2	3	4	402	0.3	402	403	22.4	59.1
2025-09-18T17:27	10	3	0.2	3	4	402	0.3	402	403	22.2	59.8
2025-09-18T17:28	10	2	0.2	2	3	401	0.3	401	402	22.2	60.3
2025-09-18T17:29	10	2	0.1	2	2	401	0.2	400	401	22.0	61.1
2025-09-18T17:30	10	2	0.1	1	2	401	0.2	401	401	21.9	62.0
2025-09-18T17:31	10	1	0.1	1	2	400	0.3	399	401	21.8	62.7
2025-09-18T17:32	10	1	0.1	1	1	400	0.3	399	400	21.8	63.0
2025-09-18T17:33	10	1	0.1	1	1	400	0.2	399	400	21.7	63.4
2025-09-18T17:34	10	1	0.1	1	1	399	0.3	399	400	21.7	63.6
2025-09-18T17:35	10	1	0.1	1	1	399	0.2	398	399	21.6	64.5
2025-09-18T17:36	10	1	0.1	1	1	398	0.2	398	399	21.4	65.9
2025-09-18T17:37	10	1	0.1	1	1	398	0.2	398	399	21.3	66.4
2025-09-18T17:38	10	1	0.1	1	1	398	0.3	397	399	21.3	66.6
2025-09-18T17:39	10	1	0.1	0	1	398	0.4	398	400	21.2	66.6
2025-09-18T17:40	10	1	0.2	0	1	399	0.5	398	400	21.4	65.3
2025-09-18T17:41	10	0	0.2	0	1	400	0.4	398	400	21.5	64.7
2025-09-18T17:42	10	1	0.1	0	1	400	0.3	399	400	21.6	64.2
2025-09-18T17:43	10	1	0.2	0	1	399	0.3	398	400	21.5	65.3
2025-09-18T17:44	10	0	0.2	0	1	399	0.2	398	399	21.4	65.7
2025-09-18T17:45	10	0	0.2	0	1	399	0.4	398	400	21.4	65.5
2025-09-18T17:46	10	0	0.2	0	1	399	0.3	398	399	21.4	65.8
2025-09-18T17:47	10	0	0.2	0	1	399	0.2	398	399	21.4	65.6
2025-09-18T17:48	10	0	0.1	0	1	398	0.3	398	399	21.3	66.5
2025-09-18T17:49	10	0	0.1	0	0	398	0.3	398	399	21.2	66.5
2025-09-18T17:50	10	0	0.1	0	0	397	0.3	397	398	21.2	66.7
2025-09-18T17:51	10	0	0.1	0	1	397	0.3	396	397	21.0	68.4
2025-09-18T17:52	10	0	0.1	0	0	396	0.2	396	396	20.8	69.7
2025-09-18T17:53	10	0	0.1	0	0	396	0.2	396	397	20.8	68.6
2025-09-18T17:54	10	0	0.1	0	0	396	0.3	395	396	20.8	68.9
2025-09-18T17:55	10	0	0.1	0	0	395	0.2	395	396	20.6	70.0
2025-09-18T17:56	10	0	0.1	0	0	395	0.2	395	396	20.6	69.3
2025-09-18T17:57	10	0	0.1	0	0	395	0.2	394	396	20.6	69.3
2025-09-18T17:58	10	0	0.1	0	0	395	0.3	394	395	20.6	68.9
2025-09-18T17:59	10	0	0.1	0	1	395	0.2	394	395	20.6	68.7
2025-09-18T18:00	10	0	0.1	0	0	395	0.2	394	395	20.5	69.2
2025-09-18T18:01	10	0	0.1	0	0	394	0.2	394	395	20.5	69.9
2025-09-18T18:02	10	0	0.1	0	0	395	0.5	394	396	20.2	71.4
2025-09-18T18:03	10	0	0.1	0	0	396	0.4	395	396	20.3	70.4
2025-09-18T18:04	10	0	0.1	0	0	396	0.2	395	396	20.4	68.5
2025-09-18T18:05	10	0	0.1	0	0	396	0.3	395	396	20.5	68.2
2025-09-18T18:06	10	0	0.1	0	0	396	0.3	395	396	20.5	68.0
2025-09-18T18:07	10	0	0.1	0	0	396	0.4	395	396	20.5	68.3
2025-09-18T18:08	10	0	0.1	0	0	395	0.2	394	396	20.3	69.0
2025-09-18T18:09	10	0	0.1	0	0	395	0.3	395	396	20.3	69.1
2025-09-18T18:10	10	0	0.8	0	5	395	0.2	394	395	20.3	68.4
2025-09-18T18:11	10	0	0.1	0	0	395	0.2	394	395	20.3	68.9
2025-09-18T18:12	10	0	0.1	0	0	395	0.2	394	395	20.1	69.5
2025-09-18T18:13	10	0	0.1	0	0	395	0.3	394	395	20.1	69.3
2025-09-18T18:14	10	0	0.1	0	0	395	0.2	394	395	20.3	68.0
2025-09-18T18:15	10	0	0.1	0	0	394	0.5	393	395	20.4	67.3
2025-09-18T18:16	10	0	0.1	0	0	393	0.4	392	394	20.3	67.8
2025-09-18T18:17	10	0	0.1	0	1	391	0.6	390	392	20.1	68.8
2025-09-18T18:18	10	0	0.1	0	1	390	0.4	389	391	20.0	70.1
2025-09-18T18:19	10	0	0.1	0	1	390	0.2	389	390	19.7	71.7
2025-09-18T18:20	10	0	0.1	0	1	390	0.2	390	391	19.7	71.2
2025-09-18T18:21	10	0	0.2	0	1	390	0.3	389	391	19.7	70.8
2025-09-18T18:22	10	0	0.2	0	1	390	0.3	389	391	19.7	70.9
2025-09-18T18:23	10	0	0.1	0	1	389	0.3	388	390	19.5	72.3
2025-09-18T18:24	10	0	0.1	0	1	389	0.2	388	389	19.4	72.6
2025-09-18T18:25	10	0	0.1	0	1	389	0.3	388	389	19.4	72.6
2025-09-18T18:26	10	0	0.1	0	0	389	0.2	388	389	19.4	72.9
2025-09-18T18:27	10	0	0.1	0	1	389	0.2	388	389	19.4	72.5
2025-09-18T18:28	10	0	0.1	0	0	389	0.2	388	389	19.6	71.0
2025-09-18T18:29	10	0	0.1	0	0	388	0.2	388	389	19.7	70.8
2025-09-18T18:30	10	0	0.1	0	0	388	0.3	387	389	19.6	71.0
2025-09-18T18:31	10	0	0.1	0	0	388	0.3	387	389	19.6	70.9
2025-09-18T18:32	10	0	0.1	0	0	388	0.3	387	389	19.6	71.4
2025-09-18T18:33	10	0	0.1	0	0	387	0.5	386	388	19.3	73.2
2025-09-18T18:34	10	0	0.1	0	1	386	0.5	385	387	19.0	75.2
2025-09-18T18:35	10	0	0.1	0	0	385	0.2	385	386	18.7	76.6
2025-09-18T18:36	10	0	0.1	0	1	385	0.3	384	386	18.6	77.3
2025-09-18T18:37	10	0	0.1	0	0	385	0.2	384	385	18.6	76.9
2025-09-18T18:38	10	0	0.1	0	1	385	0.2	384	385	18.6	77.3
2025-09-18T18:39	10	0	0.1	0	0	385	0.2	384	385	18.5	77.5
2025-09-18T18:40	10	0	0.1	0	1	385	0.2	384	385	18.4	78.0
2025-09-18T18:41	10	0	0.1	0	0	385	0.2	384	385	18.3	78.3
2025-09-18T18:42	10	0	0.1	0	0	385	0.2	384	385	18.2	78.9
2025-09-18T18:43	10	0	0.1	0	0	385	0.3	384	385	18.2	79.5
2025-09-18T18:44	10	0	0.1	0	0	385	0.2	384	385	18.2	79.1
2025-09-18T18:45	10	0	0.1	0	0	385	0.2	384	385	18.2	78.9
2025-09-18T18:46	10	0	0.1	0	0	384	0.2	384	385	18.2	79.1
2025-09-18T18:47	10	0	0.1	0	0	385	0.2	384	385	18.2	79.3
2025-09-18T18:48	10	0	0.1	0	0	384	0.3	384	385	18.1	80.0
2025-09-18T18:49	10	0	0.1	0	0	384	0.2	384	385	18.1	79.3
2025-09-18T18:50	10	0	0.1	0	0	384	0.2	384	385	18.1	79.1
2025-09-18T18:51	10	0	0.1	0	0	384	0.2	384	384	18.1	78.8
2025-09-18T18:52	10	0	0.1	0	0	384	0.3	383	384	18.1	78.7
2025-09-18T18:53	10	0	0.1	0	0	383	0.2	383	384	18.1	78.9
2025-09-18T18:54	10	0	0.1	0	0	383	0.2	383	384	18.0	79.7
2025-09-18T18:55	10	0	0.1	0	1	383	0.3	382	384	17.9	80.6
2025-09-18T18:56	10	0	0.0	0	0	383	0.2	382	383	17.8	80.8
2025-09-18T18:57	10	0	0.1	0	1	383	0.2	382	383	17.8	81.1
2025-09-18T18:58	10	0	0.1	0	0	382	0.2	382	383	17.8	80.9
2025-09-18T18:59	10	0	0.1	0	0	382	0.2	382	383	17.8	81.4
2025-09-18T19:00	10	0	0.1	0	1	381	0.3	381	382	17.6	81.9
2025-09-18T19:01	10	0	0.1	0	1	381	0.3	381	382	17.6	82.0
2025-09-18T19:02	10	0	0.2	0	1	381	0.3	381	382	17.8	80.8
2025-09-18T19:03	10	0	0.2	0	1	381	0.3	380	381	17.7	81.3
2025-09-18T19:04	10	0	0.1	0	1	380	0.3	380	381	17.7	80.7
2025-09-18T19:05	10	0	0.1	0	1	380	0.3	380	381	17.7	80.8
2025-09-18T19:06	10	0	0.2	0	1	380	0.3	380	381	17.6	81.2
2025-09-18T19:07	10	0	0.2	0	1	380	0.3	380	381	17.6	81.4
2025-09-18T19:08	10	0	0.1	0	1	381	0.4	380	382	17.5	81.4
2025-09-18T19:09	10	0	0.2	0	1	381	0.3	380	382	17.6	81.2
2025-09-18T19:10	10	0	0.1	0	0	381	0.2	380	381	17.5	82.1
2025-09-18T19:11	10	0	0.1	0	1	381	0.2	380	381	17.5	82.7
2025-09-18T19:12	10	0	0.1	0	0	380	0.3	380	381	17.4	83.1
2025-09-18T19:13	10	0	0.1	0	1	380	0.2	379	380	17.4	83.2
2025-09-18T19:14	10	0	0.1	0	0	379	0.2	379	380	17.3	83.2
2025-09-18T19:15	10	0	0.1	0	0	379	0.2	379	380	17.3	83.3
2025-09-18T19:16	10	0	0.1	0	0	379	0.2	379	380	17.3	83.5
2025-09-18T19:17	10	0	0.1	0	0	379	0.3	378	380	17.3	83.6
2025-09-18T19:18	10	0	0.1	0	0	379	0.2	378	379	17.3	83.5
2025-09-18T19:19	10	0	0.1	0	0	379	0.4	378	380	17.4	83.2
2025-09-18T19:20	10	0	0.1	0	0	380	0.3	379	380	17.5	82.5
2025-09-18T19:21	10	0	0.1	0	0	379	0.2	379	380	17.5	82.2
2025-09-18T19:22	10	0	0.1	0	0	379	0.3	379	380	17.5	82.2
2025-09-18T19:23	10	0	0.1	0	0	379	0.3	378	380	17.5	82.5
2025-09-18T19:24	10	0	0.1	0	0	379	0.2	378	379	17.4	82.7
2025-09-18T19:25	10	0	0.0	0	0	379	0.2	378	379	17.4	83.0
2025-09-18T19:26	10	0	0.1	0	0	379	0.2	378	379	17.3	83.3
2025-09-18T19:27	10	0	0.1	0	0	378	0.3	378	379	17.3	83.4
2025-09-18T19:28	10	0	0.1	0	0	378	0.2	377	378	17.3	83.5
2025-09-18T19:29	10	0	0.1	0	0	378	0.3	377	379	17.2	83.8
2025-09-18T19:30	10	0	0.1	0	0	378	0.3	377	379	17.2	83.6
2025-09-18T19:31	10	0	0.1	0	0	378	0.3	378	379	17.4	82.9
2025-09-18T19:32	10	0	0.1	0	1	378	0.2	378	379	17.4	82.7
2025-09-18T19:33	10	0	0.1	0	0	378	0.2	378	379	17.4	83.0
2025-09-18T19:34	10	0	0.1	0	1	379	0.2	378	379	17.4	83.0
2025-09-18T19:35	10	0	0.1	0	0	379	0.2	378	379	17.3	83.3
2025-09-18T19:36	10	0	0.1	0	1	379	0.3	378	379	17.3	83.5
2025-09-18T19:37	10	0	0.1	0	0	380	0.3	379	380	17.3	83.7
2025-09-18T19:38	10	0	0.1	0	0	380	0.2	380	381	17.3	84.0
2025-09-18T19:39	10	0	0.1	0	0	380	0.3	380	381	17.2	84.3
2025-09-18T19:40	10	0	0.1	0	0	380	0.2	380	381	17.2	84.6
2025-09-18T19:41	10	0	0.1	0	0	380	0.2	380	381	17.1	85.2
2025-09-18T19:42	10	0	0.0	0	0	380	0.3	379	381	17.1	85.7
2025-09-18T19:43	10	0	0.0	0	0	379	0.3	379	380	17.0	86.0
2025-09-18T19:44	10	0	0.1	0	0	379	0.2	379	379	17.0	85.8
2025-09-18T19:45	10	0	0.1	0	0	379	0.3	378	379	17.0	85.8
2025-09-18T19:46	10	0	0.1	0	0	378	0.3	378	379	17.0	85.9
2025-09-18T19:47	10	0	0.1	0	0	378	0.2	377	378	16.9	85.9
2025-09-18T19:48	10	0	0.1	0	0	378	0.3	377	378	16.9	86.2
2025-09-18T19:49	10	0	0.1	0	0	377	0.3	377	378	16.8	86.5
2025-09-18T19:50	10	0	0.1	0	0	378	0.2	377	378	16.7	86.8
2025-09-18T19:51	10	0	0.1	0	1	377	0.2	377	378	16.6	87.5
2025-09-18T19:52	10	0	0.1	0	0	377	0.2	377	378	16.6	87.6
2025-09-18T19:53	10	0	0.1	0	0	378	0.2	377	378	16.6	87.8
2025-09-18T19:54	10	0	0.1	0	0	378	0.2	377	378	16.5	87.9
2025-09-18T19:55	10	0	0.1	0	1	377	0.2	377	378	16.4	87.6
2025-09-18T19:56	10	0	0.1	0	1	378	0.2	377	378	16.4	87.9
2025-09-18T19:57	10	0	0.1	0	0	377	0.3	377	378	16.4	87.9
2025-09-18T19:58	10	0	0.1	0	1	377	0.4	376	378	16.4	87.9
2025-09-18T19:59	10	0	0.1	0	1	378	0.3	377	378	16.4	85.2
2025-09-18T20:00	10	0	0.2	0	1	378	0.4	377	379	16.4	87.9
2025-09-18T20:01	10	0	0.1	0	1	378	0.2	378	379	16.4	87.9
2025-09-18T20:02	10	0	0.1	0	1	378	0.3	378	379	16.4	87.9
2025-09-18T20:03	10	0	0.2	0	1	379	0.4	378	380	16.4	87.9
2025-09-18T20:04	10	0	0.1	0	0	378	0.4	378	379	16.4	87.9
2025-09-18T20:05	10	0	0.1	0	1	378	0.3	377	378	16.7	85.6
2025-09-18T20:06	10	0	0.1	0	1	378	0.3	377	378	16.5	85.8
2025-09-18T20:07	10	0	0.0	0	0	378	0.3	377	379	16.6	85.9
2025-09-18T20:08	10	0	0.1	0	0	378	0.2	377	378	16.6	86.1
2025-09-18T20:09	10	0	0.0	0	0	378	0.2	377	378	16.5	86.3
2025-09-18T20:10	10	0	0.0	0	0	378	0.2	377	378	16.6	86.2
2025-09-18T20:11	10	0	0.1	0	0	378	0.3	377	379	16.7	86.5
2025-09-18T20:12	10	0	0.0	0	0	378	0.3	377	378	16.8	86.6
2025-09-18T20:13	10	0	0.0	0	0	377	0.3	377	378	16.8	86.7
2025-09-18T20:14	10	0	0.0	0	0	377	0.3	376	377	16.9	86.5
2025-09-18T20:15	10	0	0.1	0	0	376	0.3	376	377	17.0	86.2
2025-09-18T20:16	10	0	0.1	0	0	376	0.3	375	377	17.1	85.9
2025-09-18T20:17	10	0	0.0	0	0	376	0.2	375	376	17.2	85.7
2025-09-18T20:18	10	0	0.1	0	0	376	0.2	375	376	17.3	85.2
2025-09-18T20:19	10	0	0.1	0	0	376	0.2	375	376	17.4	84.8
2025-09-18T20:20	10	0	0.1	0	0	376	0.3	375	376	17.4	84.6
2025-09-18T20:21	10	0	0.1	0	0	376	0.3	376	377	17.4	84.5
2025-09-18T20:22	10	0	0.1	0	0	377	0.3	376	377	17.5	84.0
2025-09-18T20:23	10	0	0.1	0	0	377	0.4	376	377	17.4	83.8
2025-09-18T20:24	10	0	0.1	0	0	377	0.3	376	377	17.4	83.7
2025-09-18T20:25	10	0	0.1	0	0	377	0.3	377	378	17.4	83.7
2025-09-18T20:26	10	0	0.1	0	1	379	0.3	378	380	17.4	83.8
2025-09-18T20:27	10	0	0.1	0	0	380	0.3	379	381	17.2	84.4
2025-09-18T20:28	10	0	0.1	0	0	380	0.2	380	381	17.2	84.2
2025-09-18T20:29	10	0	0.1	0	0	380	0.3	380	381	17.2	83.8
2025-09-18T20:30	10	0	0.1	0	0	379	0.6	378	380	17.1	84.2
2025-09-18T20:31	10	0	0.1	0	0	378	0.3	378	379	16.8	85.0
2025-09-18T20:32	10	0	0.1	0	0	377	0.3	377	378	16.8	85.4
2025-09-18T20:33	10	0	0.1	0	0	377	0.2	376	377	16.8	85.6
2025-09-18T20:34	10	0	0.1	0	0	376	0.2	376	377	16.7	85.8
2025-09-18T20:35	10	0	0.1	0	0	376	0.3	375	377	16.7	86.0
2025-09-18T20:36	10	0	0.1	0	0	376	0.3	375	376	16.6	86.7
2025-09-18T20:37	10	0	0.1	0	0	375	0.3	375	376	16.5	87.4
2025-09-18T20:38	10	0	0.1	0	0	375	0.2	374	375	16.5	88.0
2025-09-18T20:39	10	0	0.1	0	0	375	0.4	374	376	16.4	88.5
2025-09-18T20:40	10	0	0.1	0	0	375	0.3	374	376	16.3	88.8
2025-09-18T20:41	10	0	0.1	0	0	376	0.4	375	376	16.2	89.1
2025-09-18T20:42	10	0	0.1	0	1	376	0.3	376	377	16.2	89.0
2025-09-18T20:43	10	0	0.1	0	0	376	0.2	376	377	16.1	89.8
2025-09-18T20:44	10	0	0.1	0	0	376	0.3	375	377	15.8	90.2
2025-09-18T20:45	10	0	0.1	0	1	376	0.3	375	377	15.6	90.3
2025-09-18T20:46	10	0	0.1	0	1	376	0.3	376	377	15.5	90.8
2025-09-18T20:47	10	0	0.1	0	0	377	0.4	376	378	15.3	91.2
2025-09-18T20:48	10	0	0.1	0	0	377	0.2	377	378	15.3	91.4
2025-09-18T20:49	10	0	0.1	0	0	377	0.3	377	378	15.3	91.6
2025-09-18T20:50	10	0	0.1	0	0	377	0.2	377	378	15.3	91.5
2025-09-18T20:51	10	0	0.1	0	0	377	0.3	376	377	15.4	91.7
2025-09-18T20:52	10	0	0.1	0	0	377	0.3	376	377	15.5	91.7
2025-09-18T20:53	10	0	0.1	0	0	376	0.2	376	377	15.6	91.3
2025-09-18T20:54	10	0	0.1	0	0	377	0.3	376	377	15.7	90.9
2025-09-18T20:55	10	0	0.1	0	0	377	0.3	376	377	15.8	90.5
2025-09-18T20:56	10	0	0.1	0	0	376	0.4	376	377	15.9	90.0
2025-09-18T20:57	10	0	0.1	0	0	377	0.2	376	377	16.0	89.6
2025-09-18T20:58	10	0	0.0	0	0	376	0.2	376	377	16.0	89.3
2025-09-18T20:59	10	0	0.1	0	0	377	0.3	376	378	16.1	88.9
2025-09-18T21:00	10	0	0.1	0	0	377	0.4	376	378	16.0	88.9
2025-09-18T21:01	10	0	0.0	0	0	377	0.3	377	378	15.9	89.3
2025-09-18T21:02	10	0	0.0	0	0	377	0.2	377	378	16.0	89.4
2025-09-18T21:03	10	0	0.0	0	0	377	0.2	377	378	16.1	88.8
2025-09-18T21:04	10	0	0.1	0	0	377	0.2	377	378	16.2	88.4
2025-09-18T21:05	10	0	0.1	0	0	377	0.3	376	377	16.1	88.5
2025-09-18T21:06	10	0	0.0	0	0	377	0.2	376	377	16.1	88.9
2025-09-18T21:07	10	0	0.0	0	0	377	0.3	376	377	16.2	88.9
2025-09-18T21:08	10	0	0.1	0	0	377	0.4	376	378	16.1	89.2
2025-09-18T21:09	10	0	0.1	0	0	377	0.3	376	378	16.2	89.3
2025-09-18T21:10	10	0	0.1	0	0	377	0.3	376	377	16.2	89.3
2025-09-18T21:11	10	0	0.0	0	0	376	0.4	375	377	16.2	89.3
2025-09-18T21:12	10	0	0.0	0	0	375	0.4	375	376	16.2	89.2
2025-09-18T21:13	10	0	0.0	0	0	375	0.2	375	376	16.4	89.1
2025-09-18T21:14	10	0	0.1	0	0	375	0.3	375	376	16.5	88.7
2025-09-18T21:15	10	0	0.1	0	0	375	0.2	374	375	16.5	88.6
2025-09-18T21:16	10	0	0.1	0	1	375	0.3	375	376	16.6	88.2
2025-09-18T21:17	10	0	0.1	0	0	375	0.2	375	375	16.6	88.0
2025-09-18T21:18	10	0	0.1	0	0	374	0.2	374	375	16.5	88.0
2025-09-18T21:19	10	0	0.1	0	1	374	0.3	373	375	16.4	88.4
2025-09-18T21:20	10	0	0.1	0	1	374	0.2	374	375	16.4	88.7
2025-09-18T21:21	10	0	0.1	0	0	374	0.2	374	375	16.4	88.7
2025-09-18T21:22	10	0	0.2	0	1	375	0.3	374	375	16.3	88.7
2025-09-18T21:23	10	0	0.1	0	0	375	0.3	374	376	16.4	88.4
2025-09-18T21:24	10	0	0.1	0	0	376	0.2	375	376	16.3	88.3
2025-09-18T21:25	10	0	0.2	0	1	376	0.2	375	376	16.2	88.6
2025-09-18T21:26	10	0	0.1	0	1	375	0.4	375	376	16.2	89.5
2025-09-18T21:27	10	0	0.1	0	0	375	0.3	374	376	16.0	89.9
2025-09-18T21:28	10	0	0.2	0	1	374	0.3	374	375	15.9	90.6
2025-09-18T21:29	10	0	0.1	0	1	373	0.2	373	374	15.8	91.1
2025-09-18T21:30	10	0	0.1	0	0	373	0.3	372	374	15.7	91.6
2025-09-18T21:31	10	0	0.2	0	1	373	0.3	372	373	15.6	91.6
2025-09-18T21:32	10	0	0.2	0	1	373	0.3	372	373	15.5	91.9
2025-09-18T21:33	10	0	0.1	0	1	372	0.3	371	373	15.4	92.7
2025-09-18T21:34	10	0	0.1	0	1	372	0.2	372	373	15.4	93.3
2025-09-18T21:35	10	0	0.2	0	1	372	0.3	371	373	15.3	93.6
2025-09-18T21:36	10	0	0.1	0	1	371	0.4	370	372	15.3	93.8
2025-09-18T21:37	10	0	0.2	0	1	371	0.3	370	371	15.1	93.7
2025-09-18T21:38	10	0	0.2	0	1	370	0.3	370	371	15.0	93.9
2025-09-18T21:39	10	0	0.2	0	1	370	0.3	369	371	14.9	94.4
2025-09-18T21:40	10	0	0.1	0	0	370	0.3	369	371	14.9	94.7
2025-09-18T21:41	10	0	0.2	0	0	370	0.2	370	371	14.9	94.9
2025-09-18T21:42	10	0	0.1	0	1	371	0.4	370	371	14.9	95.0
2025-09-18T21:43	10	0	0.1	0	0	371	0.3	371	372	14.9	94.7
2025-09-18T21:44	10	0	0.1	0	1	371	0.3	370	372	14.9	94.3
2025-09-18T21:45	10	0	0.1	0	0	371	0.4	370	372	14.7	93.9
2025-09-18T21:46	10	0	0.1	0	0	371	0.2	371	372	14.7	93.6
2025-09-18T21:47	10	0	0.2	0	1	371	0.4	370	372	14.6	93.5
2025-09-18T21:48	10	0	0.2	0	1	371	0.2	370	371	14.5	93.2
2025-09-18T21:49	10	0	0.1	0	0	371	0.4	370	372	14.6	92.8
2025-09-18T21:50	10	0	0.1	0	1	371	0.3	370	371	14.6	92.5
2025-09-18T21:51	10	0	0.1	0	0	371	0.4	370	372	14.5	92.7
2025-09-18T21:52	10	0	0.1	0	0	371	0.2	370	371	14.5	92.7
2025-09-18T21:53	10	0	0.1	0	1	370	0.3	369	371	14.5	92.6
2025-09-18T21:54	10	0	0.1	0	1	370	0.2	369	370	14.3	92.9
2025-09-18T21:55	10	0	0.1	0	1	369	0.3	369	370	14.3	93.0
2025-09-18T21:56	10	0	0.1	0	1	369	0.2	368	369	14.4	93.2
2025-09-18T21:57	10	0	0.1	0	0	369	0.4	368	370	14.5	93.2
2025-09-18T21:58	10	0	0.1	0	0	369	0.4	368	370	14.6	93.3
2025-09-18T21:59	10	0	0.0	0	0	370	0.2	369	370	14.7	93.3
2025-09-18T22:00	10	0	0.1	0	0	369	0.3	369	370	14.9	93.2
2025-09-18T22:01	10	0	0.0	0	0	369	0.3	369	370	14.8	93.3
2025-09-18T22:02	10	0	0.0	0	0	369	0.2	369	370	14.8	93.4
2025-09-18T22:03	10	0	0.0	0	0	369	0.3	369	370	14.8	93.4
2025-09-18T22:04	10	0	0.0	0	0	369	0.3	369	370	14.8	93.5
2025-09-18T22:05	10	0	0.1	0	0	369	0.4	368	370	14.8	93.6
2025-09-18T22:06	10	0	0.0	0	0	370	0.3	369	370	14.8	93.5
2025-09-18T22:07	10	0	0.0	0	0	370	0.5	370	371	14.8	93.5
2025-09-18T22:08	10	0	0.0	0	0	372	0.3	371	373	14.9	93.3
2025-09-18T22:09	10	0	0.0	0	0	373	0.3	372	374	14.9	93.3
2025-09-18T22:10	10	0	0.0	0	0	373	0.4	372	374	14.8	93.4
2025-09-18T22:11	10	0	0.0	0	0	372	0.5	371	373	14.8	93.6
2025-09-18T22:12	10	0	0.0	0	0	371	0.5	370	372	14.8	93.8
2025-09-18T22:13	10	0	0.1	0	0	370	0.3	369	370	14.6	94.0
2025-09-18T22:14	10	0	0.1	0	0	369	0.3	369	370	14.5	94.2
2025-09-18T22:15	10	0	0.1	0	0	369	0.2	368	369	14.4	94.3
2025-09-18T22:16	10	0	0.1	0	0	369	0.2	368	369	14.4	94.5
2025-09-18T22:17	10	0	0.1	0	0	368	0.2	368	369	14.3	94.8
2025-09-18T22:18	10	0	0.1	0	0	368	0.2	367	368	14.3	94.9
2025-09-18T22:19	10	0	0.1	0	0	368	0.2	367	368	14.3	95.2
2025-09-18T22:20	10	0	0.1	0	0	367	0.2	367	368	14.2	95.4
2025-09-18T22:21	10	0	0.1	0	0	367	0.2	366	367	14.2	95.5
2025-09-18T22:22	10	0	0.1	0	0	367	0.2	366	367	14.1	95.6
2025-09-18T22:23	10	0	0.1	0	0	367	0.3	366	367	14.1	95.7
2025-09-18T22:24	10	0	0.1	0	0	367	0.2	367	367	14.1	95.8
2025-09-18T22:25	10	0	0.1	0	0	367	0.2	366	368	14.2	95.8
2025-09-18T22:26	10	0	0.1	0	0	368	0.3	367	369	14.3	95.7
2025-09-18T22:27	10	0	0.1	0	0	368	0.3	367	369	14.4	95.5
2025-09-18T22:28	10	0	0.1	0	0	368	0.3	368	369	14.4	95.4
2025-09-18T22:29	10	0	0.1	0	0	368	0.2	368	369	14.4	95.4
2025-09-18T22:30	10	0	0.1	0	0	368	0.2	368	369	14.4	95.2
2025-09-18T22:31	10	0	0.1	0	0	368	0.3	367	368	14.4	95.2
2025-09-18T22:32	10	0	0.1	0	0	368	0.2	367	368	14.4	95.2
2025-09-18T22:33	10	0	0.1	0	0	367	0.3	367	368	14.4	95.2
2025-09-18T22:34	10	0	0.1	0	0	368	0.3	367	368	14.4	95.3
2025-09-18T22:35	10	0	0.1	0	0	367	0.3	367	368	14.3	95.1
2025-09-18T22:36	10	0	0.1	0	0	367	0.2	367	368	14.3	95.3
2025-09-18T22:37	10	0	0.1	0	0	368	0.3	367	368	14.3	95.1
2025-09-18T22:38	10	0	0.1	0	0	368	0.2	367	368	14.2	95.2
2025-09-18T22:39	10	0	0.1	0	0	367	0.2	367	368	14.3	95.2
2025-09-18T22:40	10	0	0.1	0	0	367	0.3	367	368	14.2	95.3
2025-09-18T22:41	10	0	0.1	0	0	367	0.2	367	368	14.2	95.5
2025-09-18T22:42	10	0	0.1	0	0	367	0.2	366	367	14.3	95.5
2025-09-18T22:43	10	0	0.1	0	0	367	0.3	366	367	14.2	95.4
2025-09-18T22:44	10	0	0.1	0	0	366	0.2	366	367	14.2	95.5
2025-09-18T22:45	10	0	0.1	0	0	366	0.2	366	367	14.2	95.4
2025-09-18T22:46	10	0	0.1	0	0	366	0.3	365	366	14.3	95.3
2025-09-18T22:47	10	0	0.1	0	0	365	0.2	365	366	14.2	95.5
2025-09-18T22:48	10	0	0.1	0	0	365	0.2	365	365	14.1	95.5
2025-09-18T22:49	10	0	0.1	0	0	365	0.2	364	365	14.1	95.3
2025-09-18T22:50	10	0	0.1	0	0	365	0.2	364	365	14.1	95.2
2025-09-18T22:51	10	0	0.1	0	0	365	0.2	364	365	14.1	95.3
2025-09-18T22:52	10	0	0.1	0	0	365	0.2	364	365	14.1	95.4
2025-09-18T22:53	10	0	0.1	0	0	365	0.3	365	366	14.1	95.2
2025-09-18T22:54	10	0	0.1	0	0	366	0.2	365	366	14.1	95.3
2025-09-18T22:55	10	0	0.1	0	0	366	0.2	365	366	14.0	95.5
2025-09-18T22:56	10	0	0.1	0	0	365	0.2	365	366	14.0	95.6
2025-09-18T22:57	10	0	0.1	0	0	365	0.2	365	366	14.0	95.8
2025-09-18T22:58	10	0	0.1	0	0	365	0.3	365	366	14.0	95.8
2025-09-18T22:59	10	0	0.1	0	0	365	0.3	365	366	14.0	95.8
2025-09-18T23:00	10	0	0.1	0	0	366	0.4	365	366	14.0	95.5
2025-09-18T23:01	10	0	0.1	0	0	366	0.2	365	366	14.0	95.4
2025-09-18T23:02	10	0	0.1	0	0	366	0.2	366	367	14.1	95.2
2025-09-18T23:03	10	0	0.1	0	0	366	0.2	365	366	14.1	95.0
2025-09-18T23:04	10	0	0.1	0	0	366	0.3	365	367	14.0	95.1
2025-09-18T23:05	10	0	0.0	0	0	366	0.2	365	366	14.0	95.1
2025-09-18T23:06	10	0	0.1	0	0	366	0.2	365	366	14.0	95.1
2025-09-18T23:07	10	0	0.1	0	0	366	0.2	365	367	14.0	95.2
2025-09-18T23:08	10	0	0.1	0	0	366	0.2	365	366	14.0	95.2
2025-09-18T23:09	10	0	0.1	0	0	366	0.2	365	366	14.0	95.3
2025-09-18T23:10	10	0	0.1	0	0	366	0.2	366	367	14.0	95.5
2025-09-18T23:11	10	0	0.1	0	0	365	0.3	365	366	13.9	95.4
2025-09-18T23:12	10	0	0.1	0	0	366	0.2	365	366	13.9	95.4
2025-09-18T23:13	10	0	0.1	0	0	366	0.2	365	366	13.8	95.6
2025-09-18T23:14	10	0	0.1	0	0	366	0.2	365	366	13.8	95.7
2025-09-18T23:15	10	0	0.1	0	0	366	0.2	365	366	13.9	95.2
2025-09-18T23:16	10	0	0.1	0	0	366	0.2	365	366	14.0	95.0
2025-09-18T23:17	10	0	0.0	0	0	366	0.3	366	367	13.9	95.1
2025-09-18T23:18	10	0	0.1	0	0	366	0.2	366	367	13.9	95.0
2025-09-18T23:19	10	0	0.1	0	0	366	0.3	365	366	13.9	95.2
2025-09-18T23:20	10	0	0.1	0	0	365	0.2	365	366	13.9	95.6
2025-09-18T23:21	10	0	0.0	0	0	365	0.2	365	366	13.8	95.7
2025-09-18T23:22	10	0	0.1	0	0	364	0.3	364	365	13.7	95.4
2025-09-18T23:23	10	0	0.1	0	0	364	0.2	364	364	13.7	95.4
2025-09-18T23:24	10	0	0.1	0	0	364	0.2	363	365	13.7	95.5
2025-09-18T23:25	10	0	0.1	0	0	363	0.2	363	363	13.7	95.5
2025-09-18T23:26	10	0	0.1	0	0	363	0.2	362	364	13.7	95.9
2025-09-18T23:27	10	0	0.1	0	0	362	0.2	362	363	13.6	96.0
2025-09-18T23:28	10	0	0.0	0	0	362	0.2	362	363	13.6	96.1
2025-09-18T23:29	10	0	0.1	0	0	362	0.2	362	363	13.6	96.0
2025-09-18T23:30	10	0	0.1	0	0	362	0.2	361	362	13.6	96.3
2025-09-18T23:31	10	0	0.1	0	0	362	0.2	361	362	13.5	96.3
2025-09-18T23:32	10	0	0.1	0	0	362	0.2	362	363	13.5	96.3
2025-09-18T23:33	10	0	0.1	0	0	362	0.3	362	363	13.4	96.5
2025-09-18T23:34	10	0	0.1	0	0	363	0.2	362	363	13.5	96.4
2025-09-18T23:35	10	0	0.1	0	0	363	0.2	362	363	13.5	96.7
2025-09-18T23:36	10	0	0.1	0	0	363	0.2	362	363	13.6	96.9
2025-09-18T23:37	10	0	0.1	0	0	362	0.2	362	363	13.6	97.0
2025-09-18T23:38	10	0	0.1	0	0	362	0.2	362	363	13.6	97.1
2025-09-18T23:39	10	0	0.1	0	0	363	0.2	362	363	13.6	96.9
2025-09-18T23:40	10	0	0.1	0	0	363	0.3	362	364	13.6	96.8
2025-09-18T23:41	10	0	0.2	0	1	363	0.2	363	364	13.7	96.7
2025-09-18T23:42	10	0	0.1	0	0	363	0.2	363	364	13.7	96.5
2025-09-18T23:43	10	0	0.2	0	0	363	0.3	363	364	13.6	96.4
2025-09-18T23:44	10	0	0.1	0	0	364	0.3	363	365	13.8	95.9
2025-09-18T23:45	10	0	0.2	0	0	364	0.3	363	364	13.9	95.3
2025-09-18T23:46	10	0	0.2	0	1	363	0.4	362	364	13.8	95.5
2025-09-18T23:47	10	0	0.1	0	0	362	0.3	362	363	13.7	95.5
2025-09-18T23:48	10	0	0.2	0	0	362	0.2	362	363	13.6	95.6
2025-09-18T23:49	10	0	0.2	0	1	362	0.3	361	363	13.7	95.3
2025-09-18T23:50	10	0	0.1	0	0	362	0.3	361	363	13.8	95.1
2025-09-18T23:51	10	0	0.1	0	1	362	0.2	361	362	13.8	94.9
2025-09-18T23:52	10	0	0.1	0	0	362	0.2	361	362	13.8	94.8
2025-09-18T23:53	10	0	0.2	0	1	362	0.3	361	363	13.9	94.5
2025-09-18T23:54	10	0	0.2	0	1	362	0.3	361	363	13.9	94.4
2025-09-18T23:55	10	0	0.1	0	0	362	0.3	362	363	14.0	94.3
2025-09-18T23:56	10	0	0.2	0	0	363	0.3	362	364	13.9	94.4
2025-09-18T23:57	10	0	0.2	0	1	363	0.3	362	364	13.8	94.7
2025-09-18T23:58	10	0	0.2	0	0	363	0.4	363	364	13.6	95.0
2025-09-18T23:59	10	0	0.2	0	1	364	0.3	364	365	13.7	95.3
2025-09-19T00:00	10	0	0.2	0	0	364	0.2	364	365	13.8	95.3
2025-09-19T00:01	10	0	0.1	0	0	364	0.3	363	364	13.8	95.2
2025-09-19T00:02	10	0	0.1	0	0	363	0.4	362	363	13.6	95.4
2025-09-19T00:03	10	0	0.1	0	1	362	0.3	361	363	13.5	95.7
2025-09-19T00:04	10	0	0.2	0	1	362	0.3	361	362	13.4	95.9
2025-09-19T00:05	10	0	0.1	0	0	362	0.3	361	362	13.5	95.9
2025-09-19T00:06	10	0	0.1	0	1	362	0.2	361	362	13.4	95.9
2025-09-19T00:07	10	0	0.1	0	0	362	0.3	361	363	13.4	95.9
2025-09-19T00:08	10	0	0.1	0	0	362	0.2	361	362	13.5	96.0
2025-09-19T00:09	10	0	0.1	0	0	361	0.3	360	362	13.4	96.2
2025-09-19T00:10	10	0	0.1	0	0	361	0.2	361	361	13.4	96.1
2025-09-19T00:11	10	0	0.1	0	0	361	0.3	360	361	13.5	96.1
2025-09-19T00:12	10	0	0.1	0	0	361	0.2	361	361	13.6	96.1
2025-09-19T00:13	10	0	0.1	0	0	361	0.2	361	362	13.5	96.0
2025-09-19T00:14	10	0	0.1	0	0	361	0.3	361	362	13.5	96.0
2025-09-19T00:15	10	0	0.1	0	0	362	0.3	361	362	13.5	95.9
2025-09-19T00:16	10	0	0.1	0	0	362	0.2	361	362	13.5	95.8
2025-09-19T00:17	10	0	0.1	0	0	362	0.2	361	362	13.5	95.7
2025-09-19T00:18	10	0	0.1	0	0	362	0.3	361	362	13.5	95.6
2025-09-19T00:19	10	0	0.1	0	0	361	0.2	361	362	13.4	95.7
2025-09-19T00:20	10	0	0.1	0	0	361	0.2	361	362	13.3	95.7
2025-09-19T00:21	10	0	0.1	0	0	361	0.3	361	362	13.3	95.7
2025-09-19T00:22	10	0	0.1	0	0	361	0.2	361	362	13.4	95.5
2025-09-19T00:23	10	0	0.1	0	0	361	0.2	361	362	13.4	95.6
2025-09-19T00:24	10	0	0.1	0	0	361	0.2	361	361	13.4	95.5
2025-09-19T00:25	10	0	0.1	0	0	361	0.3	360	361	13.4	95.4
2025-09-19T00:26	10	0	0.1	0	0	361	0.2	361	361	13.4	95.4
2025-09-19T00:27	10	0	0.1	0	0	361	0.2	360	361	13.4	95.4
2025-09-19T00:28	10	0	0.1	0	0	361	0.2	360	361	13.4	95.8
2025-09-19T00:29	10	0	0.1	0	0	361	0.2	360	361	13.3	95.8
2025-09-19T00:30	10	0	0.1	0	0	361	0.2	361	362	13.3	95.8
2025-09-19T00:31	10	0	0.1	0	0	361	0.2	361	362	13.3	96.0
2025-09-19T00:32	10	0	0.1	0	0	362	0.4	361	362	13.2	96.0
2025-09-19T00:33	10	0	0.1	0	0	362	0.2	361	362	13.3	96.0
2025-09-19T00:34	10	0	0.1	0	0	362	0.3	361	362	13.3	96.1
2025-09-19T00:35	10	0	0.1	0	0	362	0.2	361	363	13.4	96.1
2025-09-19T00:36	10	0	0.1	0	0	363	0.2	362	363	13.4	96.2
2025-09-19T00:37	10	0	0.1	0	0	363	0.2	362	363	13.4	96.3
2025-09-19T00:38	10	0	0.0	0	0	363	0.2	363	364	13.4	96.5
2025-09-19T00:39	10	0	0.0	0	0	363	0.3	363	364	13.5	96.4
2025-09-19T00:40	10	0	0.1	0	0	364	0.3	363	364	13.4	96.5
2025-09-19T00:41	10	0	0.0	0	0	364	0.3	363	365	13.5	96.1
2025-09-19T00:42	10	0	0.1	0	0	363	0.3	363	364	13.5	96.0
2025-09-19T00:43	10	0	0.0	0	0	363	0.3	362	363	13.6	95.9
2025-09-19T00:44	10	0	0.1	0	0	362	0.3	362	363	13.6	95.8
2025-09-19T00:45	10	0	0.1	0	0	362	0.3	361	362	13.5	95.9
2025-09-19T00:46	10	0	0.1	0	0	361	0.3	361	362	13.5	96.1
2025-09-19T00:47	10	0	0.1	0	0	361	0.2	360	361	13.4	96.1
2025-09-19T00:48	10	0	0.1	0	0	361	0.2	360	361	13.3	96.3
2025-09-19T00:49	10	0	0.1	0	0	361	0.2	361	362	13.3	96.4
2025-09-19T00:50	10	0	0.1	0	0	361	0.2	360	362	13.4	96.7
2025-09-19T00:51	10	0	0.1	0	0	361	0.4	360	362	13.4	96.7
2025-09-19T00:52	10	0	0.1	0	0	362	0.2	361	362	13.4	96.8
2025-09-19T00:53	10	0	0.1	0	0	362	0.2	361	362	13.4	96.8
2025-09-19T00:54	10	0	0.1	0	0	361	0.2	361	362	13.4	96.8
2025-09-19T00:55	10	0	0.1	0	0	361	0.3	361	362	13.4	97.0
2025-09-19T00:56	10	0	0.1	0	0	361	0.3	361	362	13.4	97.0
2025-09-19T00:57	10	0	0.1	0	0	362	0.2	361	362	13.4	97.1
2025-09-19T00:58	10	0	0.1	0	0	361	0.3	361	362	13.3	97.2
2025-09-19T00:59	10	0	0.1	0	0	361	0.3	360	362	13.1	97.6
2025-09-19T01:00	10	0	0.1	0	0	361	0.2	360	361	13.3	97.3
2025-09-19T01:01	10	0	0.1	0	0	361	0.3	360	361	13.3	97.4
2025-09-19T01:02	10	0	0.1	0	0	360	0.2	360	361	13.3	97.4
2025-09-19T01:03	10	0	0.1	0	0	360	0.2	360	361	13.3	97.4
2025-09-19T01:04	10	0	0.1	0	0	360	0.3	359	360	13.3	97.2
2025-09-19T01:05	10	0	0.1	0	0	360	0.3	359	360	13.3	96.8
2025-09-19T01:06	10	0	0.1	0	0	359	0.2	359	360	13.3	96.7
2025-09-19T01:07	10	0	0.1	0	0	359	0.3	358	360	13.2	96.7
2025-09-19T01:08	10	0	0.1	0	0	359	0.2	359	360	13.2	96.3
2025-09-19T01:09	10	0	0.1	0	0	359	0.2	359	360	13.2	96.1
2025-09-19T01:10	10	0	0.1	0	0	359	0.2	359	360	13.3	95.9
2025-09-19T01:11	10	0	0.1	0	0	360	0.3	359	360	13.3	95.8
2025-09-19T01:12	10	0	0.1	0	0	360	0.3	360	361	13.3	95.7
2025-09-19T01:13	10	0	0.1	0	0	360	0.3	360	361	13.3	95.7
2025-09-19T01:14	10	0	0.1	0	0	360	0.3	360	361	13.4	95.4
2025-09-19T01:15	10	0	0.1	0	0	360	0.2	360	361	13.3	95.5
2025-09-19T01:16	10	0	0.1	0	0	361	0.3	360	361	13.3	95.4
2025-09-19T01:17	10	0	0.1	0	0	361	0.2	360	361	13.3	95.5
2025-09-19T01:18	10	0	0.1	0	0	361	0.3	360	361	13.2	95.6
2025-09-19T01:19	10	0	0.1	0	0	361	0.2	361	361	13.1	95.8
2025-09-19T01:20	10	0	0.1	0	0	361	0.2	361	362	13.1	96.0
2025-09-19T01:21	10	0	0.1	0	0	361	0.3	361	362	13.1	96.2
2025-09-19T01:22	10	0	0.1	0	0	362	0.2	361	362	13.1	96.3
2025-09-19T01:23	10	0	0.1	0	0	362	0.3	361	362	13.1	96.2
2025-09-19T01:24	10	0	0.1	0	0	363	0.2	362	363	13.2	96.0
2025-09-19T01:25	10	0	0.1	0	0	362	0.3	362	363	13.1	96.1
2025-09-19T01:26	10	0	0.1	0	0	362	0.3	362	363	13.1	96.0
2025-09-19T01:27	10	0	0.1	0	0	362	0.2	362	363	13.2	96.1
2025-09-19T01:28	10	0	0.1	0	0	362	0.2	361	362	13.2	96.1
2025-09-19T01:29	10	0	0.1	0	0	362	0.2	361	362	13.2	96.0
2025-09-19T01:30	10	0	0.1	0	0	361	0.2	361	362	13.2	96.2
2025-09-19T01:31	10	0	0.1	0	0	361	0.3	360	362	13.1	96.3
2025-09-19T01:32	10	0	0.1	0	0	361	0.3	360	361	13.1	96.4
2025-09-19T01:33	10	0	0.1	0	0	360	0.3	360	361	13.0	96.4
2025-09-19T01:34	10	0	0.1	0	0	360	0.2	359	360	13.1	96.3
2025-09-19T01:35	10	0	0.1	0	0	359	0.2	359	360	13.1	96.5
2025-09-19T01:36	10	0	0.1	0	0	359	0.3	358	359	13.1	96.7
2025-09-19T01:37	10	0	0.1	0	0	358	0.3	358	359	13.0	97.1
2025-09-19T01:38	10	0	0.1	0	0	358	0.3	357	359	12.9	97.4
2025-09-19T01:39	10	0	0.1	0	0	358	0.2	358	359	13.0	97.1
2025-09-19T01:40	10	0	0.1	0	0	358	0.3	357	358	12.9	97.3
2025-09-19T01:41	10	0	0.1	0	0	358	0.4	357	359	13.0	97.0
2025-09-19T01:42	10	0	0.1	0	0	357	0.3	356	358	12.9	97.1
2025-09-19T01:43	10	0	0.1	0	0	357	0.2	357	358	12.8	97.2
2025-09-19T01:44	10	0	0.1	0	0	358	0.3	357	358	12.8	97.2
2025-09-19T01:45	10	0	0.1	0	0	358	0.3	357	358	12.9	96.9
2025-09-19T01:46	10	0	0.1	0	0	358	0.3	357	358	12.9	96.8
2025-09-19T01:47	10	0	0.1	0	0	358	0.3	357	359	12.8	96.7
2025-09-19T01:48	10	0	0.1	0	0	358	0.2	358	358	12.8	96.6
2025-09-19T01:49	10	0	0.1	0	0	358	0.2	357	358	12.7	96.4
2025-09-19T01:50	10	0	0.1	0	0	358	0.3	357	358	12.8	96.3
2025-09-19T01:51	10	0	0.1	0	0	358	0.2	357	358	12.7	96.4
2025-09-19T01:52	10	0	0.1	0	0	358	0.3	358	359	12.6	96.7
2025-09-19T01:53	10	0	0.1	0	0	359	0.3	358	359	12.5	96.7
2025-09-19T01:54	10	0	0.1	0	0	359	0.3	358	360	12.6	96.8
2025-09-19T01:55	10	0	0.1	0	0	358	0.2	358	359	12.6	97.0
2025-09-19T01:56	10	0	0.1	0	0	358	0.2	358	359	12.5	97.4
2025-09-19T01:57	10	0	0.1	0	0	358	0.3	358	359	12.4	97.5
2025-09-19T01:58	10	0	0.1	0	0	358	0.2	358	359	12.4	97.4
2025-09-19T01:59	10	0	0.1	0	0	358	0.2	357	358	12.4	97.5
2025-09-19T02:00	10	0	0.1	0	0	357	0.2	357	358	12.4	97.5
2025-09-19T02:01	10	0	0.1	0	0	357	0.3	356	358	12.4	97.4
2025-09-19T02:02	10	0	0.1	0	0	356	0.3	356	357	12.3	97.4
2025-09-19T02:03	10	0	0.1	0	0	356	0.3	356	357	12.2	97.6
2025-09-19T02:04	10	0	0.1	0	0	356	0.2	355	356	12.2	97.6
2025-09-19T02:05	10	0	0.1	0	0	356	0.4	355	357	12.1	97.6
2025-09-19T02:06	10	0	0.1	0	0	356	0.3	355	357	12.1	97.7
2025-09-19T02:07	10	0	0.1	0	0	357	0.6	356	358	12.1	97.5
2025-09-19T02:08	10	0	0.1	0	0	358	0.3	357	359	12.1	97.7
2025-09-19T02:09	10	0	0.1	0	0	359	0.3	358	359	12.1	97.9
2025-09-19T02:10	10	0	0.1	0	0	358	0.3	358	359	12.1	98.1
2025-09-19T02:11	10	0	0.1	0	0	358	0.2	357	358	12.2	97.8
2025-09-19T02:12	10	0	0.1	0	0	358	0.2	357	358	12.1	98.0
2025-09-19T02:13	10	0	0.1	0	0	358	0.2	357	358	11.9	97.8
2025-09-19T02:14	10	0	0.7	0	4	358	0.2	357	358	11.9	97.8
2025-09-19T02:15	10	0	0.1	0	0	358	0.3	357	358	11.9	97.8
2025-09-19T02:16	10	0	0.1	0	0	358	0.4	357	359	11.9	97.4
2025-09-19T02:17	10	0	0.1	0	0	358	0.3	358	359	12.0	97.6
2025-09-19T02:18	10	0	0.1	0	0	359	0.3	358	359	12.0	97.7
2025-09-19T02:19	10	0	0.1	0	0	359	0.3	358	359	12.1	97.6
2025-09-19T02:20	10	0	0.1	0	0	360	0.4	359	360	12.3	97.4
2025-09-19T02:21	10	0	0.1	0	0	360	0.4	359	361	12.4	97.5
2025-09-19T02:22	10	0	0.1	0	0	361	0.4	360	362	12.5	97.3
2025-09-19T02:23	10	0	0.1	0	0	362	0.3	361	363	12.8	96.8
2025-09-19T02:24	10	0	0.1	0	0	362	0.4	361	363	12.8	96.7
2025-09-19T02:25	10	0	0.1	0	0	360	0.5	360	361	12.6	96.7
2025-09-19T02:26	10	0	0.1	0	0	360	0.3	359	361	12.6	96.4
2025-09-19T02:27	10	0	0.0	0	0	360	0.3	359	360	12.8	96.3
2025-09-19T02:28	10	0	0.1	0	0	360	0.2	359	360	12.8	96.0
2025-09-19T02:29	10	0	0.1	0	0	360	0.2	360	361	12.8	95.8
2025-09-19T02:30	10	0	0.0	0	0	360	0.2	360	361	12.8	95.8
2025-09-19T02:31	10	0	0.0	0	0	360	0.2	360	361	12.8	95.7
2025-09-19T02:32	10	0	0.1	0	0	360	0.4	359	361	12.8	95.7
2025-09-19T02:33	10	0	0.0	0	0	359	0.2	359	360	12.7	96.0
2025-09-19T02:34	10	0	0.1	0	0	359	0.2	359	360	12.7	95.9
2025-09-19T02:35	10	0	0.1	0	0	359	0.2	358	360	12.6	96.2
2025-09-19T02:36	10	0	0.1	0	0	359	0.3	358	360	12.6	96.3
2025-09-19T02:37	10	0	0.1	0	0	359	0.2	359	360	12.6	96.5
2025-09-19T02:38	10	0	0.1	0	0	359	0.2	358	359	12.6	96.8
2025-09-19T02:39	10	0	0.1	0	0	358	0.2	358	359	12.5	96.9
2025-09-19T02:40	10	0	0.1	0	0	358	0.3	357	359	12.3	97.2
2025-09-19T02:41	10	0	0.1	0	0	358	0.2	357	358	12.3	97.2
2025-09-19T02:42	10	0	0.1	0	0	357	0.2	357	358	12.3	97.5
2025-09-19T02:43	10	0	0.1	0	0	357	0.2	357	358	12.3	97.7
2025-09-19T02:44	10	0	0.1	0	0	357	0.2	357	358	12.3	97.7
2025-09-19T02:45	10	0	0.1	0	0	357	0.2	356	357	12.3	97.7
2025-09-19T02:46	10	0	0.1	0	0	357	0.2	357	357	12.2	97.6
2025-09-19T02:47	10	0	0.1	0	0	357	0.2	356	357	12.1	97.8
2025-09-19T02:48	10	0	0.1	0	0	357	0.2	356	357	12.1	97.7
2025-09-19T02:49	10	0	0.1	0	0	357	0.2	356	357	12.2	97.6
2025-09-19T02:50	10	0	0.1	0	0	357	0.3	356	358	12.2	97.8
2025-09-19T02:51	10	0	0.1	0	0	357	0.3	356	358	12.2	97.8
2025-09-19T02:52	10	0	0.1	0	0	357	0.2	356	357	12.1	97.9
2025-09-19T02:53	10	0	0.1	0	0	357	0.3	357	358	12.1	97.8
2025-09-19T02:54	10	0	0.1	0	0	357	0.3	356	357	12.1	97.8
2025-09-19T02:55	10	0	0.1	0	0	357	0.2	356	357	12.1	97.9
2025-09-19T02:56	10	0	0.1	0	0	356	0.2	355	357	12.1	98.2
2025-09-19T02:57	10	0	0.1	0	0	356	0.2	355	356	12.0	97.9
2025-09-19T02:58	10	0	0.1	0	0	355	0.2	355	356	11.9	97.8
2025-09-19T02:59	10	0	0.1	0	0	355	0.2	354	355	11.9	97.8
2025-09-19T03:00	10	0	0.1	0	0	355	0.3	354	355	11.8	97.9
2025-09-19T03:01	10	0	0.1	0	0	355	0.2	354	355	11.8	97.8
2025-09-19T03:02	10	0	0.1	0	0	355	0.2	354	355	11.8	97.5
2025-09-19T03:03	10	0	0.1	0	0	355	0.3	355	356	11.8	97.6
2025-09-19T03:04	10	0	0.1	0	0	355	0.2	355	356	11.9	97.8
2025-09-19T03:05	10	0	0.1	0	0	355	0.3	355	356	11.9	97.8
2025-09-19T03:06	10	0	0.1	0	0	355	0.3	354	355	11.8	97.7
2025-09-19T03:07	10	0	0.1	0	0	355	0.2	354	355	11.8	97.9
2025-09-19T03:08	10	0	0.1	0	0	355	0.2	354	355	11.8	97.8
2025-09-19T03:09	10	0	0.1	0	0	355	0.3	354	356	11.7	97.9
2025-09-19T03:10	10	0	0.1	0	0	355	0.3	354	356	11.7	98.0
2025-09-19T03:11	10	0	0.1	0	0	355	0.2	354	355	11.7	97.9
2025-09-19T03:12	10	0	0.1	0	0	355	0.2	354	355	11.6	97.7
2025-09-19T03:13	10	0	0.1	0	0	355	0.2	355	355	11.6	97.9
2025-09-19T03:14	10	0	0.0	0	0	355	0.2	355	356	11.5	97.9
2025-09-19T03:15	10	0	0.0	0	0	355	0.2	355	356	11.4	97.9
2025-09-19T03:16	10	0	0.0	0	0	355	0.2	355	356	11.4	97.9
2025-09-19T03:17	10	0	0.1	0	0	355	0.2	354	356	11.3	97.8
2025-09-19T03:18	10	0	0.1	0	0	355	0.2	355	356	11.5	97.8
2025-09-19T03:19	10	0	0.1	0	0	355	0.3	354	356	11.5	98.1
2025-09-19T03:20	10	0	0.0	0	0	355	0.2	355	356	11.4	98.0
2025-09-19T03:21	10	0	0.1	0	0	356	0.3	355	356	11.5	98.0
2025-09-19T03:22	10	0	0.0	0	0	356	0.2	355	356	11.5	98.0
2025-09-19T03:23	10	0	0.1	0	0	356	0.3	355	357	11.6	97.8
2025-09-19T03:24	10	0	0.1	0	0	356	0.2	355	356	11.6	98.1
2025-09-19T03:25	10	0	0.1	0	0	356	0.2	356	357	11.6	98.1
2025-09-19T03:26	10	0	0.1	0	0	357	0.2	356	357	11.6	98.3
2025-09-19T03:27	10	0	0.1	0	0	357	0.2	356	357	11.6	98.2
2025-09-19T03:28	10	0	0.1	0	0	357	0.2	356	357	11.7	98.1
2025-09-19T03:29	10	0	0.1	0	0	357	0.2	356	357	11.7	98.1
2025-09-19T03:30	10	0	0.1	0	0	357	0.3	356	358	11.7	98.0
2025-09-19T03:31	10	0	0.1	0	0	356	0.2	356	357	11.8	97.9
2025-09-19T03:32	10	0	0.1	0	0	356	0.2	356	357	11.8	97.9
2025-09-19T03:33	10	0	0.1	0	0	356	0.2	355	356	11.8	97.7
2025-09-19T03:34	10	0	0.1	0	0	356	0.3	355	357	11.9	97.7
2025-09-19T03:35	10	0	0.1	0	0	356	0.2	355	356	11.9	97.7
2025-09-19T03:36	10	0	0.1	0	0	356	0.2	356	357	11.8	97.4
2025-09-19T03:37	10	0	0.1	0	0	357	0.3	356	358	11.8	97.6
2025-09-19T03:38	10	0	0.1	0	0	358	0.3	357	359	11.7	97.6
2025-09-19T03:39	10	0	0.1	0	0	358	0.3	358	359	11.7	97.6
2025-09-19T03:40	10	0	0.1	0	0	357	0.3	357	358	11.6	97.9
2025-09-19T03:41	10	0	0.1	0	0	356	0.3	356	357	11.6	97.9
2025-09-19T03:42	10	0	0.1	0	0	356	0.3	356	357	11.5	98.0
2025-09-19T03:43	10	0	0.1	0	0	355	0.2	355	356	11.6	98.1
2025-09-19T03:44	10	0	0.1	0	0	355	0.3	355	356	11.6	98.2
2025-09-19T03:45	10	0	0.1	0	0	355	0.3	354	355	11.6	98.4
2025-09-19T03:46	10	0	0.2	-1	0	355	0.2	354	355	11.5	98.5
2025-09-19T03:47	10	0	0.1	0	0	355	0.3	354	355	11.4	98.5
2025-09-19T03:48	10	0	0.1	0	0	355	0.3	354	355	11.4	98.4
2025-09-19T03:49	10	0	0.1	-1	0	355	0.2	354	355	11.5	98.5
2025-09-19T03:50	10	0	0.1	0	0	355	0.3	354	356	11.5	98.6
2025-09-19T03:51	10	0	0.2	-1	0	355	0.3	355	356	11.5	98.5
2025-09-19T03:52	10	0	0.1	-1	0	356	0.3	355	356	11.6	98.2
2025-09-19T03:53	10	0	0.1	0	0	356	0.2	355	356	11.6	98.1
2025-09-19T03:54	10	0	0.1	0	0	356	0.3	355	357	11.6	98.3
2025-09-19T03:55	10	0	0.1	0	0	356	0.2	355	356	11.6	98.5
2025-09-19T03:56	10	0	0.1	0	0	356	0.3	356	357	11.5	98.6
2025-09-19T03:57	10	0	0.1	0	0	356	0.3	356	357	11.5	98.4
2025-09-19T03:58	10	0	0.1	0	0	356	0.3	356	357	11.5	98.3
2025-09-19T03:59	10	0	0.2	0	0	357	0.3	356	357	11.5	98.2
2025-09-19T04:00	10	0	0.1	0	0	356	0.2	356	357	11.4	98.2
2025-09-19T04:01	10	0	0.2	0	0	356	0.3	356	357	11.4	98.0
2025-09-19T04:02	10	0	0.1	0	0	356	0.2	356	357	11.4	97.8
2025-09-19T04:03	10	0	0.1	0	0	356	0.3	356	357	11.5	97.8
2025-09-19T04:04	10	0	0.1	0	0	357	0.3	356	357	11.5	97.8
2025-09-19T04:05	10	0	0.2	0	0	356	0.2	356	357	11.4	97.9
2025-09-19T04:06	10	0	0.1	0	0	356	0.2	356	357	11.4	97.8
2025-09-19T04:07	10	0	0.1	0	0	357	0.2	356	357	11.4	97.9
2025-09-19T04:08	10	0	0.1	0	0	357	0.3	356	357	11.4	97.9
2025-09-19T04:09	10	0	0.1	0	0	357	0.2	357	358	11.5	98.0
2025-09-19T04:10	10	0	0.1	0	0	357	0.3	356	357	11.5	98.2
2025-09-19T04:11	10	0	0.1	0	0	357	0.4	356	358	11.5	98.4
2025-09-19T04:12	10	0	0.1	0	0	356	0.4	355	357	11.3	98.3
2025-09-19T04:13	10	0	0.1	0	0	356	0.3	354	356	11.1	98.2
2025-09-19T04:14	10	0	0.1	0	0	355	0.3	355	356	11.1	98.3
2025-09-19T04:15	10	0	0.1	0	0	355	0.3	354	356	11.2	98.5
2025-09-19T04:16	10	0	0.1	0	0	354	0.3	354	355	11.2	98.7
2025-09-19T04:17	10	0	0.1	0	0	354	0.3	353	354	11.1	98.8
2025-09-19T04:18	10	0	0.1	0	0	353	0.2	353	354	11.1	98.8
2025-09-19T04:19	10	0	0.1	0	0	353	0.3	353	354	11.2	99.1
2025-09-19T04:20	10	0	0.1	-1	0	353	0.4	352	354	11.2	98.9
2025-09-19T04:21	10	0	0.1	0	0	352	0.3	352	353	11.1	98.9
2025-09-19T04:22	10	0	0.1	0	0	352	0.2	352	353	11.1	98.8
2025-09-19T04:23	10	0	0.1	0	0	353	0.3	352	353	11.3	98.3
2025-09-19T04:24	10	0	0.1	0	0	353	0.3	352	353	11.5	98.8
2025-09-19T04:25	10	0	0.1	0	0	353	0.2	352	353	11.5	99.0
2025-09-19T04:26	10	0	0.1	0	0	352	0.3	351	352	11.4	99.1
2025-09-19T04:27	10	0	0.1	0	0	352	0.3	351	352	11.3	99.0
2025-09-19T04:28	10	0	0.1	0	0	352	0.3	351	352	11.2	98.8
2025-09-19T04:29	10	0	0.1	0	0	352	0.2	351	352	11.3	98.6
2025-09-19T04:30	10	0	0.1	0	0	352	0.2	352	353	11.4	98.5
2025-09-19T04:31	10	0	0.1	0	0	352	0.3	351	352	11.3	98.6
2025-09-19T04:32	10	0	0.1	0	0	351	0.2	351	352	11.3	98.3
2025-09-19T04:33	10	0	0.1	0	0	351	0.2	351	352	11.2	98.2
2025-09-19T04:34	10	0	0.1	0	0	351	0.3	351	352	11.3	98.1
2025-09-19T04:35	10	0	0.0	0	0	351	0.2	351	352	11.3	98.3
2025-09-19T04:36	10	0	0.1	0	0	351	0.2	351	352	11.3	98.3
2025-09-19T04:37	10	0	0.1	0	0	351	0.2	351	352	11.4	98.1
2025-09-19T04:38	10	0	0.0	0	0	352	0.2	351	352	11.4	98.1
2025-09-19T04:39	10	0	0.1	0	0	352	0.2	351	352	11.4	98.1
2025-09-19T04:40	10	0	0.1	0	0	352	0.2	351	352	11.4	98.0
2025-09-19T04:41	10	0	0.1	0	0	352	0.3	351	353	11.3	98.2
2025-09-19T04:42	10	0	0.1	0	0	352	0.2	351	352	11.3	98.2
2025-09-19T04:43	10	0	0.1	0	0	351	0.2	351	352	11.3	98.2
2025-09-19T04:44	10	0	0.1	0	0	351	0.1	351	352	11.2	98.4
2025-09-19T04:45	10	0	0.1	0	0	351	0.3	351	352	11.2	98.4
2025-09-19T04:46	10	0	0.1	0	0	352	0.3	351	352	11.3	98.2
2025-09-19T04:47	10	0	0.1	0	0	352	0.2	352	352	11.4	98.2
2025-09-19T04:48	10	0	0.1	0	0	352	0.3	351	353	11.4	98.4
2025-09-19T04:49	10	0	0.1	0	0	352	0.2	351	352	11.4	98.4
2025-09-19T04:50	10	0	0.1	0	0	352	0.3	351	352	11.4	98.5
2025-09-19T04:51	10	0	0.1	0	0	352	0.2	351	352	11.4	98.3
2025-09-19T04:52	10	0	0.1	0	0	352	0.2	351	352	11.3	98.4
2025-09-19T04:53	10	0	0.1	0	0	352	0.3	351	352	11.3	98.6
2025-09-19T04:54	10	0	0.1	0	0	352	0.2	352	352	11.2	98.7
2025-09-19T04:55	10	0	0.1	0	0	352	0.2	351	352	11.2	98.8
2025-09-19T04:56	10	0	0.1	0	0	352	0.3	351	352	11.1	98.8
2025-09-19T04:57	10	0	0.1	0	0	352	0.2	351	352	11.1	98.9
2025-09-19T04:58	10	0	0.1	0	0	351	0.2	351	352	11.0	98.7
2025-09-19T04:59	10	0	0.1	0	0	351	0.2	351	352	11.0	98.9
2025-09-19T05:00	10	0	0.1	0	0	351	0.2	351	352	11.0	98.7
2025-09-19T05:01	10	0	0.1	0	0	351	0.2	351	352	10.9	98.7
2025-09-19T05:02	10	0	0.1	0	0	351	0.2	350	351	10.9	98.6
2025-09-19T05:03	10	0	0.1	0	0	351	0.4	351	352	10.9	98.4
2025-09-19T05:04	10	0	0.0	0	0	352	0.2	351	352	11.0	98.6
2025-09-19T05:05	10	0	0.0	0	0	352	0.5	352	353	11.1	98.7
2025-09-19T05:06	10	0	0.1	0	0	353	0.2	352	353	11.3	98.4
2025-09-19T05:07	10	0	0.1	0	0	352	0.2	352	353	11.3	98.7
2025-09-19T05:08	10	0	0.1	0	0	352	0.3	352	353	11.3	98.9
2025-09-19T05:09	10	0	0.1	0	1	352	0.2	352	353	11.3	98.6
2025-09-19T05:10	10	1	0.1	0	1	352	0.4	352	354	11.3	98.5
2025-09-19T05:11	10	1	0.1	0	1	352	0.3	352	353	11.2	98.6
2025-09-19T05:12	10	1	0.1	0	1	352	0.2	351	352	11.3	98.5
2025-09-19T05:13	10	1	0.1	0	1	352	0.2	352	353	11.3	98.6
2025-09-19T05:14	10	1	0.1	0	1	353	0.5	352	354	11.5	98.3
2025-09-19T05:15	10	1	0.1	0	1	353	0.6	352	354	11.6	98.5
2025-09-19T05:16	10	1	0.1	1	1	352	0.2	352	353	11.4	98.9
2025-09-19T05:17	10	1	0.1	1	1	352	0.2	352	353	11.4	98.8
2025-09-19T05:18	10	1	0.1	1	1	352	0.3	351	353	11.4	98.7
2025-09-19T05:19	10	1	0.1	1	1	352	0.3	351	353	11.4	98.5
2025-09-19T05:20	10	1	0.1	1	1	353	0.3	352	353	11.6	98.5
2025-09-19T05:21	10	1	0.1	1	1	353	0.2	352	353	11.6	98.8
2025-09-19T05:22	10	1	0.1	1	2	352	0.3	352	353	11.5	98.9
2025-09-19T05:23	10	2	0.1	1	2	352	0.2	351	353	11.4	98.9
2025-09-19T05:24	10	2	0.1	2	2	352	0.3	351	352	11.3	98.9
2025-09-19T05:25	10	2	0.1	2	2	352	0.3	351	352	11.2	98.6
2025-09-19T05:26	10	2	0.1	2	2	352	0.3	351	352	11.2	98.3
2025-09-19T05:27	10	2	0.1	2	2	351	0.2	351	352	11.1	98.3
2025-09-19T05:28	10	2	0.1	2	2	352	0.3	351	352	11.1	98.5
2025-09-19T05:29	10	2	0.1	2	2	352	0.4	351	353	11.2	99.2
2025-09-19T05:30	10	2	0.1	2	2	353	0.2	352	353	11.2	99.0
2025-09-19T05:31	10	2	0.1	2	2	353	0.2	352	353	11.3	98.8
2025-09-19T05:32	10	2	0.1	2	3	353	0.2	352	353	11.3	98.7
2025-09-19T05:33	10	2	0.1	2	3	353	0.2	352	354	11.3	98.5
2025-09-19T05:34	10	3	0.1	2	3	353	0.2	353	354	11.4	98.6
2025-09-19T05:35	10	3	0.1	3	3	354	0.2	353	354	11.5	98.6
2025-09-19T05:36	10	3	0.1	3	3	354	0.3	353	354	11.5	98.8
2025-09-19T05:37	10	3	0.1	3	4	354	0.3	353	355	11.6	98.6
2025-09-19T05:38	10	4	0.1	3	4	354	0.2	354	355	11.5	98.7
2025-09-19T05:39	10	4	0.1	4	4	355	0.2	354	355	11.4	98.6
2025-09-19T05:40	10	5	0.2	4	5	355	0.3	354	355	11.4	98.5
2025-09-19T05:41	10	5	0.2	5	6	355	0.2	354	355	11.3	98.3
2025-09-19T05:42	10	6	0.3	6	7	355	0.2	354	355	11.1	98.1
2025-09-19T05:43	10	7	0.3	7	8	355	0.2	355	355	11.2	97.8
2025-09-19T05:44	10	8	0.3	8	9	355	0.3	354	356	11.2	98.1
2025-09-19T05:45	10	9	0.3	9	10	355	0.2	355	356	11.2	98.2
2025-09-19T05:46	10	10	0.2	10	11	356	0.3	355	356	11.2	98.1
2025-09-19T05:47	10	11	0.2	10	11	356	0.3	356	357	11.4	98.1
2025-09-19T05:48	10	11	0.2	11	12	357	0.3	356	358	11.5	98.3
2025-09-19T05:49	10	12	0.2	12	12	357	0.2	356	358	11.5	98.5
2025-09-19T05:50	10	13	0.2	12	13	358	0.2	357	358	11.5	98.1
2025-09-19T05:51	10	13	0.2	13	14	358	0.2	358	358	11.5	97.9
2025-09-19T05:52	10	14	0.2	14	14	358	0.2	358	358	11.4	98.1
2025-09-19T05:53	10	15	0.2	14	15	359	0.2	358	359	11.6	97.8
2025-09-19T05:54	10	15	0.2	15	16	359	0.3	358	359	11.6	97.7
2025-09-19T05:55	10	16	0.2	16	16	359	0.2	359	360	11.6	97.3
2025-09-19T05:56	10	17	0.2	16	17	360	0.2	359	360	11.7	97.0
2025-09-19T05:57	10	17	0.2	17	17	360	0.2	359	360	11.6	96.4
2025-09-19T05:58	10	18	0.2	17	18	360	0.2	360	361	11.4	95.9
2025-09-19T05:59	10	19	0.2	18	19	360	0.3	359	361	11.5	95.9
2025-09-19T06:00	10	19	0.2	19	20	361	0.4	360	362	11.6	96.1
2025-09-19T06:01	10	20	0.2	20	20	362	0.3	361	362	11.6	96.1
2025-09-19T06:02	10	20	0.2	20	21	362	0.3	361	363	11.7	96.0
2025-09-19T06:03	10	21	0.2	21	21	363	0.2	362	363	11.6	96.3
2025-09-19T06:04	10	22	0.2	21	22	363	0.2	362	364	11.6	96.4
2025-09-19T06:05	10	22	0.2	22	23	363	0.3	363	364	11.5	96.5
2025-09-19T06:06	10	23	0.2	23	23	364	0.3	363	364	11.6	96.5
2025-09-19T06:07	10	24	0.2	23	24	364	0.2	364	365	11.5	96.2
2025-09-19T06:08	10	24	0.2	24	25	365	0.2	364	365	11.5	95.8
2025-09-19T06:09	10	25	0.2	25	26	365	0.3	365	366	11.5	95.5
2025-09-19T06:10	10	26	0.2	25	26	366	0.2	365	366	11.4	95.5
2025-09-19T06:11	10	27	0.3	26	27	366	0.3	365	367	11.5	95.8
2025-09-19T06:12	10	28	0.3	27	28	367	0.3	366	367	11.5	95.9
2025-09-19T06:13	10	29	0.4	28	29	367	0.3	366	367	11.5	96.0
2025-09-19T06:14	10	30	0.3	29	31	368	0.2	367	368	11.6	96.0
2025-09-19T06:15	10	31	0.3	30	32	368	0.2	368	369	11.6	95.9
2025-09-19T06:16	10	32	0.3	32	33	369	0.3	368	369	11.7	96.0
2025-09-19T06:17	10	33	0.3	33	34	369	0.3	368	369	11.8	96.2
2025-09-19T06:18	10	34	0.2	34	35	369	0.2	369	370	11.9	96.3
2025-09-19T06:19	10	35	0.3	34	36	370	0.2	369	370	11.9	96.0
2025-09-19T06:20	10	36	0.2	35	36	370	0.2	369	370	11.9	95.6
2025-09-19T06:21	10	36	0.2	36	37	370	0.2	369	371	12.0	95.3
2025-09-19T06:22	10	37	0.3	36	37	370	0.3	369	371	11.9	94.8
2025-09-19T06:23	10	38	0.2	37	38	370	0.3	369	371	12.0	94.3
2025-09-19T06:24	10	38	0.2	38	39	371	0.2	370	371	12.1	94.2
2025-09-19T06:25	10	39	0.2	39	39	371	0.3	370	372	12.0	94.2
2025-09-19T06:26	10	40	0.2	39	40	371	0.3	370	372	12.0	94.4
2025-09-19T06:27	10	40	0.2	40	40	372	0.3	371	372	12.0	94.4
2025-09-19T06:28	10	40	0.2	40	41	372	0.2	371	372	12.0	94.4
2025-09-19T06:29	10	41	0.2	40	41	372	0.3	372	373	12.1	94.4
2025-09-19T06:30	10	41	0.2	41	42	373	0.2	372	373	12.1	94.4
2025-09-19T06:31	10	42	0.2	41	42	373	0.2	372	373	12.1	94.0
2025-09-19T06:32	10	42	0.2	42	43	373	0.3	373	374	12.2	93.6
2025-09-19T06:33	10	43	0.2	42	43	374	0.3	373	374	12.3	93.9
2025-09-19T06:34	10	43	0.1	43	43	374	0.3	374	375	12.3	93.6
2025-09-19T06:35	10	44	0.2	43	44	375	0.2	374	375	12.4	93.3
2025-09-19T06:36	10	44	0.2	44	44	375	0.3	374	376	12.5	93.1
2025-09-19T06:37	10	45	0.2	44	45	376	0.2	375	376	12.6	92.9
2025-09-19T06:38	10	45	0.2	45	46	377	0.3	376	377	12.8	92.8
2025-09-19T06:39	10	46	0.2	46	46	377	0.2	377	378	12.9	92.6
2025-09-19T06:40	10	47	0.2	46	47	378	0.3	377	379	13.0	92.3
2025-09-19T06:41	10	47	0.2	47	48	379	0.2	378	379	13.1	91.7
2025-09-19T06:42	10	48	0.2	48	48	379	0.2	379	380	13.3	91.9
2025-09-19T06:43	10	49	0.2	48	49	380	0.2	379	380	13.4	92.2
2025-09-19T06:44	10	49	0.2	49	50	380	0.2	380	381	13.4	91.0
2025-09-19T06:45	10	50	0.2	50	50	381	0.2	381	381	13.6	90.7
2025-09-19T06:46	10	51	0.2	50	51	381	0.2	381	382	13.6	90.8
2025-09-19T06:47	10	51	0.1	51	52	382	0.2	381	382	13.5	89.9
2025-09-19T06:48	10	52	0.2	52	52	382	0.2	381	383	13.4	89.8
2025-09-19T06:49	10	53	0.2	52	53	382	0.2	382	383	13.3	90.1
2025-09-19T06:50	10	53	0.2	53	54	382	0.3	382	383	13.3	89.9
2025-09-19T06:51	10	54	0.2	54	54	382	0.2	382	383	13.3	89.3
2025-09-19T06:52	10	54	0.2	54	55	383	0.2	382	383	13.3	90.0
2025-09-19T06:53	10	55	0.2	55	55	383	0.2	383	384	13.3	90.1
2025-09-19T06:54	10	56	0.2	55	56	383	0.2	383	384	13.3	90.6
2025-09-19T06:55	10	56	0.2	56	57	384	0.2	383	384	13.3	90.2
2025-09-19T06:56	10	57	0.2	57	57	384	0.2	384	385	13.3	90.0
2025-09-19T06:57	10	58	0.2	57	58	384	0.2	384	385	13.4	90.6
2025-09-19T06:58	10	58	0.2	58	59	385	0.2	384	385	13.4	90.6
2025-09-19T06:59	10	59	0.2	59	60	385	0.2	385	386	13.5	89.5
2025-09-19T07:00	10	60	0.2	59	60	385	0.2	385	386	13.6	89.0
2025-09-19T07:01	10	60	0.2	60	61	386	0.2	385	386	13.7	88.9
2025-09-19T07:02	10	61	0.3	60	62	386	0.2	386	386	13.7	88.6
2025-09-19T07:03	10	62	0.7	61	67	387	0.3	386	387	13.8	88.5
2025-09-19T07:04	10	62	0.2	62	63	387	0.2	387	388	13.8	88.7
2025-09-19T07:05	10	63	0.3	62	63	388	0.2	387	388	13.9	88.9
2025-09-19T07:06	10	64	0.2	63	64	388	0.2	388	389	14.0	88.4
2025-09-19T07:07	10	64	0.2	64	65	389	0.2	388	389	14.0	88.9
2025-09-19T07:08	10	65	0.1	64	65	389	0.2	389	389	14.0	88.3
2025-09-19T07:09	10	65	0.2	65	66	389	0.2	389	390	14.1	87.7
2025-09-19T07:10	10	66	0.2	65	66	390	0.3	389	390	14.2	87.5
2025-09-19T07:11	10	67	0.3	66	67	390	0.2	389	390	14.4	86.6
2025-09-19T07:12	10	68	0.2	67	68	390	0.2	389	391	14.4	86.2
2025-09-19T07:13	10	68	0.2	68	69	390	0.2	390	391	14.4	86.0
2025-09-19T07:14	10	69	0.3	69	69	391	0.3	390	391	14.3	86.3
2025-09-19T07:15	10	70	0.4	70	71	391	0.2	391	392	14.3	86.6
2025-09-19T07:16	10	72	0.5	71	73	392	0.2	391	392	14.3	86.8
2025-09-19T07:17	10	74	0.7	73	75	392	0.2	392	393	14.4	86.8
2025-09-19T07:18	10	73	2.1	69	75	393	0.2	392	393	14.4	86.6
2025-09-19T07:19	10	69	2.5	65	73	393	0.3	392	393	14.5	87.0
2025-09-19T07:20	10	52	8.1	45	71	392	1.1	390	394	14.5	87.7
2025-09-19T07:21	10	55	6.3	46	66	391	0.3	391	392	14.5	88.1
2025-09-19T07:22	10	66	2.4	63	73	392	0.3	392	393	14.6	88.5
2025-09-19T07:23	10	77	3.2	69	81	394	0.6	392	395	14.6	88.0
2025-09-19T07:24	10	73	5.0	66	81	394	0.3	394	395	14.6	88.3
2025-09-19T07:25	10	72	3.9	66	80	395	0.3	394	395	14.7	89.1
2025-09-19T07:26	10	69	4.5	64	76	394	0.3	394	395	14.6	88.4
2025-09-19T07:27	10	75	4.1	66	82	395	0.5	393	396	14.7	88.0
2025-09-19T07:28	10	83	0.3	82	83	396	0.4	395	396	14.7	88.0
2025-09-19T07:29	10	84	0.4	83	85	396	0.2	396	396	14.8	88.5
2025-09-19T07:30	10	85	0.1	84	85	397	0.2	396	397	14.7	87.5
2025-09-19T07:31	10	84	1.6	78	85	397	0.2	397	398	14.8	88.1
2025-09-19T07:32	10	79	3.3	74	83	397	0.3	396	397	14.8	88.6
2025-09-19T07:33	10	83	0.3	83	84	397	0.4	397	398	14.8	88.3
2025-09-19T07:34	10	84	0.2	84	84	398	0.3	397	398	14.7	87.9
2025-09-19T07:35	10	84	0.3	84	85	398	0.3	398	399	14.8	87.7
2025-09-19T07:36	10	85	0.3	85	86	398	0.2	397	398	14.8	87.5
2025-09-19T07:37	10	86	0.3	86	87	398	0.3	397	398	14.9	88.5
2025-09-19T07:38	10	87	0.2	87	87	399	0.2	398	399	14.9	88.6
2025-09-19T07:39	10	87	0.5	86	88	399	0.3	398	399	14.9	88.7
2025-09-19T07:40	10	88	0.3	87	89	398	0.5	397	399	14.8	88.6
2025-09-19T07:41	10	88	0.2	87	88	398	0.2	397	398	14.8	88.7
2025-09-19T07:42	10	88	0.3	87	88	398	0.2	398	399	14.7	89.9
2025-09-19T07:43	10	88	0.1	87	88	399	0.3	398	400	14.7	90.3
2025-09-19T07:44	10	88	0.4	88	89	399	0.3	399	400	14.7	90.3
2025-09-19T07:45	10	89	0.2	89	90	400	0.2	399	400	14.8	89.9
2025-09-19T07:46	10	90	0.2	89	90	400	0.2	399	400	14.8	89.3
2025-09-19T07:47	10	91	0.3	90	91	400	0.3	400	401	14.9	89.3
2025-09-19T07:48	10	91	0.3	91	92	401	0.3	401	402	14.9	89.0
2025-09-19T07:49	10	92	0.2	92	92	401	0.2	401	402	15.0	89.5
2025-09-19T07:50	10	93	0.1	92	93	403	0.4	402	403	15.0	89.4
2025-09-19T07:51	10	93	0.2	93	94	404	0.3	403	404	15.2	90.2
2025-09-19T07:52	10	94	0.1	93	94	403	0.4	402	404	15.1	89.8
2025-09-19T07:53	10	94	0.2	94	94	402	0.3	401	403	15.0	88.8
2025-09-19T07:54	10	95	0.2	94	95	402	0.3	402	403	14.9	89.2
2025-09-19T07:55	10	95	0.2	95	96	402	0.2	402	403	14.9	89.2
2025-09-19T07:56	10	96	0.2	96	96	402	0.2	402	403	14.9	89.3
2025-09-19T07:57	10	96	0.2	96	97	403	0.4	402	404	14.9	89.3
2025-09-19T07:58	10	97	0.1	96	97	404	0.3	404	405	14.5	89.3
2025-09-19T07:59	10	97	0.2	97	98	404	0.5	403	405	14.5	89.3
2025-09-19T08:00	10	98	0.2	98	98	404	0.3	403	404	14.9	89.3
2025-09-19T08:01	10	99	0.2	98	99	404	0.4	403	405	14.9	89.3
2025-09-19T08:02	10	99	0.1	99	99	405	0.3	405	406	14.9	89.3
2025-09-19T08:03	10	100	0.2	99	100	406	0.4	405	407	14.9	89.3
2025-09-19T08:04	10	100	0.2	100	100	407	0.2	406	407	15.3	88.2
2025-09-19T08:05	10	101	0.2	100	101	407	0.3	406	408	15.4	87.7
2025-09-19T08:06	10	101	0.2	101	102	407	0.3	406	407	15.4	88.1
2025-09-19T08:07	10	102	0.2	101	102	406	0.2	406	407	15.3	88.1
2025-09-19T08:08	10	102	0.1	102	102	407	0.3	406	408	15.4	88.3
2025-09-19T08:09	10	103	0.2	102	103	407	0.3	407	408	15.4	88.0
2025-09-19T08:10	10	103	0.2	103	104	408	0.3	407	408	15.4	88.2
2025-09-19T08:11	10	104	0.2	104	104	408	0.3	407	408	15.4	87.8
2025-09-19T08:12	10	104	0.1	104	105	408	0.3	408	409	15.4	87.8
2025-09-19T08:13	10	105	0.1	104	105	409	0.4	409	410	15.6	88.9
2025-09-19T08:14	10	105	0.1	105	105	410	0.3	410	411	15.6	88.3
2025-09-19T08:15	10	106	0.2	105	106	410	0.4	409	411	15.6	88.1
2025-09-19T08:16	10	106	0.2	106	107	409	0.3	409	410	15.6	87.9
2025-09-19T08:17	10	107	0.2	106	107	410	0.3	410	411	15.7	86.9
2025-09-19T08:18	10	107	0.2	107	108	411	0.2	410	411	16.0	86.3
2025-09-19T08:19	10	108	0.2	108	108	411	0.2	411	411	16.1	85.8
2025-09-19T08:20	10	108	0.2	108	109	411	0.3	410	412	15.8	86.2
2025-09-19T08:21	10	109	0.1	108	109	411	0.5	410	412	15.9	86.9
2025-09-19T08:22	10	109	0.2	109	110	411	0.2	410	411	15.9	87.1
2025-09-19T08:23	10	110	0.2	109	110	410	0.4	410	411	15.9	86.7
2025-09-19T08:24	10	110	0.2	110	111	411	0.6	410	412	15.9	86.4
2025-09-19T08:25	10	110	0.2	110	111	412	0.3	411	413	16.0	86.3
2025-09-19T08:26	10	111	0.3	110	112	413	0.4	412	413	16.1	85.8
2025-09-19T08:27	10	111	0.2	111	112	413	0.2	413	414	16.3	86.8
2025-09-19T08:28	10	112	0.2	112	112	413	0.2	413	414	16.5	83.9
2025-09-19T08:29	10	112	0.2	112	113	414	0.2	413	414	16.7	82.0
2025-09-19T08:30	10	113	0.2	113	113	414	0.2	413	414	16.9	81.2
2025-09-19T08:31	10	113	0.2	113	114	414	0.2	414	415	16.9	81.6
2025-09-19T08:32	10	114	0.1	114	114	415	0.3	414	415	17.0	81.1
2025-09-19T08:33	10	114	0.1	114	114	416	0.3	416	417	16.9	82.1
2025-09-19T08:34	10	114	0.1	114	115	416	0.2	416	417	16.8	84.1
2025-09-19T08:35	10	115	0.1	115	115	417	0.4	416	418	16.8	83.8
2025-09-19T08:36	10	115	0.1	115	115	418	0.3	417	418	17.1	83.0
2025-09-19T08:37	10	116	0.1	116	116	418	0.2	418	418	17.3	81.8
2025-09-19T08:38	10	117	0.2	116	117	417	0.4	417	419	17.2	79.5
2025-09-19T08:39	10	117	0.1	117	117	418	0.3	417	418	17.2	80.3
2025-09-19T08:40	10	118	0.2	117	118	417	0.7	416	419	17.1	80.8
2025-09-19T08:41	10	118	0.1	118	118	417	0.3	417	418	16.9	81.3
2025-09-19T08:42	10	118	0.1	118	119	418	0.2	417	418	17.0	80.8
2025-09-19T08:43	10	119	0.1	118	119	418	0.2	418	419	17.4	79.1
2025-09-19T08:44	10	119	0.2	119	120	420	0.4	419	420	17.7	77.9
2025-09-19T08:45	10	120	0.2	120	120	420	0.3	419	421	17.8	78.2
2025-09-19T08:46	10	120	0.1	120	121	420	0.4	419	421	17.5	80.0
2025-09-19T08:47	10	121	0.1	120	121	421	0.3	420	422	17.4	80.9
2025-09-19T08:48	10	121	0.2	121	121	421	0.2	421	422	17.4	81.5
2025-09-19T08:49	10	121	0.1	121	122	422	0.3	421	422	17.4	81.9
2025-09-19T08:50	10	122	0.1	122	122	422	0.3	421	422	17.5	81.9
2025-09-19T08:51	10	122	0.1	122	122	422	0.2	422	423	17.5	81.3
2025-09-19T08:52	10	122	0.2	122	123	422	0.4	422	423	17.5	80.2
2025-09-19T08:53	10	123	0.2	123	123	422	0.4	422	423	17.6	77.7
2025-09-19T08:54	10	124	0.2	123	124	423	0.3	422	423	17.7	76.0
2025-09-19T08:55	10	124	0.1	124	124	423	0.2	423	424	17.6	76.4
2025-09-19T08:56	10	124	0.1	124	124	424	0.3	423	425	17.7	77.7
2025-09-19T08:57	10	124	0.1	124	125	424	0.3	423	425	17.9	77.1
2025-09-19T08:58	10	125	0.1	124	125	425	0.3	424	426	18.0	76.5
2025-09-19T08:59	10	125	0.1	125	125	423	1.2	422	425	17.6	77.9
2025-09-19T09:00	10	126	0.2	125	126	424	0.4	423	424	17.6	79.5
2025-09-19T09:01	10	126	0.1	126	126	424	0.3	423	424	17.6	78.2
2025-09-19T09:02	10	126	0.1	126	126	423	0.5	422	424	17.6	77.7
2025-09-19T09:03	10	126	0.1	126	127	424	0.5	422	424	17.6	77.7
2025-09-19T09:04	10	127	0.1	126	127	424	0.4	423	425	17.7	77.3
2025-09-19T09:05	10	127	0.1	127	127	424	0.5	423	426	17.7	75.7
2025-09-19T09:06	10	127	0.1	127	128	425	0.7	424	426	17.7	74.9
2025-09-19T09:07	10	128	0.2	127	128	424	0.5	424	425	17.7	73.1
2025-09-19T09:08	10	128	0.2	128	129	426	0.3	425	427	17.8	73.9
2025-09-19T09:09	10	129	0.2	128	129	425	0.3	425	426	17.8	72.9
2025-09-19T09:10	10	129	0.2	129	130	426	0.4	425	427	17.7	73.3
2025-09-19T09:11	10	130	0.1	129	130	428	0.4	427	428	17.8	73.6
2025-09-19T09:12	10	130	0.1	130	130	428	0.3	427	428	18.1	75.5
2025-09-19T09:13	10	130	0.1	130	131	428	0.3	428	429	18.1	72.9
2025-09-19T09:14	10	131	0.1	131	131	429	0.4	428	430	18.2	74.4
2025-09-19T09:15	10	131	0.1	131	131	429	0.8	428	431	18.3	75.9
2025-09-19T09:16	10	131	0.1	131	131	428	0.3	427	429	18.2	74.1
2025-09-19T09:17	10	132	0.2	131	132	428	0.4	427	429	18.1	73.5
2025-09-19T09:18	10	132	0.2	132	132	430	0.3	429	430	18.4	73.3
2025-09-19T09:19	10	132	0.1	132	133	431	0.4	430	431	18.5	73.4
2025-09-19T09:20	10	133	0.1	132	133	431	0.5	430	432	18.4	73.6
2025-09-19T09:21	10	133	0.1	133	133	431	0.2	431	432	18.6	74.3
2025-09-19T09:22	10	133	0.1	133	134	431	0.3	431	432	18.6	73.0
2025-09-19T09:23	10	134	0.2	133	134	431	0.3	431	432	18.5	74.2
2025-09-19T09:24	10	134	0.2	134	134	432	0.3	431	433	18.6	74.5
2025-09-19T09:25	10	134	0.1	134	135	432	0.2	431	432	18.5	72.5
2025-09-19T09:26	10	134	0.1	134	135	433	0.4	432	433	18.6	73.1
2025-09-19T09:27	10	135	0.1	135	135	433	0.6	431	434	18.5	73.3
2025-09-19T09:28	10	135	0.2	135	135	432	0.5	431	433	18.4	73.4
2025-09-19T09:29	10	135	0.1	135	136	432	0.4	430	432	18.4	73.6
2025-09-19T09:30	10	136	0.1	135	136	431	0.8	430	433	18.4	73.6
2025-09-19T09:31	10	136	0.1	136	136	433	0.2	432	433	18.5	73.4
2025-09-19T09:32	10	136	0.2	136	137	433	0.6	432	434	18.6	72.9
2025-09-19T09:33	10	137	0.2	136	137	434	0.2	434	434	18.9	72.6
2025-09-19T09:34	10	137	0.2	137	137	435	0.4	434	436	19.0	72.1
2025-09-19T09:35	10	137	0.2	137	138	435	0.3	435	436	19.2	72.2
2025-09-19T09:36	10	138	0.1	138	138	436	0.2	435	436	19.3	71.7
2025-09-19T09:37	10	138	0.1	138	138	436	0.4	435	437	19.1	72.0
2025-09-19T09:38	10	138	0.2	138	139	436	0.4	435	436	19.1	71.9
2025-09-19T09:39	10	139	0.2	138	139	435	0.6	434	436	19.0	71.3
2025-09-19T09:40	10	139	0.2	139	140	436	0.2	435	436	18.9	71.5
2025-09-19T09:41	10	139	0.2	139	140	436	0.3	435	437	18.9	71.3
2025-09-19T09:42	10	139	0.2	139	140	436	0.4	435	437	19.0	71.1
2025-09-19T09:43	10	140	0.2	139	140	437	0.3	436	438	19.1	71.2
2025-09-19T09:44	10	140	0.2	140	140	437	0.8	435	438	19.2	71.8
2025-09-19T09:45	10	140	0.2	140	141	435	0.3	435	436	18.9	71.1
2025-09-19T09:46	10	140	0.2	140	141	436	0.4	435	437	19.0	71.2
2025-09-19T09:47	10	141	0.2	140	141	438	0.7	436	439	19.2	71.4
2025-09-19T09:48	10	141	0.2	140	141	438	0.6	437	439	19.4	71.3
2025-09-19T09:49	10	141	0.2	141	141	436	0.7	435	437	19.1	70.4
2025-09-19T09:50	10	141	0.2	141	142	435	0.4	435	436	19.0	70.7
2025-09-19T09:51	10	142	0.2	141	142	436	0.6	435	438	19.1	71.3
2025-09-19T09:52	10	142	0.2	141	142	438	0.8	437	439	19.4	71.7
2025-09-19T09:53	10	142	0.2	142	143	437	0.7	436	438	19.2	70.3
2025-09-19T09:54	10	142	0.2	142	143	436	0.3	436	437	19.1	70.5
2025-09-19T09:55	10	143	0.3	142	144	437	0.8	435	438	19.2	71.3
2025-09-19T09:56	10	143	0.2	142	144	437	0.6	436	439	19.3	70.8
2025-09-19T09:57	10	144	0.2	143	144	438	0.3	438	439	19.2	70.4
2025-09-19T09:58	10	144	0.2	143	144	438	0.8	437	440	19.4	70.7
2025-09-19T09:59	10	144	0.2	144	144	438	0.5	437	439	19.2	70.2
2025-09-19T10:00	10	144	0.1	144	145	439	0.4	439	440	19.4	69.8
2025-09-19T10:01	10	145	0.1	144	145	440	0.4	439	441	19.5	70.1
2025-09-19T10:02	10	145	0.1	144	145	440	0.4	439	441	19.5	70.0
2025-09-19T10:03	10	145	0.1	145	145	440	0.8	439	441	19.5	69.9
2025-09-19T10:04	10	145	0.1	145	146	442	0.4	442	443	19.7	70.0
2025-09-19T10:05	10	146	0.1	146	146	441	0.3	440	442	19.8	70.0
2025-09-19T10:06	10	146	0.1	146	146	441	0.4	440	442	19.9	69.8
2025-09-19T10:07	10	146	0.1	146	146	440	0.7	439	442	19.9	69.6
2025-09-19T10:08	10	146	0.1	146	146	443	0.6	442	444	20.1	69.7
2025-09-19T10:09	10	146	0.1	146	147	444	0.3	443	445	20.1	70.5
2025-09-19T10:10	10	147	0.1	146	147	443	0.8	442	445	20.1	68.5
2025-09-19T10:11	10	147	0.1	147	147	443	0.3	443	444	20.1	70.1
2025-09-19T10:12	10	147	0.1	147	147	442	0.9	441	444	19.9	68.8
2025-09-19T10:13	10	147	0.1	147	148	442	0.6	441	443	19.9	69.4
2025-09-19T10:14	10	147	0.0	147	147	442	1.1	440	443	19.9	69.1
2025-09-19T10:15	10	147	0.1	147	147	441	0.4	441	442	19.8	69.6
2025-09-19T10:16	10	148	0.1	147	148	441	0.5	440	442	19.8	70.0
2025-09-19T10:17	10	148	0.1	148	148	442	0.9	441	444	19.8	69.6
2025-09-19T10:18	10	148	0.2	148	149	444	0.4	443	445	20.2	71.1
2025-09-19T10:19	10	149	0.1	148	149	444	0.6	443	445	20.4	68.5
2025-09-19T10:20	10	149	0.1	149	149	445	0.3	445	446	20.4	67.8
2025-09-19T10:21	10	149	0.1	149	149	446	0.6	445	447	20.5	68.3
2025-09-19T10:22	10	149	0.1	149	149	446	0.4	445	447	20.5	68.9
2025-09-19T10:23	10	149	0.1	149	149	445	0.5	444	446	20.3	67.7
2025-09-19T10:24	10	149	0.1	149	150	445	0.4	444	446	20.3	69.2
2025-09-19T10:25	10	149	0.1	149	149	445	0.3	445	446	20.3	69.1
2025-09-19T10:26	10	149	0.1	149	150	444	0.7	443	445	20.3	68.2
2025-09-19T10:27	10	150	0.1	149	150	445	0.7	444	447	20.4	68.3
2025-09-19T10:28	10	150	0.1	150	150	447	0.4	446	448	20.5	68.3
2025-09-19T10:29	10	150	0.1	150	150	447	0.2	447	448	20.6	67.6
2025-09-19T10:30	10	150	0.1	150	151	448	0.2	447	448	20.6	65.9
2025-09-19T10:31	10	151	0.1	150	151	448	0.2	448	449	20.7	66.2
2025-09-19T10:32	10	151	0.1	151	151	448	0.3	448	449	20.7	66.9
2025-09-19T10:33	10	151	0.1	151	151	448	0.3	447	449	21.0	66.4
2025-09-19T10:34	10	151	0.1	151	152	449	0.2	449	450	21.1	66.9
2025-09-19T10:35	10	151	0.1	151	152	449	0.3	449	450	21.3	64.6
2025-09-19T10:36	10	152	0.1	151	152	451	0.4	450	451	21.6	64.4
2025-09-19T10:37	10	152	0.1	152	152	450	0.8	449	452	21.3	64.6
2025-09-19T10:38	10	152	0.1	152	152	449	0.6	448	451	21.1	65.3
2025-09-19T10:39	10	152	0.1	152	152	450	0.6	448	451	21.0	65.8
2025-09-19T10:40	10	152	0.1	152	152	449	0.4	448	450	20.9	65.8
2025-09-19T10:41	10	152	0.1	152	152	449	0.4	448	450	21.0	66.4
2025-09-19T10:42	10	152	0.1	152	153	449	0.4	448	450	21.2	66.7
2025-09-19T10:43	10	153	0.1	152	153	448	0.8	447	450	21.2	64.8
2025-09-19T10:44	10	153	0.1	152	153	449	0.6	448	450	21.1	64.2
2025-09-19T10:45	10	153	0.1	153	153	451	0.3	450	452	21.2	64.9
2025-09-19T10:46	10	153	0.1	153	153	452	0.3	451	453	21.4	67.4
2025-09-19T10:47	10	153	0.1	153	154	452	0.3	451	452	21.3	64.1
2025-09-19T10:48	10	153	0.1	153	154	453	0.6	452	454	21.4	64.5
2025-09-19T10:49	10	153	0.1	153	154	453	0.4	452	454	21.5	65.2
2025-09-19T10:50	10	154	0.1	153	154	452	0.4	451	453	21.5	63.3
2025-09-19T10:51	10	154	0.1	153	154	452	0.5	452	453	21.4	63.2
2025-09-19T10:52	10	154	0.1	153	154	453	0.3	452	453	21.3	63.5
2025-09-19T10:53	10	154	0.1	154	154	452	0.3	452	453	21.4	63.3
2025-09-19T10:54	10	154	0.1	154	154	453	0.4	452	454	21.6	63.2
2025-09-19T10:55	10	154	0.1	154	155	455	0.4	454	456	21.7	63.7
2025-09-19T10:56	10	155	0.1	154	155	455	0.4	454	456	21.7	62.4
2025-09-19T10:57	10	155	0.1	154	155	455	0.2	454	455	21.7	62.5
2025-09-19T10:58	10	155	0.1	155	155	456	0.4	454	456	21.9	63.0
2025-09-19T10:59	10	155	0.1	155	155	456	0.2	455	456	22.1	63.8
2025-09-19T11:00	10	155	0.1	155	155	456	0.3	455	457	22.1	61.9
2025-09-19T11:01	10	155	0.2	155	155	455	0.5	454	456	21.9	60.3
2025-09-19T11:02	10	155	0.1	155	155	455	0.2	454	455	21.9	60.8
2025-09-19T11:03	10	155	0.1	154	155	455	0.3	454	456	22.0	61.9
2025-09-19T11:04	10	154	0.1	154	155	455	1.1	453	457	22.2	62.0
2025-09-19T11:05	10	154	0.1	154	155	453	0.5	452	454	22.2	59.9
2025-09-19T11:06	10	155	0.1	154	155	453	0.3	452	454	22.0	59.3
2025-09-19T11:07	10	155	0.1	154	155	453	0.4	452	454	21.9	59.9
2025-09-19T11:08	10	155	0.1	154	155	454	0.7	452	455	21.9	60.8
2025-09-19T11:09	10	155	0.1	155	155	454	1.0	452	455	22.1	62.0
2025-09-19T11:10	10	155	0.1	155	155	454	0.9	453	456	22.2	63.1
2025-09-19T11:11	10	155	0.1	155	155	454	0.3	453	454	22.1	60.4
2025-09-19T11:12	10	155	0.1	155	155	454	0.4	453	455	22.2	62.2
2025-09-19T11:13	10	155	0.1	155	155	454	0.5	453	455	22.1	62.4
2025-09-19T11:14	10	155	0.1	155	155	453	0.4	453	454	22.0	61.3
2025-09-19T11:15	10	155	0.1	155	155	455	0.7	454	457	22.1	60.4
2025-09-19T11:16	10	155	0.1	155	155	457	0.3	456	457	22.2	59.8
2025-09-19T11:17	10	155	0.1	155	155	457	0.3	457	458	22.3	58.5
2025-09-19T11:18	10	155	0.1	155	155	457	0.8	456	458	22.6	58.3
2025-09-19T11:19	10	155	0.1	155	155	457	0.4	456	457	22.5	59.3
2025-09-19T11:20	10	155	0.1	155	156	458	0.3	457	458	22.6	58.4
2025-09-19T11:21	10	155	0.1	155	155	459	0.4	458	460	22.7	59.1
2025-09-19T11:22	10	155	0.1	155	155	458	0.4	457	458	22.6	61.1
2025-09-19T11:23	10	155	0.2	155	155	457	0.5	455	457	22.4	59.4
2025-09-19T11:24	10	155	0.1	154	155	455	0.5	454	457	22.3	60.0
2025-09-19T11:25	10	155	0.1	154	155	456	0.6	455	457	22.3	60.1
2025-09-19T11:26	10	155	0.2	154	156	455	0.5	454	456	22.2	60.7
2025-09-19T11:27	10	155	0.2	155	155	455	0.3	455	456	22.2	59.8
2025-09-19T11:28	10	155	0.2	154	155	457	0.6	456	458	22.3	60.3
2025-09-19T11:29	10	155	0.1	155	155	458	0.5	457	458	22.4	60.1
2025-09-19T11:30	10	155	0.2	155	156	459	0.6	458	460	22.5	60.0
2025-09-19T11:31	10	155	0.1	155	156	461	0.3	460	461	22.9	60.5
2025-09-19T11:32	10	155	0.2	155	156	459	1.0	458	461	23.0	58.9
2025-09-19T11:33	10	155	0.1	155	156	459	0.3	458	459	22.8	59.7
2025-09-19T11:34	10	155	0.1	155	156	460	0.4	459	461	22.8	60.2
2025-09-19T11:35	10	155	0.1	155	156	460	0.3	459	461	22.8	58.9
2025-09-19T11:36	10	155	0.1	155	155	460	0.3	460	461	23.1	58.9
2025-09-19T11:37	10	155	0.1	155	156	462	0.3	461	462	23.4	57.7
2025-09-19T11:38	10	155	0.1	155	156	463	0.5	462	464	23.5	59.7
2025-09-19T11:39	10	155	0.1	155	156	462	1.2	461	464	23.2	60.0
2025-09-19T11:40	10	156	0.1	155	156	461	0.4	460	462	22.9	60.8
2025-09-19T11:41	10	156	0.1	155	156	460	0.6	458	461	22.9	60.4
2025-09-19T11:42	10	156	0.1	155	156	461	0.8	459	462	23.0	60.2
2025-09-19T11:43	10	155	0.1	155	156	460	1.3	458	462	22.8	60.5
2025-09-19T11:44	10	155	0.1	155	156	458	0.6	457	459	22.7	60.3
2025-09-19T11:45	10	155	0.1	155	155	458	0.5	457	459	22.7	60.1
2025-09-19T11:46	10	155	0.1	155	156	459	0.7	457	460	22.7	60.5
2025-09-19T11:47	10	155	0.1	155	156	461	0.9	460	463	22.9	61.5
2025-09-19T11:48	10	155	0.1	155	156	461	1.1	459	463	22.9	60.4
2025-09-19T11:49	10	156	0.1	155	156	460	0.4	459	461	22.9	60.0
2025-09-19T11:50	10	155	0.1	155	156	460	0.4	460	461	23.0	60.6
2025-09-19T11:51	10	155	0.1	155	156	458	0.9	457	460	23.0	59.0
2025-09-19T11:52	10	155	0.1	155	156	459	0.6	457	460	23.0	58.7
2025-09-19T11:53	10	155	0.1	155	156	460	0.6	459	462	23.1	58.3
2025-09-19T11:54	10	156	0.1	155	156	461	1.1	458	463	23.1	58.1
2025-09-19T11:55	10	156	0.1	155	156	459	0.3	458	459	23.1	57.6
2025-09-19T11:56	10	156	0.1	156	156	458	0.6	458	460	23.2	57.5
2025-09-19T11:57	10	156	0.1	156	156	461	0.5	460	462	23.4	57.4
2025-09-19T11:58	10	156	0.1	156	156	462	0.8	461	463	23.4	58.5
2025-09-19T11:59	10	156	0.1	156	156	463	0.4	462	464	23.6	57.6
2025-09-19T12:00	10	156	0.1	156	156	465	0.2	464	465	23.8	59.3
2025-09-19T12:01	10	156	0.1	156	156	463	0.5	462	465	23.7	55.9
2025-09-19T12:02	10	156	0.1	156	156	463	0.3	463	464	23.6	57.2
2025-09-19T12:03	10	156	0.1	156	156	463	0.7	462	464	23.4	56.7
2025-09-19T12:04	10	156	0.1	156	156	462	0.4	461	463	23.6	55.7
2025-09-19T12:05	10	156	0.1	156	156	464	0.4	463	465	23.7	56.6
2025-09-19T12:06	10	156	0.1	156	156	464	0.4	463	465	23.7	57.2
2025-09-19T12:07	10	156	0.1	156	156	464	0.3	463	465	23.8	57.1
2025-09-19T12:08	10	156	0.1	156	156	463	0.3	463	464	24.0	56.5
2025-09-19T12:09	10	156	0.2	156	157	464	0.6	463	466	24.0	57.4
2025-09-19T12:10	10	157	0.2	156	157	465	0.5	464	466	24.1	57.4
2025-09-19T12:11	10	156	0.2	156	157	464	0.5	463	465	24.0	56.0
2025-09-19T12:12	10	156	0.2	156	157	464	0.3	464	465	23.8	56.0
2025-09-19T12:13	10	156	0.2	156	157	464	0.4	463	465	24.0	55.7
2025-09-19T12:14	10	156	0.2	155	156	464	1.3	463	466	24.1	55.2
2025-09-19T12:15	10	156	0.1	156	156	462	0.8	461	464	24.0	54.4
2025-09-19T12:16	10	156	0.2	155	156	462	0.4	461	463	24.1	54.5
2025-09-19T12:17	10	156	0.1	155	156	464	0.4	463	464	24.3	53.7
2025-09-19T12:18	10	156	0.1	155	156	464	0.2	464	464	24.3	53.8
2025-09-19T12:19	10	155	0.2	155	155	464	0.4	463	465	24.1	54.1
2025-09-19T12:20	10	155	0.1	155	155	464	0.3	464	465	24.2	54.1
2025-09-19T12:21	10	155	0.1	155	155	464	0.4	463	465	24.4	55.2
2025-09-19T12:22	10	155	0.1	155	155	465	0.3	464	465	24.4	53.5
2025-09-19T12:23	10	155	0.1	155	155	465	0.5	464	466	24.3	53.6
2025-09-19T12:24	10	155	0.1	155	155	465	0.6	464	466	24.4	54.3
2025-09-19T12:25	10	155	0.1	155	155	464	0.3	463	465	24.2	54.7
2025-09-19T12:26	10	155	0.1	154	155	464	0.4	463	464	24.2	55.7
2025-09-19T12:27	10	154	0.1	154	155	464	0.6	463	465	24.1	55.2
2025-09-19T12:28	10	154	0.1	154	155	464	0.3	463	464	24.1	55.6
2025-09-19T12:29	10	154	0.2	154	154	463	0.6	462	464	24.1	55.2
2025-09-19T12:30	10	154	0.1	153	154	464	0.3	464	465	24.0	54.6
2025-09-19T12:31	10	154	0.1	153	154	465	0.3	464	465	24.1	55.9
2025-09-19T12:32	10	153	0.1	153	154	464	0.6	462	465	24.2	57.3
2025-09-19T12:33	10	153	0.2	153	154	463	0.4	463	464	24.1	56.7
2025-09-19T12:34	10	153	0.1	153	153	464	0.6	463	465	24.0	57.1
2025-09-19T12:35	10	153	0.1	152	153	463	0.7	462	464	24.0	56.7
2025-09-19T12:36	10	152	0.1	152	153	463	0.4	462	464	24.1	56.4
2025-09-19T12:37	10	152	0.1	152	152	465	0.6	463	465	24.2	56.7
2025-09-19T12:38	10	152	0.1	152	152	465	0.3	465	466	24.2	55.6
2025-09-19T12:39	10	152	0.1	152	152	466	0.5	465	467	24.4	56.5
2025-09-19T12:40	10	152	0.1	151	152	464	0.9	463	465	24.3	55.5
2025-09-19T12:41	10	151	0.1	151	152	464	0.7	463	466	24.4	56.2
2025-09-19T12:42	10	151	0.1	151	151	465	1.1	462	466	24.5	56.7
2025-09-19T12:43	10	151	0.2	150	151	461	1.2	459	463	24.0	56.2
2025-09-19T12:44	10	150	0.2	150	151	460	0.5	459	461	23.9	56.6
2025-09-19T12:45	10	150	0.2	150	151	462	0.3	461	462	24.1	57.0
2025-09-19T12:46	10	149	0.2	149	150	459	1.1	458	462	24.0	56.7
2025-09-19T12:47	10	149	0.2	149	150	459	0.4	458	460	23.9	56.6
2025-09-19T12:48	10	149	0.2	149	150	461	0.7	459	462	24.1	57.1
2025-09-19T12:49	10	149	0.2	149	150	461	0.8	459	462	24.1	55.9
2025-09-19T12:50	10	149	0.1	149	150	463	0.9	462	465	24.3	56.4
2025-09-19T12:51	10	149	0.2	149	150	464	1.2	461	466	24.4	57.0
2025-09-19T12:52	10	149	0.1	149	149	461	0.4	460	461	24.1	57.2
2025-09-19T12:53	10	149	0.2	148	149	462	0.3	461	462	24.1	56.4
2025-09-19T12:54	10	148	0.1	148	149	463	0.8	461	465	24.1	56.2
2025-09-19T12:55	10	148	0.1	148	148	465	0.2	464	465	24.3	55.6
2025-09-19T12:56	10	148	0.1	148	148	464	1.3	462	466	24.3	56.1
2025-09-19T12:57	10	148	0.1	147	148	462	0.7	461	463	24.0	56.1
2025-09-19T12:58	10	147	0.1	147	148	463	0.5	463	465	24.1	56.1
2025-09-19T12:59	10	147	0.1	147	147	465	0.6	463	465	24.3	55.9
2025-09-19T13:00	10	147	0.1	147	147	466	0.4	465	467	24.5	56.3
2025-09-19T13:01	10	147	0.1	146	147	465	0.9	463	466	24.5	56.0
2025-09-19T13:02	10	146	0.2	146	146	462	0.8	460	463	24.2	56.0
2025-09-19T13:03	10	146	0.2	145	146	461	0.4	460	462	24.3	57.0
2025-09-19T13:04	10	145	0.1	145	146	461	0.7	459	462	24.2	55.6
2025-09-19T13:05	10	145	0.1	145	145	461	0.8	460	462	24.3	56.4
2025-09-19T13:06	10	145	0.1	145	145	461	0.8	460	462	24.3	55.1
2025-09-19T13:07	10	145	0.1	145	145	461	0.6	460	462	24.2	55.3
2025-09-19T13:08	10	145	0.1	145	145	463	0.5	462	464	24.5	55.4
2025-09-19T13:09	10	145	0.1	144	145	463	0.7	462	464	24.5	54.0
2025-09-19T13:10	10	145	0.1	144	145	464	1.0	463	466	24.5	54.5
2025-09-19T13:11	10	144	0.1	144	145	466	0.3	465	467	24.7	55.0
2025-09-19T13:12	10	144	0.1	144	145	465	0.5	464	466	24.7	53.8
2025-09-19T13:13	10	144	0.1	144	144	466	0.6	465	467	24.9	55.5
2025-09-19T13:14	10	144	0.1	144	144	466	1.3	464	468	25.1	54.2
2025-09-19T13:15	10	144	0.2	144	144	464	0.7	463	465	25.0	52.7
2025-09-19T13:16	10	144	0.1	143	144	464	0.5	463	465	24.8	53.2
2025-09-19T13:17	10	143	0.2	143	144	465	0.5	464	466	24.9	54.5
2025-09-19T13:18	10	143	0.1	143	143	466	0.4	465	467	24.9	54.4
2025-09-19T13:19	10	143	0.1	142	143	467	0.3	466	467	25.0	55.3
2025-09-19T13:20	10	143	0.1	142	143	467	0.3	466	468	25.1	53.5
2025-09-19T13:21	10	142	0.2	142	143	465	0.9	464	467	25.0	53.1
2025-09-19T13:22	10	142	0.1	142	142	465	0.2	464	465	25.0	53.1
2025-09-19T13:23	10	142	0.2	141	142	465	0.3	465	466	25.0	53.7
2025-09-19T13:24	10	141	0.2	141	142	465	1.1	464	467	25.1	54.2
2025-09-19T13:25	10	141	0.1	141	141	465	0.4	464	466	25.1	54.5
2025-09-19T13:26	10	141	0.2	140	141	465	0.6	463	466	25.3	54.8
2025-09-19T13:27	10	140	0.2	140	141	463	0.3	462	463	25.1	54.0
2025-09-19T13:28	10	140	0.2	139	140	461	0.8	459	462	25.0	54.0
2025-09-19T13:29	10	139	0.1	139	140	460	0.5	459	461	24.9	53.8
2025-09-19T13:30	10	139	0.2	139	140	462	0.4	461	463	24.8	53.5
2025-09-19T13:31	10	139	0.3	139	140	464	0.7	462	465	24.8	53.9
2025-09-19T13:32	10	139	0.3	138	140	462	0.7	461	464	24.8	53.8
2025-09-19T13:33	10	139	0.3	138	139	462	0.3	461	463	24.9	53.0
2025-09-19T13:34	10	138	0.2	138	139	463	0.6	462	464	25.0	53.2
2025-09-19T13:35	10	138	0.2	137	138	462	0.3	461	463	25.0	52.8
2025-09-19T13:36	10	137	0.3	137	139	463	0.7	462	464	25.0	53.3
2025-09-19T13:37	10	137	0.2	137	138	465	0.6	463	466	25.1	54.1
2025-09-19T13:38	10	137	0.2	136	137	465	0.5	464	466	25.4	53.5
2025-09-19T13:39	10	137	0.2	136	137	462	0.9	461	464	25.0	53.1
2025-09-19T13:40	10	136	0.2	136	137	461	0.6	460	463	24.9	53.1
2025-09-19T13:41	10	136	0.2	136	136	463	0.8	461	464	25.0	53.9
2025-09-19T13:42	10	135	0.2	135	136	462	0.5	461	463	25.1	54.3
2025-09-19T13:43	10	135	0.2	134	135	460	0.5	459	461	24.9	53.8
2025-09-19T13:44	10	135	0.1	134	135	461	1.3	459	463	24.9	53.7
2025-09-19T13:45	10	134	0.2	134	134	462	0.6	461	463	25.1	54.5
2025-09-19T13:46	10	134	0.1	134	134	462	0.6	461	463	25.2	53.5
2025-09-19T13:47	10	133	0.1	133	134	461	0.5	460	462	25.3	54.0
2025-09-19T13:48	10	133	0.1	133	133	461	0.6	461	463	25.3	53.6
2025-09-19T13:49	10	133	0.2	132	133	461	0.3	461	462	25.2	53.5
2025-09-19T13:50	10	132	0.2	132	133	459	0.8	458	460	25.1	54.4
2025-09-19T13:51	10	132	0.2	132	132	457	0.7	456	459	24.8	54.5
2025-09-19T13:52	10	132	0.1	131	132	460	0.9	459	462	24.8	55.8
2025-09-19T13:53	10	131	0.1	131	132	463	0.8	461	464	25.1	55.9
2025-09-19T13:54	10	131	0.1	131	131	464	0.5	463	465	25.2	55.8
2025-09-19T13:55	10	131	0.1	131	131	463	0.9	461	464	25.2	55.4
2025-09-19T13:56	10	131	0.2	130	131	460	0.9	458	462	25.0	55.2
2025-09-19T13:57	10	130	0.2	130	131	460	0.9	459	462	25.2	56.0
2025-09-19T13:58	10	130	0.1	130	130	462	0.6	460	463	25.3	55.3
2025-09-19T13:59	10	130	0.1	129	130	459	0.5	458	460	25.0	54.7
2025-09-19T14:00	10	129	0.2	129	129	459	0.3	458	460	24.9	55.0
2025-09-19T14:01	10	129	0.2	128	129	459	0.8	458	461	24.9	55.3
2025-09-19T14:02	10	128	0.1	128	129	462	0.6	460	463	25.1	55.7
2025-09-19T14:03	10	128	0.1	128	128	462	0.7	460	463	25.2	55.3
2025-09-19T14:04	10	128	0.1	127	128	459	0.5	459	461	25.2	54.8
2025-09-19T14:05	10	127	0.1	127	127	459	0.6	459	461	25.1	55.5
2025-09-19T14:06	10	127	0.2	127	127	461	0.5	460	461	25.3	56.0
2025-09-19T14:07	10	127	0.2	126	127	460	0.4	459	461	25.2	55.3
2025-09-19T14:08	10	126	0.1	126	126	459	0.5	458	460	25.1	55.6
2025-09-19T14:09	10	126	0.2	125	126	458	1.0	456	460	25.0	56.0
2025-09-19T14:10	10	125	0.3	124	125	456	0.5	455	457	24.9	56.5
2025-09-19T14:11	10	124	0.2	124	125	456	0.4	455	457	24.9	56.7
2025-09-19T14:12	10	124	0.2	123	124	455	0.4	455	456	24.9	56.5
2025-09-19T14:13	10	123	0.2	123	123	454	0.7	453	455	24.9	55.5
2025-09-19T14:14	10	122	0.2	122	123	455	0.6	453	456	24.9	55.8
2025-09-19T14:15	10	122	0.2	122	123	455	1.1	454	457	24.9	55.7
2025-09-19T14:16	10	122	0.2	121	122	457	0.5	456	458	24.9	55.3
2025-09-19T14:17	10	122	0.2	121	122	458	0.7	457	460	25.0	55.9
2025-09-19T14:18	10	121	0.2	121	122	459	0.6	458	460	25.0	55.3
2025-09-19T14:19	10	121	0.1	121	121	458	0.4	457	459	25.0	55.1
2025-09-19T14:20	10	121	0.2	120	121	457	0.4	456	458	25.0	55.3
2025-09-19T14:21	10	120	0.2	120	121	456	0.4	455	457	25.0	55.2
2025-09-19T14:22	10	120	0.2	119	120	457	0.8	456	459	25.1	55.8
2025-09-19T14:23	10	120	0.1	119	120	457	0.5	456	458	25.1	54.6
2025-09-19T14:24	10	119	0.1	119	120	458	0.4	457	459	25.1	54.6
2025-09-19T14:25	10	119	0.1	119	119	459	0.6	457	460	25.1	54.6
2025-09-19T14:26	10	119	0.1	118	119	458	0.3	458	459	25.1	54.7
2025-09-19T14:27	10	118	0.2	118	119	458	0.3	457	459	25.2	55.7
2025-09-19T14:28	10	118	0.2	117	118	458	0.9	456	459	25.4	56.8
2025-09-19T14:29	10	117	0.2	117	118	456	0.5	455	457	25.2	55.8
2025-09-19T14:30	10	117	0.2	116	117	456	0.5	455	457	25.0	55.2
2025-09-19T14:31	10	116	0.2	116	117	458	0.5	457	459	25.1	57.3
2025-09-19T14:32	10	116	0.1	116	116	458	0.5	457	458	25.2	55.5
2025-09-19T14:33	10	116	0.2	115	116	457	0.4	456	458	25.2	55.5
2025-09-19T14:34	10	115	0.1	115	116	457	0.5	456	457	25.1	55.0
2025-09-19T14:35	10	115	0.2	114	115	456	0.3	456	457	25.1	56.0
2025-09-19T14:36	10	114	0.2	114	114	455	0.8	454	457	25.0	55.7
2025-09-19T14:37	10	114	0.2	113	114	454	0.3	453	455	25.0	55.9
2025-09-19T14:38	10	113	0.2	112	113	454	0.4	454	455	25.1	55.6
2025-09-19T14:39	10	112	0.1	112	113	455	0.4	454	456	25.1	55.0
2025-09-19T14:40	10	112	0.2	112	112	457	0.4	456	458	25.2	55.5
2025-09-19T14:41	10	112	0.1	112	112	457	0.3	456	457	25.5	55.8
2025-09-19T14:42	10	111	0.2	111	112	457	0.4	456	458	25.6	55.1
2025-09-19T14:43	10	111	0.1	111	111	457	0.5	456	458	25.5	54.1
2025-09-19T14:44	10	111	0.2	110	111	458	0.4	456	458	25.5	55.3
2025-09-19T14:45	10	110	0.2	110	111	456	0.4	455	457	25.3	56.7
2025-09-19T14:46	10	110	0.2	109	110	455	0.2	455	455	25.3	57.1
2025-09-19T14:47	10	109	0.2	109	109	455	0.7	453	456	25.3	55.8
2025-09-19T14:48	10	109	0.2	108	109	454	0.5	453	455	25.1	56.2
2025-09-19T14:49	10	108	0.2	108	108	456	0.5	455	457	25.4	57.2
2025-09-19T14:50	10	107	0.2	107	108	455	0.5	454	456	25.5	56.8
2025-09-19T14:51	10	107	0.1	107	107	455	0.3	455	456	25.4	57.1
2025-09-19T14:52	10	107	0.2	106	107	454	0.9	453	455	25.1	56.4
2025-09-19T14:53	10	106	0.3	105	106	453	1.0	451	454	25.0	56.8
2025-09-19T14:54	10	105	0.2	105	106	451	0.4	450	452	25.0	57.3
2025-09-19T14:55	10	104	0.3	104	105	451	0.3	450	451	24.9	57.3
2025-09-19T14:56	10	104	0.2	103	104	452	0.9	450	453	25.0	57.1
2025-09-19T14:57	10	103	0.1	103	104	454	0.6	453	455	25.0	56.6
2025-09-19T14:58	10	103	0.2	103	104	454	0.5	454	455	25.1	56.8
2025-09-19T14:59	10	102	0.2	102	103	454	0.5	453	455	25.3	56.7
2025-09-19T15:00	10	102	0.1	102	102	452	0.6	451	453	25.3	56.7
2025-09-19T15:01	10	101	0.2	101	102	453	0.6	452	454	25.3	57.7
2025-09-19T15:02	10	101	0.2	101	101	452	0.4	452	453	25.3	56.6
2025-09-19T15:03	10	100	0.2	100	101	451	0.5	450	452	25.1	56.6
2025-09-19T15:04	10	100	0.2	100	100	451	0.2	450	451	25.1	57.1
2025-09-19T15:05	10	99	0.2	99	100	451	0.3	451	452	25.1	56.7
2025-09-19T15:06	10	99	0.2	98	99	452	0.3	451	453	25.1	56.8
2025-09-19T15:07	10	98	0.2	98	99	452	0.4	451	452	25.3	57.5
2025-09-19T15:08	10	98	0.1	98	98	452	0.3	451	452	25.3	56.7
2025-09-19T15:09	10	97	0.2	97	98	451	0.3	451	452	25.2	56.5
2025-09-19T15:10	10	97	0.2	97	97	451	0.3	450	452	25.2	56.1
2025-09-19T15:11	10	96	0.2	96	97	452	0.3	451	452	25.3	56.3
2025-09-19T15:12	10	96	0.2	96	96	452	0.3	451	453	25.4	55.7
2025-09-19T15:13	10	96	0.1	95	96	453	0.4	452	454	25.5	56.5
2025-09-19T15:14	10	95	0.1	95	95	453	0.4	452	453	25.5	56.7
2025-09-19T15:15	10	94	0.2	94	95	452	0.5	451	453	25.5	57.2
2025-09-19T15:16	10	94	0.2	93	94	452	0.3	451	452	25.5	56.2
2025-09-19T15:17	10	93	0.2	93	94	452	0.3	451	452	25.5	56.7
2025-09-19T15:18	10	93	0.2	92	93	452	0.2	451	452	25.6	56.4
2025-09-19T15:19	10	92	0.2	92	92	451	0.6	450	452	25.5	56.4
2025-09-19T15:20	10	91	0.2	91	92	451	0.3	450	452	25.5	55.6
2025-09-19T15:21	10	91	0.2	90	91	450	0.4	450	451	25.4	55.3
2025-09-19T15:22	10	90	0.2	90	91	450	0.2	449	450	25.4	55.8
2025-09-19T15:23	10	89	0.2	89	90	450	0.3	449	451	25.4	55.5
2025-09-19T15:24	10	89	0.2	89	89	451	0.3	450	451	25.4	56.4
2025-09-19T15:25	10	88	0.2	88	89	450	0.3	450	451	25.4	56.1
2025-09-19T15:26	10	88	0.2	87	88	451	0.3	450	451	25.4	56.3
2025-09-19T15:27	10	87	0.2	87	87	450	0.3	449	451	25.4	55.4
2025-09-19T15:28	10	87	0.2	86	87	450	0.3	449	450	25.5	55.3
2025-09-19T15:29	10	86	0.2	86	86	450	0.4	449	451	25.5	54.6
2025-09-19T15:30	10	86	0.2	85	86	450	0.2	450	451	25.5	54.3
2025-09-19T15:31	10	85	0.2	85	85	450	0.2	450	451	25.6	55.0
2025-09-19T15:32	10	84	0.2	84	85	450	0.3	450	451	25.6	55.1
2025-09-19T15:33	10	84	0.2	84	84	449	0.5	448	450	25.6	55.2
2025-09-19T15:34	10	83	0.2	83	84	448	0.2	448	449	25.6	55.0
2025-09-19T15:35	10	83	0.1	83	83	448	0.2	448	449	25.5	54.3
2025-09-19T15:36	10	83	0.1	82	83	448	0.2	448	449	25.6	54.2
2025-09-19T15:37	10	76	5.6	68	83	449	0.5	447	449	25.7	54.4
2025-09-19T15:38	10	79	2.6	73	82	449	0.4	448	450	25.6	54.4
2025-09-19T15:39	10	81	0.4	80	81	449	0.2	448	449	25.5	54.8
2025-09-19T15:40	10	80	0.2	79	81	449	0.2	449	449	25.6	54.6
2025-09-19T15:41	10	79	0.3	79	80	449	0.3	449	450	25.6	55.8
2025-09-19T15:42	10	79	0.2	78	79	449	0.4	448	450	25.6	55.5
2025-09-19T15:43	10	78	0.2	78	78	449	0.2	448	449	25.7	56.3
2025-09-19T15:44	10	78	0.2	77	78	448	0.5	447	449	25.7	56.5
2025-09-19T15:45	10	77	0.5	76	78	447	0.3	447	448	25.6	55.6
2025-09-19T15:46	10	75	0.3	74	75	447	0.3	446	447	25.6	55.0
2025-09-19T15:47	10	75	0.3	74	76	447	0.3	446	447	25.6	55.4
2025-09-19T15:48	10	75	0.3	75	76	447	0.2	446	447	25.7	55.8
2025-09-19T15:49	10	75	0.2	75	76	446	0.3	446	447	25.7	55.3
2025-09-19T15:50	10	70	5.5	61	76	446	0.3	445	447	25.7	55.5
2025-09-19T15:51	10	64	1.5	61	66	446	0.2	445	446	25.8	56.0
2025-09-19T15:52	10	63	3.4	54	68	446	0.4	444	446	25.8	56.6
2025-09-19T15:53	10	65	8.4	52	74	445	0.5	444	446	25.7	55.6
2025-09-19T15:54	10	72	1.2	70	74	445	0.2	445	446	25.6	55.3
2025-09-19T15:55	10	71	0.3	71	72	445	0.2	445	446	25.6	55.3
2025-09-19T15:56	10	70	0.2	70	71	445	0.2	445	446	25.6	56.1
2025-09-19T15:57	10	70	0.2	69	70	446	0.2	445	446	25.6	56.1
2025-09-19T15:58	10	69	0.3	68	69	445	0.3	444	445	25.6	56.9
2025-09-19T15:59	10	68	0.2	68	68	445	0.3	444	446	25.6	56.4
2025-09-19T16:00	10	67	0.2	67	68	445	0.3	444	446	25.6	55.4
2025-09-19T16:01	10	67	0.2	66	67	445	0.3	444	445	25.6	55.3
2025-09-19T16:02	10	66	0.2	66	67	444	0.3	443	445	25.5	54.8
2025-09-19T16:03	10	66	0.1	65	66	444	0.5	443	444	25.5	56.0
2025-09-19T16:04	10	65	0.2	64	66	443	0.3	442	444	25.5	58.0
2025-09-19T16:05	10	55	4.8	48	64	441	1.1	440	444	25.4	56.6
2025-09-19T16:06	10	64	0.9	61	65	441	0.5	440	443	25.4	56.3
2025-09-19T16:07	10	56	6.7	47	64	442	0.5	441	443	25.5	56.2
2025-09-19T16:08	10	57	5.5	47	63	442	0.3	441	442	25.4	57.2
2025-09-19T16:09	10	62	0.3	61	62	441	0.2	441	442	25.3	56.9
2025-09-19T16:10	10	61	0.3	60	61	441	0.2	440	441	25.3	56.2
2025-09-19T16:11	10	60	0.3	59	60	441	0.3	440	442	25.3	56.6
2025-09-19T16:12	10	59	0.2	59	59	441	0.2	440	441	25.3	56.1
2025-09-19T16:13	10	58	0.3	58	59	441	0.2	440	441	25.3	56.3
2025-09-19T16:14	10	58	0.2	57	58	440	0.2	440	441	25.3	56.3
2025-09-19T16:15	10	57	0.2	56	57	440	0.3	440	441	25.3	56.3
2025-09-19T16:16	10	56	0.2	56	57	440	0.2	440	441	25.3	56.8
2025-09-19T16:17	10	55	0.3	55	56	439	0.6	438	440	25.3	56.6
2025-09-19T16:18	10	55	0.2	54	55	438	0.3	438	439	25.3	56.8
2025-09-19T16:19	10	54	0.2	53	54	438	0.3	438	439	25.3	56.4
2025-09-19T16:20	10	53	0.2	53	54	438	0.3	437	439	25.3	56.3
2025-09-19T16:21	10	52	0.2	52	53	438	0.2	438	439	25.3	57.0
2025-09-19T16:22	10	52	0.3	51	52	437	0.5	436	438	25.3	57.4
2025-09-19T16:23	10	51	0.2	50	51	436	0.2	436	437	25.2	57.8
2025-09-19T16:24	10	50	0.2	50	51	436	0.2	436	437	25.2	57.3
2025-09-19T16:25	10	49	0.2	49	50	436	0.2	435	436	25.1	57.1
2025-09-19T16:26	10	49	0.2	48	49	436	0.2	435	436	25.2	56.8
2025-09-19T16:27	10	48	0.2	47	48	436	0.2	435	436	25.2	57.8
2025-09-19T16:28	10	47	0.3	47	48	436	0.2	435	437	25.2	57.8
2025-09-19T16:29	10	46	0.2	46	47	435	0.5	434	436	25.1	57.2
2025-09-19T16:30	10	46	0.2	45	46	435	0.2	434	435	25.0	57.1
2025-09-19T16:31	10	45	0.2	44	45	434	0.2	433	434	25.0	57.4
2025-09-19T16:32	10	44	0.2	43	44	434	0.3	433	434	25.0	57.4
2025-09-19T16:33	10	43	0.3	43	44	433	0.4	432	434	25.0	57.6
2025-09-19T16:34	10	42	0.2	42	43	432	0.4	432	433	24.9	57.4
2025-09-19T16:35	10	42	0.2	41	42	431	0.4	430	432	24.8	57.0
2025-09-19T16:36	10	41	0.2	40	41	431	0.2	430	431	24.8	57.4
2025-09-19T16:37	10	40	0.2	40	40	431	0.3	430	431	24.8	57.1
2025-09-19T16:38	10	39	0.2	39	40	430	0.3	430	431	24.7	57.1
2025-09-19T16:39	10	38	0.2	38	39	430	0.2	429	431	24.7	57.7
2025-09-19T16:40	10	38	0.2	37	38	430	0.3	429	430	24.7	57.9
2025-09-19T16:41	10	37	0.2	37	37	430	0.2	429	430	24.7	57.5
2025-09-19T16:42	10	36	0.2	36	37	429	0.3	429	430	24.7	57.7
2025-09-19T16:43	10	35	0.3	35	36	429	0.3	428	429	24.7	57.7
2025-09-19T16:44	10	35	0.2	34	35	428	0.2	428	429	24.6	57.8
2025-09-19T16:45	10	34	0.2	33	34	428	0.3	428	429	24.6	56.8
2025-09-19T16:46	10	33	0.2	33	34	428	0.2	427	428	24.7	55.7
2025-09-19T16:47	10	32	0.2	32	33	427	0.2	426	427	24.6	55.6
2025-09-19T16:48	10	32	0.2	31	32	427	0.2	426	427	24.6	56.2
2025-09-19T16:49	10	31	0.2	30	31	427	0.2	426	427	24.6	56.3
2025-09-19T16:50	10	30	0.2	30	30	426	0.2	426	427	24.6	56.3
2025-09-19T16:51	10	29	0.2	29	30	426	0.2	426	427	24.6	56.0
2025-09-19T16:52	10	29	0.3	28	29	426	0.2	425	426	24.6	56.7
2025-09-19T16:53	10	28	0.3	27	28	426	0.2	425	426	24.6	56.7
2025-09-19T16:54	10	26	0.5	25	27	425	0.2	425	426	24.7	56.4
2025-09-19T16:55	10	25	0.2	25	25	425	0.3	425	426	24.6	57.3
2025-09-19T16:56	10	25	0.2	25	26	425	0.2	424	425	24.6	57.2
2025-09-19T16:57	10	25	0.2	24	25	425	0.2	424	425	24.6	56.8
2025-09-19T16:58	10	24	0.2	24	24	424	0.2	424	425	24.6	56.7
2025-09-19T16:59	10	23	0.3	23	24	424	0.3	423	425	24.6	56.5
2025-09-19T17:00	10	22	0.3	22	23	423	0.2	423	424	24.6	57.0
2025-09-19T17:01	10	21	0.4	21	22	423	0.2	422	423	24.5	57.0
2025-09-19T17:02	10	20	0.8	18	21	422	0.4	421	423	24.5	57.4
2025-09-19T17:03	10	16	0.9	15	18	421	0.3	421	422	24.5	57.2
2025-09-19T17:04	10	16	0.6	15	17	421	0.3	420	421	24.5	57.7
2025-09-19T17:05	10	17	0.3	16	18	420	0.5	419	421	24.3	60.4
2025-09-19T17:06	10	17	0.4	16	18	419	0.3	418	420	24.1	61.7
2025-09-19T17:07	10	16	0.4	15	17	419	0.3	418	419	24.1	60.9
2025-09-19T17:08	10	15	0.4	14	15	418	0.3	418	419	24.1	60.5
2025-09-19T17:09	10	13	0.4	13	15	418	0.2	417	418	24.1	60.7
2025-09-19T17:10	10	12	0.4	11	13	417	0.2	417	418	24.1	60.8
2025-09-19T17:11	10	11	0.3	11	12	417	0.2	417	418	24.0	60.8
2025-09-19T17:12	10	10	0.3	10	11	416	0.2	416	417	24.0	61.6
2025-09-19T17:13	10	9	0.2	9	10	416	0.2	415	417	24.0	62.1
2025-09-19T17:14	10	9	0.2	8	9	416	0.2	415	416	24.0	62.3
2025-09-19T17:15	10	8	0.2	8	9	415	0.2	415	416	23.9	62.9
2025-09-19T17:16	10	8	0.2	7	8	414	0.2	414	415	23.7	64.4
2025-09-19T17:17	10	7	0.2	7	7	414	0.3	413	414	23.6	64.8
2025-09-19T17:18	10	6	0.2	6	7	413	0.3	412	414	23.5	65.3
2025-09-19T17:19	10	6	0.2	6	6	412	0.2	412	413	23.4	66.3
2025-09-19T17:20	10	6	0.2	5	6	412	0.2	411	412	23.3	66.9
2025-09-19T17:21	10	5	0.1	5	5	412	0.3	411	412	23.2	66.9
2025-09-19T17:22	10	5	0.1	4	5	411	0.2	411	412	23.2	66.6
2025-09-19T17:23	10	4	0.2	4	4	411	0.2	411	412	23.2	66.7
2025-09-19T17:24	10	4	0.2	3	4	411	0.2	411	412	23.2	66.3
2025-09-19T17:25	10	3	0.2	3	3	411	0.2	411	412	23.2	66.6
2025-09-19T17:26	10	2	0.2	2	3	411	0.3	411	412	23.1	67.4
2025-09-19T17:27	10	2	0.1	2	2	410	0.2	410	411	23.0	67.4
2025-09-19T17:28	10	2	0.1	1	2	410	0.2	409	410	23.0	67.3
2025-09-19T17:29	10	1	0.1	1	2	410	0.3	409	410	23.0	67.4
2025-09-19T17:30	10	1	0.1	1	2	409	0.3	409	410	23.0	67.3
2025-09-19T17:31	10	1	0.1	1	1	408	0.3	408	409	22.9	67.6
2025-09-19T17:32	10	1	0.1	1	1	409	0.4	408	410	23.0	67.3
2025-09-19T17:33	10	1	0.1	1	1	409	0.3	408	410	23.0	66.7
2025-09-19T17:34	10	1	0.1	1	1	409	0.3	408	410	23.0	66.4
2025-09-19T17:35	10	1	0.1	1	1	410	0.2	409	410	23.1	66.3
2025-09-19T17:36	10	1	0.1	1	1	409	0.2	409	410	23.0	66.4
2025-09-19T17:37	10	1	0.1	1	1	409	0.2	408	409	23.0	66.6
2025-09-19T17:38	10	1	0.1	1	1	408	0.3	407	409	22.9	66.8
2025-09-19T17:39	10	1	0.1	0	1	407	0.3	406	408	22.8	67.4
2025-09-19T17:40	10	1	0.1	0	1	407	0.2	406	407	22.8	67.4
2025-09-19T17:41	10	0	0.1	0	1	406	0.2	406	407	22.7	67.6
2025-09-19T17:42	10	0	0.1	0	1	406	0.3	406	407	22.7	67.3
2025-09-19T17:43	10	0	0.1	0	0	407	0.3	406	407	22.8	66.4
2025-09-19T17:44	10	0	0.0	0	0	406	0.2	406	407	22.8	66.1
2025-09-19T17:45	10	0	0.1	0	0	406	0.2	406	407	22.8	65.9
2025-09-19T17:46	10	0	0.0	0	0	406	0.2	406	407	22.7	66.6
2025-09-19T17:47	10	0	0.1	0	0	406	0.3	406	407	22.6	67.2
2025-09-19T17:48	10	0	0.1	0	1	406	0.2	406	407	22.5	67.2
2025-09-19T17:49	10	0	0.1	0	1	406	0.3	405	407	22.5	68.0
2025-09-19T17:50	10	0	0.2	0	1	406	0.3	406	407	22.4	68.0
2025-09-19T17:51	10	0	0.2	0	1	406	0.3	406	407	22.5	66.9
2025-09-19T17:52	10	0	0.2	0	1	406	0.3	405	407	22.4	67.8
2025-09-19T17:53	10	0	0.1	0	0	406	0.3	406	407	22.5	65.9
2025-09-19T17:54	10	0	0.1	0	0	406	0.3	405	407	22.5	66.3
2025-09-19T17:55	10	0	0.1	0	0	406	0.5	405	407	22.5	65.7
2025-09-19T17:56	10	0	0.1	0	0	406	0.2	406	407	22.6	65.3
2025-09-19T17:57	10	0	0.1	0	0	406	0.3	406	407	22.5	66.0
2025-09-19T17:58	10	0	0.1	0	0	406	0.3	406	407	22.3	67.6
2025-09-19T17:59	10	0	0.1	0	0	406	0.3	405	407	22.2	67.6
2025-09-19T18:00	10	0	0.1	0	0	406	0.2	406	407	22.3	66.8
2025-09-19T18:01	10	0	0.1	0	0	406	0.2	405	406	22.2	67.1
2025-09-19T18:02	10	0	0.1	0	0	405	0.3	405	406	22.1	67.4
2025-09-19T18:03	10	0	0.1	0	0	404	0.3	404	405	22.1	67.4
2025-09-19T18:04	10	0	0.1	0	1	403	0.3	403	404	22.1	67.2
2025-09-19T18:05	10	0	0.1	0	1	402	0.6	401	403	21.6	71.1
2025-09-19T18:06	10	0	0.1	0	1	401	0.2	401	402	21.1	74.3
2025-09-19T18:07	10	0	0.1	0	1	401	0.3	400	402	21.0	74.4
2025-09-19T18:08	10	0	0.1	0	1	401	0.5	400	402	20.9	74.5
2025-09-19T18:09	10	0	0.1	0	0	401	0.3	400	401	21.2	72.5
2025-09-19T18:10	10	0	0.1	0	0	400	0.4	399	401	21.6	69.3
2025-09-19T18:11	10	0	0.1	0	1	399	0.8	397	400	21.4	72.1
2025-09-19T18:12	10	0	0.1	0	1	399	0.6	398	400	20.3	80.0
2025-09-19T18:13	10	0	0.1	0	0	400	0.2	400	401	20.3	79.3
2025-09-19T18:14	10	0	0.1	0	0	400	0.3	399	400	20.5	77.2
2025-09-19T18:15	10	0	0.1	0	0	400	0.3	400	401	20.9	73.3
2025-09-19T18:16	10	0	0.1	0	0	399	0.2	399	400	21.1	72.3
2025-09-19T18:17	10	0	0.1	0	0	399	0.2	398	399	21.0	73.8
2025-09-19T18:18	10	0	0.1	0	0	399	0.2	398	399	21.0	74.5
2025-09-19T18:19	10	0	0.2	0	1	398	0.3	397	398	20.8	75.4
2025-09-19T18:20	10	0	0.2	0	0	398	0.4	397	399	20.4	78.0
2025-09-19T18:21	10	0	0.2	0	1	399	0.4	398	400	20.3	78.6
2025-09-19T18:22	10	0	0.1	0	1	399	0.2	398	399	20.3	78.4
2025-09-19T18:23	10	0	0.1	0	0	398	0.2	398	399	20.3	78.5
2025-09-19T18:24	10	0	0.1	0	0	398	0.3	397	399	20.4	78.1
2025-09-19T18:25	10									20.2	76.6
2025-09-19T18:36	10	0	0.1	0	0	398	0.4	397	398	20.3	77.2
2025-09-19T18:37	10	0	0.1	0	1	398	0.3	397	398	20.3	77.6
2025-09-19T18:38	10	0	0.1	0	1	398	0.3	397	398	20.2	77.9
2025-09-19T18:39	10	0	0.1	0	1	398	0.6	397	399	20.1	78.0
2025-09-19T18:40	10	0	0.1	0	0	399	0.2	398	399	20.6	74.2
2025-09-19T18:41	10	0	0.1	0	0	398	0.2	398	399	20.4	76.4
2025-09-19T18:42	10	0	0.1	0	0	399	0.2	398	399	20.2	76.9
2025-09-19T18:43	10	0	0.1	0	0	398	0.5	397	399	20.4	75.4
2025-09-19T18:44	10	0	0.1	0	0	398	0.6	397	399	20.7	73.2
2025-09-19T18:45	10	0	0.1	0	0	398	0.2	397	399	20.6	73.5
2025-09-19T18:46	10	0	0.0	0	0	397	0.2	397	398	20.6	73.3
2025-09-19T18:47	10	0	0.1	0	0	397	0.3	396	397	20.8	72.9
2025-09-19T18:48	10	0	0.1	0	1	396	0.4	395	397	20.7	73.8
2025-09-19T18:49	10	0	0.0	0	0	396	0.3	396	397	20.5	74.4
2025-09-19T18:50	10	0	0.1	0	1	396	0.2	395	396	20.5	74.5
2025-09-19T18:51	10	0	0.1	0	1	396	0.3	395	396	20.5	74.7
2025-09-19T18:52	10	0	0.1	0	1	396	0.2	396	396	20.5	74.7
2025-09-19T18:53	10	0	0.2	0	1	395	0.3	395	396	20.5	74.5
2025-09-19T18:54	10	0	0.2	-1	1	395	0.3	395	396	20.4	75.0
2025-09-19T18:55	10	0	0.1	0	0	395	0.3	395	396	20.4	75.1
2025-09-19T18:56	10	0	0.2	0	0	395	0.4	395	396	20.5	75.1
2025-09-19T18:57	10	0	0.1	0	0	395	0.3	394	396	20.4	75.2
2025-09-19T18:58	10	0	0.1	0	1	395	0.3	394	395	20.1	77.2
2025-09-19T18:59	10	0	0.1	0	0	395	0.3	395	396	19.9	78.6
2025-09-19T19:00	10	0	0.1	0	0	395	0.2	395	396	19.9	78.7
2025-09-19T19:01	10	0	0.1	0	0	396	0.5	395	397	19.9	79.2
2025-09-19T19:02	10	0	0.1	0	0	396	0.2	396	397	20.0	78.6
2025-09-19T19:03	10	0	0.1	0	0	397	0.4	396	398	20.0	78.5
2025-09-19T19:04	10	0	0.0	0	0	397	0.3	397	398	19.7	79.3
2025-09-19T19:05	10	0	0.1	0	1	397	0.3	397	398	19.7	79.4
2025-09-19T19:06	10	0	0.1	0	0	398	0.3	397	398	19.8	78.2
2025-09-19T19:07	10	0	0.1	0	0	398	0.5	397	399	19.8	77.6
2025-09-19T19:08	10	0	0.1	0	0	398	0.4	397	399	19.7	77.9
2025-09-19T19:09	10	0	0.1	0	0	398	0.4	397	399	19.7	77.4
2025-09-19T19:10	10	0	0.1	0	1	397	0.4	396	398	19.5	78.4
2025-09-19T19:11	10	0	0.1	0	1	397	0.3	396	397	19.6	77.8
2025-09-19T19:12	10	0	0.1	0	0	396	0.2	396	397	19.6	77.6
2025-09-19T19:13	10	0	0.1	0	1	396	0.2	395	396	19.5	77.8
2025-09-19T19:14	10	0	0.1	0	0	395	0.2	395	396	19.5	78.1
2025-09-19T19:15	10	0	0.1	0	0	395	0.3	394	396	19.6	77.7
2025-09-19T19:16	10	0	0.1	0	0	395	0.4	395	396	19.6	77.1
2025-09-19T19:17	10	0	0.1	0	1	396	0.3	395	396	19.6	77.4
2025-09-19T19:18	10	0	0.1	0	1	395	0.4	394	396	19.4	78.6
2025-09-19T19:19	10	0	0.1	0	1	394	0.3	393	395	19.2	80.0
2025-09-19T19:20	10	0	0.1	0	1	394	0.2	393	395	19.1	80.7
2025-09-19T19:21	10	0	0.1	0	1	394	0.2	393	394	19.1	80.6
2025-09-19T19:22	10	0	0.1	0	1	394	0.2	393	394	19.1	80.6
2025-09-19T19:23	10	0	0.1	0	0	394	0.3	393	394	19.0	80.7
2025-09-19T19:24	10	0	0.1	0	0	393	0.2	392	394	19.0	81.4
2025-09-19T19:25	10	0	0.1	0	0	393	0.3	392	394	18.9	81.9
2025-09-19T19:26	10	0	0.1	0	0	393	0.2	392	393	18.9	81.6
2025-09-19T19:27	10	0	0.1	0	0	392	0.2	392	393	18.9	81.5
2025-09-19T19:28	10	0	0.1	0	0	392	0.2	392	393	18.9	81.6
2025-09-19T19:29	10	0	0.1	0	0	392	0.2	392	392	18.8	82.3
2025-09-19T19:30	10	0	0.1	0	0	391	0.2	391	392	18.7	83.5
2025-09-19T19:31	10	0	0.1	0	0	391	0.2	391	392	18.5	84.8
2025-09-19T19:32	10	0	0.1	0	0	391	0.2	390	391	18.4	85.0
2025-09-19T19:33	10	0	0.1	0	0	391	0.3	390	392	18.5	84.6
2025-09-19T19:34	10	0	0.1	0	0	391	0.2	390	391	18.5	83.7
2025-09-19T19:35	10	0	0.1	0	0	391	0.2	390	391	18.6	83.8
2025-09-19T19:36	10	0	0.1	0	0	391	0.3	390	392	18.7	82.9
2025-09-19T19:37	10	0	0.1	0	0	390	0.3	389	391	18.7	83.1
2025-09-19T19:38	10	0	0.1	0	0	389	0.3	388	390	18.6	84.3
2025-09-19T19:39	10	0	0.0	0	0	389	0.2	389	390	18.4	85.5
2025-09-19T19:40	10	0	0.1	0	0	389	0.3	388	389	18.4	84.9
2025-09-19T19:41	10	0	0.1	0	0	389	0.3	389	390	18.5	83.3
2025-09-19T19:42	10	0	0.1	0	0	389	0.3	389	390	18.6	82.9
2025-09-19T19:43	10	0	0.1	0	0	389	0.3	388	390	18.5	82.8
2025-09-19T19:44	10	0	0.1	0	0	390	0.3	389	391	18.5	82.3
2025-09-19T19:45	10	0	0.1	0	0	390	0.3	390	391	18.5	82.9
2025-09-19T19:46	10	0	0.1	0	1	391	0.2	390	391	18.5	83.4
2025-09-19T19:47	10	0	0.1	0	1	391	0.2	390	391	18.5	82.5
2025-09-19T19:48	10	0	0.1	0	1	391	0.2	390	391	18.5	82.3
2025-09-19T19:49	10	0	0.1	0	1	390	0.2	390	391	18.5	82.3
2025-09-19T19:50	10	0	0.1	0	1	390	0.3	390	391	18.5	82.5
2025-09-19T19:51	10	0	0.1	0	1	390	0.4	389	391	18.4	82.5
2025-09-19T19:52	10	0	0.1	0	0	389	0.3	389	390	18.4	82.6
2025-09-19T19:53	10	0	0.2	0	1	389	0.3	388	389	18.3	82.8
2025-09-19T19:54	10	0	0.1	0	0	388	0.2	388	389	18.3	82.5
2025-09-19T19:55	10	0	0.1	0	0	388	0.2	388	389	18.3	82.5
2025-09-19T19:56	10	0	0.1	0	0	388	0.3	388	389	18.3	81.1
2025-09-19T19:57	10	0	0.0	0	0	389	0.2	388	389	18.3	82.5
2025-09-19T19:58	10	0	0.0	0	0	388	0.2	388	389	18.3	82.5
2025-09-19T19:59	10	0	0.0	0	0	388	0.2	387	389	18.3	81.1
2025-09-19T20:00	10	0	0.0	0	0	388	0.2	387	388	18.3	82.5
2025-09-19T20:01	10	0	0.0	0	0	388	0.3	387	388	18.3	82.5
2025-09-19T20:02	10	0	0.0	0	0	388	0.2	387	388	18.3	82.5
2025-09-19T20:03	10	0	0.0	0	0	387	0.3	387	388	18.3	81.8
2025-09-19T20:04	10	0	0.0	0	0	387	0.2	386	387	18.3	81.7
2025-09-19T20:05	10	0	0.1	0	0	386	0.4	386	387	18.2	82.8
2025-09-19T20:06	10	0	0.1	0	0	386	0.2	386	387	18.0	83.8
2025-09-19T20:07	10	0	0.1	0	0	387	0.3	386	388	18.0	83.8
2025-09-19T20:08	10	0	0.1	0	0	388	0.5	387	389	18.1	83.1
2025-09-19T20:09	10	0	0.1	0	0	389	0.3	388	390	18.1	82.6
2025-09-19T20:10	10	0	0.1	0	0	389	0.3	388	390	18.1	82.5
2025-09-19T20:11	10	0	0.1	0	0	390	0.3	389	390	18.1	82.3
2025-09-19T20:12	10	0	0.1	0	0	390	0.2	389	390	18.2	82.0
2025-09-19T20:13	10	0	0.0	0	0	389	0.2	389	390	18.2	82.3
2025-09-19T20:14	10	0	0.0	0	0	389	0.3	388	389	18.2	81.9
2025-09-19T20:15	10	0	0.1	0	0	388	0.2	388	389	18.3	81.5
2025-09-19T20:16	10	0	0.1	0	0	388	0.2	387	388	18.3	81.2
2025-09-19T20:17	10	0	0.1	0	0	388	0.2	387	388	18.3	81.4
2025-09-19T20:18	10	0	0.1	0	0	387	0.3	387	388	18.3	81.5
2025-09-19T20:19	10	0	0.1	0	0	387	0.2	386	387	18.2	81.8
2025-09-19T20:20	10	0	0.1	0	0	387	0.2	386	387	18.2	81.7
2025-09-19T20:21	10	0	0.1	0	0	386	0.3	385	387	18.2	81.8
2025-09-19T20:22	10	0	0.1	0	0	386	0.2	385	386	18.1	82.0
2025-09-19T20:23	10	0	0.1	0	0	385	0.3	384	386	18.0	82.3
2025-09-19T20:24	10	0	0.1	0	0	385	0.2	385	386	18.0	82.3
2025-09-19T20:25	10	0	0.1	0	0	385	0.2	385	386	18.0	81.6
2025-09-19T20:26	10	0	0.1	0	0	386	0.3	385	386	18.1	81.3
2025-09-19T20:27	10	0	0.1	0	0	386	0.3	386	387	18.1	81.2
2025-09-19T20:28	10	0	0.1	0	0	386	0.2	386	387	18.1	81.2
2025-09-19T20:29	10	0	0.1	0	0	387	0.3	386	387	18.0	81.9
2025-09-19T20:30	10	0	0.1	0	0	386	0.2	386	387	17.9	82.1
2025-09-19T20:31	10	0	0.1	0	0	387	0.2	386	387	17.9	82.2
2025-09-19T20:32	10	0	0.1	0	0	387	0.3	386	387	17.9	82.3
2025-09-19T20:33	10	0	0.1	0	0	386	0.3	386	387	17.7	83.2
2025-09-19T20:34	10	0	0.1	0	0	387	0.4	386	388	17.8	83.2
2025-09-19T20:35	10	0	0.1	0	0	387	0.3	386	388	17.8	82.7
2025-09-19T20:36	10	0	0.0	0	0	387	0.2	387	388	17.8	82.8
2025-09-19T20:37	10	0	0.1	0	0	387	0.3	386	387	17.6	83.5
2025-09-19T20:38	10	0	0.1	0	0	387	0.2	387	388	17.8	82.8
2025-09-19T20:39	10	0	0.1	0	0	387	0.4	386	388	18.0	82.2
2025-09-19T20:40	10	0	0.1	0	0	387	0.2	387	388	17.9	82.3
2025-09-19T20:41	10	0	0.1	0	0	388	0.5	387	389	18.0	82.0
2025-09-19T20:42	10	0	0.1	0	0	389	0.4	388	390	18.0	82.1
2025-09-19T20:43	10	0	0.0	0	0	390	0.4	389	391	17.9	82.3
2025-09-19T20:44	10	0	0.0	0	0	390	0.2	390	391	17.9	82.4
2025-09-19T20:45	10	0	0.0	0	0	390	0.2	390	391	17.9	82.5
2025-09-19T20:46	10	0	0.1	0	1	390	0.2	389	390	17.8	82.9
2025-09-19T20:47	10	0	0.1	0	0	389	0.3	389	390	17.7	83.5
2025-09-19T20:48	10	0	0.1	0	1	388	0.3	387	389	17.6	84.1
2025-09-19T20:49	10	0	0.1	0	0	389	0.4	388	390	17.5	84.3
2025-09-19T20:50	10	0	0.1	0	1	390	0.5	389	390	17.8	83.4
2025-09-19T20:51	10	0	0.1	0	1	390	0.2	389	390	17.9	82.6
2025-09-19T20:52	10	0	0.2	0	1	389	0.2	389	390	17.9	82.9
2025-09-19T20:53	10	0	0.1	0	1	389	0.3	389	390	17.8	83.3
2025-09-19T20:54	10	0	0.1	0	0	389	0.3	388	390	17.6	84.4
2025-09-19T20:55	10	0	0.1	0	1	390	0.4	389	391	17.7	84.3
2025-09-19T20:56	10	0	0.1	0	1	391	0.3	390	392	17.8	83.8
2025-09-19T20:57	10	0	0.2	0	1	391	0.4	391	392	17.9	83.4
2025-09-19T20:58	10	0	0.1	0	0	391	0.3	391	392	17.9	83.3
2025-09-19T20:59	10	0	0.1	0	1	391	0.5	390	392	17.8	83.6
2025-09-19T21:00	10	0	0.1	0	1	390	0.2	390	391	17.8	83.5
2025-09-19T21:01	10	0	0.2	0	1	391	0.2	390	391	17.9	82.9
2025-09-19T21:02	10	0	0.1	0	0	391	0.2	390	391	17.8	82.9
2025-09-19T21:03	10	0	0.1	0	0	390	0.3	389	391	17.7	83.4
2025-09-19T21:04	10	0	0.1	0	1	389	0.3	388	390	17.6	83.9
2025-09-19T21:05	10	0	0.1	0	1	389	0.3	388	390	17.6	84.0
2025-09-19T21:06	10	0	0.1	0	1	389	0.2	388	389	17.6	84.1
2025-09-19T21:07	10	0	0.1	0	1	388	0.2	388	389	17.6	83.8
2025-09-19T21:08	10	0	0.1	0	0	388	0.2	388	389	17.6	83.7
2025-09-19T21:09	10	0	0.1	0	0	387	0.4	387	388	17.5	83.9
2025-09-19T21:10	10	0	0.1	0	0	386	0.3	386	387	17.4	84.5
2025-09-19T21:11	10	0	0.1	0	0	386	0.2	385	386	17.3	85.2
2025-09-19T21:12	10	0	0.1	0	0	386	0.3	386	387	17.4	85.4
2025-09-19T21:13	10	0	0.1	0	0	386	0.2	386	387	17.5	84.9
2025-09-19T21:14	10	0	0.1	0	0	386	0.3	386	387	17.5	84.5
2025-09-19T21:15	10	0	0.0	0	0	387	0.3	386	387	17.5	84.4
2025-09-19T21:16	10	0	0.1	0	0	387	0.3	386	387	17.5	84.3
2025-09-19T21:17	10	0	0.0	0	0	386	0.2	386	387	17.5	84.3
2025-09-19T21:18	10	0	0.1	0	0	386	0.2	386	387	17.4	84.6
2025-09-19T21:19	10	0	0.0	0	0	386	0.2	386	387	17.4	84.8
2025-09-19T21:20	10	0	0.1	0	0	385	0.2	385	386	17.4	84.7
2025-09-19T21:21	10	0	0.1	0	0	385	0.4	385	386	17.5	84.6
2025-09-19T21:22	10	0	0.0	0	0	386	0.2	385	386	17.5	84.5
2025-09-19T21:23	10	0	0.0	0	0	386	0.3	385	386	17.6	84.4
2025-09-19T21:24	10	0	0.0	0	0	386	0.4	385	386	17.5	84.7
2025-09-19T21:25	10	0	0.0	0	0	385	0.3	384	386	17.5	85.1
2025-09-19T21:26	10	0	0.1	0	0	385	0.2	384	385	17.3	85.8
2025-09-19T21:27	10	0	0.1	0	0	385	0.2	385	386	17.3	86.0
2025-09-19T21:28	10	0	0.1	0	0	385	0.3	385	386	17.2	86.3
2025-09-19T21:29	10	0	0.1	0	0	385	0.4	385	386	17.2	86.4
2025-09-19T21:30	10	0	0.1	0	0	385	0.2	385	386	17.1	86.8
2025-09-19T21:31	10	0	0.1	0	0	385	0.2	384	385	17.0	87.1
2025-09-19T21:32	10	0	0.1	0	0	385	0.3	384	385	17.0	87.4
2025-09-19T21:33	10	0	0.1	0	0	385	0.3	384	385	17.0	87.6
2025-09-19T21:34	10	0	0.1	0	0	384	0.3	384	385	16.9	87.6
2025-09-19T21:35	10	0	0.1	0	0	385	0.2	384	385	17.0	87.7
2025-09-19T21:36	10	0	0.1	0	0	385	0.2	384	385	17.0	87.5
2025-09-19T21:37	10	0	0.1	0	0	384	0.2	384	385	17.0	87.3
2025-09-19T21:38	10	0	0.1	0	0	383	0.3	383	384	16.9	87.6
2025-09-19T21:39	10	0	0.1	0	0	383	0.2	383	384	16.9	87.6
2025-09-19T21:40	10	0	0.1	0	0	383	0.2	382	383	16.8	87.8
2025-09-19T21:41	10	0	0.1	0	0	383	0.2	382	383	16.8	88.0
2025-09-19T21:42	10	0	0.1	0	0	383	0.3	382	383	16.9	88.0
2025-09-19T21:43	10	0	0.1	0	0	383	0.3	382	383	16.9	87.9
2025-09-19T21:44	10	0	0.1	0	0	383	0.3	382	384	17.0	87.7
2025-09-19T21:45	10	0	0.1	0	0	384	0.3	383	385	17.1	87.3
2025-09-19T21:46	10	0	0.1	0	0	384	0.4	383	385	17.2	87.0
2025-09-19T21:47	10	0	0.1	0	0	385	0.2	385	386	17.3	86.6
2025-09-19T21:48	10	0	0.1	0	0	386	0.3	385	386	17.3	86.7
2025-09-19T21:49	10	0	0.1	0	0	386	0.3	385	387	17.2	86.8
2025-09-19T21:50	10	0	0.1	0	0	386	0.4	385	386	17.2	87.0
2025-09-19T21:51	10	0	0.1	0	0	385	0.2	385	386	17.1	87.2
2025-09-19T21:52	10	0	0.1	0	0	385	0.2	385	386	17.2	87.1
2025-09-19T21:53	10	0	0.1	0	0	385	0.2	385	385	17.2	87.1
2025-09-19T21:54	10	0	0.1	0	1	385	0.2	384	385	17.1	87.3
2025-09-19T21:55	10	0	0.1	0	0	384	0.3	384	385	17.1	87.4
2025-09-19T21:56	10	0	0.1	0	0	384	0.2	384	385	17.0	87.6
2025-09-19T21:57	10	0	0.1	0	0	384	0.3	383	384	17.0	87.8
2025-09-19T21:58	10	0	0.1	0	0	384	0.2	384	385	16.9	88.1
2025-09-19T21:59	10	0	0.1	0	0	384	0.2	384	385	16.9	88.2
2025-09-19T22:00	10	0	0.1	0	0	385	0.3	384	385	17.0	88.0
2025-09-19T22:01	10	0	0.1	0	0	385	0.3	384	386	17.1	87.6
2025-09-19T22:02	10	0	0.1	0	0	385	0.2	385	386	17.2	86.9
2025-09-19T22:03	10	0	0.1	0	0	386	0.3	385	387	17.3	86.6
2025-09-19T22:04	10	0	0.1	0	0	386	0.2	386	387	17.3	86.4
2025-09-19T22:05	10	0	0.1	0	0	386	0.2	386	387	17.3	86.3
2025-09-19T22:06	10	0	0.1	0	0	386	0.2	386	386	17.3	86.3
2025-09-19T22:07	10	0	0.1	0	0	386	0.2	386	387	17.3	86.4
2025-09-19T22:08	10	0	0.1	0	0	386	0.3	385	386	17.3	86.4
2025-09-19T22:09	10	0	0.1	0	0	385	0.2	385	386	17.3	86.4
2025-09-19T22:10	10	0	0.0	0	0	385	0.3	385	386	17.3	86.5
2025-09-19T22:11	10	0	0.1	0	0	386	0.3	385	386	17.3	86.3
2025-09-19T22:12	10	0	0.1	0	0	387	0.4	386	388	17.4	85.9
2025-09-19T22:13	10	0	0.1	0	0	388	0.2	387	388	17.5	85.2
2025-09-19T22:14	10	0	0.1	0	0	389	0.6	388	390	17.6	84.6
2025-09-19T22:15	10	0	0.1	0	0	390	0.3	389	390	18.0	82.9
2025-09-19T22:16	10	0	0.1	0	0	389	0.4	388	390	17.9	82.9
2025-09-19T22:17	10	0	0.1	0	0	389	0.5	388	390	17.7	83.6
2025-09-19T22:18	10	0	0.1	0	0	389	0.4	388	389	17.8	83.5
2025-09-19T22:19	10	0	0.1	0	0	387	0.5	386	388	17.6	84.1
2025-09-19T22:20	10	0	0.1	0	1	387	0.4	386	387	17.5	84.6
2025-09-19T22:21	10	0	0.1	0	0	386	0.4	385	387	17.5	84.8
2025-09-19T22:22	10	0	0.1	0	0	385	0.4	384	386	17.4	85.2
2025-09-19T22:23	10	0	0.1	0	0	385	0.2	384	385	17.2	85.8
2025-09-19T22:24	10	0	0.0	0	0	384	0.4	384	385	17.1	86.4
2025-09-19T22:25	10	0	0.1	0	0	384	0.2	384	385	17.2	86.2
2025-09-19T22:26	10	0	0.1	0	0	384	0.4	383	385	17.3	85.8
2025-09-19T22:27	10	0	0.1	0	0	384	0.2	383	384	17.3	85.9
2025-09-19T22:28	10	0	0.0	0	0	383	0.3	383	384	17.3	86.1
2025-09-19T22:29	10	0	0.1	0	0	382	0.4	382	383	17.2	86.4
2025-09-19T22:30	10	0	0.1	0	0	383	0.2	382	383	16.9	87.5
2025-09-19T22:31	10	0	0.1	0	0	383	0.4	382	383	16.9	87.8
2025-09-19T22:32	10	0	0.1	0	0	383	0.3	382	383	17.0	87.6
2025-09-19T22:33	10	0	0.1	0	0	382	0.3	382	383	16.9	87.9
2025-09-19T22:34	10	0	0.1	0	0	382	0.2	382	383	16.9	88.0
2025-09-19T22:35	10	0	0.1	0	0	383	0.4	382	383	16.9	88.3
2025-09-19T22:36	10	0	0.1	0	0	383	0.3	383	384	16.9	88.4
2025-09-19T22:37	10	0	0.1	0	0	383	0.2	382	384	16.9	88.5
2025-09-19T22:38	10	0	0.1	0	0	383	0.2	382	383	16.8	88.8
2025-09-19T22:39	10	0	0.1	0	0	383	0.2	382	383	16.7	89.2
2025-09-19T22:40	10	0	0.1	0	0	383	0.2	382	383	16.6	89.4
2025-09-19T22:41	10	0	0.1	0	0	383	0.2	382	383	16.6	89.6
2025-09-19T22:42	10	0	0.1	0	0	383	0.2	382	383	16.5	89.8
2025-09-19T22:43	10	0	0.1	0	0	382	0.2	381	383	16.5	90.0
2025-09-19T22:44	10	0	0.0	0	0	382	0.2	381	383	16.5	90.2
2025-09-19T22:45	10	0	0.1	0	0	382	0.2	381	382	16.5	90.3
2025-09-19T22:46	10	0	0.1	0	0	382	0.3	381	383	16.4	90.5
2025-09-19T22:47	10	0	0.1	0	0	382	0.3	381	383	16.3	90.8
2025-09-19T22:48	10	0	0.0	0	0	382	0.3	382	383	16.3	91.1
2025-09-19T22:49	10	0	0.1	0	0	382	0.2	382	383	16.3	91.2
2025-09-19T22:50	10	0	0.1	0	0	382	0.3	381	382	16.3	91.1
2025-09-19T22:51	10	0	0.1	0	0	381	0.3	381	382	16.3	91.1
2025-09-19T22:52	10	0	0.1	0	0	381	0.3	381	382	16.3	91.1
2025-09-19T22:53	10	0	0.1	0	0	382	0.3	381	382	16.3	91.0
2025-09-19T22:54	10	0	0.1	0	0	382	0.3	382	383	16.4	91.0
2025-09-19T22:55	10	0	0.1	0	0	382	0.3	382	383	16.3	90.9
2025-09-19T22:56	10	0	0.0	0	0	383	0.2	382	383	16.3	91.0
2025-09-19T22:57	10	0	0.1	0	0	382	0.2	382	383	16.3	91.2
2025-09-19T22:58	10	0	0.0	0	0	382	0.2	382	383	16.2	91.3
2025-09-19T22:59	10	0	0.1	0	0	382	0.2	382	383	16.2	91.3
2025-09-19T23:00	10	0	0.1	0	0	382	0.3	381	382	16.1	91.4
2025-09-19T23:01	10	0	0.0	0	0	382	0.3	381	382	16.0	91.5
2025-09-19T23:02	10	0	0.0	0	0	382	0.3	381	383	15.9	91.6
2025-09-19T23:03	10	0	0.0	0	0	382	0.3	381	383	16.0	91.7
2025-09-19T23:04	10	0	0.1	0	0	382	0.3	382	383	16.1	91.1
2025-09-19T23:05	10	0	0.1	0	1	383	0.3	382	383	16.2	90.9
2025-09-19T23:06	10	0	0.1	0	0	383	0.2	382	383	16.3	90.6
2025-09-19T23:07	10	0	0.1	0	0	383	0.4	383	384	16.4	90.3
2025-09-19T23:08	10	0	0.1	0	0	384	0.2	383	384	16.5	90.0
2025-09-19T23:09	10	0	0.1	0	0	384	0.2	384	385	16.6	89.5
2025-09-19T23:10	10	0	0.1	0	0	384	0.2	384	385	16.6	89.2
2025-09-19T23:11	10	0	0.1	0	0	384	0.2	384	385	16.6	89.1
2025-09-19T23:12	10	0	0.1	0	1	384	0.2	384	385	16.5	89.4
2025-09-19T23:13	10	0	0.1	0	0	384	0.3	383	385	16.4	89.8
2025-09-19T23:14	10	0	0.1	0	0	384	0.2	384	384	16.4	90.1
2025-09-19T23:15	10	0	0.1	0	1	384	0.2	383	384	16.5	89.8
2025-09-19T23:16	10	0	0.1	0	0	384	0.2	383	384	16.5	89.7
2025-09-19T23:17	10	0	0.1	0	0	384	0.2	383	384	16.5	89.7
2025-09-19T23:18	10	0	0.1	0	0	383	0.2	383	384	16.4	89.9
2025-09-19T23:19	10	0	0.1	0	0	383	0.2	382	383	16.4	89.9
2025-09-19T23:20	10	0	0.1	0	0	383	0.2	383	384	16.4	90.1
2025-09-19T23:21	10	0	0.1	0	1	383	0.2	383	384	16.3	90.3
2025-09-19T23:22	10	0	0.1	0	1	383	0.2	382	383	16.3	90.6
2025-09-19T23:23	10	0	0.1	0	0	383	0.2	382	383	16.2	91.0
2025-09-19T23:24	10	0	0.1	0	1	382	0.2	382	383	16.1	91.2
2025-09-19T23:25	10	0	0.1	0	0	382	0.2	381	382	16.0	91.3
2025-09-19T23:26	10	0	0.1	0	1	382	0.2	381	382	16.0	91.6
2025-09-19T23:27	10	0	0.1	0	1	382	0.3	381	382	16.0	91.9
2025-09-19T23:28	10	0	0.1	0	1	382	0.4	381	383	16.0	91.9
2025-09-19T23:29	10	0	0.1	0	1	383	0.3	382	384	16.1	91.5
2025-09-19T23:30	10	0	0.1	0	0	383	0.2	382	383	16.2	91.2
2025-09-19T23:31	10	0	0.1	0	0	383	0.3	382	384	16.1	91.3
2025-09-19T23:32	10	0	0.1	0	0	383	0.3	383	384	16.2	91.1
2025-09-19T23:33	10	0	0.2	0	1	383	0.3	383	384	16.1	91.3
2025-09-19T23:34	10	0	0.1	0	1	384	0.3	383	384	16.1	91.6
2025-09-19T23:35	10	0	0.1	0	1	384	0.4	383	384	16.2	91.4
2025-09-19T23:36	10	0	0.1	0	1	384	0.2	383	384	16.3	90.8
2025-09-19T23:37	10	0	0.1	0	1	384	0.3	383	384	16.2	91.2
2025-09-19T23:38	10	0	0.1	0	1	383	0.3	383	384	16.0	92.0
2025-09-19T23:39	10	0	0.2	0	1	384	0.4	383	384	15.9	92.4
2025-09-19T23:40	10	0	0.1	0	0	384	0.3	384	385	16.1	92.1
2025-09-19T23:41	10	0	0.1	0	0	384	0.3	384	385	16.2	91.4
2025-09-19T23:42	10	0	0.1	0	0	385	0.3	384	386	16.4	90.3
2025-09-19T23:43	10	0	0.1	0	0	384	0.2	384	385	16.6	89.3
2025-09-19T23:44	10	0	0.2	0	1	384	0.3	384	385	16.6	89.3
2025-09-19T23:45	10	0	0.1	0	0	384	0.2	383	384	16.6	89.3
2025-09-19T23:46	10	0	0.1	0	1	383	0.3	382	384	16.6	89.3
2025-09-19T23:47	10	0	0.1	0	0	383	0.3	383	384	16.5	89.2
2025-09-19T23:48	10	0	0.1	0	0	383	0.3	383	384	16.5	89.2
2025-09-19T23:49	10	0	0.1	0	1	383	0.3	382	384	16.5	89.4
2025-09-19T23:50	10	0	0.2	0	1	383	0.2	383	384	16.4	89.7
2025-09-19T23:51	10	0	0.1	0	1	383	0.2	383	384	16.4	90.0
2025-09-19T23:52	10	0	0.1	0	1	383	0.3	382	383	16.3	90.3
2025-09-19T23:53	10	0	0.1	0	1	382	0.2	382	383	16.3	90.6
2025-09-19T23:54	10	0	0.1	0	1	382	0.2	381	382	16.2	90.9
2025-09-19T23:55	10	0	0.1	0	1	382	0.3	382	383	16.0	91.4
2025-09-19T23:56	10	0	0.1	0	1	382	0.2	381	382	16.0	91.9
2025-09-19T23:57	10	0	0.1	0	1	382	0.2	381	382	15.9	92.2
2025-09-19T23:58	10	0	0.1	0	0	381	0.2	381	382	15.9	92.5
2025-09-19T23:59	10	0	0.1	0	0	381	0.2	380	381	15.8	92.7
2025-09-20T00:00	10	0	0.1	0	0	381	0.3	380	381	15.8	92.8
2025-09-20T00:01	10	0	0.1	0	0	381	0.2	380	381	15.9	92.7
2025-09-20T00:02	10	0	0.1	0	1	381	0.3	380	381	15.8	92.6
2025-09-20T00:03	10	0	0.1	0	0	381	0.3	380	381	15.9	92.4
2025-09-20T00:04	10	0	0.1	0	1	382	0.3	381	382	15.9	92.3
2025-09-20T00:05	10	0	0.1	0	0	382	0.3	382	383	15.9	92.1
2025-09-20T00:06	10	0	0.0	0	0	383	0.2	382	383	16.0	92.1
2025-09-20T00:07	10	0	0.0	0	0	382	0.3	382	383	16.0	92.0
2025-09-20T00:08	10	0	0.0	0	0	382	0.3	382	383	15.9	92.0
2025-09-20T00:09	10	0	0.1	0	0	382	0.2	382	383	16.0	92.0
2025-09-20T00:10	10	0	0.0	0	0	382	0.2	381	382	16.0	91.9
2025-09-20T00:11	10	0	0.0	0	0	382	0.2	382	383	16.0	91.6
2025-09-20T00:12	10	0	0.0	0	0	382	0.2	381	382	16.0	91.8
2025-09-20T00:13	10	0	0.1	0	0	382	0.2	381	382	15.9	91.9
2025-09-20T00:14	10	0	0.1	0	0	382	0.2	382	383	15.9	92.1
2025-09-20T00:15	10	0	0.1	0	1	383	0.2	382	383	15.8	92.5
2025-09-20T00:16	10	0	0.0	0	0	383	0.2	382	383	15.8	92.7
2025-09-20T00:17	10	0	0.1	0	1	383	0.2	383	383	15.8	92.6
2025-09-20T00:18	10	0	0.0	0	0	383	0.2	382	383	15.8	92.6
2025-09-20T00:19	10	0	0.0	0	0	383	0.3	382	384	15.7	92.9
2025-09-20T00:20	10	0	0.1	0	0	383	0.3	382	383	15.7	93.2
2025-09-20T00:21	10	0	0.0	0	0	383	0.3	382	384	15.9	93.0
2025-09-20T00:22	10	0	0.0	0	0	383	0.2	382	383	16.0	92.7
2025-09-20T00:23	10	0	0.1	0	0	382	0.2	382	383	16.0	92.0
2025-09-20T00:24	10	0	0.1	0	0	382	0.2	381	382	16.0	91.4
2025-09-20T00:25	10	0	0.1	0	0	382	0.2	381	382	16.0	91.0
2025-09-20T00:26	10	0	0.0	0	0	382	0.2	381	382	16.0	90.7
2025-09-20T00:27	10	0	0.0	0	0	382	0.2	381	382	16.0	90.5
2025-09-20T00:28	10	0	0.1	0	0	382	0.2	381	382	16.2	89.7
2025-09-20T00:29	10	0	0.1	0	0	382	0.2	381	382	16.2	89.9
2025-09-20T00:30	10	0	0.1	0	0	382	0.3	381	382	16.0	91.2
2025-09-20T00:31	10	0	0.0	0	0	382	0.3	381	382	15.9	91.6
2025-09-20T00:32	10	0	0.0	0	0	382	0.3	381	383	16.0	91.4
2025-09-20T00:33	10	0	0.0	0	0	382	0.3	381	383	16.0	91.0
2025-09-20T00:34	10	0	0.1	0	0	382	0.3	381	382	15.9	91.3
2025-09-20T00:35	10	0	0.0	0	0	381	0.2	381	382	15.9	91.6
2025-09-20T00:36	10	0	0.1	0	0	381	0.2	380	382	15.8	91.8
2025-09-20T00:37	10	0	0.0	0	0	381	0.2	380	381	15.7	92.1
2025-09-20T00:38	10	0	0.0	0	0	381	0.2	380	381	15.6	92.4
2025-09-20T00:39	10	0	0.0	0	0	380	0.2	379	381	15.6	92.6
2025-09-20T00:40	10	0	0.0	0	0	380	0.2	380	381	15.6	92.3
2025-09-20T00:41	10	0	0.0	0	0	381	0.2	380	381	15.9	91.0
2025-09-20T00:42	10	0	0.0	0	0	381	0.5	380	382	16.1	90.3
2025-09-20T00:43	10	0	0.1	0	0	381	0.2	381	382	16.2	89.6
2025-09-20T00:44	10	0	0.1	0	0	382	0.3	381	382	16.2	89.7
2025-09-20T00:45	10	0	0.1	0	0	382	0.3	382	383	16.3	89.5
2025-09-20T00:46	10	0	0.1	0	0	382	0.4	381	382	16.2	89.7
2025-09-20T00:47	10	0	0.1	0	0	381	0.2	381	382	16.2	89.9
2025-09-20T00:48	10	0	0.1	0	0	381	0.3	380	382	16.1	90.3
2025-09-20T00:49	10	0	0.1	0	0	381	0.2	380	381	16.1	90.3
2025-09-20T00:50	10	0	0.0	0	0	381	0.2	381	382	16.2	90.2
2025-09-20T00:51	10	0	0.1	0	0	381	0.3	380	382	16.1	90.2
2025-09-20T00:52	10	0	0.1	0	0	381	0.2	381	381	16.1	90.3
2025-09-20T00:53	10	0	0.0	0	0	381	0.2	380	381	16.2	90.2
2025-09-20T00:54	10	0	0.1	0	0	381	0.3	380	382	16.3	89.7
2025-09-20T00:55	10	0	0.1	0	0	381	0.3	381	382	16.4	88.9
2025-09-20T00:56	10	0	0.1	0	0	382	0.3	381	382	16.4	88.4
2025-09-20T00:57	10	0	0.1	0	0	382	0.2	381	382	16.4	88.5
2025-09-20T00:58	10	0	0.0	0	0	382	0.2	382	382	16.4	88.7
2025-09-20T00:59	10	0	0.1	0	0	382	0.2	382	383	16.4	88.4
2025-09-20T01:00	10	0	0.1	0	0	382	0.3	381	383	16.4	88.6
2025-09-20T01:01	10	0	0.1	0	0	382	0.2	381	382	16.3	88.6
2025-09-20T01:02	10	0	0.1	0	0	382	0.2	382	383	16.4	88.4
2025-09-20T01:03	10	0	0.0	0	0	383	0.2	382	383	16.3	88.5
2025-09-20T01:04	10	0	0.0	0	0	383	0.2	382	384	16.3	88.5
2025-09-20T01:05	10	0	0.1	0	0	383	0.3	383	384	16.3	88.9
2025-09-20T01:06	10	0	0.0	0	0	383	0.2	383	384	16.1	89.5
2025-09-20T01:07	10	0	0.1	0	0	384	0.3	383	384	16.1	89.6
2025-09-20T01:08	10	0	0.1	0	0	384	0.2	383	384	16.2	89.6
2025-09-20T01:09	10	0	0.1	0	0	384	0.2	383	384	16.1	89.6
2025-09-20T01:10	10	0	0.1	0	0	384	0.2	383	384	16.1	89.5
2025-09-20T01:11	10	0	0.0	0	0	384	0.2	384	385	16.1	89.4
2025-09-20T01:12	10	0	0.0	0	0	384	0.4	383	384	16.1	89.8
2025-09-20T01:13	10	0	0.1	0	0	383	0.3	382	384	16.0	90.5
2025-09-20T01:14	10	0	0.0	0	0	382	0.3	382	383	16.0	90.4
2025-09-20T01:15	10	0	0.0	0	0	382	0.3	381	382	16.0	90.4
2025-09-20T01:16	10	0	0.1	0	0	381	0.2	381	382	15.9	90.4
2025-09-20T01:17	10	0	0.0	0	0	381	0.3	381	382	15.9	90.7
2025-09-20T01:18	10	0	0.0	0	0	381	0.2	380	381	15.8	90.9
2025-09-20T01:19	10	0	0.1	0	0	381	0.3	380	381	15.8	91.1
2025-09-20T01:20	10	0	0.0	0	0	381	0.2	380	381	15.8	91.2
2025-09-20T01:21	10	0	0.1	0	0	381	0.2	380	381	15.8	91.0
2025-09-20T01:22	10	0	0.1	0	0	381	0.2	380	381	15.8	91.1
2025-09-20T01:23	10	0	0.1	0	0	381	0.2	381	382	15.8	91.1
2025-09-20T01:24	10	0	0.1	0	0	381	0.2	380	381	15.8	91.2
2025-09-20T01:25	10	0	0.1	0	0	381	0.2	380	381	15.8	91.3
2025-09-20T01:26	10	0	0.1	0	0	380	0.2	380	381	15.8	91.2
2025-09-20T01:27	10	0	0.0	0	0	379	0.3	379	380	15.8	91.2
2025-09-20T01:28	10	0	0.0	0	0	379	0.2	379	380	15.8	91.0
2025-09-20T01:29	10	0	0.1	0	0	379	0.3	378	379	15.7	91.0
2025-09-20T01:30	10	0	0.0	0	0	379	0.2	378	379	15.6	91.6
2025-09-20T01:31	10	0	0.1	0	0	379	0.2	378	379	15.5	92.1
2025-09-20T01:32	10	0	0.1	0	0	378	0.2	378	379	15.5	92.3
2025-09-20T01:33	10	0	0.1	0	0	378	0.2	378	379	15.5	92.5
2025-09-20T01:34	10	0	0.1	0	0	378	0.2	377	378	15.4	92.7
2025-09-20T01:35	10	0	0.1	0	0	378	0.2	377	378	15.4	93.1
2025-09-20T01:36	10	0	0.1	0	0	378	0.2	377	378	15.3	93.2
2025-09-20T01:37	10	0	0.1	0	0	377	0.3	377	378	15.3	93.4
2025-09-20T01:38	10	0	0.1	0	0	377	0.2	377	378	15.3	93.5
2025-09-20T01:39	10	0	0.1	0	0	377	0.2	377	378	15.3	93.6
2025-09-20T01:40	10	0	0.0	0	0	377	0.2	377	378	15.3	93.5
2025-09-20T01:41	10	0	0.1	0	0	377	0.2	377	378	15.4	93.4
2025-09-20T01:42	10	0	0.1	0	0	377	0.2	377	377	15.4	93.5
2025-09-20T01:43	10	0	0.1	0	0	376	0.2	376	377	15.3	93.7
2025-09-20T01:44	10	0	0.1	0	0	376	0.2	376	377	15.4	93.5
2025-09-20T01:45	10	0	0.1	0	0	376	0.2	376	377	15.4	93.2
2025-09-20T01:46	10	0	0.0	0	0	376	0.2	376	377	15.4	93.0
2025-09-20T01:47	10	0	0.1	0	0	376	0.2	375	376	15.4	93.1
2025-09-20T01:48	10	0	0.0	0	0	375	0.3	375	376	15.4	92.9
2025-09-20T01:49	10	0	0.0	0	0	375	0.2	375	376	15.4	92.8
2025-09-20T01:50	10	0	0.1	0	0	375	0.2	375	376	15.4	92.7
2025-09-20T01:51	10	0	0.0	0	0	376	0.3	375	376	15.4	92.6
2025-09-20T01:52	10	0	0.0	0	0	376	0.2	375	376	15.5	92.3
2025-09-20T01:53	10	0	0.1	0	0	376	0.2	375	376	15.5	92.0
2025-09-20T01:54	10	0	0.0	0	0	376	0.2	375	376	15.5	92.0
2025-09-20T01:55	10	0	0.1	0	0	376	0.2	375	376	15.5	91.9
2025-09-20T01:56	10	0	0.1	0	0	376	0.2	375	376	15.6	91.3
2025-09-20T01:57	10	0	0.1	0	0	376	0.2	375	376	15.5	91.3
2025-09-20T01:58	10	0	0.1	0	0	376	0.2	376	377	15.6	91.1
2025-09-20T01:59	10	0	0.1	0	0	376	0.3	376	377	15.5	91.6
2025-09-20T02:00	10	0	0.1	0	0	377	0.3	376	378	15.4	91.8
2025-09-20T02:01	10	0	0.1	0	0	378	0.3	377	378	15.4	91.8
2025-09-20T02:02	10	0	0.1	0	0	378	0.2	377	378	15.4	91.9
2025-09-20T02:03	10	0	0.1	0	0	378	0.2	378	379	15.5	91.7
2025-09-20T02:04	10	0	0.1	0	0	378	0.2	378	379	15.5	91.6
2025-09-20T02:05	10	0	0.0	0	0	378	0.3	378	379	15.6	91.1
2025-09-20T02:06	10	0	0.1	0	0	378	0.3	378	379	15.6	90.6
2025-09-20T02:07	10	0	0.0	0	0	379	0.2	378	379	15.6	90.4
2025-09-20T02:08	10	0	0.1	0	0	379	0.2	379	379	15.7	90.2
2025-09-20T02:09	10	0	0.1	0	0	379	0.2	379	380	15.7	90.0
2025-09-20T02:10	10	0	0.1	0	0	380	0.2	379	380	15.8	89.4
2025-09-20T02:11	10	0	0.1	0	0	379	0.3	379	380	15.8	89.1
2025-09-20T02:12	10	0	0.1	0	0	379	0.3	379	380	15.9	88.8
2025-09-20T02:13	10	0	0.1	0	0	379	0.2	379	380	15.8	88.9
2025-09-20T02:14	10	0	0.1	0	0	379	0.3	379	380	15.9	88.6
2025-09-20T02:15	10	0	0.1	0	0	379	0.3	378	380	15.9	88.3
2025-09-20T02:16	10	0	0.1	0	0	379	0.2	378	379	15.9	88.2
2025-09-20T02:17	10	0	0.1	0	0	378	0.3	378	379	15.8	88.5
2025-09-20T02:18	10	0	0.1	0	0	377	0.3	377	378	15.8	88.8
2025-09-20T02:19	10	0	0.1	0	0	377	0.2	377	378	15.7	89.2
2025-09-20T02:20	10	0	0.1	0	0	378	0.3	377	378	15.7	89.3
2025-09-20T02:21	10	0	0.1	0	0	377	0.2	377	378	15.7	89.4
2025-09-20T02:22	10	0	0.1	0	0	378	0.2	377	378	15.7	89.3
2025-09-20T02:23	10	0	0.1	0	0	377	0.3	377	378	15.7	89.0
2025-09-20T02:24	10	0	0.1	0	1	377	0.2	377	378	15.7	89.0
2025-09-20T02:25	10	0	0.1	0	0	377	0.2	377	378	15.7	89.0
2025-09-20T02:26	10	0	0.1	0	0	377	0.2	377	378	15.7	89.0
2025-09-20T02:27	10	0	0.1	0	0	377	0.2	377	378	15.6	89.3
2025-09-20T02:28	10	0	0.1	0	0	378	0.3	377	378	15.7	89.0
2025-09-20T02:29	10	0	0.1	0	0	378	0.3	377	378	15.7	88.7
2025-09-20T02:30	10	0	0.1	0	0	378	0.2	377	378	15.7	88.7
2025-09-20T02:31	10	0	0.1	0	0	377	0.3	377	378	15.6	89.2
2025-09-20T02:32	10	0	0.1	0	0	378	0.2	377	378	15.5	89.5
2025-09-20T02:33	10	0	0.1	0	0	378	0.2	377	378	15.6	89.0
2025-09-20T02:34	10	0	0.1	0	0	378	0.2	377	378	15.7	88.3
2025-09-20T02:35	10	0	0.1	0	0	377	0.4	376	378	15.7	88.3
2025-09-20T02:36	10	0	0.1	0	0	378	0.3	377	378	15.6	88.9
2025-09-20T02:37	10	0	0.1	0	0	378	0.3	377	378	15.7	88.7
2025-09-20T02:38	10	0	0.1	0	0	377	0.2	377	378	15.6	88.9
2025-09-20T02:39	10	0	0.1	0	0	377	0.3	377	378	15.6	88.7
2025-09-20T02:40	10	0	0.1	0	0	377	0.3	377	378	15.6	89.2
2025-09-20T02:41	10	0	0.1	0	0	378	0.3	377	379	15.5	89.3
2025-09-20T02:42	10	0	0.1	0	0	378	0.2	377	378	15.5	89.6
2025-09-20T02:43	10	0	0.1	0	0	378	0.2	377	378	15.5	89.6
2025-09-20T02:44	10	0	0.1	0	0	377	0.3	377	378	15.5	89.2
2025-09-20T02:45	10	0	0.1	0	0	377	0.2	376	377	15.6	88.4
2025-09-20T02:46	10	0	0.0	0	0	377	0.2	376	377	15.7	87.9
2025-09-20T02:47	10	0	0.0	0	0	376	0.2	375	377	15.8	87.5
2025-09-20T02:48	10	0	0.1	0	0	376	0.2	375	376	15.8	87.4
2025-09-20T02:49	10	0	0.1	0	0	376	0.2	375	376	15.9	87.2
2025-09-20T02:50	10	0	0.1	0	0	376	0.2	375	376	15.8	87.2
2025-09-20T02:51	10	0	0.1	0	0	376	0.2	375	376	15.8	87.2
2025-09-20T02:52	10	0	0.1	0	0	376	0.2	375	376	15.8	87.3
2025-09-20T02:53	10	0	0.1	0	0	376	0.3	375	376	15.8	87.3
2025-09-20T02:54	10	0	0.1	0	0	375	0.3	375	376	15.8	87.4
2025-09-20T02:55	10	0	0.1	0	0	375	0.3	375	376	15.7	87.8
2025-09-20T02:56	10	0	0.1	0	0	375	0.2	375	375	15.6	88.2
2025-09-20T02:57	10	0	0.1	0	0	375	0.2	374	375	15.6	88.5
2025-09-20T02:58	10	0	0.1	0	0	375	0.2	374	375	15.5	88.8
2025-09-20T02:59	10	0	0.1	0	0	375	0.2	375	376	15.6	88.9
2025-09-20T03:00	10	0	0.1	0	0	375	0.2	374	375	15.5	89.0
2025-09-20T03:01	10	0	0.0	0	0	375	0.3	374	375	15.5	89.2
2025-09-20T03:02	10	0	0.1	0	0	375	0.2	374	376	15.5	89.2
2025-09-20T03:03	10	0	0.1	0	0	375	0.3	374	375	15.4	89.4
2025-09-20T03:04	10	0	0.1	0	0	374	0.2	374	374	15.4	89.8
2025-09-20T03:05	10	0	0.1	0	0	374	0.2	373	374	15.4	89.2
2025-09-20T03:06	10	0	0.1	0	0	374	0.2	373	374	15.6	88.6
2025-09-20T03:07	10	0	0.1	0	0	373	0.2	373	374	15.6	88.3
2025-09-20T03:08	10	0	0.1	0	0	373	0.2	373	374	15.6	88.3
2025-09-20T03:09	10	0	0.1	0	0	373	0.3	373	374	15.6	88.6
2025-09-20T03:10	10	0	0.1	0	0	374	0.3	373	375	15.3	89.6
2025-09-20T03:11	10	0	0.1	0	0	374	0.2	374	375	15.4	89.3
2025-09-20T03:12	10	0	0.1	0	0	374	0.2	374	375	15.4	89.1
2025-09-20T03:13	10	0	0.1	0	0	374	0.2	373	375	15.5	88.9
2025-09-20T03:14	10	0	0.1	0	0	373	0.2	373	374	15.4	88.9
2025-09-20T03:15	10	0	0.1	0	0	373	0.3	373	374	15.4	89.2
2025-09-20T03:16	10	0	0.1	0	0	374	0.2	373	374	15.4	89.5
2025-09-20T03:17	10	0	0.1	0	0	374	0.2	373	374	15.4	89.2
2025-09-20T03:18	10	0	0.1	0	0	374	0.2	373	375	15.4	89.2
2025-09-20T03:19	10	0	0.1	0	0	374	0.2	374	375	15.4	89.2
2025-09-20T03:20	10	0	0.1	0	0	375	0.2	374	375	15.4	89.3
2025-09-20T03:21	10	0	0.0	0	0	375	0.3	374	375	15.4	89.5
2025-09-20T03:22	10	0	0.1	0	0	375	0.2	375	375	15.4	89.6
2025-09-20T03:23	10	0	0.1	0	0	375	0.2	375	375	15.3	90.0
2025-09-20T03:24	10	0	0.1	0	0	374	0.3	374	375	15.2	90.3
2025-09-20T03:25	10	0	0.1	0	0	374	0.2	373	374	15.1	90.7
2025-09-20T03:26	10	0	0.1	0	0	374	0.2	373	374	15.2	90.5
2025-09-20T03:27	10	0	0.1	0	0	373	0.2	373	374	15.3	89.9
2025-09-20T03:28	10	0	0.1	0	0	373	0.2	373	374	15.4	89.1
2025-09-20T03:29	10	0	0.1	0	0	373	0.2	372	373	15.5	88.4
2025-09-20T03:30	10	0	0.1	0	0	373	0.2	372	374	15.5	88.3
2025-09-20T03:31	10	0	0.1	0	0	373	0.2	373	374	15.6	87.9
2025-09-20T03:32	10	0	0.0	0	0	373	0.2	373	374	15.7	87.3
2025-09-20T03:33	10	0	0.1	0	0	374	0.2	373	374	15.7	87.0
2025-09-20T03:34	10	0	0.1	0	0	374	0.2	373	374	15.8	86.6
2025-09-20T03:35	10	0	0.1	0	0	374	0.2	373	374	15.9	86.2
2025-09-20T03:36	10	0	0.0	0	0	374	0.2	373	374	15.8	86.4
2025-09-20T03:37	10	0	0.1	0	0	374	0.3	373	374	15.7	86.6
2025-09-20T03:38	10	0	0.0	0	0	374	0.2	373	374	15.7	86.9
2025-09-20T03:39	10	0	0.0	0	0	374	0.2	374	375	15.7	86.9
2025-09-20T03:40	10	0	0.0	0	0	375	0.2	374	375	15.7	87.1
2025-09-20T03:41	10	0	0.1	0	0	374	0.2	374	375	15.6	87.2
2025-09-20T03:42	10	0	0.0	0	0	374	0.2	374	375	15.5	87.3
2025-09-20T03:43	10	0	0.1	0	0	374	0.2	374	375	15.4	87.6
2025-09-20T03:44	10	0	0.1	0	0	374	0.3	374	375	15.4	87.9
2025-09-20T03:45	10	0	0.1	0	0	374	0.2	374	375	15.3	88.2
2025-09-20T03:46	10	0	0.1	0	0	374	0.3	373	374	15.2	88.7
2025-09-20T03:47	10	0	0.1	0	0	374	0.3	373	374	15.2	88.9
2025-09-20T03:48	10	0	0.1	0	0	374	0.2	373	374	15.3	88.8
2025-09-20T03:49	10	0	0.1	0	0	374	0.3	373	374	15.1	89.1
2025-09-20T03:50	10	0	0.1	0	0	374	0.3	373	374	15.1	89.3
2025-09-20T03:51	10	0	0.1	0	0	374	0.2	373	374	15.1	89.4
2025-09-20T03:52	10	0	0.1	0	0	374	0.2	373	374	15.0	89.9
2025-09-20T03:53	10	0	0.1	0	0	374	0.3	373	374	14.8	90.4
2025-09-20T03:54	10	0	0.1	0	0	373	0.2	373	374	14.6	91.1
2025-09-20T03:55	10	0	0.1	0	0	373	0.2	372	373	14.5	92.0
2025-09-20T03:56	10	0	0.1	0	0	373	0.3	372	373	14.6	92.0
2025-09-20T03:57	10	0	0.1	0	0	372	0.2	372	373	14.6	91.8
2025-09-20T03:58	10	0	0.1	0	0	372	0.3	372	372	14.6	91.9
2025-09-20T03:59	10	0	0.1	0	0	371	0.2	371	372	14.6	92.4
2025-09-20T04:00	10	0	0.1	0	0	371	0.2	370	372	14.5	92.9
2025-09-20T04:01	10	0	0.0	0	0	371	0.2	371	372	14.5	93.1
2025-09-20T04:02	10	0	0.1	0	0	372	0.4	371	372	14.6	92.9
2025-09-20T04:03	10	0	0.1	0	0	372	0.2	371	372	14.7	92.3
2025-09-20T04:04	10	0	0.1	0	0	371	0.2	371	372	14.6	92.2
2025-09-20T04:05	10	0	0.0	0	0	371	0.2	371	372	14.7	92.1
2025-09-20T04:06	10	0	0.1	0	0	371	0.2	370	372	14.7	91.7
2025-09-20T04:07	10	0	0.1	0	0	371	0.2	370	371	14.7	91.6
2025-09-20T04:08	10	0	0.1	0	0	371	0.2	370	371	14.7	91.6
2025-09-20T04:09	10	0	0.1	0	0	371	0.2	370	371	14.7	91.4
2025-09-20T04:10	10	0	0.0	0	0	371	0.3	370	371	14.7	91.3
2025-09-20T04:11	10	0	0.1	0	0	371	0.2	371	371	14.6	91.4
2025-09-20T04:12	10	0	0.1	0	0	371	0.3	370	371	14.5	92.1
2025-09-20T04:13	10	0	0.1	0	0	370	0.3	370	371	14.3	93.0
2025-09-20T04:14	10	0	0.1	0	0	370	0.2	369	370	14.2	93.5
2025-09-20T04:15	10	0	0.1	0	0	369	0.3	369	370	14.1	94.0
2025-09-20T04:16	10	0	0.1	0	0	369	0.2	369	369	14.0	94.3
2025-09-20T04:17	10	0	0.1	0	0	369	0.2	368	369	14.0	94.6
2025-09-20T04:18	10	0	0.1	0	0	369	0.3	368	369	13.9	94.7
2025-09-20T04:19	10	0	0.1	0	0	369	0.3	368	369	13.9	95.0
2025-09-20T04:20	10	0	0.1	0	0	369	0.4	369	370	13.9	95.2
2025-09-20T04:21	10	0	0.1	0	0	370	0.3	369	371	14.0	95.3
2025-09-20T04:22	10	0	0.1	0	0	370	0.2	370	371	14.1	95.3
2025-09-20T04:23	10	0	0.1	0	0	370	0.3	369	371	14.2	95.0
2025-09-20T04:24	10	0	0.1	0	0	369	0.2	369	370	14.1	95.2
2025-09-20T04:25	10	0	0.1	0	0	369	0.2	369	369	14.1	95.5
2025-09-20T04:26	10	0	0.1	0	0	369	0.2	368	369	14.1	95.5
2025-09-20T04:27	10	0	0.0	0	0	369	0.3	368	369	14.0	95.4
2025-09-20T04:28	10	0	0.1	0	0	369	0.3	368	369	13.9	95.4
2025-09-20T04:29	10	0	0.1	0	0	369	0.2	369	370	13.9	96.0
2025-09-20T04:30	10	0	0.1	0	0	369	0.3	368	369	13.9	96.3
2025-09-20T04:31	10	0	0.1	0	0	369	0.2	368	369	13.9	96.2
2025-09-20T04:32	10	0	0.1	0	0	369	0.2	368	369	13.9	95.8
2025-09-20T04:33	10	0	0.1	0	0	369	0.2	368	369	14.0	95.5
2025-09-20T04:34	10	0	0.1	0	0	369	0.2	368	369	13.9	95.8
2025-09-20T04:35	10	0	0.1	0	0	368	0.3	367	369	13.8	95.8
2025-09-20T04:36	10	0	0.1	0	0	368	0.2	368	369	13.8	96.0
2025-09-20T04:37	10	0	0.1	0	0	369	0.3	368	369	13.8	95.8
2025-09-20T04:38	10	0	0.1	0	0	368	0.2	368	369	13.9	95.9
2025-09-20T04:39	10	0	0.1	0	0	369	0.2	368	369	13.9	95.8
2025-09-20T04:40	10	0	0.1	0	0	369	0.3	368	369	13.9	95.8
2025-09-20T04:41	10	0	0.1	0	0	369	0.2	368	369	13.9	95.5
2025-09-20T04:42	10	0	0.0	0	0	369	0.2	368	369	14.0	94.8
2025-09-20T04:43	10	0	0.0	0	0	369	0.3	368	369	13.9	94.8
2025-09-20T04:44	10	0	0.0	0	0	368	0.2	368	369	13.9	94.9
2025-09-20T04:45	10	0	0.0	0	0	369	0.3	368	369	13.9	94.9
2025-09-20T04:46	10	0	0.0	0	0	369	0.3	368	370	14.0	94.9
2025-09-20T04:47	10	0	0.0	0	0	369	0.2	368	369	14.2	94.5
2025-09-20T04:48	10	0	0.1	0	0	369	0.2	368	369	14.3	94.3
2025-09-20T04:49	10	0	0.0	0	0	369	0.3	368	369	14.3	94.1
2025-09-20T04:50	10	0	0.1	0	1	369	0.3	368	369	14.3	93.7
2025-09-20T04:51	10	0	0.1	0	0	368	0.3	368	369	14.1	93.2
2025-09-20T04:52	10	0	0.0	0	0	369	0.3	368	369	14.1	92.8
2025-09-20T04:53	10	0	0.1	0	1	369	0.4	368	370	14.1	93.2
2025-09-20T04:54	10	0	0.1	0	1	370	0.3	369	371	14.0	93.5
2025-09-20T04:55	10	0	0.1	0	1	370	0.2	369	371	14.0	93.7
2025-09-20T04:56	10	0	0.1	0	1	370	0.3	369	371	14.0	93.6
2025-09-20T04:57	10	0	0.1	0	1	370	0.3	369	370	14.0	93.2
2025-09-20T04:58	10	0	0.1	0	0	369	0.3	369	370	14.0	93.2
2025-09-20T04:59	10	0	0.1	0	1	369	0.3	368	369	14.0	93.2
2025-09-20T05:00	10	0	0.1	0	0	369	0.2	369	370	14.1	93.1
2025-09-20T05:01	10	0	0.1	0	1	369	0.3	369	370	14.1	92.6
2025-09-20T05:02	10	0	0.1	0	1	369	0.2	369	370	14.3	91.9
2025-09-20T05:03	10	0	0.1	0	1	369	0.2	369	370	14.3	91.8
2025-09-20T05:04	10	0	0.1	0	1	369	0.4	368	370	14.3	91.6
2025-09-20T05:05	10	0	0.2	0	1	368	0.4	367	369	14.1	92.0
2025-09-20T05:06	10	0	0.1	0	1	368	0.2	368	368	13.9	92.6
2025-09-20T05:07	10	1	0.1	0	1	368	0.3	367	369	13.9	93.1
2025-09-20T05:08	10	1	0.2	0	1	368	0.3	367	369	13.8	93.3
2025-09-20T05:09	10	0	0.1	0	1	368	0.3	368	369	14.1	93.3
2025-09-20T05:10	10	1	0.2	0	1	368	0.4	367	369	14.0	93.5
2025-09-20T05:11	10	1	0.1	0	1	368	0.3	367	369	13.9	93.7
2025-09-20T05:12	10	1	0.2	0	1	368	0.3	367	369	13.8	94.0
2025-09-20T05:13	10	1	0.2	0	1	369	0.3	368	369	13.7	94.5
2025-09-20T05:14	10	1	0.2	0	1	369	0.3	368	370	13.7	95.1
2025-09-20T05:15	10	1	0.2	1	1	369	0.3	368	369	13.7	95.6
2025-09-20T05:16	10	1	0.2	1	1	368	0.3	368	369	13.7	96.0
2025-09-20T05:17	10	1	0.2	1	2	368	0.2	367	368	13.6	95.9
2025-09-20T05:18	10	1	0.2	1	1	368	0.3	367	368	13.5	95.9
2025-09-20T05:19	10	1	0.1	1	2	368	0.3	367	368	13.5	96.2
2025-09-20T05:20	10	1	0.1	1	2	368	0.3	367	368	13.5	96.5
2025-09-20T05:21	10	1	0.2	1	2	368	0.3	367	368	13.5	96.8
2025-09-20T05:22	10	1	0.2	1	2	367	0.2	367	368	13.5	96.9
2025-09-20T05:23	10	1	0.2	1	2	367	0.2	367	368	13.5	97.0
2025-09-20T05:24	10	2	0.1	1	2	367	0.3	367	368	13.4	97.0
2025-09-20T05:25	10	2	0.2	1	2	368	0.3	367	369	13.4	96.7
2025-09-20T05:26	10	2	0.1	1	2	368	0.3	367	368	13.4	96.7
2025-09-20T05:27	10	2	0.2	1	2	368	0.3	367	368	13.4	96.9
2025-09-20T05:28	10	2	0.1	2	2	368	0.3	367	368	13.4	97.0
2025-09-20T05:29	10	2	0.1	2	2	368	0.3	367	368	13.4	97.3
2025-09-20T05:30	10	2	0.1	2	2	367	0.2	367	368	13.4	97.3
2025-09-20T05:31	10	2	0.1	2	2	368	0.3	367	369	13.5	96.9
2025-09-20T05:32	10	2	0.1	2	3	368	0.2	368	369	13.6	96.6
2025-09-20T05:33	10	2	0.1	2	3	369	0.2	368	369	13.7	96.2
2025-09-20T05:34	10	2	0.1	2	3	368	0.3	368	369	13.7	95.6
2025-09-20T05:35	10	2	0.1	2	3	369	0.2	368	369	13.7	95.3
2025-09-20T05:36	10	3	0.1	2	3	369	0.3	369	370	13.8	95.3
2025-09-20T05:37	10	3	0.1	3	3	369	0.2	369	370	13.8	95.2
2025-09-20T05:38	10	3	0.1	3	3	369	0.2	369	370	13.8	94.9
2025-09-20T05:39	10	3	0.2	3	4	369	0.2	369	370	13.8	94.5
2025-09-20T05:40	10	4	0.2	3	4	369	0.2	369	370	13.8	94.3
2025-09-20T05:41	10	4	0.2	3	4	369	0.4	369	370	13.8	94.3
2025-09-20T05:42	10	5	0.3	4	5	370	0.3	370	371	13.8	94.4
2025-09-20T05:43	10	6	0.3	5	6	371	0.2	370	371	13.9	94.6
2025-09-20T05:44	10	7	0.3	6	7	371	0.2	370	371	13.9	94.5
2025-09-20T05:45	10	8	0.3	7	8	371	0.3	370	371	13.9	94.4
2025-09-20T05:46	10	9	0.3	8	9	371	0.2	371	372	13.9	94.3
2025-09-20T05:47	10	9	0.2	9	10	372	0.2	371	372	14.0	94.2
2025-09-20T05:48	10	10	0.2	10	11	372	0.2	371	372	13.9	93.9
2025-09-20T05:49	10	11	0.2	11	11	372	0.3	372	373	13.8	93.7
2025-09-20T05:50	10	11	0.2	11	12	373	0.3	372	374	13.9	93.7
2025-09-20T05:51	10	12	0.2	12	12	373	0.2	373	374	13.9	93.6
2025-09-20T05:52	10	13	0.2	12	13	373	0.2	372	373	13.9	93.6
2025-09-20T05:53	10	13	0.2	13	14	373	0.3	373	374	13.8	93.6
2025-09-20T05:54	10	14	0.2	13	14	374	0.3	373	374	13.9	93.4
2025-09-20T05:55	10	14	0.2	14	15	374	0.3	373	374	13.9	93.3
2025-09-20T05:56	10	15	0.2	14	15	374	0.2	374	375	14.0	93.3
2025-09-20T05:57	10	15	0.2	15	16	374	0.2	374	375	14.0	93.1
2025-09-20T05:58	10	16	0.2	16	17	375	0.3	374	375	14.0	93.0
2025-09-20T05:59	10	17	0.2	16	17	375	0.2	375	375	14.0	92.8
2025-09-20T06:00	10	17	0.2	17	18	375	0.2	375	376	14.0	92.8
2025-09-20T06:01	10	18	0.2	18	18	376	0.2	375	376	14.1	92.7
2025-09-20T06:02	10	19	0.2	18	19	376	0.3	375	377	14.1	92.7
2025-09-20T06:03	10	19	0.2	19	20	377	0.2	376	378	14.2	92.5
2025-09-20T06:04	10	20	0.2	20	20	377	0.3	377	378	14.2	92.7
2025-09-20T06:05	10	21	0.2	20	21	377	0.2	377	378	14.1	92.8
2025-09-20T06:06	10	21	0.2	21	22	378	0.2	377	378	14.0	92.9
2025-09-20T06:07	10	22	0.3	22	23	378	0.3	377	378	14.1	93.1
2025-09-20T06:08	10	23	0.3	22	24	379	0.2	378	379	14.2	93.0
2025-09-20T06:09	10	23	0.3	23	24	379	0.3	378	380	14.2	92.7
2025-09-20T06:10	10	24	0.2	24	25	379	0.3	379	380	14.3	92.5
2025-09-20T06:11	10	25	0.4	24	26	380	0.3	379	380	14.3	92.3
2025-09-20T06:12	10	26	0.4	25	27	380	0.3	380	381	14.4	91.9
2025-09-20T06:13	10	27	0.4	27	28	381	0.3	380	381	14.6	91.0
2025-09-20T06:14	10	29	0.3	28	29	381	0.2	380	381	14.6	90.7
2025-09-20T06:15	10	30	0.3	29	30	381	0.2	380	381	14.5	90.4
2025-09-20T06:16	10	31	0.3	30	31	381	0.3	381	382	14.5	90.5
2025-09-20T06:17	10	32	0.2	31	32	382	0.3	381	382	14.6	90.7
2025-09-20T06:18	10	32	0.3	32	33	382	0.4	381	383	14.6	90.6
2025-09-20T06:19	10	33	0.3	33	34	383	0.2	382	383	14.7	90.2
2025-09-20T06:20	10	34	0.2	33	34	383	0.2	382	383	14.8	89.8
2025-09-20T06:21	10	35	0.2	34	35	384	0.2	383	384	14.9	89.5
2025-09-20T06:22	10	35	0.3	35	36	384	0.3	384	385	14.9	89.2
2025-09-20T06:23	10	36	0.3	35	36	384	0.2	384	385	15.0	89.1
2025-09-20T06:24	10	37	0.2	36	37	385	0.3	384	386	15.1	88.8
2025-09-20T06:25	10	37	0.2	37	38	386	0.2	385	386	15.2	87.8
2025-09-20T06:26	10	38	0.2	38	38	386	0.2	386	387	15.2	87.4
2025-09-20T06:27	10	39	0.1	38	39	387	0.2	386	387	15.3	86.8
2025-09-20T06:28	10	39	0.1	39	39	387	0.2	386	388	15.5	86.1
2025-09-20T06:29	10	39	0.2	39	40	388	0.3	387	388	15.6	85.8
2025-09-20T06:30	10	40	0.2	40	40	388	0.2	388	389	15.7	85.0
2025-09-20T06:31	10	40	0.2	40	41	389	0.2	388	389	15.7	85.0
2025-09-20T06:32	10	41	0.2	41	41	389	0.2	389	389	15.6	85.4
2025-09-20T06:33	10	41	0.1	41	42	389	0.3	389	390	15.6	85.7
2025-09-20T06:34	10	42	0.1	41	42	390	0.2	389	390	15.6	85.9
2025-09-20T06:35	10	42	0.2	42	42	390	0.2	389	390	15.6	86.3
2025-09-20T06:36	10	43	0.2	42	43	390	0.2	390	391	15.5	87.1
2025-09-20T06:37	10	43	0.1	43	43	391	0.5	390	392	15.6	86.0
2025-09-20T06:38	10	44	0.2	43	44	391	0.3	390	391	15.9	84.7
2025-09-20T06:39	10	44	0.2	44	45	392	0.2	391	392	16.0	84.4
2025-09-20T06:40	10	45	0.2	44	45	392	0.2	392	393	15.9	85.5
2025-09-20T06:41	10	46	0.7	45	50	392	0.2	392	393	15.9	86.3
2025-09-20T06:42	10	46	0.2	46	47	392	0.2	392	393	15.9	87.3
2025-09-20T06:43	10	47	0.2	47	47	393	0.2	392	393	16.0	86.9
2025-09-20T06:44	10	48	0.2	47	48	393	0.2	392	394	16.0	86.1
2025-09-20T06:45	10	48	0.2	48	49	394	0.2	393	394	16.0	84.7
2025-09-20T06:46	10	49	0.2	49	49	394	0.3	393	394	16.0	85.1
2025-09-20T06:47	10	50	0.2	49	50	394	0.3	393	395	15.9	85.4
2025-09-20T06:48	10	50	0.2	50	51	395	0.3	394	395	15.9	85.6
2025-09-20T06:49	10	51	0.2	51	51	395	0.3	394	395	15.9	85.3
2025-09-20T06:50	10	52	0.2	51	52	395	0.3	394	396	15.9	86.3
2025-09-20T06:51	10	52	0.2	52	53	395	0.3	395	396	15.9	86.6
2025-09-20T06:52	10	53	0.1	53	53	396	0.2	395	396	16.0	86.2
2025-09-20T06:53	10	54	0.2	53	54	396	0.2	395	396	16.0	86.8
2025-09-20T06:54	10	54	0.2	54	55	396	0.2	395	396	16.0	86.9
2025-09-20T06:55	10	55	0.2	55	55	396	0.2	396	397	16.1	86.9
2025-09-20T06:56	10	56	0.2	55	56	397	0.3	396	397	16.1	87.1
2025-09-20T06:57	10	57	1.0	56	63	397	0.2	396	397	16.1	86.2
2025-09-20T06:58	10	57	0.2	57	57	397	0.3	396	398	16.2	85.0
2025-09-20T06:59	10	58	0.2	57	58	398	0.3	397	398	16.3	84.8
2025-09-20T07:00	10	58	0.2	58	59	398	0.3	398	399	16.5	84.5
2025-09-20T07:01	10	59	0.2	59	59	399	0.3	398	399	16.5	84.5
2025-09-20T07:02	10	59	0.2	59	60	399	0.3	398	399	16.6	84.2
2025-09-20T07:03	10	60	0.2	60	61	399	0.3	399	400	16.7	82.2
2025-09-20T07:04	10	61	0.2	60	61	400	0.3	399	401	16.9	83.2
2025-09-20T07:05	10	61	0.2	61	62	401	0.3	400	401	16.9	83.1
2025-09-20T07:06	10	62	0.2	62	62	401	0.2	400	401	16.9	81.6
2025-09-20T07:07	10	63	0.2	62	63	401	0.2	401	402	16.9	81.6
2025-09-20T07:08	10	63	0.2	63	64	401	0.3	401	402	16.8	82.2
2025-09-20T07:09	10	64	0.2	64	64	402	0.3	401	402	16.8	82.9
2025-09-20T07:10	10	65	0.2	65	66	402	0.2	402	403	16.7	84.2
2025-09-20T07:11	10	66	0.3	65	66	403	0.3	402	403	16.7	81.9
2025-09-20T07:12	10	66	0.3	66	67	403	0.2	403	403	16.8	81.4
2025-09-20T07:13	10	67	0.3	67	68	404	0.3	403	404	17.0	80.3
2025-09-20T07:14	10	68	0.3	67	69	404	0.2	404	405	17.1	79.6
2025-09-20T07:15	10	69	0.3	68	69	404	0.3	404	405	17.1	81.1
2025-09-20T07:16	10	70	0.3	69	70	404	0.2	404	405	17.0	81.6
2025-09-20T07:17	10	70	0.3	70	71	405	0.2	404	405	17.1	82.6
2025-09-20T07:18	10	71	0.3	71	72	405	0.3	404	405	17.1	80.4
2025-09-20T07:19	10	72	0.3	72	73	405	0.2	404	405	17.2	80.7
2025-09-20T07:20	10	73	0.3	72	74	406	0.3	405	406	17.2	80.9
2025-09-20T07:21	10	74	0.3	73	74	406	0.2	405	406	17.2	81.5
2025-09-20T07:22	10	75	0.2	74	75	405	0.3	405	406	17.1	80.6
2025-09-20T07:23	10	75	0.2	75	76	406	0.3	405	407	17.3	80.6
2025-09-20T07:24	10	76	0.2	76	77	407	0.3	406	407	17.3	79.4
2025-09-20T07:25	10	77	0.2	77	77	407	0.2	407	407	17.4	80.4
2025-09-20T07:26	10	77	0.2	77	78	407	0.2	406	408	17.3	82.1
2025-09-20T07:27	10	78	0.2	78	79	407	0.3	406	408	17.3	80.1
2025-09-20T07:28	10	79	0.2	78	79	407	0.2	407	408	17.3	80.2
2025-09-20T07:29	10	80	0.2	79	80	407	0.3	407	408	17.4	80.6
2025-09-20T07:30	10	80	0.1	80	81	408	0.3	407	408	17.4	80.2
2025-09-20T07:31	10	81	0.1	80	81	408	0.2	408	409	17.4	81.0
2025-09-20T07:32	10	81	0.2	81	81	408	0.2	408	409	17.4	80.8
2025-09-20T07:33	10	82	0.2	81	82	408	0.2	408	409	17.4	80.1
2025-09-20T07:34	10	82	0.2	82	83	409	0.2	408	409	17.4	79.8
2025-09-20T07:35	10	83	0.2	82	83	409	0.2	409	410	17.5	80.4
2025-09-20T07:36	10	83	0.2	83	84	409	0.4	409	410	17.6	80.4
2025-09-20T07:37	10	84	0.2	84	84	410	0.3	410	411	17.5	81.2
2025-09-20T07:38	10	85	0.2	84	85	410	0.2	410	411	17.5	80.9
2025-09-20T07:39	10	85	0.2	85	86	411	0.4	410	412	17.6	81.2
2025-09-20T07:40	10	86	0.2	85	86	412	0.4	411	412	17.6	82.5
2025-09-20T07:41	10	86	0.2	86	87	411	0.2	410	412	17.5	82.0
2025-09-20T07:42	10	87	0.2	86	87	412	0.2	411	412	17.6	81.0
2025-09-20T07:43	10	87	0.2	87	88	412	0.3	411	412	17.6	79.6
2025-09-20T07:44	10	88	0.2	88	88	412	0.3	412	413	17.7	79.5
2025-09-20T07:45	10	88	0.2	88	89	412	0.2	412	413	17.7	78.5
2025-09-20T07:46	10	89	0.1	89	89	412	0.2	412	413	17.7	78.5
2025-09-20T07:47	10	89	0.2	89	90	412	0.3	411	413	17.7	77.9
2025-09-20T07:48	10	90	0.2	90	90	413	0.2	412	413	17.7	77.6
2025-09-20T07:49	10	91	0.2	90	91	413	0.2	413	414	17.8	78.2
2025-09-20T07:50	10	91	0.2	91	91	413	0.2	412	413	17.8	77.4
2025-09-20T07:51	10	92	0.2	91	92	414	0.3	413	414	17.9	78.1
2025-09-20T07:52	10	92	0.1	92	92	414	0.3	413	414	17.9	77.9
2025-09-20T07:53	10	93	0.2	92	93	415	0.4	414	416	18.0	78.9
2025-09-20T07:54	10	93	0.2	93	93	416	0.4	415	417	18.1	78.6
2025-09-20T07:55	10	94	0.1	93	94	415	0.3	415	416	18.1	78.6
2025-09-20T07:56	10	94	0.2	94	94	415	0.3	415	416	18.1	74.7
2025-09-20T07:57	10	95	0.1	94	95	415	0.5	414	416	18.1	78.6
2025-09-20T07:58	10	95	0.1	95	95	415	0.2	414	415	18.1	78.6
2025-09-20T07:59	10	96	0.2	95	96	415	0.2	415	416	18.1	78.6
2025-09-20T08:00	10	96	0.1	96	96	416	0.2	416	417	18.1	78.6
2025-09-20T08:01	10	97	0.2	96	97	417	0.7	416	419	18.1	78.6
2025-09-20T08:02	10	97	0.2	96	97	417	0.9	416	419	18.1	80.7
2025-09-20T08:03	10	98	2.1	97	110	416	0.3	416	417	18.0	81.1
2025-09-20T08:04	10	98	0.2	98	99	417	0.3	417	418	18.0	81.1
2025-09-20T08:05	10	98	0.2	98	99	417	0.4	417	418	18.0	81.3
2025-09-20T08:06	10	99	0.3	98	100	418	0.4	417	419	18.0	80.5
2025-09-20T08:07	10	98	0.6	97	100	417	0.3	416	418	18.0	80.2
2025-09-20T08:08	10	99	0.2	99	100	418	0.4	417	419	18.0	78.9
2025-09-20T08:09	10	99	0.4	99	101	419	0.2	418	419	18.1	79.4
2025-09-20T08:10	10	101	0.2	100	101	418	0.4	417	419	18.2	79.4
2025-09-20T08:11	10	101	0.2	101	102	419	0.4	418	420	18.1	79.2
2025-09-20T08:12	10	102	0.2	101	102	420	0.3	419	421	18.2	79.4
2025-09-20T08:13	10	102	0.2	102	103	421	0.3	420	421	18.3	79.0
2025-09-20T08:14	10	103	0.2	102	103	421	0.3	421	422	18.4	78.3
2025-09-20T08:15	10	103	0.2	103	104	422	0.4	421	422	18.5	76.8
2025-09-20T08:16	10	104	0.2	103	104	423	0.3	422	423	18.7	78.3
2025-09-20T08:17	10	104	0.2	104	104	423	0.3	422	424	18.7	76.0
2025-09-20T08:18	10	105	0.2	104	105	423	0.2	423	424	18.8	74.8
2025-09-20T08:19	10	105	0.2	105	106	424	0.4	423	425	18.9	75.1
2025-09-20T08:20	10	106	0.2	105	106	424	0.6	423	425	19.0	76.6
2025-09-20T08:21	10	106	0.2	106	106	424	0.4	423	425	19.0	75.5
2025-09-20T08:22	10	106	0.2	106	107	425	0.2	425	425	19.1	75.4
2025-09-20T08:23	10	107	0.1	107	107	426	0.2	425	426	19.1	77.3
2025-09-20T08:24	10	107	0.1	107	108	426	0.2	425	427	19.1	76.6
2025-09-20T08:25	10	108	0.1	108	108	426	0.2	426	426	19.0	76.6
2025-09-20T08:26	10	108	0.2	108	108	426	0.3	425	427	19.0	76.7
2025-09-20T08:27	10	109	0.1	108	109	426	0.3	426	427	19.0	76.1
2025-09-20T08:28	10	109	0.1	109	109	427	0.3	426	428	19.2	76.3
2025-09-20T08:29	10	109	0.2	109	110	428	0.3	427	429	19.4	77.8
2025-09-20T08:30	10	110	0.2	110	110	427	0.3	427	428	19.7	72.8
2025-09-20T08:31	10	110	0.1	110	111	427	0.2	427	428	19.8	72.1
2025-09-20T08:32	10	111	0.2	111	111	428	0.2	427	428	19.9	70.0
2025-09-20T08:33	10	111	0.1	111	111	428	0.3	428	429	20.0	69.5
2025-09-20T08:34	10	112	0.1	111	112	429	0.4	428	430	20.1	70.5
2025-09-20T08:35	10	112	0.2	112	112	429	0.2	428	429	20.1	69.8
2025-09-20T08:36	10	112	0.2	112	113	429	0.2	429	430	20.4	68.6
2025-09-20T08:37	10	113	0.2	113	113	429	0.3	429	430	20.6	67.4
2025-09-20T08:38	10	113	0.1	113	113	430	0.5	429	431	20.4	68.7
2025-09-20T08:39	10	114	0.1	113	114	430	0.4	429	431	20.3	69.7
2025-09-20T08:40	10	114	0.1	114	114	430	0.2	430	431	20.2	69.6
2025-09-20T08:41	10	114	0.1	114	115	431	0.3	431	432	20.4	69.3
2025-09-20T08:42	10	115	0.1	114	115	432	0.2	431	432	20.6	69.2
2025-09-20T08:43	10	115	0.1	115	115	431	0.3	431	432	20.6	68.9
2025-09-20T08:44	10	115	0.2	115	116	432	0.3	431	433	20.6	68.1
2025-09-20T08:45	10	116	0.2	115	116	432	0.3	431	433	20.4	69.9
2025-09-20T08:46	10	116	0.1	116	116	432	0.2	432	433	20.2	69.9
2025-09-20T08:47	10	116	0.2	116	117	432	0.2	432	433	20.1	71.0
2025-09-20T08:48	10	117	0.2	116	117	433	0.3	432	434	20.2	69.7
2025-09-20T08:49	10	117	0.2	117	117	433	0.2	433	434	20.3	69.0
2025-09-20T08:50	10	118	0.1	117	118	434	0.3	433	434	20.3	69.5
2025-09-20T08:51	10	118	0.1	117	118	433	0.3	433	434	20.1	70.2
2025-09-20T08:52	10	118	0.2	118	118	434	0.2	433	434	20.2	69.9
2025-09-20T08:53	10	119	0.2	118	119	434	0.3	434	435	20.4	70.5
2025-09-20T08:54	10	119	0.1	119	119	435	0.2	435	436	20.4	71.4
2025-09-20T08:55	10	119	0.2	119	120	436	0.3	435	436	20.4	71.8
2025-09-20T08:56	10	120	0.1	120	120	436	0.6	435	437	20.6	72.5
2025-09-20T08:57	10	120	0.1	120	120	436	0.3	435	436	20.4	71.0
2025-09-20T08:58	10	120	0.1	120	121	436	0.4	435	437	20.2	70.2
2025-09-20T08:59	10	121	0.1	121	121	435	0.6	434	436	20.1	69.9
2025-09-20T09:00	10	121	0.1	121	121	434	0.4	433	435	20.1	71.2
2025-09-20T09:01	10	121	0.1	121	122	434	0.3	434	435	20.1	70.0
2025-09-20T09:02	10	122	0.1	122	122	434	0.3	434	435	20.0	70.6
2025-09-20T09:03	10	122	0.1	122	122	434	0.3	434	435	20.0	70.2
2025-09-20T09:04	10	122	0.1	122	123	434	0.2	434	435	20.0	69.8
2025-09-20T09:05	10	123	0.2	122	123	435	0.4	434	436	20.0	70.2
2025-09-20T09:06	10	123	0.1	123	123	436	0.3	435	437	20.1	70.6
2025-09-20T09:07	10	123	0.1	123	124	437	0.3	436	437	20.2	70.5
2025-09-20T09:08	10	124	0.1	123	124	437	0.4	436	437	20.2	70.7
2025-09-20T09:09	10	124	0.1	124	124	437	0.3	436	437	20.2	71.2
2025-09-20T09:10	10	124	0.1	124	125	436	0.4	436	437	20.3	70.6
2025-09-20T09:11	10	125	0.1	125	125	437	0.3	436	438	20.3	70.8
2025-09-20T09:12	10	125	0.1	125	125	438	0.3	437	438	20.4	70.5
2025-09-20T09:13	10	125	0.1	125	126	438	0.4	437	439	20.4	70.8
2025-09-20T09:14	10	126	0.1	125	126	438	0.5	437	439	20.5	70.8
2025-09-20T09:15	10	126	0.1	125	126	437	0.4	437	438	20.4	70.1
2025-09-20T09:16	10	126	0.1	126	126	438	0.8	437	439	20.4	70.5
2025-09-20T09:17	10	126	0.1	126	126	439	0.3	438	440	20.6	71.5
2025-09-20T09:18	10	127	0.2	126	127	438	0.5	437	439	20.7	69.4
2025-09-20T09:19	10	127	0.1	126	127	438	0.2	438	439	20.5	69.8
2025-09-20T09:20	10	127	0.1	127	127	439	0.4	438	440	20.5	70.2
2025-09-20T09:21	10	128	0.1	127	128	440	0.3	440	441	20.6	71.3
2025-09-20T09:22	10	128	0.2	127	128	441	0.4	440	442	20.8	69.1
2025-09-20T09:23	10	128	0.1	128	129	442	0.2	441	442	20.9	69.6
2025-09-20T09:24	10	129	0.2	128	129	442	0.3	442	443	20.9	68.4
2025-09-20T09:25	10	129	0.2	129	130	443	0.4	442	444	21.0	68.8
2025-09-20T09:26	10	129	0.2	129	130	443	0.3	442	443	21.1	70.1
2025-09-20T09:27	10	130	0.2	129	130	443	0.3	442	443	21.0	68.6
2025-09-20T09:28	10	130	0.2	129	130	442	0.4	441	443	20.9	68.8
2025-09-20T09:29	10	130	0.2	130	130	443	0.3	442	444	21.2	69.9
2025-09-20T09:30	10	130	0.2	130	131	443	0.3	443	444	21.3	69.2
2025-09-20T09:31	10	131	0.2	130	131	444	0.3	443	445	21.4	67.8
2025-09-20T09:32	10	131	0.2	130	131	444	0.3	444	445	21.4	69.0
2025-09-20T09:33	10	131	0.2	131	132	444	0.5	443	445	21.5	67.5
2025-09-20T09:34	10	131	0.2	131	132	444	0.3	443	444	21.7	67.1
2025-09-20T09:35	10	132	0.2	131	132	445	0.4	444	445	21.7	65.6
2025-09-20T09:36	10	132	0.2	131	132	445	0.2	444	445	21.5	67.3
2025-09-20T09:37	10	132	0.1	132	133	445	0.3	444	446	21.5	67.5
2025-09-20T09:38	10	133	0.1	132	133	445	0.4	444	445	21.6	67.1
2025-09-20T09:39	10	133	0.1	132	133	445	0.6	444	446	21.7	66.3
2025-09-20T09:40	10	133	0.2	133	134	446	0.2	446	446	21.9	65.5
2025-09-20T09:41	10	133	0.2	133	134	447	0.2	446	447	22.2	65.1
2025-09-20T09:42	10	133	0.2	133	134	447	0.3	446	448	22.6	63.4
2025-09-20T09:43	10	134	0.1	133	134	447	0.2	447	448	22.6	63.7
2025-09-20T09:44	10	134	0.1	134	134	448	0.3	447	448	22.4	64.9
2025-09-20T09:45	10	134	0.1	134	134	449	0.3	448	450	21.9	67.7
2025-09-20T09:46	10	134	0.1	134	134	447	0.6	446	449	21.6	68.2
2025-09-20T09:47	10	135	0.1	134	135	447	0.4	446	448	21.5	68.7
2025-09-20T09:48	10	135	0.1	134	135	446	0.3	446	447	21.4	68.3
2025-09-20T09:49	10	135	0.1	135	135	448	0.5	446	448	21.6	69.2
2025-09-20T09:50	10	135	0.1	135	135	447	0.7	446	449	21.6	68.8
2025-09-20T09:51	10	135	0.1	135	135	447	0.5	446	448	21.5	68.4
2025-09-20T09:52	10	136	0.1	135	136	449	0.5	448	450	21.7	68.7
2025-09-20T09:53	10	136	0.1	135	136	450	0.3	449	451	21.8	67.4
2025-09-20T09:54	10	136	0.1	136	136	450	0.4	449	451	21.8	67.0
2025-09-20T09:55	10	136	0.1	136	136	450	0.4	449	451	21.9	67.9
2025-09-20T09:56	10	136	0.1	136	137	450	0.3	450	451	21.9	69.1
2025-09-20T09:57	10	137	0.1	137	137	451	0.2	450	451	22.0	69.9
2025-09-20T09:58	10	137	0.1	137	137	451	0.5	450	452	22.0	69.8
2025-09-20T09:59	10	137	0.1	137	137	451	0.4	450	451	22.0	70.9
2025-09-20T10:00	10	137	0.1	137	138	450	0.2	449	450	21.6	70.3
2025-09-20T10:01	10	138	0.1	137	138	449	0.5	449	450	21.5	70.8
2025-09-20T10:02	10	138	0.1	137	138	450	0.4	449	450	21.6	69.7
2025-09-20T10:03	10	138	0.1	138	138	451	0.5	449	451	21.7	69.3
2025-09-20T10:04	10	138	0.1	138	138	450	0.2	450	451	21.6	68.9
2025-09-20T10:05	10	138	0.1	138	139	451	0.4	450	452	21.7	69.2
2025-09-20T10:06	10	139	0.1	138	139	452	0.5	451	453	22.0	68.6
2025-09-20T10:07	10	139	0.1	139	139	452	0.4	451	453	21.9	68.6
2025-09-20T10:08	10	139	0.1	139	139	452	0.2	451	452	21.9	67.8
2025-09-20T10:09	10	139	0.1	139	139	452	0.2	451	452	22.0	67.3
2025-09-20T10:10	10	139	0.2	139	139	453	0.4	452	454	22.3	66.5
2025-09-20T10:11	10	139	0.2	139	140	453	0.3	452	453	22.1	66.9
2025-09-20T10:12	10	140	0.1	140	140	454	0.6	453	455	22.2	67.6
2025-09-20T10:13	10	140	0.1	140	140	453	0.6	452	454	22.3	66.9
2025-09-20T10:14	10	140	0.1	140	140	454	0.6	453	455	22.3	66.8
2025-09-20T10:15	10	141	0.1	140	141	454	0.3	453	455	22.3	66.2
2025-09-20T10:16	10	141	0.1	141	141	453	0.3	453	454	22.4	66.0
2025-09-20T10:17	10	141	0.1	141	141	455	0.4	454	455	22.5	66.2
2025-09-20T10:18	10	141	0.1	141	141	454	0.4	453	455	22.3	65.7
2025-09-20T10:19	10	141	0.1	141	141	454	0.3	454	455	22.4	65.8
2025-09-20T10:20	10	141	0.1	141	142	454	0.3	454	455	22.5	65.0
2025-09-20T10:21	10	141	0.1	141	142	455	0.4	454	455	22.8	64.1
2025-09-20T10:22	10	142	0.1	141	142	455	0.3	455	456	22.8	64.9
2025-09-20T10:23	10	142	0.1	142	142	456	0.3	455	457	22.9	64.9
2025-09-20T10:24	10	142	0.1	142	142	456	0.8	454	457	22.8	64.4
2025-09-20T10:25	10	142	0.1	142	142	455	0.3	455	456	22.6	64.6
2025-09-20T10:26	10	142	0.1	142	143	455	0.3	454	456	22.6	64.8
2025-09-20T10:27	10	142	0.2	142	143	456	0.3	455	457	22.7	65.3
2025-09-20T10:28	10	142	0.2	142	143	457	0.5	456	458	22.9	64.3
2025-09-20T10:29	10	143	0.1	142	143	457	0.3	457	458	23.1	64.1
2025-09-20T10:30	10	143	0.1	143	143	458	0.2	457	458	23.6	61.6
2025-09-20T10:31	10	144	0.1	143	144	458	0.2	458	459	23.7	61.3
2025-09-20T10:32	10	144	0.1	143	144	458	0.2	458	459	23.8	60.8
2025-09-20T10:33	10	144	0.1	143	144	459	0.4	458	460	23.8	61.4
2025-09-20T10:34	10	144	0.1	144	144	460	0.3	459	460	23.6	62.7
2025-09-20T10:35	10	144	0.1	144	144	460	0.3	459	460	23.5	62.5
2025-09-20T10:36	10	144	1.1	140	144	459	0.3	459	460	23.5	62.4
2025-09-20T10:37	10	144	0.1	144	144	460	0.4	460	461	23.8	62.5
2025-09-20T10:38	10	144	0.1	144	145	461	0.6	460	462	23.9	64.4
2025-09-20T10:39	10	144	0.1	144	145	460	0.6	458	461	23.6	63.8
2025-09-20T10:40	10	145	0.1	144	145	459	0.4	459	460	23.5	63.0
2025-09-20T10:41	10	145	0.1	144	145	459	1.4	457	461	23.4	63.3
2025-09-20T10:42	10	145	0.1	144	145	457	0.3	456	458	23.1	63.9
2025-09-20T10:43	10	145	0.1	145	145	458	0.4	457	459	23.1	63.9
2025-09-20T10:44	10	145	0.1	144	145	459	0.3	459	460	23.1	63.7
2025-09-20T10:45	10	145	0.1	145	145	461	0.4	460	462	23.3	64.1
2025-09-20T10:46	10	145	0.1	145	145	460	0.4	459	460	23.3	63.7
2025-09-20T10:47	10	145	0.1	145	145	460	0.5	459	461	23.2	63.6
2025-09-20T10:48	10	145	0.1	145	145	460	0.3	459	460	23.1	63.9
2025-09-20T10:49	10	145	0.1	145	146	461	0.6	459	462	23.4	65.2
2025-09-20T10:50	10	145	0.1	145	145	461	0.5	460	462	23.4	63.1
2025-09-20T10:51	10	145	0.1	145	146	461	0.4	461	463	23.4	63.3
2025-09-20T10:52	10	145	0.1	145	146	462	0.5	461	463	23.6	63.5
2025-09-20T10:53	10	146	0.1	145	146	463	0.4	462	464	23.8	64.1
2025-09-20T10:54	10	146	0.1	145	146	463	0.3	462	464	24.0	64.5
2025-09-20T10:55	10	146	0.2	145	146	462	0.8	462	464	24.0	61.7
2025-09-20T10:56	10	146	0.1	145	146	463	0.2	463	464	23.8	62.0
2025-09-20T10:57	10	146	0.1	146	146	464	0.4	464	465	23.8	62.5
2025-09-20T10:58	10	146	0.1	146	146	465	0.4	464	465	23.9	62.9
2025-09-20T10:59	10	146	0.1	146	146	464	0.5	463	465	23.9	62.1
2025-09-20T11:00	10	146	0.1	145	146	464	0.4	463	465	23.9	61.7
2025-09-20T11:01	10	146	0.3	145	146	465	0.4	464	465	24.0	62.6
2025-09-20T11:02	10	146	0.1	146	146	464	0.5	463	465	24.1	61.7
2025-09-20T11:03	10	146	0.2	146	147	464	0.3	464	465	24.1	61.8
2025-09-20T11:04	10	147	0.1	146	147	464	0.6	463	465	24.0	62.0
2025-09-20T11:05	10	146	0.1	146	147	464	0.4	463	465	24.0	60.9
2025-09-20T11:06	10	146	0.1	146	147	463	0.9	461	464	24.2	60.1
2025-09-20T11:07	10	146	0.2	146	147	462	0.3	461	463	24.1	59.7
2025-09-20T11:08	10	147	0.1	147	147	462	0.5	461	463	24.1	60.3
2025-09-20T11:09	10	147	0.1	147	147	464	0.5	463	465	24.1	59.7
2025-09-20T11:10	10	147	0.2	147	148	465	0.4	464	466	24.2	60.7
2025-09-20T11:11	10	148	0.1	148	148	464	0.6	463	465	24.2	61.0
2025-09-20T11:12	10	148	0.1	148	148	464	0.8	463	466	24.1	60.3
2025-09-20T11:13	10	148	0.1	148	149	466	0.5	465	466	24.4	61.7
2025-09-20T11:14	10	149	0.1	148	149	463	0.8	462	465	24.2	60.1
2025-09-20T11:15	10	148	0.1	148	149	464	1.1	462	465	24.2	60.5
2025-09-20T11:16	10	148	0.2	148	149	462	1.5	460	465	24.2	59.7
2025-09-20T11:17	10	148	0.2	148	149	461	0.4	461	462	24.0	60.5
2025-09-20T11:18	10	148	0.2	147	148	462	0.6	461	464	24.0	60.8
2025-09-20T11:19	10	148	0.1	147	148	464	0.7	462	465	24.0	60.9
2025-09-20T11:20	10	148	0.2	147	148	465	0.2	465	466	24.0	60.8
2025-09-20T11:21	10	148	0.2	147	148	465	0.6	464	466	24.1	60.7
2025-09-20T11:22	10	148	0.2	147	148	466	0.6	464	466	24.2	60.4
2025-09-20T11:23	10	148	0.1	147	148	466	0.5	465	467	24.3	61.8
2025-09-20T11:24	10	148	0.1	148	148	466	0.2	465	466	24.1	62.7
2025-09-20T11:25	10	148	0.1	148	148	466	0.2	466	467	24.2	63.0
2025-09-20T11:26	10	148	0.1	148	148	464	1.2	463	466	24.3	63.8
2025-09-20T11:27	10	148	0.1	148	149	463	0.5	462	464	24.2	65.3
2025-09-20T11:28	10	148	0.1	148	148	464	1.0	462	466	24.2	64.5
2025-09-20T11:29	10	148	0.1	148	148	463	0.6	462	465	24.2	65.6
2025-09-20T11:30	10	148	0.1	148	149	466	1.0	464	468	24.3	65.1
2025-09-20T11:31	10	149	0.2	148	149	466	1.1	464	467	24.3	64.8
2025-09-20T11:32	10	149	0.1	149	149	465	0.6	464	466	24.3	63.6
2025-09-20T11:33	10	149	0.1	149	149	465	1.3	463	467	24.2	63.1
2025-09-20T11:34	10	149	0.1	149	150	468	0.5	467	468	24.4	63.9
2025-09-20T11:35	10	149	0.1	149	150	466	0.6	465	467	24.5	62.9
2025-09-20T11:36	10	149	0.1	149	150	465	0.5	464	466	24.6	62.2
2025-09-20T11:37	10	150	0.2	149	150	465	0.4	464	465	24.5	61.7
2025-09-20T11:38	10	150	0.1	150	150	467	1.2	465	469	24.5	62.3
2025-09-20T11:39	10	150	0.1	150	150	467	0.8	466	469	24.7	62.4
2025-09-20T11:40	10	150	0.1	150	150	466	0.5	465	467	24.6	62.3
2025-09-20T11:41	10	150	0.2	150	151	468	0.7	467	469	24.7	63.0
2025-09-20T11:42	10	151	0.2	150	151	469	0.3	468	469	24.7	61.3
2025-09-20T11:43	10	151	0.1	151	152	468	0.8	467	470	24.8	63.2
2025-09-20T11:44	10	151	0.1	151	152	467	1.0	465	468	24.8	62.1
2025-09-20T11:45	10	151	0.2	151	152	467	0.4	466	467	24.6	61.7
2025-09-20T11:46	10	151	0.1	151	152	468	0.9	467	470	24.8	62.1
2025-09-20T11:47	10	151	1.0	149	153	468	0.7	467	470	24.9	60.7
2025-09-20T11:48	10	152	2.8	147	156	467	0.5	466	468	24.9	58.6
2025-09-20T11:49	10	138	5.8	128	150	467	0.4	467	468	25.1	58.9
2025-09-20T11:50	10	145	4.5	134	152	469	0.9	468	471	25.2	60.8
2025-09-20T11:51	10	155	0.7	152	155	471	0.6	470	472	25.3	62.3
2025-09-20T11:52	10	154	0.2	154	155	471	1.0	470	472	25.3	60.6
2025-09-20T11:53	10	154	0.1	154	154	469	0.9	468	471	25.0	60.7
2025-09-20T11:54	10	155	0.2	154	155	469	0.7	468	470	25.0	60.7
2025-09-20T11:55	10	155	0.3	154	155	470	0.4	469	471	25.1	61.1
2025-09-20T11:56	10	155	0.1	155	155	470	0.6	469	471	24.9	61.6
2025-09-20T11:57	10	155	0.2	155	156	469	0.5	468	470	24.7	61.8
2025-09-20T11:58	10	156	0.2	156	156	469	0.3	468	470	24.6	62.1
2025-09-20T11:59	10	154	2.5	148	156	470	0.6	469	471	24.7	62.6
2025-09-20T12:00	10	127	15.8	103	148	469	1.6	467	471	25.0	63.6
2025-09-20T12:01	10	155	3.7	139	158	470	1.1	467	472	25.2	61.6
2025-09-20T12:02	10	152	2.6	148	156	471	0.2	471	471	25.3	60.6
2025-09-20T12:03	10	158	0.9	156	159	472	0.4	471	473	25.5	61.2
2025-09-20T12:04	10	158	0.9	157	160	473	0.3	472	473	25.7	57.5
2025-09-20T12:05	10	162	0.9	160	163	474	0.4	473	475	26.0	56.5
2025-09-20T12:06	10	158	11.0	133	167	473	0.9	471	475	25.9	56.2
2025-09-20T12:07	10	128	11.4	110	147	471	1.4	468	473	25.9	56.3
2025-09-20T12:08	10	121	26.4	76	154	469	2.1	464	471	26.0	56.4
2025-09-20T12:09	10	81	4.1	75	89	463	1.3	461	466	25.9	56.1
2025-09-20T12:10	10	97	19.4	75	137	462	1.2	460	465	25.8	57.0
2025-09-20T12:11	10	90	36.2	51	144	464	3.1	458	468	25.9	55.8
2025-09-20T12:12	10	91	19.5	52	116	461	2.0	458	464	26.0	57.5
2025-09-20T12:13	10	123	27.2	87	168	465	2.4	461	468	26.0	57.3
2025-09-20T12:14	10	132	39.7	75	179	466	3.9	462	473	26.0	56.5
2025-09-20T12:15	10	190	6.5	175	196	475	2.0	470	477	26.2	56.5
2025-09-20T12:16	10	197	0.2	196	197	478	0.6	476	479	26.4	55.0
2025-09-20T12:17	10	166	21.1	117	197	476	1.5	473	478	26.4	55.6
2025-09-20T12:18	10	188	6.4	168	194	478	1.1	476	479	26.3	55.2
2025-09-20T12:19	10	192	2.4	187	195	479	0.4	478	479	26.2	56.4
2025-09-20T12:20	10	156	34.7	112	196	476	2.7	471	479	26.1	55.6
2025-09-20T12:21	10	106	21.1	73	151	471	2.5	466	474	26.3	57.3
2025-09-20T12:22	10	98	7.5	84	113	466	1.5	464	468	26.3	55.9
2025-09-20T12:23	10	151	22.7	108	190	468	2.8	464	474	26.3	53.1
2025-09-20T12:24	10	185	9.7	166	196	475	2.3	472	479	26.3	52.1
2025-09-20T12:25	10	178	12.0	150	194	477	0.9	475	479	26.3	52.4
2025-09-20T12:26	10	191	1.5	189	194	478	0.5	477	479	26.5	54.7
2025-09-20T12:27	10	189	0.4	187	189	480	0.5	478	480	26.5	53.8
2025-09-20T12:28	10	177	12.4	148	190	479	1.4	477	482	26.6	50.7
2025-09-20T12:29	10	178	6.3	163	187	477	0.9	476	479	27.1	46.4
2025-09-20T12:30	10	189	1.3	183	190	478	1.0	476	480	27.3	49.7
2025-09-20T12:31	10	179	7.9	161	188	479	1.0	477	481	27.1	50.4
2025-09-20T12:32	10	154	15.7	125	177	478	0.8	476	479	27.0	49.0
2025-09-20T12:33	10	144	16.5	119	167	476	0.5	475	477	27.2	49.3
2025-09-20T12:34	10	167	22.3	111	191	476	1.4	474	478	27.3	46.1
2025-09-20T12:35	10	133	19.7	110	182	473	1.4	471	476	27.3	44.9
2025-09-20T12:36	10	163	19.6	125	190	474	1.8	471	476	27.4	44.2
2025-09-20T12:37	10	167	12.0	144	184	474	1.5	470	475	27.4	43.8
2025-09-20T12:38	10	171	12.9	145	191	471	1.2	469	473	27.2	42.1
2025-09-20T12:39	10	167	9.5	149	184	474	1.5	472	477	27.4	43.2
2025-09-20T12:40	10	125	9.3	106	148	471	2.1	467	475	27.5	43.8
2025-09-20T12:41	10	115	10.2	94	136	467	1.3	465	469	27.5	43.5
2025-09-20T12:42	10	85	7.9	75	96	465	1.1	463	467	27.5	44.6
2025-09-20T12:43	10	90	5.9	82	101	463	0.4	462	464	27.5	43.6
2025-09-20T12:44	10	99	13.1	83	135	462	0.5	461	464	27.3	40.8
2025-09-20T12:45	10	133	9.3	115	153	463	0.3	462	463	27.1	42.4
2025-09-20T12:46	10	102	11.3	86	122	461	1.3	460	464	27.0	41.5
2025-09-20T12:47	10	90	5.6	79	99	459	1.1	458	461	27.1	42.5
2025-09-20T12:48	10	87	4.8	80	98	457	0.6	456	459	27.1	42.9
2025-09-20T12:49	10	89	8.5	79	108	457	1.1	456	459	27.1	43.1
2025-09-20T12:50	10	101	14.1	85	130	460	1.9	458	463	27.2	43.5
2025-09-20T12:51	10	110	18.0	80	138	463	1.0	460	465	27.2	43.3
2025-09-20T12:52	10	98	13.2	85	136	460	1.6	458	463	27.2	42.2
2025-09-20T12:53	10	115	24.5	81	170	459	1.1	456	461	27.2	41.5
2025-09-20T12:54	10	118	13.2	88	145	458	1.3	456	460	27.1	40.4
2025-09-20T12:55	10	107	22.6	82	165	458	1.6	455	461	27.2	41.4
2025-09-20T12:56	10	102	14.9	87	135	457	1.2	455	459	27.2	40.1
2025-09-20T12:57	10	123	15.7	101	153	458	1.9	455	461	27.1	40.3
2025-09-20T12:58	10	167	13.5	137	182	464	1.8	459	466	27.2	40.1
2025-09-20T12:59	10	158	7.5	143	171	466	0.6	465	468	27.2	39.7
2025-09-20T13:00	10	169	1.9	165	172	467	0.8	465	468	27.3	40.4
2025-09-20T13:01	10	166	1.1	165	168	467	0.6	466	468	27.4	40.2
2025-09-20T13:02	10	164	0.6	162	165	465	1.7	462	468	27.6	40.3
2025-09-20T13:03	10	161	0.8	160	163	464	1.2	463	466	27.4	38.8
2025-09-20T13:04	10	159	0.7	158	160	465	0.7	464	466	27.3	39.5
2025-09-20T13:05	10	156	0.8	155	158	466	1.2	464	468	27.4	40.6
2025-09-20T13:06	10	154	0.8	152	155	467	0.8	465	468	27.6	40.6
2025-09-20T13:07	10	151	0.7	150	152	465	0.4	464	466	27.2	39.3
2025-09-20T13:08	10	150	0.4	149	150	467	1.2	465	470	27.4	40.7
2025-09-20T13:09	10	149	0.4	148	149	469	1.0	467	471	27.5	41.0
2025-09-20T13:10	10	147	0.3	147	148	468	0.6	467	469	27.5	40.4
2025-09-20T13:11	10	146	0.4	145	147	468	1.5	466	470	27.6	40.3
2025-09-20T13:12	10	145	0.5	144	146	467	1.4	464	468	27.6	40.1
2025-09-20T13:13	10	144	0.4	143	145	464	0.5	463	465	27.4	40.1
2025-09-20T13:14	10	142	0.4	141	143	464	0.6	463	465	27.5	40.2
2025-09-20T13:15	10	141	0.3	141	142	464	0.6	462	465	27.5	39.1
2025-09-20T13:16	10	140	0.3	140	141	464	0.4	463	465	27.5	39.8
2025-09-20T13:17	10	140	0.2	139	140	465	0.5	464	467	27.6	39.8
2025-09-20T13:18	10	139	0.2	139	140	465	0.7	463	467	27.5	38.5
2025-09-20T13:19	10	139	0.2	139	139	464	0.5	463	465	27.6	38.3
2025-09-20T13:20	10	138	0.2	138	139	463	0.7	462	464	27.6	38.7
2025-09-20T13:21	10	138	0.2	137	138	465	0.4	464	465	27.7	39.4
2025-09-20T13:22	10	138	0.1	137	138	466	1.5	464	468	27.8	40.4
2025-09-20T13:23	10	137	0.1	137	138	467	0.7	465	467	27.9	39.7
2025-09-20T13:24	10	137	0.1	137	137	467	1.4	464	469	27.9	40.4
2025-09-20T13:25	10	137	0.1	136	137	470	1.0	468	471	28.0	40.4
2025-09-20T13:26	10	136	0.1	136	137	469	2.2	465	472	28.0	39.5
2025-09-20T13:27	10	136	0.2	136	136	465	1.0	464	467	27.9	39.0
2025-09-20T13:28	10	135	0.2	135	135	467	1.6	464	470	28.1	40.7
2025-09-20T13:29	10	135	0.1	135	135	468	0.6	466	469	28.1	38.7
2025-09-20T13:30	10	135	0.2	134	135	465	0.8	464	467	27.9	38.6
2025-09-20T13:31	10	134	0.1	134	135	465	1.1	463	466	27.9	39.0
2025-09-20T13:32	10	134	0.1	134	134	465	1.4	463	467	27.9	38.4
2025-09-20T13:33	10	133	0.1	133	134	465	0.8	463	466	27.9	38.9
2025-09-20T13:34	10	133	0.3	132	133	464	1.5	462	466	27.8	38.3
2025-09-20T13:35	10	133	0.1	133	133	464	0.7	462	465	27.8	38.7
2025-09-20T13:36	10	133	0.1	132	133	463	0.4	462	463	27.8	37.6
2025-09-20T13:37	10	132	0.2	132	133	463	0.4	462	463	27.8	37.5
2025-09-20T13:38	10	132	0.1	132	132	463	0.3	462	464	27.8	37.4
2025-09-20T13:39	10	132	0.2	131	132	464	0.9	462	466	27.8	38.3
2025-09-20T13:40	10	131	0.1	131	132	467	1.3	465	469	27.9	38.4
2025-09-20T13:41	10	131	0.1	131	131	469	0.4	467	470	28.0	39.2
2025-09-20T13:42	10	131	0.2	130	131	466	2.8	462	470	28.0	38.0
2025-09-20T13:43	10	131	0.1	130	131	464	1.0	462	466	28.0	38.4
2025-09-20T13:44	10	130	0.2	130	131	462	0.6	461	463	27.9	37.6
2025-09-20T13:45	10	130	0.1	130	130	463	0.8	462	464	27.9	37.9
2025-09-20T13:46	10	130	0.1	129	130	464	0.6	463	465	27.9	38.2
2025-09-20T13:47	10	129	0.1	129	129	463	1.0	462	465	28.0	38.5
2025-09-20T13:48	10	129	0.1	129	129	462	0.8	461	464	27.8	38.2
2025-09-20T13:49	10	129	0.2	128	129	461	0.8	460	463	27.7	37.6
2025-09-20T13:50	10	128	0.2	128	128	462	0.8	460	463	27.7	38.1
2025-09-20T13:51	10	127	0.2	127	128	463	0.5	462	464	27.9	39.2
2025-09-20T13:52	10	127	0.1	127	127	465	0.6	464	467	27.9	39.3
2025-09-20T13:53	10	127	0.1	127	127	464	0.8	463	466	27.9	38.8
2025-09-20T13:54	10	127	0.2	126	127	463	1.0	461	465	27.9	38.5
2025-09-20T13:55	10	126	0.2	126	127	462	0.9	460	463	27.8	37.6
2025-09-20T13:56	10	126	0.2	125	126	461	0.6	460	463	27.8	37.7
2025-09-20T13:57	10	125	0.2	125	126	462	0.6	461	463	27.8	38.1
2025-09-20T13:58	10	125	0.1	125	125	462	0.6	461	463	27.9	37.8
2025-09-20T13:59	10	125	0.2	124	125	462	0.5	461	463	27.9	38.2
2025-09-20T14:00	10	124	0.2	124	125	462	0.7	461	463	28.0	39.1
2025-09-20T14:01	10	124	0.1	124	124	462	0.4	461	463	28.0	38.6
2025-09-20T14:02	10	124	0.1	123	124	461	0.5	460	462	28.0	38.9
2025-09-20T14:03	10	123	0.1	123	124	461	0.3	460	462	28.0	38.2
2025-09-20T14:04	10	123	0.1	123	123	462	0.5	461	463	28.0	38.4
2025-09-20T14:05	10	123	0.1	122	123	463	0.7	462	465	28.0	38.4
2025-09-20T14:06	10	122	0.2	122	123	462	0.6	461	464	28.0	37.8
2025-09-20T14:07	10	122	0.1	122	122	464	0.4	463	465	28.0	39.4
2025-09-20T14:08	10	122	0.2	121	122	464	0.4	463	465	28.1	38.5
2025-09-20T14:09	10	121	0.2	121	122	463	0.6	462	464	28.0	38.0
2025-09-20T14:10	10	121	0.1	121	121	463	0.4	462	464	28.1	38.1
2025-09-20T14:11	10	121	0.1	120	121	463	0.3	462	464	28.2	38.5
2025-09-20T14:12	10	120	0.2	120	121	462	0.5	462	463	28.1	38.2
2025-09-20T14:13	10	120	0.2	120	120	462	0.4	462	463	28.1	38.6
2025-09-20T14:14	10	119	0.2	119	120	463	0.5	462	464	28.0	38.3
2025-09-20T14:15	10	119	0.2	119	119	462	1.7	459	464	28.1	37.8
2025-09-20T14:16	10	119	0.2	118	119	459	0.5	458	460	28.0	37.5
2025-09-20T14:17	10	118	0.2	118	119	460	0.5	459	461	28.1	38.1
2025-09-20T14:18	10	118	0.1	118	118	460	1.0	458	461	28.0	37.6
2025-09-20T14:19	10	117	0.2	117	118	459	0.3	458	459	27.9	37.5
2025-09-20T14:20	10	117	0.2	117	117	459	0.5	458	459	27.9	37.7
2025-09-20T14:21	10	116	0.2	116	117	458	0.9	457	460	27.9	37.1
2025-09-20T14:22	10	116	0.1	116	116	459	0.5	458	460	27.9	37.8
2025-09-20T14:23	10	116	0.2	115	116	457	0.8	456	458	27.9	36.7
2025-09-20T14:24	10	115	0.2	115	115	457	0.6	457	459	27.9	37.4
2025-09-20T14:25	10	115	0.1	115	115	458	0.5	457	459	28.0	37.7
2025-09-20T14:26	10	115	0.2	114	115	457	0.4	456	458	27.9	37.2
2025-09-20T14:27	10	114	0.2	114	114	456	0.3	456	457	27.9	36.9
2025-09-20T14:28	10	114	0.1	113	114	456	0.7	455	458	27.9	37.3
2025-09-20T14:29	10	113	0.2	113	114	458	0.4	457	459	28.0	38.0
2025-09-20T14:30	10	113	0.1	113	113	458	0.4	457	458	28.0	37.5
2025-09-20T14:31	10	113	0.1	112	113	457	0.5	456	458	27.9	37.8
2025-09-20T14:32	10	112	0.3	112	113	457	0.2	456	457	27.9	38.1
2025-09-20T14:33	10	111	0.1	111	112	458	1.0	457	460	28.0	38.5
2025-09-20T14:34	10	111	0.1	111	111	459	1.0	457	460	28.0	37.5
2025-09-20T14:35	10	111	0.2	111	111	457	0.3	456	458	27.8	37.4
2025-09-20T14:36	10	110	0.2	110	111	456	0.5	455	457	27.8	38.6
2025-09-20T14:37	10	110	0.2	109	110	457	0.3	456	457	27.8	39.2
2025-09-20T14:38	10	109	0.2	109	110	455	0.6	454	456	27.7	38.5
2025-09-20T14:39	10	109	0.2	108	109	455	0.5	454	456	27.7	39.1
2025-09-20T14:40	10	109	0.1	108	109	456	0.6	455	457	27.7	38.8
2025-09-20T14:41	10	108	0.2	108	108	457	0.5	456	458	27.8	39.9
2025-09-20T14:42	10	108	0.1	108	108	457	0.7	456	458	27.9	39.9
2025-09-20T14:43	10	107	0.2	107	108	456	0.4	455	457	27.8	39.9
2025-09-20T14:44	10	107	0.2	106	107	456	0.4	456	457	27.7	40.5
2025-09-20T14:45	10	106	0.2	106	106	456	0.5	455	457	27.7	40.1
2025-09-20T14:46	10	106	0.1	105	106	456	0.6	455	457	27.7	39.8
2025-09-20T14:47	10	105	0.1	105	106	456	0.4	455	457	27.8	39.5
2025-09-20T14:48	10	105	0.2	105	105	456	0.7	455	457	27.8	40.1
2025-09-20T14:49	10	105	0.2	104	105	455	0.5	454	456	27.8	39.2
2025-09-20T14:50	10	104	0.1	104	104	455	0.6	454	456	27.8	40.3
2025-09-20T14:51	10	104	0.1	103	104	456	0.4	455	456	27.8	40.2
2025-09-20T14:52	10	103	0.2	103	104	455	0.5	453	455	27.7	40.0
2025-09-20T14:53	10	103	0.2	102	103	454	0.3	453	454	27.7	39.1
2025-09-20T14:54	10	102	0.2	102	103	454	0.3	453	454	27.7	39.4
2025-09-20T14:55	10	102	0.2	101	102	454	0.5	453	455	27.7	40.2
2025-09-20T14:56	10	102	0.1	101	102	455	0.3	454	456	27.8	39.6
2025-09-20T14:57	10	102	0.1	101	102	454	0.3	453	454	27.8	38.2
2025-09-20T14:58	10	102	0.1	101	102	453	0.6	452	454	27.8	38.0
2025-09-20T14:59	10	101	0.1	101	101	453	0.6	452	454	27.8	39.1
2025-09-20T15:00	10	101	0.2	101	101	453	0.6	452	455	27.8	39.4
2025-09-20T15:01	10	100	0.2	100	101	454	0.3	454	455	27.8	40.2
2025-09-20T15:02	10	100	0.2	99	100	455	0.5	454	456	27.8	40.1
2025-09-20T15:03	10	99	0.2	99	99	453	0.4	453	454	27.7	39.0
2025-09-20T15:04	10	98	0.3	98	99	453	0.4	452	454	27.7	39.4
2025-09-20T15:05	10	97	0.2	97	98	453	0.4	452	454	27.7	39.9
2025-09-20T15:06	10	97	0.2	96	97	454	0.6	453	455	27.8	40.8
2025-09-20T15:07	10	96	0.2	96	96	454	0.9	452	456	27.8	40.2
2025-09-20T15:08	10	95	0.2	95	96	452	0.3	452	453	27.7	39.9
2025-09-20T15:09	10	95	0.2	95	95	452	0.3	451	453	27.7	40.4
2025-09-20T15:10	10	94	0.2	94	95	453	0.3	452	454	27.6	42.0
2025-09-20T15:11	10	94	0.2	93	94	453	0.3	452	453	27.5	42.2
2025-09-20T15:12	10	93	0.2	93	94	452	0.4	452	453	27.5	42.8
2025-09-20T15:13	10	93	0.1	92	93	453	0.4	453	454	27.5	43.3
2025-09-20T15:14	10	92	0.3	91	93	453	0.5	452	454	27.5	42.7
2025-09-20T15:15	10	91	0.2	91	92	452	0.5	452	453	27.5	43.0
2025-09-20T15:16	10	91	0.1	90	91	452	0.3	451	453	27.4	43.1
2025-09-20T15:17	10	90	0.2	90	91	452	0.2	452	453	27.4	43.4
2025-09-20T15:18	10	90	0.2	89	90	453	0.4	452	453	27.5	43.5
2025-09-20T15:19	10	89	0.2	89	90	453	0.4	452	454	27.5	44.7
2025-09-20T15:20	10	89	0.1	89	89	454	0.3	453	454	27.5	44.2
2025-09-20T15:21	10	88	0.2	88	89	452	0.5	451	453	27.5	43.6
2025-09-20T15:22	10	88	0.2	88	88	452	0.2	451	453	27.4	43.7
2025-09-20T15:23	10	87	0.2	87	88	452	0.3	451	452	27.5	44.1
2025-09-20T15:24	10	87	0.2	86	87	451	0.4	450	452	27.4	43.8
2025-09-20T15:25	10	86	0.2	86	86	451	0.3	450	452	27.3	44.9
2025-09-20T15:26	10	86	0.2	85	86	451	0.3	450	452	27.3	44.6
2025-09-20T15:27	10	85	0.3	84	85	451	0.3	450	451	27.3	44.6
2025-09-20T15:28	10	84	0.1	84	84	451	0.4	450	452	27.4	45.0
2025-09-20T15:29	10	84	0.2	83	84	450	0.4	449	451	27.3	43.6
2025-09-20T15:30	10	83	0.2	83	83	450	0.5	449	451	27.3	44.8
2025-09-20T15:31	10	83	0.2	82	83	451	0.2	451	452	27.3	46.4
2025-09-20T15:32	10	82	0.2	82	82	450	0.8	449	452	27.3	45.5
2025-09-20T15:33	10	81	0.2	81	82	449	0.2	449	450	27.3	44.6
2025-09-20T15:34	10	81	0.2	80	81	449	0.3	449	450	27.3	45.5
2025-09-20T15:35	10	80	0.2	80	81	449	0.3	448	449	27.3	45.5
2025-09-20T15:36	10	80	0.3	79	80	449	0.4	448	450	27.2	45.0
2025-09-20T15:37	10	78	0.4	78	79	449	0.2	448	450	27.2	45.9
2025-09-20T15:38	10	78	0.5	77	79	449	0.3	449	450	27.2	46.0
2025-09-20T15:39	10	78	0.2	77	78	449	0.3	448	450	27.2	45.0
2025-09-20T15:40	10	77	0.2	77	78	448	0.5	447	449	27.2	44.6
2025-09-20T15:41	10	77	0.2	76	77	448	0.2	447	448	27.2	44.8
2025-09-20T15:42	10	76	0.2	76	77	447	0.2	447	448	27.2	44.1
2025-09-20T15:43	10	76	0.2	75	76	448	0.3	447	448	27.2	44.8
2025-09-20T15:44	10	75	0.2	74	75	447	0.2	446	447	27.2	44.5
2025-09-20T15:45	10	74	0.2	74	75	447	0.2	446	447	27.2	44.3
2025-09-20T15:46	10	74	0.2	73	74	446	0.4	446	447	27.2	43.6
2025-09-20T15:47	10	73	0.2	73	73	446	0.5	445	447	27.2	44.2
2025-09-20T15:48	10	73	0.2	72	73	447	0.3	447	448	27.2	44.6
2025-09-20T15:49	10	72	0.2	71	72	446	0.2	446	447	27.2	44.1
2025-09-20T15:50	10	71	0.2	71	72	446	0.3	446	447	27.2	44.3
2025-09-20T15:51	10	71	0.2	70	71	446	0.4	445	447	27.2	45.0
2025-09-20T15:52	10	70	0.2	70	70	446	0.3	445	446	27.1	45.8
2025-09-20T15:53	10	69	0.2	69	70	446	0.2	446	447	27.1	46.2
2025-09-20T15:54	10	69	0.1	69	69	446	0.3	446	447	27.1	45.6
2025-09-20T15:55	10	68	0.2	68	69	446	0.4	445	447	27.1	47.1
2025-09-20T15:56	10	68	0.1	67	68	446	0.3	445	447	27.1	46.5
2025-09-20T15:57	10	67	0.2	66	67	445	0.7	444	447	27.1	45.1
2025-09-20T15:58	10	66	0.2	66	67	445	0.2	444	445	27.1	45.6
2025-09-20T15:59	10	66	0.3	65	66	445	0.4	444	445	27.1	45.1
2025-09-20T16:00	10	51	12.6	27	65	443	1.1	441	445	27.1	45.0
2025-09-20T16:01	10	16	4.7	10	27	439	1.5	437	442	26.9	46.5
2025-09-20T16:02	10	10	0.3	9	11	436	0.7	435	438	26.8	46.4
2025-09-20T16:03	10	13	2.5	10	17	435	0.2	435	436	26.8	45.8
2025-09-20T16:04	10	15	2.6	12	20	434	0.3	434	435	26.7	46.7
2025-09-20T16:05	10	23	5.2	13	30	435	0.6	434	436	26.7	46.9
2025-09-20T16:06	10	38	6.5	26	49	436	1.2	434	438	26.7	45.5
2025-09-20T16:07	10	47	8.7	32	57	438	0.8	437	440	26.7	46.0
2025-09-20T16:08	10	56	3.2	50	60	439	0.5	438	441	26.7	45.8
2025-09-20T16:09	10	59	1.5	57	61	440	0.6	439	442	26.7	45.7
2025-09-20T16:10	10	59	0.7	58	60	441	0.3	440	442	26.7	46.4
2025-09-20T16:11	10	60	0.2	60	60	442	0.4	441	442	26.7	47.0
2025-09-20T16:12	10	60	0.3	59	60	442	0.3	441	443	26.7	46.6
2025-09-20T16:13	10	59	1.1	54	60	441	0.3	441	442	26.7	46.7
2025-09-20T16:14	10	32	11.8	18	54	439	1.8	436	442	26.7	46.2
2025-09-20T16:15	10	21	4.1	16	28	436	0.5	435	437	26.6	47.5
2025-09-20T16:16	10	25	1.8	20	28	435	0.4	434	436	26.6	46.2
2025-09-20T16:17	10	22	1.6	19	25	434	0.3	433	435	26.6	45.8
2025-09-20T16:18	10	14	2.0	12	20	433	0.6	432	434	26.5	45.3
2025-09-20T16:19	10	15	0.2	15	16	432	0.3	431	433	26.5	45.1
2025-09-20T16:20	10	23	3.9	16	34	432	0.4	431	433	26.4	45.9
2025-09-20T16:21	10	36	1.9	33	40	433	0.5	432	434	26.4	45.8
2025-09-20T16:22	10	28	5.4	21	35	433	0.6	432	434	26.4	45.5
2025-09-20T16:23	10	16	1.6	14	21	432	0.4	431	432	26.3	46.2
2025-09-20T16:24	10	15	1.0	14	18	431	0.5	429	432	26.4	45.7
2025-09-20T16:25	10	15	1.2	14	18	430	0.3	429	431	26.3	46.0
2025-09-20T16:26	10	19	2.9	14	24	430	0.3	429	431	26.3	45.9
2025-09-20T16:27	10	21	3.3	17	26	430	0.4	430	431	26.3	45.9
2025-09-20T16:28	10	16	1.0	15	20	430	0.2	430	430	26.3	46.3
2025-09-20T16:29	10	32	4.4	20	36	431	1.0	429	432	26.2	46.5
2025-09-20T16:30	10	35	1.6	32	37	431	0.4	431	432	26.2	46.7
2025-09-20T16:31	10	31	3.6	26	37	432	0.3	431	432	26.2	47.0
2025-09-20T16:32	10	40	1.8	37	43	433	0.5	432	434	26.2	47.2
2025-09-20T16:33	10	44	0.1	43	44	433	0.4	433	434	26.1	47.5
2025-09-20T16:34	10	42	0.7	42	43	434	0.3	433	435	26.1	47.8
2025-09-20T16:35	10	41	0.4	40	42	435	0.3	434	435	26.1	47.8
2025-09-20T16:36	10	40	0.2	40	40	435	0.3	434	436	26.1	48.1
2025-09-20T16:37	10	40	0.1	40	41	435	0.2	435	436	26.1	48.0
2025-09-20T16:38	10	39	1.0	37	40	435	0.2	435	436	26.2	47.9
2025-09-20T16:39	10	39	1.0	37	40	435	0.3	434	436	26.2	48.0
2025-09-20T16:40	10	41	0.2	40	41	435	0.2	435	436	26.2	48.1
2025-09-20T16:41	10	40	0.4	40	41	435	0.6	434	436	26.2	48.0
2025-09-20T16:42	10	39	0.6	38	40	434	0.2	433	434	26.2	48.6
2025-09-20T16:43	10	37	0.6	36	38	433	0.3	433	434	26.1	49.2
2025-09-20T16:44	10	35	0.6	34	36	433	0.3	433	434	26.0	49.6
2025-09-20T16:45	10	33	0.6	31	34	432	0.2	432	433	25.9	50.0
2025-09-20T16:46	10	31	0.2	30	31	432	0.3	431	433	25.9	50.1
2025-09-20T16:47	10	29	0.9	28	31	432	0.2	431	432	25.9	49.9
2025-09-20T16:48	10	30	1.0	28	31	431	0.2	431	431	25.9	49.5
2025-09-20T16:49	10	30	0.6	29	31	431	0.3	430	431	25.9	50.0
2025-09-20T16:50	10	25	2.4	21	29	431	0.4	430	432	25.9	50.0
2025-09-20T16:51	10	17	1.5	16	20	430	0.4	429	430	25.9	50.2
2025-09-20T16:52	10	19	1.7	16	22	429	0.2	428	429	25.8	50.4
2025-09-20T16:53	10	23	0.5	22	24	428	0.3	428	429	25.8	50.9
2025-09-20T16:54	10	23	0.1	23	24	428	0.3	427	429	25.7	51.4
2025-09-20T16:55	10	24	0.3	23	24	428	0.3	427	429	25.7	51.2
2025-09-20T16:56	10	23	0.8	22	24	428	0.2	427	428	25.7	51.2
2025-09-20T16:57	10	22	0.3	21	22	428	0.2	427	428	25.7	51.2
2025-09-20T16:58	10	23	0.2	22	23	427	0.3	427	428	25.8	50.5
2025-09-20T16:59	10	23	0.1	23	23	427	0.2	427	428	25.8	50.5
2025-09-20T17:00	10	23	0.1	23	23	427	0.2	426	427	25.8	51.3
2025-09-20T17:01	10	22	0.2	22	23	427	0.2	426	427	25.8	51.1
2025-09-20T17:02	10	22	0.3	21	22	427	0.3	426	427	25.8	50.4
2025-09-20T17:03	10	20	0.5	20	21	426	0.4	426	427	25.9	49.8
2025-09-20T17:04	10	19	0.2	19	20	426	0.3	425	426	25.8	50.4
2025-09-20T17:05	10	18	0.7	17	19	426	0.2	425	426	25.8	48.9
2025-09-20T17:06	10	15	1.4	12	17	425	0.5	425	426	25.8	49.0
2025-09-20T17:07	10	10	1.0	9	12	424	0.5	423	425	25.8	50.0
2025-09-20T17:08	10	8	0.6	7	9	423	0.4	423	424	25.8	49.7
2025-09-20T17:09	10	7	0.3	7	8	423	0.3	422	423	25.7	50.9
2025-09-20T17:10	10	9	0.7	8	10	422	0.2	422	423	25.6	51.1
2025-09-20T17:11	10	11	0.3	10	11	422	0.2	422	422	25.6	50.5
2025-09-20T17:12	10	10	0.5	9	11	421	0.2	420	421	25.6	51.5
2025-09-20T17:13	10	8	0.8	7	10	420	0.3	420	421	25.5	51.6
2025-09-20T17:14	10	6	0.6	5	7	420	0.2	419	421	25.4	51.5
2025-09-20T17:15	10	5	0.2	5	5	420	0.2	419	421	25.4	51.4
2025-09-20T17:16	10	4	0.1	4	5	420	0.2	419	420	25.4	51.4
2025-09-20T17:17	10	4	0.1	4	4	419	0.2	419	420	25.4	51.5
2025-09-20T17:18	10	4	0.1	3	4	419	0.2	419	420	25.3	52.1
2025-09-20T17:19	10	4	0.1	3	4	418	0.3	418	419	25.2	52.4
2025-09-20T17:20	10	3	0.1	3	3	418	0.4	417	418	25.2	52.2
2025-09-20T17:21	10	3	0.1	3	3	417	0.5	416	418	25.1	54.0
2025-09-20T17:22	10	3	0.2	2	3	417	0.3	416	417	24.8	56.2
2025-09-20T17:23	10	2	0.1	2	3	417	0.3	416	418	24.7	55.8
2025-09-20T17:24	10	2	0.1	2	2	417	0.3	417	418	24.8	53.9
2025-09-20T17:25	10	2	0.1	2	2	417	0.3	416	417	24.9	53.2
2025-09-20T17:26	10	2	0.1	2	2	416	0.3	416	417	25.0	53.7
2025-09-20T17:27	10	2	0.1	2	2	416	0.3	415	416	24.8	55.4
2025-09-20T17:28	10	2	0.1	2	2	414	0.3	414	415	24.5	58.0
2025-09-20T17:29	10	2	0.1	2	2	415	0.3	414	416	24.3	58.3
2025-09-20T17:30	10	2	0.1	2	2	415	0.3	415	416	24.4	56.4
2025-09-20T17:31	10	2	0.1	2	2	414	0.3	414	415	24.5	56.2
2025-09-20T17:32	10	2	0.1	2	2	414	0.3	413	415	24.3	58.1
2025-09-20T17:33	10	2	0.1	1	2	414	0.2	413	414	24.1	59.1
2025-09-20T17:34	10	1	0.1	1	2	413	0.3	412	414	24.1	59.8
2025-09-20T17:35	10	1	0.1	1	1	413	0.3	412	414	24.0	60.1
2025-09-20T17:36	10	1	0.1	0	1	412	0.5	411	413	23.7	63.0
2025-09-20T17:37	10	1	0.1	0	1	411	0.3	411	412	23.1	67.3
2025-09-20T17:38	10	0	0.1	0	1	412	0.3	411	413	23.2	62.3
2025-09-20T17:39	10	0	0.1	0	0	412	0.4	411	413	23.4	59.4
2025-09-20T17:40	10	0	0.1	0	0	412	0.4	411	413	23.6	58.0
2025-09-20T17:41	10	0	0.1	0	0	412	0.2	412	413	23.9	56.9
2025-09-20T17:42	10	0	0.1	0	0	412	0.3	411	412	23.9	56.8
2025-09-20T17:43	10	0	0.1	0	0	411	0.7	409	412	23.7	58.2
2025-09-20T17:44	10	0	0.1	0	0	410	0.4	409	411	22.9	66.5
2025-09-20T17:45	10	0	0.1	0	0	411	0.4	410	412	22.8	63.1
2025-09-20T17:46	10	0	0.1	0	0	410	0.3	410	411	23.1	60.6
2025-09-20T17:47	10	0	0.1	0	0	411	0.4	410	412	23.2	59.3
2025-09-20T17:48	10	0	0.2	0	0	411	0.4	410	412	23.5	57.7
2025-09-20T17:49	10	0	0.2	0	1	411	0.6	409	412	23.7	56.5
2025-09-20T17:50	10	0	0.2	0	1	409	0.3	408	410	23.4	59.8
2025-09-20T17:51	10	0	0.2	0	0	410	0.3	409	410	22.9	62.1
2025-09-20T17:52	10	0	0.2	0	1	409	0.3	409	410	22.9	62.0
2025-09-20T17:53	10	0	0.2	0	0	410	0.6	409	411	23.1	59.4
2025-09-20T17:54	10	0	0.2	0	0	410	0.3	409	411	23.5	57.5
2025-09-20T17:55	10	0	0.2	0	1	409	0.6	408	411	23.7	56.8
2025-09-20T17:56	10	0	0.1	0	0	408	0.3	408	409	23.0	62.4
2025-09-20T17:57	10	0	0.2	0	1	408	0.3	407	409	22.6	63.9
2025-09-20T17:58	10	0	0.1	0	0	408	0.3	407	409	22.7	62.6
2025-09-20T17:59	10	0	0.1	0	0	408	0.3	408	409	22.8	62.0
2025-09-20T18:00	10	0	0.1	0	0	409	0.4	408	409	22.9	60.8
2025-09-20T18:01	10	0	0.1	0	0	409	0.2	408	409	23.0	60.4
2025-09-20T18:02	10	0	0.1	0	0	408	0.3	408	409	22.9	60.9
2025-09-20T18:03	10	0	0.1	0	0	408	0.2	408	409	22.8	61.4
2025-09-20T18:04	10	0	0.1	0	0	408	0.3	407	408	22.7	61.8
2025-09-20T18:05	10	0	0.1	0	0	408	0.3	407	409	22.8	60.7
2025-09-20T18:06	10	0	0.1	0	0	408	0.2	408	408	22.9	60.0
2025-09-20T18:07	10	0	0.1	0	0	408	0.4	407	409	22.9	59.9
2025-09-20T18:08	10	0	0.1	0	0	408	0.2	407	408	23.0	59.7
2025-09-20T18:09	10	0	0.1	0	0	407	0.3	407	408	23.0	59.4
2025-09-20T18:10	10	0	0.1	0	0	406	0.6	405	407	22.9	60.4
2025-09-20T18:11	10	0	0.1	0	0	405	0.3	404	406	22.7	62.3
2025-09-20T18:12	10	0	0.1	0	1	405	0.3	404	405	22.4	62.9
2025-09-20T18:13	10	0	0.1	0	0	405	0.4	404	406	22.3	63.4
2025-09-20T18:14	10	0	0.1	0	0	405	0.3	404	406	22.1	64.6
2025-09-20T18:15	10	0	0.1	0	0	405	0.3	405	406	22.1	64.7
2025-09-20T18:16	10	0	0.1	0	0	405	0.3	404	405	22.0	65.2
2025-09-20T18:17	10	0	0.1	0	0	405	0.3	405	406	22.0	65.3
2025-09-20T18:18	10	0	0.1	0	0	405	0.2	405	406	22.0	65.2
2025-09-20T18:19	10	0	0.1	0	0	405	0.2	404	406	22.0	65.2
2025-09-20T18:20	10	0	0.1	0	0	405	0.4	405	406	22.0	64.5
2025-09-20T18:21	10	0	0.1	0	0	405	0.4	405	406	22.2	63.8
2025-09-20T18:22	10	0	0.1	0	0	406	0.5	405	407	22.2	63.3
2025-09-20T18:23	10	0	0.1	0	0	406	0.3	406	407	22.4	60.7
2025-09-20T18:24	10	0	0.1	0	0	407	0.4	406	408	22.8	58.1
2025-09-20T18:25	10	0	0.0	0	0	408	0.4	407	409	23.0	57.3
2025-09-20T18:26	10	0	0.1	0	0	409	0.7	408	410	23.1	55.8
2025-09-20T18:27	10	0	0.1	0	1	410	0.3	409	410	23.3	54.5
2025-09-20T18:28	10	0	0.1	0	0	410	0.3	409	411	23.4	54.3
2025-09-20T18:29	10	0	0.2	0	1	410	0.4	409	411	23.3	55.4
2025-09-20T18:30	10	0	0.2	0	1	409	0.5	408	410	23.5	53.9
2025-09-20T18:31	10	0	0.2	0	1	410	0.6	408	411	23.1	56.6
2025-09-20T18:32	10	0	0.2	0	1	410	0.3	409	411	23.2	55.4
2025-09-20T18:33	10	0	0.2	0	1	410	0.3	410	411	23.1	55.6
2025-09-20T18:34	10	0	0.1	0	1	411	0.3	410	411	23.1	55.8
2025-09-20T18:35	10	0	0.2	0	1	411	0.3	410	411	23.0	56.6
2025-09-20T18:36	10	0	0.1	0	1	411	0.2	411	412	23.0	56.2
2025-09-20T18:37	10	0	0.2	0	1	411	0.2	411	412	23.0	56.2
2025-09-20T18:38	10	0	0.2	0	1	411	0.4	410	412	22.8	57.1
2025-09-20T18:39	10	0	0.1	0	0	411	0.3	410	411	22.6	58.1
2025-09-20T18:40	10	0	0.1	0	1	410	0.3	409	411	22.5	58.6
2025-09-20T18:41	10	0	0.1	0	0	410	0.4	409	411	22.4	58.9
2025-09-20T18:42	10	0	0.1	0	0	410	0.2	409	410	22.2	60.3
2025-09-20T18:43	10	0	0.1	0	0	409	0.3	409	410	22.0	62.4
2025-09-20T18:44	10	0	0.1	0	0	410	0.3	409	410	21.7	63.4
2025-09-20T18:45	10	0	0.1	0	0	410	0.3	409	410	21.8	63.1
2025-09-20T18:46	10	0	0.1	0	0	410	0.3	409	410	21.8	63.0
2025-09-20T18:47	10	0	0.1	0	0	410	0.2	409	410	21.8	62.8
2025-09-20T18:48	10	0	0.1	0	0	410	0.2	409	410	21.8	62.4
2025-09-20T18:49	10	0	0.1	0	0	409	0.2	409	410	21.8	63.0
2025-09-20T18:50	10	0	0.1	0	0	409	0.3	409	410	21.7	63.0
2025-09-20T18:51	10	0	0.1	0	0	409	0.4	408	410	21.8	62.3
2025-09-20T18:52	10	0	0.1	0	0	409	0.3	408	410	22.0	60.8
2025-09-20T18:53	10	0	0.1	0	0	409	0.3	409	410	21.9	61.8
2025-09-20T18:54	10	0	0.1	0	0	410	0.3	409	410	22.0	61.0
2025-09-20T18:55	10	0	0.1	0	0	409	0.2	409	410	22.0	61.0
2025-09-20T18:56	10	0	0.1	0	0	410	0.2	409	410	22.0	60.7
2025-09-20T18:57	10	0	0.1	0	0	410	0.5	409	411	22.2	59.1
2025-09-20T18:58	10	0	0.1	0	0	411	0.4	410	412	22.4	58.0
2025-09-20T18:59	10	0	0.1	0	0	411	0.2	411	412	22.6	57.5
2025-09-20T19:00	10	0	0.2	0	1	411	0.3	411	412	22.7	56.8
2025-09-20T19:01	10	0	0.1	0	1	411	0.3	410	412	22.7	57.1
2025-09-20T19:02	10	0	0.1	0	0	411	0.4	410	412	22.7	57.4
2025-09-20T19:03	10	0	0.1	0	1	411	0.4	410	411	22.6	58.4
2025-09-20T19:04	10	0	0.1	0	0	410	0.5	409	411	22.4	59.6
2025-09-20T19:05	10	0	0.1	0	0	410	0.3	409	410	22.1	61.5
2025-09-20T19:06	10	0	0.0	0	0	409	0.4	408	410	21.8	63.2
2025-09-20T19:07	10	0	0.1	0	0	408	0.2	408	409	21.6	65.3
2025-09-20T19:08	10	0	0.1	0	0	408	0.3	407	409	21.5	64.8
2025-09-20T19:09	10	0	0.1	0	0	409	0.3	408	409	21.4	65.4
2025-09-20T19:10	10	0	0.1	0	0	409	0.3	409	410	21.5	64.0
2025-09-20T19:11	10	0	0.1	0	0	410	0.4	409	411	21.7	62.5
2025-09-20T19:12	10	0	0.1	0	0	410	0.5	409	411	21.9	61.2
2025-09-20T19:13	10	0	0.1	0	0	411	0.3	410	411	22.1	60.5
2025-09-20T19:14	10	0	0.0	0	0	410	0.2	410	411	22.2	60.1
2025-09-20T19:15	10	0	0.1	0	0	411	0.3	410	411	22.3	59.9
2025-09-20T19:16	10	0	0.1	0	0	411	0.2	410	411	22.3	60.6
2025-09-20T19:17	10	0	0.1	0	0	411	0.3	410	411	22.3	61.1
2025-09-20T19:18	10	0	0.1	0	0	410	0.2	410	411	22.2	61.6
2025-09-20T19:19	10	0	0.1	0	0	410	0.3	410	411	22.1	62.3
2025-09-20T19:20	10	0	0.1	0	0	410	0.2	410	411	22.0	62.9
2025-09-20T19:21	10	0	0.1	0	0	411	0.2	410	411	22.0	63.3
2025-09-20T19:22	10	0	0.0	0	0	411	0.2	410	411	22.0	63.4
2025-09-20T19:23	10	0	0.0	0	0	411	0.2	410	411	22.0	63.3
2025-09-20T19:24	10	0	0.1	0	0	411	0.2	410	411	22.0	63.3
2025-09-20T19:25	10	0	0.2	0	1	411	0.2	410	411	22.0	63.4
2025-09-20T19:26	10	0	0.2	0	1	411	0.3	410	411	22.0	63.7
2025-09-20T19:27	10	0	0.2	0	1	410	0.3	409	411	21.8	64.5
2025-09-20T19:28	10	0	0.1	0	0	410	0.3	409	411	21.8	64.3
2025-09-20T19:29	10	0	0.1	0	0	410	0.3	410	411	21.8	64.7
2025-09-20T19:30	10	0	0.2	0	1	410	0.3	409	410	21.7	65.1
2025-09-20T19:31	10	0	0.2	0	1	410	0.3	409	410	21.6	65.3
2025-09-20T19:32	10	0	0.2	0	1	409	0.3	408	410	21.6	65.8
2025-09-20T19:33	10	0	0.2	0	1	409	0.2	409	410	21.5	65.8
2025-09-20T19:34	10	0	0.2	0	0	409	0.2	408	409	21.5	66.1
2025-09-20T19:35	10	0	0.2	0	1	409	0.4	408	409	21.4	66.6
2025-09-20T19:36	10	0	0.1	0	0	409	0.3	408	409	21.4	66.6
2025-09-20T19:37	10	0	0.1	0	0	408	0.3	408	409	21.4	66.5
2025-09-20T19:38	10	0	0.1	0	0	409	0.3	408	409	21.4	67.0
2025-09-20T19:39	10	0	0.2	0	1	409	0.3	408	410	21.4	66.6
2025-09-20T19:40	10	0	0.1	0	0	409	0.3	408	409	21.5	66.1
2025-09-20T19:41	10	0	0.0	0	0	409	0.3	409	410	21.4	66.4
2025-09-20T19:42	10	0	0.1	0	0	409	0.2	408	410	21.3	66.9
2025-09-20T19:43	10	0	0.0	0	0	409	0.2	409	410	21.4	66.7
2025-09-20T19:44	10	0	0.1	0	0	410	0.2	409	410	21.3	67.2
2025-09-20T19:45	10	0	0.1	0	0	409	0.2	409	410	21.2	67.9
2025-09-20T19:46	10	0	0.1	0	0	409	0.2	409	410	21.2	67.9
2025-09-20T19:47	10	0	0.1	0	0	409	0.2	409	410	21.1	68.4
2025-09-20T19:48	10	0	0.0	0	0	409	0.2	409	410	21.0	68.7
2025-09-20T19:49	10	0	0.1	0	0	409	0.2	409	410	21.0	69.2
2025-09-20T19:50	10	0	0.1	0	0	409	0.2	408	409	20.9	69.8
2025-09-20T19:51	10	0	0.1	0	0	408	0.2	408	409	20.8	70.2
2025-09-20T19:52	10	0	0.1	0	0	408	0.2	408	409	20.7	70.4
2025-09-20T19:53	10	0	0.1	0	0	408	0.2	408	409	20.7	69.5
2025-09-20T19:54	10	0	0.1	0	0	408	0.3	408	409	20.7	68.3
2025-09-20T19:55	10	0	0.1	0	0	408	0.3	408	409	20.7	68.3
2025-09-20T19:56	10	0	0.1	0	0	408	0.2	407	408	20.7	70.7
2025-09-20T19:57	10	0	0.1	0	0	408	0.3	407	408	20.7	70.7
2025-09-20T19:58	10	0	0.1	0	0	408	0.3	407	408	20.7	70.7
2025-09-20T19:59	10	0	0.1	0	0	408	0.3	407	408	20.7	70.7
2025-09-20T20:00	10	0	0.0	0	0	408	0.2	407	408	20.7	70.7
2025-09-20T20:01	10	0	0.0	0	0	408	0.2	407	408	21.0	68.4
2025-09-20T20:02	10	0	0.1	0	0	408	0.3	407	408	21.0	68.2
2025-09-20T20:03	10	0	0.1	0	0	408	0.3	407	408	21.1	67.9
2025-09-20T20:04	10	0	0.1	0	0	408	0.2	408	409	21.0	68.2
2025-09-20T20:05	10	0	0.1	0	0	408	0.2	407	408	21.0	68.1
2025-09-20T20:06	10	0	0.1	0	0	408	0.3	407	408	20.9	68.9
2025-09-20T20:07	10	0	0.1	0	0	408	0.2	407	408	20.9	69.1
2025-09-20T20:08	10	0	0.1	0	0	408	0.2	408	408	20.8	69.3
2025-09-20T20:09	10	0	0.1	0	0	408	0.3	407	408	20.8	69.6
2025-09-20T20:10	10	0	0.1	0	0	408	0.3	407	408	20.7	70.0
2025-09-20T20:11	10	0	0.1	0	0	408	0.2	407	408	20.7	69.9
2025-09-20T20:12	10	0	0.1	0	0	408	0.3	407	408	20.6	70.5
2025-09-20T20:13	10	0	0.1	0	1	408	0.2	407	408	20.5	70.8
2025-09-20T20:14	10	0	0.1	0	0	407	0.2	407	408	20.5	71.2
2025-09-20T20:15	10	0	0.1	0	0	408	0.2	407	408	20.5	71.2
2025-09-20T20:16	10	0	0.1	0	0	408	0.3	407	408	20.6	70.3
2025-09-20T20:17	10	0	0.1	0	0	408	0.2	407	408	20.6	70.3
2025-09-20T20:18	10	0	0.1	0	0	408	0.2	408	408	20.7	69.5
2025-09-20T20:19	10	0	0.1	0	0	408	0.3	407	409	20.7	69.5
2025-09-20T20:20	10	0	0.1	0	0	408	0.3	408	409	20.7	69.3
2025-09-20T20:21	10	0	0.1	0	1	408	0.3	408	409	20.8	69.0
2025-09-20T20:22	10	0	0.1	0	0	408	0.3	408	409	20.7	69.3
2025-09-20T20:23	10	0	0.1	0	1	408	0.2	408	408	20.8	68.8
2025-09-20T20:24	10	0	0.1	0	0	408	0.3	408	409	20.7	69.4
2025-09-20T20:25	10	0	0.1	0	0	408	0.2	408	409	20.7	69.1
2025-09-20T20:26	10	0	0.1	0	0	408	0.2	407	408	20.6	69.9
2025-09-20T20:27	10	0	0.1	0	0	408	0.2	407	408	20.5	70.6
2025-09-20T20:28	10	0	0.1	0	0	408	0.2	407	408	20.5	71.0
2025-09-20T20:29	10	0	0.1	0	0	408	0.3	407	408	20.4	71.3
2025-09-20T20:30	10	0	0.1	0	0	408	0.2	407	408	20.3	71.8
2025-09-20T20:31	10	0	0.1	0	0	408	0.2	407	408	20.2	72.4
2025-09-20T20:32	10	0	0.1	0	0	407	0.2	407	408	20.2	72.7
2025-09-20T20:33	10	0	0.0	0	0	407	0.2	407	407	20.1	73.2
2025-09-20T20:34	10	0	0.1	0	0	407	0.2	407	408	20.1	73.5
2025-09-20T20:35	10	0	0.0	0	0	407	0.2	407	408	20.1	73.7
2025-09-20T20:36	10	0	0.1	0	0	407	0.3	407	408	20.0	74.0
2025-09-20T20:37	10	0	0.0	0	0	407	0.3	406	408	20.0	74.1
2025-09-20T20:38	10	0	0.0	0	0	407	0.3	406	407	19.9	74.8
2025-09-20T20:39	10	0	0.1	0	0	407	0.3	406	407	19.9	75.4
2025-09-20T20:40	10	0	0.0	0	0	406	0.2	406	407	19.8	76.2
2025-09-20T20:41	10	0	0.0	0	0	406	0.2	406	407	19.7	77.2
2025-09-20T20:42	10	0	0.0	0	0	406	0.2	405	406	19.7	77.1
2025-09-20T20:43	10	0	0.1	0	0	406	0.3	405	406	19.6	77.6
2025-09-20T20:44	10	0	0.1	0	0	406	0.2	405	406	19.6	77.7
2025-09-20T20:45	10	0	0.1	0	0	405	0.2	405	406	19.6	78.1
2025-09-20T20:46	10	0	0.1	0	0	405	0.2	405	406	19.5	78.4
2025-09-20T20:47	10	0	0.0	0	0	405	0.2	404	405	19.5	78.8
2025-09-20T20:48	10	0	0.1	0	0	405	0.2	405	406	19.5	78.1
2025-09-20T20:49	10	0	0.1	0	0	405	0.2	404	405	19.5	78.3
2025-09-20T20:50	10	0	0.1	0	0	405	0.3	404	406	19.5	77.8
2025-09-20T20:51	10	0	0.0	0	0	405	0.2	405	406	19.6	77.5
2025-09-20T20:52	10	0	0.0	0	0	405	0.2	405	406	19.6	77.1
2025-09-20T20:53	10	0	0.1	0	0	405	0.2	405	406	19.6	77.0
2025-09-20T20:54	10	0	0.0	0	0	405	0.2	405	406	19.6	77.2
2025-09-20T20:55	10	0	0.1	0	0	405	0.2	405	406	19.6	77.2
2025-09-20T20:56	10	0	0.1	0	1	406	0.3	405	406	19.6	76.7
2025-09-20T20:57	10	0	0.1	0	0	406	0.3	405	406	19.8	75.7
2025-09-20T20:58	10	0	0.2	0	1	405	0.2	405	406	19.7	76.6
2025-09-20T20:59	10	0	0.2	0	1	405	0.2	405	406	19.6	76.9
2025-09-20T21:00	10	0	0.2	0	1	405	0.3	405	406	19.6	76.8
2025-09-20T21:01	10	0	0.2	0	1	405	0.3	405	406	19.6	76.6
2025-09-20T21:02	10	0	0.1	0	1	406	0.3	405	406	19.7	76.3
2025-09-20T21:03	10	0	0.2	0	1	406	0.2	405	406	19.7	75.9
2025-09-20T21:04	10	0	0.1	0	1	405	0.2	405	406	19.7	76.1
2025-09-20T21:05	10	0	0.1	0	1	405	0.2	404	406	19.7	76.2
2025-09-20T21:06	10	0	0.1	0	1	405	0.2	404	405	19.6	76.9
2025-09-20T21:07	10	0	0.1	0	1	405	0.3	404	406	19.5	77.8
2025-09-20T21:08	10	0	0.1	0	1	405	0.2	405	406	19.5	77.4
2025-09-20T21:09	10	0	0.2	0	1	405	0.2	405	406	19.6	77.1
2025-09-20T21:10	10	0	0.1	0	0	406	0.2	405	406	19.6	76.8
2025-09-20T21:11	10	0	0.1	0	0	406	0.3	405	407	19.7	75.5
2025-09-20T21:12	10	0	0.1	0	0	406	0.3	405	406	19.8	75.6
2025-09-20T21:13	10	0	0.1	0	0	406	0.2	406	406	19.9	74.7
2025-09-20T21:14	10	0	0.1	0	1	406	0.3	406	407	19.8	75.3
2025-09-20T21:15	10	0	0.1	0	1	406	0.2	406	407	19.9	74.5
2025-09-20T21:16	10	0	0.1	0	1	406	0.2	405	406	19.9	75.2
2025-09-20T21:17	10	0	0.1	0	0	406	0.3	405	407	19.8	74.9
2025-09-20T21:18	10	0	0.1	0	1	406	0.2	406	407	19.9	74.3
2025-09-20T21:19	10	0	0.1	0	1	406	0.2	406	407	19.9	74.4
2025-09-20T21:20	10	0	0.1	0	0	407	0.3	406	407	20.0	73.9
2025-09-20T21:21	10	0	0.0	0	0	406	0.2	406	407	20.0	74.1
2025-09-20T21:22	10	0	0.1	0	0	406	0.2	406	407	20.0	73.9
2025-09-20T21:23	10	0	0.1	0	0	406	0.2	406	407	19.9	74.0
2025-09-20T21:24	10	0	0.1	0	0	406	0.4	405	407	19.9	74.0
2025-09-20T21:25	10	0	0.1	0	0	406	0.3	405	407	19.9	74.5
2025-09-20T21:26	10	0	0.1	0	0	406	0.2	406	407	20.0	74.0
2025-09-20T21:27	10	0	0.1	0	0	406	0.2	406	407	19.9	74.1
2025-09-20T21:28	10	0	0.1	0	0	406	0.2	406	407	19.9	74.1
2025-09-20T21:29	10	0	0.1	0	0	406	0.3	406	407	19.9	74.2
2025-09-20T21:30	10	0	0.1	0	0	406	0.2	406	407	19.9	74.6
2025-09-20T21:31	10	0	0.1	0	0	406	0.3	406	407	19.9	74.3
2025-09-20T21:32	10	0	0.1	0	0	406	0.2	406	407	19.9	74.3
2025-09-20T21:33	10	0	0.1	0	0	406	0.3	406	407	19.9	74.3
2025-09-20T21:34	10	0	0.1	0	0	407	0.3	406	407	20.0	73.6
2025-09-20T21:35	10	0	0.1	0	0	406	0.2	406	407	20.0	73.5
2025-09-20T21:36	10	0	0.1	0	0	406	0.2	406	407	20.0	73.8
2025-09-20T21:37	10	0	0.1	0	0	407	0.2	406	407	20.1	73.1
2025-09-20T21:38	10	0	0.1	0	0	406	0.2	406	407	20.1	73.1
2025-09-20T21:39	10	0	0.1	0	0	406	0.2	406	407	20.2	72.8
2025-09-20T21:40	10	0	0.1	0	0	406	0.2	406	407	20.2	72.3
2025-09-20T21:41	10	0	0.1	0	0	406	0.3	405	406	20.3	72.0
2025-09-20T21:42	10	0	0.1	0	0	406	0.3	405	406	20.2	72.2
2025-09-20T21:43	10	0	0.1	0	0	405	0.2	405	406	20.2	72.2
2025-09-20T21:44	10	0	0.1	0	0	405	0.2	405	406	20.3	72.0
2025-09-20T21:45	10	0	0.1	0	0	405	0.3	405	406	20.3	71.8
2025-09-20T21:46	10	0	0.1	0	0	406	0.2	405	406	20.3	71.8
2025-09-20T21:47	10	0	0.1	0	0	406	0.3	405	406	20.3	71.7
2025-09-20T21:48	10	0	0.1	0	0	406	0.3	406	407	20.3	71.6
2025-09-20T21:49	10	0	0.1	0	0	407	0.2	406	407	20.3	71.9
2025-09-20T21:50	10	0	0.1	0	0	406	0.2	406	407	20.2	72.8
2025-09-20T21:51	10	0	0.1	0	0	406	0.3	406	407	20.1	73.2
2025-09-20T21:52	10	0	0.1	0	0	406	0.3	405	406	20.0	74.4
2025-09-20T21:53	10	0	0.1	0	0	405	0.2	405	406	19.9	74.5
2025-09-20T21:54	10	0	0.1	0	0	406	0.2	405	406	20.0	74.0
2025-09-20T21:55	10	0	0.1	0	0	406	0.2	405	406	19.9	74.4
2025-09-20T21:56	10	0	0.1	0	0	406	0.2	405	406	19.8	75.0
2025-09-20T21:57	10	0	0.1	0	0	406	0.2	405	406	19.8	74.9
2025-09-20T21:58	10	0	0.1	0	0	406	0.2	405	406	19.8	74.9
2025-09-20T21:59	10	0	0.1	0	0	406	0.2	405	406	19.8	74.9
2025-09-20T22:00	10	0	0.1	0	0	406	0.2	405	406	19.8	75.2
2025-09-20T22:01	10	0	0.1	0	0	406	0.2	406	407	19.7	75.8
2025-09-20T22:02	10	0	0.1	0	0	406	0.2	405	406	19.6	76.4
2025-09-20T22:03	10	0	0.1	0	0	406	0.2	405	406	19.6	76.1
2025-09-20T22:04	10	0	0.1	0	0	406	0.2	405	406	19.7	75.6
2025-09-20T22:05	10	0	0.1	0	0	406	0.3	405	406	19.7	75.8
2025-09-20T22:06	10	0	0.1	0	0	406	0.3	405	406	19.7	75.5
2025-09-20T22:07	10	0	0.1	0	0	405	0.2	405	406	19.6	76.0
2025-09-20T22:08	10	0	0.1	0	0	405	0.3	404	406	19.5	76.7
2025-09-20T22:09	10	0	0.1	0	0	405	0.3	404	405	19.5	76.9
2025-09-20T22:10	10	0	0.1	0	0	404	0.2	404	405	19.5	77.1
2025-09-20T22:11	10	0	0.1	0	0	404	0.2	404	405	19.4	77.6
2025-09-20T22:12	10	0	0.1	0	0	405	0.3	404	405	19.4	77.6
2025-09-20T22:13	10	0	0.1	0	0	404	0.2	404	405	19.4	77.6
2025-09-20T22:14	10	0	0.1	0	0	404	0.3	404	405	19.4	77.8
2025-09-20T22:15	10	0	0.1	0	0	404	0.2	404	405	19.4	77.6
2025-09-20T22:16	10	0	0.1	0	0	404	0.2	404	405	19.5	77.4
2025-09-20T22:17	10	0	0.1	0	0	404	0.3	404	405	19.4	77.7
2025-09-20T22:18	10	0	0.1	0	0	405	0.3	404	405	19.5	76.4
2025-09-20T22:19	10	0	0.1	0	0	404	0.2	404	405	19.6	76.2
2025-09-20T22:20	10	0	0.1	0	0	404	0.2	404	405	19.7	75.9
2025-09-20T22:21	10	0	0.1	0	0	405	0.2	404	405	19.7	75.8
2025-09-20T22:22	10	0	0.1	0	0	404	0.3	404	405	19.6	76.1
2025-09-20T22:23	10	0	0.1	0	1	404	0.2	404	405	19.7	75.9
2025-09-20T22:24	10	0	0.1	0	1	405	0.2	404	405	19.8	75.3
2025-09-20T22:25	10	0	0.1	0	0	405	0.2	404	405	19.8	75.2
2025-09-20T22:26	10	0	0.1	0	0	405	0.3	404	405	19.7	75.7
2025-09-20T22:27	10	0	0.1	0	0	405	0.2	404	405	19.7	75.8
2025-09-20T22:28	10	0	0.1	0	0	404	0.2	404	405	19.7	76.0
2025-09-20T22:29	10	0	0.1	0	0	405	0.2	404	405	19.7	75.8
2025-09-20T22:30	10	0	0.1	0	0	405	0.2	404	405	19.7	76.0
2025-09-20T22:31	10	0	0.1	0	0	404	0.3	403	405	19.6	76.1
2025-09-20T22:32	10	0	0.1	0	0	404	0.2	403	404	19.6	76.3
2025-09-20T22:33	10	0	0.1	0	0	404	0.3	403	405	19.6	76.2
2025-09-20T22:34	10	0	0.1	0	0	404	0.2	403	404	19.7	75.6
2025-09-20T22:35	10	0	0.1	0	0	404	0.2	403	404	19.8	75.0
2025-09-20T22:36	10	0	0.1	0	0	404	0.2	403	404	19.8	74.9
2025-09-20T22:37	10	0	0.1	0	0	404	0.2	403	404	19.8	74.8
2025-09-20T22:38	10	0	0.1	0	0	404	0.2	403	404	19.9	73.9
2025-09-20T22:39	10	0	0.1	0	0	404	0.3	403	405	20.0	73.7
2025-09-20T22:40	10	0	0.1	0	0	404	0.2	403	404	19.9	74.1
2025-09-20T22:41	10	0	0.1	0	0	404	0.3	403	405	19.9	74.0
2025-09-20T22:42	10	0	0.1	0	0	404	0.2	403	405	19.9	73.8
2025-09-20T22:43	10	0	0.1	0	0	404	0.2	404	405	20.0	73.5
2025-09-20T22:44	10	0	0.1	0	0	404	0.3	403	405	19.9	74.0
2025-09-20T22:45	10	0	0.1	0	0	404	0.3	403	404	19.9	74.3
2025-09-20T22:46	10	0	0.1	0	0	404	0.2	403	405	19.9	74.2
2025-09-20T22:47	10	0	0.1	0	0	404	0.2	404	405	19.9	73.9
2025-09-20T22:48	10	0	0.1	0	0	404	0.3	403	404	19.9	74.1
2025-09-20T22:49	10	0	0.1	0	0	403	0.3	403	404	19.9	74.1
2025-09-20T22:50	10	0	0.1	0	0	403	0.3	403	404	19.8	74.7
2025-09-20T22:51	10	0	0.1	0	0	403	0.2	402	403	19.7	75.2
2025-09-20T22:52	10	0	0.0	0	0	402	0.3	402	403	19.7	75.2
2025-09-20T22:53	10	0	0.1	0	0	402	0.3	402	403	19.7	75.2
2025-09-20T22:54	10	0	0.1	0	0	402	0.2	402	402	19.6	75.8
2025-09-20T22:55	10	0	0.1	0	0	402	0.2	401	402	19.5	76.6
2025-09-20T22:56	10	0	0.0	0	0	402	0.2	401	402	19.5	76.5
2025-09-20T22:57	10	0	0.0	0	0	402	0.2	401	402	19.5	77.0
2025-09-20T22:58	10	0	0.0	0	0	401	0.2	401	402	19.4	77.0
2025-09-20T22:59	10	0	0.0	0	0	401	0.2	401	402	19.4	77.3
2025-09-20T23:00	10	0	0.1	0	0	402	0.2	401	402	19.3	77.8
2025-09-20T23:01	10	0	0.1	0	0	401	0.2	401	402	19.3	77.8
2025-09-20T23:02	10	0	0.1	0	0	401	0.2	401	402	19.2	78.3
2025-09-20T23:03	10	0	0.1	0	0	401	0.2	401	402	19.2	78.3
2025-09-20T23:04	10	0	0.1	0	0	401	0.2	401	402	19.2	78.4
2025-09-20T23:05	10	0	0.1	0	0	401	0.2	401	402	19.2	78.5
2025-09-20T23:06	10	0	0.0	0	0	401	0.2	401	402	19.2	78.6
2025-09-20T23:07	10	0	0.0	0	0	401	0.2	401	402	19.1	78.7
2025-09-20T23:08	10	0	0.1	0	0	401	0.2	401	402	19.1	78.7
2025-09-20T23:09	10	0	0.0	0	0	401	0.2	401	401	19.1	78.9
2025-09-20T23:10	10	0	0.0	0	0	401	0.2	400	401	19.0	79.5
2025-09-20T23:11	10	0	0.0	0	0	401	0.2	401	401	19.0	79.3
2025-09-20T23:12	10	0	0.0	0	0	401	0.3	401	402	19.1	79.0
2025-09-20T23:13	10	0	0.1	0	0	401	0.2	400	401	19.1	78.4
2025-09-20T23:14	10	0	0.0	0	0	401	0.2	400	401	19.2	78.2
2025-09-20T23:15	10	0	0.1	0	0	401	0.3	400	401	19.2	78.1
2025-09-20T23:16	10	0	0.1	0	0	401	0.3	401	402	19.3	77.8
2025-09-20T23:17	10	0	0.1	0	0	401	0.2	401	402	19.4	77.0
2025-09-20T23:18	10	0	0.1	0	0	401	0.3	401	402	19.4	76.9
2025-09-20T23:19	10	0	0.1	0	0	401	0.3	401	402	19.4	77.0
2025-09-20T23:20	10	0	0.1	0	0	401	0.2	401	402	19.4	77.1
2025-09-20T23:21	10	0	0.1	0	0	401	0.2	401	402	19.4	76.9
2025-09-20T23:22	10	0	0.1	0	0	401	0.3	401	402	19.5	76.7
2025-09-20T23:23	10	0	0.1	0	0	400	0.3	400	401	19.4	77.4
2025-09-20T23:24	10	0	0.1	0	0	401	0.2	400	401	19.1	79.3
2025-09-20T23:25	10	0	0.1	0	0	400	0.2	400	401	19.1	78.9
2025-09-20T23:26	10	0	0.1	0	0	400	0.2	400	401	19.1	79.0
2025-09-20T23:27	10	0	0.1	0	0	400	0.3	399	400	19.1	79.7
2025-09-20T23:28	10	0	0.1	0	0	400	0.2	399	400	19.1	79.3
2025-09-20T23:29	10	0	0.0	0	0	400	0.2	399	400	19.1	79.3
2025-09-20T23:30	10	0	0.1	0	0	400	0.2	399	400	19.1	78.7
2025-09-20T23:31	10	0	0.0	0	0	399	0.2	399	400	19.3	77.4
2025-09-20T23:32	10	0	0.1	0	1	399	0.3	398	400	19.4	76.9
2025-09-20T23:33	10	0	0.1	0	0	398	0.4	397	399	19.3	78.1
2025-09-20T23:34	10	0	0.0	0	0	397	0.4	396	398	19.2	78.6
2025-09-20T23:35	10	0	0.1	0	1	396	0.4	395	397	19.2	79.3
2025-09-20T23:36	10	0	0.0	0	0	395	0.3	394	396	19.1	80.2
2025-09-20T23:37	10	0	0.0	0	0	394	0.2	394	395	19.0	80.2
2025-09-20T23:38	10	0	0.1	0	0	394	0.2	394	395	19.0	80.2
2025-09-20T23:39	10	0	0.0	0	0	394	0.3	393	394	18.9	80.1
2025-09-20T23:40	10	0	0.1	0	0	393	0.2	392	393	18.9	80.3
2025-09-20T23:41	10	0	0.1	0	1	393	0.2	393	394	18.9	80.3
2025-09-20T23:42	10	0	0.1	0	0	393	0.2	392	393	18.9	80.7
2025-09-20T23:43	10	0	0.1	0	0	393	0.2	392	393	18.8	81.1
2025-09-20T23:44	10	0	0.1	0	0	393	0.3	393	394	18.7	81.2
2025-09-20T23:45	10	0	0.1	0	0	393	0.2	393	394	18.8	80.9
2025-09-20T23:46	10	0	0.0	0	0	393	0.4	393	394	18.8	80.9
2025-09-20T23:47	10	0	0.1	0	0	394	0.3	393	394	18.9	79.8
2025-09-20T23:48	10	0	0.1	0	0	394	0.3	394	395	19.0	79.6
2025-09-20T23:49	10	0	0.1	0	1	394	0.3	394	395	19.0	79.6
2025-09-20T23:50	10	0	0.1	0	0	395	0.2	394	395	18.9	80.2
2025-09-20T23:51	10	0	0.0	0	0	394	0.2	394	395	18.9	80.2
2025-09-20T23:52	10	0	0.1	0	0	395	0.3	394	395	18.9	80.3
2025-09-20T23:53	10	0	0.1	0	1	395	0.4	395	396	18.9	80.2
2025-09-20T23:54	10	0	0.1	0	0	395	0.3	395	396	18.9	79.8
2025-09-20T23:55	10	0	0.1	0	0	395	0.4	394	396	18.9	80.3
2025-09-20T23:56	10	0	0.1	0	0	396	0.4	395	397	18.9	79.5
2025-09-20T23:57	10	0	0.1	0	1	396	0.3	395	397	19.0	79.1
2025-09-20T23:58	10	0	0.1	0	0	396	0.4	396	397	18.9	79.1
2025-09-20T23:59	10	0	0.1	0	1	397	0.4	396	398	19.1	78.1
2025-09-21T00:00	10	0	0.2	0	1	397	0.3	397	398	19.1	78.1
2025-09-21T00:01	10	0	0.1	0	0	398	0.3	397	398	19.0	78.5
2025-09-21T00:02	10	0	0.2	0	1	398	0.2	397	398	18.9	79.0
2025-09-21T00:03	10	0	0.2	0	1	398	0.3	397	398	19.0	78.3
2025-09-21T00:04	10	0	0.1	0	1	398	0.4	397	399	19.1	78.2
2025-09-21T00:05	10	0	0.2	0	1	398	0.2	397	398	19.1	78.6
2025-09-21T00:06	10	0	0.1	0	1	398	0.3	397	399	19.0	79.1
2025-09-21T00:07	10	0	0.1	0	1	398	0.3	398	399	19.1	78.2
2025-09-21T00:08	10	0	0.1	0	1	398	0.2	398	399	19.2	77.7
2025-09-21T00:09	10	0	0.2	0	1	398	0.3	398	399	19.2	77.8
2025-09-21T00:10	10	0	0.1	0	0	398	0.2	398	399	19.2	77.7
2025-09-21T00:11	10	0	0.1	0	0	399	0.3	398	399	19.3	76.8
2025-09-21T00:12	10	0	0.1	0	1	399	0.3	399	400	19.4	76.3
2025-09-21T00:13	10	0	0.2	0	1	399	0.3	399	400	19.4	76.5
2025-09-21T00:14	10	0	0.2	0	1	399	0.3	398	400	19.3	77.0
2025-09-21T00:15	10	0	0.2	0	1	399	0.2	398	400	19.2	77.6
2025-09-21T00:16	10	0	0.1	0	1	399	0.3	398	399	19.2	77.3
2025-09-21T00:17	10	0	0.1	0	1	399	0.3	398	399	19.2	77.4
2025-09-21T00:18	10	0	0.1	0	1	399	0.3	398	399	19.3	76.7
2025-09-21T00:19	10	0	0.2	0	1	399	0.4	398	400	19.3	76.9
2025-09-21T00:20	10	0	0.2	0	1	399	0.3	398	400	19.3	76.9
2025-09-21T00:21	10	0	0.1	0	1	399	0.3	398	400	19.2	77.1
2025-09-21T00:22	10	0	0.2	0	0	399	0.2	398	399	19.4	76.2
2025-09-21T00:23	10	0	0.2	0	0	399	0.3	398	399	19.4	75.9
2025-09-21T00:24	10	0	0.2	0	1	399	0.3	398	400	19.3	76.5
2025-09-21T00:25	10	0	0.2	0	1	398	0.3	397	399	19.3	76.8
2025-09-21T00:26	10	0	0.2	0	1	399	0.3	398	400	19.2	77.2
2025-09-21T00:27	10	0	0.1	0	0	399	0.3	398	400	19.2	77.2
2025-09-21T00:28	10	0	0.1	0	0	399	0.3	398	399	19.2	77.4
2025-09-21T00:29	10	0	0.2	0	1	399	0.3	398	400	19.2	77.4
2025-09-21T00:30	10	0	0.1	0	0	399	0.3	398	399	19.2	77.5
2025-09-21T00:31	10	0	0.2	0	0	398	0.2	398	399	19.1	77.8
2025-09-21T00:32	10	0	0.1	0	0	398	0.2	398	399	19.1	77.9
2025-09-21T00:33	10	0	0.1	0	0	398	0.3	398	399	19.1	77.8
2025-09-21T00:34	10	0	0.2	0	1	398	0.3	397	399	19.1	77.8
2025-09-21T00:35	10	0	0.2	0	1	398	0.2	398	399	19.1	78.0
2025-09-21T00:36	10	0	0.1	0	0	398	0.3	397	399	19.1	78.0
2025-09-21T00:37	10	0	0.1	0	0	398	0.2	398	399	19.2	77.6
2025-09-21T00:38	10	0	0.1	0	0	398	0.4	397	398	19.1	78.3
2025-09-21T00:39	10	0	0.1	0	1	397	0.3	397	398	18.9	79.3
2025-09-21T00:40	10	0	0.1	0	0	397	0.2	396	397	18.9	79.0
2025-09-21T00:41	10	0	0.1	0	0	396	0.3	396	397	18.9	78.9
2025-09-21T00:42	10	0	0.1	0	0	396	0.3	396	397	18.9	79.4
2025-09-21T00:43	10	0	0.2	0	1	396	0.3	396	397	18.8	79.5
2025-09-21T00:44	10	0	0.1	0	0	397	0.3	396	397	18.8	79.4
2025-09-21T00:45	10	0	0.1	0	0	397	0.2	396	397	18.8	79.4
2025-09-21T00:46	10	0	0.1	0	0	397	0.2	397	398	18.7	79.8
2025-09-21T00:47	10	0	0.1	0	0	398	0.3	397	398	18.6	80.3
2025-09-21T00:48	10	0	0.1	0	0	398	0.3	397	398	18.6	80.2
2025-09-21T00:49	10	0	0.1	0	0	398	0.2	397	398	18.7	80.2
2025-09-21T00:50	10	0	0.1	0	0	398	0.2	397	398	18.7	80.0
2025-09-21T00:51	10	0	0.1	0	0	398	0.2	398	399	18.8	79.6
2025-09-21T00:52	10	0	0.1	0	0	398	0.2	397	398	18.8	79.5
2025-09-21T00:53	10	0	0.1	0	0	398	0.3	397	399	18.8	79.0
2025-09-21T00:54	10	0	0.1	0	0	399	0.3	398	399	18.9	78.7
2025-09-21T00:55	10	0	0.1	0	1	399	0.2	399	399	19.0	77.8
2025-09-21T00:56	10	0	0.1	0	0	399	0.3	399	400	19.2	76.9
2025-09-21T00:57	10	0	0.1	0	1	400	0.2	399	400	19.2	76.7
2025-09-21T00:58	10	0	0.1	0	0	400	0.3	399	400	19.2	76.5
2025-09-21T00:59	10	0	0.1	0	0	400	0.3	399	400	19.3	75.9
2025-09-21T01:00	10	0	0.1	0	1	400	0.2	399	400	19.3	76.4
2025-09-21T01:01	10	0	0.1	0	1	400	0.2	399	400	19.2	77.0
2025-09-21T01:02	10	0	0.1	0	0	400	0.3	399	400	19.2	76.8
2025-09-21T01:03	10	0	0.1	0	1	400	0.3	400	401	19.3	76.1
2025-09-21T01:04	10	0	0.0	0	0	400	0.2	400	401	19.4	75.7
2025-09-21T01:05	10	0	0.1	0	0	400	0.3	399	400	19.4	75.6
2025-09-21T01:06	10	0	0.1	0	0	400	0.2	399	400	19.5	74.7
2025-09-21T01:07	10	0	0.0	0	0	399	0.3	399	400	19.6	74.2
2025-09-21T01:08	10	0	0.1	0	0	399	0.3	399	400	19.6	74.4
2025-09-21T01:09	10	0	0.1	0	0	399	0.3	398	400	19.4	75.6
2025-09-21T01:10	10	0	0.1	0	0	398	0.3	398	399	19.2	77.2
2025-09-21T01:11	10	0	0.1	0	0	398	0.4	397	399	19.0	78.4
2025-09-21T01:12	10	0	0.1	0	0	397	0.2	397	398	18.9	79.3
2025-09-21T01:13	10	0	0.0	0	0	397	0.4	396	397	18.8	79.7
2025-09-21T01:14	10	0	0.1	0	0	396	0.2	396	397	18.7	80.1
2025-09-21T01:15	10	0	0.1	0	0	396	0.2	395	396	18.7	80.2
2025-09-21T01:16	10	0	0.1	0	0	395	0.2	395	396	18.6	80.3
2025-09-21T01:17	10	0	0.1	0	1	395	0.2	394	395	18.6	80.7
2025-09-21T01:18	10	0	0.1	0	0	395	0.2	394	395	18.5	81.0
2025-09-21T01:19	10	0	0.1	0	0	394	0.2	394	395	18.5	82.0
2025-09-21T01:20	10	0	0.1	0	0	394	0.2	394	394	18.4	82.4
2025-09-21T01:21	10	0	0.1	0	0	394	0.2	394	394	18.3	83.1
2025-09-21T01:22	10	0	0.1	0	0	394	0.2	393	394	18.1	83.9
2025-09-21T01:23	10	0	0.1	0	0	394	0.2	393	394	18.0	84.4
2025-09-21T01:24	10	0	0.1	0	0	394	0.3	393	394	18.0	84.4
2025-09-21T01:25	10	0	0.1	0	0	394	0.3	393	394	18.0	84.8
2025-09-21T01:26	10	0	0.1	0	0	393	0.2	393	394	17.9	85.0
2025-09-21T01:27	10	0	0.1	0	0	394	0.4	393	394	17.8	85.3
2025-09-21T01:28	10	0	0.1	0	0	394	0.3	393	395	17.8	85.3
2025-09-21T01:29	10	0	0.0	0	0	395	0.2	394	395	17.9	85.1
2025-09-21T01:30	10	0	0.1	0	0	394	0.2	394	395	17.9	85.2
2025-09-21T01:31	10	0	0.1	0	0	394	0.3	394	395	17.8	85.6
2025-09-21T01:32	10	0	0.0	0	0	394	0.3	394	395	17.7	86.2
2025-09-21T01:33	10	0	0.1	0	0	394	0.2	394	395	17.6	86.9
2025-09-21T01:34	10	0	0.0	0	0	394	0.2	393	395	17.6	86.7
2025-09-21T01:35	10	0	0.0	0	0	394	0.2	393	394	17.7	86.2
2025-09-21T01:36	10	0	0.1	0	0	393	0.3	393	394	17.7	86.7
2025-09-21T01:37	10	0	0.0	0	0	393	0.2	393	393	17.5	87.9
2025-09-21T01:38	10	0	0.0	0	0	393	0.2	392	393	17.4	88.3
2025-09-21T01:39	10	0	0.0	0	0	393	0.2	392	393	17.4	88.2
2025-09-21T01:40	10	0	0.0	0	0	392	0.2	392	393	17.4	88.0
2025-09-21T01:41	10	0	0.0	0	0	392	0.2	392	392	17.5	87.6
2025-09-21T01:42	10	0	0.0	0	0	392	0.3	391	393	17.5	87.3
2025-09-21T01:43	10	0	0.0	0	0	392	0.2	392	393	17.5	87.3
2025-09-21T01:44	10	0	0.0	0	0	392	0.2	391	392	17.6	87.2
2025-09-21T01:45	10	0	0.1	0	0	392	0.3	391	392	17.6	87.2
2025-09-21T01:46	10	0	0.1	0	0	392	0.3	391	392	17.5	87.6
2025-09-21T01:47	10	0	0.0	0	0	392	0.3	391	393	17.4	88.0
2025-09-21T01:48	10	0	0.0	0	0	392	0.2	392	393	17.4	88.1
2025-09-21T01:49	10	0	0.0	0	0	392	0.2	392	393	17.4	88.2
2025-09-21T01:50	10	0	0.0	0	0	392	0.2	392	393	17.4	88.4
2025-09-21T01:51	10	0	0.0	0	0	392	0.2	392	393	17.4	88.7
2025-09-21T01:52	10	0	0.1	0	0	392	0.3	392	393	17.4	88.3
2025-09-21T01:53	10	0	0.1	0	0	393	0.3	393	394	17.7	86.5
2025-09-21T01:54	10	0	0.1	0	0	393	0.3	393	394	17.8	85.3
2025-09-21T01:55	10	0	0.1	0	0	393	0.3	392	394	17.8	85.6
2025-09-21T01:56	10	0	0.1	0	0	393	0.2	392	393	17.8	85.4
2025-09-21T01:57	10	0	0.1	0	0	393	0.2	392	393	17.8	85.6
2025-09-21T01:58	10	0	0.1	0	0	393	0.2	393	393	17.9	85.1
2025-09-21T01:59	10	0	0.1	0	0	393	0.3	392	394	17.9	84.9
2025-09-21T02:00	10	0	0.1	0	0	393	0.2	393	394	18.0	84.4
2025-09-21T02:01	10	0	0.1	0	0	393	0.3	393	394	18.0	84.1
2025-09-21T02:02	10	0	0.1	0	0	393	0.2	393	394	17.9	84.9
2025-09-21T02:03	10	0	0.1	0	0	393	0.2	393	394	17.8	85.7
2025-09-21T02:04	10	0	0.1	0	0	393	0.3	393	394	17.7	86.6
2025-09-21T02:05	10	0	0.1	0	0	393	0.3	393	394	17.6	86.9
2025-09-21T02:06	10	0	0.1	0	0	393	0.2	393	394	17.5	87.4
2025-09-21T02:07	10	0	0.1	0	0	393	0.3	393	394	17.5	87.7
2025-09-21T02:08	10	0	0.0	0	0	393	0.3	393	394	17.5	87.6
2025-09-21T02:09	10	0	0.1	0	1	394	0.2	393	394	17.4	88.3
2025-09-21T02:10	10	0	0.1	0	0	394	0.2	393	395	17.4	87.9
2025-09-21T02:11	10	0	0.1	0	0	394	0.2	393	394	17.4	87.9
2025-09-21T02:12	10	0	0.1	0	0	394	0.2	394	395	17.3	88.1
2025-09-21T02:13	10	0	0.1	0	0	394	0.2	393	394	17.3	88.4
2025-09-21T02:14	10	0	0.1	0	0	394	0.3	393	394	17.3	88.7
2025-09-21T02:15	10	0	0.1	0	0	394	0.2	394	395	17.3	88.7
2025-09-21T02:16	10	0	0.1	0	0	394	0.2	394	395	17.3	88.7
2025-09-21T02:17	10	0	0.1	0	0	394	0.2	394	395	17.3	88.4
2025-09-21T02:18	10	0	0.1	0	0	394	0.2	393	394	17.4	88.1
2025-09-21T02:19	10	0	0.1	0	0	394	0.3	393	394	17.4	88.2
2025-09-21T02:20	10	0	0.1	0	0	394	0.2	393	394	17.3	88.4
2025-09-21T02:21	10	0	0.1	0	0	394	0.3	393	395	17.3	88.5
2025-09-21T02:22	10	0	0.1	0	0	394	0.3	393	394	17.3	88.4
2025-09-21T02:23	10	0	0.1	0	1	394	0.2	393	394	17.3	88.3
2025-09-21T02:24	10	0	0.1	0	0	394	0.2	393	394	17.3	88.2
2025-09-21T02:25	10	0	0.1	0	0	394	0.2	393	394	17.3	88.7
2025-09-21T02:26	10	0	0.1	0	1	394	0.3	393	394	17.3	88.3
2025-09-21T02:27	10	0	0.1	0	0	394	0.2	393	394	17.4	87.9
2025-09-21T02:28	10	0	0.1	0	0	394	0.2	394	395	17.4	87.5
2025-09-21T02:29	10	0	0.1	0	0	394	0.2	394	395	17.5	87.2
2025-09-21T02:30	10	0	0.1	0	0	394	0.3	394	395	17.5	86.7
2025-09-21T02:31	10	0	0.1	0	0	395	0.2	394	395	17.8	85.3
2025-09-21T02:32	10	0	0.1	0	0	394	0.3	393	395	17.8	85.6
2025-09-21T02:33	10	0	0.1	0	0	394	0.3	393	394	17.5	86.9
2025-09-21T02:34	10	0	0.1	0	1	394	0.2	394	395	17.6	86.4
2025-09-21T02:35	10	0	0.1	0	0	394	0.3	394	395	17.7	86.0
2025-09-21T02:36	10	0	0.1	0	1	394	0.2	394	395	17.6	86.6
2025-09-21T02:37	10	0	0.1	0	0	394	0.3	393	394	17.5	87.4
2025-09-21T02:38	10	0	0.1	0	0	394	0.2	393	394	17.4	87.8
2025-09-21T02:39	10	0	0.1	0	1	394	0.2	394	394	17.4	88.0
2025-09-21T02:40	10	0	0.1	0	0	394	0.2	393	394	17.4	88.2
2025-09-21T02:41	10	0	0.1	0	1	394	0.2	393	395	17.3	88.7
2025-09-21T02:42	10	0	0.1	0	0	394	0.2	394	395	17.3	88.7
2025-09-21T02:43	10	0	0.1	0	1	394	0.3	393	395	17.2	88.9
2025-09-21T02:44	10	0	0.1	0	1	394	0.2	393	394	17.1	89.4
2025-09-21T02:45	10	0	0.1	0	1	394	0.3	393	394	17.0	89.6
2025-09-21T02:46	10	0	0.1	0	1	394	0.3	393	394	17.0	89.5
2025-09-21T02:47	10	0	0.1	0	1	393	0.2	393	394	16.9	89.6
2025-09-21T02:48	10	0	0.1	0	1	393	0.3	392	394	16.9	90.1
2025-09-21T02:49	10	0	0.1	0	1	393	0.2	392	394	16.9	90.5
2025-09-21T02:50	10	0	0.1	0	0	393	0.3	392	394	16.9	90.7
2025-09-21T02:51	10	0	0.1	0	1	393	0.2	393	394	16.9	90.7
2025-09-21T02:52	10	0	0.1	0	0	393	0.2	393	393	16.9	90.8
2025-09-21T02:53	10	0	0.1	0	0	393	0.2	392	393	16.8	91.1
2025-09-21T02:54	10	0	0.1	0	0	393	0.2	392	393	16.8	91.1
2025-09-21T02:55	10	0	0.1	0	0	393	0.2	392	393	16.8	91.3
2025-09-21T02:56	10	0	0.1	0	0	393	0.3	392	393	16.8	91.4
2025-09-21T02:57	10	0	0.1	0	0	393	0.3	392	393	16.8	91.2
2025-09-21T02:58	10	0	0.1	0	0	393	0.2	392	393	16.9	91.1
2025-09-21T02:59	10	0	0.1	0	1	393	0.2	392	393	17.0	90.7
2025-09-21T03:00	10	0	0.1	0	0	393	0.2	392	393	17.0	90.9
2025-09-21T03:01	10	0	0.1	0	1	393	0.2	393	393	17.0	90.9
2025-09-21T03:02	10	0	0.1	0	1	393	0.2	392	394	17.0	90.8
2025-09-21T03:03	10	0	0.1	0	0	393	0.2	392	393	17.0	91.0
2025-09-21T03:04	10	0	0.1	0	1	393	0.2	393	393	17.0	90.9
2025-09-21T03:05	10	0	0.1	0	1	393	0.3	392	393	16.9	91.3
2025-09-21T03:06	10	0	0.1	0	1	393	0.3	392	394	16.9	91.3
2025-09-21T03:07	10	0	0.1	0	1	393	0.3	393	394	17.0	90.5
2025-09-21T03:08	10	0	0.1	0	1	394	0.3	393	394	17.1	89.5
2025-09-21T03:09	10	0	0.1	0	0	394	0.3	394	395	17.2	89.2
2025-09-21T03:10	10	0	0.1	0	1	394	0.3	394	395	17.3	88.5
2025-09-21T03:11	10	0	0.1	0	0	394	0.2	394	394	17.3	88.4
2025-09-21T03:12	10	0	0.1	0	0	394	0.3	394	395	17.3	87.9
2025-09-21T03:13	10	0	0.1	0	1	394	0.3	394	395	17.4	87.2
2025-09-21T03:14	10	0	0.1	0	1	395	0.3	394	395	17.5	86.7
2025-09-21T03:15	10	0	0.1	0	1	395	0.3	394	395	17.6	86.0
2025-09-21T03:16	10	0	0.1	0	1	394	0.3	393	395	17.6	86.4
2025-09-21T03:17	10	0	0.1	0	0	394	0.2	394	395	17.6	85.8
2025-09-21T03:18	10	0	0.1	0	0	395	0.3	394	395	17.7	84.8
2025-09-21T03:19	10	0	0.1	0	0	394	0.3	394	395	17.8	84.2
2025-09-21T03:20	10	0	0.1	0	0	394	0.3	393	395	17.7	85.4
2025-09-21T03:21	10	0	0.1	0	0	394	0.3	393	394	17.6	86.0
2025-09-21T03:22	10	0	0.1	0	1	394	0.2	393	394	17.5	86.8
2025-09-21T03:23	10	0	0.1	0	1	394	0.3	393	395	17.4	86.8
2025-09-21T03:24	10	0	0.1	0	1	394	0.2	393	394	17.4	86.9
2025-09-21T03:25	10	0	0.1	0	1	394	0.3	393	394	17.3	87.4
2025-09-21T03:26	10	0	0.1	0	0	393	0.3	393	394	17.3	88.1
2025-09-21T03:27	10	0	0.1	0	0	394	0.2	393	395	17.3	87.8
2025-09-21T03:28	10	0	0.1	0	0	394	0.3	394	395	17.3	87.5
2025-09-21T03:29	10	0	0.1	0	1	394	0.2	394	395	17.4	87.1
2025-09-21T03:30	10	0	0.1	0	0	394	0.2	394	395	17.4	86.9
2025-09-21T03:31	10	0	0.1	0	0	394	0.2	394	395	17.4	87.0
2025-09-21T03:32	10	0	0.1	0	0	394	0.2	394	394	17.4	87.1
2025-09-21T03:33	10	0	0.1	0	0	394	0.2	394	395	17.3	87.3
2025-09-21T03:34	10	0	0.1	0	0	394	0.2	394	395	17.3	87.5
2025-09-21T03:35	10	0	0.1	0	0	394	0.2	393	394	17.2	88.0
2025-09-21T03:36	10	0	0.1	0	0	394	0.2	393	394	17.1	88.3
2025-09-21T03:37	10	0	0.1	0	0	393	0.2	393	394	17.1	88.8
2025-09-21T03:38	10	0	0.1	0	0	393	0.2	393	394	17.0	89.1
2025-09-21T03:39	10	0	0.1	0	0	393	0.2	393	394	17.0	89.0
2025-09-21T03:40	10	0	0.1	0	0	393	0.2	393	394	17.0	89.3
2025-09-21T03:41	10	0	0.1	0	0	393	0.2	392	393	16.9	89.4
2025-09-21T03:42	10	0	0.1	0	0	393	0.2	392	393	16.9	89.6
2025-09-21T03:43	10	0	0.1	0	0	393	0.2	393	394	16.9	89.3
2025-09-21T03:44	10	0	0.1	0	0	393	0.2	393	394	17.0	89.1
2025-09-21T03:45	10	0	0.1	0	0	393	0.2	393	394	17.0	88.8
2025-09-21T03:46	10	0	0.1	0	0	393	0.3	393	394	17.0	89.1
2025-09-21T03:47	10	0	0.1	0	0	393	0.3	392	393	16.9	89.3
2025-09-21T03:48	10	0	0.1	0	0	393	0.2	392	393	16.9	89.2
2025-09-21T03:49	10	0	0.1	0	0	393	0.2	392	393	16.9	89.4
2025-09-21T03:50	10	0	0.1	0	0	392	0.2	392	393	16.9	89.6
2025-09-21T03:51	10	0	0.1	0	0	392	0.2	392	393	16.8	90.2
2025-09-21T03:52	10	0	0.1	0	0	392	0.2	392	393	16.8	90.3
2025-09-21T03:53	10	0	0.1	0	0	392	0.2	392	393	16.8	90.1
2025-09-21T03:54	10	0	0.1	0	0	392	0.3	392	393	16.8	90.4
2025-09-21T03:55	10	0	0.1	0	0	392	0.2	392	393	16.8	90.9
2025-09-21T03:56	10	0	0.1	0	0	392	0.2	392	392	16.8	91.5
2025-09-21T03:57	10	0	0.1	0	0	392	0.2	392	392	16.7	91.7
2025-09-21T03:58	10	0	0.1	0	0	392	0.2	392	392	16.8	91.6
2025-09-21T03:59	10	0	0.1	0	0	392	0.2	391	392	16.8	90.8
2025-09-21T04:00	10	0	0.1	0	0	392	0.2	391	392	16.9	90.2
2025-09-21T04:01	10	0	0.1	0	0	391	0.3	391	392	16.8	90.8
2025-09-21T04:02	10	0	0.1	0	0	391	0.2	391	392	16.8	90.9
2025-09-21T04:03	10	0	0.1	0	0	391	0.2	391	392	16.8	90.7
2025-09-21T04:04	10	0	0.1	0	0	391	0.2	391	392	16.9	90.2
2025-09-21T04:05	10	0	0.1	0	0	391	0.2	391	392	16.9	90.2
2025-09-21T04:06	10	0	0.1	0	0	391	0.2	391	392	16.9	89.9
2025-09-21T04:07	10	0	0.1	0	0	391	0.2	391	392	17.0	89.3
2025-09-21T04:08	10	0	0.1	0	0	391	0.2	391	392	17.0	88.9
2025-09-21T04:09	10	0	0.1	0	0	392	0.3	391	392	17.1	88.4
2025-09-21T04:10	10	0	0.1	0	0	391	0.3	391	392	17.2	87.6
2025-09-21T04:11	10	0	0.1	0	0	391	0.3	391	392	17.3	87.0
2025-09-21T04:12	10	0	0.1	0	0	391	0.3	390	392	17.3	87.2
2025-09-21T04:13	10	0	0.1	0	0	391	0.3	390	391	17.2	88.1
2025-09-21T04:14	10	0	0.1	0	0	391	0.2	390	391	17.1	88.5
2025-09-21T04:15	10	0	0.1	0	0	391	0.2	390	391	17.1	88.5
2025-09-21T04:16	10	0	0.1	0	0	390	0.2	390	391	17.1	88.8
2025-09-21T04:17	10	0	0.1	0	0	390	0.2	389	391	17.0	89.1
2025-09-21T04:18	10	0	0.0	0	0	390	0.2	390	391	16.9	89.7
2025-09-21T04:19	10	0	0.1	0	0	391	0.3	390	391	16.9	90.1
2025-09-21T04:20	10	0	0.1	0	0	390	0.3	390	391	16.8	90.3
2025-09-21T04:21	10	0	0.1	0	0	390	0.2	390	391	16.8	90.6
2025-09-21T04:22	10	0	0.0	0	0	390	0.2	389	390	16.8	90.6
2025-09-21T04:23	10	0	0.1	0	0	390	0.2	390	391	16.8	90.5
2025-09-21T04:24	10	0	0.0	0	0	390	0.2	389	391	16.8	90.5
2025-09-21T04:25	10	0	0.0	0	0	390	0.2	390	391	16.8	90.9
2025-09-21T04:26	10	0	0.0	0	0	390	0.2	390	391	16.8	91.0
2025-09-21T04:27	10	0	0.1	0	0	390	0.3	389	390	16.9	90.3
2025-09-21T04:28	10	0	0.0	0	0	390	0.4	389	390	16.9	90.5
2025-09-21T04:29	10	0	0.1	0	0	390	0.2	389	390	16.9	89.9
2025-09-21T04:30	10	0	0.0	0	0	390	0.2	390	391	16.9	90.6
2025-09-21T04:31	10	0	0.0	0	0	390	0.3	390	391	16.8	90.9
2025-09-21T04:32	10	0	0.1	0	0	391	0.2	390	391	16.9	90.4
2025-09-21T04:33	10	0	0.1	0	0	391	0.3	390	391	17.0	90.0
2025-09-21T04:34	10	0	0.1	0	0	391	0.4	390	392	17.2	87.8
2025-09-21T04:35	10	0	0.1	0	0	391	0.2	390	392	17.4	86.4
2025-09-21T04:36	10	0	0.1	0	0	392	0.2	391	392	17.5	86.2
2025-09-21T04:37	10	0	0.0	0	0	391	0.2	391	391	17.5	86.1
2025-09-21T04:38	10	0	0.1	0	0	391	0.2	390	391	17.4	86.9
2025-09-21T04:39	10	0	0.1	0	0	390	0.3	390	391	17.3	87.2
2025-09-21T04:40	10	0	0.1	0	0	390	0.2	390	391	17.3	87.4
2025-09-21T04:41	10	0	0.1	0	0	390	0.2	390	391	17.2	87.5
2025-09-21T04:42	10	0	0.1	0	0	390	0.3	389	391	17.2	87.6
2025-09-21T04:43	10	0	0.1	0	0	390	0.3	389	391	17.2	87.8
2025-09-21T04:44	10	0	0.1	0	0	390	0.2	389	390	17.2	87.8
2025-09-21T04:45	10	0	0.1	0	0	389	0.2	389	390	17.3	87.0
2025-09-21T04:46	10	0	0.1	0	0	389	0.4	388	390	17.4	86.3
2025-09-21T04:47	10	0	0.1	0	0	389	0.2	388	389	17.2	87.7
2025-09-21T04:48	10	0	0.1	0	0	389	0.3	388	389	17.0	88.7
2025-09-21T04:49	10	0	0.0	0	0	389	0.3	389	390	16.9	89.2
2025-09-21T04:50	10	0	0.0	0	0	390	0.2	390	390	16.9	89.2
2025-09-21T04:51	10	0	0.1	0	0	391	0.2	390	391	16.9	89.6
2025-09-21T04:52	10	0	0.1	0	0	391	0.2	390	392	16.9	89.4
2025-09-21T04:53	10	0	0.0	0	0	391	0.2	390	391	16.9	89.6
2025-09-21T04:54	10	0	0.0	0	0	391	0.3	390	391	16.9	89.5
2025-09-21T04:55	10	0	0.0	0	0	391	0.2	390	391	16.9	89.3
2025-09-21T04:56	10	0	0.0	0	0	390	0.2	390	391	16.9	89.4
2025-09-21T04:57	10	0	0.1	0	0	390	0.2	390	391	17.0	88.8
2025-09-21T04:58	10	0	0.1	0	0	390	0.2	390	391	17.1	87.7
2025-09-21T04:59	10	0	0.1	0	0	390	0.3	389	391	17.1	88.0
2025-09-21T05:00	10	0	0.1	0	0	390	0.2	389	390	16.9	89.3
2025-09-21T05:01	10	0	0.1	0	0	390	0.3	389	390	16.7	90.4
2025-09-21T05:02	10	0	0.1	0	0	389	0.2	389	390	16.6	91.0
2025-09-21T05:03	10	0	0.1	0	0	389	0.2	389	390	16.5	91.4
2025-09-21T05:04	10	0	0.1	0	0	389	0.2	388	389	16.6	91.2
2025-09-21T05:05	10	0	0.1	0	0	388	0.3	387	389	16.7	90.7
2025-09-21T05:06	10	0	0.1	0	0	388	0.4	387	388	16.8	90.1
2025-09-21T05:07	10	0	0.1	0	1	387	0.3	386	387	16.8	90.1
2025-09-21T05:08	10	0	0.1	0	1	386	0.2	386	387	16.7	90.7
2025-09-21T05:09	10	1	0.0	0	1	386	0.2	386	387	16.6	90.9
2025-09-21T05:10	10	1	0.1	0	1	386	0.2	385	386	16.7	90.8
2025-09-21T05:11	10	1	0.1	0	1	385	0.2	385	386	16.7	90.4
2025-09-21T05:12	10	1	0.1	1	1	385	0.3	385	386	16.8	90.1
2025-09-21T05:13	10	1	0.1	1	1	386	0.3	385	387	17.0	88.7
2025-09-21T05:14	10	1	0.1	1	1	386	0.2	386	386	17.0	88.8
2025-09-21T05:15	10	1	0.1	1	1	386	0.2	385	386	17.1	88.1
2025-09-21T05:16	10	1	0.1	1	1	386	0.3	386	387	17.2	86.8
2025-09-21T05:17	10	1	0.1	1	1	386	0.3	386	387	17.4	86.0
2025-09-21T05:18	10	1	0.1	1	1	386	0.2	385	386	17.4	85.9
2025-09-21T05:19	10	1	0.1	1	1	386	0.2	385	386	17.5	85.1
2025-09-21T05:20	10	1	0.1	1	1	385	0.3	385	386	17.4	85.2
2025-09-21T05:21	10	1	0.1	1	1	385	0.3	384	385	17.1	87.2
2025-09-21T05:22	10	1	0.1	1	1	385	0.2	384	385	17.0	87.9
2025-09-21T05:23	10	1	0.1	1	1	384	0.4	383	385	17.0	88.0
2025-09-21T05:24	10	1	0.1	1	2	384	0.2	383	384	16.8	89.2
2025-09-21T05:25	10	1	0.1	1	2	383	0.3	383	384	16.8	89.4
2025-09-21T05:26	10	1	0.1	1	2	384	0.3	383	384	16.8	88.2
2025-09-21T05:27	10	1	0.1	1	2	384	0.2	383	384	16.9	87.0
2025-09-21T05:28	10	2	0.1	1	2	384	0.3	383	385	17.0	85.8
2025-09-21T05:29	10	2	0.1	2	2	384	0.3	384	385	17.2	84.6
2025-09-21T05:30	10	2	0.1	2	2	385	0.2	385	385	17.3	83.8
2025-09-21T05:31	10	2	0.1	2	3	385	0.2	384	385	17.5	83.4
2025-09-21T05:32	10	3	0.1	2	3	386	0.3	385	386	17.4	84.3
2025-09-21T05:33	10	3	0.1	3	3	386	0.3	385	387	17.4	84.3
2025-09-21T05:34	10	3	0.1	3	4	386	0.2	385	386	17.2	85.6
2025-09-21T05:35	10	4	0.1	3	4	386	0.3	385	386	17.0	86.5
2025-09-21T05:36	10	4	0.1	4	4	387	0.8	386	388	17.2	84.8
2025-09-21T05:37	10	4	0.1	4	4	387	0.3	386	387	17.6	82.5
2025-09-21T05:38	10	4	0.1	4	4	388	0.5	386	388	17.6	82.2
2025-09-21T05:39	10	5	0.1	4	5	387	0.2	387	388	17.4	84.3
2025-09-21T05:40	10	5	0.1	5	5	387	0.5	387	389	17.2	85.1
2025-09-21T05:41	10	5	0.2	5	6	389	0.3	388	389	17.8	80.0
2025-09-21T05:42	10	6	0.2	5	6	388	0.5	387	389	18.2	77.6
2025-09-21T05:43	10	6	0.1	6	6	388	0.2	387	388	17.8	81.3
2025-09-21T05:44	10	7	0.3	6	8	389	0.4	388	390	17.6	81.1
2025-09-21T05:45	10	8	0.5	8	9	389	0.4	389	390	18.0	78.2
2025-09-21T05:46	10	10	0.7	9	12	389	0.3	389	390	18.1	77.9
2025-09-21T05:47	10	12	0.2	12	13	389	0.2	389	390	18.0	79.8
2025-09-21T05:48	10	13	0.3	12	14	389	0.2	389	390	17.8	80.7
2025-09-21T05:49	10	14	0.4	13	15	390	0.2	390	391	17.9	80.0
2025-09-21T05:50	10	15	0.2	15	16	390	0.3	390	391	18.0	79.7
2025-09-21T05:51	10	15	0.1	15	16	390	0.5	389	391	17.8	82.2
2025-09-21T05:52	10	16	0.4	15	17	390	0.3	390	391	17.6	82.3
2025-09-21T05:53	10	17	0.3	17	18	391	0.4	390	392	17.7	81.2
2025-09-21T05:54	10	18	0.3	17	19	392	0.4	391	393	17.8	80.2
2025-09-21T05:55	10	19	0.2	19	20	393	0.4	392	393	18.0	79.1
2025-09-21T05:56	10	20	0.2	19	20	394	0.4	393	394	18.2	77.0
2025-09-21T05:57	10	21	0.2	20	21	394	0.3	394	395	18.4	76.7
2025-09-21T05:58	10	21	0.2	21	22	395	0.2	395	396	18.5	75.9
2025-09-21T05:59	10	22	0.2	22	22	396	0.3	395	396	18.7	74.3
2025-09-21T06:00	10	22	0.2	22	23	396	0.2	396	397	18.9	73.7
2025-09-21T06:01	10	23	0.2	22	23	396	0.4	395	397	18.7	74.0
2025-09-21T06:02	10	24	0.2	23	24	395	0.3	395	396	18.5	76.4
2025-09-21T06:03	10	24	0.1	24	24	396	0.2	395	396	18.3	77.3
2025-09-21T06:04	10	25	0.2	24	25	397	0.2	396	397	18.4	76.2
2025-09-21T06:05	10	25	0.1	25	25	397	0.2	397	398	18.5	75.1
2025-09-21T06:06	10	25	0.2	25	26	397	0.3	396	397	18.7	75.4
2025-09-21T06:07	10	26	0.2	25	26	397	0.2	396	397	18.7	75.5
2025-09-21T06:08	10	26	0.2	26	27	397	0.3	396	397	18.7	75.0
2025-09-21T06:09	10	27	0.3	27	28	397	0.2	396	397	18.7	76.0
2025-09-21T06:10	10	28	0.3	28	29	397	0.2	396	397	18.8	75.3
2025-09-21T06:11	10	29	0.3	29	30	397	0.2	396	397	18.9	74.8
2025-09-21T06:12	10	31	0.4	30	31	397	0.2	396	397	18.6	77.6
2025-09-21T06:13	10	32	0.3	31	33	397	0.2	397	398	18.4	77.8
2025-09-21T06:14	10	33	0.3	33	34	397	0.3	396	398	18.3	78.9
2025-09-21T06:15	10	34	0.3	34	35	398	0.2	397	398	18.1	81.0
2025-09-21T06:16	10	35	0.3	35	36	397	0.3	397	398	18.0	81.4
2025-09-21T06:17	10	36	0.2	36	37	398	0.2	397	398	17.9	82.0
2025-09-21T06:18	10	37	0.3	37	38	398	0.4	397	399	17.8	82.5
2025-09-21T06:19	10	38	0.4	38	39	399	0.4	398	400	17.8	82.5
2025-09-21T06:20	10	40	0.5	39	41	400	0.4	399	401	17.9	82.4
2025-09-21T06:21	10	41	0.7	39	42	401	0.4	400	402	18.0	81.8
2025-09-21T06:22	10	41	2.7	37	44	402	0.5	401	403	18.1	79.3
2025-09-21T06:23	10	45	0.5	44	46	403	0.4	402	404	18.3	78.3
2025-09-21T06:24	10	47	0.5	46	47	403	0.3	403	404	18.3	81.2
2025-09-21T06:25	10	48	0.4	48	49	404	0.2	403	404	18.5	79.9
2025-09-21T06:26	10	50	0.4	49	51	405	0.4	404	406	18.8	78.4
2025-09-21T06:27	10	51	0.5	51	52	406	0.3	405	406	18.5	81.5
2025-09-21T06:28	10	53	0.4	52	54	405	0.2	405	406	18.1	83.5
2025-09-21T06:29	10	54	0.3	53	55	405	0.3	405	406	18.0	82.1
2025-09-21T06:30	10	55	0.2	55	55	406	0.3	406	407	18.0	81.9
2025-09-21T06:31	10	55	0.1	55	55	405	0.6	404	407	17.8	83.7
2025-09-21T06:32	10	56	0.2	55	56	405	0.2	404	406	17.8	84.5
2025-09-21T06:33	10	56	0.2	56	57	406	0.4	405	407	17.9	84.2
2025-09-21T06:34	10	57	0.2	56	57	407	0.4	406	408	18.0	83.4
2025-09-21T06:35	10	57	0.2	57	58	408	0.4	407	409	18.1	81.8
2025-09-21T06:36	10	58	0.2	58	59	409	0.4	408	410	18.2	82.5
2025-09-21T06:37	10	59	0.2	58	59	410	0.3	409	410	18.3	81.4
2025-09-21T06:38	10	59	0.2	59	60	410	0.3	409	411	18.6	78.7
2025-09-21T06:39	10	60	0.2	60	60	411	0.2	410	411	18.9	79.1
2025-09-21T06:40	10	61	0.3	60	61	411	0.2	411	412	19.1	79.1
2025-09-21T06:41	10	62	0.3	61	62	412	0.3	411	412	19.3	76.6
2025-09-21T06:42	10	62	0.2	62	63	413	0.3	412	413	19.4	78.0
2025-09-21T06:43	10	63	0.2	63	63	413	0.2	412	413	19.4	76.3
2025-09-21T06:44	10	64	0.3	63	65	414	0.3	413	414	19.5	76.2
2025-09-21T06:45	10	65	0.4	65	66	414	0.2	414	414	19.6	75.7
2025-09-21T06:46	10	66	0.4	66	67	414	0.2	414	415	19.4	77.9
2025-09-21T06:47	10	67	0.3	67	68	415	0.3	414	415	19.3	77.7
2025-09-21T06:48	10	68	0.2	68	69	415	0.2	415	416	19.5	78.0
2025-09-21T06:49	10	69	0.1	69	69	416	0.2	415	416	19.6	76.1
2025-09-21T06:50	10	69	0.1	69	69	416	0.3	415	416	19.5	74.1
2025-09-21T06:51	10	69	0.1	69	69	416	0.2	415	416	19.6	74.3
2025-09-21T06:52	10	69	0.2	68	69	416	0.3	415	416	19.5	76.6
2025-09-21T06:53	10	68	0.3	67	68	416	0.2	415	416	19.4	76.1
2025-09-21T06:54	10	67	0.2	67	67	416	0.3	415	416	19.4	77.6
2025-09-21T06:55	10	66	0.2	66	67	416	0.2	415	416	19.4	76.9
2025-09-21T06:56	10	66	0.3	65	66	416	0.4	415	416	19.5	78.4
2025-09-21T06:57	10	65	0.2	64	65	415	0.3	415	416	19.4	77.7
2025-09-21T06:58	10	64	0.2	64	65	415	0.2	415	415	19.5	77.9
2025-09-21T06:59	10	64	0.2	64	65	415	0.2	415	416	19.5	77.7
2025-09-21T07:00	10	64	0.2	64	65	416	0.3	415	416	19.6	78.7
2025-09-21T07:01	10	65	0.5	64	65	416	0.2	415	416	19.5	79.4
2025-09-21T07:02	10	65	0.2	65	66	416	0.3	415	416	19.4	79.3
2025-09-21T07:03	10	66	0.2	65	66	416	0.2	415	416	19.5	77.8
2025-09-21T07:04	10	67	0.2	66	67	416	0.3	416	417	19.9	76.0
2025-09-21T07:05	10	67	0.2	67	68	417	0.2	416	417	20.3	73.5
2025-09-21T07:06	10	68	0.4	67	69	417	0.3	416	417	20.3	72.7
2025-09-21T07:07	10	69	0.2	69	69	418	0.2	417	418	20.5	73.3
2025-09-21T07:08	10	70	0.2	69	70	418	0.2	417	418	20.5	72.8
2025-09-21T07:09	10	70	0.1	70	70	418	0.2	417	419	20.8	70.9
2025-09-21T07:10	10	71	0.8	69	72	419	0.2	418	419	20.8	73.4
2025-09-21T07:11	10	71	0.3	71	72	419	0.2	418	419	20.4	74.1
2025-09-21T07:12	10	72	0.8	71	73	419	0.2	418	419	20.5	73.9
2025-09-21T07:13	10	73	0.3	73	74	419	0.2	419	420	20.6	71.7
2025-09-21T07:14	10	74	0.9	73	75	420	0.3	419	420	21.0	69.2
2025-09-21T07:15	10	76	0.3	75	76	420	0.3	420	421	20.8	70.5
2025-09-21T07:16	10	77	0.3	76	77	421	0.2	420	421	20.8	70.8
2025-09-21T07:17	10	78	0.3	77	79	419	0.6	418	421	20.3	73.3
2025-09-21T07:18	10	79	0.4	78	80	419	0.2	419	420	19.9	74.7
2025-09-21T07:19	10	76	2.2	73	80	419	0.4	418	420	19.9	74.5
2025-09-21T07:20	10	71	9.2	56	81	420	0.5	418	421	19.9	75.3
2025-09-21T07:21	10	58	3.4	54	64	418	0.4	418	419	20.0	74.4
2025-09-21T07:22	10	75	4.6	65	80	420	0.8	419	421	20.1	74.3
2025-09-21T07:23	10	76	1.0	74	78	422	0.3	421	422	20.4	74.3
2025-09-21T07:24	10	80	4.3	73	85	422	0.5	421	423	20.4	73.5
2025-09-21T07:25	10	84	0.5	83	84	422	0.3	422	423	20.6	71.1
2025-09-21T07:26	10	83	0.6	82	84	422	0.4	421	423	20.8	68.4
2025-09-21T07:27	10	81	1.7	79	85	421	0.3	421	422	20.8	66.9
2025-09-21T07:28	10	87	0.6	85	88	422	0.4	422	423	20.9	67.0
2025-09-21T07:29	10	88	0.4	87	89	423	0.2	422	423	20.9	67.7
2025-09-21T07:30	10	87	1.0	86	88	423	0.3	423	424	20.9	66.7
2025-09-21T07:31	10	90	0.8	88	91	424	0.3	423	425	21.0	63.3
2025-09-21T07:32	10	90	0.4	89	91	424	0.3	423	425	21.1	64.8
2025-09-21T07:33	10	93	0.9	90	94	425	0.4	424	425	20.9	65.6
2025-09-21T07:34	10	92	3.3	80	94	426	0.2	425	426	20.9	67.3
2025-09-21T07:35	10	84	8.7	68	93	426	0.6	425	427	21.1	68.0
2025-09-21T07:36	10	91	9.7	70	99	427	0.5	426	428	21.1	66.2
2025-09-21T07:37	10	92	9.4	73	99	427	0.5	426	428	21.1	62.0
2025-09-21T07:38	10	99	1.9	96	101	428	0.3	427	429	21.5	61.9
2025-09-21T07:39	10	102	4.2	96	108	428	0.3	428	429	21.3	63.6
2025-09-21T07:40	10	98	8.3	81	108	427	0.5	426	428	21.2	63.4
2025-09-21T07:41	10	96	5.4	83	105	428	0.6	427	430	21.2	63.8
2025-09-21T07:42	10	103	3.0	95	108	430	0.3	429	430	21.2	64.9
2025-09-21T07:43	10	96	6.8	81	106	430	0.9	429	431	21.5	61.8
2025-09-21T07:44	10	94	4.3	87	101	429	0.6	428	430	21.6	57.2
2025-09-21T07:45	10	74	11.4	59	95	427	1.7	424	429	21.5	56.5
2025-09-21T07:46	10	66	7.0	53	74	424	0.6	423	426	21.4	56.7
2025-09-21T07:47	10	93	21.4	53	112	426	2.3	423	430	21.3	58.4
2025-09-21T07:48	10	111	1.1	109	113	429	0.6	428	430	21.3	58.5
2025-09-21T07:49	10	110	0.8	109	111	430	0.2	429	430	21.4	57.2
2025-09-21T07:50	10	111	4.1	98	116	431	0.4	430	432	21.9	56.5
2025-09-21T07:51	10	89	9.0	75	101	430	0.9	429	432	21.9	57.5
2025-09-21T07:52	10	92	7.9	77	107	430	0.4	430	431	21.8	58.1
2025-09-21T07:53	10	113	1.5	108	115	432	0.5	430	432	21.8	58.1
2025-09-21T07:54	10	112	1.4	109	114	433	0.3	432	433	21.8	58.1
2025-09-21T07:55	10	104	7.1	93	113	432	1.0	430	434	21.8	58.1
2025-09-21T07:56	10	99	7.9	87	111	432	0.5	431	433	21.8	57.1
2025-09-21T07:57	10	84	9.9	71	100	430	1.1	427	431	21.8	58.1
2025-09-21T07:58	10	76	5.6	66	86	428	0.4	427	429	21.8	58.1
2025-09-21T07:59	10	71	10.3	54	87	427	0.6	426	428	21.8	58.1
2025-09-21T08:00	10	95	9.5	65	104	430	1.3	427	432	21.5	59.0
2025-09-21T08:01	10	99	4.8	74	106	432	0.6	430	433	21.5	62.9
2025-09-21T08:02	10	103	2.7	97	106	433	0.3	432	433	21.6	60.3
2025-09-21T08:03	10	103	1.8	100	106	433	0.3	432	434	21.6	58.0
2025-09-21T08:04	10	102	4.1	91	106	434	0.4	433	434	21.8	60.7
2025-09-21T08:05	10	99	2.9	92	103	433	0.3	433	434	22.1	59.4
2025-09-21T08:06	10	95	4.0	84	100	433	0.4	432	434	22.0	59.6
2025-09-21T08:07	10	98	4.8	89	107	432	0.7	431	433	21.9	58.5
2025-09-21T08:08	10	99	4.2	90	106	431	0.5	430	432	22.0	56.7
2025-09-21T08:09	10	103	4.8	92	111	433	0.5	432	434	22.0	56.7
2025-09-21T08:10	10	96	13.5	72	111	433	1.1	430	434	21.9	57.4
2025-09-21T08:11	10	74	6.5	62	86	431	0.5	430	432	21.9	57.4
2025-09-21T08:12	10	64	3.2	61	73	430	0.3	429	431	21.9	59.4
2025-09-21T08:13	10	63	0.9	62	65	429	0.8	427	430	21.7	61.5
2025-09-21T08:14	10	63	0.8	62	64	428	0.3	427	428	21.6	60.4
2025-09-21T08:15	10	61	1.5	60	64	428	1.0	426	429	21.5	58.7
2025-09-21T08:16	10	61	1.6	60	66	425	0.5	424	426	21.4	56.9
2025-09-21T08:17	10	69	2.7	65	74	424	0.3	424	425	21.3	57.5
2025-09-21T08:18	10	65	2.5	61	72	425	0.3	424	425	21.2	57.6
2025-09-21T08:19	10	63	0.8	61	64	424	0.3	424	425	21.2	58.4
2025-09-21T08:20	10	61	1.0	60	64	425	0.3	424	426	21.2	58.7
2025-09-21T08:21	10	61	0.4	60	62	425	0.3	424	425	21.2	59.6
2025-09-21T08:22	10	64	0.7	62	65	426	0.5	425	426	21.2	60.5
2025-09-21T08:23	10	64	0.4	64	65	426	0.2	425	426	21.2	61.0
2025-09-21T08:24	10	67	1.9	65	71	426	0.7	425	427	21.2	59.5
2025-09-21T08:25	10	66	1.7	65	72	427	0.3	427	428	21.2	60.5
2025-09-21T08:26	10	73	7.6	65	88	428	1.1	426	430	21.3	59.1
2025-09-21T08:27	10	85	13.5	70	111	430	0.9	428	431	21.3	59.6
2025-09-21T08:28	10	81	10.2	71	99	429	0.7	428	431	21.3	59.4
2025-09-21T08:29	10	82	12.3	68	105	430	1.2	428	432	21.3	59.0
2025-09-21T08:30	10	93	14.3	73	123	433	0.7	432	434	21.3	60.8
2025-09-21T08:31	10	94	15.0	73	121	433	0.6	432	434	21.3	61.0
2025-09-21T08:32	10	105	9.7	85	121	434	0.7	434	436	21.5	59.9
2025-09-21T08:33	10	120	14.9	95	142	436	1.4	434	439	21.5	59.4
2025-09-21T08:34	10	131	5.7	117	140	439	0.9	437	440	21.7	57.2
2025-09-21T08:35	10	130	4.8	126	140	441	0.4	440	441	22.0	56.0
2025-09-21T08:36	10	132	3.1	126	138	441	0.3	440	442	22.1	55.6
2025-09-21T08:37	10	142	5.4	129	148	442	1.0	441	444	22.1	54.7
2025-09-21T08:38	10	153	2.3	148	157	445	0.8	444	446	22.2	56.0
2025-09-21T08:39	10	150	4.8	141	156	446	0.3	446	447	22.2	56.8
2025-09-21T08:40	10	145	2.6	140	151	446	0.8	445	447	22.3	57.8
2025-09-21T08:41	10	129	8.1	116	141	445	0.6	444	446	22.1	59.3
2025-09-21T08:42	10	117	10.2	103	140	444	1.1	442	445	22.0	58.8
2025-09-21T08:43	10	141	13.5	102	155	445	0.8	443	446	21.9	57.5
2025-09-21T08:44	10	77	7.8	71	99	440	2.7	437	445	22.0	57.9
2025-09-21T08:45	10	76	2.0	72	80	437	0.4	436	438	22.2	59.3
2025-09-21T08:46	10	74	1.6	71	77	435	1.3	433	437	22.2	56.9
2025-09-21T08:47	10	96	14.9	75	123	435	1.5	433	437	22.0	56.3
2025-09-21T08:48	10	82	3.0	78	90	436	0.8	434	438	21.9	57.4
2025-09-21T08:49	10	88	7.0	81	109	435	0.4	434	436	21.9	56.8
2025-09-21T08:50	10	94	10.9	74	108	436	0.5	435	437	21.9	54.1
2025-09-21T08:51	10	79	6.8	72	95	434	0.5	434	436	21.9	55.0
2025-09-21T08:52	10	73	3.2	70	82	434	0.8	433	436	21.8	55.0
2025-09-21T08:53	10	84	12.5	72	113	433	0.9	432	435	21.8	52.7
2025-09-21T08:54	10	73	0.8	72	76	433	0.2	433	434	21.9	52.3
2025-09-21T08:55	10	77	5.2	72	92	434	0.5	433	435	21.9	52.7
2025-09-21T08:56	10	108	21.2	85	137	437	2.0	434	441	21.9	53.5
2025-09-21T08:57	10	133	4.3	126	139	441	1.3	440	444	21.9	52.5
2025-09-21T08:58	10	142	8.0	131	155	444	0.9	443	446	22.0	53.8
2025-09-21T08:59	10	137	7.1	124	151	446	0.4	445	446	22.1	51.7
2025-09-21T09:00	10	138	4.1	127	143	446	0.7	445	448	22.3	52.1
2025-09-21T09:01	10	147	7.3	132	155	448	0.4	447	449	22.4	53.1
2025-09-21T09:02	10	152	3.7	144	158	448	0.4	447	449	22.3	51.6
2025-09-21T09:03	10	157	2.3	151	161	449	0.6	448	450	22.2	51.0
2025-09-21T09:04	10	137	22.0	91	160	449	1.7	446	451	22.5	51.3
2025-09-21T09:05	10	99	11.5	82	122	444	2.6	440	448	22.5	52.7
2025-09-21T09:06	10	117	19.1	84	144	441	1.4	439	444	22.3	53.0
2025-09-21T09:07	10	99	12.6	80	127	441	1.7	439	444	22.1	54.4
2025-09-21T09:08	10	91	7.2	82	115	439	1.1	437	441	22.0	54.4
2025-09-21T09:09	10	114	20.4	82	160	439	1.1	437	441	21.8	53.3
2025-09-21T09:10	10	118	18.6	88	149	441	1.3	438	443	21.9	54.1
2025-09-21T09:11	10	91	7.8	74	104	439	1.1	437	441	21.9	54.0
2025-09-21T09:12	10	122	22.0	83	151	440	2.2	437	444	22.0	53.6
2025-09-21T09:13	10	128	18.4	98	161	444	0.9	442	446	22.1	52.7
2025-09-21T09:14	10	92	13.6	73	120	441	1.9	438	444	22.0	51.9
2025-09-21T09:15	10	72	6.8	68	92	435	2.1	431	439	22.0	51.6
2025-09-21T09:16	10	71	2.1	68	78	432	0.3	431	433	22.0	51.6
2025-09-21T09:17	10	81	8.0	74	105	434	1.0	432	435	22.0	52.0
2025-09-21T09:18	10	103	14.4	81	131	438	2.0	434	441	22.0	52.3
2025-09-21T09:19	10	91	9.6	83	121	437	0.5	437	438	22.0	50.8
2025-09-21T09:20	10	90	10.3	81	120	437	0.6	436	438	22.1	50.9
2025-09-21T09:21	10	92	15.0	77	129	437	0.8	436	439	22.1	51.5
2025-09-21T09:22	10	81	9.6	69	111	437	0.7	436	439	22.1	51.4
2025-09-21T09:23	10	72	2.6	66	77	436	0.3	435	437	22.1	51.5
2025-09-21T09:24	10	65	2.3	63	78	435	0.3	434	436	22.2	51.2
2025-09-21T09:25	10	74	4.6	69	85	435	0.3	434	436	22.2	51.3
2025-09-21T09:26	10	99	10.8	73	117	438	2.0	434	440	22.4	51.6
2025-09-21T09:27	10	78	14.6	68	127	437	1.2	436	440	22.5	51.1
2025-09-21T09:28	10	113	27.5	73	158	440	2.1	437	445	22.6	50.7
2025-09-21T09:29	10	142	13.3	115	161	446	1.8	443	448	22.5	51.1
2025-09-21T09:30	10	151	14.0	111	168	450	1.2	447	452	22.9	50.5
2025-09-21T09:31	10	118	16.7	92	144	448	1.0	447	450	23.0	51.4
2025-09-21T09:32	10	104	8.9	91	126	444	1.5	443	447	23.1	51.3
2025-09-21T09:33	10	85	11.5	70	120	441	2.2	437	445	23.0	49.5
2025-09-21T09:34	10	91	17.4	72	132	439	1.5	437	442	22.8	49.7
2025-09-21T09:35	10	103	24.7	76	147	442	1.3	440	445	22.7	50.2
2025-09-21T09:36	10	98	7.2	84	110	440	0.5	439	441	22.4	51.6
2025-09-21T09:37	10	113	16.0	86	141	443	1.0	440	444	22.4	52.7
2025-09-21T09:38	10	72	7.3	64	85	440	2.4	437	444	22.3	55.3
2025-09-21T09:39	10	89	22.3	67	142	438	1.2	436	441	22.3	56.8
2025-09-21T09:40	10	122	19.9	85	155	443	1.1	440	445	22.3	56.6
2025-09-21T09:41	10	127	25.6	89	166	444	2.1	441	448	22.5	58.7
2025-09-21T09:42	10	121	27.5	81	165	445	2.4	442	449	22.5	58.1
2025-09-21T09:43	10	166	3.6	154	169	445	0.8	444	447	22.5	58.0
2025-09-21T09:44	10	168	0.2	167	168	448	1.8	445	451	22.3	55.9
2025-09-21T09:45	10	169	0.8	168	170	453	1.4	450	455	22.3	56.2
2025-09-21T09:46	10	135	22.0	97	167	452	2.2	449	456	22.6	57.1
2025-09-21T09:47	10	151	7.1	140	162	451	0.6	450	452	22.4	56.0
2025-09-21T09:48	10	158	1.7	156	161	452	0.7	450	453	22.4	56.5
2025-09-21T09:49	10	149	9.8	123	157	452	0.7	451	454	22.5	57.9
2025-09-21T09:50	10	150	1.4	148	152	453	0.4	451	454	22.7	58.4
2025-09-21T09:51	10	127	29.0	47	148	448	3.0	441	453	22.5	57.9
2025-09-21T09:52	10	104	32.4	44	129	443	2.7	439	447	22.3	56.1
2025-09-21T09:53	10	137	3.2	129	141	449	1.6	446	452	22.3	56.9
2025-09-21T09:54	10	140	5.5	125	145	449	1.1	448	452	22.4	57.0
2025-09-21T09:55	10	101	25.7	52	132	443	3.7	436	449	22.2	55.0
2025-09-21T09:56	10	47	2.6	45	53	434	2.4	431	439	22.1	54.5
2025-09-21T09:57	10	45	0.5	44	46	431	0.4	430	432	22.1	54.5
2025-09-21T09:58	10	46	1.4	44	49	432	0.5	431	433	22.2	54.5
2025-09-21T09:59	10	60	6.0	49	67	434	1.2	432	436	22.2	55.2
2025-09-21T10:00	10	70	2.1	66	74	436	0.7	435	437	22.3	56.7
2025-09-21T10:01	10	65	5.0	59	75	433	1.4	431	436	22.2	57.9
2025-09-21T10:02	10	56	0.8	55	59	432	0.2	431	432	22.2	57.8
2025-09-21T10:03	10	61	2.8	57	65	433	0.7	432	435	22.3	56.8
2025-09-21T10:04	10	69	2.6	65	75	435	0.8	434	437	22.4	57.2
2025-09-21T10:05	10	84	6.1	75	93	437	1.0	436	439	22.4	55.7
2025-09-21T10:06	10	91	2.4	88	96	439	0.3	438	440	22.4	56.5
2025-09-21T10:07	10	89	2.1	85	95	439	0.6	438	440	22.4	55.3
2025-09-21T10:08	10	111	17.4	87	146	442	2.7	439	447	22.4	57.2
2025-09-21T10:09	10	144	11.9	125	168	447	1.3	445	449	22.4	55.7
2025-09-21T10:10	10	120	20.3	98	171	444	1.6	442	447	22.3	54.9
2025-09-21T10:11	10	167	11.3	144	182	449	1.1	446	450	22.4	54.5
2025-09-21T10:12	10	109	32.9	78	167	447	3.1	442	451	22.4	54.1
2025-09-21T10:13	10	84	2.4	80	88	442	0.7	441	444	22.4	55.0
2025-09-21T10:14	10	102	18.1	88	147	441	0.6	440	443	22.5	54.9
2025-09-21T10:15	10	171	11.3	149	187	449	3.7	441	454	22.5	53.9
2025-09-21T10:16	10	173	25.4	145	212	454	2.3	451	458	22.5	54.0
2025-09-21T10:17	10	182	29.4	125	216	456	1.5	454	459	22.5	54.5
2025-09-21T10:18	10	209	4.1	199	215	461	1.4	458	463	22.6	53.6
2025-09-21T10:19	10	146	27.4	108	197	458	2.5	455	464	22.8	53.3
2025-09-21T10:20	10	127	15.5	90	153	455	1.9	451	458	22.9	52.7
2025-09-21T10:21	10	105	18.0	86	139	450	1.0	448	453	22.8	53.5
2025-09-21T10:22	10	98	13.5	86	128	448	2.2	446	452	22.6	54.2
2025-09-21T10:23	10	100	28.4	79	158	446	1.5	443	449	22.5	54.1
2025-09-21T10:24	10	173	25.9	128	199	453	4.5	446	460	22.5	53.7
2025-09-21T10:25	10	196	11.5	155	204	461	1.3	458	463	22.6	53.3
2025-09-21T10:26	10	157	37.1	103	203	461	2.9	455	464	22.9	54.2
2025-09-21T10:27	10	81	15.7	72	130	451	4.4	445	458	22.8	53.0
2025-09-21T10:28	10	143	28.4	90	192	451	2.8	446	457	22.8	53.7
2025-09-21T10:29	10	117	39.5	83	192	454	3.4	448	458	22.9	54.9
2025-09-21T10:30	10	106	20.7	82	143	451	1.6	448	453	23.1	53.5
2025-09-21T10:31	10	96	8.4	84	111	451	0.7	449	452	23.0	53.8
2025-09-21T10:32	10	79	2.2	77	86	448	1.1	446	450	23.0	54.1
2025-09-21T10:33	10	89	8.3	79	107	447	0.6	446	449	23.0	56.0
2025-09-21T10:34	10	136	21.9	94	173	450	2.2	446	453	22.9	53.8
2025-09-21T10:35	10	97	21.2	73	143	448	2.2	445	451	22.9	53.4
2025-09-21T10:36	10	67	2.3	64	73	444	0.7	443	446	22.9	52.6
2025-09-21T10:37	10	65	0.5	64	66	443	0.5	442	444	23.0	51.5
2025-09-21T10:38	10	63	1.4	60	66	442	0.4	441	443	23.0	51.8
2025-09-21T10:39	10	58	1.4	56	60	440	1.2	438	442	23.0	52.8
2025-09-21T10:40	10	55	1.1	52	56	436	1.1	434	439	22.8	54.3
2025-09-21T10:41	10	49	2.0	46	53	435	0.4	434	435	22.8	54.5
2025-09-21T10:42	10	45	0.9	43	46	434	0.8	432	435	22.8	54.8
2025-09-21T10:43	10	42	0.7	41	43	431	1.1	429	433	22.8	54.5
2025-09-21T10:44	10	40	0.4	40	41	428	0.5	428	429	22.7	54.7
2025-09-21T10:45	10	38	1.1	36	40	428	0.3	427	429	22.5	55.0
2025-09-21T10:46	10	33	1.5	31	36	427	0.2	427	428	22.5	55.9
2025-09-21T10:47	10	29	1.1	27	31	427	0.4	425	427	22.4	55.9
2025-09-21T10:48	10	26	1.0	24	27	425	0.2	425	426	22.4	54.2
2025-09-21T10:49	10	22	1.0	21	24	425	0.3	425	426	22.4	56.7
2025-09-21T10:50	10	19	0.8	18	21	425	0.4	424	425	22.5	55.8
2025-09-21T10:51	10	17	0.6	16	18	424	0.4	423	424	22.5	55.4
2025-09-21T10:52	10	15	0.5	14	16	422	0.5	421	423	22.5	52.3
2025-09-21T10:53	10	13	0.4	13	14	421	0.3	420	421	22.5	53.3
2025-09-21T10:54	10	12	0.3	12	13	420	0.2	420	421	22.5	53.6
2025-09-21T10:55	10	12	0.3	11	12	420	0.2	419	420	22.4	52.8
2025-09-21T10:56	10	11	0.2	11	11	419	0.4	419	420	22.4	53.6
2025-09-21T10:57	10	11	0.1	11	11	419	0.2	419	420	22.3	54.4
2025-09-21T10:58	10	11	0.1	11	11	419	0.3	418	419	22.3	53.8
2025-09-21T10:59	10	12	0.3	11	12	418	0.2	418	419	22.3	53.0
2025-09-21T11:00	10	13	0.4	12	14	418	0.2	418	419	22.3	52.6
2025-09-21T11:01	10	15	0.5	14	15	418	0.4	418	419	22.3	52.8
2025-09-21T11:02	10	16	0.4	15	17	419	0.2	418	419	22.3	53.4
2025-09-21T11:03	10	17	0.3	17	18	419	0.2	418	419	22.2	54.1
2025-09-21T11:04	10	19	0.4	18	19	419	0.3	419	420	22.1	54.8
2025-09-21T11:05	10	20	0.4	19	21	419	0.3	419	420	22.1	54.6
2025-09-21T11:06	10	22	0.5	21	23	419	0.2	419	420	22.1	54.4
2025-09-21T11:07	10	23	0.3	22	23	420	0.4	419	421	22.1	54.7
2025-09-21T11:08	10	24	0.3	23	24	420	0.4	420	421	22.1	54.9
2025-09-21T11:09	10	24	0.3	24	25	421	0.3	420	421	22.1	55.4
2025-09-21T11:10	10	25	0.3	25	26	421	0.3	420	421	22.1	55.2
2025-09-21T11:11	10	25	0.2	25	26	421	0.4	421	422	22.1	55.5
2025-09-21T11:12	10	25	0.1	25	26	422	0.3	421	422	22.1	56.3
2025-09-21T11:13	10	25	0.2	25	26	421	0.4	420	422	22.1	56.4
2025-09-21T11:14	10	24	0.5	23	25	420	0.3	420	421	22.1	55.9
2025-09-21T11:15	10	22	0.6	21	23	420	0.3	419	421	22.0	57.3
2025-09-21T11:16	10	20	0.5	19	21	420	0.5	419	421	22.0	58.1
2025-09-21T11:17	10	19	0.3	19	20	418	1.0	416	420	21.9	58.6
2025-09-21T11:18	10	18	0.2	18	19	415	0.6	414	417	21.7	58.3
2025-09-21T11:19	10	18	0.2	18	18	414	0.4	413	415	21.5	60.0
2025-09-21T11:20	10	18	0.2	18	18	413	0.4	412	414	21.4	61.4
2025-09-21T11:21	10	19	0.2	18	19	412	0.5	411	413	21.1	62.6
2025-09-21T11:22	10	19	0.1	19	19	411	0.3	410	411	21.0	62.7
2025-09-21T11:23	10	19	0.1	19	19	411	0.3	410	411	20.8	63.9
2025-09-21T11:24	10	19	0.2	19	20	411	0.5	410	412	20.5	66.7
2025-09-21T11:25	10	20	0.3	20	21	411	0.4	410	412	20.5	66.6
2025-09-21T11:26	10	21	0.2	21	21	411	0.4	410	412	20.4	67.2
2025-09-21T11:27	10	21	0.2	20	21	411	0.3	410	412	20.3	69.2
2025-09-21T11:28	10	20	0.2	20	20	411	0.3	410	411	20.2	69.6
2025-09-21T11:29	10	20	0.4	19	21	411	0.5	410	412	20.1	70.7
2025-09-21T11:30	10	22	1.0	20	24	411	0.5	410	413	20.0	70.1
2025-09-21T11:31	10	27	1.7	24	30	411	0.9	410	413	20.0	68.6
2025-09-21T11:32	10	33	2.1	30	37	413	1.3	411	415	20.0	70.4
2025-09-21T11:33	10	40	1.9	37	43	415	0.8	414	417	20.0	69.5
2025-09-21T11:34	10	47	2.0	43	50	417	0.6	415	418	20.1	67.7
2025-09-21T11:35	10	53	1.5	50	55	418	0.7	417	420	20.1	67.6
2025-09-21T11:36	10	55	0.3	55	56	420	0.5	419	420	20.2	68.5
2025-09-21T11:37	10	53	0.8	52	55	420	0.2	420	420	20.2	69.3
2025-09-21T11:38	10	51	0.3	51	52	419	0.2	419	420	20.2	69.5
2025-09-21T11:39	10	52	0.4	51	52	419	0.5	418	420	20.3	69.8
2025-09-21T11:40	10	54	1.1	52	56	418	0.6	417	419	20.1	71.1
2025-09-21T11:41	10	60	2.5	56	65	418	0.4	417	418	19.9	72.3
2025-09-21T11:42	10	68	1.6	65	71	418	0.5	417	419	19.7	72.6
2025-09-21T11:43	10	63	2.3	59	67	418	0.2	417	418	19.6	73.1
2025-09-21T11:44	10	55	2.2	51	59	417	0.5	416	418	19.5	73.5
2025-09-21T11:45	10	49	0.9	48	51	416	0.2	415	416	19.6	73.8
2025-09-21T11:46	10	48	0.3	47	48	416	0.3	415	417	19.7	73.6
2025-09-21T11:47	10	47	0.1	47	47	416	0.3	415	416	19.7	73.7
2025-09-21T11:48	10	48	0.3	47	48	416	0.2	416	417	19.7	73.2
2025-09-21T11:49	10	49	0.2	48	49	416	0.3	415	417	19.8	73.8
2025-09-21T11:50	10	50	0.4	49	51	417	0.2	417	418	19.9	73.2
2025-09-21T11:51	10	52	0.8	50	53	416	0.5	416	417	20.0	70.3
2025-09-21T11:52	10	55	1.2	53	57	416	0.3	416	417	20.1	69.0
2025-09-21T11:53	10	60	1.6	57	63	418	0.7	416	419	20.1	70.0
2025-09-21T11:54	10	65	1.2	63	67	419	0.4	418	420	20.2	69.2
2025-09-21T11:55	10	67	0.2	66	67	420	0.3	419	420	20.3	68.3
2025-09-21T11:56	10	64	1.0	63	66	420	0.2	420	421	20.3	69.6
2025-09-21T11:57	10	61	1.2	59	63	421	0.3	420	421	20.3	68.8
2025-09-21T11:58	10	57	0.7	56	59	420	0.3	419	421	20.3	68.7
2025-09-21T11:59	10	55	0.6	54	56	420	0.3	420	421	20.4	70.3
2025-09-21T12:00	10	53	1.2	51	54	420	0.6	419	421	20.4	69.9
2025-09-21T12:01	10	48	1.4	46	50	420	0.4	419	420	20.4	68.7
2025-09-21T12:02	10	43	1.4	41	46	419	0.2	418	419	20.4	69.1
2025-09-21T12:03	10	39	1.0	37	41	418	0.9	417	420	20.4	69.0
2025-09-21T12:04	10	37	0.2	37	38	417	0.3	416	418	20.4	69.1
2025-09-21T12:05	10	40	1.2	38	42	418	0.6	416	419	20.5	69.9
2025-09-21T12:06	10	46	2.3	42	50	419	0.5	418	420	20.5	70.0
2025-09-21T12:07	10	57	4.3	50	66	421	0.9	419	422	20.5	69.9
2025-09-21T12:08	10	79	8.5	65	93	424	1.6	421	427	20.6	69.7
2025-09-21T12:09	10	99	6.2	90	120	428	0.8	426	429	20.6	67.6
2025-09-21T12:10	10	140	19.4	118	186	434	3.0	428	437	20.7	68.5
2025-09-21T12:11	10	137	14.0	116	168	438	1.4	436	440	20.9	67.7
2025-09-21T12:12	10	100	5.1	91	113	437	1.1	435	440	20.9	68.2
2025-09-21T12:13	10	95	11.8	84	133	436	0.6	435	437	21.1	67.7
2025-09-21T12:14	10	78	3.0	73	84	432	2.2	429	437	21.2	65.6
2025-09-21T12:15	10	70	1.8	67	73	429	1.2	427	431	21.3	65.8
2025-09-21T12:16	10	65	1.0	64	67	427	0.5	426	428	21.3	64.4
2025-09-21T12:17	10	63	0.3	63	64	425	0.8	424	427	21.1	63.3
2025-09-21T12:18	10	64	0.2	64	64	425	0.4	424	426	21.1	63.6
2025-09-21T12:19	10	65	0.2	64	65	425	0.3	425	426	21.1	63.8
2025-09-21T12:20	10	65	0.2	65	66	426	0.6	425	427	21.2	64.7
2025-09-21T12:21	10	65	0.3	65	66	427	0.3	427	428	21.2	63.8
2025-09-21T12:22	10	64	0.2	64	65	427	0.8	425	428	21.3	64.4
2025-09-21T12:23	10	64	0.2	64	65	425	0.5	424	426	21.3	62.4
2025-09-21T12:24	10	67	1.2	65	69	424	0.5	423	425	21.3	60.3
2025-09-21T12:25	10	68	0.2	68	69	424	0.4	423	424	21.2	59.7
2025-09-21T12:26	10	68	0.5	68	70	424	0.7	423	425	21.3	60.0
2025-09-21T12:27	10	73	1.6	70	77	424	0.4	423	425	21.3	59.4
2025-09-21T12:28	10	78	6.1	72	93	425	0.6	424	426	21.3	58.4
2025-09-21T12:29	10	75	1.1	74	77	425	0.3	424	426	21.2	57.8
2025-09-21T12:30	10	82	3.8	76	91	427	0.8	425	428	21.3	59.1
2025-09-21T12:31	10	88	5.3	83	100	427	0.7	426	429	21.3	58.8
2025-09-21T12:32	10	81	1.8	78	83	428	0.5	427	429	21.4	59.0
2025-09-21T12:33	10	76	0.9	75	78	426	0.8	424	428	21.3	56.3
2025-09-21T12:34	10	74	0.7	72	75	425	0.3	424	426	21.3	56.7
2025-09-21T12:35	10	70	1.1	69	72	425	0.4	424	426	21.4	57.1
2025-09-21T12:36	10	67	1.1	65	69	425	0.4	424	425	21.4	56.8
2025-09-21T12:37	10	65	0.2	64	65	424	0.5	423	425	21.3	57.5
2025-09-21T12:38	10	66	1.0	65	68	425	0.4	424	426	21.4	58.0
2025-09-21T12:39	10	71	1.6	68	73	426	0.4	425	427	21.4	58.6
2025-09-21T12:40	10	77	2.5	73	82	428	0.8	427	430	21.4	57.3
2025-09-21T12:41	10	85	1.8	82	88	430	0.4	429	431	21.4	57.8
2025-09-21T12:42	10	89	0.8	87	90	430	0.4	429	431	21.5	57.9
2025-09-21T12:43	10	91	2.0	88	95	429	0.5	429	430	21.4	56.1
2025-09-21T12:44	10	85	1.8	82	88	430	0.3	429	430	21.4	56.3
2025-09-21T12:45	10	78	1.8	75	81	429	0.2	429	430	21.4	56.8
2025-09-21T12:46	10	74	0.5	74	75	430	0.4	428	430	21.5	57.1
2025-09-21T12:47	10	74	0.2	74	75	428	0.3	428	429	21.4	55.8
2025-09-21T12:48	10	73	1.0	71	74	429	0.7	428	430	21.4	56.2
2025-09-21T12:49	10	68	1.7	65	71	429	0.4	428	430	21.4	56.0
2025-09-21T12:50	10	62	2.0	59	65	428	1.2	426	430	21.5	56.7
2025-09-21T12:51	10	56	1.6	53	59	425	0.6	424	427	21.4	56.4
2025-09-21T12:52	10	51	1.1	49	53	425	0.6	423	426	21.4	56.9
2025-09-21T12:53	10	48	0.8	47	49	424	0.3	423	425	21.4	56.5
2025-09-21T12:54	10	47	0.2	46	47	424	0.4	423	425	21.4	56.8
2025-09-21T12:55	10	48	0.9	47	50	422	0.3	422	424	21.4	56.3
2025-09-21T12:56	10	52	1.4	50	55	424	0.9	422	425	21.4	56.7
2025-09-21T12:57	10	59	2.8	55	64	425	0.6	424	427	21.4	57.1
2025-09-21T12:58	10	70	3.4	64	76	428	1.1	426	430	21.4	57.9
2025-09-21T12:59	10	79	1.4	76	81	431	1.3	429	433	21.5	58.5
2025-09-21T13:00	10	79	1.0	77	80	434	0.3	433	434	21.6	58.3
2025-09-21T13:01	10	73	2.1	69	77	433	0.8	431	434	21.5	58.7
2025-09-21T13:02	10	66	2.2	62	69	431	0.6	430	432	21.5	58.1
2025-09-21T13:03	10	59	1.6	57	62	430	0.3	430	431	21.6	58.0
2025-09-21T13:04	10	55	1.1	54	57	428	1.1	427	430	21.6	57.4
2025-09-21T13:05	10	53	0.4	52	54	427	0.8	425	428	21.5	56.4
2025-09-21T13:06	10	53	0.8	52	55	426	0.5	425	427	21.4	56.1
2025-09-21T13:07	10	57	1.2	55	59	428	0.6	427	429	21.4	56.5
2025-09-21T13:08	10	60	0.8	59	61	428	0.5	427	429	21.5	57.2
2025-09-21T13:09	10	61	0.3	61	62	428	0.3	427	429	21.4	55.8
2025-09-21T13:10	10	58	1.7	55	61	428	0.3	427	429	21.4	56.1
2025-09-21T13:11	10	54	0.7	52	55	429	0.4	429	430	21.4	56.0
2025-09-21T13:12	10	54	1.0	52	56	430	0.4	429	431	21.5	56.0
2025-09-21T13:13	10	61	3.3	56	67	431	0.6	430	432	21.5	55.6
2025-09-21T13:14	10	82	18.0	67	126	434	1.8	432	439	21.6	55.5
2025-09-21T13:15	10	95	19.7	77	129	439	1.1	437	441	21.8	57.5
2025-09-21T13:16	10	73	1.2	71	77	437	0.5	436	437	21.8	55.4
2025-09-21T13:17	10	72	0.6	72	74	435	0.4	434	436	21.7	56.5
2025-09-21T13:18	10	75	0.8	74	77	435	0.3	434	436	21.8	56.3
2025-09-21T13:19	10	75	0.7	74	77	434	0.5	433	435	21.7	54.8
2025-09-21T13:20	10	73	0.8	71	74	434	0.5	433	435	21.6	55.2
2025-09-21T13:21	10	68	1.8	65	71	433	0.4	433	434	21.6	54.7
2025-09-21T13:22	10	63	0.5	63	65	433	0.2	433	434	21.7	54.7
2025-09-21T13:23	10	61	1.4	58	63	434	0.3	434	435	21.7	55.6
2025-09-21T13:24	10	55	2.0	51	58	432	1.0	431	434	21.7	55.5
2025-09-21T13:25	10	48	2.2	44	51	429	1.3	427	431	21.7	55.8
2025-09-21T13:26	10	41	1.7	38	44	427	0.3	426	428	21.7	56.4
2025-09-21T13:27	10	37	0.7	36	38	427	0.4	426	428	21.6	55.1
2025-09-21T13:28	10	36	0.3	36	37	427	0.2	426	427	21.6	55.9
2025-09-21T13:29	10	37	0.2	37	38	427	0.4	427	428	21.6	56.5
2025-09-21T13:30	10	37	0.1	37	38	428	0.3	427	429	21.6	56.0
2025-09-21T13:31	10	37	0.3	36	37	427	0.4	426	428	21.6	55.4
2025-09-21T13:32	10	36	0.1	36	36	427	0.3	426	427	21.6	55.8
2025-09-21T13:33	10	36	0.2	36	36	426	0.6	425	427	21.6	56.4
2025-09-21T13:34	10	36	0.2	36	37	424	0.2	424	425	21.6	55.0
2025-09-21T13:35	10	34	1.1	32	36	425	0.2	424	426	21.6	56.0
2025-09-21T13:36	10	29	2.2	25	32	424	0.3	424	425	21.6	57.2
2025-09-21T13:37	10	22	1.8	19	25	424	0.3	423	424	21.5	57.4
2025-09-21T13:38	10	17	1.0	16	19	423	0.3	422	424	21.5	57.7
2025-09-21T13:39	10	14	0.6	14	15	422	0.4	421	423	21.6	58.7
2025-09-21T13:40	10	13	0.2	13	14	421	0.3	420	422	21.6	57.8
2025-09-21T13:41	10	13	0.1	13	13	420	0.2	420	421	21.6	58.7
2025-09-21T13:42	10	13	0.2	13	14	420	0.4	419	421	21.5	58.2
2025-09-21T13:43	10	14	0.3	14	15	419	0.2	419	420	21.4	57.9
2025-09-21T13:44	10	15	0.4	15	16	419	0.2	419	420	21.4	57.8
2025-09-21T13:45	10	17	0.5	16	18	419	0.2	419	420	21.3	59.4
2025-09-21T13:46	10	19	0.6	18	20	420	0.3	419	420	21.3	57.9
2025-09-21T13:47	10	21	0.6	20	22	420	0.3	419	420	21.2	57.9
2025-09-21T13:48	10	23	0.6	22	24	421	0.5	420	422	21.3	57.7
2025-09-21T13:49	10	25	0.4	24	25	422	0.3	421	422	21.3	58.6
2025-09-21T13:50	10	25	0.1	25	25	421	0.2	421	422	21.3	58.4
2025-09-21T13:51	10	25	0.3	24	25	421	0.5	420	422	21.3	56.9
2025-09-21T13:52	10	23	0.3	23	24	420	0.2	420	421	21.3	56.8
2025-09-21T13:53	10	22	0.2	22	23	420	0.3	420	421	21.3	57.0
2025-09-21T13:54	10	22	0.1	22	22	420	0.2	420	421	21.3	57.7
2025-09-21T13:55	10	22	0.2	22	22	421	0.2	420	421	21.3	57.8
2025-09-21T13:56	10	23	0.2	22	23	421	0.2	421	422	21.3	57.1
2025-09-21T13:57	10	23	0.1	23	23	421	0.3	421	422	21.3	57.3
2025-09-21T13:58	10	22	0.2	22	23	421	0.2	421	422	21.3	57.1
2025-09-21T13:59	10	22	0.3	21	22	421	0.3	421	422	21.4	58.1
2025-09-21T14:00	10	20	0.5	19	21	420	0.5	420	421	21.3	60.0
2025-09-21T14:01	10	19	0.4	18	19	419	0.4	419	420	21.2	61.0
2025-09-21T14:02	10	17	0.4	17	18	419	0.3	419	420	21.1	63.2
2025-09-21T14:03	10	16	0.2	16	17	420	0.2	419	420	21.2	59.7
2025-09-21T14:04	10	16	0.2	15	16	419	0.3	418	420	21.2	58.7
2025-09-21T14:05	10	15	0.3	14	15	419	0.2	418	419	21.2	61.4
2025-09-21T14:06	10	14	0.3	13	14	419	0.2	418	419	21.1	62.2
2025-09-21T14:07	10	13	0.3	12	13	419	0.4	418	419	21.1	63.8
2025-09-21T14:08	10	12	0.2	12	12	417	0.4	417	418	21.0	65.0
2025-09-21T14:09	10	11	0.2	11	12	417	0.2	416	417	20.9	64.7
2025-09-21T14:10	10	11	0.2	11	11	417	0.2	416	417	20.9	63.2
2025-09-21T14:11	10	10	0.2	10	11	417	0.2	417	418	20.9	63.9
2025-09-21T14:12	10	9	0.2	9	10	417	0.2	417	417	20.8	64.3
2025-09-21T14:13	10	8	0.3	8	9	417	0.2	416	417	20.8	65.4
2025-09-21T14:14	10	8	0.3	7	8	417	0.2	416	417	20.8	67.3
2025-09-21T14:15	10	7	0.2	6	7	416	0.2	416	417	20.7	68.8
2025-09-21T14:16	10	6	0.1	6	6	416	0.2	415	416	20.7	68.5
2025-09-21T14:17	10	6	0.1	6	6	416	0.3	415	416	20.7	68.0
2025-09-21T14:18	10	6	0.1	6	6	415	0.3	415	416	20.7	67.7
2025-09-21T14:19	10	6	0.1	5	6	416	0.3	415	416	20.7	67.5
2025-09-21T14:20	10	6	0.1	6	6	416	0.3	415	416	20.6	65.8
2025-09-21T14:21	10	6	0.1	6	6	416	0.3	416	417	20.7	62.1
2025-09-21T14:22	10	7	0.1	6	7	417	0.3	416	417	20.7	61.2
2025-09-21T14:23	10	7	0.1	7	7	416	0.2	416	417	20.8	62.4
2025-09-21T14:24	10	7	0.1	7	7	416	0.2	416	417	20.8	62.2
2025-09-21T14:25	10	7	0.1	6	7	416	0.2	416	416	20.9	59.2
2025-09-21T14:26	10	6	0.2	6	6	415	0.5	414	416	21.0	59.2
2025-09-21T14:27	10	6	0.1	5	6	414	0.3	414	415	21.0	58.6
2025-09-21T14:28	10	6	0.1	5	6	414	0.2	414	415	21.0	58.5
2025-09-21T14:29	10	6	0.1	6	6	414	0.4	413	415	21.0	58.6
2025-09-21T14:30	10	6	0.1	6	6	414	0.2	413	414	21.0	58.8
2025-09-21T14:31	10	6	0.1	6	6	414	0.2	414	414	21.0	59.4
2025-09-21T14:32	10	6	0.1	6	6	414	0.3	413	415	21.0	60.7
2025-09-21T14:33	10	6	0.1	6	7	414	0.2	414	415	21.0	60.7
2025-09-21T14:34	10	7	0.1	6	7	415	0.2	414	415	21.0	61.6
2025-09-21T14:35	10	7	0.1	7	7	415	0.2	414	415	20.9	61.3
2025-09-21T14:36	10	6	0.2	6	7	415	0.2	414	415	20.9	62.0
2025-09-21T14:37	10	6	0.2	6	6	415	0.2	414	415	20.9	62.1
2025-09-21T14:38	10	5	0.2	5	6	415	0.2	414	415	20.9	62.2
2025-09-21T14:39	10	5	0.1	5	5	415	0.2	414	415	20.9	62.0
2025-09-21T14:40	10	5	0.1	4	5	414	0.3	413	414	20.9	61.3
2025-09-21T14:41	10	5	0.1	4	5	414	0.3	413	414	20.9	60.7
2025-09-21T14:42	10	4	0.1	4	5	413	0.2	412	413	20.9	60.7
2025-09-21T14:43	10	5	0.1	4	5	413	0.2	413	414	20.8	61.1
2025-09-21T14:44	10	5	0.1	5	5	413	0.2	413	413	20.8	61.1
2025-09-21T14:45	10	5	0.2	4	5	413	0.2	413	413	20.8	61.7
2025-09-21T14:46	10	4	0.2	4	5	413	0.3	412	413	20.8	61.8
2025-09-21T14:47	10	4	0.2	3	4	412	0.3	412	413	20.8	62.0
2025-09-21T14:48	10	3	0.1	3	4	412	0.3	411	413	20.7	62.3
2025-09-21T14:49	10	3	0.1	3	4	412	0.2	411	412	20.7	62.6
2025-09-21T14:50	10	3	0.1	3	3	412	0.3	411	412	20.7	62.6
2025-09-21T14:51	10	3	0.1	2	3	412	0.2	411	412	20.7	62.5
2025-09-21T14:52	10	3	0.1	2	3	412	0.2	411	412	20.7	62.8
2025-09-21T14:53	10	2	0.2	2	3	411	0.3	411	412	20.7	62.5
2025-09-21T14:54	10	2	0.1	2	2	411	0.3	410	411	20.6	63.0
2025-09-21T14:55	10	2	0.1	1	2	410	0.3	410	411	20.6	63.7
2025-09-21T14:56	10	1	0.1	1	2	410	0.3	409	410	20.5	65.0
2025-09-21T14:57	10	1	0.1	1	1	409	0.4	408	409	20.5	64.5
2025-09-21T14:58	10	1	0.1	1	1	408	0.3	408	409	20.4	64.8
2025-09-21T14:59	10	1	0.1	1	1	408	0.2	407	408	20.3	66.5
2025-09-21T15:00	10	1	0.1	1	1	407	0.3	407	408	20.2	67.5
2025-09-21T15:01	10	1	0.1	1	1	407	0.2	406	407	20.1	68.6
2025-09-21T15:02	10	1	0.1	0	1	406	0.2	406	407	19.9	72.8
2025-09-21T15:03	10	1	0.1	0	1	406	0.3	406	407	19.7	73.7
2025-09-21T15:04	10	1	0.1	1	1	405	0.3	404	405	19.6	72.3
2025-09-21T15:05	10	1	0.1	1	1	404	0.4	403	405	19.3	75.5
2025-09-21T15:06	10	1	0.1	1	1	403	0.4	402	403	18.9	78.6
2025-09-21T15:07	10	1	0.1	1	1	402	0.3	401	402	18.5	81.3
2025-09-21T15:08	10	1	0.1	1	1	401	0.2	400	402	18.4	81.8
2025-09-21T15:09	10	1	0.1	1	1	400	0.2	400	401	18.2	83.2
2025-09-21T15:10	10	1	0.1	1	1	399	0.3	399	400	17.9	84.9
2025-09-21T15:11	10	1	0.1	1	1	398	0.3	398	399	17.5	86.6
2025-09-21T15:12	10	2	0.1	2	2	398	0.3	398	399	17.4	88.1
2025-09-21T15:13	10	2	0.1	2	2	398	0.4	397	399	17.3	87.0
2025-09-21T15:14	10	2	0.1	2	3	398	0.4	397	399	17.3	88.0
2025-09-21T15:15	10	2	0.1	2	3	398	0.3	397	398	17.3	87.8
2025-09-21T15:16	10	2	0.1	2	3	398	0.3	397	398	17.2	89.3
2025-09-21T15:17	10	2	0.1	2	3	398	0.3	397	398	17.1	90.1
2025-09-21T15:18	10	3	0.1	2	3	397	0.4	396	398	17.1	90.8
2025-09-21T15:19	10	3	0.2	2	3	398	0.3	397	398	17.0	90.5
2025-09-21T15:20	10	3	0.2	2	3	397	0.4	397	398	17.0	91.3
2025-09-21T15:21	10	3	0.1	3	3	397	0.3	397	398	17.0	90.8
2025-09-21T15:22	10	3	0.1	3	3	397	0.2	397	398	17.0	90.6
2025-09-21T15:23	10	3	0.1	3	3	397	0.3	397	398	17.0	90.7
2025-09-21T15:24	10	3	0.1	3	3	397	0.3	396	398	17.0	91.3
2025-09-21T15:25	10	3	0.1	3	3	397	0.3	396	398	16.9	91.4
2025-09-21T15:26	10	3	0.1	2	3	397	0.2	397	398	16.9	92.2
2025-09-21T15:27	10	3	0.1	3	3	397	0.3	396	398	16.9	92.6
2025-09-21T15:28	10	3	0.1	3	3	397	0.3	396	397	16.8	93.4
2025-09-21T15:29	10	3	0.1	2	3	397	0.2	396	397	16.8	94.2
2025-09-21T15:30	10	3	0.1	2	3	397	0.3	396	398	16.7	94.6
2025-09-21T15:31	10	2	0.1	2	3	397	0.3	396	398	16.7	94.6
2025-09-21T15:32	10	2	0.2	2	2	397	0.3	396	397	16.7	95.0
2025-09-21T15:33	10	2	0.1	1	2	397	0.2	396	397	16.6	94.9
2025-09-21T15:34	10	2	0.1	1	2	397	0.3	396	397	16.6	94.9
2025-09-21T15:35	10	2	0.1	1	2	397	0.3	396	397	16.7	94.9
2025-09-21T15:36	10	2	0.1	1	2	397	0.2	396	397	16.6	94.3
2025-09-21T15:37	10	2	0.1	2	2	397	0.2	396	397	16.7	94.5
2025-09-21T15:38	10	2	0.2	2	3	396	0.3	396	397	16.6	94.9
2025-09-21T15:39	10	3	0.1	2	3	396	0.2	396	397	16.6	95.3
2025-09-21T15:40	10	3	0.1	3	3	396	0.2	396	397	16.6	95.4
2025-09-21T15:41	10	3	0.1	3	3	397	0.2	396	397	16.6	95.3
2025-09-21T15:42	10	3	0.1	2	3	397	0.2	396	397	16.6	95.6
2025-09-21T15:43	10	3	0.1	3	3	396	0.2	396	397	16.5	95.2
2025-09-21T15:44	10	3	0.1	3	3	396	0.3	396	397	16.5	95.4
2025-09-21T15:45	10	3	0.1	3	3	396	0.2	396	397	16.5	95.3
2025-09-21T15:46	10	3	0.1	2	3	397	0.3	396	397	16.6	95.4
2025-09-21T15:47	10	3	0.1	2	3	396	0.2	396	397	16.5	95.6
2025-09-21T15:48	10	3	0.1	2	3	396	0.2	396	397	16.5	95.5
2025-09-21T15:49	10	3	0.1	2	3	396	0.2	396	397	16.5	95.6
2025-09-21T15:50	10	2	0.1	2	3	396	0.3	396	397	16.5	96.0
2025-09-21T15:51	10	2	0.1	2	3	396	0.2	396	397	16.5	96.2
2025-09-21T15:52	10	2	0.1	2	2	396	0.2	396	397	16.5	96.1
2025-09-21T15:53	10	2	0.2	1	2	396	0.2	396	397	16.4	96.0
2025-09-21T15:54	10	1	0.2	1	2	396	0.2	395	396	16.5	95.8
2025-09-21T15:55	10	1	0.1	1	1	396	0.2	396	397	16.5	96.0
2025-09-21T15:56	10	1	0.1	1	1	396	0.2	396	396	16.5	95.9
2025-09-21T15:57	10	1	0.1	1	1	396	0.2	395	396	16.5	96.1
2025-09-21T15:58	10	1	0.2	1	2	395	0.2	395	396	16.5	96.4
2025-09-21T15:59	10	1	0.1	1	2	395	0.3	395	396	16.5	96.5
2025-09-21T16:00	10	1	0.2	1	2	395	0.2	394	395	16.4	96.7
2025-09-21T16:01	10	1	0.2	1	2	395	0.2	394	395	16.4	96.8
2025-09-21T16:02	10	1	0.2	1	2	395	0.3	394	395	16.4	97.3
2025-09-21T16:03	10	2	0.3	1	3	395	0.3	394	396	16.4	97.1
2025-09-21T16:04	10	1	0.2	1	2	395	0.3	394	395	16.4	97.2
2025-09-21T16:05	10	1	0.2	1	2	395	0.2	394	395	16.4	97.3
2025-09-21T16:06	10	1	0.1	1	2	395	0.2	394	395	16.3	97.0
2025-09-21T16:07	10	1	0.1	1	2	395	0.2	394	395	16.4	97.0
2025-09-21T16:08	10	1	0.1	1	1	395	0.2	394	395	16.4	97.1
2025-09-21T16:09	10	1	0.1	1	1	394	0.2	394	395	16.3	97.0
2025-09-21T16:10	10	1	0.1	1	1	394	0.2	394	395	16.3	96.7
2025-09-21T16:11	10	1	0.1	1	2	395	0.2	394	395	16.3	96.7
2025-09-21T16:12	10	1	0.1	1	1	394	0.2	394	395	16.3	96.9
2025-09-21T16:13	10	1	0.1	1	2	394	0.2	394	395	16.4	97.2
2025-09-21T16:14	10	2	0.1	1	2	394	0.2	394	395	16.3	97.1
2025-09-21T16:15	10	1	0.1	1	2	395	0.3	394	395	16.3	97.0
2025-09-21T16:16	10	1	0.1	1	1	394	0.2	394	395	16.4	97.1
2025-09-21T16:17	10	1	0.1	1	1	394	0.3	393	395	16.3	97.1
2025-09-21T16:18	10	1	0.1	1	1	394	0.2	394	395	16.3	97.2
2025-09-21T16:19	10	1	0.1	1	1	394	0.3	394	395	16.3	97.4
2025-09-21T16:20	10	1	0.1	1	1	394	0.3	394	395	16.3	97.6
2025-09-21T16:21	10	1	0.1	1	1	394	0.3	394	395	16.3	97.6
2025-09-21T16:22	10	2	0.1	1	2	394	0.2	393	394	16.3	97.7
2025-09-21T16:23	10	2	0.1	2	2	394	0.3	393	395	16.3	97.9
2025-09-21T16:24	10	2	0.1	1	2	394	0.2	393	394	16.2	97.8
2025-09-21T16:25	10	2	0.1	1	2	394	0.2	394	395	16.2	97.2
2025-09-21T16:26	10	2	0.1	1	2	394	0.2	393	394	16.3	97.2
2025-09-21T16:27	10	2	0.1	1	2	394	0.2	393	394	16.2	97.4
2025-09-21T16:28	10	2	0.1	1	2	394	0.3	393	394	16.2	97.4
2025-09-21T16:29	10	2	0.1	1	2	394	0.2	393	394	16.2	97.5
2025-09-21T16:30	10	1	0.1	1	2	394	0.2	393	394	16.2	97.5
2025-09-21T16:31	10	1	0.1	1	2	393	0.3	393	394	16.2	97.4
2025-09-21T16:32	10	1	0.1	1	2	393	0.3	393	394	16.2	97.3
2025-09-21T16:33	10	1	0.1	1	2	393	0.2	393	394	16.2	97.2
2025-09-21T16:34	10	2	0.1	1	2	393	0.2	393	394	16.2	97.2
2025-09-21T16:35	10	1	0.1	1	2	393	0.2	393	393	16.2	97.0
2025-09-21T16:36	10	2	0.1	1	2	393	0.2	393	394	16.2	97.0
2025-09-21T16:37	10	2	0.1	1	2	393	0.3	393	394	16.2	96.9
2025-09-21T16:38	10	2	0.1	1	2	393	0.2	392	393	16.2	97.0
2025-09-21T16:39	10	2	0.1	1	2	393	0.2	393	394	16.2	96.7
2025-09-21T16:40	10	2	0.1	1	2	393	0.3	393	394	16.3	96.6
2025-09-21T16:41	10	2	0.1	2	2	393	0.2	393	393	16.2	96.5
2025-09-21T16:42	10	2	0.1	2	2	393	0.3	393	394	16.3	96.6
2025-09-21T16:43	10	2	0.1	2	2	393	0.3	392	394	16.2	96.7
2025-09-21T16:44	10	2	0.1	2	2	393	0.2	393	394	16.2	96.6
2025-09-21T16:45	10	2	0.0	2	2	393	0.2	393	393	16.2	96.3
2025-09-21T16:46	10	2	0.1	2	2	393	0.2	393	394	16.2	96.3
2025-09-21T16:47	10	2	0.1	1	2	393	0.3	392	394	16.2	96.2
2025-09-21T16:48	10	2	0.1	1	2	393	0.3	392	393	16.2	96.4
2025-09-21T16:49	10	1	0.1	1	2	393	0.2	393	393	16.2	96.5
2025-09-21T16:50	10	1	0.1	1	2	393	0.2	393	394	16.2	96.2
2025-09-21T16:51	10	1	0.1	1	2	393	0.2	392	393	16.2	95.9
2025-09-21T16:52	10	1	0.1	1	2	393	0.2	392	394	16.2	96.1
2025-09-21T16:53	10	1	0.1	1	1	393	0.2	392	393	16.2	96.2
2025-09-21T16:54	10	1	0.1	1	1	393	0.2	393	393	16.2	95.5
2025-09-21T16:55	10	1	0.1	1	1	393	0.2	392	393	16.2	95.3
2025-09-21T16:56	10	1	0.1	1	1	393	0.2	393	394	16.3	95.5
2025-09-21T16:57	10	1	0.1	1	1	393	0.2	393	394	16.3	95.6
2025-09-21T16:58	10	1	0.1	1	1	393	0.2	393	393	16.3	95.1
2025-09-21T16:59	10	1	0.1	1	1	393	0.2	393	394	16.3	95.0
2025-09-21T17:00	10	1	0.1	1	1	393	0.2	393	393	16.3	95.5
2025-09-21T17:01	10	1	0.1	1	1	393	0.2	393	393	16.3	96.0
2025-09-21T17:02	10	1	0.1	1	1	393	0.2	392	393	16.3	96.1
2025-09-21T17:03	10	1	0.1	1	1	393	0.3	392	393	16.2	95.1
2025-09-21T17:04	10	1	0.1	1	2	392	0.2	392	393	16.3	94.5
2025-09-21T17:05	10	1	0.1	1	1	392	0.2	392	392	16.3	94.4
2025-09-21T17:06	10	1	0.1	1	2	392	0.2	391	392	16.3	94.9
2025-09-21T17:07	10	1	0.0	1	1	391	0.2	391	392	16.3	95.4
2025-09-21T17:08	10	1	0.1	1	1	391	0.2	391	392	16.2	95.5
2025-09-21T17:09	10	1	0.0	1	1	391	0.2	391	391	16.2	95.2
2025-09-21T17:10	10	1	0.1	1	2	391	0.2	390	391	16.3	95.0
2025-09-21T17:11	10	1	0.1	1	1	391	0.2	391	392	16.3	95.1
2025-09-21T17:12	10	1	0.1	1	1	391	0.2	391	392	16.3	95.6
2025-09-21T17:13	10	1	0.1	1	1	391	0.2	390	391	16.3	96.1
2025-09-21T17:14	10	1	0.1	1	2	391	0.2	391	391	16.2	96.4
2025-09-21T17:15	10	1	0.1	1	2	391	0.2	390	392	16.2	96.4
2025-09-21T17:16	10	2	0.1	1	2	391	0.2	391	392	16.2	96.4
2025-09-21T17:17	10	1	0.1	1	2	391	0.3	391	392	16.2	96.3
2025-09-21T17:18	10	1	0.1	1	2	391	0.3	391	392	16.2	96.3
2025-09-21T17:19	10	1	0.2	1	2	391	0.2	391	392	16.2	96.2
2025-09-21T17:20	10	1	0.1	1	1	391	0.2	391	392	16.2	96.2
2025-09-21T17:21	10	1	0.1	0	1	391	0.2	391	392	16.2	96.1
2025-09-21T17:22	10	1	0.2	0	1	391	0.2	391	392	16.2	96.1
2025-09-21T17:23	10	1	0.2	0	1	391	0.2	391	392	16.2	96.0
2025-09-21T17:24	10	1	0.2	1	1	391	0.2	390	391	16.2	95.5
2025-09-21T17:25	10	1	0.2	1	2	391	0.3	390	392	16.2	95.1
2025-09-21T17:26	10	2	0.2	1	2	391	0.4	390	392	16.3	95.2
2025-09-21T17:27	10	2	0.2	2	3	391	0.2	390	391	16.3	95.2
2025-09-21T17:28	10	3	0.3	2	4	390	0.3	390	391	16.3	95.6
2025-09-21T17:29	10	4	0.3	3	5	390	0.2	390	391	16.3	95.5
2025-09-21T17:30	10	5	0.2	4	5	390	0.3	390	391	16.3	95.8
2025-09-21T17:31	10	5	0.2	4	5	390	0.2	390	391	16.2	96.3
2025-09-21T17:32	10	4	0.4	3	5	390	0.2	390	391	16.2	96.5
2025-09-21T17:33	10	3	0.4	2	4	390	0.3	390	391	16.2	97.0
2025-09-21T17:34	10	2	0.3	1	2	390	0.3	389	390	16.2	97.1
2025-09-21T17:35	10	1	0.2	0	1	389	0.3	389	390	16.2	97.7
2025-09-21T17:36	10	1	0.2	0	1	389	0.3	388	390	16.2	97.8
2025-09-21T17:37	10	1	0.2	0	1	389	0.3	388	390	16.1	97.8
2025-09-21T17:38	10	0	0.1	0	1	389	0.2	388	389	16.1	97.9
2025-09-21T17:39	10	0	0.2	0	1	388	0.2	387	389	16.1	98.0
2025-09-21T17:40	10	0	0.1	0	1	388	0.3	388	389	16.0	97.9
2025-09-21T17:41	10	0	0.2	0	1	388	0.2	388	389	16.0	97.7
2025-09-21T17:42	10	0	0.1	0	1	388	0.3	387	388	16.0	97.4
2025-09-21T17:43	10	0	0.2	0	1	388	0.2	387	388	16.1	97.6
2025-09-21T17:44	10	0	0.1	0	1	388	0.2	387	388	16.0	97.8
2025-09-21T17:45	10	0	0.1	0	1	387	0.2	386	388	16.0	97.7
2025-09-21T17:46	10	0	0.1	0	1	387	0.2	387	388	16.0	97.7
2025-09-21T17:47	10	0	0.1	0	1	387	0.3	386	388	16.0	97.4
2025-09-21T17:48	10	0	0.1	0	1	387	0.2	387	388	16.0	97.3
2025-09-21T17:49	10	0	0.1	0	0	387	0.2	387	388	16.1	97.1
2025-09-21T17:50	10	0	0.1	0	0	387	0.2	387	388	16.1	97.2
2025-09-21T17:51	10	0	0.1	0	0	387	0.2	386	387	16.1	97.4
2025-09-21T17:52	10	0	0.1	0	0	387	0.2	386	387	16.1	97.5
2025-09-21T17:53	10	0	0.1	0	0	386	0.2	386	387	16.1	97.8
2025-09-21T17:54	10	0	0.1	0	1	386	0.2	386	387	16.1	97.8
2025-09-21T17:55	10	0	0.1	0	0	386	0.2	386	387	16.0	97.3
2025-09-21T17:56	10	0	0.1	0	1	386	0.2	386	386	16.0	96.8
2025-09-21T17:57	10	0	0.1	0	0	386	0.2	385	386	16.0	96.5
2025-09-21T17:58	10	0	0.1	0	1	386	0.2	386	386	16.0	96.6
2025-09-21T17:59	10	0	0.1	0	1	386	0.2	385	386	16.0	96.5
2025-09-21T18:00	10	0	0.1	0	0	386	0.2	385	386	16.0	96.5
2025-09-21T18:01	10	0	0.1	0	0	386	0.2	385	386	16.1	96.7
2025-09-21T18:02	10	0	0.1	0	0	386	0.2	385	386	16.1	96.7
2025-09-21T18:03	10	0	0.1	0	0	385	0.2	385	386	16.0	97.0
2025-09-21T18:04	10	0	0.1	0	0	386	0.2	385	386	16.0	97.5
2025-09-21T18:05	10	0	0.1	0	0	386	0.2	385	386	16.0	97.8
2025-09-21T18:06	10	0	0.1	0	0	386	0.2	386	386	16.0	97.9
2025-09-21T18:07	10	0	0.1	0	0	386	0.2	386	387	16.0	98.1
2025-09-21T18:08	10	0	0.1	0	0	386	0.2	386	387	16.0	97.9
2025-09-21T18:09	10	0	0.1	0	0	386	0.2	386	386	16.0	97.8
2025-09-21T18:10	10	0	0.1	0	0	386	0.3	385	386	15.9	98.0
2025-09-21T18:11	10	0	0.1	0	0	386	0.2	386	386	15.9	98.4
2025-09-21T18:12	10	0	0.1	0	0	386	0.2	386	387	15.9	98.5
2025-09-21T18:13	10	0	0.1	0	0	386	0.2	386	387	15.9	98.7
2025-09-21T18:14	10	0	0.1	0	0	387	0.3	386	387	15.8	98.7
2025-09-21T18:15	10	0	0.1	0	0	387	0.2	386	387	15.7	98.6
2025-09-21T18:16	10	0	0.1	0	0	387	0.2	387	388	15.7	98.5
2025-09-21T18:17	10	0	0.1	0	0	387	0.2	387	388	15.7	98.5
2025-09-21T18:18	10	0	0.1	0	0	387	0.2	387	387	15.7	98.5
2025-09-21T18:19	10	0	0.1	0	0	387	0.2	387	388	15.6	98.5
2025-09-21T18:20	10	0	0.0	0	0	387	0.2	387	388	15.6	98.7
2025-09-21T18:21	10	0	0.0	0	0	387	0.2	387	388	15.6	98.8
2025-09-21T18:22	10	0	0.1	0	0	388	0.2	387	388	15.6	98.9
2025-09-21T18:23	10	0	0.0	0	0	388	0.2	387	388	15.6	98.9
2025-09-21T18:24	10	0	0.0	0	0	388	0.2	387	388	15.6	98.9
2025-09-21T18:25	10	0	0.0	0	0	388	0.3	387	388	15.6	99.0
2025-09-21T18:26	10	0	0.0	0	0	388	0.2	387	388	15.5	99.0
2025-09-21T18:27	10	0	0.1	0	0	387	0.2	387	388	15.5	99.1
2025-09-21T18:28	10	0	0.0	0	0	387	0.2	387	388	15.5	99.0
2025-09-21T18:29	10	0	0.1	0	0	388	0.2	387	388	15.5	99.0
2025-09-21T18:30	10	0	0.1	0	0	387	0.2	387	388	15.5	99.0
2025-09-21T18:31	10	0	0.1	0	0	387	0.2	387	388	15.5	98.8
2025-09-21T18:32	10	0	0.1	0	0	387	0.2	387	388	15.5	98.9
2025-09-21T18:33	10	0	0.1	0	0	387	0.2	387	388	15.5	98.8
2025-09-21T18:34	10	0	0.1	0	0	387	0.2	387	388	15.5	98.7
2025-09-21T18:35	10	0	0.1	0	0	387	0.2	387	388	15.5	98.6
2025-09-21T18:36	10	0	0.1	0	0	388	0.2	387	388	15.6	98.3
2025-09-21T18:37	10	0	0.1	0	0	388	0.2	387	388	15.6	98.2
2025-09-21T18:38	10	0	0.1	0	0	388	0.2	387	388	15.6	98.0
2025-09-21T18:39	10	0	0.1	0	0	388	0.3	387	388	15.6	97.7
2025-09-21T18:40	10	0	0.1	0	0	387	0.2	387	388	15.7	97.5
2025-09-21T18:41	10	0	0.1	0	0	388	0.2	387	388	15.8	97.0
2025-09-21T18:42	10	0	0.1	0	0	388	0.2	388	389	15.8	96.7
2025-09-21T18:43	10	0	0.1	0	0	388	0.3	388	389	15.8	96.4
2025-09-21T18:44	10	0	0.1	0	0	388	0.2	388	388	15.9	96.1
2025-09-21T18:45	10	0	0.1	0	0	388	0.2	387	388	15.8	96.3
2025-09-21T18:46	10	0	0.0	0	0	388	0.2	387	388	15.8	96.5
2025-09-21T18:47	10	0	0.1	0	0	388	0.2	387	388	15.8	96.8
2025-09-21T18:48	10	0	0.1	0	0	388	0.2	388	389	15.8	96.6
2025-09-21T18:49	10	0	0.1	0	0	388	0.3	387	389	15.7	96.8
2025-09-21T18:50	10	0	0.1	0	0	388	0.2	388	388	15.7	96.3
2025-09-21T18:51	10	0	0.1	0	0	388	0.2	388	389	15.8	96.0
2025-09-21T18:52	10	0	0.1	0	0	388	0.2	388	389	15.8	95.6
2025-09-21T18:53	10	0	0.0	0	0	388	0.2	388	389	15.8	95.6
2025-09-21T18:54	10	0	0.1	0	0	389	0.2	388	389	15.9	95.2
2025-09-21T18:55	10	0	0.1	0	0	388	0.2	388	389	15.9	95.3
2025-09-21T18:56	10	0	0.1	0	0	388	0.2	388	389	15.9	95.2
2025-09-21T18:57	10	0	0.0	0	0	388	0.2	387	388	15.9	95.1
2025-09-21T18:58	10	0	0.1	0	0	388	0.2	388	388	15.8	94.7
2025-09-21T18:59	10	0	0.1	0	0	388	0.3	387	389	15.9	94.1
2025-09-21T19:00	10	0	0.1	0	0	388	0.2	388	389	15.9	93.4
2025-09-21T19:01	10	0	0.1	0	0	388	0.2	388	389	16.0	92.3
2025-09-21T19:02	10	0	0.1	0	1	388	0.2	388	389	16.0	92.5
2025-09-21T19:03	10	0	0.1	0	1	388	0.2	388	389	15.9	92.2
2025-09-21T19:04	10	0	0.1	0	0	388	0.2	387	389	16.0	91.5
2025-09-21T19:05	10	0	0.1	0	1	388	0.2	388	389	16.0	91.1
2025-09-21T19:06	10	0	0.1	0	1	388	0.2	387	388	16.0	90.8
2025-09-21T19:07	10	0	0.1	0	0	388	0.2	387	388	16.0	90.6
2025-09-21T19:08	10	0	0.1	0	0	388	0.3	387	388	16.0	90.8
2025-09-21T19:09	10	0	0.1	0	0	388	0.2	387	388	16.0	90.3
2025-09-21T19:10	10	0	0.1	0	0	388	0.2	388	389	16.1	88.8
2025-09-21T19:11	10	0	0.1	0	0	388	0.2	387	388	16.1	88.8
2025-09-21T19:12	10	0	0.1	0	0	388	0.2	387	388	16.1	88.5
2025-09-21T19:13	10	0	0.1	0	0	388	0.3	387	388	16.1	88.7
2025-09-21T19:14	10	0	0.1	0	0	387	0.2	387	388	16.0	89.3
2025-09-21T19:15	10	0	0.1	0	0	387	0.2	387	388	16.0	88.9
2025-09-21T19:16	10	0	0.1	0	0	387	0.3	386	388	16.0	90.1
2025-09-21T19:17	10	0	0.1	0	0	387	0.2	387	387	15.9	89.8
2025-09-21T19:18	10	0	0.1	0	0	387	0.2	386	387	16.0	88.8
2025-09-21T19:19	10	0	0.1	0	0	387	0.2	386	387	16.0	89.6
2025-09-21T19:20	10	0	0.1	0	0	387	0.2	386	387	15.9	90.6
2025-09-21T19:21	10	0	0.1	0	0	387	0.2	386	387	15.9	90.7
2025-09-21T19:22	10	0	0.1	0	0	387	0.2	386	387	15.8	91.5
2025-09-21T19:23	10	0	0.1	0	0	387	0.2	387	388	15.8	91.6
2025-09-21T19:24	10	0	0.1	0	0	387	0.2	387	388	15.8	91.5
2025-09-21T19:25	10	0	0.1	0	0	387	0.2	386	387	15.8	92.4
2025-09-21T19:26	10	0	0.1	0	0	387	0.2	387	388	15.7	92.4
2025-09-21T19:27	10	0	0.1	0	0	387	0.2	387	388	15.7	92.1
2025-09-21T19:28	10	0	0.1	0	1	387	0.2	387	388	15.6	92.2
2025-09-21T19:29	10	0	0.1	0	0	387	0.3	387	388	15.6	92.1
2025-09-21T19:30	10	0	0.1	0	0	387	0.2	387	388	15.6	92.9
2025-09-21T19:31	10	0	0.1	0	0	388	0.3	387	388	15.6	94.2
2025-09-21T19:32	10	0	0.1	0	0	388	0.2	387	388	15.5	94.6
2025-09-21T19:33	10	0	0.1	0	0	388	0.2	387	388	15.5	95.1
2025-09-21T19:34	10	0	0.1	0	0	388	0.2	387	388	15.5	95.1
2025-09-21T19:35	10	0	0.1	0	0	387	0.2	387	388	15.5	94.8
2025-09-21T19:36	10	0	0.1	0	0	387	0.2	387	388	15.5	95.0
2025-09-21T19:37	10	0	0.1	0	0	387	0.2	387	388	15.6	95.2
2025-09-21T19:38	10	0	0.0	0	0	387	0.2	386	387	15.6	95.5
2025-09-21T19:39	10	0	0.1	0	0	387	0.2	386	387	15.5	96.1
2025-09-21T19:40	10	0	0.1	0	0	387	0.2	386	387	15.5	96.0
2025-09-21T19:41	10	0	0.1	0	0	387	0.2	386	387	15.5	95.7
2025-09-21T19:42	10	0	0.1	0	0	386	0.2	386	387	15.5	95.2
2025-09-21T19:43	10	0	0.1	0	0	386	0.2	386	387	15.4	94.7
2025-09-21T19:44	10	0	0.1	0	0	386	0.2	386	386	15.5	94.7
2025-09-21T19:45	10	0	0.1	0	0	386	0.2	386	387	15.5	95.0
2025-09-21T19:46	10	0	0.1	0	0	386	0.2	386	387	15.5	95.0
2025-09-21T19:47	10	0	0.1	0	0	387	0.3	386	388	15.6	94.6
2025-09-21T19:48	10	0	0.1	0	0	387	0.2	386	387	15.6	94.4
2025-09-21T19:49	10	0	0.1	0	0	388	0.2	387	388	15.6	93.9
2025-09-21T19:50	10	0	0.1	0	0	388	0.2	387	388	15.7	93.7
2025-09-21T19:51	10	0	0.1	0	0	388	0.2	388	388	15.7	93.7
2025-09-21T19:52	10	0	0.1	0	0	388	0.3	387	388	15.7	90.9
2025-09-21T19:53	10	0	0.1	0	0	388	0.3	388	389	15.7	93.7
2025-09-21T19:54	10	0	0.1	0	0	388	0.2	388	388	15.7	93.7
2025-09-21T19:55	10	0	0.1	0	0	388	0.2	387	389	15.7	93.7
2025-09-21T19:56	10	0	0.1	0	0	388	0.2	388	389	15.7	93.7
2025-09-21T19:57	10	0	0.1	0	0	388	0.2	388	389	15.7	93.7
2025-09-21T19:58	10	0	0.1	0	0	388	0.2	387	388	15.7	93.7
2025-09-21T19:59	10	0	0.1	0	0	388	0.2	387	388	15.5	94.9
2025-09-21T20:00	10	0	0.1	0	1	388	0.2	387	388	15.4	95.2
2025-09-21T20:01	10	0	0.1	0	0	388	0.2	388	388	15.4	95.7
2025-09-21T20:02	10	0	0.1	0	0	388	0.2	388	389	15.4	95.8
2025-09-21T20:03	10	0	0.1	0	0	388	0.2	388	389	15.4	95.8
2025-09-21T20:04	10	0	0.1	0	1	388	0.3	388	389	15.4	95.6
2025-09-21T20:05	10	0	0.1	0	0	388	0.2	388	389	15.4	95.3
2025-09-21T20:06	10	0	0.1	0	0	389	0.2	388	389	15.4	95.6
2025-09-21T20:07	10	0	0.1	0	0	389	0.2	388	389	15.4	95.8
2025-09-21T20:08	10	0	0.1	0	1	389	0.2	388	389	15.4	95.9
2025-09-21T20:09	10	0	0.1	0	0	389	0.3	388	389	15.3	96.4
2025-09-21T20:10	10	0	0.1	0	0	389	0.2	388	389	15.3	96.1
2025-09-21T20:11	10	0	0.1	0	0	389	0.2	389	390	15.4	95.3
2025-09-21T20:12	10	0	0.1	0	0	389	0.2	389	390	15.5	93.9
2025-09-21T20:13	10	0	0.1	0	0	389	0.3	389	390	15.6	93.2
2025-09-21T20:14	10	0	0.1	0	0	389	0.2	389	390	15.6	92.8
2025-09-21T20:15	10	0	0.1	0	1	389	0.3	389	390	15.6	92.7
2025-09-21T20:16	10	0	0.1	0	1	390	0.2	389	390	15.6	92.6
2025-09-21T20:17	10	0	0.1	0	1	390	0.2	389	390	15.6	92.3
2025-09-21T20:18	10	0	0.1	0	0	390	0.3	389	390	15.6	92.4
2025-09-21T20:19	10	0	0.1	0	0	390	0.2	389	390	15.6	92.4
2025-09-21T20:20	10	0	0.1	0	0	390	0.3	389	391	15.6	92.0
2025-09-21T20:21	10	0	0.1	0	0	390	0.3	389	390	15.7	93.4
2025-09-21T20:22	10	0	0.1	0	0	390	0.2	389	391	15.6	94.6
2025-09-21T20:23	10	0	0.1	0	0	390	0.2	389	390	15.5	94.1
2025-09-21T20:24	10	0	0.1	0	0	390	0.2	389	390	15.5	94.5
2025-09-21T20:25	10	0	0.1	0	0	389	0.2	389	390	15.5	96.1
2025-09-21T20:26	10	0	0.1	0	0	390	0.3	389	390	15.4	96.5
2025-09-21T20:27	10	0	0.1	0	0	390	0.2	389	390	15.4	96.4
2025-09-21T20:28	10	0	0.1	0	0	390	0.2	389	390	15.3	96.3
2025-09-21T20:29	10	0	0.1	0	0	390	0.3	389	391	15.3	95.0
2025-09-21T20:30	10	0	0.1	0	0	390	0.3	389	390	15.4	92.5
2025-09-21T20:31	10	0	0.1	0	0	390	0.3	389	390	15.5	93.6
2025-09-21T20:32	10	0	0.1	0	0	389	0.2	389	390	15.5	95.7
2025-09-21T20:33	10	0	0.1	0	0	390	0.3	389	390	15.4	96.4
2025-09-21T20:34	10	0	0.1	0	0	390	0.2	389	390	15.4	97.1
2025-09-21T20:35	10	0	0.1	0	0	390	0.2	389	390	15.3	96.4
2025-09-21T20:36	10	0	0.1	0	0	390	0.2	389	390	15.3	96.3
2025-09-21T20:37	10	0	0.1	0	1	390	0.3	389	391	15.3	95.8
2025-09-21T20:38	10	0	0.1	0	0	390	0.2	389	390	15.4	96.0
2025-09-21T20:39	10	0	0.1	0	1	390	0.3	389	390	15.4	96.4
2025-09-21T20:40	10	0	0.1	0	0	390	0.2	389	390	15.3	96.1
2025-09-21T20:41	10	0	0.1	0	1	390	0.3	389	390	15.3	96.3
2025-09-21T20:42	10	0	0.1	0	0	389	0.2	389	390	15.3	96.6
2025-09-21T20:43	10	0	0.1	0	0	390	0.2	389	390	15.2	96.1
2025-09-21T20:44	10	0	0.1	0	1	390	0.2	389	390	15.3	95.9
2025-09-21T20:45	10	0	0.1	0	0	390	0.2	389	390	15.3	95.8
2025-09-21T20:46	10	0	0.1	0	0	389	0.2	389	390	15.3	96.1
2025-09-21T20:47	10	0	0.1	0	0	389	0.2	389	390	15.2	95.8
2025-09-21T20:48	10	0	0.1	0	0	389	0.2	389	390	15.2	95.6
2025-09-21T20:49	10	0	0.1	0	0	389	0.2	389	390	15.2	95.7
2025-09-21T20:50	10	0	0.1	0	0	389	0.3	389	390	15.3	95.2
2025-09-21T20:51	10	0	0.1	0	0	389	0.2	389	390	15.3	96.2
2025-09-21T20:52	10	0	0.1	0	0	389	0.2	389	390	15.3	96.9
2025-09-21T20:53	10	0	0.1	0	1	389	0.2	389	390	15.3	97.3
2025-09-21T20:54	10	0	0.1	0	0	390	0.2	389	390	15.2	97.4
2025-09-21T20:55	10	0	0.1	0	0	389	0.2	389	390	15.2	97.1
2025-09-21T20:56	10	0	0.1	0	0	389	0.2	389	390	15.2	97.3
2025-09-21T20:57	10	0	0.1	0	0	389	0.2	389	390	15.2	97.5
2025-09-21T20:58	10	0	0.1	0	0	390	0.2	389	390	15.2	97.4
2025-09-21T20:59	10	0	0.1	0	0	389	0.2	389	390	15.1	97.4
2025-09-21T21:00	10	0	0.1	0	1	390	0.2	389	390	15.1	97.0
2025-09-21T21:01	10	0	0.1	0	0	389	0.2	389	390	15.2	96.8
2025-09-21T21:02	10	0	0.1	0	0	389	0.2	389	390	15.2	96.8
2025-09-21T21:03	10	0	0.1	0	1	389	0.2	389	390	15.2	96.9
2025-09-21T21:04	10	0	0.1	0	0	389	0.2	389	390	15.2	96.7
2025-09-21T21:05	10	0	0.1	0	0	390	0.2	389	390	15.3	97.1
2025-09-21T21:06	10	0	0.1	0	0	390	0.2	389	390	15.3	97.3
2025-09-21T21:07	10	0	0.1	0	0	390	0.3	389	390	15.3	97.4
2025-09-21T21:08	10	0	0.1	0	1	390	0.2	389	390	15.3	97.5
2025-09-21T21:09	10	0	0.1	0	0	389	0.2	389	390	15.3	97.8
2025-09-21T21:10	10	0	0.1	0	0	389	0.2	389	390	15.3	98.1
2025-09-21T21:11	10	0	0.1	0	0	390	0.2	389	390	15.2	97.9
2025-09-21T21:12	10	0	0.1	0	0	390	0.2	389	390	15.2	97.6
2025-09-21T21:13	10	0	0.1	0	1	390	0.2	389	390	15.2	97.2
2025-09-21T21:14	10	0	0.1	0	0	390	0.2	389	390	15.2	97.0
2025-09-21T21:15	10	0	0.1	0	0	389	0.2	389	390	15.2	96.3
2025-09-21T21:16	10	0	0.1	0	1	389	0.2	389	390	15.2	95.9
2025-09-21T21:17	10	0	0.1	0	1	389	0.2	389	390	15.2	95.1
2025-09-21T21:18	10	0	0.1	0	1	389	0.2	389	390	15.3	95.7
2025-09-21T21:19	10	0	0.1	0	0	389	0.2	389	390	15.3	96.0
2025-09-21T21:20	10	0	0.1	0	0	389	0.2	389	390	15.3	95.9
2025-09-21T21:21	10	0	0.1	0	0	389	0.2	389	390	15.2	95.8
2025-09-21T21:22	10	0	0.1	0	0	389	0.2	389	390	15.2	95.8
2025-09-21T21:23	10	0	0.1	0	0	389	0.2	389	390	15.2	95.8
2025-09-21T21:24	10	0	0.1	0	0	390	0.3	389	390	15.2	95.4
2025-09-21T21:25	10	0	0.1	0	0	389	0.3	389	390	15.3	95.7
2025-09-21T21:26	10	0	0.1	0	0	389	0.3	389	390	15.3	95.8
2025-09-21T21:27	10	0	0.1	0	0	389	0.3	389	390	15.3	96.2
2025-09-21T21:28	10	0	0.1	0	0	389	0.2	389	390	15.2	96.5
2025-09-21T21:29	10	0	0.1	0	0	389	0.3	388	389	15.1	95.7
2025-09-21T21:30	10	0	0.1	0	1	389	0.2	389	390	15.2	94.7
2025-09-21T21:31	10	0	0.1	0	0	389	0.2	389	390	15.3	94.7
2025-09-21T21:32	10	0	0.1	0	0	390	0.2	389	390	15.3	94.5
2025-09-21T21:33	10	0	0.1	0	0	389	0.2	389	390	15.3	94.2
2025-09-21T21:34	10	0	0.1	0	0	390	0.2	389	390	15.4	94.2
2025-09-21T21:35	10	0	0.1	0	1	390	0.2	389	390	15.4	93.8
2025-09-21T21:36	10	0	0.1	0	0	390	0.2	389	390	15.4	93.8
2025-09-21T21:37	10	0	0.1	0	0	390	0.2	389	390	15.5	94.3
2025-09-21T21:38	10	0	0.1	0	1	390	0.2	389	390	15.5	94.5
2025-09-21T21:39	10	0	0.1	0	0	390	0.2	389	390	15.5	94.9
2025-09-21T21:40	10	0	0.1	0	0	390	0.3	389	390	15.4	95.2
2025-09-21T21:41	10	0	0.1	0	0	389	0.2	389	390	15.4	95.7
2025-09-21T21:42	10	0	0.1	0	0	389	0.3	389	390	15.4	96.0
2025-09-21T21:43	10	0	0.1	0	0	389	0.2	389	390	15.4	96.2
2025-09-21T21:44	10	0	0.1	0	0	389	0.2	389	390	15.5	96.6
2025-09-21T21:45	10	0	0.1	0	0	389	0.2	389	390	15.4	97.0
2025-09-21T21:46	10	0	0.1	0	1	389	0.2	389	390	15.4	96.7
2025-09-21T21:47	10	0	0.1	0	1	389	0.2	389	390	15.4	96.7
2025-09-21T21:48	10	0	0.1	0	1	389	0.2	389	390	15.4	96.6
2025-09-21T21:49	10	0	0.1	0	1	389	0.2	389	390	15.4	96.7
2025-09-21T21:50	10	0	0.1	0	0	389	0.3	389	390	15.4	96.6
2025-09-21T21:51	10	0	0.1	0	0	389	0.2	389	389	15.4	96.3
2025-09-21T21:52	10	0	0.1	0	1	389	0.2	389	389	15.4	96.3
2025-09-21T21:53	10	0	0.1	0	0	389	0.3	388	390	15.4	96.8
2025-09-21T21:54	10	0	0.1	0	0	389	0.2	388	389	15.3	97.2
2025-09-21T21:55	10	0	0.1	0	0	389	0.2	388	389	15.3	97.7
2025-09-21T21:56	10	0	0.1	0	1	389	0.2	388	389	15.2	97.7
2025-09-21T21:57	10	0	0.1	0	0	388	0.2	388	389	15.2	97.6
2025-09-21T21:58	10	0	0.1	0	1	389	0.3	388	389	15.2	98.0
2025-09-21T21:59	10	0	0.1	0	0	388	0.2	388	389	15.2	97.9
2025-09-21T22:00	10	0	0.1	0	0	388	0.2	388	389	15.1	97.8
2025-09-21T22:01	10	0	0.1	0	0	388	0.2	388	389	15.1	97.6
2025-09-21T22:02	10	0	0.1	0	0	388	0.2	388	389	15.2	97.7
2025-09-21T22:03	10	0	0.1	0	0	388	0.2	388	389	15.2	97.7
2025-09-21T22:04	10	0	0.1	0	0	388	0.3	388	389	15.2	97.7
2025-09-21T22:05	10	0	0.1	0	0	388	0.2	388	389	15.2	98.0
2025-09-21T22:06	10	0	0.1	0	0	388	0.2	388	389	15.2	98.1
2025-09-21T22:07	10	0	0.1	0	0	388	0.2	388	389	15.2	98.2
2025-09-21T22:08	10	0	0.1	0	0	388	0.2	388	389	15.1	98.2
2025-09-21T22:09	10	0	0.1	0	0	388	0.2	388	389	15.2	98.3
2025-09-21T22:10	10	0	0.1	0	0	388	0.2	388	389	15.2	98.5
2025-09-21T22:11	10	0	0.1	0	0	388	0.2	388	389	15.1	98.4
2025-09-21T22:12	10	0	0.1	0	0	389	0.2	388	389	15.1	98.1
2025-09-21T22:13	10	0	0.1	0	0	388	0.2	388	389	15.2	97.9
2025-09-21T22:14	10	0	0.1	0	0	388	0.2	388	389	15.2	98.3
2025-09-21T22:15	10	0	0.1	0	1	388	0.2	388	389	15.2	98.5
2025-09-21T22:16	10	0	0.1	0	0	388	0.2	388	389	15.2	98.7
2025-09-21T22:17	10	0	0.1	0	0	388	0.2	388	389	15.2	99.0
2025-09-21T22:18	10	0	0.1	0	0	388	0.2	388	389	15.2	98.8
2025-09-21T22:19	10	0	0.1	0	0	388	0.2	388	389	15.2	98.9
2025-09-21T22:20	10	0	0.1	0	0	388	0.2	388	389	15.1	98.9
2025-09-21T22:21	10	0	0.1	0	0	388	0.2	388	389	15.1	98.8
2025-09-21T22:22	10	0	0.1	0	0	388	0.3	388	389	15.1	98.9
2025-09-21T22:23	10	0	0.1	0	0	388	0.2	388	389	15.1	98.9
2025-09-21T22:24	10	0	0.1	0	0	389	0.2	388	389	15.1	98.9
2025-09-21T22:25	10	0	0.1	0	0	388	0.2	388	389	15.1	99.1
2025-09-21T22:26	10	0	0.1	0	0	389	0.2	388	389	15.1	99.2
2025-09-21T22:27	10	0	0.1	0	0	388	0.2	388	389	15.1	99.2
2025-09-21T22:28	10	0	0.1	0	0	388	0.2	388	389	15.1	99.3
2025-09-21T22:29	10	0	0.1	0	1	388	0.2	388	389	15.1	99.7
2025-09-21T22:30	10	0	0.1	0	0	388	0.2	388	389	15.1	99.4
2025-09-21T22:31	10	0	0.1	0	0	388	0.3	388	389	15.1	99.5
2025-09-21T22:32	10	0	0.1	0	0	388	0.2	388	389	15.1	99.2
2025-09-21T22:33	10	0	0.1	0	0	388	0.2	388	389	15.1	99.2
2025-09-21T22:34	10	0	0.1	0	0	388	0.2	388	389	15.1	99.4
2025-09-21T22:35	10	0	0.1	0	0	388	0.2	388	389	15.1	99.3
2025-09-21T22:36	10	0	0.1	0	1	388	0.2	388	389	15.1	99.2
2025-09-21T22:37	10	0	0.1	0	0	388	0.2	388	389	15.1	99.0
2025-09-21T22:38	10	0	0.1	0	0	388	0.2	388	389	15.0	98.9
2025-09-21T22:39	10	0	0.1	0	0	388	0.3	387	389	15.0	98.7
2025-09-21T22:40	10	0	0.1	0	0	388	0.2	388	389	15.0	98.7
2025-09-21T22:41	10	0	0.1	0	0	388	0.3	387	389	15.1	98.8
2025-09-21T22:42	10	0	0.1	0	1	388	0.2	388	389	15.1	98.9
2025-09-21T22:43	10	0	0.1	0	0	388	0.2	388	389	15.1	99.1
2025-09-21T22:44	10	0	0.1	0	0	388	0.3	387	389	15.1	99.1
2025-09-21T22:45	10	0	0.1	0	0	388	0.3	388	389	15.1	99.2
2025-09-21T22:46	10	0	0.1	0	0	388	0.2	387	388	15.1	99.2
2025-09-21T22:47	10	0	0.1	0	0	388	0.2	388	389	15.1	99.4
2025-09-21T22:48	10	0	0.1	0	0	388	0.2	388	389	15.1	99.5
2025-09-21T22:49	10	0	0.1	0	0	388	0.2	388	389	15.1	99.2
2025-09-21T22:50	10	0	0.1	0	0	388	0.2	388	389	15.1	99.1
2025-09-21T22:51	10	0	0.1	0	0	388	0.2	388	389	15.1	98.9
2025-09-21T22:52	10	0	0.1	0	0	388	0.2	388	389	15.1	99.0
2025-09-21T22:53	10	0	0.1	0	0	388	0.2	388	389	15.1	99.0
2025-09-21T22:54	10	0	0.1	0	0	388	0.2	388	389	15.1	98.9
2025-09-21T22:55	10	0	0.1	0	0	388	0.2	388	389	15.1	98.8
2025-09-21T22:56	10	0	0.1	0	0	388	0.2	388	389	15.1	98.7
2025-09-21T22:57	10	0	0.1	0	0	388	0.2	388	389	15.0	98.4
2025-09-21T22:58	10	0	0.1	0	0	388	0.2	388	389	15.1	98.4
2025-09-21T22:59	10	0	0.1	0	0	388	0.2	388	389	15.1	98.8
2025-09-21T23:00	10	0	0.1	0	0	388	0.2	388	388	15.1	98.7
2025-09-21T23:01	10	0	0.1	0	0	388	0.3	387	389	15.1	98.7
2025-09-21T23:02	10	0	0.1	0	0	388	0.2	387	389	15.1	98.8
2025-09-21T23:03	10	0	0.1	0	0	388	0.2	388	388	15.1	98.9
2025-09-21T23:04	10	0	0.1	0	0	388	0.3	387	389	15.1	98.7
2025-09-21T23:05	10	0	0.1	0	0	388	0.2	387	388	15.1	98.7
2025-09-21T23:06	10	0	0.1	0	0	388	0.3	387	388	15.1	98.6
2025-09-21T23:07	10	0	0.1	0	0	388	0.2	387	388	15.0	98.5
2025-09-21T23:08	10	0	0.1	0	0	388	0.2	387	388	15.1	98.4
2025-09-21T23:09	10	0	0.1	0	0	388	0.3	387	389	15.1	98.8
2025-09-21T23:10	10	0	0.1	0	0	388	0.2	387	388	15.1	98.9
2025-09-21T23:11	10	0	0.1	0	0	388	0.2	388	388	15.1	98.7
2025-09-21T23:12	10	0	0.1	0	0	388	0.2	387	388	15.1	98.7
2025-09-21T23:13	10	0	0.1	0	0	388	0.2	387	388	15.1	98.5
2025-09-21T23:14	10	0	0.1	0	0	388	0.2	387	388	15.1	98.2
2025-09-21T23:15	10	0	0.1	0	0	388	0.2	387	388	15.1	98.2
2025-09-21T23:16	10	0	0.1	0	0	388	0.2	387	388	15.1	98.4
2025-09-21T23:17	10	0	0.1	0	0	388	0.2	387	388	15.1	98.5
2025-09-21T23:18	10	0	0.1	0	0	388	0.2	387	388	15.1	98.6
2025-09-21T23:19	10	0	0.1	0	0	388	0.2	387	388	15.1	98.4
2025-09-21T23:20	10	0	0.1	0	0	388	0.2	387	388	15.1	98.4
2025-09-21T23:21	10	0	0.1	0	0	388	0.2	387	388	15.1	98.4
2025-09-21T23:22	10	0	0.1	0	0	388	0.2	388	388	15.1	98.6
2025-09-21T23:23	10	0	0.1	0	0	388	0.3	387	389	15.1	98.9
2025-09-21T23:24	10	0	0.1	0	0	388	0.2	387	389	15.1	98.8
2025-09-21T23:25	10	0	0.1	0	0	388	0.2	388	389	15.1	98.9
2025-09-21T23:26	10	0	0.1	0	0	388	0.2	388	389	15.1	98.9
2025-09-21T23:27	10	0	0.1	0	0	388	0.2	388	389	15.1	99.0
2025-09-21T23:28	10	0	0.1	0	0	388	0.3	388	389	15.0	99.1
2025-09-21T23:29	10	0	0.1	0	0	388	0.3	388	389	15.0	99.5
2025-09-21T23:30	10	0	0.1	0	0	388	0.2	388	389	15.0	99.9
2025-09-21T23:31	10	0	0.1	0	0	388	0.2	388	389	15.1	99.8
2025-09-21T23:32	10	0	0.1	0	0	388	0.2	388	389	15.1	99.5
2025-09-21T23:33	10	0	0.1	0	0	388	0.2	388	389	15.1	99.1
2025-09-21T23:34	10	0	0.1	0	0	388	0.2	388	389	15.1	99.2
2025-09-21T23:35	10	0	0.1	0	0	388	0.3	387	389	15.1	99.6
2025-09-21T23:36	10	0	0.1	0	0	388	0.2	388	389	15.1	99.2
2025-09-21T23:37	10	0	0.1	0	0	388	0.2	388	389	15.1	98.9
2025-09-21T23:38	10	0	0.1	0	0	388	0.3	388	389	15.1	99.1
2025-09-21T23:39	10	0	0.1	0	0	389	0.3	388	389	15.1	99.1
2025-09-21T23:40	10	0	0.1	0	0	389	0.2	388	389	15.1	99.1
2025-09-21T23:41	10	0	0.1	0	0	389	0.2	388	389	15.1	98.9
2025-09-21T23:42	10	0	0.1	0	0	389	0.2	388	389	15.1	98.9
2025-09-21T23:43	10	0	0.1	0	0	389	0.3	388	389	15.1	98.9
2025-09-21T23:44	10	0	0.1	0	0	389	0.2	388	389	15.1	99.1
2025-09-21T23:45	10	0	0.1	0	0	389	0.2	388	389	15.1	99.1
2025-09-21T23:46	10	0	0.1	0	0	389	0.2	388	389	15.1	99.1
2025-09-21T23:47	10	0	0.1	0	0	389	0.2	388	389	15.1	99.2
2025-09-21T23:48	10	0	0.1	0	0	389	0.2	389	389	15.0	99.4
2025-09-21T23:49	10	0	0.1	0	0	389	0.2	388	389	15.0	99.4
2025-09-21T23:50	10	0	0.1	0	0	389	0.2	388	389	15.0	99.2
2025-09-21T23:51	10	0	0.1	0	0	389	0.2	388	389	15.0	99.2
2025-09-21T23:52	10	0	0.1	0	0	389	0.3	388	389	15.1	99.3
2025-09-21T23:53	10	0	0.1	0	0	389	0.2	388	389	15.1	99.3
2025-09-21T23:54	10	0	0.1	0	0	389	0.2	388	389	15.0	99.3
2025-09-21T23:55	10	0	0.1	0	0	389	0.2	388	389	15.0	99.5
2025-09-21T23:56	10	0	0.1	0	0	389	0.2	388	389	15.0	99.5
2025-09-21T23:57	10	0	0.1	0	0	389	0.2	388	389	15.1	99.6
2025-09-21T23:58	10	0	0.1	0	0	389	0.2	388	389	15.1	99.5
2025-09-21T23:59	10	0	0.1	0	0	389	0.2	389	389	15.1	98.8
2025-09-22T00:00	10	0	0.1	0	0	389	0.2	389	390	15.1	99.1
2025-09-22T00:01	10	0	0.1	0	0	389	0.2	389	390	15.1	99.3
2025-09-22T00:02	10	0	0.1	0	0	389	0.2	389	390	15.1	99.5
2025-09-22T00:03	10	0	0.1	0	0	389	0.2	389	389	15.1	99.4
2025-09-22T00:04	10	0	0.1	0	0	389	0.2	389	390	15.1	99.1
2025-09-22T00:05	10	0	0.1	0	0	389	0.2	389	390	15.1	98.9
2025-09-22T00:06	10	0	0.0	0	0	389	0.2	389	389	15.1	99.3
2025-09-22T00:07	10	0	0.1	0	0	389	0.2	389	389	15.1	99.3
2025-09-22T00:08	10	0	0.1	0	0	389	0.2	389	390	15.1	99.3
2025-09-22T00:09	10	0	0.1	0	0	389	0.3	388	390	15.1	99.2
2025-09-22T00:10	10	0	0.1	0	0	389	0.2	389	389	15.1	99.3
2025-09-22T00:11	10	0	0.1	0	0	389	0.2	388	389	15.1	99.7
2025-09-22T00:12	10	0	0.1	0	0	389	0.2	389	390	15.1	99.9
2025-09-22T00:13	10	0	0.1	0	0	389	0.2	389	390	15.1	99.5
2025-09-22T00:14	10	0	0.1	0	0	389	0.2	389	390	15.1	98.8
2025-09-22T00:15	10	0	0.1	0	0	389	0.2	389	390	15.2	98.8
2025-09-22T00:16	10	0	0.1	0	0	389	0.2	389	390	15.2	98.9
2025-09-22T00:17	10	0	0.1	0	0	390	0.2	389	390	15.2	98.8
2025-09-22T00:18	10	0	0.1	0	0	390	0.2	389	390	15.2	99.1
2025-09-22T00:19	10	0	0.1	0	0	389	0.2	389	390	15.2	99.1
2025-09-22T00:20	10	0	0.1	0	0	389	0.3	389	390	15.2	99.1
2025-09-22T00:21	10	0	0.1	0	0	390	0.2	389	390	15.3	98.9
2025-09-22T00:22	10	0	0.1	0	0	390	0.2	389	390	15.3	99.3
2025-09-22T00:23	10	0	0.1	0	0	390	0.2	389	390	15.3	99.2
2025-09-22T00:24	10	0	0.1	0	0	390	0.2	389	390	15.3	99.0
2025-09-22T00:25	10	0	0.1	0	0	389	0.2	389	390	15.2	98.9
2025-09-22T00:26	10	0	0.1	0	0	389	0.3	388	390	15.2	98.9
2025-09-22T00:27	10	0	0.1	0	0	389	0.2	389	390	15.3	98.9
2025-09-22T00:28	10	0	0.1	0	0	389	0.2	389	390	15.3	99.1
2025-09-22T00:29	10	0	0.1	0	0	389	0.3	388	389	15.1	98.9
2025-09-22T00:30	10	0	0.1	0	0	389	0.2	388	389	15.2	98.8
2025-09-22T00:31	10	0	0.1	0	0	389	0.2	388	389	15.2	98.9
2025-09-22T00:32	10	0	0.1	0	0	388	0.3	388	389	15.1	98.2
2025-09-22T00:33	10	0	0.1	0	0	388	0.2	388	389	15.1	98.2
2025-09-22T00:34	10	0	0.1	0	0	388	0.2	388	389	15.2	98.3
2025-09-22T00:35	10	0	0.1	0	0	388	0.3	388	389	15.2	98.2
2025-09-22T00:36	10	0	0.1	0	0	388	0.2	388	389	15.2	98.3
2025-09-22T00:37	10	0	0.1	0	0	388	0.2	388	389	15.2	98.3
2025-09-22T00:38	10	0	0.1	0	0	388	0.2	388	389	15.2	98.2
2025-09-22T00:39	10	0	0.1	0	0	388	0.3	388	389	15.3	98.4
2025-09-22T00:40	10	0	0.1	0	0	388	0.2	388	389	15.3	98.7
2025-09-22T00:41	10	0	0.1	0	0	388	0.2	388	389	15.3	98.5
2025-09-22T00:42	10	0	0.1	0	0	389	0.2	388	389	15.3	98.8
2025-09-22T00:43	10	0	0.1	0	0	388	0.2	388	389	15.3	98.9
2025-09-22T00:44	10	0	0.1	0	0	388	0.2	387	389	15.3	99.1
2025-09-22T00:45	10	0	0.1	0	0	389	0.2	388	389	15.3	99.2
2025-09-22T00:46	10	0	0.1	0	0	389	0.2	388	389	15.3	99.3
2025-09-22T00:47	10	0	0.1	0	0	389	0.2	388	389	15.3	99.4
2025-09-22T00:48	10	0	0.1	0	0	389	0.2	388	389	15.3	99.5
2025-09-22T00:49	10	0	0.1	0	0	389	0.2	388	389	15.3	99.5
2025-09-22T00:50	10	0	0.1	0	0	389	0.2	388	389	15.2	99.7
2025-09-22T00:51	10	0	0.1	0	0	388	0.2	388	389	15.1	99.3
2025-09-22T00:52	10	0	0.1	0	0	388	0.3	387	388	15.1	99.0
2025-09-22T00:53	10	0	0.1	0	0	388	0.2	388	389	15.1	99.0
2025-09-22T00:54	10	0	0.1	0	0	388	0.2	388	389	15.1	99.2
2025-09-22T00:55	10	0	0.1	0	0	388	0.2	388	388	15.1	99.2
2025-09-22T00:56	10	0	0.1	0	0	388	0.2	388	389	15.2	99.4
2025-09-22T00:57	10	0	0.1	0	0	388	0.2	387	389	15.1	99.5
2025-09-22T00:58	10	0	0.1	0	0	388	0.2	388	389	15.1	99.4
2025-09-22T00:59	10	0	0.1	0	0	388	0.2	387	388	15.1	99.4
2025-09-22T01:00	10	0	0.1	0	0	388	0.2	387	388	15.1	99.4
2025-09-22T01:01	10	0	0.1	0	0	388	0.3	387	389	15.1	99.3
2025-09-22T01:02	10	0	0.1	0	0	388	0.2	387	388	15.1	99.2
2025-09-22T01:03	10	0	0.1	0	0	388	0.2	387	388	15.1	99.4
2025-09-22T01:04	10	0	0.1	0	0	388	0.2	387	388	15.1	99.5
2025-09-22T01:05	10	0	0.1	0	0	388	0.2	387	388	15.1	99.6
2025-09-22T01:06	10	0	0.1	0	0	388	0.3	387	388	15.1	99.4
2025-09-22T01:07	10	0	0.1	0	0	388	0.3	387	388	15.1	99.1
2025-09-22T01:08	10	0	0.1	0	0	388	0.2	387	388	15.1	99.0
2025-09-22T01:09	10	0	0.1	0	1	388	0.2	387	388	15.1	98.8
2025-09-22T01:10	10	0	0.1	0	0	387	0.2	387	388	15.1	99.0
2025-09-22T01:11	10	0	0.1	0	0	388	0.2	387	388	15.1	99.0
2025-09-22T01:12	10	0	0.1	0	0	388	0.2	387	388	15.1	98.9
2025-09-22T01:13	10	0	0.1	0	0	388	0.3	387	388	15.1	99.0
2025-09-22T01:14	10	0	0.1	0	0	388	0.2	387	388	15.1	99.1
2025-09-22T01:15	10	0	0.1	0	0	388	0.2	387	388	15.2	99.1
2025-09-22T01:16	10	0	0.1	0	0	387	0.2	387	388	15.1	98.6
2025-09-22T01:17	10	0	0.1	0	0	387	0.3	386	388	15.1	98.4
2025-09-22T01:18	10	0	0.1	0	0	387	0.2	386	387	15.1	98.6
2025-09-22T01:19	10	0	0.1	0	0	387	0.3	386	387	15.1	98.6
2025-09-22T01:20	10	0	0.1	0	0	387	0.2	386	387	15.1	98.9
2025-09-22T01:21	10	0	0.1	0	0	387	0.2	386	387	15.0	98.9
2025-09-22T01:22	10	0	0.1	0	0	386	0.2	386	387	15.0	98.8
2025-09-22T01:23	10	0	0.1	0	0	386	0.2	386	387	15.0	98.8
2025-09-22T01:24	10	0	0.1	0	0	386	0.2	386	387	15.0	98.8
2025-09-22T01:25	10	0	0.1	0	0	386	0.3	386	387	15.0	98.8
2025-09-22T01:26	10	0	0.1	0	0	386	0.3	386	387	15.0	99.0
2025-09-22T01:27	10	0	0.1	0	0	386	0.2	386	387	15.0	99.0
2025-09-22T01:28	10	0	0.1	0	0	386	0.2	386	387	15.0	99.1
2025-09-22T01:29	10	0	0.1	0	0	387	0.2	386	387	15.0	99.2
2025-09-22T01:30	10	0	0.1	0	0	386	0.2	386	387	15.0	99.2
2025-09-22T01:31	10	0	0.1	0	0	386	0.2	386	387	15.0	99.3
2025-09-22T01:32	10	0	0.1	0	0	387	0.2	386	387	15.0	99.3
2025-09-22T01:33	10	0	0.1	0	0	387	0.2	386	387	15.0	99.5
2025-09-22T01:34	10	0	0.1	0	0	387	0.3	386	387	15.0	99.7
2025-09-22T01:35	10	0	0.1	0	0	387	0.2	386	387	15.0	99.5
2025-09-22T01:36	10	0	0.1	0	0	387	0.2	386	387	15.0	99.5
2025-09-22T01:37	10	0	0.0	0	0	387	0.2	386	387	15.0	99.6
2025-09-22T01:38	10	0	0.1	0	0	386	0.2	386	387	14.9	99.5
2025-09-22T01:39	10	0	0.1	0	0	386	0.3	386	387	14.8	99.4
2025-09-22T01:40	10	0	0.1	0	0	386	0.3	385	387	14.8	99.4
2025-09-22T01:41	10	0	0.1	0	0	386	0.3	385	386	14.7	99.3
2025-09-22T01:42	10	0	0.1	0	0	385	0.2	385	386	14.6	98.0
2025-09-22T01:43	10	0	0.1	0	0	385	0.2	385	386	14.8	98.0
2025-09-22T01:44	10	0	0.1	0	0	385	0.2	385	386	14.8	98.3
2025-09-22T01:45	10	0	0.1	0	0	385	0.2	385	386	14.8	98.4
2025-09-22T01:46	10	0	0.1	0	0	385	0.2	385	386	14.6	98.1
2025-09-22T01:47	10	0	0.0	0	0	385	0.3	384	385	14.6	97.6
2025-09-22T01:48	10	0	0.1	0	0	384	0.2	384	385	14.6	97.4
2025-09-22T01:49	10	0	0.0	0	0	384	0.2	384	385	14.6	97.6
2025-09-22T01:50	10	0	0.0	0	0	384	0.4	383	384	14.2	95.9
2025-09-22T01:51	10	0	0.0	0	0	383	0.2	383	384	14.3	95.8
2025-09-22T01:52	10	0	0.0	0	0	383	0.3	382	383	14.3	94.7
2025-09-22T01:53	10	0	0.1	0	0	383	0.4	382	383	14.4	95.3
2025-09-22T01:54	10	0	0.1	0	0	382	0.2	382	383	14.4	95.1
2025-09-22T01:55	10	0	0.1	0	0	382	0.2	382	383	14.3	94.4
2025-09-22T01:56	10	0	0.1	0	0	382	0.2	382	383	14.3	94.1
2025-09-22T01:57	10	0	0.1	0	0	382	0.2	382	382	14.3	93.4
2025-09-22T01:58	10	0	0.1	0	0	382	0.2	381	382	14.3	93.5
2025-09-22T01:59	10	0	0.1	0	0	381	0.2	381	382	14.3	92.7
2025-09-22T02:00	10	0	0.1	0	0	381	0.2	381	382	14.3	92.2
2025-09-22T02:01	10	0	0.1	0	0	381	0.2	381	381	14.3	92.0
2025-09-22T02:02	10	0	0.1	0	0	381	0.3	380	382	14.2	92.8
2025-09-22T02:03	10	0	0.1	0	0	381	0.2	381	382	14.2	93.1
2025-09-22T02:04	10	0	0.0	0	0	381	0.2	381	382	14.2	92.5
2025-09-22T02:05	10	0	0.0	0	0	381	0.2	381	381	14.2	92.0
2025-09-22T02:06	10	0	0.0	0	0	381	0.2	380	381	14.2	91.6
2025-09-22T02:07	10	0	0.0	0	0	381	0.2	380	381	14.2	92.3
2025-09-22T02:08	10	0	0.1	0	0	381	0.3	380	381	14.2	92.5
2025-09-22T02:09	10	0	0.1	0	0	381	0.2	380	381	14.1	93.3
2025-09-22T02:10	10	0	0.1	0	0	381	0.2	381	381	14.1	93.8
2025-09-22T02:11	10	0	0.1	0	0	381	0.2	381	382	14.1	93.1
2025-09-22T02:12	10	0	0.1	0	1	381	0.3	381	382	14.1	92.3
2025-09-22T02:13	10	0	0.1	0	0	381	0.3	380	381	14.1	91.2
2025-09-22T02:14	10	0	0.2	0	1	381	0.2	380	381	14.1	92.8
2025-09-22T02:15	10	0	0.2	0	1	381	0.3	380	382	14.0	92.0
2025-09-22T02:16	10	0	0.1	0	1	381	0.2	381	381	14.1	92.7
2025-09-22T02:17	10	0	0.1	0	0	381	0.2	380	381	14.1	92.7
2025-09-22T02:18	10	0	0.2	0	1	381	0.2	381	381	14.1	93.3
2025-09-22T02:19	10	0	0.2	0	1	381	0.2	380	381	14.0	92.9
2025-09-22T02:20	10	0	0.2	0	1	381	0.3	380	381	14.0	93.4
2025-09-22T02:21	10	0	0.1	0	0	381	0.3	380	381	14.0	93.8
2025-09-22T02:22	10	0	0.1	0	0	381	0.3	380	381	13.9	94.0
2025-09-22T02:23	10	0	0.1	0	1	381	0.2	380	382	13.9	94.1
2025-09-22T02:24	10	0	0.1	0	1	381	0.2	380	381	13.9	94.3
2025-09-22T02:25	10	0	0.2	0	1	381	0.2	380	381	13.9	94.4
2025-09-22T02:26	10	0	0.1	0	0	381	0.3	380	381	13.9	94.5
2025-09-22T02:27	10	0	0.1	0	0	381	0.3	380	381	13.9	94.7
2025-09-22T02:28	10	0	0.1	0	0	380	0.3	380	381	13.8	94.7
2025-09-22T02:29	10	0	0.1	0	1	381	0.2	380	381	13.8	94.9
2025-09-22T02:30	10	0	0.1	0	0	380	0.2	380	381	13.8	94.8
2025-09-22T02:31	10	0	0.2	0	1	380	0.2	380	381	13.8	95.0
2025-09-22T02:32	10	0	0.1	0	0	380	0.3	380	381	13.8	95.3
2025-09-22T02:33	10	0	0.1	0	0	380	0.2	380	381	13.8	94.8
2025-09-22T02:34	10	0	0.1	0	0	380	0.3	380	381	13.8	92.2
2025-09-22T02:35	10	0	0.1	0	1	380	0.2	380	381	13.9	92.5
2025-09-22T02:36	10	0	0.1	0	0	380	0.2	379	380	13.9	94.0
2025-09-22T02:37	10	0	0.1	0	0	380	0.2	379	380	13.8	94.6
2025-09-22T02:38	10	0	0.1	0	0	380	0.2	380	380	13.8	94.6
2025-09-22T02:39	10	0	0.1	0	0	380	0.2	380	380	13.8	94.8
2025-09-22T02:40	10	0	0.1	0	0	380	0.3	379	380	13.8	95.3
2025-09-22T02:41	10	0	0.1	0	0	380	0.2	379	380	13.7	95.3
2025-09-22T02:42	10	0	0.1	0	0	380	0.2	380	381	13.7	95.7
2025-09-22T02:43	10	0	0.1	0	0	380	0.2	379	380	13.7	95.5
2025-09-22T02:44	10	0	0.0	0	0	380	0.2	380	381	13.7	95.3
2025-09-22T02:45	10	0	0.1	0	0	380	0.2	380	381	13.7	94.3
2025-09-22T02:46	10	0	0.0	0	0	380	0.2	380	380	13.7	94.4
2025-09-22T02:47	10	0	0.1	0	0	380	0.2	380	381	13.7	94.8
2025-09-22T02:48	10	0	0.1	0	0	380	0.2	380	381	13.7	95.0
2025-09-22T02:49	10	0	0.1	0	0	380	0.2	380	381	13.7	94.4
2025-09-22T02:50	10	0	0.1	0	0	380	0.2	380	381	13.7	93.6
2025-09-22T02:51	10	0	0.1	0	0	380	0.3	380	381	13.7	93.7
2025-09-22T02:52	10	0	0.0	0	0	380	0.2	380	381	13.7	93.7
2025-09-22T02:53	10	0	0.1	0	0	380	0.2	380	381	13.7	94.1
2025-09-22T02:54	10	0	0.1	0	1	380	0.2	380	381	13.7	94.4
2025-09-22T02:55	10	0	0.1	0	0	380	0.2	380	380	13.7	95.0
2025-09-22T02:56	10	0	0.1	0	0	380	0.2	379	380	13.6	94.8
2025-09-22T02:57	10	0	0.1	0	0	380	0.2	380	380	13.6	94.3
2025-09-22T02:58	10	0	0.1	0	0	380	0.2	379	380	13.6	94.2
2025-09-22T02:59	10	0	0.1	0	0	380	0.2	379	381	13.6	94.5
2025-09-22T03:00	10	0	0.1	0	0	380	0.2	380	381	13.6	94.6
2025-09-22T03:01	10	0	0.1	0	0	380	0.2	380	381	13.6	94.4
2025-09-22T03:02	10	0	0.1	0	0	380	0.2	380	380	13.6	93.9
2025-09-22T03:03	10	0	0.1	0	0	380	0.1	380	380	13.6	93.8
2025-09-22T03:04	10	0	0.1	0	0	380	0.3	380	381	13.6	94.2
2025-09-22T03:05	10	0	0.1	0	0	380	0.2	380	380	13.6	93.4
2025-09-22T03:06	10	0	0.1	0	0	380	0.2	379	380	13.6	92.9
2025-09-22T03:07	10	0	0.1	0	0	380	0.2	379	380	13.6	92.0
2025-09-22T03:08	10	0	0.0	0	0	380	0.2	379	380	13.6	91.7
2025-09-22T03:09	10	0	0.1	0	0	380	0.2	379	380	13.6	92.3
2025-09-22T03:10	10	0	0.1	0	0	380	0.2	379	380	13.6	92.6
2025-09-22T03:11	10	0	0.1	0	0	380	0.2	379	380	13.7	93.4
2025-09-22T03:12	10	0	0.1	0	0	380	0.2	379	380	13.7	93.4
2025-09-22T03:13	10	0	0.1	0	0	380	0.2	379	380	13.6	92.9
2025-09-22T03:14	10	0	0.1	0	0	379	0.3	379	380	13.6	92.7
2025-09-22T03:15	10	0	0.1	0	0	379	0.2	379	380	13.6	92.5
2025-09-22T03:16	10	0	0.1	0	0	379	0.2	379	380	13.7	92.9
2025-09-22T03:17	10	0	0.1	0	0	379	0.2	379	380	13.7	94.1
2025-09-22T03:18	10	0	0.1	0	0	379	0.3	378	380	13.6	95.7
2025-09-22T03:19	10	0	0.1	0	0	379	0.2	379	380	13.5	95.9
2025-09-22T03:20	10	0	0.1	0	0	379	0.3	378	380	13.5	95.9
2025-09-22T03:21	10	0	0.1	0	0	379	0.3	379	380	13.5	96.4
2025-09-22T03:22	10	0	0.1	0	0	379	0.2	379	380	13.5	96.7
2025-09-22T03:23	10	0	0.1	0	0	379	0.2	378	380	13.5	97.0
2025-09-22T03:24	10	0	0.1	0	0	379	0.2	379	379	13.5	97.0
2025-09-22T03:25	10	0	0.1	0	0	379	0.2	378	379	13.4	96.0
2025-09-22T03:26	10	0	0.1	0	0	379	0.2	378	379	13.4	96.2
2025-09-22T03:27	10	0	0.1	0	0	379	0.2	379	379	13.5	96.6
2025-09-22T03:28	10	0	0.1	0	0	379	0.3	378	380	13.4	96.7
2025-09-22T03:29	10	0	0.1	0	0	379	0.2	378	379	13.4	96.0
2025-09-22T03:30	10	0	0.1	0	0	379	0.2	378	379	13.4	95.5
2025-09-22T03:31	10	0	0.1	0	0	379	0.2	378	379	13.4	94.9
2025-09-22T03:32	10	0	0.1	0	0	379	0.2	378	379	13.4	93.8
2025-09-22T03:33	10	0	0.1	0	0	378	0.2	378	379	13.5	95.1
2025-09-22T03:34	10	0	0.1	0	0	379	0.2	378	379	13.5	96.1
2025-09-22T03:35	10	0	0.1	0	0	379	0.2	378	379	13.4	95.8
2025-09-22T03:36	10	0	0.1	0	0	379	0.2	378	379	13.4	94.1
2025-09-22T03:37	10	0	0.1	0	0	379	0.2	378	379	13.5	93.8
2025-09-22T03:38	10	0	0.1	0	0	379	0.2	378	379	13.5	93.3
2025-09-22T03:39	10	0	0.1	0	0	379	0.3	378	379	13.6	92.7
2025-09-22T03:40	10	0	0.1	0	0	379	0.2	378	379	13.5	92.9
2025-09-22T03:41	10	0	0.1	0	0	378	0.2	378	379	13.5	93.5
2025-09-22T03:42	10	0	0.1	0	0	379	0.2	378	379	13.5	93.2
2025-09-22T03:43	10	0	0.1	0	0	379	0.2	378	379	13.5	93.4
2025-09-22T03:44	10	0	0.1	0	0	378	0.3	378	379	13.5	94.9
2025-09-22T03:45	10	0	0.1	0	0	378	0.2	378	379	13.4	95.9
2025-09-22T03:46	10	0	0.1	0	0	378	0.3	378	379	13.4	96.1
2025-09-22T03:47	10	0	0.1	0	0	379	0.2	378	379	13.3	96.0
2025-09-22T03:48	10	0	0.1	0	0	378	0.2	378	379	13.3	95.3
2025-09-22T03:49	10	0	0.1	0	0	378	0.3	378	379	13.3	94.8
2025-09-22T03:50	10	0	0.1	0	0	378	0.2	378	379	13.4	95.1
2025-09-22T03:51	10	0	0.1	0	0	378	0.2	378	379	13.4	95.6
2025-09-22T03:52	10	0	0.1	0	0	378	0.2	378	379	13.4	95.9
2025-09-22T03:53	10	0	0.1	0	0	378	0.3	378	379	13.3	95.6
2025-09-22T03:54	10	0	0.1	0	0	378	0.2	378	379	13.4	95.1
2025-09-22T03:55	10	0	0.1	0	0	378	0.2	378	379	13.4	95.4
2025-09-22T03:56	10	0	0.1	0	0	378	0.3	378	379	13.4	95.3
2025-09-22T03:57	10	0	0.1	0	0	378	0.2	378	379	13.4	95.4
2025-09-22T03:58	10	0	0.1	0	0	378	0.2	378	379	13.4	95.6
2025-09-22T03:59	10	0	0.1	0	0	378	0.2	378	379	13.4	95.3
2025-09-22T04:00	10	0	0.1	0	0	378	0.2	378	379	13.4	95.3
2025-09-22T04:01	10	0	0.1	0	0	378	0.2	378	379	13.4	94.6
2025-09-22T04:02	10	0	0.1	0	0	378	0.2	378	379	13.4	94.3
2025-09-22T04:03	10	0	0.1	0	0	378	0.3	378	379	13.4	94.0
2025-09-22T04:04	10	0	0.1	0	0	378	0.2	378	379	13.4	93.8
2025-09-22T04:05	10	0	0.1	0	0	378	0.2	378	379	13.4	93.4
2025-09-22T04:06	10	0	0.1	0	0	378	0.2	377	378	13.5	92.8
2025-09-22T04:07	10	0	0.1	0	0	378	0.2	378	379	13.5	93.6
2025-09-22T04:08	10	0	0.1	0	0	378	0.2	378	379	13.5	94.4
2025-09-22T04:09	10	0	0.1	0	0	378	0.2	378	378	13.5	94.6
2025-09-22T04:10	10	0	0.1	0	0	378	0.2	378	379	13.4	94.7
2025-09-22T04:11	10	0	0.1	0	0	378	0.2	377	379	13.4	94.8
2025-09-22T04:12	10	0	0.1	0	0	378	0.2	378	379	13.4	95.1
2025-09-22T04:13	10	0	0.1	0	0	378	0.2	377	378	13.4	94.8
2025-09-22T04:14	10	0	0.1	0	0	378	0.2	377	378	13.4	95.3
2025-09-22T04:15	10	0	0.1	0	0	378	0.2	378	378	13.4	95.7
2025-09-22T04:16	10	0	0.1	0	0	378	0.2	378	378	13.4	95.7
2025-09-22T04:17	10	0	0.1	0	0	378	0.2	377	379	13.4	95.3
2025-09-22T04:18	10	0	0.1	0	0	378	0.2	378	379	13.4	95.6
2025-09-22T04:19	10	0	0.1	0	0	378	0.2	378	379	13.4	95.8
2025-09-22T04:20	10	0	0.1	0	0	378	0.2	378	379	13.4	95.9
2025-09-22T04:21	10	0	0.1	0	0	378	0.2	378	378	13.4	95.7
2025-09-22T04:22	10	0	0.1	0	0	378	0.3	377	378	13.4	95.4
2025-09-22T04:23	10	0	0.1	0	0	378	0.2	378	379	13.4	95.4
2025-09-22T04:24	10	0	0.1	0	0	378	0.2	378	379	13.4	94.8
2025-09-22T04:25	10	0	0.1	0	0	378	0.2	378	379	13.4	95.0
2025-09-22T04:26	10	0	0.1	0	0	378	0.2	378	379	13.4	95.4
2025-09-22T04:27	10	0	0.1	0	0	378	0.2	378	379	13.4	95.4
2025-09-22T04:28	10	0	0.1	0	0	378	0.2	378	379	13.3	94.9
2025-09-22T04:29	10	0	0.1	0	0	378	0.3	378	379	13.3	93.8
2025-09-22T04:30	10	0	0.1	0	0	378	0.2	378	379	13.4	93.3
2025-09-22T04:31	10	0	0.1	0	0	378	0.2	378	378	13.4	93.5
2025-09-22T04:32	10	0	0.1	0	0	378	0.2	378	379	13.4	93.4
2025-09-22T04:33	10	0	0.1	0	0	378	0.2	378	379	13.4	93.6
2025-09-22T04:34	10	0	0.1	0	0	378	0.2	378	379	13.4	93.4
2025-09-22T04:35	10	0	0.1	0	0	378	0.2	378	379	13.4	92.3
2025-09-22T04:36	10	0	0.1	0	0	378	0.2	378	379	13.4	90.5
2025-09-22T04:37	10	0	0.1	0	0	378	0.2	378	379	13.4	90.4
2025-09-22T04:38	10	0	0.1	0	0	378	0.2	378	378	13.4	92.5
2025-09-22T04:39	10	0	0.1	0	0	378	0.2	378	379	13.4	92.9
2025-09-22T04:40	10	0	0.1	0	0	378	0.2	378	379	13.4	92.8
2025-09-22T04:41	10	0	0.1	0	0	378	0.2	378	379	13.3	92.5
2025-09-22T04:42	10	0	0.1	0	0	378	0.2	378	379	13.3	91.7
2025-09-22T04:43	10	0	0.1	0	0	378	0.2	378	379	13.3	91.2
2025-09-22T04:44	10	0	0.1	0	0	378	0.2	378	379	13.3	91.2
2025-09-22T04:45	10	0	0.0	0	0	379	0.2	378	379	13.4	91.2
2025-09-22T04:46	10	0	0.1	0	0	379	0.2	378	379	13.4	91.4
2025-09-22T04:47	10	0	0.1	0	0	379	0.2	378	379	13.3	92.3
2025-09-22T04:48	10	0	0.1	0	0	379	0.2	378	379	13.3	92.6
2025-09-22T04:49	10	0	0.1	0	0	379	0.2	378	379	13.4	93.1
2025-09-22T04:50	10	0	0.1	0	0	379	0.2	378	379	13.4	93.9
2025-09-22T04:51	10	0	0.1	0	0	379	0.2	378	379	13.3	92.3
2025-09-22T04:52	10	0	0.1	0	0	379	0.2	378	379	13.3	91.9
2025-09-22T04:53	10	0	0.1	0	0	378	0.2	378	379	13.4	92.3
2025-09-22T04:54	10	0	0.1	0	0	379	0.2	378	379	13.3	92.1
2025-09-22T04:55	10	0	0.1	0	0	379	0.2	378	379	13.3	92.3
2025-09-22T04:56	10	0	0.1	0	0	378	0.2	378	379	13.3	92.9
2025-09-22T04:57	10	0	0.1	0	0	378	0.2	378	378	13.3	92.8
2025-09-22T04:58	10	0	0.1	0	0	378	0.2	377	378	13.3	92.9
2025-09-22T04:59	10	0	0.1	0	0	378	0.2	378	378	13.3	93.0
2025-09-22T05:00	10	0	0.1	0	0	378	0.2	377	378	13.3	93.3
2025-09-22T05:01	10	0	0.1	0	0	378	0.2	377	378	13.2	93.0
2025-09-22T05:02	10	0	0.1	0	0	378	0.2	377	378	13.2	92.9
2025-09-22T05:03	10	0	0.1	0	0	378	0.2	377	378	13.2	92.8
2025-09-22T05:04	10	0	0.1	0	0	378	0.2	377	378	13.2	93.7
2025-09-22T05:05	10	0	0.1	0	0	377	0.2	377	378	13.1	93.9
2025-09-22T05:06	10	0	0.1	0	0	377	0.2	377	378	13.1	94.0
2025-09-22T05:07	10	0	0.1	0	0	378	0.2	377	378	13.1	93.6
2025-09-22T05:08	10	0	0.1	0	0	377	0.2	377	378	13.1	92.5
2025-09-22T05:09	10	0	0.1	0	0	377	0.2	377	378	13.1	93.0
2025-09-22T05:10	10	0	0.1	0	0	377	0.2	377	378	13.1	93.4
2025-09-22T05:11	10	0	0.1	0	0	377	0.3	376	378	13.1	93.8
2025-09-22T05:12	10	0	0.1	0	0	377	0.2	377	378	13.1	93.8
2025-09-22T05:13	10	0	0.1	0	0	377	0.2	377	378	13.2	94.4
2025-09-22T05:14	10	0	0.1	0	0	377	0.2	377	378	13.1	94.7
2025-09-22T05:15	10	0	0.1	0	0	377	0.2	376	378	13.1	94.8
2025-09-22T05:16	10	0	0.1	0	0	377	0.3	377	378	13.1	94.9
2025-09-22T05:17	10	0	0.1	0	0	377	0.2	376	378	13.1	95.2
2025-09-22T05:18	10	0	0.1	0	0	377	0.2	377	378	13.1	95.7
2025-09-22T05:19	10	0	0.1	0	0	377	0.3	377	378	13.0	95.5
2025-09-22T05:20	10	0	0.1	0	0	377	0.3	377	378	13.1	95.6
2025-09-22T05:21	10	0	0.1	0	0	377	0.2	377	378	13.0	96.0
2025-09-22T05:22	10	0	0.1	0	0	377	0.2	377	378	13.0	95.9
2025-09-22T05:23	10	0	0.1	0	0	377	0.2	376	377	13.0	95.7
2025-09-22T05:24	10	0	0.1	0	0	377	0.2	377	378	13.0	95.9
2025-09-22T05:25	10	0	0.1	0	0	377	0.2	376	377	13.0	96.3
2025-09-22T05:26	10	0	0.1	0	0	377	0.2	377	377	13.1	96.7
2025-09-22T05:27	10	0	0.1	0	0	377	0.2	376	377	13.0	97.0
2025-09-22T05:28	10	0	0.1	0	0	377	0.2	376	377	13.0	97.3
2025-09-22T05:29	10	0	0.1	0	0	377	0.3	376	377	13.0	97.5
2025-09-22T05:30	10	0	0.1	0	0	377	0.3	377	378	13.0	97.3
2025-09-22T05:31	10	0	0.1	0	0	377	0.3	377	378	13.0	97.4
2025-09-22T05:32	10	0	0.1	0	1	377	0.2	377	378	13.0	97.1
2025-09-22T05:33	10	0	0.1	0	1	377	0.2	377	378	13.0	97.3
2025-09-22T05:34	10	0	0.1	0	1	378	0.2	377	378	13.0	97.3
2025-09-22T05:35	10	0	0.1	0	1	378	0.2	377	378	12.9	97.2
2025-09-22T05:36	10	0	0.1	0	1	377	0.2	377	378	12.9	97.0
2025-09-22T05:37	10	0	0.1	0	1	377	0.3	377	378	12.9	96.9
2025-09-22T05:38	10	1	0.1	0	1	377	0.2	377	378	12.9	96.9
2025-09-22T05:39	10	1	0.1	0	1	377	0.2	377	378	12.9	96.5
2025-09-22T05:40	10	1	0.1	0	1	377	0.2	377	378	12.9	96.9
2025-09-22T05:41	10	1	0.1	0	1	377	0.3	376	378	12.9	97.0
2025-09-22T05:42	10	1	0.1	0	1	377	0.2	377	378	13.0	97.3
2025-09-22T05:43	10	1	0.1	0	1	377	0.3	376	377	12.9	97.1
2025-09-22T05:44	10	1	0.1	1	1	376	0.3	376	377	12.8	96.7
2025-09-22T05:45	10	1	0.1	1	1	376	0.5	375	377	12.6	96.1
2025-09-22T05:46	10	1	0.1	1	1	375	0.3	374	376	12.5	94.2
2025-09-22T05:47	10	1	0.1	0	1	374	0.3	374	375	12.5	93.9
2025-09-22T05:48	10	0	0.1	0	1	374	0.2	374	375	12.5	94.0
2025-09-22T05:49	10	0	0.1	0	1	374	0.3	374	375	12.5	94.6
2025-09-22T05:50	10	0	0.1	0	1	374	0.2	373	374	12.5	95.0
2025-09-22T05:51	10	0	0.1	0	1	374	0.2	373	374	12.4	95.2
2025-09-22T05:52	10	1	0.1	0	1	374	0.2	373	374	12.4	95.4
2025-09-22T05:53	10	1	0.1	0	1	373	0.3	373	374	12.4	95.3
2025-09-22T05:54	10	1	0.1	1	1	373	0.2	373	374	12.3	95.7
2025-09-22T05:55	10	1	0.1	1	1	373	0.3	373	374	12.3	95.8
2025-09-22T05:56	10	1	0.1	1	1	373	0.2	373	374	12.3	95.8
2025-09-22T05:57	10	1	0.1	1	1	373	0.2	373	374	12.3	95.5
2025-09-22T05:58	10	1	0.1	1	2	373	0.3	373	374	12.3	95.8
2025-09-22T05:59	10	2	0.1	1	2	373	0.3	373	374	12.3	95.6
2025-09-22T06:00	10	2	0.1	2	2	373	0.2	373	374	12.3	96.0
2025-09-22T06:01	10	2	0.1	2	3	374	0.2	373	374	12.3	95.7
2025-09-22T06:02	10	3	0.1	2	3	374	0.2	373	374	12.3	95.3
2025-09-22T06:03	10	3	0.1	2	3	374	0.2	373	374	12.3	95.7
2025-09-22T06:04	10	3	0.1	3	3	374	0.3	373	374	12.2	95.8
2025-09-22T06:05	10	3	0.1	3	4	374	0.2	373	374	12.2	95.4
2025-09-22T06:06	10	4	0.1	3	4	374	0.3	373	374	12.2	94.9
2025-09-22T06:07	10	4	0.1	4	4	374	0.3	373	374	12.2	94.7
2025-09-22T06:08	10	4	0.1	4	5	374	0.2	373	374	12.2	95.0
2025-09-22T06:09	10	5	0.1	4	5	374	0.2	373	374	12.2	94.2
2025-09-22T06:10	10	5	0.1	5	5	374	0.2	373	374	12.3	94.0
2025-09-22T06:11	10	5	0.1	5	6	374	0.3	373	374	12.2	94.6
2025-09-22T06:12	10	6	0.1	6	6	374	0.2	373	374	12.2	94.7
2025-09-22T06:13	10	6	0.1	6	6	374	0.3	373	374	12.2	94.8
2025-09-22T06:14	10	6	0.1	6	6	373	0.2	373	374	12.2	94.6
2025-09-22T06:15	10	6	0.1	6	6	374	0.3	373	374	12.2	94.5
2025-09-22T06:16	10	6	0.1	6	6	374	0.2	373	374	12.2	94.6
2025-09-22T06:17	10	6	0.1	6	6	374	0.2	374	375	12.2	94.8
2025-09-22T06:18	10	6	0.1	5	6	374	0.2	374	374	12.2	94.8
2025-09-22T06:19	10	6	0.1	5	6	374	0.3	374	375	12.2	94.3
2025-09-22T06:20	10	5	0.1	5	6	374	0.2	374	375	12.2	94.3
2025-09-22T06:21	10	5	0.1	5	5	374	0.3	374	375	12.2	94.0
2025-09-22T06:22	10	5	0.1	5	5	374	0.2	374	375	12.3	94.2
2025-09-22T06:23	10	5	0.1	5	5	374	0.2	374	375	12.2	94.2
2025-09-22T06:24	10	5	0.1	5	5	374	0.3	374	375	12.2	94.5
2025-09-22T06:25	10	5	0.1	5	5	375	0.2	374	375	12.2	94.6
2025-09-22T06:26	10	5	0.1	5	5	374	0.2	374	375	12.2	94.1
2025-09-22T06:27	10	5	0.1	5	6	374	0.3	374	375	12.2	94.4
2025-09-22T06:28	10	6	0.1	5	6	375	0.2	374	375	12.2	94.8
2025-09-22T06:29	10	6	0.1	6	6	374	0.2	374	375	12.2	95.1
2025-09-22T06:30	10	6	0.1	6	6	375	0.2	374	375	12.2	95.1
2025-09-22T06:31	10	6	0.1	6	6	375	0.2	375	376	12.2	95.3
2025-09-22T06:32	10	6	0.1	6	6	375	0.2	374	375	12.2	95.4
2025-09-22T06:33	10	6	0.1	6	7	375	0.2	374	375	12.2	95.2
2025-09-22T06:34	10	6	0.1	6	7	375	0.3	374	375	12.2	95.5
2025-09-22T06:35	10	6	0.1	6	7	375	0.2	375	376	12.2	95.3
2025-09-22T06:36	10	6	0.1	6	6	375	0.2	375	376	12.2	95.2
2025-09-22T06:37	10	6	0.1	6	6	375	0.2	375	376	12.3	94.9
2025-09-22T06:38	10	5	0.2	5	6	375	0.2	375	376	12.3	95.2
2025-09-22T06:39	10	5	0.2	4	5	375	0.2	375	376	12.3	95.1
2025-09-22T06:40	10	4	0.1	4	5	375	0.3	375	376	12.2	95.0
2025-09-22T06:41	10	4	0.1	4	4	375	0.2	375	376	12.3	95.3
2025-09-22T06:42	10	4	0.1	4	4	375	0.2	375	376	12.3	95.4
2025-09-22T06:43	10	4	0.1	4	4	375	0.2	375	376	12.3	95.3
2025-09-22T06:44	10	4	0.1	4	4	375	0.3	374	376	12.2	95.1
2025-09-22T06:45	10	4	0.1	4	4	375	0.2	375	375	12.3	95.0
2025-09-22T06:46	10	4	0.1	4	4	375	0.3	375	376	12.3	95.2
2025-09-22T06:47	10	4	0.1	4	4	375	0.2	375	376	12.3	95.4
2025-09-22T06:48	10	4	0.1	4	4	375	0.3	375	376	12.3	95.5
2025-09-22T06:49	10	4	0.1	4	4	375	0.3	374	376	12.3	95.7
2025-09-22T06:50	10	4	0.1	4	4	375	0.2	375	376	12.3	95.7
2025-09-22T06:51	10	4	0.1	4	4	375	0.3	375	376	12.3	95.6
2025-09-22T06:52	10	4	0.1	4	4	375	0.2	375	376	12.3	95.9
2025-09-22T06:53	10	4	0.1	4	4	375	0.2	375	376	12.3	95.7
2025-09-22T06:54	10	4	0.1	4	4	375	0.3	375	376	12.3	95.2
2025-09-22T06:55	10	4	0.1	4	4	375	0.2	374	375	12.3	95.4
2025-09-22T06:56	10	4	0.1	4	4	375	0.3	375	376	12.3	95.7
2025-09-22T06:57	10	4	0.1	4	4	375	0.2	375	376	12.3	95.7
2025-09-22T06:58	10	4	0.1	4	4	375	0.2	375	376	12.3	95.4
2025-09-22T06:59	10	4	0.1	4	4	375	0.2	375	376	12.3	95.4
2025-09-22T07:00	10	4	0.1	4	4	375	0.2	375	376	12.3	95.6
2025-09-22T07:01	10	4	0.1	4	4	375	0.2	375	376	12.3	95.9
2025-09-22T07:02	10	4	0.1	4	4	375	0.2	375	376	12.3	96.1
2025-09-22T07:03	10	4	0.1	4	5	376	0.3	375	376	12.3	96.4
2025-09-22T07:04	10	5	0.1	5	5	376	0.2	375	376	12.3	96.7
2025-09-22T07:05	10	5	0.1	5	5	376	0.2	375	376	12.3	96.7
2025-09-22T07:06	10	5	0.1	5	6	376	0.2	375	376	12.3	96.8
2025-09-22T07:07	10	6	0.1	5	6	376	0.2	375	376	12.3	97.0
2025-09-22T07:08	10	6	0.1	6	6	376	0.2	375	376	12.3	97.1
2025-09-22T07:09	10	7	0.2	6	7	376	0.2	375	376	12.3	97.2
2025-09-22T07:10	10	7	0.2	7	8	376	0.2	375	377	12.3	97.4
2025-09-22T07:11	10	8	0.2	7	8	376	0.3	375	376	12.3	97.6
2025-09-22T07:12	10	8	0.2	8	9	376	0.2	375	376	12.3	97.2
2025-09-22T07:13	10	9	0.2	9	9	375	0.2	375	376	12.3	96.9
2025-09-22T07:14	10	9	0.2	9	10	376	0.2	375	376	12.3	97.0
2025-09-22T07:15	10	10	0.2	10	10	376	0.2	375	376	12.3	97.0
2025-09-22T07:16	10	10	0.1	10	11	376	0.2	375	376	12.3	96.9
2025-09-22T07:17	10	11	0.2	11	11	376	0.2	375	376	12.3	96.8
2025-09-22T07:18	10	12	0.2	11	12	375	0.2	375	376	12.3	96.6
2025-09-22T07:19	10	12	0.1	12	12	376	0.2	375	376	12.3	97.0
2025-09-22T07:20	10	12	0.1	12	13	376	0.3	375	377	12.4	97.3
2025-09-22T07:21	10	13	0.1	13	13	377	0.4	376	378	12.4	97.5
2025-09-22T07:22	10	13	0.1	13	13	377	0.2	376	378	12.3	97.7
2025-09-22T07:23	10	13	0.1	13	14	377	0.2	377	378	12.3	97.7
2025-09-22T07:24	10	13	0.1	13	13	377	0.2	377	378	12.3	97.7
2025-09-22T07:25	10	13	0.1	13	13	377	0.2	377	378	12.3	97.8
2025-09-22T07:26	10	13	0.1	13	13	377	0.2	377	378	12.3	97.7
2025-09-22T07:27	10	13	0.1	13	13	377	0.2	377	378	12.4	97.8
2025-09-22T07:28	10	13	0.1	13	13	377	0.2	377	378	12.3	97.7
2025-09-22T07:29	10	13	0.1	13	13	377	0.3	377	378	12.3	97.8
2025-09-22T07:30	10	14	0.1	13	14	377	0.2	377	378	12.3	97.7
2025-09-22T07:31	10	14	0.1	14	14	378	0.3	377	378	12.3	97.9
2025-09-22T07:32	10	15	0.2	14	15	378	0.2	377	378	12.3	97.8
2025-09-22T07:33	10	15	0.3	15	16	378	0.2	378	379	12.3	97.9
2025-09-22T07:34	10	16	0.3	16	17	378	0.2	378	379	12.3	97.9
2025-09-22T07:35	10	18	0.3	17	18	379	0.2	378	379	12.3	97.8
2025-09-22T07:36	10	19	0.3	18	19	379	0.3	378	380	12.4	97.9
2025-09-22T07:37	10	19	0.2	19	20	380	0.3	379	380	12.4	98.1
2025-09-22T07:38	10	20	0.1	20	20	380	0.3	380	381	12.4	98.0
2025-09-22T07:39	10	20	0.1	20	20	381	0.2	381	381	12.5	98.3
2025-09-22T07:40	10	19	0.2	19	20	381	0.3	381	382	12.6	98.3
2025-09-22T07:41	10	18	0.3	18	19	382	0.3	381	382	12.6	98.0
2025-09-22T07:42	10	17	0.4	17	18	381	0.3	380	382	12.4	97.3
2025-09-22T07:43	10	16	0.3	15	17	381	0.3	380	381	12.4	96.9
2025-09-22T07:44	10	15	0.1	15	15	381	0.2	381	382	12.6	97.3
2025-09-22T07:45	10	15	0.1	15	15	381	0.2	381	382	12.6	97.4
2025-09-22T07:46	10	15	0.1	15	15	381	0.2	381	382	12.5	97.3
2025-09-22T07:47	10	15	0.2	15	16	381	0.2	381	382	12.5	97.2
2025-09-22T07:48	10	16	0.2	16	16	381	0.3	381	382	12.5	97.0
2025-09-22T07:49	10	16	0.1	16	17	381	0.3	381	382	12.5	96.7
2025-09-22T07:50	10	17	0.1	17	17	381	0.2	381	382	12.6	96.8
2025-09-22T07:51	10	16	0.1	16	17	381	0.2	381	382	12.6	95.2
2025-09-22T07:52	10	16	0.2	16	16	381	0.2	381	381	12.6	96.8
2025-09-22T07:53	10	15	0.2	15	16	381	0.2	380	381	12.6	96.8
2025-09-22T07:54	10	15	0.2	14	15	381	0.3	380	381	12.6	96.8
2025-09-22T07:55	10	14	0.2	14	14	380	0.3	380	381	12.6	96.8
2025-09-22T07:56	10	14	0.1	13	14	380	0.3	380	381	12.6	96.8
2025-09-22T07:57	10	14	0.1	13	14	380	0.2	379	380	12.6	96.8
2025-09-22T07:58	10	14	0.1	14	14	380	0.3	379	381	12.5	96.1
2025-09-22T07:59	10	14	0.2	14	15	381	0.2	380	381	12.6	96.9
2025-09-22T08:00	10	15	0.1	15	15	381	0.2	380	381	12.5	96.7
2025-09-22T08:01	10	15	0.1	15	15	381	0.2	380	381	12.5	96.7
2025-09-22T08:02	10	15	0.1	15	15	381	0.3	380	381	12.6	97.1
2025-09-22T08:03	10	15	0.0	15	15	381	0.2	380	381	12.5	97.1
2025-09-22T08:04	10	15	0.1	15	15	381	0.2	380	381	12.6	97.4
2025-09-22T08:05	10	15	0.1	15	15	381	0.3	380	381	12.5	97.2
2025-09-22T08:06	10	15	0.1	15	15	380	0.4	379	380	12.4	96.8
2025-09-22T08:07	10	16	0.3	15	16	379	0.3	379	380	12.4	96.6
2025-09-22T08:08	10	17	0.4	16	17	380	0.3	379	380	12.5	96.9
2025-09-22T08:09	10	18	0.4	17	19	380	0.3	379	380	12.5	97.1
2025-09-22T08:10	10	20	0.4	19	20	380	0.2	379	380	12.4	97.0
2025-09-22T08:11	10	21	0.2	20	21	380	0.4	379	381	12.5	97.4
2025-09-22T08:12	10	21	0.1	21	21	380	0.2	380	381	12.5	97.8
2025-09-22T08:13	10	20	0.2	20	21	381	0.2	380	381	12.5	97.8
2025-09-22T08:14	10	19	0.2	19	20	380	0.3	379	381	12.4	97.9
2025-09-22T08:15	10	19	0.2	18	19	380	0.2	379	380	12.4	97.8
2025-09-22T08:16	10	18	0.2	17	18	380	0.3	379	381	12.5	97.9
2025-09-22T08:17	10	17	0.1	17	17	381	0.3	380	381	12.6	98.3
2025-09-22T08:18	10	18	0.1	17	18	380	0.3	380	381	12.4	98.0
2025-09-22T08:19	10	18	0.1	18	18	381	0.2	380	381	12.6	98.2
2025-09-22T08:20	10	18	0.1	18	18	381	0.2	380	381	12.5	98.2
2025-09-22T08:21	10	18	0.1	17	18	380	0.2	380	381	12.5	98.3
2025-09-22T08:22	10	18	0.1	18	18	380	0.3	380	381	12.4	98.0
2025-09-22T08:23	10	18	0.1	18	18	380	0.2	380	380	12.4	97.9
2025-09-22T08:24	10	18	0.3	17	18	380	0.2	380	381	12.5	98.1
2025-09-22T08:25	10	17	0.1	17	17	380	0.2	380	380	12.5	98.1
2025-09-22T08:26	10	17	0.2	16	17	380	0.2	379	380	12.5	97.9
2025-09-22T08:27	10	16	0.1	16	17	380	0.3	379	380	12.5	98.2
2025-09-22T08:28	10	16	0.1	16	16	380	0.3	380	381	12.6	98.2
2025-09-22T08:29	10	16	0.3	15	16	380	0.3	380	381	12.6	98.4
2025-09-22T08:30	10	14	0.4	14	15	381	0.3	380	381	12.7	98.6
2025-09-22T08:31	10	14	0.2	13	14	381	0.3	380	382	12.7	99.0
2025-09-22T08:32	10	13	0.4	12	13	380	0.4	379	381	12.5	98.1
2025-09-22T08:33	10	12	0.3	11	12	379	0.3	378	380	12.5	97.8
2025-09-22T08:34	10	11	0.3	11	11	379	0.2	379	379	12.5	97.7
2025-09-22T08:35	10	11	0.1	11	11	379	0.2	378	379	12.5	97.6
2025-09-22T08:36	10	10	0.2	10	11	379	0.2	378	379	12.6	97.9
2025-09-22T08:37	10	10	0.1	10	10	379	0.3	378	380	12.6	98.1
2025-09-22T08:38	10	11	0.2	10	11	379	0.2	379	380	12.6	98.2
2025-09-22T08:39	10	11	0.2	11	12	379	0.2	379	380	12.6	97.8
2025-09-22T08:40	10	12	0.2	12	12	379	0.3	379	380	12.5	97.3
2025-09-22T08:41	10	12	0.1	12	12	379	0.2	379	380	12.6	97.4
2025-09-22T08:42	10	12	0.1	12	12	379	0.4	378	379	12.6	96.7
2025-09-22T08:43	10	12	0.1	12	12	379	0.3	378	379	12.6	96.7
2025-09-22T08:44	10	12	0.1	12	12	379	0.2	378	379	12.6	96.4
2025-09-22T08:45	10	12	0.0	12	12	379	0.3	378	379	12.6	96.3
2025-09-22T08:46	10	12	0.1	12	12	379	0.2	379	380	12.7	96.6
2025-09-22T08:47	10	11	0.2	11	12	379	0.3	379	380	12.7	96.9
2025-09-22T08:48	10	11	0.1	11	11	379	0.3	379	380	12.6	96.9
2025-09-22T08:49	10	11	0.1	11	11	379	0.4	378	379	12.6	96.2
2025-09-22T08:50	10	11	0.1	11	11	379	0.3	378	379	12.6	96.3
2025-09-22T08:51	10	11	0.1	11	12	379	0.3	378	379	12.6	96.5
2025-09-22T08:52	10	12	0.1	11	12	379	0.3	378	380	12.7	96.8
2025-09-22T08:53	10	12	0.1	11	12	379	0.2	379	379	12.7	96.8
2025-09-22T08:54	10	12	0.1	12	12	379	0.2	378	379	12.7	96.4
2025-09-22T08:55	10	12	0.1	12	13	379	0.2	379	380	12.7	96.3
2025-09-22T08:56	10	13	0.1	12	13	379	0.2	378	380	12.7	95.7
2025-09-22T08:57	10	13	0.1	13	13	379	0.2	379	380	12.7	95.7
2025-09-22T08:58	10	13	0.1	13	14	380	0.4	379	381	12.8	95.7
2025-09-22T08:59	10	14	0.2	13	14	380	0.2	379	380	12.8	95.8
2025-09-22T09:00	10	14	0.2	14	15	380	0.2	380	381	12.8	95.9
2025-09-22T09:01	10	15	0.3	15	16	380	0.3	379	381	12.7	94.6
2025-09-22T09:02	10	16	0.4	16	17	379	0.3	378	380	12.7	93.6
2025-09-22T09:03	10	18	0.4	17	19	380	0.3	379	380	12.8	93.9
2025-09-22T09:04	10	19	0.4	19	20	380	0.3	379	380	12.7	94.2
2025-09-22T09:05	10	21	0.5	20	21	379	0.3	379	380	12.7	93.3
2025-09-22T09:06	10	22	0.6	21	23	379	0.3	379	380	12.7	93.4
2025-09-22T09:07	10	24	0.6	23	25	380	0.4	379	381	12.8	94.1
2025-09-22T09:08	10	26	0.4	25	26	380	0.5	379	381	12.6	93.3
2025-09-22T09:09	10	27	0.3	26	28	379	0.2	379	380	12.6	93.1
2025-09-22T09:10	10	28	0.2	27	28	380	0.3	379	381	12.6	94.3
2025-09-22T09:11	10	27	0.5	26	27	379	0.4	378	380	12.5	92.9
2025-09-22T09:12	10	25	0.7	23	26	380	0.3	379	380	12.6	93.9
2025-09-22T09:13	10	22	0.5	21	23	380	0.2	379	380	12.5	94.0
2025-09-22T09:14	10	21	0.3	21	22	380	0.3	379	380	12.5	94.2
2025-09-22T09:15	10	21	0.1	20	21	380	0.3	380	381	12.6	95.1
2025-09-22T09:16	10	21	0.3	20	21	380	0.2	379	381	12.6	95.1
2025-09-22T09:17	10	22	0.5	22	23	380	0.2	379	380	12.5	94.5
2025-09-22T09:18	10	25	0.9	23	27	379	0.2	379	380	12.5	94.3
2025-09-22T09:19	10	28	1.1	27	30	380	0.3	379	381	12.6	94.4
2025-09-22T09:20	10	32	1.2	30	34	381	0.2	380	381	12.6	94.2
2025-09-22T09:21	10	37	1.3	35	39	381	0.5	380	382	12.6	94.2
2025-09-22T09:22	10	41	1.3	39	43	381	0.3	381	382	12.6	93.8
2025-09-22T09:23	10	46	1.3	43	48	381	0.2	381	382	12.6	93.6
2025-09-22T09:24	10	51	1.5	48	53	383	0.4	382	384	12.6	93.8
2025-09-22T09:25	10	56	1.9	53	60	383	0.3	382	384	12.6	93.4
2025-09-22T09:26	10	64	2.8	60	69	384	0.6	383	385	12.6	93.2
2025-09-22T09:27	10	74	3.1	69	80	385	0.5	384	386	12.7	93.8
2025-09-22T09:28	10	91	6.4	80	103	388	1.4	385	391	12.8	94.4
2025-09-22T09:29	10	130	19.3	103	159	393	2.4	389	396	12.9	95.0
2025-09-22T09:30	10	137	7.6	122	153	396	0.4	395	396	12.8	94.3
2025-09-22T09:31	10	112	5.0	104	121	394	0.7	393	396	12.8	94.0
2025-09-22T09:32	10	102	7.1	91	111	394	1.0	392	396	13.0	94.5
2025-09-22T09:33	10	84	2.7	82	90	393	0.2	393	394	13.2	95.5
2025-09-22T09:34	10	79	2.2	75	84	394	0.4	393	394	13.4	95.9
2025-09-22T09:35	10	104	18.2	79	127	394	1.0	393	396	13.2	95.9
2025-09-22T09:36	10	120	4.2	114	127	393	1.0	392	395	12.9	94.4
2025-09-22T09:37	10	102	11.9	87	121	393	1.0	391	394	13.0	94.1
2025-09-22T09:38	10	94	5.3	80	103	392	0.5	391	393	13.1	94.2
2025-09-22T09:39	10	74	1.5	72	79	391	0.6	390	392	13.0	94.2
2025-09-22T09:40	10	74	3.5	70	80	390	0.4	389	391	13.0	94.4
2025-09-22T09:41	10	85	7.5	78	98	393	1.4	391	395	13.2	95.1
2025-09-22T09:42	10	95	2.9	90	98	397	0.7	395	398	13.4	95.8
2025-09-22T09:43	10	91	1.5	89	95	395	1.3	393	397	13.1	94.3
2025-09-22T09:44	10	98	8.1	88	108	393	0.6	392	394	13.0	92.7
2025-09-22T09:45	10	83	10.4	73	105	394	0.7	393	395	13.1	93.3
2025-09-22T09:46	10	66	3.6	61	73	393	1.1	391	394	13.1	93.9
2025-09-22T09:47	10	55	3.4	50	61	390	0.7	389	392	13.0	93.6
2025-09-22T09:48	10	50	0.4	49	51	390	0.4	389	391	13.1	94.4
2025-09-22T09:49	10	49	0.5	48	50	390	0.4	390	391	13.2	94.9
2025-09-22T09:50	10	56	3.0	51	60	391	0.6	390	392	13.1	94.4
2025-09-22T09:51	10	57	1.0	56	59	389	0.6	388	390	13.1	93.7
2025-09-22T09:52	10	63	1.7	59	65	389	0.7	388	390	13.1	93.8
2025-09-22T09:53	10	60	2.0	56	64	390	0.3	389	390	13.2	93.9
2025-09-22T09:54	10	56	0.4	55	56	390	0.4	389	391	13.2	94.2
2025-09-22T09:55	10	56	0.3	55	57	390	0.3	390	391	13.3	94.5
2025-09-22T09:56	10	56	0.7	55	57	390	0.3	389	390	13.2	93.7
2025-09-22T09:57	10	56	0.7	55	57	389	0.2	389	390	13.2	93.5
2025-09-22T09:58	10	61	1.7	57	64	390	0.5	389	391	13.3	93.8
2025-09-22T09:59	10	69	4.2	64	79	391	0.4	390	392	13.3	94.0
2025-09-22T10:00	10	73	4.7	67	80	392	0.6	391	393	13.4	94.4
2025-09-22T10:01	10	66	1.0	65	68	393	0.4	392	394	13.4	94.3
2025-09-22T10:02	10	68	0.3	68	69	392	0.2	392	393	13.5	93.7
2025-09-22T10:03	10	71	0.9	68	72	393	0.3	392	394	13.5	93.7
2025-09-22T10:04	10	65	2.9	59	70	393	0.2	392	393	13.6	94.0
2025-09-22T10:05	10	57	0.8	56	59	394	0.3	393	394	13.7	94.6
2025-09-22T10:06	10	56	0.5	55	57	395	0.4	394	395	13.7	94.8
2025-09-22T10:07	10	55	0.7	54	56	395	0.6	394	396	13.7	94.3
2025-09-22T10:08	10	53	0.5	52	54	394	0.7	392	395	13.6	93.8
2025-09-22T10:09	10	50	0.8	49	52	392	0.8	391	393	13.5	92.8
2025-09-22T10:10	10	48	0.8	46	49	391	0.5	390	392	13.5	93.1
2025-09-22T10:11	10	42	2.3	38	46	389	0.7	388	390	13.4	92.5
2025-09-22T10:12	10	34	1.9	32	38	388	0.5	386	388	13.4	92.4
2025-09-22T10:13	10	30	0.9	28	32	387	0.3	386	387	13.5	92.8
2025-09-22T10:14	10	26	1.2	24	28	386	0.4	385	387	13.5	92.3
2025-09-22T10:15	10	24	0.5	23	25	385	0.4	384	386	13.4	91.7
2025-09-22T10:16	10	22	0.2	22	23	384	0.2	384	385	13.4	91.8
2025-09-22T10:17	10	23	0.4	22	24	385	0.2	384	385	13.4	92.1
2025-09-22T10:18	10	24	0.2	24	24	384	0.3	384	385	13.4	91.5
2025-09-22T10:19	10	24	0.1	24	24	384	0.3	383	384	13.4	91.1
2025-09-22T10:20	10	23	0.3	23	24	384	0.2	384	385	13.5	91.6
2025-09-22T10:21	10	22	0.4	21	23	384	0.2	384	385	13.5	91.8
2025-09-22T10:22	10	22	0.1	21	22	385	0.2	384	385	13.5	91.7
2025-09-22T10:23	10	21	0.1	21	22	385	0.3	384	385	13.5	92.2
2025-09-22T10:24	10	21	0.2	21	22	384	0.3	384	385	13.4	90.6
2025-09-22T10:25	10	20	0.4	19	21	384	0.2	384	385	13.5	91.5
2025-09-22T10:26	10	19	0.4	18	20	384	0.4	383	384	13.4	90.7
2025-09-22T10:27	10	18	0.2	17	18	383	0.3	382	384	13.4	90.6
2025-09-22T10:28	10	17	0.3	16	17	383	0.2	383	384	13.5	90.3
2025-09-22T10:29	10	17	0.2	17	18	383	0.2	383	384	13.5	90.7
2025-09-22T10:30	10	17	0.1	17	18	383	0.3	382	384	13.5	90.3
2025-09-22T10:31	10	18	0.1	17	18	383	0.2	383	384	13.5	90.7
2025-09-22T10:32	10	18	0.1	18	18	384	0.4	383	385	13.5	91.3
2025-09-22T10:33	10	17	0.1	17	18	384	0.3	384	385	13.6	92.0
2025-09-22T10:34	10	17	0.1	17	17	385	0.4	384	386	13.6	91.6
2025-09-22T10:35	10	17	0.3	16	17	384	0.3	384	385	13.6	91.5
2025-09-22T10:36	10	16	0.2	15	16	384	0.2	384	385	13.6	92.0
2025-09-22T10:37	10	15	0.1	15	16	384	0.4	383	385	13.6	91.3
2025-09-22T10:38	10	15	0.1	15	15	383	0.2	383	384	13.6	90.9
2025-09-22T10:39	10	15	0.2	14	15	384	0.2	383	384	13.6	91.3
2025-09-22T10:40	10	14	0.2	13	14	384	0.2	384	385	13.6	91.9
2025-09-22T10:41	10	13	0.2	13	13	384	0.3	383	384	13.6	91.1
2025-09-22T10:42	10	12	0.3	12	13	383	0.2	383	384	13.6	90.6
2025-09-22T10:43	10	11	0.3	11	12	383	0.2	383	384	13.6	90.7
2025-09-22T10:44	10	10	0.3	10	11	383	0.3	382	384	13.6	91.0
2025-09-22T10:45	10	9	0.3	9	10	383	0.2	383	384	13.7	91.1
2025-09-22T10:46	10	8	0.3	8	9	383	0.2	383	384	13.7	91.1
2025-09-22T10:47	10	7	0.3	7	8	383	0.3	382	384	13.7	90.4
2025-09-22T10:48	10	7	0.1	7	7	383	0.2	383	384	13.7	90.4
2025-09-22T10:49	10	7	0.3	7	8	383	0.3	383	384	13.7	90.8
2025-09-22T10:50	10	8	0.5	8	10	384	0.2	384	385	13.8	91.6
2025-09-22T10:51	10	11	1.0	10	13	384	0.2	384	385	13.7	90.3
2025-09-22T10:52	10	15	1.2	13	17	384	0.3	383	384	13.7	89.3
2025-09-22T10:53	10	19	1.1	17	21	384	0.2	384	384	13.7	90.3
2025-09-22T10:54	10	22	0.6	21	23	383	0.3	382	384	13.6	90.7
2025-09-22T10:55	10	24	0.7	23	25	383	0.3	382	383	13.6	91.5
2025-09-22T10:56	10	27	1.2	25	29	382	0.2	381	382	13.5	90.9
2025-09-22T10:57	10	32	1.3	29	34	382	0.3	381	383	13.5	91.3
2025-09-22T10:58	10	38	2.5	34	42	383	0.6	381	384	13.4	91.7
2025-09-22T10:59	10	48	3.4	43	54	384	0.7	383	385	13.5	91.9
2025-09-22T11:00	10	57	1.5	54	59	386	0.7	385	388	13.5	91.8
2025-09-22T11:01	10	63	2.4	59	67	388	0.7	387	390	13.6	92.6
2025-09-22T11:02	10	71	2.2	67	74	390	0.6	389	391	13.6	92.6
2025-09-22T11:03	10	64	4.3	59	72	389	0.5	388	390	13.5	90.3
2025-09-22T11:04	10	59	1.1	58	62	388	0.3	388	389	13.6	91.3
2025-09-22T11:05	10	66	6.8	58	78	388	0.6	388	390	13.6	91.2
2025-09-22T11:06	10	70	4.3	64	78	390	0.4	389	391	13.6	92.2
2025-09-22T11:07	10	61	1.1	60	63	391	0.3	390	391	13.6	92.7
2025-09-22T11:08	10	73	8.0	63	86	392	0.8	391	394	13.7	93.5
2025-09-22T11:09	10	79	4.6	73	86	394	0.2	393	394	13.7	92.8
2025-09-22T11:10	10	76	4.2	67	83	394	0.5	393	395	13.8	93.3
2025-09-22T11:11	10	53	6.1	45	66	394	1.1	392	395	13.8	93.8
2025-09-22T11:12	10	41	1.6	39	45	391	1.0	389	393	13.7	92.2
2025-09-22T11:13	10	38	0.2	38	39	387	0.5	387	389	13.6	90.9
2025-09-22T11:14	10	39	0.1	38	39	387	0.3	386	388	13.7	92.0
2025-09-22T11:15	10	39	0.1	39	39	387	0.3	386	387	13.7	91.9
2025-09-22T11:16	10	38	0.6	37	39	387	0.2	386	387	13.6	91.9
2025-09-22T11:17	10	37	0.5	37	38	386	0.5	385	387	13.6	91.6
2025-09-22T11:18	10	42	2.3	38	46	387	0.6	386	388	13.6	92.3
2025-09-22T11:19	10	51	2.6	46	55	387	0.4	387	388	13.6	92.0
2025-09-22T11:20	10	58	1.2	55	60	388	0.5	387	389	13.6	91.9
2025-09-22T11:21	10	62	0.8	60	63	390	0.5	389	391	13.7	91.8
2025-09-22T11:22	10	68	4.9	62	75	389	0.3	389	390	13.6	91.1
2025-09-22T11:23	10	78	2.3	74	84	391	0.9	390	393	13.7	91.5
2025-09-22T11:24	10	89	12.6	75	111	393	1.1	391	394	13.7	91.4
2025-09-22T11:25	10	112	11.6	90	132	396	1.8	394	399	13.8	91.2
2025-09-22T11:26	10	82	6.2	66	89	395	1.1	393	397	13.8	89.3
2025-09-22T11:27	10	56	6.1	46	66	392	0.8	391	394	13.9	90.4
2025-09-22T11:28	10	47	1.2	45	48	391	0.7	390	392	13.9	90.9
2025-09-22T11:29	10	46	0.4	46	47	390	0.4	390	391	13.9	90.6
2025-09-22T11:30	10	46	1.1	43	47	391	0.3	391	392	14.0	90.6
2025-09-22T11:31	10	41	0.7	40	43	392	0.4	391	393	14.0	90.8
2025-09-22T11:32	10	41	0.2	40	41	391	0.2	391	392	14.0	90.4
2025-09-22T11:33	10	40	0.5	39	41	390	1.1	388	392	13.9	88.9
2025-09-22T11:34	10	38	1.2	36	39	389	0.3	388	390	13.9	89.2
2025-09-22T11:35	10	35	0.2	35	36	389	0.6	388	390	13.9	88.6
2025-09-22T11:36	10	35	0.4	34	35	388	0.2	388	389	13.9	88.7
2025-09-22T11:37	10	33	0.5	32	34	389	0.2	388	389	13.9	89.5
2025-09-22T11:38	10	31	0.3	31	32	388	0.2	388	389	13.9	89.5
2025-09-22T11:39	10	31	0.2	30	31	388	0.5	387	389	13.9	87.8
2025-09-22T11:40	10	30	0.2	30	30	387	0.2	387	388	13.9	87.5
2025-09-22T11:41	10	30	0.1	30	30	387	0.2	387	388	13.9	88.8
2025-09-22T11:42	10	29	0.4	28	30	388	0.3	387	389	14.0	89.3
2025-09-22T11:43	10	27	0.8	26	29	388	0.2	388	389	13.9	88.7
2025-09-22T11:44	10	25	0.5	24	26	388	0.3	387	389	13.9	88.9
2025-09-22T11:45	10	24	0.1	23	24	388	0.2	387	388	14.0	88.6
2025-09-22T11:46	10	24	0.2	23	24	387	0.4	386	388	13.9	87.4
2025-09-22T11:47	10	25	0.8	24	27	386	0.2	386	387	13.9	87.6
2025-09-22T11:48	10	28	0.6	27	29	386	0.2	386	387	13.9	87.3
2025-09-22T11:49	10	30	0.7	29	31	386	0.2	386	387	13.9	86.7
2025-09-22T11:50	10	32	0.3	31	32	387	0.4	387	388	14.0	87.8
2025-09-22T11:51	10	31	0.3	31	32	388	0.3	387	388	13.9	87.9
2025-09-22T11:52	10	30	0.2	30	31	388	0.3	387	389	14.0	88.3
2025-09-22T11:53	10	31	0.8	30	33	389	0.2	388	389	14.0	88.7
2025-09-22T11:54	10	34	0.7	33	35	388	0.2	388	389	13.9	87.7
2025-09-22T11:55	10	34	0.7	33	35	388	0.3	388	389	13.9	87.3
2025-09-22T11:56	10	31	0.9	29	32	387	0.4	386	388	13.9	87.2
2025-09-22T11:57	10	28	0.4	28	29	386	0.6	385	387	13.9	85.6
2025-09-22T11:58	10	28	0.2	27	28	385	0.3	385	386	13.9	85.9
2025-09-22T11:59	10	28	0.2	27	28	386	0.2	386	386	13.9	86.7
2025-09-22T12:00	10	29	0.5	28	30	386	0.2	386	387	13.9	86.1
2025-09-22T12:01	10	30	0.3	30	31	385	0.3	385	386	13.9	85.3
2025-09-22T12:02	10	31	0.3	31	32	386	0.3	385	386	13.9	85.6
2025-09-22T12:03	10	32	0.1	32	32	387	0.2	386	387	13.9	86.3
2025-09-22T12:04	10	32	0.2	31	32	387	0.2	386	387	13.9	86.6
2025-09-22T12:05	10	31	0.1	31	31	387	0.3	386	388	13.9	86.9
2025-09-22T12:06	10	30	0.3	30	31	388	0.2	387	388	14.0	87.7
2025-09-22T12:07	10	29	0.4	29	30	388	0.2	388	388	14.0	86.7
2025-09-22T12:08	10	28	0.5	27	29	389	0.3	388	389	14.0	86.9
2025-09-22T12:09	10	27	0.2	26	27	389	0.2	388	389	14.0	87.1
2025-09-22T12:10	10	27	0.1	26	27	389	0.2	388	389	14.0	86.9
2025-09-22T12:11	10	27	0.3	27	28	388	0.6	387	389	14.0	85.1
2025-09-22T12:12	10	28	0.1	28	28	388	0.2	387	388	14.0	85.5
2025-09-22T12:13	10	27	0.3	27	28	388	0.3	387	389	14.0	85.9
2025-09-22T12:14	10	26	0.4	25	27	387	0.5	386	389	14.0	85.0
2025-09-22T12:15	10	25	0.3	24	25	387	0.3	386	387	14.0	85.4
2025-09-22T12:16	10	25	0.1	24	25	387	0.2	386	387	14.0	85.5
2025-09-22T12:17	10	25	0.4	25	26	387	0.2	386	387	14.0	85.4
2025-09-22T12:18	10	28	0.9	26	29	386	0.3	385	386	13.9	84.6
2025-09-22T12:19	10	32	1.3	29	34	386	0.3	386	387	13.9	85.5
2025-09-22T12:20	10	35	0.8	34	37	387	0.3	386	388	13.9	85.8
2025-09-22T12:21	10	37	0.3	36	38	387	0.2	386	388	13.9	85.5
2025-09-22T12:22	10	38	0.3	38	39	388	0.4	387	388	13.9	86.1
2025-09-22T12:23	10	39	0.5	39	40	388	0.3	388	389	14.0	86.5
2025-09-22T12:24	10	41	0.5	40	42	388	0.2	388	389	13.9	86.3
2025-09-22T12:25	10	43	0.4	42	44	388	0.3	388	389	13.9	86.8
2025-09-22T12:26	10	44	0.5	43	45	389	0.4	388	390	13.9	86.8
2025-09-22T12:27	10	46	0.6	45	47	390	0.5	389	391	14.0	87.3
2025-09-22T12:28	10	47	0.2	46	47	390	0.2	390	391	14.0	87.2
2025-09-22T12:29	10	47	0.3	46	48	391	0.3	390	391	14.1	88.3
2025-09-22T12:30	10	50	1.3	48	52	390	0.2	390	391	14.1	87.0
2025-09-22T12:31	10	54	1.0	52	55	392	0.6	391	393	14.1	87.3
2025-09-22T12:32	10	56	0.2	55	56	393	0.3	392	393	14.1	87.5
2025-09-22T12:33	10	54	0.6	53	55	393	0.3	392	393	14.1	86.9
2025-09-22T12:34	10	52	1.1	50	53	392	0.3	392	393	14.1	87.8
2025-09-22T12:35	10	49	0.3	48	50	392	0.2	392	393	14.1	87.1
2025-09-22T12:36	10	50	1.0	49	52	392	0.3	392	393	14.1	87.2
2025-09-22T12:37	10	56	1.8	52	58	393	0.4	392	394	14.1	87.3
2025-09-22T12:38	10	55	2.2	51	58	394	0.2	393	394	14.1	86.7
2025-09-22T12:39	10	46	2.2	42	51	393	0.5	392	394	14.2	87.7
2025-09-22T12:40	10	38	2.6	34	42	392	0.5	391	394	14.2	87.9
2025-09-22T12:41	10	32	0.6	32	34	391	1.0	389	392	14.1	86.5
2025-09-22T12:42	10	34	1.0	32	35	389	0.3	389	390	14.0	85.6
2025-09-22T12:43	10	40	2.6	35	45	389	0.4	388	390	14.0	85.8
2025-09-22T12:44	10	48	1.2	45	49	389	0.3	389	391	14.0	85.0
2025-09-22T12:45	10	47	1.3	44	49	389	0.2	388	390	13.9	83.7
2025-09-22T12:46	10	41	2.0	38	44	389	0.3	389	390	14.0	84.0
2025-09-22T12:47	10	35	1.6	32	37	390	0.3	389	390	14.1	85.3
2025-09-22T12:48	10	30	1.0	29	32	389	0.4	389	390	14.1	85.4
2025-09-22T12:49	10	28	0.5	27	29	389	0.4	389	390	14.1	85.4
2025-09-22T12:50	10	27	0.3	26	27	388	0.4	388	389	14.0	84.3
2025-09-22T12:51	10	26	0.3	25	26	388	0.3	387	388	14.0	85.1
2025-09-22T12:52	10	25	0.2	25	25	388	0.3	388	389	14.0	84.7
2025-09-22T12:53	10	25	0.1	24	25	388	0.2	388	389	14.0	85.1
2025-09-22T12:54	10	24	0.1	24	25	388	0.3	387	388	14.0	84.9
2025-09-22T12:55	10	24	0.1	24	25	388	0.3	387	388	14.0	85.6
2025-09-22T12:56	10	24	0.2	24	25	388	0.3	387	388	14.1	86.1
2025-09-22T12:57	10	25	0.2	24	25	388	0.3	388	389	14.1	86.6
2025-09-22T12:58	10	24	0.4	23	25	389	0.3	388	389	14.1	86.3
2025-09-22T12:59	10	23	0.5	22	23	389	0.3	388	390	14.1	86.2
2025-09-22T13:00	10	21	0.6	20	22	388	0.5	387	389	14.0	84.8
2025-09-22T13:01	10	20	0.3	19	21	387	0.3	386	388	14.0	84.8
2025-09-22T13:02	10	19	0.2	19	20	387	0.3	386	388	14.0	84.5
2025-09-22T13:03	10	19	0.4	18	20	387	0.2	387	388	14.0	84.2
2025-09-22T13:04	10	18	0.3	17	18	387	0.4	386	388	14.1	85.4
2025-09-22T13:05	10	17	0.1	17	17	387	0.2	387	388	14.1	86.1
2025-09-22T13:06	10	17	0.2	17	18	387	0.6	385	388	14.1	84.4
2025-09-22T13:07	10	19	0.6	18	20	386	0.3	385	387	14.0	83.9
2025-09-22T13:08	10	21	0.7	20	22	386	0.3	386	387	14.0	84.1
2025-09-22T13:09	10	23	0.4	22	24	386	0.2	386	387	14.0	83.2
2025-09-22T13:10	10	23	0.4	22	24	387	0.4	386	388	14.0	83.8
2025-09-22T13:11	10	21	0.7	20	22	387	0.3	386	388	14.0	84.3
2025-09-22T13:12	10	19	0.6	18	20	387	0.3	387	388	14.0	84.8
2025-09-22T13:13	10	18	0.2	18	19	387	0.2	387	388	14.1	85.0
2025-09-22T13:14	10	20	0.7	19	21	387	0.3	387	388	14.1	85.3
2025-09-22T13:15	10	22	0.7	21	24	388	0.5	387	389	14.1	85.7
2025-09-22T13:16	10	25	0.7	23	26	390	0.5	389	391	14.2	85.7
2025-09-22T13:17	10	25	0.2	25	26	390	0.3	390	391	14.2	85.5
2025-09-22T13:18	10	25	0.2	25	25	390	0.2	390	391	14.2	84.9
2025-09-22T13:19	10	26	0.4	25	27	390	0.3	390	391	14.2	84.6
2025-09-22T13:20	10	25	1.0	23	27	389	0.3	389	390	14.2	84.4
2025-09-22T13:21	10	22	0.4	22	23	389	0.2	389	390	14.2	85.1
2025-09-22T13:22	10	22	0.1	22	22	389	0.2	389	390	14.2	84.9
2025-09-22T13:23	10	22	0.4	21	22	389	0.2	388	389	14.2	84.2
2025-09-22T13:24	10	21	0.3	20	21	389	0.3	388	389	14.2	84.4
2025-09-22T13:25	10	21	0.4	20	22	388	0.3	388	389	14.2	84.4
2025-09-22T13:26	10	23	0.9	21	25	389	0.2	388	389	14.2	85.0
2025-09-22T13:27	10	26	0.6	24	27	389	0.3	388	390	14.2	85.4
2025-09-22T13:28	10	25	0.9	24	26	389	0.2	388	389	14.1	84.9
2025-09-22T13:29	10	22	0.7	21	23	388	0.3	387	389	14.2	85.1
2025-09-22T13:30	10	21	0.4	21	22	387	0.3	387	388	14.1	84.3
2025-09-22T13:31	10	23	0.6	22	24	387	0.4	387	388	14.1	85.5
2025-09-22T13:32	10	25	0.2	24	25	387	0.2	387	388	14.1	84.4
2025-09-22T13:33	10	25	0.1	25	25	388	0.3	387	388	14.1	84.7
2025-09-22T13:34	10	25	0.2	25	25	388	0.4	387	389	14.1	85.8
2025-09-22T13:35	10	26	0.1	25	26	389	0.2	388	389	14.1	86.3
2025-09-22T13:36	10	24	0.7	23	25	389	0.2	388	389	14.1	85.8
2025-09-22T13:37	10	22	0.5	21	23	388	0.2	388	389	14.1	85.3
2025-09-22T13:38	10	21	0.1	21	22	388	0.3	387	389	14.1	85.6
2025-09-22T13:39	10	22	0.6	21	23	388	0.2	388	389	14.1	86.3
2025-09-22T13:40	10	25	1.0	23	27	388	0.2	388	389	14.1	85.9
2025-09-22T13:41	10	27	0.1	26	27	388	0.3	387	388	14.1	85.4
2025-09-22T13:42	10	26	0.2	26	27	388	0.2	388	389	14.0	84.8
2025-09-22T13:43	10	26	0.2	26	27	388	0.4	387	389	14.1	85.4
2025-09-22T13:44	10	28	0.4	27	28	389	0.2	388	389	14.1	85.3
2025-09-22T13:45	10	28	0.5	27	28	389	0.2	389	389	14.1	85.9
2025-09-22T13:46	10	25	0.8	24	27	389	0.2	389	390	14.1	86.6
2025-09-22T13:47	10	23	0.4	23	24	389	0.2	388	389	14.1	86.7
2025-09-22T13:48	10	22	0.3	22	23	389	0.3	388	389	14.1	85.5
2025-09-22T13:49	10	21	0.4	21	22	388	0.3	387	389	14.1	85.3
2025-09-22T13:50	10	20	0.5	19	21	388	0.2	387	388	14.1	85.6
2025-09-22T13:51	10	19	0.3	18	19	388	0.2	387	388	14.1	85.8
2025-09-22T13:52	10	18	0.2	17	18	388	0.3	387	388	14.1	86.1
2025-09-22T13:53	10	17	0.4	16	18	387	0.3	386	388	14.0	85.2
2025-09-22T13:54	10	16	0.4	15	16	387	0.2	387	387	14.1	86.2
2025-09-22T13:55	10	15	0.3	14	15	386	0.3	386	387	14.1	85.5
2025-09-22T13:56	10	14	0.2	14	14	386	0.2	386	387	14.0	84.7
2025-09-22T13:57	10	13	0.3	13	14	386	0.2	386	387	14.1	85.6
2025-09-22T13:58	10	13	0.2	12	13	386	0.3	385	386	14.0	85.0
2025-09-22T13:59	10	12	0.1	12	12	386	0.2	385	386	14.1	86.4
2025-09-22T14:00	10	12	0.2	11	12	386	0.2	385	386	14.1	87.0
2025-09-22T14:01	10	11	0.4	10	11	385	0.3	385	386	14.0	84.8
2025-09-22T14:02	10	9	0.3	9	10	385	0.3	384	385	14.1	85.5
2025-09-22T14:03	10	9	0.2	8	9	385	0.2	384	385	14.0	85.3
2025-09-22T14:04	10	9	0.1	8	9	385	0.2	384	385	14.0	85.1
2025-09-22T14:05	10	8	0.1	8	9	384	0.2	384	385	14.0	85.2
2025-09-22T14:06	10	8	0.2	8	8	384	0.2	384	385	14.0	85.9
2025-09-22T14:07	10	8	0.1	7	8	384	0.2	384	385	14.0	86.3
2025-09-22T14:08	10	7	0.1	7	8	384	0.3	383	385	14.0	85.7
2025-09-22T14:09	10	7	0.1	7	7	384	0.2	384	385	14.0	86.2
2025-09-22T14:10	10	7	0.1	7	7	384	0.3	383	385	14.0	86.9
2025-09-22T14:11	10	7	0.1	7	7	385	0.3	384	385	14.0	87.1
2025-09-22T14:12	10	7	0.1	6	7	385	0.2	384	385	14.0	87.1
2025-09-22T14:13	10	7	0.1	6	7	385	0.2	384	385	14.0	86.7
2025-09-22T14:14	10	7	0.1	6	7	384	0.3	384	385	14.0	86.2
2025-09-22T14:15	10	7	0.2	7	7	385	0.2	384	385	14.0	86.6
2025-09-22T14:16	10	8	0.2	7	8	384	0.2	384	385	14.0	86.2
2025-09-22T14:17	10	8	0.3	8	9	384	0.2	384	385	14.1	87.4
2025-09-22T14:18	10	9	0.2	9	10	385	0.2	384	385	14.0	87.7
2025-09-22T14:19	10	10	0.1	10	10	385	0.2	384	385	14.0	87.7
2025-09-22T14:20	10	10	0.1	10	10	385	0.3	384	385	14.0	86.9
2025-09-22T14:21	10	10	0.1	10	11	385	0.2	384	385	14.0	87.0
2025-09-22T14:22	10	10	0.1	10	10	384	0.2	384	385	14.0	88.4
2025-09-22T14:23	10	10	0.2	9	10	385	0.3	384	385	13.9	88.2
2025-09-22T14:24	10	9	0.2	9	9	384	0.2	384	385	13.9	88.4
2025-09-22T14:25	10	9	0.1	8	9	384	0.2	384	385	13.9	89.0
2025-09-22T14:26	10	8	0.2	8	8	384	0.2	384	385	13.9	89.4
2025-09-22T14:27	10	7	0.2	7	8	384	0.2	384	385	13.8	89.1
2025-09-22T14:28	10	6	0.3	6	7	384	0.2	384	385	13.9	89.7
2025-09-22T14:29	10	6	0.3	5	6	384	0.2	383	384	13.8	89.3
2025-09-22T14:30	10	5	0.2	4	5	384	0.2	383	384	13.8	89.2
2025-09-22T14:31	10	4	0.2	3	4	384	0.2	383	384	13.8	89.1
2025-09-22T14:32	10	4	0.1	4	4	383	0.3	383	384	13.9	90.3
2025-09-22T14:33	10	3	0.2	3	4	383	0.2	383	384	13.8	90.1
2025-09-22T14:34	10	4	0.1	3	4	383	0.2	383	384	13.8	90.9
2025-09-22T14:35	10	4	0.1	3	4	383	0.2	383	384	13.8	91.2
2025-09-22T14:36	10	4	0.1	4	4	383	0.2	383	384	13.7	91.4
2025-09-22T14:37	10	4	0.2	4	5	383	0.3	382	384	13.7	90.9
2025-09-22T14:38	10	4	0.1	4	5	383	0.2	382	383	13.7	90.5
2025-09-22T14:39	10	4	0.1	4	5	382	0.2	382	383	13.7	90.9
2025-09-22T14:40	10	5	0.1	4	5	382	0.2	381	382	13.6	91.4
2025-09-22T14:41	10	5	0.2	5	5	381	0.2	381	382	13.6	91.5
2025-09-22T14:42	10	5	0.1	5	6	381	0.2	381	382	13.6	91.1
2025-09-22T14:43	10	6	0.2	5	6	381	0.2	381	381	13.6	91.4
2025-09-22T14:44	10	6	0.3	6	7	381	0.2	380	381	13.6	91.8
2025-09-22T14:45	10	8	0.5	7	9	381	0.2	380	381	13.5	92.4
2025-09-22T14:46	10	9	0.5	8	10	381	0.2	380	381	13.5	91.9
2025-09-22T14:47	10	11	0.4	10	11	381	0.3	380	382	13.4	92.0
2025-09-22T14:48	10	11	0.2	11	12	381	0.3	380	382	13.4	92.7
2025-09-22T14:49	10	12	0.2	11	12	381	0.3	381	382	13.4	93.1
2025-09-22T14:50	10	12	0.2	11	12	381	0.3	381	382	13.4	92.6
2025-09-22T14:51	10	12	0.2	11	12	381	0.2	381	382	13.4	91.7
2025-09-22T14:52	10	12	0.4	12	13	382	0.3	381	382	13.4	92.3
2025-09-22T14:53	10	14	0.6	13	15	382	0.4	381	383	13.4	92.7
2025-09-22T14:54	10	16	1.0	14	18	383	0.4	382	384	13.4	93.5
2025-09-22T14:55	10	20	1.0	18	21	383	0.3	383	384	13.4	94.0
2025-09-22T14:56	10	23	0.8	21	24	384	0.4	384	385	13.4	94.1
2025-09-22T14:57	10	24	0.4	24	25	385	0.5	384	386	13.4	94.1
2025-09-22T14:58	10	24	0.2	24	25	386	0.2	385	386	13.4	94.4
2025-09-22T14:59	10	23	0.6	22	24	386	0.2	385	386	13.4	93.9
2025-09-22T15:00	10	21	0.8	19	22	385	0.4	384	386	13.4	94.7
2025-09-22T15:01	10	19	0.3	18	19	384	0.2	384	385	13.4	95.1
2025-09-22T15:02	10	18	0.1	18	19	384	0.3	383	385	13.4	95.4
2025-09-22T15:03	10	19	0.2	18	19	384	0.3	383	384	13.3	95.4
2025-09-22T15:04	10	18	0.2	18	19	383	0.3	382	384	13.3	95.7
2025-09-22T15:05	10	19	0.4	18	19	383	0.2	382	383	13.2	96.0
2025-09-22T15:06	10	21	0.9	19	22	383	0.3	382	384	13.2	95.8
2025-09-22T15:07	10	24	1.1	22	26	384	0.4	383	384	13.3	96.2
2025-09-22T15:08	10	28	1.1	26	30	384	0.6	383	385	13.3	96.4
2025-09-22T15:09	10	31	0.6	30	32	385	0.3	385	386	13.2	96.3
2025-09-22T15:10	10	32	0.2	32	32	385	0.2	385	386	13.2	95.6
2025-09-22T15:11	10	32	0.1	32	33	387	0.4	386	387	13.3	96.2
2025-09-22T15:12	10	32	0.2	32	32	387	0.3	386	387	13.2	95.7
2025-09-22T15:13	10	32	0.1	32	32	387	0.3	386	387	13.3	96.0
2025-09-22T15:14	10	32	0.1	32	32	387	0.2	386	388	13.2	96.2
2025-09-22T15:15	10	32	0.1	32	33	387	0.2	386	387	13.2	95.9
2025-09-22T15:16	10	32	0.3	31	32	387	0.2	386	387	13.2	96.0
2025-09-22T15:17	10	31	0.4	30	31	387	0.2	386	387	13.3	96.6
2025-09-22T15:18	10	30	0.2	29	30	388	0.3	387	388	13.3	96.4
2025-09-22T15:19	10	29	0.2	29	29	388	0.3	387	389	13.4	96.4
2025-09-22T15:20	10	28	0.2	28	29	388	0.3	388	389	13.4	96.6
2025-09-22T15:21	10	27	0.4	27	28	388	0.3	387	388	13.4	96.2
2025-09-22T15:22	10	26	0.5	25	27	388	0.2	388	389	13.3	95.4
2025-09-22T15:23	10	25	0.2	24	25	388	0.2	388	389	13.4	95.8
2025-09-22T15:24	10	25	0.2	24	25	388	0.4	387	388	13.4	95.8
2025-09-22T15:25	10	25	0.2	25	25	387	0.3	387	388	13.4	95.8
2025-09-22T15:26	10	26	0.2	25	26	387	0.2	387	388	13.4	96.2
2025-09-22T15:27	10	26	0.1	26	27	387	0.3	387	388	13.3	95.6
2025-09-22T15:28	10	27	0.1	26	27	388	0.2	387	388	13.3	95.5
2025-09-22T15:29	10	27	0.2	26	27	388	0.2	387	388	13.3	95.5
2025-09-22T15:30	10	27	0.1	26	27	388	0.2	388	388	13.3	95.1
2025-09-22T15:31	10	26	0.1	26	27	388	0.3	388	389	13.4	95.0
2025-09-22T15:32	10	26	0.1	26	26	388	0.2	388	389	13.4	95.4
2025-09-22T15:33	10	25	0.4	25	26	388	0.2	388	389	13.5	95.4
2025-09-22T15:34	10	24	0.2	24	25	388	0.2	387	388	13.5	95.4
2025-09-22T15:35	10	23	0.2	23	24	387	0.2	387	388	13.4	94.5
2025-09-22T15:36	10	23	0.3	22	23	387	0.2	386	388	13.4	94.5
2025-09-22T15:37	10	21	0.5	20	22	387	0.3	387	388	13.4	94.7
2025-09-22T15:38	10	20	0.4	19	21	387	0.2	387	387	13.4	94.6
2025-09-22T15:39	10	19	0.2	18	19	387	0.2	387	388	13.4	94.5
2025-09-22T15:40	10	18	0.1	18	18	387	0.3	387	388	13.5	94.7
2025-09-22T15:41	10	17	0.4	16	18	388	0.3	387	388	13.6	94.8
2025-09-22T15:42	10	15	0.5	15	16	387	0.3	386	388	13.6	94.2
2025-09-22T15:43	10	14	0.3	13	14	387	0.2	386	387	13.5	94.1
2025-09-22T15:44	10	14	0.1	14	14	386	0.3	386	387	13.5	93.8
2025-09-22T15:45	10	14	0.2	14	15	386	0.2	386	387	13.5	94.0
2025-09-22T15:46	10	15	0.3	15	16	386	0.2	386	387	13.5	94.3
2025-09-22T15:47	10	17	0.5	16	17	387	0.3	386	388	13.6	94.7
2025-09-22T15:48	10	18	0.6	17	20	387	0.2	386	387	13.5	94.6
2025-09-22T15:49	10	21	0.7	20	22	387	0.3	386	388	13.5	93.9
2025-09-22T15:50	10	22	0.2	22	23	388	0.3	387	388	13.5	93.8
2025-09-22T15:51	10	23	0.1	22	23	388	0.3	388	389	13.6	93.8
2025-09-22T15:52	10	22	0.2	22	23	388	0.2	388	389	13.6	93.5
2025-09-22T15:53	10	22	0.3	21	22	388	0.3	388	389	13.6	93.4
2025-09-22T15:54	10	21	0.4	20	22	388	0.3	387	389	13.6	93.9
2025-09-22T15:55	10	19	0.5	18	20	388	0.2	387	388	13.5	94.0
2025-09-22T15:56	10	17	0.7	16	18	387	0.3	386	388	13.5	93.3
2025-09-22T15:57	10	15	0.7	14	16	386	0.3	386	387	13.5	93.2
2025-09-22T15:58	10	13	0.6	12	14	386	0.3	386	387	13.5	93.5
2025-09-22T15:59	10	11	0.5	10	12	386	0.2	386	387	13.5	93.8
2025-09-22T16:00	10	9	0.3	9	10	386	0.2	385	386	13.5	93.9
2025-09-22T16:01	10	8	0.2	8	9	386	0.3	385	386	13.5	93.5
2025-09-22T16:02	10	8	0.2	7	8	385	0.2	385	386	13.5	93.1
2025-09-22T16:03	10	7	0.2	7	8	385	0.2	385	385	13.5	92.9
2025-09-22T16:04	10	7	0.2	6	7	385	0.2	384	385	13.6	93.3
2025-09-22T16:05	10	6	0.2	6	7	385	0.2	384	385	13.6	93.6
2025-09-22T16:06	10	6	0.1	6	6	384	0.2	384	385	13.6	93.4
2025-09-22T16:07	10	6	0.1	6	6	384	0.2	384	385	13.6	93.2
2025-09-22T16:08	10	6	0.2	5	6	385	0.2	384	385	13.5	92.9
2025-09-22T16:09	10	6	0.1	6	6	385	0.2	384	385	13.5	92.8
2025-09-22T16:10	10	6	0.1	5	6	385	0.2	384	385	13.6	93.2
2025-09-22T16:11	10	6	0.1	6	6	385	0.2	384	385	13.6	93.5
2025-09-22T16:12	10	6	0.1	6	7	385	0.2	384	385	13.6	93.6
2025-09-22T16:13	10	7	0.1	6	7	384	0.2	384	385	13.6	93.7
2025-09-22T16:14	10	7	0.1	6	7	385	0.2	384	385	13.6	93.1
2025-09-22T16:15	10	6	0.1	6	6	384	0.3	384	385	13.6	93.1
2025-09-22T16:16	10	6	0.2	6	6	384	0.2	384	385	13.6	93.2
2025-09-22T16:17	10	6	0.1	5	6	384	0.2	384	385	13.7	93.3
2025-09-22T16:18	10	5	0.1	5	6	384	0.1	384	385	13.7	93.2
2025-09-22T16:19	10	5	0.1	5	6	384	0.3	383	384	13.6	93.2
2025-09-22T16:20	10	5	0.1	5	6	384	0.2	383	384	13.6	93.0
2025-09-22T16:21	10	5	0.1	5	6	384	0.2	383	384	13.7	93.3
2025-09-22T16:22	10	6	0.2	5	6	383	0.2	383	384	13.6	93.5
2025-09-22T16:23	10	6	0.2	6	7	384	0.2	383	384	13.6	94.2
2025-09-22T16:24	10	7	0.2	6	7	384	0.2	383	384	13.6	94.5
2025-09-22T16:25	10	7	0.1	6	7	384	0.2	383	384	13.6	94.4
2025-09-22T16:26	10	6	0.2	6	7	384	0.2	383	384	13.6	94.6
2025-09-22T16:27	10	6	0.2	5	6	384	0.3	383	384	13.6	94.9
2025-09-22T16:28	10	5	0.3	4	5	383	0.2	383	384	13.5	94.1
2025-09-22T16:29	10	4	0.3	4	5	383	0.3	382	383	13.5	93.8
2025-09-22T16:30	10	3	0.3	2	4	383	0.2	382	383	13.5	93.9
2025-09-22T16:31	10	2	0.2	2	3	382	0.3	382	383	13.5	94.1
2025-09-22T16:32	10	2	0.1	2	2	382	0.2	382	383	13.5	94.1
2025-09-22T16:33	10	2	0.1	1	2	382	0.3	382	383	13.6	94.3
2025-09-22T16:34	10	2	0.1	1	2	382	0.2	382	383	13.6	95.2
2025-09-22T16:35	10	1	0.1	1	2	382	0.3	381	383	13.6	95.7
2025-09-22T16:36	10	1	0.1	1	2	382	0.2	381	382	13.5	95.5
2025-09-22T16:37	10	1	0.1	1	2	382	0.2	381	382	13.5	95.7
2025-09-22T16:38	10	1	0.1	1	1	382	0.2	381	382	13.5	96.0
2025-09-22T16:39	10	1	0.1	1	1	382	0.2	381	382	13.5	95.7
2025-09-22T16:40	10	1	0.1	1	1	382	0.3	381	382	13.5	95.5
2025-09-22T16:41	10	1	0.1	1	1	381	0.2	381	382	13.5	95.9
2025-09-22T16:42	10	1	0.1	1	1	381	0.2	381	382	13.5	96.3
2025-09-22T16:43	10	1	0.0	1	1	382	0.2	381	382	13.5	96.3
2025-09-22T16:44	10	1	0.1	1	1	381	0.2	381	382	13.6	96.7
2025-09-22T16:45	10	1	0.1	1	1	381	0.2	380	381	13.5	96.9
2025-09-22T16:46	10	1	0.1	1	1	381	0.2	380	381	13.5	96.8
2025-09-22T16:47	10	1	0.1	1	1	381	0.2	380	382	13.5	97.1
2025-09-22T16:48	10	1	0.1	1	1	380	0.2	380	381	13.3	96.9
2025-09-22T16:49	10	1	0.1	1	1	380	0.2	380	381	13.3	96.4
2025-09-22T16:50	10	1	0.1	1	1	380	0.2	380	380	13.4	96.7
2025-09-22T16:51	10	1	0.1	1	1	380	0.1	379	380	13.4	96.8
2025-09-22T16:52	10	1	0.1	1	1	380	0.2	379	380	13.4	97.1
2025-09-22T16:53	10	1	0.1	1	1	380	0.2	379	380	13.4	97.2
2025-09-22T16:54	10	1	0.1	1	1	380	0.2	380	381	13.4	97.2
2025-09-22T16:55	10	2	0.2	1	2	380	0.2	380	381	13.4	97.6
2025-09-22T16:56	10	2	0.1	2	2	380	0.2	380	381	13.4	97.6
2025-09-22T16:57	10	2	0.1	2	2	381	0.2	380	381	13.4	97.3
2025-09-22T16:58	10	3	0.2	2	3	381	0.2	380	381	13.4	97.2
2025-09-22T16:59	10	3	0.2	3	3	381	0.2	380	381	13.3	97.1
2025-09-22T17:00	10	3	0.1	3	3	381	0.2	380	381	13.3	97.3
2025-09-22T17:01	10	3	0.1	3	3	381	0.2	380	381	13.4	97.2
2025-09-22T17:02	10	3	0.1	3	3	381	0.2	380	381	13.4	97.0
2025-09-22T17:03	10	3	0.1	3	4	381	0.2	381	382	13.4	97.1
2025-09-22T17:04	10	3	0.1	3	3	381	0.2	380	382	13.4	97.2
2025-09-22T17:05	10	3	0.1	3	3	381	0.2	381	382	13.4	97.2
2025-09-22T17:06	10	3	0.1	3	3	381	0.2	381	381	13.4	97.4
2025-09-22T17:07	10	3	0.1	2	3	381	0.2	381	381	13.4	97.1
2025-09-22T17:08	10	2	0.1	2	3	381	0.2	381	381	13.4	97.1
2025-09-22T17:09	10	2	0.1	2	2	381	0.2	381	382	13.4	97.2
2025-09-22T17:10	10	2	0.1	2	2	381	0.2	381	381	13.4	97.1
2025-09-22T17:11	10	1	0.1	1	2	381	0.2	381	382	13.4	97.2
2025-09-22T17:12	10	1	0.1	1	1	381	0.2	381	382	13.4	97.2
2025-09-22T17:13	10	1	0.1	1	1	381	0.2	381	381	13.3	96.6
2025-09-22T17:14	10	1	0.1	0	1	381	0.2	380	381	13.4	96.5
2025-09-22T17:15	10	1	0.1	0	1	381	0.2	380	381	13.4	96.5
2025-09-22T17:16	10	1	0.1	0	1	381	0.2	380	381	13.4	96.1
2025-09-22T17:17	10	1	0.1	0	1	381	0.2	381	381	13.4	96.1
2025-09-22T17:18	10	1	0.1	0	1	381	0.2	380	381	13.5	96.6
2025-09-22T17:19	10	1	0.1	0	1	381	0.2	380	381	13.4	96.5
2025-09-22T17:20	10	1	0.1	0	1	381	0.2	380	381	13.5	96.4
2025-09-22T17:21	10	1	0.1	0	1	381	0.2	380	381	13.4	96.5
2025-09-22T17:22	10	0	0.0	0	1	381	0.2	380	381	13.5	96.4
2025-09-22T17:23	10	0	0.1	0	1	381	0.2	380	381	13.5	96.5
2025-09-22T17:24	10	0	0.1	0	1	381	0.3	380	381	13.5	96.5
2025-09-22T17:25	10	0	0.1	0	1	381	0.2	380	381	13.4	96.6
2025-09-22T17:26	10	0	0.1	0	1	381	0.2	380	381	13.4	96.4
2025-09-22T17:27	10	0	0.1	0	1	380	0.2	380	381	13.4	96.4
2025-09-22T17:28	10	0	0.1	0	1	380	0.2	380	381	13.4	96.4
2025-09-22T17:29	10	0	0.1	0	1	380	0.2	379	380	13.4	96.6
2025-09-22T17:30	10	0	0.0	0	1	380	0.2	380	380	13.4	96.7
2025-09-22T17:31	10	0	0.1	0	1	380	0.2	379	380	13.4	96.3
2025-09-22T17:32	10	0	0.1	0	1	380	0.2	379	380	13.4	96.2
2025-09-22T17:33	10	0	0.1	0	1	380	0.2	379	380	13.4	96.2
2025-09-22T17:34	10	0	0.1	0	1	380	0.2	379	380	13.4	95.8
2025-09-22T17:35	10	0	0.1	0	1	379	0.2	379	380	13.5	95.2
2025-09-22T17:36	10	0	0.1	0	1	379	0.2	379	380	13.5	94.8
2025-09-22T17:37	10	0	0.0	0	0	379	0.2	378	379	13.5	94.7
2025-09-22T17:38	10	0	0.1	0	0	379	0.2	378	380	13.6	94.0
2025-09-22T17:39	10	0	0.1	0	0	379	0.2	378	379	13.6	92.8
2025-09-22T17:40	10	0	0.1	0	0	379	0.2	378	379	13.7	92.7
2025-09-22T17:41	10	0	0.1	0	0	378	0.3	378	379	13.7	93.2
2025-09-22T17:42	10	0	0.1	0	0	379	0.2	378	379	13.6	94.2
2025-09-22T17:43	10	0	0.1	0	0	378	0.3	378	379	13.6	93.9
2025-09-22T17:44	10	0	0.1	0	0	378	0.2	378	379	13.6	93.5
2025-09-22T17:45	10	0	0.1	0	0	378	0.3	377	378	13.6	93.8
2025-09-22T17:46	10	0	0.1	0	0	378	0.2	378	379	13.6	93.9
2025-09-22T17:47	10	0	0.1	0	0	378	0.2	377	378	13.6	94.3
2025-09-22T17:48	10	0	0.1	0	0	378	0.2	378	379	13.6	93.9
2025-09-22T17:49	10	0	0.1	0	0	378	0.2	377	378	13.6	93.6
2025-09-22T17:50	10	0	0.1	0	0	378	0.2	377	378	13.6	93.4
2025-09-22T17:51	10	0	0.1	0	0	378	0.3	377	379	13.6	93.7
2025-09-22T17:52	10	0	0.1	0	0	378	0.2	377	378	13.6	93.8
2025-09-22T17:53	10	0	0.1	0	0	378	0.2	378	379	13.5	94.1
2025-09-22T17:54	10	0	0.1	0	0	378	0.2	378	378	13.5	93.9
2025-09-22T17:55	10	0	0.1	0	0	378	0.3	377	379	13.5	94.0
2025-09-22T17:56	10	0	0.1	0	0	378	0.2	377	378	13.5	94.1
2025-09-22T17:57	10	0	0.0	0	0	378	0.2	377	378	13.5	94.2
2025-09-22T17:58	10	0	0.1	0	0	378	0.2	377	378	13.5	94.3
2025-09-22T17:59	10	0	0.1	0	0	378	0.2	377	378	13.5	94.5
2025-09-22T18:00	10	0	0.1	0	0	378	0.2	377	378	13.5	94.6
2025-09-22T18:01	10	0	0.1	0	0	378	0.2	377	378	13.5	94.8
2025-09-22T18:02	10	0	0.1	0	0	378	0.2	377	378	13.5	95.0
2025-09-22T18:03	10	0	0.1	0	0	378	0.2	377	378	13.4	95.2
2025-09-22T18:04	10	0	0.1	0	0	378	0.3	377	378	13.4	95.5
2025-09-22T18:05	10	0	0.1	0	0	377	0.2	377	378	13.4	95.7
2025-09-22T18:06	10	0	0.1	0	0	378	0.2	377	378	13.4	95.8
2025-09-22T18:07	10	0	0.1	0	0	378	0.2	377	378	13.4	96.0
2025-09-22T18:08	10	0	0.1	0	0	378	0.2	377	378	13.4	96.1
2025-09-22T18:09	10	0	0.1	0	0	377	0.1	377	378	13.4	96.3
2025-09-22T18:10	10	0	0.0	0	0	378	0.2	377	378	13.4	96.4
2025-09-22T18:11	10	0	0.1	0	0	378	0.2	377	378	13.4	96.4
2025-09-22T18:12	10	0	0.0	0	0	377	0.2	377	378	13.4	96.8
2025-09-22T18:13	10	0	0.1	0	0	377	0.2	377	378	13.3	96.6
2025-09-22T18:14	10	0	0.1	0	0	377	0.2	377	378	13.3	96.0
2025-09-22T18:15	10	0	0.1	0	0	377	0.2	377	378	13.3	96.1
2025-09-22T18:16	10	0	0.1	0	0	377	0.2	377	378	13.3	95.7
2025-09-22T18:17	10	0	0.1	0	0	377	0.2	377	378	13.3	95.5
2025-09-22T18:18	10	0	0.1	0	0	377	0.2	377	378	13.3	95.6
2025-09-22T18:19	10	0	0.0	0	0	377	0.2	377	378	13.3	95.7
2025-09-22T18:20	10	0	0.1	0	0	377	0.2	377	378	13.3	95.4
2025-09-22T18:21	10	0	0.1	0	0	377	0.2	377	377	13.3	94.9
2025-09-22T18:22	10	0	0.1	0	0	377	0.2	376	377	13.4	95.5
2025-09-22T18:23	10	0	0.1	0	0	377	0.2	376	378	13.4	95.6
2025-09-22T18:24	10	0	0.1	0	0	377	0.3	376	377	13.4	95.4
2025-09-22T18:25	10	0	0.1	0	0	377	0.3	376	377	13.4	95.4
2025-09-22T18:26	10	0	0.1	0	0	377	0.2	376	377	13.4	95.6
2025-09-22T18:27	10	0	0.1	0	0	377	0.2	376	378	13.3	95.8
2025-09-22T18:28	10	0	0.1	0	0	377	0.2	377	378	13.3	95.8
2025-09-22T18:29	10	0	0.1	0	0	377	0.2	377	377	13.3	95.8
2025-09-22T18:30	10	0	0.1	0	0	377	0.3	376	378	13.4	96.0
2025-09-22T18:31	10	0	0.1	0	0	377	0.2	376	377	13.4	96.1
2025-09-22T18:32	10	0	0.1	0	0	377	0.2	377	378	13.4	95.8
2025-09-22T18:33	10	0	0.1	0	0	377	0.2	377	378	13.4	96.0
2025-09-22T18:34	10	0	0.0	0	0	377	0.3	377	378	13.4	95.5
2025-09-22T18:35	10	0	0.1	0	0	377	0.3	377	378	13.4	94.9
2025-09-22T18:36	10	0	0.1	0	0	377	0.2	377	378	13.4	94.6
2025-09-22T18:37	10	0	0.1	0	0	377	0.2	377	378	13.4	94.9
2025-09-22T18:38	10	0	0.1	0	0	377	0.2	377	377	13.4	94.8
2025-09-22T18:39	10	0	0.0	0	0	377	0.2	376	377	13.4	95.1
2025-09-22T18:40	10	0	0.0	0	0	377	0.2	376	377	13.4	95.3
2025-09-22T18:41	10	0	0.1	0	0	377	0.2	376	377	13.4	95.5
2025-09-22T18:42	10	0	0.1	0	0	376	0.2	376	377	13.4	95.8
2025-09-22T18:43	10	0	0.0	0	0	376	0.3	376	377	13.4	95.6
2025-09-22T18:44	10	0	0.0	0	0	376	0.3	376	377	13.4	95.7
2025-09-22T18:45	10	0	0.1	0	0	376	0.2	375	376	13.4	95.7
2025-09-22T18:46	10	0	0.1	0	0	376	0.2	375	376	13.5	95.7
2025-09-22T18:47	10	0	0.1	0	0	376	0.2	375	376	13.5	95.6
2025-09-22T18:48	10	0	0.1	0	0	376	0.2	375	376	13.4	95.8
2025-09-22T18:49	10	0	0.1	0	0	376	0.2	375	377	13.4	96.0
2025-09-22T18:50	10	0	0.1	0	0	376	0.3	376	377	13.4	96.1
2025-09-22T18:51	10	0	0.1	0	0	376	0.2	376	376	13.4	96.1
2025-09-22T18:52	10	0	0.1	0	0	376	0.2	375	376	13.4	96.1
2025-09-22T18:53	10	0	0.1	0	0	376	0.2	376	376	13.4	96.4
2025-09-22T18:54	10	0	0.1	0	0	376	0.2	375	376	13.3	96.7
2025-09-22T18:55	10	0	0.1	0	0	376	0.3	376	377	13.3	96.9
2025-09-22T18:56	10	0	0.1	0	0	376	0.2	375	376	13.2	97.1
2025-09-22T18:57	10	0	0.1	0	0	376	0.2	375	376	13.2	97.3
2025-09-22T18:58	10	0	0.1	0	0	376	0.2	375	376	13.2	97.6
2025-09-22T18:59	10	0	0.0	0	0	376	0.2	375	376	13.2	97.6
2025-09-22T19:00	10	0	0.0	0	0	376	0.2	375	376	13.2	97.6
2025-09-22T19:01	10	0	0.0	0	0	376	0.2	375	376	13.1	97.7
2025-09-22T19:02	10	0	0.0	0	0	376	0.2	375	376	13.1	97.7
2025-09-22T19:03	10	0	0.0	0	0	376	0.2	375	376	13.1	97.8
2025-09-22T19:04	10	0	0.1	0	0	376	0.2	375	376	13.1	97.9
2025-09-22T19:05	10	0	0.1	0	0	376	0.2	375	376	13.1	98.1
2025-09-22T19:06	10	0	0.1	0	0	376	0.2	375	376	13.1	98.3
2025-09-22T19:07	10	0	0.1	0	0	375	0.3	375	376	13.1	98.2
2025-09-22T19:08	10	0	0.0	0	0	376	0.2	375	376	13.1	98.2
2025-09-22T19:09	10	0	0.1	0	0	376	0.2	375	376	13.1	98.3
2025-09-22T19:10	10	0	0.1	0	0	376	0.2	375	376	13.1	98.3
2025-09-22T19:11	10	0	0.1	0	0	376	0.2	375	376	13.0	98.4
2025-09-22T19:12	10	0	0.1	0	0	376	0.2	375	376	13.0	98.4
2025-09-22T19:13	10	0	0.0	0	0	376	0.2	375	376	13.0	98.1
2025-09-22T19:14	10	0	0.1	0	0	375	0.2	375	376	13.0	98.1
2025-09-22T19:15	10	0	0.0	0	0	375	0.2	375	376	13.0	98.1
2025-09-22T19:16	10	0	0.1	0	0	375	0.2	375	376	13.0	97.9
2025-09-22T19:17	10	0	0.1	0	0	375	0.2	374	375	13.0	97.8
2025-09-22T19:18	10	0	0.1	0	0	375	0.2	374	375	13.0	97.8
2025-09-22T19:19	10	0	0.0	0	0	375	0.2	374	375	13.0	98.1
2025-09-22T19:20	10	0	0.1	0	0	375	0.2	374	375	12.9	98.2
2025-09-22T19:21	10	0	0.1	0	0	375	0.2	374	375	12.9	97.6
2025-09-22T19:22	10	0	0.1	0	0	375	0.2	374	375	12.8	96.6
2025-09-22T19:23	10	0	0.1	0	0	375	0.2	375	375	12.9	95.3
2025-09-22T19:24	10	0	0.0	0	0	374	0.2	374	375	13.0	95.2
2025-09-22T19:25	10	0	0.1	0	0	374	0.2	374	375	12.9	95.5
2025-09-22T19:26	10	0	0.1	0	0	374	0.3	374	375	13.0	95.3
2025-09-22T19:27	10	0	0.1	0	0	374	0.3	373	374	13.0	95.4
2025-09-22T19:28	10	0	0.1	0	0	374	0.2	373	374	13.0	95.2
2025-09-22T19:29	10	0	0.1	0	0	374	0.2	373	374	13.0	94.8
2025-09-22T19:30	10	0	0.1	0	0	374	0.2	373	374	13.0	94.6
2025-09-22T19:31	10	0	0.1	0	0	374	0.2	373	374	13.0	94.6
2025-09-22T19:32	10	0	0.1	0	0	374	0.3	373	374	13.0	93.9
2025-09-22T19:33	10	0	0.1	0	0	374	0.2	373	374	13.0	93.6
2025-09-22T19:34	10	0	0.1	0	0	373	0.3	372	374	13.1	93.7
2025-09-22T19:35	10	0	0.1	0	0	373	0.2	373	374	13.0	94.4
2025-09-22T19:36	10	0	0.1	0	0	373	0.2	373	374	13.0	95.2
2025-09-22T19:37	10	0	0.1	0	0	374	0.2	373	374	12.9	95.5
2025-09-22T19:38	10	0	0.1	0	0	373	0.2	373	374	12.9	96.1
2025-09-22T19:39	10	0	0.1	0	0	373	0.3	373	374	12.8	96.2
2025-09-22T19:40	10	0	0.1	0	0	373	0.2	372	374	12.8	96.0
2025-09-22T19:41	10	0	0.1	0	0	374	0.3	373	374	12.8	95.9
2025-09-22T19:42	10	0	0.1	0	0	373	0.2	373	374	12.8	96.1
2025-09-22T19:43	10	0	0.1	0	0	374	0.3	373	374	12.8	96.3
2025-09-22T19:44	10	0	0.1	0	0	374	0.2	373	374	12.8	95.9
2025-09-22T19:45	10	0	0.1	0	0	374	0.2	373	374	12.9	96.1
2025-09-22T19:46	10	0	0.1	0	0	374	0.2	373	374	12.9	96.7
2025-09-22T19:47	10	0	0.1	0	0	374	0.2	373	374	12.9	96.8
2025-09-22T19:48	10	0	0.1	0	0	374	0.2	373	374	12.8	96.9
2025-09-22T19:49	10	0	0.1	0	0	374	0.3	373	374	12.7	96.9
2025-09-22T19:50	10	0	0.1	0	0	373	0.2	373	374	12.7	96.9
2025-09-22T19:51	10	0	0.1	0	0	374	0.3	373	374	12.7	96.9
2025-09-22T19:52	10	0	0.1	0	0	374	0.2	373	374	12.7	96.9
2025-09-22T19:53	10	0	0.1	0	0	373	0.2	373	374	12.7	96.9
2025-09-22T19:54	10	0	0.1	0	0	373	0.3	373	374	12.7	96.9
2025-09-22T19:55	10	0	0.1	0	0	373	0.2	373	373	12.7	96.9
2025-09-22T19:56	10	0	0.1	0	0	373	0.2	372	373	12.7	96.9
2025-09-22T19:57	10	0	0.1	0	0	373	0.2	372	373	12.8	92.5
2025-09-22T19:58	10	0	0.1	0	0	373	0.3	372	373	12.8	93.1
2025-09-22T19:59	10	0	0.1	0	0	373	0.3	372	373	12.8	93.4
2025-09-22T20:00	10	0	0.1	0	0	372	0.2	372	373	12.8	92.9
2025-09-22T20:01	10	0	0.1	0	0	373	0.2	372	373	12.9	92.9
2025-09-22T20:02	10	0	0.1	0	0	372	0.2	372	373	12.9	93.0
2025-09-22T20:03	10	0	0.1	0	0	373	0.2	372	373	12.9	92.8
2025-09-22T20:04	10	0	0.1	0	0	373	0.2	372	373	12.9	92.2
2025-09-22T20:05	10	0	0.1	0	0	373	0.2	372	373	12.9	91.6
2025-09-22T20:06	10	0	0.1	0	0	373	0.2	372	373	12.9	91.9
2025-09-22T20:07	10	0	0.1	0	0	373	0.2	372	373	12.9	91.7
2025-09-22T20:08	10	0	0.1	0	0	372	0.2	372	373	12.9	91.8
2025-09-22T20:09	10	0	0.1	0	0	373	0.2	372	373	12.9	91.7
2025-09-22T20:10	10	0	0.1	0	0	373	0.2	372	373	13.0	91.4
2025-09-22T20:11	10	0	0.1	0	0	373	0.3	372	373	12.9	92.1
2025-09-22T20:12	10	0	0.1	0	0	373	0.2	372	373	12.9	91.6
2025-09-22T20:13	10	0	0.1	0	0	372	0.3	372	373	12.9	92.0
2025-09-22T20:14	10	0	0.1	0	0	372	0.2	372	373	12.9	92.0
2025-09-22T20:15	10	0	0.1	0	0	372	0.2	372	373	12.9	92.1
2025-09-22T20:16	10	0	0.1	0	0	372	0.2	372	372	12.9	92.9
2025-09-22T20:17	10	0	0.1	0	0	372	0.2	372	372	12.8	93.8
2025-09-22T20:18	10	0	0.1	0	0	371	0.2	371	372	12.7	94.1
2025-09-22T20:19	10	0	0.1	0	0	371	0.2	371	372	12.7	93.7
2025-09-22T20:20	10	0	0.1	0	0	372	0.2	371	372	12.7	93.6
2025-09-22T20:21	10	0	0.1	0	0	372	0.3	371	372	12.7	93.9
2025-09-22T20:22	10	0	0.0	0	0	372	0.2	371	372	12.7	94.4
2025-09-22T20:23	10	0	0.1	0	0	372	0.3	371	372	12.6	94.5
2025-09-22T20:24	10	0	0.1	0	0	372	0.3	371	372	12.6	94.6
2025-09-22T20:25	10	0	0.1	0	0	372	0.2	371	372	12.6	94.5
2025-09-22T20:26	10	0	0.0	0	0	372	0.2	371	372	12.6	94.7
2025-09-22T20:27	10	0	0.1	0	0	372	0.2	371	372	12.6	94.7
2025-09-22T20:28	10	0	0.1	0	0	372	0.2	372	373	12.6	94.7
2025-09-22T20:29	10	0	0.0	0	0	372	0.2	372	373	12.6	94.7
2025-09-22T20:30	10	0	0.1	0	0	373	0.2	372	373	12.6	94.8
2025-09-22T20:31	10	0	0.1	0	0	373	0.3	372	373	12.6	94.9
2025-09-22T20:32	10	0	0.1	0	0	373	0.3	372	374	12.6	94.7
2025-09-22T20:33	10	0	0.0	0	0	373	0.2	373	374	12.7	93.8
2025-09-22T20:34	10	0	0.1	0	0	373	0.2	373	373	12.7	93.3
2025-09-22T20:35	10	0	0.1	0	0	373	0.2	373	374	12.8	94.2
2025-09-22T20:36	10	0	0.1	0	0	373	0.2	373	374	12.7	94.3
2025-09-22T20:37	10	0	0.1	0	0	373	0.2	373	374	12.7	93.8
2025-09-22T20:38	10	0	0.1	0	0	373	0.3	373	374	12.7	93.7
2025-09-22T20:39	10	0	0.1	0	0	373	0.2	373	374	12.7	93.5
2025-09-22T20:40	10	0	0.1	0	0	373	0.2	373	374	12.8	93.3
2025-09-22T20:41	10	0	0.1	0	0	373	0.2	373	374	12.8	93.2
2025-09-22T20:42	10	0	0.1	0	0	373	0.2	373	374	12.8	93.0
2025-09-22T20:43	10	0	0.1	0	0	373	0.3	373	374	12.8	92.8
2025-09-22T20:44	10	0	0.0	0	0	373	0.2	373	374	12.9	92.8
2025-09-22T20:45	10	0	0.1	0	0	373	0.3	373	374	12.8	93.1
2025-09-22T20:46	10	0	0.1	0	0	373	0.2	373	374	12.8	93.2
2025-09-22T20:47	10	0	0.1	0	0	373	0.2	373	374	12.8	93.4
2025-09-22T20:48	10	0	0.1	0	0	373	0.2	373	374	12.7	93.5
2025-09-22T20:49	10	0	0.0	0	0	373	0.2	373	374	12.7	94.0
2025-09-22T20:50	10	0	0.0	0	0	373	0.2	373	374	12.7	94.5
2025-09-22T20:51	10	0	0.1	0	0	373	0.2	373	374	12.7	94.7
2025-09-22T20:52	10	0	0.0	0	0	373	0.2	373	374	12.7	95.0
2025-09-22T20:53	10	0	0.0	0	0	373	0.2	373	374	12.7	95.3
2025-09-22T20:54	10	0	0.0	0	0	373	0.2	373	374	12.7	95.7
2025-09-22T20:55	10	0	0.0	0	0	373	0.3	373	374	12.6	95.8
2025-09-22T20:56	10	0	0.0	0	0	373	0.2	373	373	12.6	95.9
2025-09-22T20:57	10	0	0.0	0	0	373	0.3	373	374	12.6	96.1
2025-09-22T20:58	10	0	0.0	0	0	373	0.2	373	373	12.6	96.5
2025-09-22T20:59	10	0	0.1	0	0	373	0.2	373	374	12.5	96.5
2025-09-22T21:00	10	0	0.0	0	0	373	0.2	372	373	12.5	96.6
2025-09-22T21:01	10	0	0.0	0	0	373	0.2	373	374	12.6	96.5
2025-09-22T21:02	10	0	0.1	0	0	373	0.2	372	374	12.6	96.5
2025-09-22T21:03	10	0	0.0	0	0	373	0.2	373	374	12.6	96.1
2025-09-22T21:04	10	0	0.0	0	0	373	0.2	373	374	12.7	95.7
2025-09-22T21:05	10	0	0.1	0	0	374	0.3	373	374	12.7	95.9
2025-09-22T21:06	10	0	0.1	0	0	374	0.2	373	374	12.7	95.9
2025-09-22T21:07	10	0	0.1	0	0	374	0.2	373	374	12.7	96.3
2025-09-22T21:08	10	0	0.1	0	0	373	0.3	373	374	12.6	96.3
2025-09-22T21:09	10	0	0.0	0	0	373	0.2	373	374	12.6	96.1
2025-09-22T21:10	10	0	0.0	0	0	373	0.2	373	374	12.6	95.8
2025-09-22T21:11	10	0	0.1	0	0	373	0.3	373	374	12.6	95.2
2025-09-22T21:12	10	0	0.1	0	0	374	0.3	373	374	12.7	93.7
2025-09-22T21:13	10	0	0.1	0	0	374	0.2	373	374	12.8	93.0
2025-09-22T21:14	10	0	0.1	0	0	374	0.2	373	374	12.8	93.0
2025-09-22T21:15	10	0	0.1	0	0	374	0.2	373	374	12.9	92.1
2025-09-22T21:16	10	0	0.1	0	0	373	0.3	373	374	12.9	92.8
2025-09-22T21:17	10	0	0.1	0	0	373	0.2	373	374	12.8	94.0
2025-09-22T21:18	10	0	0.1	0	0	373	0.2	373	374	12.8	94.5
2025-09-22T21:19	10	0	0.1	0	0	374	0.2	373	374	12.7	94.2
2025-09-22T21:20	10	0	0.1	0	0	373	0.2	373	374	12.7	94.1
2025-09-22T21:21	10	0	0.1	0	0	373	0.2	373	374	12.7	95.0
2025-09-22T21:22	10	0	0.0	0	0	373	0.2	373	374	12.7	95.3
2025-09-22T21:23	10	0	0.0	0	0	373	0.2	373	373	12.7	95.6
2025-09-22T21:24	10	0	0.0	0	0	373	0.2	373	374	12.6	95.9
2025-09-22T21:25	10	0	0.0	0	0	373	0.2	373	374	12.6	95.8
2025-09-22T21:26	10	0	0.1	0	0	374	0.3	373	374	12.6	95.9
2025-09-22T21:27	10	0	0.1	0	0	373	0.2	373	374	12.6	96.0
2025-09-22T21:28	10	0	0.1	0	0	373	0.2	373	374	12.7	96.1
2025-09-22T21:29	10	0	0.1	0	0	374	0.3	373	374	12.8	95.7
2025-09-22T21:30	10	0	0.0	0	0	374	0.2	374	375	12.9	95.7
2025-09-22T21:31	10	0	0.1	0	0	374	0.2	374	375	12.9	96.2
2025-09-22T21:32	10	0	0.0	0	0	374	0.2	374	375	12.9	96.5
2025-09-22T21:33	10	0	0.0	0	0	375	0.2	374	375	12.9	96.7
2025-09-22T21:34	10	0	0.1	0	0	374	0.2	374	375	12.9	96.8
2025-09-22T21:35	10	0	0.1	0	0	374	0.2	373	374	12.9	97.2
2025-09-22T21:36	10	0	0.1	0	0	374	0.3	374	375	12.8	97.4
2025-09-22T21:37	10	0	0.1	0	0	374	0.2	373	374	12.8	97.5
2025-09-22T21:38	10	0	0.1	0	0	374	0.2	373	374	12.8	97.7
2025-09-22T21:39	10	0	0.1	0	0	374	0.2	373	374	12.8	97.8
2025-09-22T21:40	10	0	0.0	0	0	374	0.2	374	374	12.8	97.7
2025-09-22T21:41	10	0	0.0	0	0	374	0.3	374	375	12.8	97.6
2025-09-22T21:42	10	0	0.1	0	0	375	0.2	374	375	12.8	97.7
2025-09-22T21:43	10	0	0.1	0	0	375	0.2	374	375	12.8	97.7
2025-09-22T21:44	10	0	0.1	0	0	375	0.2	374	375	12.8	97.8
2025-09-22T21:45	10	0	0.0	0	0	375	0.2	375	375	12.8	97.9
2025-09-22T21:46	10	0	0.0	0	0	375	0.3	374	376	12.8	98.2
2025-09-22T21:47	10	0	0.1	0	0	375	0.2	375	375	12.7	98.1
2025-09-22T21:48	10	0	0.1	0	0	375	0.2	374	375	12.7	98.2
2025-09-22T21:49	10	0	0.1	0	0	375	0.2	374	375	12.7	98.1
2025-09-22T21:50	10	0	0.1	0	0	375	0.2	374	375	12.7	98.2
2025-09-22T21:51	10	0	0.1	0	0	375	0.2	374	375	12.7	98.3
2025-09-22T21:52	10	0	0.1	0	0	375	0.2	374	375	12.7	98.3
2025-09-22T21:53	10	0	0.0	0	0	375	0.2	374	375	12.7	98.4
2025-09-22T21:54	10	0	0.0	0	0	374	0.2	374	375	12.7	98.5
2025-09-22T21:55	10	0	0.0	0	0	374	0.2	374	375	12.7	98.5
2025-09-22T21:56	10	0	0.1	0	0	374	0.3	374	375	12.7	98.3
2025-09-22T21:57	10	0	0.1	0	0	374	0.2	374	375	12.7	98.6
2025-09-22T21:58	10	0	0.1	0	0	375	0.2	374	375	12.7	98.2
2025-09-22T21:59	10	0	0.1	0	0	375	0.2	374	375	12.6	98.2
2025-09-22T22:00	10	0	0.0	0	0	375	0.3	374	375	12.7	98.7
2025-09-22T22:01	10	0	0.0	0	0	375	0.3	374	375	12.6	98.3
2025-09-22T22:02	10	0	0.1	0	0	375	0.2	375	375	12.6	98.2
2025-09-22T22:03	10	0	0.1	0	0	375	0.2	374	375	12.6	98.1
2025-09-22T22:04	10	0	0.1	0	0	375	0.2	374	375	12.6	98.3
2025-09-22T22:05	10	0	0.1	0	0	375	0.2	374	375	12.6	98.4
2025-09-22T22:06	10	0	0.1	0	0	375	0.2	374	375	12.6	98.5
2025-09-22T22:07	10	0	0.0	0	0	375	0.2	374	375	12.6	98.8
2025-09-22T22:08	10	0	0.1	0	0	375	0.2	374	375	12.6	99.0
2025-09-22T22:09	10	0	0.1	0	0	375	0.2	374	375	12.6	99.1
2025-09-22T22:10	10	0	0.1	0	0	375	0.2	374	375	12.7	98.8
2025-09-22T22:11	10	0	0.0	0	0	375	0.3	374	376	12.6	98.9
2025-09-22T22:12	10	0	0.0	0	0	375	0.2	375	375	12.6	98.9
2025-09-22T22:13	10	0	0.1	0	0	375	0.2	374	375	12.6	98.9
2025-09-22T22:14	10	0	0.0	0	0	375	0.2	375	375	12.6	98.8
2025-09-22T22:15	10	0	0.1	0	0	375	0.2	375	376	12.6	98.9
2025-09-22T22:16	10	0	0.0	0	0	375	0.2	375	376	12.6	98.8
2025-09-22T22:17	10	0	0.1	0	0	375	0.2	375	376	12.6	98.9
2025-09-22T22:18	10	0	0.1	0	0	375	0.2	375	376	12.6	99.1
2025-09-22T22:19	10	0	0.0	0	0	375	0.3	374	375	12.6	98.8
2025-09-22T22:20	10	0	0.1	0	0	375	0.2	375	376	12.6	98.7
2025-09-22T22:21	10	0	0.0	0	0	375	0.2	375	376	12.6	98.9
2025-09-22T22:22	10	0	0.1	0	0	375	0.2	375	376	12.6	99.2
2025-09-22T22:23	10	0	0.1	0	0	375	0.2	375	376	12.6	99.3
2025-09-22T22:24	10	0	0.1	0	0	375	0.2	375	375	12.6	99.2
2025-09-22T22:25	10	0	0.1	0	0	375	0.2	374	375	12.6	98.8
2025-09-22T22:26	10	0	0.1	0	0	374	0.2	374	375	12.6	98.4
2025-09-22T22:27	10	0	0.0	0	0	375	0.2	374	375	12.6	98.7
2025-09-22T22:28	10	0	0.0	0	0	374	0.2	374	375	12.6	98.6
2025-09-22T22:29	10	0	0.0	0	0	374	0.3	374	375	12.6	98.5
2025-09-22T22:30	10	0	0.1	0	0	374	0.2	374	375	12.6	98.8
2025-09-22T22:31	10	0	0.1	0	0	374	0.2	374	375	12.6	98.6
2025-09-22T22:32	10	0	0.1	0	0	374	0.2	374	375	12.6	98.6
2025-09-22T22:33	10	0	0.0	0	0	374	0.2	373	374	12.6	98.4
2025-09-22T22:34	10	0	0.0	0	0	374	0.2	373	374	12.6	98.5
2025-09-22T22:35	10	0	0.1	0	0	373	0.2	373	374	12.6	98.6
2025-09-22T22:36	10	0	0.0	0	0	374	0.2	373	374	12.6	98.6
2025-09-22T22:37	10	0	0.0	0	0	374	0.2	373	374	12.6	98.7
2025-09-22T22:38	10	0	0.1	0	0	373	0.2	373	374	12.6	98.7
2025-09-22T22:39	10	0	0.1	0	0	373	0.2	373	374	12.6	98.9
2025-09-22T22:40	10	0	0.1	0	0	373	0.3	373	374	12.6	98.9
2025-09-22T22:41	10	0	0.0	0	0	373	0.2	373	373	12.6	99.0
2025-09-22T22:42	10	0	0.0	0	0	373	0.2	372	373	12.6	99.2
2025-09-22T22:43	10	0	0.0	0	0	373	0.2	372	373	12.5	99.2
2025-09-22T22:44	10	0	0.0	0	0	373	0.2	372	373	12.5	99.7
2025-09-22T22:45	10	0	0.0	0	0	373	0.2	372	373	12.5	100.6
2025-09-22T22:46	10	0	0.1	0	0	373	0.2	372	373	12.5	100.5
2025-09-22T22:47	10	0	0.1	0	0	373	0.2	372	373	12.5	100.0
2025-09-22T22:48	10	0	0.0	0	0	373	0.3	372	373	12.5	99.5
2025-09-22T22:49	10	0	0.0	0	0	373	0.2	372	373	12.5	99.2
2025-09-22T22:50	10	0	0.1	0	0	373	0.2	373	373	12.5	99.0
2025-09-22T22:51	10	0	0.0	0	0	373	0.2	373	374	12.5	98.8
2025-09-22T22:52	10	0	0.0	0	0	373	0.2	373	374	12.5	98.8
2025-09-22T22:53	10	0	0.0	0	0	373	0.2	373	374	12.5	98.8
2025-09-22T22:54	10	0	0.0	0	0	373	0.2	373	374	12.5	98.9
2025-09-22T22:55	10	0	0.0	0	0	373	0.2	373	374	12.5	99.0
2025-09-22T22:56	10	0	0.0	0	0	373	0.2	373	374	12.5	99.0
2025-09-22T22:57	10	0	0.0	0	0	373	0.2	373	374	12.5	99.1
2025-09-22T22:58	10	0	0.0	0	0	373	0.2	373	374	12.5	99.2
2025-09-22T22:59	10	0	0.0	0	0	373	0.2	373	374	12.5	99.3
2025-09-22T23:00	10	0	0.0	0	0	373	0.2	373	374	12.5	99.3
2025-09-22T23:01	10	0	0.1	0	0	373	0.2	373	374	12.5	99.4
2025-09-22T23:02	10	0	0.0	0	0	373	0.3	373	374	12.5	99.4
2025-09-22T23:03	10	0	0.0	0	0	374	0.3	373	374	12.5	99.3
2025-09-22T23:04	10	0	0.1	0	0	374	0.3	374	375	12.5	99.2
2025-09-22T23:05	10	0	0.1	0	0	375	0.3	374	376	12.5	99.2
2025-09-22T23:06	10	0	0.1	0	0	375	0.3	374	375	12.5	99.6
2025-09-22T23:07	10	0	0.1	0	0	375	0.2	375	376	12.5	99.6
2025-09-22T23:08	10	0	0.1	0	0	376	0.3	375	376	12.5	99.4
2025-09-22T23:09	10	0	0.1	0	0	376	0.2	375	376	12.5	99.4
2025-09-22T23:10	10	0	0.1	0	0	376	0.2	375	376	12.5	99.5
2025-09-22T23:11	10	0	0.0	0	0	376	0.2	375	376	12.5	99.3
2025-09-22T23:12	10	0	0.1	0	0	376	0.2	375	377	12.4	99.3
2025-09-22T23:13	10	0	0.1	0	0	376	0.3	375	376	12.4	99.3
2025-09-22T23:14	10	0	0.1	0	0	376	0.2	375	376	12.5	99.4
2025-09-22T23:15	10	0	0.1	0	0	376	0.3	375	376	12.4	99.3
2025-09-22T23:16	10	0	0.1	0	0	375	0.2	375	376	12.4	99.1
2025-09-22T23:17	10	0	0.1	0	0	375	0.2	375	376	12.3	99.0
2025-09-22T23:18	10	0	0.1	0	0	376	0.3	375	376	12.3	99.0
2025-09-22T23:19	10	0	0.1	0	0	375	0.2	375	376	12.4	99.0
2025-09-22T23:20	10	0	0.1	0	0	375	0.2	375	376	12.4	99.1
2025-09-22T23:21	10	0	0.1	0	0	375	0.2	375	376	12.4	99.1
2025-09-22T23:22	10	0	0.1	0	0	375	0.2	375	376	12.3	99.3
2025-09-22T23:23	10	0	0.1	0	0	375	0.2	375	376	12.3	99.2
2025-09-22T23:24	10	0	0.1	0	0	375	0.2	375	376	12.3	98.9
2025-09-22T23:25	10	0	0.1	0	0	375	0.3	375	376	12.4	98.9
2025-09-22T23:26	10	0	0.1	0	0	375	0.2	375	376	12.4	98.8
2025-09-22T23:27	10	0	0.1	0	0	375	0.2	375	376	12.5	99.1
2025-09-22T23:28	10	0	0.1	0	0	375	0.2	375	376	12.5	98.8
2025-09-22T23:29	10	0	0.1	0	0	375	0.2	375	376	12.5	98.8
2025-09-22T23:30	10	0	0.1	0	0	375	0.2	375	376	12.4	98.9
2025-09-22T23:31	10	0	0.1	0	0	375	0.2	375	375	12.5	99.0
2025-09-22T23:32	10	0	0.1	0	0	375	0.2	375	376	12.5	99.1
2025-09-22T23:33	10	0	0.1	0	0	375	0.2	375	376	12.5	99.1
2025-09-22T23:34	10	0	0.1	0	0	375	0.2	375	376	12.5	99.4
2025-09-22T23:35	10	0	0.1	0	0	375	0.2	375	376	12.5	99.3
2025-09-22T23:36	10	0	0.1	0	0	375	0.2	375	376	12.5	99.4
2025-09-22T23:37	10	0	0.1	0	0	376	0.2	375	376	12.5	99.1
2025-09-22T23:38	10	0	0.1	0	0	375	0.2	375	376	12.5	98.8
2025-09-22T23:39	10	0	0.1	0	0	375	0.2	375	376	12.5	98.9
2025-09-22T23:40	10	0	0.1	0	0	375	0.2	375	376	12.5	98.8
2025-09-22T23:41	10	0	0.1	0	0	375	0.2	375	376	12.5	98.7
2025-09-22T23:42	10	0	0.1	0	0	375	0.3	374	376	12.5	98.6
2025-09-22T23:43	10	0	0.1	0	0	375	0.2	375	376	12.5	98.6
2025-09-22T23:44	10	0	0.1	0	0	375	0.2	375	376	12.5	98.7
2025-09-22T23:45	10	0	0.1	0	0	375	0.2	375	375	12.4	98.7
2025-09-22T23:46	10	0	0.1	0	0	375	0.2	375	375	12.4	98.6
2025-09-22T23:47	10	0	0.0	0	0	375	0.2	375	376	12.4	98.7
2025-09-22T23:48	10	0	0.1	0	0	375	0.2	374	375	12.4	98.7
2025-09-22T23:49	10	0	0.1	0	0	375	0.2	375	375	12.4	98.7
2025-09-22T23:50	10	0	0.1	0	0	375	0.2	375	376	12.4	98.7
2025-09-22T23:51	10	0	0.0	0	0	375	0.2	374	375	12.4	98.6
2025-09-22T23:52	10	0	0.1	0	0	374	0.2	374	375	12.4	98.6
2025-09-22T23:53	10	0	0.1	0	0	374	0.2	374	375	12.4	98.6
2025-09-22T23:54	10	0	0.1	0	0	374	0.3	374	375	12.5	98.7
2025-09-22T23:55	10	0	0.1	0	0	375	0.2	374	375	12.5	98.6
2025-09-22T23:56	10	0	0.1	0	0	375	0.2	374	375	12.5	98.6
2025-09-22T23:57	10	0	0.1	0	0	375	0.2	375	375	12.4	98.5
2025-09-22T23:58	10	0	0.1	0	0	375	0.2	375	376	12.4	98.1
2025-09-22T23:59	10	0	0.0	0	0	375	0.2	375	376	12.4	97.9
2025-09-23T00:00	10	0	0.1	0	0	375	0.2	375	376	12.4	97.9
2025-09-23T00:01	10	0	0.1	0	0	375	0.2	375	376	12.4	98.0
2025-09-23T00:02	10	0	0.1	0	0	375	0.2	375	376	12.5	98.2
2025-09-23T00:03	10	0	0.1	0	0	375	0.2	375	376	12.4	97.9
2025-09-23T00:04	10	0	0.1	0	0	375	0.2	375	376	12.4	97.4
2025-09-23T00:05	10	0	0.1	0	0	375	0.2	375	376	12.5	97.3
2025-09-23T00:06	10	0	0.1	0	0	375	0.2	375	376	12.5	97.4
2025-09-23T00:07	10	0	0.1	0	0	375	0.2	375	376	12.5	97.1
2025-09-23T00:08	10	0	0.1	0	0	375	0.2	375	376	12.5	97.2
2025-09-23T00:09	10	0	0.1	0	0	375	0.3	374	375	12.5	97.4
2025-09-23T00:10	10	0	0.1	0	0	375	0.2	374	375	12.5	97.4
2025-09-23T00:11	10	0	0.1	0	0	375	0.2	375	375	12.5	97.6
2025-09-23T00:12	10	0	0.1	0	0	375	0.2	374	375	12.5	97.7
2025-09-23T00:13	10	0	0.1	0	0	375	0.2	374	375	12.5	98.0
2025-09-23T00:14	10	0	0.1	0	0	375	0.2	374	376	12.5	97.8
2025-09-23T00:15	10	0	0.1	0	0	375	0.2	374	375	12.5	97.8
2025-09-23T00:16	10	0	0.1	0	0	374	0.2	374	375	12.4	97.6
2025-09-23T00:17	10	0	0.1	0	0	374	0.2	374	375	12.4	97.6
2025-09-23T00:18	10	0	0.1	0	0	374	0.3	373	375	12.4	97.8
2025-09-23T00:19	10	0	0.1	0	0	374	0.3	374	375	12.4	97.8
2025-09-23T00:20	10	0	0.1	0	0	374	0.2	373	374	12.4	97.8
2025-09-23T00:21	10	0	0.0	0	0	374	0.2	373	374	12.4	98.0
2025-09-23T00:22	10	0	0.0	0	0	374	0.2	374	374	12.4	98.2
2025-09-23T00:23	10	0	0.1	0	0	374	0.2	373	374	12.4	98.1
2025-09-23T00:24	10	0	0.1	0	0	374	0.2	374	375	12.4	98.1
2025-09-23T00:25	10	0	0.1	0	0	374	0.2	374	375	12.4	98.3
2025-09-23T00:26	10	0	0.1	0	0	375	0.2	374	375	12.4	98.1
2025-09-23T00:27	10	0	0.1	0	0	375	0.2	374	375	12.4	98.1
2025-09-23T00:28	10	0	0.1	0	0	375	0.2	374	375	12.4	98.2
2025-09-23T00:29	10	0	0.1	0	0	375	0.2	374	375	12.4	98.4
2025-09-23T00:30	10	0	0.1	0	0	375	0.2	374	375	12.4	98.6
2025-09-23T00:31	10	0	0.1	0	0	375	0.2	374	375	12.4	98.6
2025-09-23T00:32	10	0	0.1	0	0	374	0.2	374	375	12.4	98.4
2025-09-23T00:33	10	0	0.1	0	0	375	0.2	374	375	12.4	98.4
2025-09-23T00:34	10	0	0.1	0	0	375	0.2	374	375	12.4	98.5
2025-09-23T00:35	10	0	0.1	0	0	374	0.3	374	375	12.4	98.5
2025-09-23T00:36	10	0	0.1	0	0	374	0.2	374	375	12.4	98.7
2025-09-23T00:37	10	0	0.1	0	0	374	0.2	373	374	12.3	98.6
2025-09-23T00:38	10	0	0.1	0	0	374	0.2	374	375	12.3	98.4
2025-09-23T00:39	10	0	0.1	0	0	374	0.2	373	375	12.3	98.7
2025-09-23T00:40	10	0	0.1	0	0	374	0.2	374	375	12.4	99.0
2025-09-23T00:41	10	0	0.1	0	0	374	0.2	374	375	12.4	98.7
2025-09-23T00:42	10	0	0.0	0	0	374	0.2	374	375	12.4	98.9
2025-09-23T00:43	10	0	0.0	0	0	374	0.2	374	375	12.3	98.8
2025-09-23T00:44	10	0	0.1	0	0	374	0.2	374	375	12.3	98.7
2025-09-23T00:45	10	0	0.1	0	0	374	0.2	374	375	12.3	98.8
2025-09-23T00:46	10	0	0.1	0	0	374	0.3	374	375	12.3	99.0
2025-09-23T00:47	10	0	0.1	0	0	375	0.2	374	375	12.3	98.9
2025-09-23T00:48	10	0	0.1	0	0	375	0.2	374	375	12.3	99.0
2025-09-23T00:49	10	0	0.1	0	0	375	0.2	374	375	12.3	99.0
2025-09-23T00:50	10	0	0.1	0	0	375	0.2	374	375	12.3	98.9
2025-09-23T00:51	10	0	0.0	0	0	375	0.2	374	375	12.4	98.8
2025-09-23T00:52	10	0	0.1	0	0	374	0.2	374	375	12.4	98.9
2025-09-23T00:53	10	0	0.0	0	0	374	0.2	374	375	12.4	99.1
2025-09-23T00:54	10	0	0.1	0	0	374	0.2	374	375	12.3	99.0
2025-09-23T00:55	10	0	0.1	0	0	374	0.2	374	375	12.4	99.3
2025-09-23T00:56	10	0	0.1	0	0	374	0.3	373	374	12.4	99.6
2025-09-23T00:57	10	0	0.1	0	0	374	0.3	373	374	12.3	99.6
2025-09-23T00:58	10	0	0.1	0	0	373	0.3	373	374	12.3	99.4
2025-09-23T00:59	10	0	0.0	0	0	373	0.2	373	374	12.3	99.2
2025-09-23T01:00	10	0	0.1	0	0	373	0.2	372	373	12.3	99.2
2025-09-23T01:01	10	0	0.1	0	0	373	0.3	372	374	12.3	99.1
2025-09-23T01:02	10	0	0.0	0	0	373	0.3	372	373	12.3	99.3
2025-09-23T01:03	10	0	0.0	0	0	372	0.2	372	373	12.3	99.7
2025-09-23T01:04	10	0	0.1	0	0	372	0.2	372	373	12.3	99.8
2025-09-23T01:05	10	0	0.1	0	0	372	0.2	372	373	12.3	99.6
2025-09-23T01:06	10	0	0.1	0	0	372	0.2	372	373	12.3	99.3
2025-09-23T01:07	10	0	0.1	0	0	372	0.2	372	373	12.3	99.2
2025-09-23T01:08	10	0	0.0	0	0	372	0.2	372	372	12.3	99.2
2025-09-23T01:09	10	0	0.0	0	0	372	0.2	372	372	12.3	99.4
2025-09-23T01:10	10	0	0.0	0	0	372	0.2	371	372	12.3	99.6
2025-09-23T01:11	10	0	0.0	0	0	372	0.2	371	372	12.3	99.6
2025-09-23T01:12	10	0	0.1	0	0	372	0.2	371	372	12.3	99.4
2025-09-23T01:13	10	0	0.0	0	0	372	0.2	371	372	12.3	99.5
2025-09-23T01:14	10	0	0.0	0	0	372	0.3	371	372	12.3	99.6
2025-09-23T01:15	10	0	0.0	0	0	372	0.2	371	372	12.3	99.5
2025-09-23T01:16	10	0	0.1	0	0	372	0.2	371	372	12.3	99.6
2025-09-23T01:17	10	0	0.0	0	0	372	0.2	371	372	12.3	99.3
2025-09-23T01:18	10	0	0.1	0	0	372	0.2	372	373	12.3	99.2
2025-09-23T01:19	10	0	0.1	0	0	372	0.2	371	372	12.3	99.1
2025-09-23T01:20	10	0	0.0	0	0	372	0.2	371	372	12.2	99.2
2025-09-23T01:21	10	0	0.1	0	0	372	0.2	371	372	12.2	99.2
2025-09-23T01:22	10	0	0.1	0	0	372	0.2	372	372	12.2	99.1
2025-09-23T01:23	10	0	0.0	0	0	372	0.2	371	372	12.2	99.4
2025-09-23T01:24	10	0	0.1	0	0	372	0.2	371	372	12.3	99.0
2025-09-23T01:25	10	0	0.0	0	0	372	0.2	371	372	12.3	99.3
2025-09-23T01:26	10	0	0.1	0	0	372	0.2	371	372	12.3	99.2
2025-09-23T01:27	10	0	0.1	0	0	372	0.2	371	373	12.3	99.0
2025-09-23T01:28	10	0	0.1	0	0	372	0.3	371	373	12.3	99.1
2025-09-23T01:29	10	0	0.1	0	0	372	0.2	372	373	12.3	98.9
2025-09-23T01:30	10	0	0.0	0	0	373	0.2	372	373	12.3	99.2
2025-09-23T01:31	10	0	0.0	0	0	373	0.2	372	373	12.3	99.1
2025-09-23T01:32	10	0	0.0	0	0	373	0.3	372	373	12.3	99.1
2025-09-23T01:33	10	0	0.1	0	0	373	0.3	372	373	12.3	99.3
2025-09-23T01:34	10	0	0.0	0	0	373	0.2	373	374	12.3	99.2
2025-09-23T01:35	10	0	0.1	0	0	373	0.2	373	374	12.3	99.3
2025-09-23T01:36	10	0	0.1	0	0	373	0.2	373	374	12.3	99.2
2025-09-23T01:37	10	0	0.0	0	0	373	0.2	373	374	12.3	99.1
2025-09-23T01:38	10	0	0.1	0	0	373	0.2	373	374	12.3	99.3
2025-09-23T01:39	10	0	0.1	0	0	373	0.3	373	374	12.3	99.0
2025-09-23T01:40	10	0	0.1	0	0	373	0.2	372	373	12.2	99.0
2025-09-23T01:41	10	0	0.1	0	0	373	0.2	372	373	12.2	99.0
2025-09-23T01:42	10	0	0.0	0	0	372	0.2	372	373	12.2	98.9
2025-09-23T01:43	10	0	0.1	0	0	372	0.2	372	373	12.2	99.0
2025-09-23T01:44	10	0	0.0	0	0	372	0.2	372	373	12.1	98.8
2025-09-23T01:45	10	0	0.0	0	0	372	0.2	372	373	12.1	98.9
2025-09-23T01:46	10	0	0.0	0	0	372	0.2	372	372	12.1	98.9
2025-09-23T01:47	10	0	0.1	0	0	372	0.2	372	373	12.1	99.0
2025-09-23T01:48	10	0	0.0	0	0	372	0.2	372	373	12.1	98.8
2025-09-23T01:49	10	0	0.0	0	0	372	0.2	372	373	12.1	99.0
2025-09-23T01:50	10	0	0.0	0	0	372	0.2	372	373	12.0	98.5
2025-09-23T01:51	10	0	0.0	0	0	372	0.2	371	372	12.1	98.6
2025-09-23T01:52	10	0	0.0	0	0	372	0.2	371	372	12.0	98.6
2025-09-23T01:53	10	0	0.0	0	0	372	0.2	371	372	12.0	98.4
2025-09-23T01:54	10	0	0.0	0	0	372	0.2	371	372	12.0	98.4
2025-09-23T01:55	10	0	0.0	0	0	372	0.2	371	372	12.0	98.2
2025-09-23T01:56	10	0	0.1	0	0	372	0.2	371	372	12.0	98.3
2025-09-23T01:57	10	0	0.0	0	0	372	0.2	371	372	12.0	98.4
2025-09-23T01:58	10	0	0.0	0	0	372	0.2	371	372	12.0	98.2
2025-09-23T01:59	10	0	0.0	0	0	372	0.2	371	372	12.0	98.1
2025-09-23T02:00	10	0	0.1	0	0	371	0.2	371	372	12.0	98.1
2025-09-23T02:01	10	0	0.0	0	0	371	0.2	371	372	12.0	98.5
2025-09-23T02:02	10	0	0.0	0	0	371	0.2	371	372	12.0	98.5
2025-09-23T02:03	10	0	0.0	0	0	371	0.2	371	371	12.0	98.1
2025-09-23T02:04	10	0	0.0	0	0	371	0.2	370	371	12.0	98.0
2025-09-23T02:05	10	0	0.1	0	0	371	0.2	370	371	12.0	98.1
2025-09-23T02:06	10	0	0.1	0	0	371	0.2	370	371	12.0	97.9
2025-09-23T02:07	10	0	0.0	0	0	371	0.2	370	371	12.0	98.1
2025-09-23T02:08	10	0	0.0	0	0	371	0.2	370	371	12.0	98.0
2025-09-23T02:09	10	0	0.0	0	0	371	0.3	370	371	12.0	98.0
2025-09-23T02:10	10	0	0.0	0	0	371	0.3	371	372	12.0	98.3
2025-09-23T02:11	10	0	0.0	0	0	371	0.2	371	372	12.0	98.3
2025-09-23T02:12	10	0	0.0	0	0	371	0.2	371	372	12.0	98.2
2025-09-23T02:13	10	0	0.0	0	0	371	0.2	371	372	11.9	98.0
2025-09-23T02:14	10	0	0.0	0	0	371	0.2	371	372	11.9	98.0
2025-09-23T02:15	10	0	0.0	0	0	371	0.2	371	372	12.0	98.1
2025-09-23T02:16	10	0	0.0	0	0	371	0.2	371	372	12.0	97.9
2025-09-23T02:17	10	0	0.1	0	0	371	0.2	371	372	12.0	97.9
2025-09-23T02:18	10	0	0.0	0	0	371	0.2	371	372	12.0	97.9
2025-09-23T02:19	10	0	0.1	0	0	371	0.2	371	372	12.0	98.0
2025-09-23T02:20	10	0	0.0	0	0	371	0.2	371	372	12.0	97.9
2025-09-23T02:21	10	0	0.0	0	0	371	0.3	371	372	12.0	98.0
2025-09-23T02:22	10	0	0.1	0	0	371	0.2	371	372	12.0	98.0
2025-09-23T02:23	10	0	0.0	0	0	371	0.2	371	372	12.0	97.9
2025-09-23T02:24	10	0	0.0	0	0	372	0.2	371	372	12.0	98.1
2025-09-23T02:25	10	0	0.1	0	0	372	0.2	371	372	12.0	98.0
2025-09-23T02:26	10	0	0.0	0	0	372	0.2	372	372	12.0	98.1
2025-09-23T02:27	10	0	0.0	0	0	372	0.2	371	372	12.0	98.2
2025-09-23T02:28	10	0	0.1	0	0	372	0.2	371	372	12.0	97.9
2025-09-23T02:29	10	0	0.0	0	0	372	0.2	371	372	12.0	98.0
2025-09-23T02:30	10	0	0.1	0	0	371	0.3	371	372	12.0	97.8
2025-09-23T02:31	10	0	0.0	0	0	371	0.2	371	372	12.0	97.7
2025-09-23T02:32	10	0	0.0	0	0	371	0.2	371	372	12.0	97.6
2025-09-23T02:33	10	0	0.0	0	0	371	0.2	371	371	12.0	97.7
2025-09-23T02:34	10	0	0.0	0	0	371	0.2	371	372	12.0	97.8
2025-09-23T02:35	10	0	0.0	0	0	371	0.2	371	372	12.0	97.8
2025-09-23T02:36	10	0	0.0	0	0	372	0.2	371	372	12.0	97.4
2025-09-23T02:37	10	0	0.1	0	0	371	0.2	371	372	12.0	97.4
2025-09-23T02:38	10	0	0.0	0	0	371	0.2	371	372	12.0	97.4
2025-09-23T02:39	10	0	0.0	0	0	371	0.2	371	372	12.0	97.4
2025-09-23T02:40	10	0	0.1	0	0	371	0.2	371	372	12.0	97.1
2025-09-23T02:41	10	0	0.0	0	0	371	0.2	370	371	11.9	97.0
2025-09-23T02:42	10	0	0.1	0	0	371	0.2	371	372	12.0	96.9
2025-09-23T02:43	10	0	0.1	0	0	371	0.2	371	372	12.0	96.8
2025-09-23T02:44	10	0	0.1	0	0	371	0.2	371	372	12.0	96.9
2025-09-23T02:45	10	0	0.1	0	0	372	0.2	371	372	12.0	97.1
2025-09-23T02:46	10	0	0.1	0	0	372	0.3	371	372	12.0	97.1
2025-09-23T02:47	10	0	0.1	0	0	372	0.2	371	372	12.0	97.1
2025-09-23T02:48	10	0	0.1	0	0	372	0.2	371	372	12.0	97.1
2025-09-23T02:49	10	0	0.1	0	0	372	0.2	372	373	12.0	97.3
2025-09-23T02:50	10	0	0.1	0	0	372	0.2	372	373	12.0	97.5
2025-09-23T02:51	10	0	0.1	0	0	372	0.3	372	373	12.0	97.2
2025-09-23T02:52	10	0	0.1	0	0	373	0.2	372	373	12.0	97.4
2025-09-23T02:53	10	0	0.1	0	0	373	0.3	372	373	12.0	97.5
2025-09-23T02:54	10	0	0.1	0	0	373	0.2	372	373	12.0	97.4
2025-09-23T02:55	10	0	0.1	0	0	372	0.3	372	373	12.0	97.4
2025-09-23T02:56	10	0	0.1	0	0	372	0.2	372	373	12.0	97.7
2025-09-23T02:57	10	0	0.1	0	0	372	0.2	372	373	11.9	97.5
2025-09-23T02:58	10	0	0.1	0	0	372	0.2	371	373	11.9	97.6
2025-09-23T02:59	10	0	0.1	0	0	372	0.2	371	372	11.8	97.4
2025-09-23T03:00	10	0	0.1	-1	0	372	0.2	371	372	11.8	97.4
2025-09-23T03:01	10	0	0.1	0	0	372	0.2	371	372	11.8	97.5
2025-09-23T03:02	10	0	0.1	0	0	372	0.2	371	372	11.8	97.6
2025-09-23T03:03	10	0	0.1	0	0	372	0.2	371	372	11.9	97.7
2025-09-23T03:04	10	0	0.1	0	0	372	0.2	371	372	11.8	97.8
2025-09-23T03:05	10	0	0.1	0	0	371	0.2	371	372	11.8	97.5
2025-09-23T03:06	10	0	0.1	0	0	372	0.2	371	372	11.8	97.7
2025-09-23T03:07	10	0	0.1	0	0	371	0.3	371	372	11.8	97.7
2025-09-23T03:08	10	0	0.1	0	0	372	0.2	371	372	11.8	97.9
2025-09-23T03:09	10	0	0.1	0	0	371	0.2	371	372	11.7	97.8
2025-09-23T03:10	10	0	0.1	0	0	372	0.2	371	372	11.7	97.7
2025-09-23T03:11	10	0	0.1	0	0	371	0.2	371	372	11.7	97.8
2025-09-23T03:12	10	0	0.1	0	0	372	0.2	371	372	11.7	98.0
2025-09-23T03:13	10	0	0.1	0	0	371	0.2	371	372	11.7	98.0
2025-09-23T03:14	10	0	0.1	0	0	372	0.3	371	372	11.7	97.9
2025-09-23T03:15	10	0	0.0	0	0	371	0.2	371	372	11.7	97.8
2025-09-23T03:16	10	0	0.1	0	0	371	0.2	371	372	11.7	97.8
2025-09-23T03:17	10	0	0.1	0	0	372	0.2	371	372	11.7	97.7
2025-09-23T03:18	10	0	0.1	0	0	371	0.2	371	372	11.7	97.6
2025-09-23T03:19	10	0	0.1	0	0	372	0.2	371	372	11.7	97.8
2025-09-23T03:20	10	0	0.1	0	0	371	0.2	371	372	11.6	97.4
2025-09-23T03:21	10	0	0.1	0	0	371	0.2	371	372	11.6	97.0
2025-09-23T03:22	10	0	0.1	0	0	371	0.2	371	372	11.7	97.4
2025-09-23T03:23	10	0	0.1	0	0	371	0.2	371	372	11.7	97.4
2025-09-23T03:24	10	0	0.1	0	0	371	0.2	370	372	11.7	97.3
2025-09-23T03:25	10	0	0.1	0	0	371	0.2	371	372	11.7	97.2
2025-09-23T03:26	10	0	0.1	0	0	371	0.3	371	372	11.7	97.0
2025-09-23T03:27	10	0	0.1	0	0	371	0.3	371	372	11.7	97.3
2025-09-23T03:28	10	0	0.1	0	0	371	0.2	371	372	11.7	97.1
2025-09-23T03:29	10	0	0.1	0	0	371	0.3	371	372	11.7	97.3
2025-09-23T03:30	10	0	0.1	0	0	371	0.3	371	372	11.7	97.0
2025-09-23T03:31	10	0	0.1	0	0	371	0.2	371	372	11.7	97.1
2025-09-23T03:32	10	0	0.1	0	0	371	0.2	370	372	11.7	97.2
2025-09-23T03:33	10	0	0.1	-1	0	371	0.2	371	372	11.7	97.2
2025-09-23T03:34	10	0	0.1	0	0	371	0.2	371	372	11.7	97.1
2025-09-23T03:35	10	0	0.1	-1	0	371	0.3	370	372	11.7	97.3
2025-09-23T03:36	10	0	0.1	0	0	371	0.2	371	372	11.7	97.2
2025-09-23T03:37	10	0	0.1	0	0	371	0.3	371	372	11.7	97.4
2025-09-23T03:38	10	0	0.1	0	0	371	0.2	371	372	11.7	97.2
2025-09-23T03:39	10	0	0.1	0	0	371	0.2	371	372	11.7	97.3
2025-09-23T03:40	10	0	0.1	0	0	371	0.2	371	372	11.7	97.5
2025-09-23T03:41	10	0	0.1	0	0	371	0.3	371	372	11.7	97.3
2025-09-23T03:42	10	0	0.1	-1	0	371	0.3	371	372	11.7	97.3
2025-09-23T03:43	10	0	0.1	0	0	371	0.3	371	372	11.8	97.5
2025-09-23T03:44	10	0	0.1	0	0	371	0.3	371	372	11.7	97.4
2025-09-23T03:45	10	0	0.1	0	0	372	0.2	371	372	11.8	97.4
2025-09-23T03:46	10	0	0.1	0	0	371	0.3	371	372	11.8	97.6
2025-09-23T03:47	10	0	0.1	0	0	371	0.2	371	372	11.8	97.5
2025-09-23T03:48	10	0	0.1	-1	0	372	0.2	371	372	11.7	97.4
2025-09-23T03:49	10	0	0.1	-1	0	371	0.2	371	372	11.7	97.0
2025-09-23T03:50	10	0	0.1	0	0	371	0.3	371	372	11.8	96.9
2025-09-23T03:51	10	0	0.1	0	0	372	0.2	371	372	11.8	97.2
2025-09-23T03:52	10	0	0.1	0	0	372	0.2	371	372	11.8	97.2
2025-09-23T03:53	10	0	0.1	0	0	372	0.2	371	372	11.8	97.2
2025-09-23T03:54	10	0	0.1	0	0	372	0.3	371	372	11.8	97.2
2025-09-23T03:55	10	0	0.1	0	0	371	0.2	371	372	11.7	97.0
2025-09-23T03:56	10	0	0.1	0	0	371	0.2	371	372	11.7	97.1
2025-09-23T03:57	10	0	0.1	0	0	371	0.2	371	372	11.8	97.1
2025-09-23T03:58	10	0	0.1	0	0	371	0.2	371	372	11.8	97.4
2025-09-23T03:59	10	0	0.1	0	0	372	0.2	371	372	11.8	97.7
2025-09-23T04:00	10	0	0.1	0	0	371	0.2	371	372	11.7	97.3
2025-09-23T04:01	10	0	0.1	0	0	371	0.2	371	372	11.7	97.2
2025-09-23T04:02	10	0	0.1	0	0	371	0.2	371	371	11.7	97.1
2025-09-23T04:03	10	0	0.1	0	0	371	0.2	370	371	11.7	97.1
2025-09-23T04:04	10	0	0.1	0	0	371	0.3	371	372	11.8	97.4
2025-09-23T04:05	10	0	0.1	0	0	371	0.4	370	372	11.8	97.5
2025-09-23T04:06	10	0	0.1	0	0	371	0.2	371	372	11.8	97.7
2025-09-23T04:07	10	0	0.1	0	0	372	0.2	371	372	11.7	97.4
2025-09-23T04:08	10	0	0.2	0	0	372	0.2	371	372	11.7	97.5
2025-09-23T04:09	10	0	0.1	0	0	372	0.2	371	372	11.7	97.3
2025-09-23T04:10	10	0	0.1	0	0	371	0.2	371	372	11.7	97.1
2025-09-23T04:11	10	0	0.1	0	0	371	0.2	371	372	11.7	96.9
2025-09-23T04:12	10	0	0.1	0	0	371	0.3	371	372	11.7	96.8
2025-09-23T04:13	10	0	0.1	0	0	371	0.3	371	372	11.7	96.9
2025-09-23T04:14	10	0	0.1	0	0	372	0.2	371	372	11.7	96.8
2025-09-23T04:15	10	0	0.1	0	0	371	0.2	371	372	11.7	96.7
2025-09-23T04:16	10	0	0.1	0	0	371	0.2	371	372	11.7	96.8
2025-09-23T04:17	10	0	0.1	0	0	371	0.2	371	372	11.7	97.1
2025-09-23T04:18	10	0	0.1	0	0	371	0.2	371	372	11.7	97.1
2025-09-23T04:19	10	0	0.1	-1	0	372	0.2	371	372	11.7	97.0
2025-09-23T04:20	10	0	0.1	0	0	371	0.2	371	372	11.7	96.9
2025-09-23T04:21	10	0	0.1	0	0	371	0.3	371	372	11.7	97.1
2025-09-23T04:22	10	0	0.1	0	0	371	0.2	371	372	11.7	97.2
2025-09-23T04:23	10	0	0.1	0	0	371	0.2	370	372	11.7	97.3
2025-09-23T04:24	10	0	0.1	0	0	371	0.2	371	372	11.7	97.2
2025-09-23T04:25	10	0	0.1	0	0	371	0.2	371	371	11.7	97.0
2025-09-23T04:26	10	0	0.1	-1	0	371	0.3	370	371	11.7	97.0
2025-09-23T04:27	10	0	0.1	0	0	371	0.2	370	371	11.7	97.2
2025-09-23T04:28	10	0	0.1	0	0	371	0.2	370	371	11.7	97.3
2025-09-23T04:29	10	0	0.1	0	0	370	0.2	370	371	11.6	97.4
2025-09-23T04:30	10	0	0.1	-1	0	370	0.2	370	371	11.7	97.3
2025-09-23T04:31	10	0	0.2	-1	0	370	0.2	370	371	11.7	97.5
2025-09-23T04:32	10	0	0.1	0	0	370	0.2	370	371	11.6	97.5
2025-09-23T04:33	10	0	0.1	-1	0	370	0.2	370	371	11.6	97.5
2025-09-23T04:34	10	0	0.1	-1	0	371	0.3	370	371	11.6	97.5
2025-09-23T04:35	10	0	0.1	-1	0	371	0.2	370	371	11.6	97.8
2025-09-23T04:36	10	0	0.1	-1	0	371	0.2	370	371	11.6	97.5
2025-09-23T04:37	10	0	0.1	-1	0	371	0.2	370	371	11.6	97.4
2025-09-23T04:38	10	0	0.1	0	0	371	0.3	370	371	11.6	97.4
2025-09-23T04:39	10	0	0.1	-1	0	370	0.3	370	371	11.6	97.3
2025-09-23T04:40	10	0	0.1	-1	0	370	0.3	370	371	11.6	97.4
2025-09-23T04:41	10	0	0.2	-1	0	370	0.3	370	371	11.6	97.6
2025-09-23T04:42	10	0	0.2	-1	0	371	0.3	370	371	11.6	97.7
2025-09-23T04:43	10	0	0.1	-1	0	370	0.2	370	371	11.6	97.6
2025-09-23T04:44	10	0	0.2	-1	0	370	0.2	370	371	11.6	97.6
2025-09-23T04:45	10	0	0.2	-1	0	370	0.3	370	371	11.6	97.8
2025-09-23T04:46	10	0	0.2	-1	0	370	0.2	370	371	11.6	98.0
2025-09-23T04:47	10	0	0.1	0	0	371	0.3	370	371	11.6	97.8
2025-09-23T04:48	10	0	0.2	0	0	370	0.3	370	371	11.6	97.6
2025-09-23T04:49	10	0	0.1	0	0	370	0.2	370	371	11.6	97.8
2025-09-23T04:50	10	0	0.1	0	0	371	0.3	370	371	11.6	97.9
2025-09-23T04:51	10	0	0.1	-1	0	371	0.3	370	371	11.6	97.9
2025-09-23T04:52	10	0	0.1	0	0	371	0.2	370	371	11.6	98.0
2025-09-23T04:53	10	0	0.1	0	0	371	0.2	371	371	11.6	98.1
2025-09-23T04:54	10	0	0.1	0	0	371	0.2	370	371	11.6	98.2
2025-09-23T04:55	10	0	0.1	0	0	371	0.3	370	372	11.6	98.0
2025-09-23T04:56	10	0	0.1	0	0	371	0.2	370	371	11.6	98.3
2025-09-23T04:57	10	0	0.1	0	0	371	0.2	371	371	11.6	98.2
2025-09-23T04:58	10	0	0.1	0	0	371	0.2	370	371	11.6	98.3
2025-09-23T04:59	10	0	0.1	0	0	371	0.2	370	372	11.6	98.3
2025-09-23T05:00	10	0	0.2	0	0	370	0.3	370	371	11.5	97.9
2025-09-23T05:01	10	0	0.1	0	0	370	0.3	370	371	11.5	97.9
2025-09-23T05:02	10	0	0.1	0	0	370	0.3	370	371	11.5	98.2
2025-09-23T05:03	10	0	0.1	0	0	370	0.3	370	371	11.5	98.1
2025-09-23T05:04	10	0	0.2	0	0	370	0.2	370	371	11.5	98.0
2025-09-23T05:05	10	0	0.1	0	0	370	0.2	370	371	11.5	97.9
2025-09-23T05:06	10	0	0.1	0	0	370	0.2	370	371	11.5	98.0
2025-09-23T05:07	10	0	0.1	0	0	370	0.3	370	371	11.5	98.0
2025-09-23T05:08	10	0	0.1	0	0	370	0.2	370	371	11.5	98.1
2025-09-23T05:09	10	0	0.1	0	0	370	0.3	370	371	11.5	98.3
2025-09-23T05:10	10	0	0.1	0	0	370	0.2	370	371	11.5	98.1
2025-09-23T05:11	10	0	0.1	0	0	370	0.2	370	371	11.5	98.2
2025-09-23T05:12	10	0	0.1	0	0	370	0.3	370	371	11.5	98.1
2025-09-23T05:13	10	0	0.1	0	0	370	0.2	370	371	11.5	97.9
2025-09-23T05:14	10	0	0.1	0	0	370	0.2	370	371	11.5	98.0
2025-09-23T05:15	10	0	0.1	0	0	370	0.2	370	371	11.5	97.9
2025-09-23T05:16	10	0	0.1	0	0	370	0.2	370	371	11.6	97.9
2025-09-23T05:17	10	0	0.1	0	0	370	0.2	370	371	11.5	97.8
2025-09-23T05:18	10	0	0.1	0	0	370	0.3	369	371	11.5	97.5
2025-09-23T05:19	10	0	0.1	0	0	370	0.2	370	371	11.6	97.7
2025-09-23T05:20	10	0	0.1	0	0	370	0.3	370	371	11.6	98.0
2025-09-23T05:21	10	0	0.1	0	0	370	0.2	369	370	11.5	97.9
2025-09-23T05:22	10	0	0.1	0	0	370	0.3	370	371	11.5	97.7
2025-09-23T05:23	10	0	0.1	0	0	370	0.4	369	371	11.4	97.8
2025-09-23T05:24	10	0	0.1	0	0	370	0.3	369	371	11.5	97.7
2025-09-23T05:25	10	0	0.1	0	0	370	0.2	369	370	11.5	98.1
2025-09-23T05:26	10	0	0.1	0	0	370	0.2	370	371	11.5	98.0
2025-09-23T05:27	10	0	0.1	0	0	370	0.2	369	370	11.5	98.1
2025-09-23T05:28	10	0	0.1	0	0	370	0.2	370	371	11.5	98.2
2025-09-23T05:29	10	0	0.1	0	0	370	0.2	370	371	11.5	98.4
2025-09-23T05:30	10	0	0.1	0	0	370	0.2	370	370	11.4	98.1
2025-09-23T05:31	10	0	0.1	0	0	370	0.2	370	371	11.4	98.2
2025-09-23T05:32	10	0	0.1	0	0	370	0.2	370	371	11.4	98.2
2025-09-23T05:33	10	0	0.1	0	0	370	0.2	370	371	11.5	98.1
2025-09-23T05:34	10	0	0.1	0	0	370	0.2	370	371	11.5	98.3
2025-09-23T05:35	10	0	0.1	0	1	370	0.2	370	370	11.4	98.2
2025-09-23T05:36	10	0	0.1	0	1	370	0.2	370	371	11.4	98.0
2025-09-23T05:37	10	0	0.1	0	0	370	0.2	370	370	11.4	97.9
2025-09-23T05:38	10	0	0.1	0	1	370	0.2	370	371	11.4	97.8
2025-09-23T05:39	10	0	0.1	0	1	370	0.3	370	371	11.4	97.8
2025-09-23T05:40	10	0	0.1	0	0	370	0.2	369	370	11.4	97.6
2025-09-23T05:41	10	0	0.1	0	1	370	0.2	370	370	11.5	97.9
2025-09-23T05:42	10	0	0.1	0	1	370	0.2	370	370	11.5	97.7
2025-09-23T05:43	10	1	0.1	0	1	370	0.2	369	370	11.4	97.8
2025-09-23T05:44	10	1	0.1	0	1	370	0.2	369	370	11.4	97.7
2025-09-23T05:45	10	1	0.1	1	2	370	0.2	369	370	11.5	97.8
2025-09-23T05:46	10	1	0.2	1	2	370	0.2	370	371	11.5	98.1
2025-09-23T05:47	10	2	0.1	2	2	370	0.2	370	371	11.5	98.1
2025-09-23T05:48	10	2	0.1	2	2	370	0.2	370	371	11.4	98.2
2025-09-23T05:49	10	2	0.1	2	3	370	0.2	370	371	11.5	98.1
2025-09-23T05:50	10	2	0.1	2	3	370	0.2	370	371	11.4	98.1
2025-09-23T05:51	10	3	0.1	2	3	370	0.2	370	370	11.4	98.1
2025-09-23T05:52	10	2	0.1	2	3	370	0.3	370	371	11.4	98.1
2025-09-23T05:53	10	2	0.1	2	3	370	0.2	370	371	11.4	98.1
2025-09-23T05:54	10	3	0.1	2	3	370	0.2	370	371	11.5	98.2
2025-09-23T05:55	10	3	0.2	3	3	370	0.2	370	371	11.4	97.9
2025-09-23T05:56	10	3	0.1	3	3	370	0.2	370	371	11.5	98.0
2025-09-23T05:57	10	3	0.1	3	3	370	0.2	370	371	11.4	97.8
2025-09-23T05:58	10	3	0.1	3	3	370	0.3	370	371	11.4	97.9
2025-09-23T05:59	10	2	0.1	2	3	370	0.3	370	371	11.4	97.9
2025-09-23T06:00	10	2	0.1	2	2	370	0.2	370	371	11.4	97.6
2025-09-23T06:01	10	2	0.1	2	2	370	0.3	369	371	11.4	97.8
2025-09-23T06:02	10	2	0.1	2	3	370	0.2	370	370	11.4	97.7
2025-09-23T06:03	10	2	0.1	2	3	370	0.2	370	371	11.4	97.8
2025-09-23T06:04	10	3	0.1	2	3	370	0.2	370	371	11.4	97.9
2025-09-23T06:05	10	3	0.1	3	3	370	0.2	370	371	11.4	97.9
2025-09-23T06:06	10	3	0.1	3	4	370	0.2	370	371	11.4	97.8
2025-09-23T06:07	10	4	0.2	4	4	370	0.2	370	371	11.3	97.6
2025-09-23T06:08	10	4	0.1	4	5	370	0.3	370	371	11.4	97.8
2025-09-23T06:09	10	5	0.1	4	5	370	0.3	370	371	11.4	97.7
2025-09-23T06:10	10	5	0.1	5	5	370	0.2	370	371	11.4	97.7
2025-09-23T06:11	10	5	0.1	5	5	370	0.3	370	371	11.4	97.8
2025-09-23T06:12	10	5	0.1	5	5	371	0.2	370	371	11.4	98.0
2025-09-23T06:13	10	5	0.1	5	6	371	0.3	370	371	11.4	97.9
2025-09-23T06:14	10	5	0.1	5	6	370	0.3	370	371	11.3	97.7
2025-09-23T06:15	10	6	0.2	6	6	370	0.2	370	371	11.3	97.5
2025-09-23T06:16	10	6	0.1	6	6	370	0.2	370	371	11.3	97.4
2025-09-23T06:17	10	6	0.1	6	7	370	0.2	370	371	11.3	97.5
2025-09-23T06:18	10	7	0.1	7	7	370	0.3	370	371	11.3	97.5
2025-09-23T06:19	10	7	0.1	7	7	371	0.2	370	371	11.3	97.6
2025-09-23T06:20	10	7	0.1	7	7	371	0.2	370	371	11.4	97.6
2025-09-23T06:21	10	7	0.1	7	7	371	0.2	370	371	11.3	97.4
2025-09-23T06:22	10	7	0.1	7	7	371	0.2	371	371	11.4	97.5
2025-09-23T06:23	10	7	0.1	7	7	371	0.2	370	371	11.3	97.5
2025-09-23T06:24	10	7	0.1	7	7	371	0.2	370	371	11.3	97.3
2025-09-23T06:25	10	8	0.3	7	8	370	0.2	370	371	11.3	97.3
2025-09-23T06:26	10	9	0.2	8	9	371	0.2	371	371	11.3	97.5
2025-09-23T06:27	10	10	0.2	9	10	371	0.2	371	372	11.3	97.5
2025-09-23T06:28	10	10	0.3	10	11	371	0.2	370	372	11.3	97.0
2025-09-23T06:29	10	11	0.3	11	12	371	0.2	371	372	11.3	96.7
2025-09-23T06:30	10	12	0.3	12	13	371	0.3	371	372	11.3	96.7
2025-09-23T06:31	10	14	0.4	13	14	371	0.2	371	372	11.3	96.0
2025-09-23T06:32	10	15	0.4	14	15	371	0.2	371	372	11.3	96.2
2025-09-23T06:33	10	16	0.1	15	16	371	0.2	371	372	11.3	96.1
2025-09-23T06:34	10	15	0.1	15	16	372	0.2	371	372	11.3	95.7
2025-09-23T06:35	10	15	0.1	15	15	372	0.2	371	372	11.4	95.8
2025-09-23T06:36	10	14	0.4	14	15	372	0.2	371	372	11.4	95.6
2025-09-23T06:37	10	13	0.4	12	14	372	0.2	372	372	11.3	95.6
2025-09-23T06:38	10	12	0.4	11	12	372	0.2	372	373	11.4	95.8
2025-09-23T06:39	10	11	0.2	10	11	372	0.2	371	372	11.4	95.7
2025-09-23T06:40	10	10	0.1	10	10	372	0.2	371	372	11.4	95.7
2025-09-23T06:41	10	10	0.1	10	10	372	0.2	372	372	11.4	96.4
2025-09-23T06:42	10	10	0.1	10	10	372	0.2	371	372	11.4	96.0
2025-09-23T06:43	10	10	0.2	10	10	372	0.3	371	372	11.4	96.3
2025-09-23T06:44	10	10	0.1	10	11	372	0.3	371	372	11.4	96.2
2025-09-23T06:45	10	11	0.2	10	11	372	0.2	371	372	11.4	96.1
2025-09-23T06:46	10	11	0.2	11	12	371	0.2	371	372	11.4	96.1
2025-09-23T06:47	10	12	0.1	12	12	372	0.2	371	372	11.4	95.9
2025-09-23T06:48	10	11	0.3	11	12	372	0.2	371	372	11.4	96.2
2025-09-23T06:49	10	10	0.4	10	11	372	0.3	371	372	11.4	96.0
2025-09-23T06:50	10	9	0.2	9	10	372	0.3	371	372	11.4	95.6
2025-09-23T06:51	10	9	0.2	8	9	371	0.2	371	372	11.4	95.6
2025-09-23T06:52	10	8	0.1	8	9	372	0.2	371	372	11.4	95.5
2025-09-23T06:53	10	8	0.2	8	8	371	0.2	371	372	11.4	95.5
2025-09-23T06:54	10	7	0.1	7	8	371	0.2	371	372	11.4	95.7
2025-09-23T06:55	10	7	0.2	7	7	371	0.2	371	372	11.4	95.8
2025-09-23T06:56	10	7	0.1	6	7	371	0.2	371	372	11.4	95.8
2025-09-23T06:57	10	7	0.1	6	7	371	0.3	370	372	11.4	95.6
2025-09-23T06:58	10	7	0.1	6	7	370	0.2	370	371	11.3	95.9
2025-09-23T06:59	10	7	0.1	6	7	371	0.2	370	371	11.3	96.0
2025-09-23T07:00	10	7	0.1	6	7	371	0.2	370	371	11.3	96.0
2025-09-23T07:01	10	7	0.1	7	7	370	0.2	370	371	11.2	95.8
2025-09-23T07:02	10	7	0.1	6	7	371	0.2	370	371	11.3	96.0
2025-09-23T07:03	10	6	0.1	6	7	371	0.2	370	371	11.3	96.4
2025-09-23T07:04	10	7	0.1	6	7	371	0.2	370	371	11.3	96.4
2025-09-23T07:05	10	7	0.1	7	7	371	0.3	370	371	11.3	96.1
2025-09-23T07:06	10	8	0.2	7	8	371	0.3	370	371	11.3	95.7
2025-09-23T07:07	10	9	0.5	8	10	371	0.3	370	371	11.3	95.8
2025-09-23T07:08	10	10	0.4	10	11	372	0.3	371	372	11.3	95.9
2025-09-23T07:09	10	12	0.4	11	13	372	0.2	371	372	11.3	95.5
2025-09-23T07:10	10	12	0.2	12	13	371	0.2	371	372	11.3	94.6
2025-09-23T07:11	10	12	0.4	11	12	371	0.3	371	372	11.3	93.1
2025-09-23T07:12	10	10	0.3	10	11	371	0.3	370	371	11.3	92.4
2025-09-23T07:13	10	10	0.1	10	10	371	0.2	370	371	11.3	92.6
2025-09-23T07:14	10	11	0.3	10	11	371	0.2	370	371	11.3	93.0
2025-09-23T07:15	10	12	0.1	11	12	371	0.3	371	372	11.3	93.1
2025-09-23T07:16	10	11	0.2	11	12	371	0.3	370	372	11.4	93.6
2025-09-23T07:17	10	11	0.1	11	11	371	0.2	371	372	11.3	93.3
2025-09-23T07:18	10	11	0.1	10	11	371	0.2	371	372	11.4	93.2
2025-09-23T07:19	10	10	0.1	10	10	371	0.3	370	372	11.3	92.9
2025-09-23T07:20	10	10	0.1	10	10	371	0.2	371	372	11.4	93.1
2025-09-23T07:21	10	10	0.2	10	10	371	0.2	370	371	11.3	93.2
2025-09-23T07:22	10	11	0.3	10	11	371	0.2	370	371	11.3	93.3
2025-09-23T07:23	10	12	0.4	11	13	371	0.2	370	371	11.3	93.1
2025-09-23T07:24	10	13	0.3	13	14	371	0.2	370	371	11.3	93.2
2025-09-23T07:25	10	14	0.2	14	14	371	0.2	370	371	11.3	93.0
2025-09-23T07:26	10	14	0.2	14	15	371	0.2	370	371	11.3	93.1
2025-09-23T07:27	10	15	0.3	15	16	371	0.2	370	371	11.2	92.8
2025-09-23T07:28	10	16	0.3	16	17	371	0.4	371	372	11.3	92.9
2025-09-23T07:29	10	18	0.4	17	18	372	0.3	371	372	11.3	93.1
2025-09-23T07:30	10	19	0.4	18	20	372	0.2	372	373	11.3	92.9
2025-09-23T07:31	10	20	0.4	20	21	373	0.2	372	373	11.3	92.6
2025-09-23T07:32	10	21	0.1	21	21	373	0.2	372	373	11.3	92.7
2025-09-23T07:33	10	21	0.2	21	22	373	0.2	372	373	11.3	92.5
2025-09-23T07:34	10	22	0.4	21	23	373	0.5	372	374	11.4	92.9
2025-09-23T07:35	10	23	0.2	23	23	374	0.2	373	374	11.4	92.8
2025-09-23T07:36	10	24	0.2	23	24	374	0.3	373	375	11.4	92.8
2025-09-23T07:37	10	25	0.5	24	26	374	0.3	373	375	11.3	92.0
2025-09-23T07:38	10	27	0.5	26	27	374	0.3	374	375	11.4	92.6
2025-09-23T07:39	10	27	0.1	27	28	375	0.3	374	375	11.3	92.3
2025-09-23T07:40	10	27	0.1	27	27	375	0.2	374	375	11.3	91.8
2025-09-23T07:41	10	28	0.2	27	28	375	0.2	374	375	11.3	92.3
2025-09-23T07:42	10	27	0.2	27	28	375	0.3	374	376	11.4	92.6
2025-09-23T07:43	10	27	0.3	26	27	374	0.3	374	375	11.3	92.1
2025-09-23T07:44	10	26	0.5	25	27	374	0.2	373	374	11.3	92.4
2025-09-23T07:45	10	26	0.4	25	26	373	0.3	373	374	11.3	91.9
2025-09-23T07:46	10	26	0.2	26	27	374	0.3	373	375	11.3	92.4
2025-09-23T07:47	10	28	0.8	27	29	375	0.2	374	375	11.4	93.0
2025-09-23T07:48	10	30	0.2	29	30	375	0.2	374	375	11.3	92.7
2025-09-23T07:49	10	28	1.1	26	30	375	0.3	374	375	11.3	89.6
2025-09-23T07:50	10	23	1.3	21	26	374	0.4	373	375	11.3	89.6
2025-09-23T07:51	10	20	0.5	20	21	373	0.3	373	374	11.3	92.7
2025-09-23T07:52	10	20	0.6	20	22	373	0.2	372	373	11.3	91.1
2025-09-23T07:53	10	22	0.2	22	22	373	0.3	372	373	11.3	92.7
2025-09-23T07:54	10	22	0.4	21	22	373	0.3	372	374	11.3	92.7
2025-09-23T07:55	10	19	0.8	18	21	374	0.3	373	374	11.3	92.7
2025-09-23T07:56	10	18	0.2	18	18	373	0.4	373	374	11.3	92.3
2025-09-23T07:57	10	18	0.1	17	18	373	0.2	373	374	11.3	92.0
2025-09-23T07:58	10	18	0.3	17	18	372	0.5	371	373	11.2	91.7
2025-09-23T07:59	10	19	0.2	18	19	373	0.2	372	373	11.3	92.3
2025-09-23T08:00	10	18	0.4	17	19	372	0.3	372	373	11.2	92.0
2025-09-23T08:01	10	16	0.5	16	17	372	0.3	371	373	11.2	91.8
2025-09-23T08:02	10	17	0.5	16	17	372	0.2	371	372	11.2	92.1
2025-09-23T08:03	10	17	0.2	17	18	372	0.3	371	372	11.2	91.8
2025-09-23T08:04	10	19	0.8	17	20	372	0.3	371	373	11.2	92.3
2025-09-23T08:05	10	21	0.8	20	23	372	0.3	371	373	11.2	92.0
2025-09-23T08:06	10	24	0.4	23	25	373	0.4	372	373	11.2	91.7
2025-09-23T08:07	10	25	0.6	24	26	373	0.4	372	374	11.2	91.8
2025-09-23T08:08	10	28	1.2	26	30	373	0.3	372	374	11.2	91.6
2025-09-23T08:09	10	29	0.3	29	30	374	0.5	373	375	11.3	92.2
2025-09-23T08:10	10	28	0.5	27	29	374	0.4	373	375	11.2	91.8
2025-09-23T08:11	10	26	0.5	26	27	374	0.2	373	374	11.2	91.3
2025-09-23T08:12	10	25	0.4	24	26	374	0.4	374	375	11.3	91.5
2025-09-23T08:13	10	23	0.6	23	24	374	0.4	373	375	11.3	91.1
2025-09-23T08:14	10	24	0.6	23	25	373	0.3	373	374	11.2	91.2
2025-09-23T08:15	10	26	0.6	25	27	374	0.3	373	375	11.3	92.1
2025-09-23T08:16	10	27	0.4	27	28	374	0.3	373	375	11.3	92.4
2025-09-23T08:17	10	28	0.1	28	28	375	0.3	374	375	11.4	92.6
2025-09-23T08:18	10	28	0.4	27	28	375	0.3	374	376	11.3	92.3
2025-09-23T08:19	10	29	0.2	28	29	375	0.4	375	376	11.3	92.3
2025-09-23T08:20	10	29	0.3	29	30	376	0.3	375	376	11.3	92.3
2025-09-23T08:21	10	31	0.3	30	31	375	0.2	375	376	11.2	92.3
2025-09-23T08:22	10	31	0.2	30	31	375	0.3	374	375	11.2	92.8
2025-09-23T08:23	10	32	0.5	31	33	374	0.3	374	375	11.1	92.2
2025-09-23T08:24	10	34	0.8	32	35	374	0.3	374	375	11.1	92.3
2025-09-23T08:25	10	34	0.5	33	35	376	0.3	375	376	11.2	92.5
2025-09-23T08:26	10	34	0.5	33	35	376	0.3	376	377	11.3	92.9
2025-09-23T08:27	10	37	0.9	35	38	376	0.2	376	377	11.3	92.6
2025-09-23T08:28	10	38	0.2	38	39	377	0.3	376	378	11.3	92.0
2025-09-23T08:29	10	40	0.7	39	41	376	0.3	376	377	11.3	91.4
2025-09-23T08:30	10	42	0.9	41	44	377	0.2	376	377	11.3	91.6
2025-09-23T08:31	10	45	0.8	44	47	377	0.3	377	378	11.3	90.9
2025-09-23T08:32	10	48	0.5	47	49	378	0.5	377	379	11.3	91.2
2025-09-23T08:33	10	47	1.0	45	48	379	0.3	378	379	11.4	91.7
2025-09-23T08:34	10	45	0.3	44	45	379	0.5	378	380	11.4	91.2
2025-09-23T08:35	10	43	0.4	42	44	377	0.6	377	379	11.4	90.8
2025-09-23T08:36	10	42	0.5	41	42	377	0.2	377	378	11.4	90.8
2025-09-23T08:37	10	41	0.2	40	41	378	0.3	377	378	11.4	91.3
2025-09-23T08:38	10	41	0.6	40	42	377	0.2	377	378	11.4	91.6
2025-09-23T08:39	10	44	0.8	42	45	377	0.5	376	378	11.3	91.1
2025-09-23T08:40	10	45	0.2	45	46	376	0.3	376	377	11.3	91.4
2025-09-23T08:41	10	47	0.8	46	48	378	0.7	377	379	11.3	92.4
2025-09-23T08:42	10	48	0.2	48	49	379	0.4	378	380	11.4	92.5
2025-09-23T08:43	10	47	0.2	47	48	378	0.5	377	379	11.2	91.6
2025-09-23T08:44	10	47	0.2	47	48	378	0.3	377	378	11.2	92.0
2025-09-23T08:45	10	50	1.2	48	51	379	0.5	378	380	11.3	92.7
2025-09-23T08:46	10	50	1.2	48	51	379	0.3	379	380	11.3	93.3
2025-09-23T08:47	10	46	0.4	46	48	380	0.3	379	381	11.4	94.1
2025-09-23T08:48	10	46	1.2	43	47	379	0.5	378	380	11.4	94.1
2025-09-23T08:49	10	42	0.4	41	43	379	0.4	378	380	11.3	93.7
2025-09-23T08:50	10	41	0.3	41	42	379	0.3	379	380	11.3	94.2
2025-09-23T08:51	10	42	0.3	41	42	378	0.3	378	379	11.3	94.2
2025-09-23T08:52	10	42	0.3	42	43	378	0.4	377	379	11.2	94.0
2025-09-23T08:53	10	43	0.4	42	43	378	0.3	377	379	11.2	94.4
2025-09-23T08:54	10	40	1.4	37	42	379	0.4	378	380	11.3	94.8
2025-09-23T08:55	10	35	0.8	34	37	378	0.3	378	379	11.3	94.7
2025-09-23T08:56	10	34	0.2	34	35	378	0.2	377	379	11.3	94.6
2025-09-23T08:57	10	34	0.2	34	35	379	0.3	378	380	11.4	94.9
2025-09-23T08:58	10	35	0.8	34	37	379	0.5	378	380	11.4	94.6
2025-09-23T08:59	10	37	0.2	36	37	378	0.4	377	379	11.3	93.5
2025-09-23T09:00	10	38	0.7	37	39	379	0.2	378	379	11.4	93.0
2025-09-23T09:01	10	38	0.4	38	39	378	0.3	377	379	11.3	92.6
2025-09-23T09:02	10	40	0.6	39	41	378	0.3	378	379	11.4	93.0
2025-09-23T09:03	10	40	0.4	40	41	378	0.3	378	379	11.3	92.6
2025-09-23T09:04	10	43	0.8	41	44	379	0.4	378	380	11.4	92.8
2025-09-23T09:05	10	43	0.3	42	43	379	0.4	378	380	11.4	92.0
2025-09-23T09:06	10	43	0.8	42	45	379	0.3	379	380	11.5	91.7
2025-09-23T09:07	10	46	0.5	45	47	380	0.3	379	380	11.5	91.2
2025-09-23T09:08	10	44	1.3	42	46	378	0.4	378	379	11.4	90.3
2025-09-23T09:09	10	41	0.3	41	42	379	0.3	378	379	11.5	90.4
2025-09-23T09:10	10	41	0.6	40	42	380	0.4	379	381	11.6	91.3
2025-09-23T09:11	10	39	0.4	39	40	381	0.2	380	381	11.7	90.8
2025-09-23T09:12	10	38	0.5	37	39	380	0.8	378	381	11.7	89.6
2025-09-23T09:13	10	39	0.5	37	39	378	0.2	378	379	11.6	87.9
2025-09-23T09:14	10	39	0.2	39	40	377	0.4	377	378	11.6	87.4
2025-09-23T09:15	10	41	0.4	40	41	377	0.5	376	378	11.7	87.4
2025-09-23T09:16	10	42	0.2	41	42	378	0.3	377	379	11.7	87.8
2025-09-23T09:17	10	39	1.0	38	41	378	0.3	377	378	11.7	86.8
2025-09-23T09:18	10	37	0.2	37	38	378	0.2	377	378	11.7	87.0
2025-09-23T09:19	10	37	0.1	37	37	378	0.3	377	379	11.7	87.2
2025-09-23T09:20	10	35	1.0	33	37	378	0.3	378	379	11.7	87.3
2025-09-23T09:21	10	31	1.0	30	33	377	0.8	376	378	11.7	86.8
2025-09-23T09:22	10	29	0.9	27	30	376	0.2	376	377	11.6	86.3
2025-09-23T09:23	10	26	1.0	24	28	376	0.3	376	377	11.6	87.0
2025-09-23T09:24	10	25	0.3	24	25	376	0.2	375	376	11.6	86.9
2025-09-23T09:25	10	25	0.4	24	25	376	0.3	375	376	11.6	87.0
2025-09-23T09:26	10	24	0.3	23	24	375	0.3	374	376	11.6	87.4
2025-09-23T09:27	10	24	0.3	23	25	375	0.2	374	375	11.6	86.9
2025-09-23T09:28	10	26	0.7	25	27	375	0.5	374	376	11.6	87.0
2025-09-23T09:29	10	28	0.8	27	30	376	0.2	375	376	11.6	87.2
2025-09-23T09:30	10	31	0.6	30	32	376	0.4	375	377	11.6	87.3
2025-09-23T09:31	10	33	0.4	32	33	377	0.2	376	377	11.6	87.5
2025-09-23T09:32	10	33	0.2	33	33	377	0.3	377	378	11.6	87.4
2025-09-23T09:33	10	33	0.8	32	35	378	0.5	377	379	11.7	87.3
2025-09-23T09:34	10	38	1.6	35	40	379	0.4	378	380	11.8	87.6
2025-09-23T09:35	10	41	0.7	40	42	378	0.2	378	379	11.7	86.7
2025-09-23T09:36	10	45	1.5	42	47	379	0.3	378	379	11.7	86.8
2025-09-23T09:37	10	52	2.5	48	56	379	0.4	378	380	11.6	85.9
2025-09-23T09:38	10	57	0.4	56	57	380	0.3	379	380	11.7	86.3
2025-09-23T09:39	10	56	0.7	54	57	379	0.2	379	380	11.7	85.5
2025-09-23T09:40	10	53	1.1	51	54	381	0.4	380	381	11.7	86.4
2025-09-23T09:41	10	51	0.2	51	51	381	0.3	381	382	11.8	86.5
2025-09-23T09:42	10	52	1.0	50	54	382	0.4	381	383	11.8	86.8
2025-09-23T09:43	10	57	1.6	54	59	382	0.5	381	383	11.8	85.9
2025-09-23T09:44	10	60	0.3	59	60	382	0.5	381	383	11.8	86.1
2025-09-23T09:45	10	61	1.1	60	64	383	0.2	383	384	11.9	86.2
2025-09-23T09:46	10	68	2.0	64	71	383	0.3	382	384	11.8	85.6
2025-09-23T09:47	10	73	1.2	71	75	385	0.6	384	386	11.9	86.1
2025-09-23T09:48	10	76	0.3	75	76	386	0.4	385	387	11.9	85.6
2025-09-23T09:49	10	75	0.1	75	76	386	0.4	386	387	12.0	86.1
2025-09-23T09:50	10	74	0.7	73	75	385	1.1	383	387	11.9	85.2
2025-09-23T09:51	10	71	1.2	69	73	383	0.6	382	384	11.8	84.6
2025-09-23T09:52	10	67	1.0	66	69	383	0.4	382	384	11.8	84.8
2025-09-23T09:53	10	66	0.4	65	67	384	0.2	384	385	11.9	85.4
2025-09-23T09:54	10	69	1.5	67	72	384	0.4	383	385	11.9	84.5
2025-09-23T09:55	10	77	3.1	72	82	384	0.4	383	385	11.9	84.4
2025-09-23T09:56	10	83	0.5	82	83	385	0.5	384	386	12.0	84.5
2025-09-23T09:57	10	81	1.2	79	83	385	0.3	384	386	12.0	83.9
2025-09-23T09:58	10	79	0.2	78	79	385	0.3	385	386	12.0	83.4
2025-09-23T09:59	10	78	0.9	77	79	387	0.5	386	388	12.1	83.8
2025-09-23T10:00	10	79	1.1	77	81	387	0.5	386	388	12.1	83.8
2025-09-23T10:01	10	82	0.8	81	83	389	0.4	388	390	12.2	84.2
2025-09-23T10:02	10	78	3.0	73	82	389	0.3	388	389	12.2	83.9
2025-09-23T10:03	10	70	1.5	68	73	389	0.3	388	390	12.4	84.4
2025-09-23T10:04	10	67	0.9	66	69	389	0.4	388	390	12.4	84.4
2025-09-23T10:05	10	63	1.9	60	66	387	0.6	386	389	12.5	84.3
2025-09-23T10:06	10	60	0.8	59	62	385	0.5	384	387	12.4	83.4
2025-09-23T10:07	10	68	3.9	63	74	387	0.9	385	389	12.4	84.0
2025-09-23T10:08	10	78	1.8	74	81	388	0.3	388	389	12.4	83.9
2025-09-23T10:09	10	87	3.3	81	92	389	0.3	388	389	12.3	82.9
2025-09-23T10:10	10	88	1.9	86	91	389	0.3	388	390	12.3	83.0
2025-09-23T10:11	10	83	1.7	80	86	390	0.3	389	391	12.4	82.7
2025-09-23T10:12	10	76	1.8	74	80	389	0.5	388	390	12.4	82.1
2025-09-23T10:13	10	76	1.2	74	79	389	0.5	388	390	12.5	82.3
2025-09-23T10:14	10	79	0.4	79	80	390	0.3	389	390	12.6	81.8
2025-09-23T10:15	10	79	0.8	77	79	390	0.4	388	391	12.6	81.9
2025-09-23T10:16	10	73	1.6	72	77	388	0.5	387	389	12.5	81.2
2025-09-23T10:17	10	73	0.9	72	75	390	0.5	388	390	12.6	81.5
2025-09-23T10:18	10	79	2.5	75	82	391	0.3	390	391	12.5	80.7
2025-09-23T10:19	10	82	0.7	81	83	389	0.4	388	390	12.5	80.5
2025-09-23T10:20	10	76	3.9	68	81	390	0.5	389	391	12.7	81.3
2025-09-23T10:21	10	68	1.2	66	70	389	0.6	387	390	12.6	80.3
2025-09-23T10:22	10	69	2.6	62	71	387	0.4	386	388	12.5	80.1
2025-09-23T10:23	10	55	3.3	51	62	386	0.4	385	387	12.5	80.7
2025-09-23T10:24	10	50	0.9	49	53	385	0.6	383	386	12.4	80.2
2025-09-23T10:25	10	53	3.1	49	58	385	0.5	383	385	12.4	80.7
2025-09-23T10:26	10	60	1.2	58	62	385	0.6	384	386	12.5	81.1
2025-09-23T10:27	10	67	1.5	63	68	387	0.5	386	388	12.6	81.6
2025-09-23T10:28	10	65	2.4	60	68	387	0.3	386	388	12.5	80.8
2025-09-23T10:29	10	55	2.6	51	60	387	0.4	387	388	12.6	81.5
2025-09-23T10:30	10	50	0.2	50	51	387	0.4	386	388	12.6	81.8
2025-09-23T10:31	10	52	1.2	50	54	388	0.4	388	389	12.8	83.0
2025-09-23T10:32	10	56	1.1	54	58	388	0.5	387	389	12.9	82.5
2025-09-23T10:33	10	57	1.1	54	58	388	0.4	387	389	12.7	81.7
2025-09-23T10:34	10	53	0.6	52	54	387	0.7	386	389	12.6	81.7
2025-09-23T10:35	10	50	1.4	48	52	386	0.3	386	387	12.6	82.0
2025-09-23T10:36	10	42	3.0	37	48	385	1.1	383	387	12.6	81.7
2025-09-23T10:37	10	35	1.6	32	38	382	0.6	381	383	12.4	81.6
2025-09-23T10:38	10	30	1.1	28	32	381	0.3	381	382	12.5	82.3
2025-09-23T10:39	10	27	0.4	27	28	381	0.2	380	382	12.5	82.3
2025-09-23T10:40	10	27	0.1	27	27	380	0.4	379	381	12.5	82.3
2025-09-23T10:41	10	27	0.1	26	27	379	0.4	378	380	12.4	81.7
2025-09-23T10:42	10	27	0.1	26	27	378	0.3	378	379	12.3	81.6
2025-09-23T10:43	10	25	0.8	24	26	378	0.2	377	378	12.3	81.3
2025-09-23T10:44	10	22	0.7	21	24	378	0.2	377	378	12.3	82.0
2025-09-23T10:45	10	21	0.2	21	21	378	0.2	377	378	12.3	81.7
2025-09-23T10:46	10	21	0.3	21	22	376	0.3	376	377	12.2	81.4
2025-09-23T10:47	10	23	0.6	22	24	376	0.4	375	377	12.2	82.0
2025-09-23T10:48	10	26	1.5	24	29	377	0.2	377	378	12.2	82.2
2025-09-23T10:49	10	33	2.1	30	37	378	0.6	377	379	12.3	82.7
2025-09-23T10:50	10	39	1.5	37	42	380	0.6	379	381	12.3	82.5
2025-09-23T10:51	10	44	1.4	42	46	381	0.6	380	382	12.3	82.1
2025-09-23T10:52	10	47	0.5	46	48	381	0.3	381	382	12.3	81.4
2025-09-23T10:53	10	49	0.4	48	50	383	0.5	382	383	12.3	81.9
2025-09-23T10:54	10	48	0.5	47	49	383	0.3	382	384	12.4	82.4
2025-09-23T10:55	10	47	0.3	46	48	384	0.3	383	384	12.5	82.3
2025-09-23T10:56	10	45	0.6	44	46	384	0.2	383	385	12.6	82.4
2025-09-23T10:57	10	44	0.2	44	45	383	0.4	382	384	12.5	81.5
2025-09-23T10:58	10	46	1.1	45	48	382	0.3	381	382	12.5	81.6
2025-09-23T10:59	10	51	1.5	49	54	382	0.3	381	382	12.4	80.5
2025-09-23T11:00	10	57	1.9	54	60	382	0.4	381	383	12.3	79.6
2025-09-23T11:01	10	64	1.8	60	66	383	0.3	382	383	12.3	80.0
2025-09-23T11:02	10	66	0.1	66	67	384	0.5	382	385	12.3	80.1
2025-09-23T11:03	10	66	0.2	66	66	384	0.6	383	385	12.3	79.9
2025-09-23T11:04	10	66	0.3	66	67	385	0.5	384	385	12.3	79.7
2025-09-23T11:05	10	66	0.5	65	67	384	0.4	383	385	12.3	79.6
2025-09-23T11:06	10	68	1.7	66	72	385	0.8	384	387	12.4	80.3
2025-09-23T11:07	10	76	2.9	72	82	387	0.6	386	388	12.5	80.1
2025-09-23T11:08	10	84	1.7	82	88	388	0.6	387	389	12.6	80.0
2025-09-23T11:09	10	91	2.9	87	96	389	0.7	387	390	12.5	79.5
2025-09-23T11:10	10	85	2.5	79	87	390	0.6	388	391	12.6	80.1
2025-09-23T11:11	10	71	5.5	62	79	389	0.6	388	390	12.6	79.8
2025-09-23T11:12	10	55	2.5	53	61	387	0.7	386	389	12.7	80.1
2025-09-23T11:13	10	54	0.3	53	54	385	1.2	383	387	12.6	79.3
2025-09-23T11:14	10	53	0.3	53	54	384	0.4	383	385	12.4	79.8
2025-09-23T11:15	10	52	0.7	51	53	384	0.4	383	385	12.5	79.9
2025-09-23T11:16	10	49	1.0	47	51	384	0.4	383	385	12.6	80.3
2025-09-23T11:17	10	46	0.9	44	47	384	0.2	383	384	12.6	80.1
2025-09-23T11:18	10	43	0.2	43	44	384	0.2	384	384	12.6	80.2
2025-09-23T11:19	10	45	1.4	44	48	383	0.4	383	384	12.5	80.3
2025-09-23T11:20	10	51	1.4	48	53	384	0.6	383	385	12.5	80.6
2025-09-23T11:21	10	52	0.8	50	53	385	0.3	385	386	12.6	80.9
2025-09-23T11:22	10	48	1.1	46	50	384	0.6	383	386	12.5	80.5
2025-09-23T11:23	10	46	0.3	45	46	384	0.3	383	385	12.5	80.8
2025-09-23T11:24	10	48	0.7	46	49	384	0.3	383	385	12.5	80.1
2025-09-23T11:25	10	44	2.3	40	48	382	0.7	381	384	12.5	79.8
2025-09-23T11:26	10	38	0.8	38	40	382	0.3	381	383	12.5	80.1
2025-09-23T11:27	10	39	0.5	38	39	382	0.5	381	383	12.6	80.6
2025-09-23T11:28	10	39	0.1	39	40	381	0.2	381	382	12.4	80.2
2025-09-23T11:29	10	40	0.1	39	40	382	0.4	381	383	12.5	80.5
2025-09-23T11:30	10	40	0.3	40	41	382	0.3	381	382	12.4	80.3
2025-09-23T11:31	10	41	0.4	41	42	382	0.3	381	383	12.4	80.4
2025-09-23T11:32	10	42	0.3	41	42	382	0.5	381	383	12.4	79.6
2025-09-23T11:33	10	39	1.2	37	41	381	0.3	380	382	12.5	79.9
2025-09-23T11:34	10	35	1.3	33	37	380	0.5	379	381	12.4	79.3
2025-09-23T11:35	10	30	1.4	28	33	379	0.4	378	380	12.4	79.9
2025-09-23T11:36	10	26	1.0	25	28	378	0.2	378	379	12.4	80.0
2025-09-23T11:37	10	25	0.1	24	25	378	0.2	377	378	12.3	79.4
2025-09-23T11:38	10	25	0.3	25	26	377	0.2	377	378	12.4	79.8
2025-09-23T11:39	10	27	0.4	26	27	378	0.4	378	379	12.4	79.9
2025-09-23T11:40	10	28	0.3	27	28	379	0.4	378	380	12.4	80.5
2025-09-23T11:41	10	28	0.2	28	29	379	0.3	378	380	12.4	80.1
2025-09-23T11:42	10	26	0.6	25	27	378	0.4	377	378	12.3	79.5
2025-09-23T11:43	10	25	0.4	24	26	378	0.4	377	379	12.4	80.4
2025-09-23T11:44	10	25	0.4	24	25	378	0.3	378	379	12.4	80.1
2025-09-23T11:45	10	27	0.8	25	28	379	0.3	378	379	12.4	80.2
2025-09-23T11:46	10	29	0.7	28	31	379	0.3	378	379	12.4	80.1
2025-09-23T11:47	10	31	0.3	31	32	378	0.3	378	379	12.3	80.0
2025-09-23T11:48	10	28	2.0	24	31	379	0.2	378	379	12.3	80.3
2025-09-23T11:49	10	20	2.2	17	24	378	0.5	377	379	12.3	80.3
2025-09-23T11:50	10	14	1.4	12	16	376	0.5	375	377	12.3	80.3
2025-09-23T11:51	10	10	0.7	9	12	375	0.4	374	376	12.2	80.1
2025-09-23T11:52	10	9	0.2	9	9	375	0.3	374	375	12.3	81.1
2025-09-23T11:53	10	9	0.1	8	9	374	0.2	373	374	12.2	80.8
2025-09-23T11:54	10	9	0.1	8	9	374	0.2	373	374	12.2	80.7
2025-09-23T11:55	10	8	0.3	8	9	374	0.2	373	374	12.2	80.5
2025-09-23T11:56	10	7	0.4	7	8	374	0.3	373	374	12.2	80.9
2025-09-23T11:57	10	6	0.3	5	7	374	0.3	373	374	12.2	81.6
2025-09-23T11:58	10	5	0.1	5	5	374	0.2	373	374	12.2	82.7
2025-09-23T11:59	10	5	0.2	4	5	374	0.2	373	374	12.2	81.8
2025-09-23T12:00	10	4	0.2	4	4	373	0.2	373	374	12.1	80.4
2025-09-23T12:01	10	3	0.3	3	4	373	0.3	372	373	12.2	80.9
2025-09-23T12:02	10	2	0.2	2	3	373	0.3	373	374	12.2	81.5
2025-09-23T12:03	10	2	0.2	2	2	373	0.2	373	374	12.2	81.9
2025-09-23T12:04	10	2	0.1	1	2	373	0.3	372	373	12.2	81.8
2025-09-23T12:05	10	2	0.1	1	2	373	0.2	373	374	12.2	81.3
2025-09-23T12:06	10	2	0.1	1	2	373	0.3	373	374	12.2	81.0
2025-09-23T12:07	10	2	0.2	2	2	373	0.2	373	374	12.2	80.9
2025-09-23T12:08	10	3	0.2	2	3	373	0.2	372	373	12.2	81.4
2025-09-23T12:09	10	3	0.3	3	4	373	0.3	373	374	12.2	82.6
2025-09-23T12:10	10	4	0.3	4	5	373	0.3	373	374	12.2	83.2
2025-09-23T12:11	10	6	0.4	5	7	372	0.7	371	373	12.1	83.0
2025-09-23T12:12	10	8	0.8	7	9	371	0.2	370	371	12.0	84.4
2025-09-23T12:13	10	11	1.2	9	14	371	0.3	370	372	12.0	85.1
2025-09-23T12:14	10	15	0.9	14	17	372	0.3	372	373	11.9	85.1
2025-09-23T12:15	10	18	0.6	17	19	372	0.3	371	373	11.9	83.9
2025-09-23T12:16	10	19	0.1	19	19	372	0.3	371	372	11.9	84.8
2025-09-23T12:17	10	18	0.4	18	19	372	0.2	371	372	11.9	85.0
2025-09-23T12:18	10	17	0.5	16	18	372	0.3	371	373	11.8	85.0
2025-09-23T12:19	10	15	0.6	14	16	372	0.4	372	373	11.8	84.7
2025-09-23T12:20	10	13	0.6	12	14	372	0.3	372	373	11.8	85.9
2025-09-23T12:21	10	12	0.2	11	12	373	0.2	372	373	11.8	85.8
2025-09-23T12:22	10	11	0.2	11	11	372	0.4	372	373	11.8	87.2
2025-09-23T12:23	10	10	0.2	10	11	372	0.2	372	373	11.8	86.9
2025-09-23T12:24	10	10	0.2	9	10	372	0.3	372	373	11.8	87.2
2025-09-23T12:25	10	9	0.2	9	10	373	0.2	372	373	11.8	86.7
2025-09-23T12:26	10	9	0.2	9	10	373	0.3	372	373	11.8	87.0
2025-09-23T12:27	10	10	0.4	9	11	373	0.3	372	373	11.9	88.1
2025-09-23T12:28	10	11	0.3	11	12	373	0.2	372	373	11.8	88.8
2025-09-23T12:29	10	12	0.4	12	13	373	0.3	372	373	11.7	88.7
2025-09-23T12:30	10	14	0.3	13	14	373	0.3	372	373	11.7	89.2
2025-09-23T12:31	10	14	0.1	14	14	373	0.3	373	374	11.7	90.2
2025-09-23T12:32	10	14	0.1	14	14	373	0.3	373	374	11.7	91.1
2025-09-23T12:33	10	14	0.1	14	15	373	0.3	373	374	11.7	91.7
2025-09-23T12:34	10	15	0.2	15	16	374	0.2	374	375	11.7	91.0
2025-09-23T12:35	10	15	0.4	14	16	374	0.3	373	374	11.7	89.3
2025-09-23T12:36	10	13	0.8	11	14	373	0.3	373	374	11.7	89.6
2025-09-23T12:37	10	10	0.6	9	11	373	0.3	372	374	11.7	87.8
2025-09-23T12:38	10	8	0.6	7	9	372	0.2	371	372	11.7	87.9
2025-09-23T12:39	10	6	0.6	5	7	372	0.2	372	373	11.7	89.5
2025-09-23T12:40	10	4	0.4	4	5	372	0.3	372	373	11.7	90.8
2025-09-23T12:41	10	3	0.1	3	4	372	0.2	372	372	11.7	91.8
2025-09-23T12:42	10	3	0.1	3	3	371	0.5	370	372	11.4	90.7
2025-09-23T12:43	10	3	0.1	3	3	370	0.2	369	370	11.4	91.1
2025-09-23T12:44	10	3	0.1	3	3	370	0.3	369	370	11.3	90.9
2025-09-23T12:45	10	3	0.1	3	3	369	0.2	369	370	11.3	91.3
2025-09-23T12:46	10	3	0.2	3	4	370	0.3	369	370	11.3	91.7
2025-09-23T12:47	10	4	0.2	3	4	370	0.3	369	370	11.2	91.5
2025-09-23T12:48	10	5	0.3	4	5	370	0.2	369	370	11.2	91.7
2025-09-23T12:49	10	6	0.4	5	7	370	0.2	369	370	11.2	91.1
2025-09-23T12:50	10	7	0.5	6	8	369	0.3	369	370	11.2	89.4
2025-09-23T12:51	10	9	0.5	8	10	370	0.2	369	370	11.2	88.8
2025-09-23T12:52	10	10	0.3	10	11	370	0.4	369	371	11.2	89.3
2025-09-23T12:53	10	11	0.3	11	12	370	0.2	369	371	11.2	89.0
2025-09-23T12:54	10	12	0.3	12	13	370	0.3	369	370	11.2	88.2
2025-09-23T12:55	10	14	0.5	13	14	370	0.4	369	371	11.2	89.0
2025-09-23T12:56	10	15	0.5	14	16	371	0.3	370	371	11.2	89.6
2025-09-23T12:57	10	16	0.2	16	17	371	0.3	370	371	11.1	89.0
2025-09-23T12:58	10	17	0.1	16	17	370	0.3	370	371	11.1	89.5
2025-09-23T12:59	10	17	0.2	16	17	370	0.2	370	371	11.0	89.6
2025-09-23T13:00	10	17	0.2	17	18	371	0.2	370	371	11.0	90.6
2025-09-23T13:01	10	17	0.1	17	18	371	0.3	370	371	11.0	90.9
2025-09-23T13:02	10	17	0.1	17	17	370	0.3	370	371	10.9	91.2
2025-09-23T13:03	10	17	0.1	17	18	372	0.3	371	372	11.0	92.5
2025-09-23T13:04	10	17	0.2	17	18	371	0.4	371	372	11.0	93.7
2025-09-23T13:05	10	17	0.1	17	17	371	0.2	370	371	10.9	93.5
2025-09-23T13:06	10	18	0.1	17	18	371	0.2	370	371	10.8	92.8
2025-09-23T13:07	10	18	0.1	17	18	371	0.4	370	372	10.9	93.8
2025-09-23T13:08	10	18	0.2	17	18	372	0.2	371	372	10.8	93.8
2025-09-23T13:09	10	18	0.1	18	18	372	0.2	372	372	10.8	94.2
2025-09-23T13:10	10	18	0.1	18	18	372	0.2	371	373	10.8	94.2
2025-09-23T13:11	10	18	0.1	18	18	372	0.2	372	373	10.8	94.4
2025-09-23T13:12	10	17	0.1	17	18	372	0.3	371	373	10.8	93.8
2025-09-23T13:13	10	17	0.1	17	17	372	0.3	371	373	10.8	93.6
2025-09-23T13:14	10	17	0.1	17	17	372	0.2	372	372	10.9	94.3
2025-09-23T13:15	10	17	0.2	17	17	372	0.2	372	373	10.9	94.9
2025-09-23T13:16	10	18	0.2	17	18	373	0.2	372	373	10.8	94.6
2025-09-23T13:17	10	18	0.2	18	19	373	0.3	372	373	10.9	94.6
2025-09-23T13:18	10	19	0.3	19	20	373	0.4	372	373	10.9	94.6
2025-09-23T13:19	10	20	0.2	19	20	373	0.3	372	373	10.9	93.6
2025-09-23T13:20	10	20	0.1	20	21	373	0.3	372	373	10.9	92.9
2025-09-23T13:21	10	20	0.1	20	20	373	0.3	372	373	10.9	92.7
2025-09-23T13:22	10	20	0.3	19	20	373	0.4	372	374	11.0	93.8
2025-09-23T13:23	10	18	0.5	18	19	373	0.2	373	374	10.9	93.0
2025-09-23T13:24	10	17	0.5	16	18	374	0.3	373	374	10.9	92.8
2025-09-23T13:25	10	15	0.4	15	16	374	0.2	374	375	11.1	93.8
2025-09-23T13:26	10	15	0.2	14	15	374	0.2	373	374	11.0	93.8
2025-09-23T13:27	10	14	0.1	14	15	374	0.3	373	375	10.9	93.1
2025-09-23T13:28	10	15	0.1	14	15	373	0.2	373	374	11.0	92.6
2025-09-23T13:29	10	15	0.1	15	15	373	0.2	373	374	10.9	92.0
2025-09-23T13:30	10	15	0.1	15	15	373	0.2	372	373	10.9	91.5
2025-09-23T13:31	10	15	0.1	15	15	372	0.3	372	373	11.0	91.9
2025-09-23T13:32	10	15	0.2	15	16	373	0.2	372	373	10.9	91.9
2025-09-23T13:33	10	16	0.3	15	17	373	0.2	372	373	11.0	92.1
2025-09-23T13:34	10	17	0.4	17	18	373	0.3	373	374	11.0	92.2
2025-09-23T13:35	10	19	0.5	18	20	373	0.2	373	374	10.9	91.4
2025-09-23T13:36	10	20	0.5	20	21	373	0.3	373	374	10.9	90.6
2025-09-23T13:37	10	22	0.4	21	23	374	0.2	373	374	10.9	90.7
2025-09-23T13:38	10	23	0.2	23	23	374	0.3	373	374	10.9	90.0
2025-09-23T13:39	10	23	0.1	23	23	374	0.2	373	374	11.0	90.6
2025-09-23T13:40	10	23	0.2	22	23	373	0.2	373	374	10.9	90.5
2025-09-23T13:41	10	22	0.1	22	22	373	0.4	373	374	10.9	90.0
2025-09-23T13:42	10	22	0.1	22	22	373	0.2	373	374	10.9	90.6
2025-09-23T13:43	10	22	0.1	22	22	373	0.4	373	374	10.9	90.2
2025-09-23T13:44	10	22	0.1	22	22	374	0.3	373	374	10.9	89.8
2025-09-23T13:45	10	22	0.1	21	22	373	0.2	373	374	10.9	91.0
2025-09-23T13:46	10	22	0.1	21	22	373	0.5	372	374	10.9	90.0
2025-09-23T13:47	10	22	0.1	21	22	372	0.3	371	373	10.8	90.3
2025-09-23T13:48	10	22	0.2	22	23	372	0.2	371	372	10.8	89.7
2025-09-23T13:49	10	23	0.4	22	24	372	0.2	372	373	10.8	90.3
2025-09-23T13:50	10	25	0.4	24	25	373	0.2	373	373	10.9	91.4
2025-09-23T13:51	10	26	0.3	25	26	373	0.4	372	373	10.8	89.6
2025-09-23T13:52	10	27	0.3	26	27	373	0.4	372	374	10.9	90.8
2025-09-23T13:53	10	28	0.5	27	29	373	0.3	373	374	10.9	92.9
2025-09-23T13:54	10	30	0.7	29	31	373	0.2	373	374	10.9	93.6
2025-09-23T13:55	10	32	0.7	31	34	374	0.2	374	375	10.9	93.7
2025-09-23T13:56	10	35	0.5	34	35	375	0.4	374	375	10.9	94.3
2025-09-23T13:57	10	36	0.3	35	37	376	0.3	375	376	10.9	94.2
2025-09-23T13:58	10	37	0.2	36	37	376	0.2	376	377	10.9	93.9
2025-09-23T13:59	10	37	0.1	37	38	376	0.3	376	377	10.8	92.9
2025-09-23T14:00	10	38	0.1	38	38	376	0.3	375	376	10.8	92.7
2025-09-23T14:01	10	38	0.1	38	39	377	0.4	376	378	10.8	93.1
2025-09-23T14:02	10	38	0.1	38	39	377	0.3	377	378	10.8	92.9
2025-09-23T14:03	10	38	0.2	37	38	378	0.2	377	378	10.8	91.6
2025-09-23T14:04	10	37	0.4	36	37	378	0.2	377	379	10.9	91.7
2025-09-23T14:05	10	36	0.4	35	36	378	0.4	377	378	10.8	88.5
2025-09-23T14:06	10	34	0.3	34	35	378	0.2	378	379	11.0	90.4
2025-09-23T14:07	10	33	0.3	33	34	378	0.4	377	378	10.9	90.2
2025-09-23T14:08	10	32	0.4	32	33	377	0.3	376	378	10.9	88.3
2025-09-23T14:09	10	31	0.4	31	32	376	0.5	375	377	10.9	88.9
2025-09-23T14:10	10	30	0.2	30	31	375	0.4	375	376	10.9	87.9
2025-09-23T14:11	10	29	0.2	29	30	375	0.2	375	376	11.1	90.4
2025-09-23T14:12	10	29	0.1	29	29	374	0.3	374	375	11.0	89.9
2025-09-23T14:13	10	28	0.2	28	29	373	0.4	373	375	10.9	88.2
2025-09-23T14:14	10	28	0.3	27	28	373	0.4	372	374	11.0	89.6
2025-09-23T14:15	10	27	0.4	26	27	372	0.3	372	373	10.9	89.5
2025-09-23T14:16	10	25	0.4	25	26	372	0.2	371	372	10.9	88.8
2025-09-23T14:17	10	24	0.5	23	25	371	0.2	371	372	10.9	88.4
2025-09-23T14:18	10	23	0.4	22	23	371	0.2	371	372	10.9	88.0
2025-09-23T14:19	10	21	0.4	20	22	371	0.3	370	372	10.9	87.6
2025-09-23T14:20	10	20	0.4	19	20	371	0.2	371	372	11.0	87.9
2025-09-23T14:21	10	18	0.5	17	19	371	0.4	370	371	11.0	87.7
2025-09-23T14:22	10	16	0.5	16	17	370	0.2	370	371	11.0	86.8
2025-09-23T14:23	10	15	0.5	14	16	370	0.3	369	371	11.0	87.8
2025-09-23T14:24	10	13	0.4	13	14	370	0.3	370	371	11.0	89.0
2025-09-23T14:25	10	12	0.4	11	13	370	0.3	369	371	11.0	87.2
2025-09-23T14:26	10	11	0.4	10	11	370	0.3	369	370	11.1	87.5
2025-09-23T14:27	10	9	0.3	9	10	370	0.2	369	370	11.1	88.4
2025-09-23T14:28	10	8	0.2	8	9	369	0.2	369	370	11.0	88.3
2025-09-23T14:29	10	7	0.2	7	8	369	0.2	368	370	11.0	88.6
2025-09-23T14:30	10	7	0.2	7	7	368	0.3	368	369	11.0	88.9
2025-09-23T14:31	10	6	0.2	6	7	368	0.2	368	369	11.0	88.0
2025-09-23T14:32	10	6	0.1	6	6	368	0.3	368	369	11.0	88.8
2025-09-23T14:33	10	6	0.2	5	6	368	0.3	367	369	11.0	89.1
2025-09-23T14:34	10	5	0.1	5	5	368	0.3	367	368	11.0	87.4
2025-09-23T14:35	10	5	0.1	5	5	368	0.2	367	368	11.0	87.4
2025-09-23T14:36	10	5	0.1	5	5	368	0.2	367	368	11.0	87.7
2025-09-23T14:37	10	5	0.1	4	5	368	0.2	367	368	11.0	88.6
2025-09-23T14:38	10	4	0.1	4	5	368	0.3	367	368	11.0	88.0
2025-09-23T14:39	10	4	0.1	4	5	368	0.2	367	368	11.0	87.9
2025-09-23T14:40	10	4	0.1	4	4	367	0.3	367	368	11.0	87.4
2025-09-23T14:41	10	4	0.1	4	4	367	0.3	366	368	11.0	87.4
2025-09-23T14:42	10	4	0.1	4	4	367	0.3	366	368	11.0	86.8
2025-09-23T14:43	10	4	0.1	4	5	367	0.3	366	368	11.0	87.5
2025-09-23T14:44	10	5	0.1	5	5	367	0.2	367	368	11.0	87.2
2025-09-23T14:45	10	5	0.1	5	5	367	0.3	367	368	11.0	88.1
2025-09-23T14:46	10	5	0.1	5	5	368	0.2	367	368	11.0	88.2
2025-09-23T14:47	10	5	0.1	5	5	367	0.2	367	368	11.0	87.8
2025-09-23T14:48	10	5	0.1	5	5	367	0.2	367	368	11.0	88.3
2025-09-23T14:49	10	5	0.1	5	5	368	0.2	367	368	11.0	87.3
2025-09-23T14:50	10	5	0.1	5	5	367	0.3	366	368	11.0	87.5
2025-09-23T14:51	10	5	0.1	5	5	367	0.2	367	368	11.0	88.2
2025-09-23T14:52	10	5	0.1	4	5	367	0.2	367	368	11.0	87.7
2025-09-23T14:53	10	4	0.1	4	4	367	0.3	366	368	11.1	87.5
2025-09-23T14:54	10	4	0.1	4	4	367	0.2	367	368	11.1	87.4
2025-09-23T14:55	10	4	0.1	4	4	367	0.2	366	367	11.1	87.1
2025-09-23T14:56	10	4	0.1	4	4	367	0.2	367	368	11.1	88.1
2025-09-23T14:57	10	4	0.1	4	4	367	0.2	367	367	11.0	90.4
2025-09-23T14:58	10	4	0.1	4	4	367	0.2	366	367	10.9	91.1
2025-09-23T14:59	10	4	0.1	4	4	367	0.2	366	367	10.9	92.3
2025-09-23T15:00	10	4	0.1	4	4	367	0.3	366	368	10.8	91.6
2025-09-23T15:01	10	4	0.1	4	4	367	0.2	366	367	10.8	90.8
2025-09-23T15:02	10	4	0.1	4	5	367	0.2	366	367	10.9	88.8
2025-09-23T15:03	10	5	0.1	5	5	367	0.2	366	367	10.9	89.3
2025-09-23T15:04	10	5	0.1	5	5	367	0.2	366	367	10.8	90.9
2025-09-23T15:05	10	5	0.1	4	5	367	0.2	366	367	10.8	91.9
2025-09-23T15:06	10	5	0.1	4	5	367	0.2	366	367	10.7	92.5
2025-09-23T15:07	10	5	0.1	4	5	367	0.2	366	367	10.8	93.1
2025-09-23T15:08	10	5	0.1	5	5	367	0.2	366	367	10.7	92.2
2025-09-23T15:09	10	5	0.1	5	5	367	0.3	366	367	10.8	91.6
2025-09-23T15:10	10	5	0.2	5	6	367	0.2	366	368	10.8	91.7
2025-09-23T15:11	10	6	0.2	6	7	367	0.2	367	368	10.8	90.7
2025-09-23T15:12	10	7	0.2	6	7	367	0.2	366	368	10.8	90.6
2025-09-23T15:13	10	8	0.2	7	8	367	0.2	367	368	10.8	91.3
2025-09-23T15:14	10	8	0.2	8	9	367	0.4	367	368	10.8	92.8
2025-09-23T15:15	10	9	0.2	8	9	368	0.2	367	368	10.8	93.2
2025-09-23T15:16	10	10	0.2	9	10	368	0.2	368	369	10.8	93.2
2025-09-23T15:17	10	10	0.3	10	11	368	0.3	368	369	10.8	93.1
2025-09-23T15:18	10	11	0.3	11	12	369	0.3	368	370	10.8	93.4
2025-09-23T15:19	10	12	0.2	12	12	369	0.2	369	369	10.8	92.9
2025-09-23T15:20	10	13	0.3	12	13	369	0.2	369	370	10.8	92.8
2025-09-23T15:21	10	14	0.3	13	14	370	0.3	369	370	10.8	93.2
2025-09-23T15:22	10	15	0.4	14	16	370	0.3	369	370	10.8	93.5
2025-09-23T15:23	10	16	0.4	15	17	370	0.2	370	371	10.8	93.8
2025-09-23T15:24	10	17	0.3	17	18	371	0.3	370	371	10.8	94.0
2025-09-23T15:25	10	18	0.4	18	19	371	0.2	370	372	10.9	94.6
2025-09-23T15:26	10	20	0.5	19	21	372	0.2	371	372	10.8	94.8
2025-09-23T15:27	10	22	0.4	21	22	372	0.2	372	373	10.8	94.7
2025-09-23T15:28	10	23	0.3	22	23	372	0.3	372	373	10.8	94.6
2025-09-23T15:29	10	23	0.2	23	24	373	0.2	372	373	10.9	94.8
2025-09-23T15:30	10	24	0.1	24	24	373	0.4	372	374	10.9	94.8
2025-09-23T15:31	10	24	0.1	24	24	374	0.2	373	374	10.8	94.4
2025-09-23T15:32	10	23	0.3	23	24	374	0.2	373	374	10.8	94.2
2025-09-23T15:33	10	22	0.3	21	23	374	0.3	373	374	10.9	94.3
2025-09-23T15:34	10	21	0.4	20	22	374	0.4	373	375	10.9	93.8
2025-09-23T15:35	10	20	0.4	19	21	373	0.3	372	374	10.9	93.3
2025-09-23T15:36	10	19	0.3	18	19	373	0.3	372	373	10.9	93.1
2025-09-23T15:37	10	17	0.3	17	18	372	0.3	372	373	10.9	93.1
2025-09-23T15:38	10	16	0.2	16	17	372	0.3	371	373	10.9	93.4
2025-09-23T15:39	10	16	0.1	16	16	372	0.3	371	372	10.9	93.4
2025-09-23T15:40	10	16	0.1	16	16	371	0.2	371	371	10.8	93.2
2025-09-23T15:41	10	17	0.3	16	17	371	0.2	371	372	10.9	93.3
2025-09-23T15:42	10	18	0.3	17	18	372	0.2	371	372	10.9	93.2
2025-09-23T15:43	10	19	0.3	18	19	372	0.2	371	372	10.9	93.5
2025-09-23T15:44	10	20	0.4	19	21	372	0.3	372	373	10.9	93.7
2025-09-23T15:45	10	21	0.3	21	22	373	0.2	372	373	10.9	93.8
2025-09-23T15:46	10	22	0.2	21	22	373	0.3	372	374	11.0	94.0
2025-09-23T15:47	10	22	0.1	22	22	373	0.2	373	374	11.0	93.8
2025-09-23T15:48	10	22	0.1	22	22	373	0.2	373	374	11.0	93.7
2025-09-23T15:49	10	23	0.1	22	23	374	0.3	373	374	11.0	93.1
2025-09-23T15:50	10	23	0.1	23	23	373	0.3	373	374	10.9	92.1
2025-09-23T15:51	10	23	0.2	23	24	374	0.3	373	374	11.0	91.9
2025-09-23T15:52	10	24	0.5	23	25	374	0.2	373	374	11.0	91.8
2025-09-23T15:53	10	23	0.1	23	23	373	0.2	373	374	11.0	91.9
2025-09-23T15:54	10	23	0.0	23	23	374	0.2	373	374	11.0	92.0
2025-09-23T15:55	10	23	0.1	23	23	374	0.2	373	374	11.1	92.3
2025-09-23T15:56	10	23	0.1	23	23	374	0.2	373	374	11.0	91.6
2025-09-23T15:57	10	23	0.1	23	23	373	0.3	373	374	11.1	91.1
2025-09-23T15:58	10	23	0.1	23	23	373	0.2	373	374	11.1	92.1
2025-09-23T15:59	10	23	0.3	23	24	373	0.3	373	374	11.1	91.4
2025-09-23T16:00	10	24	0.4	24	25	373	0.2	372	373	11.1	90.6
2025-09-23T16:01	10	26	0.2	25	26	373	0.3	373	374	11.1	91.2
2025-09-23T16:02	10	26	0.2	26	27	374	0.2	373	374	11.1	90.8
2025-09-23T16:03	10	27	0.1	27	27	374	0.2	373	374	11.1	91.0
2025-09-23T16:04	10	27	0.1	27	27	374	0.2	374	374	11.1	90.6
2025-09-23T16:05	10	27	0.1	27	28	374	0.3	374	375	11.1	90.8
2025-09-23T16:06	10	28	0.1	27	28	375	0.2	374	375	11.1	91.1
2025-09-23T16:07	10	27	0.3	27	28	375	0.2	375	376	11.1	91.2
2025-09-23T16:08	10	26	0.4	26	27	375	0.2	375	376	11.2	90.8
2025-09-23T16:09	10	25	0.6	24	26	375	0.2	375	376	11.1	88.3
2025-09-23T16:10	10	22	0.8	21	23	375	0.3	374	376	11.2	88.6
2025-09-23T16:11	10	19	0.8	18	21	375	0.2	374	375	11.3	89.5
2025-09-23T16:12	10	16	0.8	15	18	374	0.2	374	375	11.3	88.4
2025-09-23T16:13	10	14	0.6	13	15	374	0.3	373	374	11.3	88.4
2025-09-23T16:14	10	12	0.5	11	13	373	0.3	373	374	11.2	87.4
2025-09-23T16:15	10	10	0.5	10	11	373	0.2	372	373	11.2	86.9
2025-09-23T16:16	10	9	0.4	8	10	372	0.2	372	373	11.2	87.3
2025-09-23T16:17	10	8	0.3	7	8	372	0.2	371	373	11.3	88.1
2025-09-23T16:18	10	7	0.3	6	7	372	0.4	371	372	11.2	86.4
2025-09-23T16:19	10	6	0.2	5	6	371	0.2	370	371	11.2	84.4
2025-09-23T16:20	10	5	0.2	5	6	370	0.2	370	371	11.3	84.2
2025-09-23T16:21	10	5	0.1	4	5	370	0.2	370	370	11.3	85.8
2025-09-23T16:22	10	4	0.1	4	5	370	0.2	370	370	11.2	85.2
2025-09-23T16:23	10	4	0.1	4	4	370	0.2	369	370	11.2	84.7
2025-09-23T16:24	10	4	0.1	4	4	369	0.2	369	370	11.2	86.1
2025-09-23T16:25	10	4	0.1	3	4	369	0.2	369	370	11.2	85.3
2025-09-23T16:26	10	3	0.1	3	4	369	0.2	369	370	11.2	84.3
2025-09-23T16:27	10	3	0.1	3	4	369	0.2	369	369	11.2	85.2
2025-09-23T16:28	10	3	0.1	3	3	369	0.2	368	369	11.2	85.6
2025-09-23T16:29	10	3	0.1	3	3	369	0.2	368	369	11.2	84.7
2025-09-23T16:30	10	3	0.1	3	3	368	0.2	368	369	11.2	84.1
2025-09-23T16:31	10	3	0.1	3	3	368	0.2	368	369	11.2	85.8
2025-09-23T16:32	10	3	0.1	3	3	368	0.2	368	369	11.2	86.7
2025-09-23T16:33	10	3	0.1	3	3	368	0.2	368	369	11.2	86.3
2025-09-23T16:34	10	3	0.1	2	3	368	0.2	368	369	11.2	86.2
2025-09-23T16:35	10	2	0.1	2	3	368	0.3	368	369	11.2	86.8
2025-09-23T16:36	10	2	0.1	2	2	368	0.2	367	369	11.2	88.5
2025-09-23T16:37	10	2	0.1	2	2	368	0.3	367	369	11.1	89.7
2025-09-23T16:38	10	2	0.1	2	2	368	0.2	367	368	11.1	89.3
2025-09-23T16:39	10	2	0.1	2	2	368	0.2	367	368	11.1	88.7
2025-09-23T16:40	10	2	0.1	2	2	368	0.3	367	368	11.1	88.4
2025-09-23T16:41	10	2	0.1	1	2	367	0.2	367	368	11.1	88.5
2025-09-23T16:42	10	1	0.1	1	2	368	0.2	367	368	11.1	88.2
2025-09-23T16:43	10	1	0.1	1	2	368	0.2	367	368	11.1	87.3
2025-09-23T16:44	10	1	0.1	1	2	368	0.2	367	368	11.1	86.7
2025-09-23T16:45	10	1	0.1	1	2	368	0.2	367	368	11.1	86.8
2025-09-23T16:46	10	1	0.2	1	2	368	0.2	368	369	11.2	87.8
2025-09-23T16:47	10	1	0.1	1	2	368	0.2	367	368	11.1	86.4
2025-09-23T16:48	10	1	0.1	1	2	368	0.2	367	368	11.1	86.2
2025-09-23T16:49	10	1	0.1	1	2	368	0.2	367	368	11.2	87.0
2025-09-23T16:50	10	2	0.1	1	2	368	0.3	367	368	11.2	87.5
2025-09-23T16:51	10	2	0.1	2	2	367	0.2	367	368	11.2	90.8
2025-09-23T16:52	10	2	0.1	2	2	368	0.2	367	368	11.1	92.0
2025-09-23T16:53	10	3	0.1	2	3	368	0.2	367	368	11.1	90.3
2025-09-23T16:54	10	2	0.1	2	3	367	0.2	367	368	11.1	90.4
2025-09-23T16:55	10	2	0.1	2	2	368	0.2	367	368	11.1	89.4
2025-09-23T16:56	10	2	0.1	2	3	368	0.3	367	368	11.1	89.2
2025-09-23T16:57	10	3	0.2	2	3	367	0.3	367	368	11.1	90.6
2025-09-23T16:58	10	3	0.4	2	3	368	0.2	367	368	11.1	91.2
2025-09-23T16:59	10	2	0.1	2	2	367	0.2	367	368	11.1	90.2
2025-09-23T17:00	10	2	0.1	2	2	367	0.2	367	368	11.1	88.2
2025-09-23T17:01	10	2	0.1	2	3	367	0.2	367	367	11.1	87.6
2025-09-23T17:02	10	3	0.3	2	4	367	0.3	366	367	11.1	87.7
2025-09-23T17:03	10	4	0.1	3	4	367	0.2	366	367	11.1	89.4
2025-09-23T17:04	10	3	0.2	3	3	367	0.2	366	367	11.1	90.8
2025-09-23T17:05	10	4	0.3	3	4	367	0.2	366	367	11.1	91.8
2025-09-23T17:06	10	4	0.3	4	5	367	0.2	367	367	11.0	92.4
2025-09-23T17:07	10	5	0.1	4	5	367	0.3	366	367	11.0	92.7
2025-09-23T17:08	10	4	0.1	4	4	367	0.2	366	367	10.9	92.9
2025-09-23T17:09	10	4	0.1	4	5	367	0.2	366	367	10.9	93.3
2025-09-23T17:10	10	4	0.1	4	5	367	0.2	366	367	10.9	93.5
2025-09-23T17:11	10	5	0.1	4	5	367	0.2	366	367	10.8	93.6
2025-09-23T17:12	10	5	0.1	4	5	367	0.2	366	367	10.8	94.1
2025-09-23T17:13	10	5	0.1	5	5	367	0.2	366	367	10.8	94.2
2025-09-23T17:14	10	5	0.1	5	5	367	0.2	366	367	10.7	93.7
2025-09-23T17:15	10	5	0.1	5	5	367	0.2	366	367	10.8	93.9
2025-09-23T17:16	10	5	0.1	5	5	367	0.2	366	367	10.8	94.2
2025-09-23T17:17	10	5	0.1	5	6	367	0.2	366	367	10.8	94.6
2025-09-23T17:18	10	6	0.1	5	6	367	0.2	366	367	10.8	94.4
2025-09-23T17:19	10	6	0.1	6	6	367	0.2	366	367	10.8	94.4
2025-09-23T17:20	10	6	0.1	6	6	367	0.2	367	367	10.8	94.8
2025-09-23T17:21	10	6	0.1	5	6	367	0.2	366	367	10.8	94.8
2025-09-23T17:22	10	5	0.1	5	5	367	0.2	366	367	10.8	95.5
2025-09-23T17:23	10	5	0.1	5	5	367	0.2	366	367	10.8	95.3
2025-09-23T17:24	10	5	0.2	4	5	367	0.3	366	367	10.8	95.1
2025-09-23T17:25	10	4	0.1	4	5	367	0.2	366	367	10.8	95.2
2025-09-23T17:26	10	4	0.1	4	4	367	0.2	366	367	10.8	95.4
2025-09-23T17:27	10	4	0.2	3	4	367	0.3	366	367	10.8	95.1
2025-09-23T17:28	10	3	0.2	3	4	367	0.2	366	367	10.8	95.0
2025-09-23T17:29	10	2	0.2	2	3	367	0.2	366	367	10.8	95.5
2025-09-23T17:30	10	2	0.3	1	2	366	0.2	366	367	10.8	95.3
2025-09-23T17:31	10	1	0.1	1	1	366	0.2	366	367	10.8	94.9
2025-09-23T17:32	10	1	0.1	0	1	366	0.2	366	367	10.8	95.0
2025-09-23T17:33	10	0	0.1	0	1	366	0.2	366	366	10.8	94.8
2025-09-23T17:34	10	0	0.1	0	0	366	0.2	365	366	10.8	94.5
2025-09-23T17:35	10	0	0.1	0	0	366	0.3	365	367	10.8	94.4
2025-09-23T17:36	10	0	0.1	0	0	366	0.2	366	367	10.8	94.4
2025-09-23T17:37	10	0	0.1	0	0	366	0.3	366	367	10.8	94.2
2025-09-23T17:38	10	0	0.0	0	0	366	0.2	365	366	10.8	94.0
2025-09-23T17:39	10	0	0.1	0	0	366	0.2	365	366	10.8	93.9
2025-09-23T17:40	10	0	0.0	0	0	366	0.2	365	366	10.8	93.9
2025-09-23T17:41	10	0	0.0	0	0	366	0.2	365	366	10.8	93.7
2025-09-23T17:42	10	0	0.0	0	0	366	0.2	365	366	10.9	93.6
2025-09-23T17:43	10	0	0.0	0	0	366	0.2	365	366	10.9	93.6
2025-09-23T17:44	10	0	0.0	0	0	366	0.3	365	366	10.9	93.7
2025-09-23T17:45	10	0	0.1	0	0	366	0.2	365	366	10.9	93.9
2025-09-23T17:46	10	0	0.0	0	0	366	0.2	366	366	10.9	94.1
2025-09-23T17:47	10	0	0.0	0	0	366	0.2	365	366	10.9	94.1
2025-09-23T17:48	10	0	0.0	0	0	366	0.2	366	367	11.0	94.3
2025-09-23T17:49	10	0	0.0	0	0	366	0.2	366	367	10.9	94.6
2025-09-23T17:50	10	0	0.0	0	0	366	0.2	366	367	11.0	94.5
2025-09-23T17:51	10	0	0.1	0	0	366	0.2	366	367	10.9	94.6
2025-09-23T17:52	10	0	0.1	0	0	366	0.2	366	367	10.9	94.3
2025-09-23T17:53	10	0	0.0	0	0	366	0.2	366	367	11.0	94.5
2025-09-23T17:54	10	0	0.0	0	0	366	0.2	366	367	11.0	94.7
2025-09-23T17:55	10	0	0.1	0	0	366	0.2	366	367	10.9	94.6
2025-09-23T17:56	10	0	0.1	0	0	366	0.3	366	367	10.9	94.3
2025-09-23T17:57	10	0	0.0	0	0	366	0.3	366	367	10.9	93.9
2025-09-23T17:58	10	0	0.0	0	0	366	0.2	366	367	10.9	93.7
2025-09-23T17:59	10	0	0.0	0	0	366	0.2	366	366	11.0	93.6
2025-09-23T18:00	10	0	0.0	0	0	366	0.2	366	367	11.0	93.6
2025-09-23T18:01	10	0	0.0	0	0	366	0.2	366	366	11.0	93.3
2025-09-23T18:02	10	0	0.0	0	0	366	0.2	365	366	11.0	93.9
2025-09-23T18:03	10	0	0.1	0	0	366	0.2	365	366	11.0	91.9
2025-09-23T18:04	10	0	0.1	0	0	366	0.3	365	366	11.0	91.7
2025-09-23T18:05	10	0	0.0	0	0	365	0.2	365	366	11.0	91.9
2025-09-23T18:06	10	0	0.0	0	0	365	0.3	365	366	11.0	92.0
2025-09-23T18:07	10	0	0.0	0	0	365	0.2	365	366	11.0	92.7
2025-09-23T18:08	10	0	0.1	0	0	365	0.2	365	366	11.0	94.3
2025-09-23T18:09	10	0	0.0	0	0	365	0.2	365	365	10.9	94.6
2025-09-23T18:10	10	0	0.1	0	0	365	0.2	365	366	10.9	95.4
2025-09-23T18:11	10	0	0.1	0	0	365	0.2	364	365	10.8	95.4
2025-09-23T18:12	10	0	0.1	0	0	365	0.3	365	366	10.8	95.6
2025-09-23T18:13	10	0	0.1	0	0	365	0.2	364	365	10.8	95.9
2025-09-23T18:14	10	0	0.1	0	0	365	0.2	364	365	10.8	96.0
2025-09-23T18:15	10	0	0.1	0	0	365	0.2	365	366	10.8	96.2
2025-09-23T18:16	10	0	0.1	0	0	365	0.2	364	365	10.8	96.5
2025-09-23T18:17	10	0	0.1	0	0	365	0.2	364	365	10.8	96.5
2025-09-23T18:18	10	0	0.1	0	0	365	0.2	365	366	10.8	96.3
2025-09-23T18:19	10	0	0.0	0	0	365	0.2	365	366	10.8	96.1
2025-09-23T18:20	10	0	0.1	0	0	365	0.2	365	366	10.8	96.1
2025-09-23T18:21	10	0	0.0	0	0	365	0.2	365	366	10.7	96.6
2025-09-23T18:22	10	0	0.1	0	0	365	0.3	364	366	10.7	96.9
2025-09-23T18:23	10	0	0.1	0	0	365	0.2	364	365	10.7	97.0
2025-09-23T18:24	10	0	0.1	0	0	365	0.2	364	366	10.7	97.3
2025-09-23T18:25	10	0	0.1	0	0	365	0.2	365	366	10.7	97.6
2025-09-23T18:26	10	0	0.1	0	0	365	0.2	365	366	10.8	97.9
2025-09-23T18:27	10	0	0.1	0	0	365	0.2	364	365	10.7	97.9
2025-09-23T18:28	10	0	0.1	0	0	365	0.2	364	365	10.7	97.8
2025-09-23T18:29	10	0	0.0	0	0	365	0.2	365	366	10.7	97.4
2025-09-23T18:30	10	0	0.1	0	0	365	0.2	364	366	10.7	97.2
2025-09-23T18:31	10	0	0.1	0	0	365	0.2	365	366	10.7	96.8
2025-09-23T18:32	10	0	0.1	0	0	365	0.2	365	366	10.7	96.1
2025-09-23T18:33	10	0	0.1	0	0	366	0.3	365	366	10.8	95.3
2025-09-23T18:34	10	0	0.1	0	0	365	0.2	365	366	10.8	94.9
2025-09-23T18:35	10	0	0.1	0	0	366	0.2	365	366	10.9	94.6
2025-09-23T18:36	10	0	0.1	0	0	365	0.2	365	366	10.9	94.2
2025-09-23T18:37	10	0	0.1	0	0	365	0.2	365	366	10.9	94.3
2025-09-23T18:38	10	0	0.1	0	0	365	0.2	365	366	10.9	93.7
2025-09-23T18:39	10	0	0.1	0	0	365	0.2	364	365	10.9	93.4
2025-09-23T18:40	10	0	0.1	0	0	365	0.2	365	366	10.9	93.8
2025-09-23T18:41	10	0	0.0	0	0	365	0.2	364	365	10.9	94.2
2025-09-23T18:42	10	0	0.1	0	0	365	0.2	364	366	10.9	94.6
2025-09-23T18:43	10	0	0.1	0	0	365	0.3	364	365	10.9	95.0
2025-09-23T18:44	10	0	0.1	0	0	365	0.2	364	365	10.9	95.1
2025-09-23T18:45	10	0	0.0	0	0	365	0.2	364	365	10.8	95.1
2025-09-23T18:46	10	0	0.0	0	0	365	0.2	365	365	10.8	95.5
2025-09-23T18:47	10	0	0.1	0	0	365	0.2	365	366	10.8	96.2
2025-09-23T18:48	10	0	0.1	0	0	365	0.2	365	365	10.8	96.8
2025-09-23T18:49	10	0	0.1	0	0	365	0.2	365	365	10.8	97.1
2025-09-23T18:50	10	0	0.1	0	0	365	0.2	364	365	10.7	97.1
2025-09-23T18:51	10	0	0.1	0	0	365	0.2	364	365	10.7	97.3
2025-09-23T18:52	10	0	0.1	0	0	364	0.2	364	365	10.6	97.6
2025-09-23T18:53	10	0	0.1	0	0	365	0.2	364	365	10.6	97.8
2025-09-23T18:54	10	0	0.1	0	0	365	0.2	364	365	10.6	98.2
2025-09-23T18:55	10	0	0.1	0	0	365	0.2	364	365	10.6	98.1
2025-09-23T18:56	10	0	0.1	0	0	364	0.3	364	365	10.6	98.2
2025-09-23T18:57	10	0	0.1	0	0	365	0.2	364	365	10.6	97.9
2025-09-23T18:58	10	0	0.1	0	0	364	0.2	364	365	10.6	98.3
2025-09-23T18:59	10	0	0.1	0	0	365	0.2	364	365	10.7	98.5
2025-09-23T19:00	10	0	0.1	0	0	364	0.2	364	365	10.6	99.0
2025-09-23T19:01	10	0	0.1	0	0	365	0.2	364	365	10.6	98.7
2025-09-23T19:02	10	0	0.1	0	0	365	0.2	364	365	10.6	98.2
2025-09-23T19:03	10	0	0.1	0	0	365	0.2	364	365	10.6	98.1
2025-09-23T19:04	10	0	0.1	0	0	365	0.2	364	365	10.6	98.1
2025-09-23T19:05	10	0	0.1	0	0	365	0.3	364	366	10.7	97.9
2025-09-23T19:06	10	0	0.0	0	0	365	0.2	364	365	10.7	97.9
2025-09-23T19:07	10	0	0.1	0	0	365	0.2	364	366	10.7	98.0
2025-09-23T19:08	10	0	0.1	0	0	365	0.2	365	365	10.7	98.1
2025-09-23T19:09	10	0	0.1	0	0	365	0.2	364	365	10.7	98.1
2025-09-23T19:10	10	0	0.1	0	0	365	0.2	364	365	10.7	98.0
2025-09-23T19:11	10	0	0.1	0	0	365	0.2	364	365	10.7	98.0
2025-09-23T19:12	10	0	0.1	0	0	365	0.2	364	365	10.7	97.9
2025-09-23T19:13	10	0	0.1	0	0	365	0.2	364	365	10.7	98.0
2025-09-23T19:14	10	0	0.1	0	0	364	0.2	364	365	10.7	98.3
2025-09-23T19:15	10	0	0.0	0	0	365	0.2	364	365	10.7	98.1
2025-09-23T19:16	10	0	0.0	0	0	364	0.2	364	365	10.7	98.1
2025-09-23T19:17	10	0	0.1	0	0	364	0.2	364	365	10.7	97.9
2025-09-23T19:18	10	0	0.1	0	0	364	0.2	364	365	10.7	97.7
2025-09-23T19:19	10	0	0.1	0	0	364	0.2	364	365	10.7	97.4
2025-09-23T19:20	10	0	0.1	0	0	364	0.2	364	365	10.7	97.4
2025-09-23T19:21	10	0	0.1	0	0	364	0.2	364	365	10.7	97.3
2025-09-23T19:22	10	0	0.1	0	0	364	0.2	364	365	10.6	97.2
2025-09-23T19:23	10	0	0.1	0	0	364	0.2	364	365	10.7	97.6
2025-09-23T19:24	10	0	0.1	0	0	364	0.2	364	365	10.6	97.7
2025-09-23T19:25	10	0	0.1	0	0	364	0.2	364	365	10.6	97.4
2025-09-23T19:26	10	0	0.1	0	0	365	0.3	364	365	10.6	97.3
2025-09-23T19:27	10	0	0.0	0	0	364	0.2	364	365	10.6	97.2
2025-09-23T19:28	10	0	0.1	0	0	364	0.2	364	365	10.6	97.4
2025-09-23T19:29	10	0	0.1	0	0	364	0.3	363	365	10.6	97.2
2025-09-23T19:30	10	0	0.1	0	0	364	0.2	364	365	10.6	97.2
2025-09-23T19:31	10	0	0.1	0	0	364	0.2	363	365	10.6	96.8
2025-09-23T19:32	10	0	0.1	0	0	364	0.2	363	364	10.6	96.8
2025-09-23T19:33	10	0	0.1	0	0	364	0.2	363	364	10.6	97.1
2025-09-23T19:34	10	0	0.1	0	0	364	0.3	363	364	10.6	97.4
2025-09-23T19:35	10	0	0.1	0	0	364	0.2	363	364	10.6	97.5
2025-09-23T19:36	10	0	0.1	0	0	364	0.2	363	364	10.6	97.0
2025-09-23T19:37	10	0	0.1	0	0	364	0.2	363	364	10.6	96.9
2025-09-23T19:38	10	0	0.1	0	0	364	0.2	363	364	10.6	97.1
2025-09-23T19:39	10	0	0.1	0	0	364	0.3	363	364	10.6	97.1
2025-09-23T19:40	10	0	0.1	0	0	364	0.2	363	364	10.6	97.0
2025-09-23T19:41	10	0	0.1	0	0	364	0.2	363	364	10.6	97.1
2025-09-23T19:42	10	0	0.1	0	0	364	0.2	363	364	10.6	97.0
2025-09-23T19:43	10	0	0.1	0	0	364	0.2	363	364	10.6	97.0
2025-09-23T19:44	10	0	0.1	0	0	364	0.2	363	364	10.6	97.1
2025-09-23T19:45	10	0	0.1	0	0	364	0.2	363	364	10.6	96.9
2025-09-23T19:46	10	0	0.1	0	0	364	0.2	363	364	10.6	96.7
2025-09-23T19:47	10	0	0.1	0	0	364	0.3	363	364	10.6	96.7
2025-09-23T19:48	10	0	0.1	0	0	364	0.2	363	364	10.6	93.5
2025-09-23T19:49	10	0	0.1	0	0	364	0.3	363	365	10.6	96.7
2025-09-23T19:50	10	0	0.1	0	0	364	0.3	364	365	10.6	96.7
2025-09-23T19:51	10	0	0.1	0	0	364	0.2	364	365	10.6	96.7
2025-09-23T19:52	10	0	0.1	0	0	364	0.2	363	365	10.6	96.7
2025-09-23T19:53	10	0	0.1	0	0	364	0.2	364	365	10.6	96.7
2025-09-23T19:54	10	0	0.1	0	0	364	0.2	364	365	10.6	96.7
2025-09-23T19:55	10	0	0.1	0	0	364	0.2	364	365	10.6	94.3
2025-09-23T19:56	10	0	0.1	0	0	364	0.2	363	364	10.6	94.2
2025-09-23T19:57	10	0	0.1	0	0	364	0.2	363	365	10.7	94.6
2025-09-23T19:58	10	0	0.1	0	0	364	0.2	363	365	10.7	94.9
2025-09-23T19:59	10	0	0.0	0	0	364	0.2	364	365	10.6	94.7
2025-09-23T20:00	10	0	0.1	0	0	364	0.2	364	365	10.6	94.8
2025-09-23T20:01	10	0	0.1	0	0	364	0.3	364	365	10.6	95.0
2025-09-23T20:02	10	0	0.0	0	0	364	0.2	364	365	10.6	94.7
2025-09-23T20:03	10	0	0.1	0	0	364	0.3	364	365	10.6	94.8
2025-09-23T20:04	10	0	0.1	0	0	364	0.2	364	365	10.6	94.4
2025-09-23T20:05	10	0	0.1	0	0	364	0.2	364	365	10.6	94.8
2025-09-23T20:06	10	0	0.1	0	0	364	0.2	364	365	10.6	93.5
2025-09-23T20:07	10	0	0.1	0	0	364	0.3	364	365	10.7	93.2
2025-09-23T20:08	10	0	0.1	0	0	364	0.2	364	365	10.7	94.3
2025-09-23T20:09	10	0	0.1	0	0	364	0.2	364	365	10.7	94.9
2025-09-23T20:10	10	0	0.1	0	0	364	0.2	364	365	10.7	94.9
2025-09-23T20:11	10	0	0.1	0	0	365	0.2	364	365	10.7	94.9
2025-09-23T20:12	10	0	0.1	0	0	364	0.3	364	365	10.7	95.3
2025-09-23T20:13	10	0	0.1	0	0	365	0.2	364	365	10.7	94.7
2025-09-23T20:14	10	0	0.1	0	0	365	0.2	364	365	10.7	94.9
2025-09-23T20:15	10	0	0.1	0	0	364	0.2	364	365	10.6	94.4
2025-09-23T20:16	10	0	0.1	0	0	364	0.2	364	365	10.7	94.3
2025-09-23T20:17	10	0	0.1	-1	0	364	0.3	364	365	10.6	94.2
2025-09-23T20:18	10	0	0.1	-1	0	364	0.2	363	364	10.6	93.7
2025-09-23T20:19	10	0	0.1	0	0	364	0.2	363	364	10.6	93.8
2025-09-23T20:20	10	0	0.1	-1	0	364	0.2	363	365	10.6	93.5
2025-09-23T20:21	10	0	0.1	0	0	364	0.2	364	365	10.6	93.3
2025-09-23T20:22	10	0	0.1	-1	0	364	0.2	364	364	10.6	94.1
2025-09-23T20:23	10	0	0.1	-1	0	364	0.3	363	365	10.5	93.7
2025-09-23T20:24	10	0	0.1	0	0	364	0.2	363	364	10.5	92.9
2025-09-23T20:25	10	0	0.1	0	0	364	0.3	363	364	10.5	93.1
2025-09-23T20:26	10	0	0.1	-1	0	363	0.2	363	364	10.5	92.9
2025-09-23T20:27	10	0	0.1	0	0	363	0.2	363	363	10.5	91.4
2025-09-23T20:28	10	0	0.1	0	0	363	0.3	362	364	10.5	92.0
2025-09-23T20:29	10	0	0.1	0	0	363	0.3	362	363	10.5	90.7
2025-09-23T20:30	10	0	0.1	0	0	363	0.2	362	363	10.5	91.5
2025-09-23T20:31	10	0	0.1	0	0	363	0.2	362	363	10.4	91.7
2025-09-23T20:32	10	0	0.1	0	0	363	0.2	362	363	10.4	91.8
2025-09-23T20:33	10	0	0.1	0	0	363	0.2	362	363	10.4	92.3
2025-09-23T20:34	10	0	0.1	0	0	362	0.2	362	363	10.4	92.8
2025-09-23T20:35	10	0	0.1	0	0	363	0.3	362	363	10.4	93.4
2025-09-23T20:36	10	0	0.1	0	0	363	0.2	362	363	10.4	93.7
2025-09-23T20:37	10	0	0.1	0	0	363	0.2	362	363	10.4	93.7
2025-09-23T20:38	10	0	0.1	-1	0	362	0.2	362	363	10.3	93.4
2025-09-23T20:39	10	0	0.1	0	0	363	0.2	362	363	10.4	93.3
2025-09-23T20:40	10	0	0.1	0	0	363	0.3	362	363	10.4	93.8
2025-09-23T20:41	10	0	0.1	0	0	363	0.3	362	363	10.4	94.0
2025-09-23T20:42	10	0	0.1	0	0	363	0.2	363	363	10.3	94.3
2025-09-23T20:43	10	0	0.1	0	0	363	0.2	363	363	10.3	94.1
2025-09-23T20:44	10	0	0.1	0	0	363	0.2	363	363	10.3	94.4
2025-09-23T20:45	10	0	0.1	0	0	363	0.2	362	363	10.3	94.8
2025-09-23T20:46	10	0	0.1	0	0	363	0.2	362	363	10.3	94.8
2025-09-23T20:47	10	0	0.1	0	0	363	0.2	362	363	10.3	94.3
2025-09-23T20:48	10	0	0.1	0	0	363	0.2	362	363	10.2	94.3
2025-09-23T20:49	10	0	0.1	0	0	363	0.2	362	363	10.2	93.9
2025-09-23T20:50	10	0	0.1	0	0	363	0.2	362	363	10.3	94.3
2025-09-23T20:51	10	0	0.1	0	0	362	0.2	362	363	10.3	93.8
2025-09-23T20:52	10	0	0.1	0	0	363	0.2	362	363	10.3	93.8
2025-09-23T20:53	10	0	0.1	0	0	363	0.2	362	363	10.3	92.9
2025-09-23T20:54	10	0	0.1	0	0	362	0.2	362	363	10.3	92.9
2025-09-23T20:55	10	0	0.1	0	0	362	0.2	362	363	10.3	93.4
2025-09-23T20:56	10	0	0.1	0	0	362	0.2	362	363	10.3	94.1
2025-09-23T20:57	10	0	0.1	0	0	362	0.3	362	363	10.3	94.4
2025-09-23T20:58	10	0	0.1	0	0	362	0.3	362	363	10.4	95.0
2025-09-23T20:59	10	0	0.1	0	0	362	0.2	362	363	10.3	94.9
2025-09-23T21:00	10	0	0.1	0	0	362	0.2	362	363	10.3	94.4
2025-09-23T21:01	10	0	0.1	0	0	362	0.2	362	363	10.3	94.3
2025-09-23T21:02	10	0	0.1	0	0	362	0.2	362	363	10.3	94.7
2025-09-23T21:03	10	0	0.1	0	0	362	0.2	362	363	10.3	94.2
2025-09-23T21:04	10	0	0.1	0	0	363	0.2	362	363	10.3	94.5
2025-09-23T21:05	10	0	0.1	0	0	362	0.3	362	363	10.3	94.2
2025-09-23T21:06	10	0	0.1	0	0	362	0.2	362	363	10.3	93.9
2025-09-23T21:07	10	0	0.1	0	0	363	0.2	362	363	10.3	94.8
2025-09-23T21:08	10	0	0.1	0	0	362	0.3	362	363	10.3	95.2
2025-09-23T21:09	10	0	0.1	0	0	362	0.3	362	363	10.3	94.8
2025-09-23T21:10	10	0	0.1	0	0	362	0.2	362	363	10.3	94.5
2025-09-23T21:11	10	0	0.1	0	0	362	0.2	362	363	10.3	95.0
2025-09-23T21:12	10	0	0.1	0	0	362	0.2	362	363	10.3	94.9
2025-09-23T21:13	10	0	0.0	0	0	363	0.2	362	364	10.3	95.2
2025-09-23T21:14	10	0	0.1	0	0	363	0.3	362	364	10.3	95.6
2025-09-23T21:15	10	0	0.1	0	0	363	0.3	362	363	10.3	95.6
2025-09-23T21:16	10	0	0.1	0	0	363	0.3	362	363	10.3	95.4
2025-09-23T21:17	10	0	0.1	0	0	363	0.2	362	363	10.3	95.5
2025-09-23T21:18	10	0	0.1	0	0	363	0.2	362	363	10.3	95.4
2025-09-23T21:19	10	0	0.1	0	0	363	0.2	362	363	10.3	95.6
2025-09-23T21:20	10	0	0.0	0	0	363	0.2	362	363	10.3	95.1
2025-09-23T21:21	10	0	0.1	0	0	363	0.2	362	363	10.3	94.5
2025-09-23T21:22	10	0	0.1	0	0	363	0.2	362	363	10.3	94.7
2025-09-23T21:23	10	0	0.0	0	0	363	0.2	362	363	10.3	94.2
2025-09-23T21:24	10	0	0.0	0	0	363	0.2	362	363	10.3	93.4
2025-09-23T21:25	10	0	0.1	0	0	363	0.3	362	363	10.3	93.1
2025-09-23T21:26	10	0	0.1	0	0	363	0.2	362	363	10.4	92.9
2025-09-23T21:27	10	0	0.0	0	0	363	0.2	362	363	10.4	92.7
2025-09-23T21:28	10	0	0.1	0	0	363	0.1	362	363	10.4	92.6
2025-09-23T21:29	10	0	0.1	0	0	362	0.3	362	363	10.4	92.8
2025-09-23T21:30	10	0	0.1	0	0	362	0.3	362	363	10.4	93.2
2025-09-23T21:31	10	0	0.0	0	0	362	0.2	362	363	10.4	94.2
2025-09-23T21:32	10	0	0.1	0	0	363	0.2	362	363	10.4	94.3
2025-09-23T21:33	10	0	0.0	0	0	362	0.2	362	363	10.4	93.9
2025-09-23T21:34	10	0	0.0	0	0	362	0.2	362	363	10.3	93.1
2025-09-23T21:35	10	0	0.0	0	0	363	0.2	362	363	10.3	92.9
2025-09-23T21:36	10	0	0.1	0	0	362	0.3	362	363	10.4	92.9
2025-09-23T21:37	10	0	0.1	0	0	362	0.2	362	363	10.4	94.8
2025-09-23T21:38	10	0	0.0	0	0	362	0.2	362	363	10.3	95.5
2025-09-23T21:39	10	0	0.1	0	0	362	0.2	362	363	10.3	95.5
2025-09-23T21:40	10	0	0.0	0	0	363	0.2	362	363	10.3	95.6
2025-09-23T21:41	10	0	0.1	0	0	363	0.2	362	363	10.3	95.9
2025-09-23T21:42	10	0	0.1	0	0	363	0.3	362	364	10.3	95.9
2025-09-23T21:43	10	0	0.1	0	0	363	0.2	362	363	10.3	95.7
2025-09-23T21:44	10	0	0.1	0	0	363	0.2	362	363	10.3	95.9
2025-09-23T21:45	10	0	0.0	0	0	363	0.2	362	363	10.3	96.3
2025-09-23T21:46	10	0	0.1	0	0	362	0.2	362	363	10.3	96.6
2025-09-23T21:47	10	0	0.1	0	0	362	0.2	362	363	10.2	96.8
2025-09-23T21:48	10	0	0.1	0	0	363	0.2	362	363	10.3	97.2
2025-09-23T21:49	10	0	0.1	0	0	362	0.2	362	363	10.2	97.4
2025-09-23T21:50	10	0	0.1	0	0	362	0.2	362	363	10.2	97.1
2025-09-23T21:51	10	0	0.1	0	0	362	0.2	362	363	10.2	97.3
2025-09-23T21:52	10	0	0.1	0	0	363	0.2	362	363	10.2	97.4
2025-09-23T21:53	10	0	0.1	0	0	363	0.3	362	363	10.2	97.1
2025-09-23T21:54	10	0	0.1	0	0	363	0.3	362	363	10.2	96.9
2025-09-23T21:55	10	0	0.1	0	0	362	0.2	362	363	10.2	96.7
2025-09-23T21:56	10	0	0.1	0	0	363	0.2	362	363	10.2	96.7
2025-09-23T21:57	10	0	0.0	0	0	362	0.2	362	363	10.2	96.7
2025-09-23T21:58	10	0	0.1	0	0	362	0.2	362	363	10.2	96.6
2025-09-23T21:59	10	0	0.1	0	0	362	0.2	362	363	10.2	96.7
2025-09-23T22:00	10	0	0.1	0	0	363	0.2	362	363	10.2	96.7
2025-09-23T22:01	10	0	0.1	0	0	362	0.2	362	363	10.2	96.9
2025-09-23T22:02	10	0	0.1	0	0	363	0.2	362	363	10.2	97.1
2025-09-23T22:03	10	0	0.1	0	0	362	0.2	362	363	10.2	97.2
2025-09-23T22:04	10	0	0.1	0	0	362	0.2	362	363	10.2	97.4
2025-09-23T22:05	10	0	0.1	0	0	362	0.2	362	363	10.2	97.3
2025-09-23T22:06	10	0	0.1	0	0	362	0.2	362	363	10.2	96.8
2025-09-23T22:07	10	0	0.1	0	0	362	0.2	362	363	10.2	96.9
2025-09-23T22:08	10	0	0.1	0	0	363	0.3	362	363	10.3	97.4
2025-09-23T22:09	10	0	0.1	0	0	362	0.2	362	363	10.2	97.4
2025-09-23T22:10	10	0	0.1	0	0	362	0.3	362	363	10.2	97.4
2025-09-23T22:11	10	0	0.1	0	0	363	0.3	362	363	10.2	97.7
2025-09-23T22:12	10	0	0.1	0	0	362	0.2	362	363	10.2	98.0
2025-09-23T22:13	10	0	0.0	0	0	363	0.2	362	363	10.1	98.0
2025-09-23T22:14	10	0	0.1	0	0	363	0.2	362	363	10.2	98.2
2025-09-23T22:15	10	0	0.0	0	0	363	0.2	362	363	10.2	98.3
2025-09-23T22:16	10	0	0.0	0	0	363	0.3	363	364	10.2	98.5
2025-09-23T22:17	10	0	0.1	0	0	363	0.2	363	364	10.1	98.3
2025-09-23T22:18	10	0	0.1	0	0	363	0.2	363	364	10.2	98.3
2025-09-23T22:19	10	0	0.0	0	0	364	0.2	363	364	10.1	98.3
2025-09-23T22:20	10	0	0.1	0	0	363	0.2	363	364	10.1	98.1
2025-09-23T22:21	10	0	0.1	0	0	363	0.2	363	364	10.1	98.4
2025-09-23T22:22	10	0	0.0	0	0	363	0.2	363	364	10.1	98.3
2025-09-23T22:23	10	0	0.1	0	0	363	0.2	363	364	10.1	98.5
2025-09-23T22:24	10	0	0.1	0	0	364	0.3	363	364	10.1	98.5
2025-09-23T22:25	10	0	0.1	0	0	363	0.3	363	364	10.1	98.3
2025-09-23T22:26	10	0	0.1	0	0	363	0.2	363	364	10.0	98.2
2025-09-23T22:27	10	0	0.1	0	0	364	0.2	363	364	10.0	97.7
2025-09-23T22:28	10	0	0.1	0	0	363	0.2	363	364	10.0	97.5
2025-09-23T22:29	10	0	0.0	0	0	364	0.2	363	364	10.1	97.5
2025-09-23T22:30	10	0	0.0	0	0	363	0.2	363	364	10.1	97.4
2025-09-23T22:31	10	0	0.1	0	0	364	0.2	363	364	10.1	97.3
2025-09-23T22:32	10	0	0.0	0	0	363	0.2	363	363	10.1	97.0
2025-09-23T22:33	10	0	0.1	0	0	363	0.2	363	364	10.2	97.1
2025-09-23T22:34	10	0	0.1	0	0	363	0.2	363	364	10.2	97.4
2025-09-23T22:35	10	0	0.1	0	0	363	0.2	363	364	10.2	97.2
2025-09-23T22:36	10	0	0.0	0	0	363	0.2	363	364	10.2	97.2
2025-09-23T22:37	10	0	0.0	0	0	364	0.2	363	364	10.1	97.0
2025-09-23T22:38	10	0	0.1	0	0	364	0.3	363	364	10.2	96.9
2025-09-23T22:39	10	0	0.0	0	0	364	0.2	363	364	10.2	97.0
2025-09-23T22:40	10	0	0.1	0	0	364	0.2	363	364	10.2	97.0
2025-09-23T22:41	10	0	0.0	0	0	364	0.2	363	364	10.2	97.1
2025-09-23T22:42	10	0	0.0	0	0	363	0.2	363	364	10.2	97.2
2025-09-23T22:43	10	0	0.1	0	0	363	0.2	363	364	10.2	97.5
2025-09-23T22:44	10	0	0.0	0	0	363	0.2	363	364	10.2	97.3
2025-09-23T22:45	10	0	0.1	0	0	363	0.3	363	364	10.2	97.0
2025-09-23T22:46	10	0	0.0	0	0	363	0.2	363	364	10.2	97.3
2025-09-23T22:47	10	0	0.0	0	0	363	0.2	363	364	10.1	97.1
2025-09-23T22:48	10	0	0.1	0	0	363	0.2	362	364	10.1	96.9
2025-09-23T22:49	10	0	0.0	0	0	363	0.3	363	364	10.1	96.6
2025-09-23T22:50	10	0	0.0	0	0	363	0.2	362	363	10.2	96.8
2025-09-23T22:51	10	0	0.0	0	0	363	0.2	362	363	10.2	96.9
2025-09-23T22:52	10	0	0.1	0	0	363	0.2	362	363	10.2	96.8
2025-09-23T22:53	10	0	0.1	0	0	363	0.2	362	363	10.2	97.1
2025-09-23T22:54	10	0	0.0	0	0	363	0.2	362	363	10.2	97.2
2025-09-23T22:55	10	0	0.1	0	0	363	0.2	362	363	10.2	97.1
2025-09-23T22:56	10	0	0.0	0	0	363	0.2	362	363	10.2	97.2
2025-09-23T22:57	10	0	0.0	0	0	363	0.2	363	363	10.2	97.1
2025-09-23T22:58	10	0	0.1	0	0	363	0.2	362	363	10.2	97.2
2025-09-23T22:59	10	0	0.1	0	0	363	0.2	362	363	10.2	97.0
2025-09-23T23:00	10	0	0.1	0	0	363	0.2	362	363	10.2	96.9
2025-09-23T23:01	10	0	0.1	0	0	363	0.2	362	363	10.2	96.9
2025-09-23T23:02	10	0	0.1	0	0	363	0.2	362	363	10.2	97.3
2025-09-23T23:03	10	0	0.1	0	0	363	0.2	362	363	10.2	97.6
2025-09-23T23:04	10	0	0.0	0	0	363	0.1	363	363	10.2	97.8
2025-09-23T23:05	10	0	0.0	0	0	363	0.2	363	364	10.2	97.9
2025-09-23T23:06	10	0	0.0	0	0	363	0.2	362	363	10.2	97.9
2025-09-23T23:07	10	0	0.0	0	0	363	0.2	363	364	10.2	97.9
2025-09-23T23:08	10	0	0.0	0	0	363	0.2	362	363	10.2	98.0
2025-09-23T23:09	10	0	0.1	0	0	363	0.2	362	363	10.1	98.0
2025-09-23T23:10	10	0	0.1	0	0	363	0.2	362	363	10.2	98.0
2025-09-23T23:11	10	0	0.0	0	0	363	0.2	362	364	10.2	98.0
2025-09-23T23:12	10	0	0.1	0	0	363	0.2	362	363	10.2	98.1
2025-09-23T23:13	10	0	0.0	0	0	363	0.2	362	363	10.1	98.2
2025-09-23T23:14	10	0	0.1	0	0	363	0.2	362	363	10.2	98.2
2025-09-23T23:15	10	0	0.1	0	0	363	0.2	362	363	10.1	98.2
2025-09-23T23:16	10	0	0.1	0	0	363	0.2	363	364	10.1	98.0
2025-09-23T23:17	10	0	0.1	0	0	363	0.2	362	363	10.1	98.1
2025-09-23T23:18	10	0	0.1	0	0	363	0.2	362	363	10.1	98.1
2025-09-23T23:19	10	0	0.1	0	0	363	0.3	362	364	10.2	97.9
2025-09-23T23:20	10	0	0.1	0	0	363	0.2	362	363	10.2	98.0
2025-09-23T23:21	10	0	0.1	0	0	363	0.2	362	363	10.1	97.9
2025-09-23T23:22	10	0	0.1	0	0	363	0.2	362	363	10.1	97.7
2025-09-23T23:23	10	0	0.0	0	0	363	0.2	362	363	10.1	97.4
2025-09-23T23:24	10	0	0.1	0	0	363	0.2	362	363	10.1	97.4
2025-09-23T23:25	10	0	0.1	0	0	363	0.2	362	363	10.1	97.5
2025-09-23T23:26	10	0	0.1	0	0	363	0.3	362	363	10.2	97.6
2025-09-23T23:27	10	0	0.0	0	0	363	0.2	362	363	10.1	97.5
2025-09-23T23:28	10	0	0.1	0	0	363	0.2	362	363	10.1	97.6
2025-09-23T23:29	10	0	0.1	0	0	363	0.2	362	363	10.1	97.5
2025-09-23T23:30	10	0	0.1	0	0	363	0.2	362	363	10.1	97.8
2025-09-23T23:31	10	0	0.0	0	0	363	0.2	362	363	10.2	97.9
2025-09-23T23:32	10	0	0.0	0	0	363	0.2	362	363	10.1	98.1
2025-09-23T23:33	10	0	0.0	0	0	363	0.2	362	363	10.1	97.9
2025-09-23T23:34	10	0	0.0	0	0	363	0.2	362	363	10.1	98.0
2025-09-23T23:35	10	0	0.1	0	0	363	0.2	362	363	10.1	98.1
2025-09-23T23:36	10	0	0.1	0	0	363	0.3	362	363	10.1	98.3
2025-09-23T23:37	10	0	0.1	0	0	363	0.2	362	363	10.1	98.5
2025-09-23T23:38	10	0	0.1	0	0	363	0.2	362	363	10.1	98.6
2025-09-23T23:39	10	0	0.1	0	0	363	0.2	362	363	10.0	98.6
2025-09-23T23:40	10	0	0.0	0	0	363	0.2	362	363	10.1	98.2
2025-09-23T23:41	10	0	0.1	0	0	362	0.2	362	363	10.1	98.2
2025-09-23T23:42	10	0	0.1	0	0	362	0.2	362	363	10.0	98.2
2025-09-23T23:43	10	0	0.1	0	0	362	0.2	362	363	10.0	97.8
2025-09-23T23:44	10	0	0.1	0	0	362	0.2	362	363	10.0	97.8
2025-09-23T23:45	10	0	0.1	0	0	362	0.3	362	363	10.0	97.9
2025-09-23T23:46	10	0	0.1	0	0	362	0.2	362	363	10.1	98.0
2025-09-23T23:47	10	0	0.1	0	0	362	0.2	362	363	10.1	98.1
2025-09-23T23:48	10	0	0.1	0	0	362	0.2	362	363	10.0	98.0
2025-09-23T23:49	10	0	0.1	0	0	362	0.2	362	363	10.1	98.1
2025-09-23T23:50	10	0	0.1	0	0	362	0.2	362	363	10.0	97.8
2025-09-23T23:51	10	0	0.1	0	0	363	0.3	362	363	10.0	97.7
2025-09-23T23:52	10	0	0.0	0	0	362	0.2	362	363	10.0	97.7
2025-09-23T23:53	10	0	0.1	0	0	363	0.2	362	363	10.1	97.8
2025-09-23T23:54	10	0	0.1	0	0	362	0.3	362	363	10.1	98.0
2025-09-23T23:55	10	0	0.0	0	0	362	0.2	362	363	10.0	97.9
2025-09-23T23:56	10	0	0.1	0	0	363	0.3	362	364	10.0	97.9
2025-09-23T23:57	10	0	0.0	0	0	363	0.2	363	364	10.0	97.9
2025-09-23T23:58	10	0	0.0	0	0	363	0.2	362	363	10.1	98.0
2025-09-23T23:59	10	0	0.1	0	0	363	0.3	362	363	10.0	98.1
2025-09-24T00:00	10	0	0.0	0	0	363	0.2	362	363	10.1	98.2
2025-09-24T00:01	10	0	0.0	0	0	363	0.2	362	363	10.0	98.3
2025-09-24T00:02	10	0	0.0	0	0	363	0.3	362	363	10.0	98.1
2025-09-24T00:03	10	0	0.1	0	0	362	0.2	362	363	10.0	98.2
2025-09-24T00:04	10	0	0.1	0	0	362	0.2	362	363	10.0	98.3
2025-09-24T00:05	10	0	0.1	0	0	362	0.3	362	363	10.0	98.3
2025-09-24T00:06	10	0	0.1	0	0	362	0.2	362	363	10.0	98.3
2025-09-24T00:07	10	0	0.1	0	0	362	0.3	362	363	10.0	98.4
2025-09-24T00:08	10	0	0.0	0	0	362	0.2	362	363	10.0	98.2
2025-09-24T00:09	10	0	0.0	0	0	362	0.2	362	363	10.0	98.3
2025-09-24T00:10	10	0	0.0	0	0	362	0.2	362	363	10.1	98.2
2025-09-24T00:11	10	0	0.1	0	0	363	0.3	362	363	10.1	98.4
2025-09-24T00:12	10	0	0.1	0	0	362	0.3	362	363	10.0	98.3
2025-09-24T00:13	10	0	0.0	0	0	363	0.2	362	363	10.0	98.3
2025-09-24T00:14	10	0	0.0	0	0	363	0.2	362	363	10.0	98.1
2025-09-24T00:15	10	0	0.0	0	0	362	0.3	362	363	10.0	98.1
2025-09-24T00:16	10	0	0.1	0	0	363	0.2	362	363	10.0	98.1
2025-09-24T00:17	10	0	0.1	0	0	362	0.2	362	363	10.1	98.3
2025-09-24T00:18	10	0	0.0	0	0	362	0.3	362	363	10.1	98.4
2025-09-24T00:19	10	0	0.0	0	0	363	0.2	362	363	10.1	98.3
2025-09-24T00:20	10	0	0.0	0	0	362	0.2	362	363	10.1	98.1
2025-09-24T00:21	10	0	0.1	0	0	363	0.3	362	363	10.1	98.2
2025-09-24T00:22	10	0	0.1	0	0	362	0.2	362	363	10.1	98.2
2025-09-24T00:23	10	0	0.1	0	0	362	0.3	362	363	10.0	98.2
2025-09-24T00:24	10	0	0.1	0	0	362	0.2	362	363	10.1	98.3
2025-09-24T00:25	10	0	0.0	0	0	362	0.2	362	363	10.0	98.5
2025-09-24T00:26	10	0	0.0	0	0	362	0.2	362	363	10.1	98.6
2025-09-24T00:27	10	0	0.0	0	0	362	0.2	362	363	10.1	98.7
2025-09-24T00:28	10	0	0.0	0	0	362	0.2	362	363	10.0	98.6
2025-09-24T00:29	10	0	0.1	0	0	362	0.2	362	363	10.0	98.7
2025-09-24T00:30	10	0	0.0	0	0	362	0.2	362	362	10.0	98.7
2025-09-24T00:31	10	0	0.1	0	0	362	0.3	362	363	10.0	98.7
2025-09-24T00:32	10	0	0.1	0	0	362	0.2	362	362	10.0	98.6
2025-09-24T00:33	10	0	0.1	0	0	362	0.2	362	363	10.0	98.7
2025-09-24T00:34	10	0	0.1	0	0	362	0.2	362	363	10.0	98.8
2025-09-24T00:35	10	0	0.1	0	0	362	0.4	362	363	10.0	98.7
2025-09-24T00:36	10	0	0.1	0	0	362	0.2	362	363	10.0	98.7
2025-09-24T00:37	10	0	0.1	0	0	362	0.2	362	363	10.0	98.7
2025-09-24T00:38	10	0	0.1	0	0	362	0.2	362	362	10.0	99.0
2025-09-24T00:39	10	0	0.1	0	0	362	0.2	362	362	10.0	98.9
2025-09-24T00:40	10	0	0.1	0	0	362	0.2	362	363	10.0	98.8
2025-09-24T00:41	10	0	0.1	0	0	362	0.3	361	363	10.0	98.8
2025-09-24T00:42	10	0	0.0	0	0	362	0.2	361	362	9.9	98.8
2025-09-24T00:43	10	0	0.0	0	0	362	0.2	361	362	9.9	98.5
2025-09-24T00:44	10	0	0.1	0	0	362	0.2	361	362	9.9	98.8
2025-09-24T00:45	10	0	0.1	0	0	362	0.2	361	362	9.9	98.7
2025-09-24T00:46	10	0	0.1	0	0	362	0.2	361	362	10.0	98.9
2025-09-24T00:47	10	0	0.1	0	0	362	0.2	362	362	9.9	98.8
2025-09-24T00:48	10	0	0.1	0	0	362	0.2	361	362	9.9	98.6
2025-09-24T00:49	10	0	0.1	0	0	362	0.3	361	362	10.0	98.7
2025-09-24T00:50	10	0	0.1	0	0	362	0.2	361	362	10.0	98.7
2025-09-24T00:51	10	0	0.1	0	0	362	0.2	361	362	10.0	98.7
2025-09-24T00:52	10	0	0.1	-1	0	361	0.3	361	362	10.0	98.8
2025-09-24T00:53	10	0	0.1	-1	0	361	0.2	361	361	9.9	99.0
2025-09-24T00:54	10	0	0.1	-1	0	361	0.2	361	362	9.9	98.9
2025-09-24T00:55	10	0	0.1	0	0	361	0.2	361	362	9.9	98.9
2025-09-24T00:56	10	0	0.1	-1	0	361	0.2	361	362	9.9	99.0
2025-09-24T00:57	10	0	0.1	-1	0	361	0.2	361	362	9.9	98.8
2025-09-24T00:58	10	0	0.0	0	0	361	0.2	361	362	9.9	98.6
2025-09-24T00:59	10	0	0.1	0	0	361	0.2	361	362	9.9	98.6
2025-09-24T01:00	10	0	0.1	0	0	361	0.2	361	362	9.9	98.5
2025-09-24T01:01	10	0	0.1	0	0	361	0.2	361	362	9.9	98.4
2025-09-24T01:02	10	0	0.1	0	0	361	0.3	361	362	9.9	98.5
2025-09-24T01:03	10	0	0.1	0	0	361	0.3	361	362	9.9	98.5
2025-09-24T01:04	10	0	0.0	0	0	361	0.2	361	362	10.0	98.9
2025-09-24T01:05	10	0	0.1	0	0	361	0.2	361	362	10.0	98.9
2025-09-24T01:06	10	0	0.1	0	0	361	0.2	361	362	10.0	98.9
2025-09-24T01:07	10	0	0.1	0	0	361	0.2	361	362	10.0	98.9
2025-09-24T01:08	10	0	0.1	-1	0	361	0.2	361	362	10.0	98.9
2025-09-24T01:09	10	0	0.1	-1	0	362	0.2	361	362	10.0	99.1
2025-09-24T01:10	10	-1	0.1	-1	0	361	0.2	361	362	10.0	99.1
2025-09-24T01:11	10	-1	0.1	-1	-1	361	0.2	361	362	10.0	99.2
2025-09-24T01:12	10	-1	0.1	-1	0	361	0.2	361	362	10.0	99.6
2025-09-24T01:13	10	-1	0.1	-1	-1	361	0.2	361	362	10.0	99.7
2025-09-24T01:14	10	-1	0.1	-1	-1	361	0.2	361	362	10.0	99.5
2025-09-24T01:15	10	-1	0.1	-1	-1	361	0.2	361	362	10.0	99.5
2025-09-24T01:16	10	-1	0.1	-1	-1	361	0.2	361	362	10.0	99.6
2025-09-24T01:17	10	-1	0.1	-1	-1	361	0.2	361	362	10.0	99.6
2025-09-24T01:18	10	-1	0.1	-1	-1	361	0.2	361	362	10.0	99.7
2025-09-24T01:19	10	-1	0.1	-1	-1	361	0.2	361	362	10.0	99.5
2025-09-24T01:20	10	-1	0.1	-1	-1	361	0.2	361	362	9.9	99.6
2025-09-24T01:21	10	-1	0.1	-1	0	361	0.2	361	362	10.0	99.5
2025-09-24T01:22	10	-1	0.1	-1	0	361	0.2	361	362	10.0	99.6
2025-09-24T01:23	10	-1	0.1	-1	0	361	0.2	361	362	9.9	99.6
2025-09-24T01:24	10	-1	0.1	-1	0	361	0.2	361	362	9.9	99.4
2025-09-24T01:25	10	-1	0.1	-1	0	361	0.3	361	362	9.9	99.2
2025-09-24T01:26	10	0	0.1	-1	0	361	0.2	361	362	9.9	99.1
2025-09-24T01:27	10	0	0.1	-1	0	362	0.2	361	362	9.9	99.0
2025-09-24T01:28	10	0	0.1	-1	0	361	0.2	361	362	9.9	98.8
2025-09-24T01:29	10	0	0.1	0	0	362	0.2	361	362	9.9	98.7
2025-09-24T01:30	10	0	0.1	-1	0	361	0.2	361	362	9.9	98.6
2025-09-24T01:31	10	0	0.1	0	0	362	0.3	361	362	9.9	98.5
2025-09-24T01:32	10	0	0.1	-1	0	361	0.2	361	362	9.9	97.9
2025-09-24T01:33	10	0	0.1	-1	0	361	0.2	361	362	9.9	98.0
2025-09-24T01:34	10	0	0.1	-1	0	361	0.2	361	362	9.9	97.9
2025-09-24T01:35	10	0	0.1	-1	0	361	0.2	361	362	9.9	97.2
2025-09-24T01:36	10	0	0.1	0	0	361	0.2	361	362	9.9	96.9
2025-09-24T01:37	10	0	0.1	0	0	361	0.2	361	362	10.0	96.7
2025-09-24T01:38	10	0	0.1	0	0	361	0.2	361	362	10.0	96.2
2025-09-24T01:39	10	0	0.1	-1	0	361	0.3	361	362	10.0	96.1
2025-09-24T01:40	10	0	0.1	-1	0	362	0.2	361	362	10.0	95.9
2025-09-24T01:41	10	0	0.1	-1	0	361	0.2	361	362	10.1	95.5
2025-09-24T01:42	10	0	0.1	-1	0	361	0.2	361	362	10.1	95.6
2025-09-24T01:43	10	-1	0.1	-1	0	361	0.2	361	362	10.1	95.3
2025-09-24T01:44	10	-1	0.1	-1	0	361	0.2	361	362	10.1	95.6
2025-09-24T01:45	10	-1	0.0	-1	0	361	0.2	361	362	10.1	95.6
2025-09-24T01:46	10	0	0.1	-1	0	361	0.2	361	362	10.1	95.7
2025-09-24T01:47	10	-1	0.1	-1	0	361	0.3	361	362	10.1	95.8
2025-09-24T01:48	10	0	0.1	-1	0	361	0.2	361	362	10.1	95.8
2025-09-24T01:49	10	0	0.1	-1	0	362	0.2	361	362	10.1	96.0
2025-09-24T01:50	10	0	0.1	-1	0	362	0.2	361	362	10.1	96.1
2025-09-24T01:51	10	0	0.1	-1	0	362	0.2	361	362	10.1	96.0
2025-09-24T01:52	10	0	0.1	-1	0	362	0.2	361	362	10.1	96.1
2025-09-24T01:53	10	-1	0.1	-1	0	361	0.2	361	362	10.1	96.2
2025-09-24T01:54	10	-1	0.1	-1	0	361	0.2	360	362	10.1	95.8
2025-09-24T01:55	10	-1	0.1	-1	-1	361	0.2	361	362	10.1	95.8
2025-09-24T01:56	10	-1	0.1	-1	0	361	0.3	361	362	10.1	96.1
2025-09-24T01:57	10	-1	0.1	-1	0	361	0.2	361	362	10.1	96.4
2025-09-24T01:58	10	-1	0.1	-1	-1	361	0.2	361	362	10.1	96.1
2025-09-24T01:59	10	-1	0.1	-1	0	361	0.2	360	361	10.1	96.2
2025-09-24T02:00	10	-1	0.1	-1	-1	361	0.2	361	362	10.1	96.4
2025-09-24T02:01	10	-1	0.0	-1	-1	361	0.2	361	361	10.1	96.1
2025-09-24T02:02	10	-1	0.1	-1	0	361	0.2	360	362	10.1	96.4
2025-09-24T02:03	10	-1	0.1	-1	0	361	0.2	361	362	10.0	96.6
2025-09-24T02:04	10	-1	0.1	-1	0	361	0.3	360	362	10.0	96.3
2025-09-24T02:05	10	-1	0.1	-1	0	361	0.2	360	361	10.0	96.4
2025-09-24T02:06	10	-1	0.1	-1	0	361	0.2	360	361	10.0	96.4
2025-09-24T02:07	10	-1	0.1	-1	0	361	0.2	360	361	10.0	96.4
2025-09-24T02:08	10	-1	0.1	-1	0	361	0.3	360	361	10.1	96.1
2025-09-24T02:09	10	-1	0.1	-1	0	361	0.2	360	361	10.1	96.2
2025-09-24T02:10	10	-1	0.1	-1	0	361	0.2	361	362	10.1	96.2
2025-09-24T02:11	10	-1	0.0	-1	0	361	0.3	361	362	10.1	96.0
2025-09-24T02:12	10	0	0.1	-1	0	361	0.2	361	362	10.1	96.2
2025-09-24T02:13	10	0	0.1	-1	0	361	0.2	361	362	10.1	96.4
2025-09-24T02:14	10	0	0.1	-1	0	361	0.2	361	362	10.1	96.1
2025-09-24T02:15	10	0	0.1	0	0	361	0.2	361	362	10.1	96.0
2025-09-24T02:16	10	0	0.1	0	0	361	0.2	361	362	10.1	96.0
2025-09-24T02:17	10	0	0.1	0	0	361	0.2	361	362	10.1	95.9
2025-09-24T02:18	10	0	0.1	0	0	361	0.2	361	362	10.1	95.7
2025-09-24T02:19	10	0	0.1	0	0	361	0.2	360	362	10.1	95.3
2025-09-24T02:20	10	0	0.1	-1	0	361	0.2	361	361	10.1	95.2
2025-09-24T02:21	10	0	0.1	-1	0	361	0.2	360	361	10.1	95.6
2025-09-24T02:22	10	0	0.1	0	0	361	0.2	361	361	10.1	95.6
2025-09-24T02:23	10	0	0.1	0	0	361	0.2	361	362	10.1	95.7
2025-09-24T02:24	10	0	0.1	0	0	361	0.2	361	361	10.1	96.0
2025-09-24T02:25	10	0	0.1	0	0	361	0.2	360	361	10.1	96.1
2025-09-24T02:26	10	0	0.1	0	0	361	0.2	361	362	10.0	96.1
2025-09-24T02:27	10	0	0.1	0	0	361	0.2	361	361	10.0	95.7
2025-09-24T02:28	10	0	0.1	0	0	361	0.3	360	362	10.0	95.6
2025-09-24T02:29	10	0	0.1	0	0	361	0.2	361	362	10.0	95.6
2025-09-24T02:30	10	0	0.1	0	0	361	0.2	361	361	10.0	95.4
2025-09-24T02:31	10	0	0.1	0	0	361	0.3	361	362	10.0	94.9
2025-09-24T02:32	10	0	0.1	0	0	361	0.2	361	361	10.1	94.8
2025-09-24T02:33	10	0	0.1	0	0	361	0.3	360	362	10.1	95.1
2025-09-24T02:34	10	0	0.0	0	0	361	0.2	361	361	10.1	95.1
2025-09-24T02:35	10	0	0.1	0	0	361	0.2	361	362	10.1	93.9
2025-09-24T02:36	10	0	0.1	0	0	361	0.2	360	361	10.1	93.0
2025-09-24T02:37	10	0	0.1	0	0	361	0.2	360	361	10.2	93.1
2025-09-24T02:38	10	0	0.1	0	0	361	0.2	360	361	10.2	93.1
2025-09-24T02:39	10	0	0.1	0	0	361	0.2	360	361	10.2	93.3
2025-09-24T02:40	10	0	0.0	0	0	360	0.2	360	361	10.1	93.5
2025-09-24T02:41	10	0	0.1	0	0	361	0.2	360	361	10.2	93.0
2025-09-24T02:42	10	0	0.1	0	0	360	0.2	360	361	10.2	92.8
2025-09-24T02:43	10	0	0.1	0	0	360	0.2	360	361	10.2	92.8
2025-09-24T02:44	10	0	0.0	0	0	360	0.2	360	361	10.2	93.0
2025-09-24T02:45	10	0	0.0	0	0	361	0.2	360	361	10.2	93.1
2025-09-24T02:46	10	0	0.0	0	0	361	0.2	360	361	10.2	92.9
2025-09-24T02:47	10	0	0.0	0	0	361	0.2	360	361	10.2	92.5
2025-09-24T02:48	10	0	0.1	0	0	361	0.3	360	361	10.2	92.2
2025-09-24T02:49	10	0	0.0	0	0	361	0.2	360	361	10.3	92.1
2025-09-24T02:50	10	0	0.0	0	0	361	0.2	360	361	10.3	92.7
2025-09-24T02:51	10	0	0.1	0	0	360	0.3	360	361	10.3	93.9
2025-09-24T02:52	10	0	0.1	0	0	360	0.2	360	361	10.2	94.9
2025-09-24T02:53	10	0	0.1	0	0	360	0.2	360	361	10.2	95.2
2025-09-24T02:54	10	0	0.0	0	0	360	0.2	360	361	10.2	95.5
2025-09-24T02:55	10	0	0.1	0	0	360	0.2	359	360	10.1	95.5
2025-09-24T02:56	10	0	0.1	0	0	360	0.2	360	360	10.1	96.2
2025-09-24T02:57	10	0	0.1	0	0	360	0.2	359	360	10.1	96.7
2025-09-24T02:58	10	0	0.1	-1	0	360	0.2	359	360	10.1	97.1
2025-09-24T02:59	10	0	0.1	-1	0	360	0.2	359	360	10.1	97.0
2025-09-24T03:00	10	0	0.1	0	0	360	0.2	359	360	10.1	97.2
2025-09-24T03:01	10	0	0.1	0	0	360	0.2	359	360	10.1	97.3
2025-09-24T03:02	10	0	0.1	0	0	359	0.2	359	360	10.0	97.2
2025-09-24T03:03	10	0	0.0	0	0	359	0.3	359	360	10.0	97.3
2025-09-24T03:04	10	0	0.1	0	0	359	0.2	359	359	10.0	97.5
2025-09-24T03:05	10	0	0.1	0	0	359	0.2	359	359	10.0	97.5
2025-09-24T03:06	10	0	0.1	0	0	358	0.3	358	359	10.0	97.6
2025-09-24T03:07	10	0	0.1	0	0	358	0.2	358	358	10.0	97.5
2025-09-24T03:08	10	0	0.0	0	0	358	0.2	358	358	10.0	97.7
2025-09-24T03:09	10	0	0.1	0	0	358	0.3	357	358	10.0	97.8
2025-09-24T03:10	10	0	0.1	0	0	357	0.2	357	358	10.0	97.8
2025-09-24T03:11	10	0	0.1	0	0	357	0.2	357	358	10.0	97.7
2025-09-24T03:12	10	0	0.1	0	0	357	0.2	356	357	10.0	97.9
2025-09-24T03:13	10	0	0.1	0	0	357	0.2	357	357	10.0	98.1
2025-09-24T03:14	10	0	0.1	0	0	357	0.2	356	357	10.0	98.2
2025-09-24T03:15	10	0	0.1	0	0	357	0.3	357	358	10.0	98.3
2025-09-24T03:16	10	0	0.0	0	0	358	0.2	357	358	10.0	98.2
2025-09-24T03:17	10	0	0.1	0	0	358	0.3	357	359	10.0	98.1
2025-09-24T03:18	10	0	0.1	0	0	359	0.2	358	359	9.9	98.3
2025-09-24T03:19	10	0	0.1	0	0	359	0.2	359	359	9.9	98.4
2025-09-24T03:20	10	0	0.1	0	0	359	0.2	358	359	9.8	98.5
2025-09-24T03:21	10	0	0.1	0	0	359	0.2	359	359	9.8	98.5
2025-09-24T03:22	10	0	0.0	0	0	359	0.2	359	360	9.8	98.6
2025-09-24T03:23	10	0	0.0	0	0	360	0.2	359	360	9.8	98.6
2025-09-24T03:24	10	0	0.1	0	0	360	0.2	359	360	9.8	98.6
2025-09-24T03:25	10	0	0.0	0	0	360	0.2	359	360	9.8	98.8
2025-09-24T03:26	10	0	0.1	0	0	360	0.2	359	360	9.8	98.5
2025-09-24T03:27	10	0	0.1	0	0	359	0.3	359	360	9.8	98.6
2025-09-24T03:28	10	0	0.1	0	0	359	0.2	359	360	9.8	98.7
2025-09-24T03:29	10	0	0.1	0	0	360	0.4	359	361	9.8	98.8
2025-09-24T03:30	10	0	0.1	0	0	360	0.2	359	360	9.8	99.0
2025-09-24T03:31	10	0	0.1	0	0	360	0.2	359	361	9.8	99.2
2025-09-24T03:32	10	0	0.1	0	0	360	0.2	359	361	9.7	99.2
2025-09-24T03:33	10	0	0.0	0	0	360	0.2	360	361	9.8	98.9
2025-09-24T03:34	10	0	0.1	0	0	360	0.2	360	361	9.8	98.8
2025-09-24T03:35	10	0	0.0	0	0	361	0.2	360	361	9.7	98.9
2025-09-24T03:36	10	0	0.1	0	0	361	0.3	360	361	9.7	98.9
2025-09-24T03:37	10	0	0.1	0	0	361	0.2	360	361	9.7	99.0
2025-09-24T03:38	10	0	0.1	0	0	361	0.2	360	361	9.7	99.1
2025-09-24T03:39	10	0	0.1	0	0	361	0.2	361	361	9.7	98.9
2025-09-24T03:40	10	0	0.1	0	0	361	0.2	360	361	9.8	98.8
2025-09-24T03:41	10	0	0.1	0	0	361	0.3	361	362	9.8	98.8
2025-09-24T03:42	10	0	0.1	0	0	361	0.2	361	362	9.8	98.8
2025-09-24T03:43	10	0	0.1	0	0	361	0.2	361	362	9.8	99.0
2025-09-24T03:44	10	0	0.1	0	0	362	0.2	361	362	9.8	98.9
2025-09-24T03:45	10	0	0.1	0	0	361	0.2	361	362	9.8	99.0
2025-09-24T03:46	10	0	0.1	0	0	362	0.2	361	362	9.8	99.1
2025-09-24T03:47	10	0	0.0	0	0	362	0.3	361	362	9.8	99.3
2025-09-24T03:48	10	0	0.0	0	0	362	0.2	361	362	9.8	99.6
2025-09-24T03:49	10	0	0.1	0	0	362	0.3	361	362	9.8	99.4
2025-09-24T03:50	10	0	0.1	0	0	362	0.3	361	362	9.8	99.0
2025-09-24T03:51	10	0	0.1	0	0	362	0.2	362	363	9.8	98.9
2025-09-24T03:52	10	0	0.1	0	0	362	0.2	361	362	9.8	99.0
2025-09-24T03:53	10	0	0.1	0	0	362	0.2	361	362	9.9	99.1
2025-09-24T03:54	10	0	0.1	0	0	362	0.2	362	362	9.8	99.1
2025-09-24T03:55	10	0	0.1	0	0	362	0.2	362	363	9.8	99.2
2025-09-24T03:56	10	0	0.1	0	0	362	0.2	362	363	9.8	99.4
2025-09-24T03:57	10	0	0.1	0	0	362	0.2	362	363	9.8	99.5
2025-09-24T03:58	10	0	0.1	0	0	362	0.2	362	363	9.8	99.4
2025-09-24T03:59	10	0	0.1	0	0	363	0.3	362	363	9.8	99.6
2025-09-24T04:00	10	0	0.1	0	0	363	0.2	362	363	9.9	99.6
2025-09-24T04:01	10	0	0.1	0	0	363	0.2	363	364	9.8	99.3
2025-09-24T04:02	10	0	0.0	0	0	363	0.2	363	363	9.8	99.1
2025-09-24T04:03	10	0	0.0	0	0	363	0.2	363	364	9.8	99.1
2025-09-24T04:04	10	0	0.0	0	0	363	0.2	363	364	9.8	99.1
2025-09-24T04:05	10	0	0.0	0	0	363	0.2	363	364	9.8	99.0
2025-09-24T04:06	10	0	0.1	0	0	363	0.3	363	364	9.9	99.0
2025-09-24T04:07	10	0	0.0	0	0	363	0.2	363	364	9.9	99.1
2025-09-24T04:08	10	0	0.0	0	0	363	0.3	363	364	9.8	98.7
2025-09-24T04:09	10	0	0.0	0	0	363	0.2	362	364	9.8	98.3
2025-09-24T04:10	10	0	0.0	0	0	363	0.2	363	364	9.9	98.4
2025-09-24T04:11	10	0	0.0	0	0	363	0.3	363	364	10.0	98.2
2025-09-24T04:12	10	0	0.0	0	0	363	0.3	362	364	10.0	98.2
2025-09-24T04:13	10	0	0.0	0	0	363	0.2	363	364	10.0	98.2
2025-09-24T04:14	10	0	0.0	0	0	363	0.2	363	364	9.9	98.0
2025-09-24T04:15	10	0	0.0	0	0	363	0.2	362	363	9.9	97.7
2025-09-24T04:16	10	0	0.1	0	0	363	0.2	362	363	9.9	97.7
2025-09-24T04:17	10	0	0.1	0	0	363	0.2	362	363	9.9	97.4
2025-09-24T04:18	10	0	0.1	0	0	362	0.2	362	363	9.9	97.3
2025-09-24T04:19	10	0	0.0	0	0	362	0.2	362	363	9.9	97.4
2025-09-24T04:20	10	0	0.0	0	0	362	0.2	362	363	10.0	97.4
2025-09-24T04:21	10	0	0.0	0	0	362	0.2	362	363	9.9	97.4
2025-09-24T04:22	10	0	0.0	0	0	362	0.2	362	363	9.9	97.1
2025-09-24T04:23	10	0	0.1	0	0	362	0.2	362	363	9.9	96.9
2025-09-24T04:24	10	0	0.0	0	0	362	0.2	362	363	9.9	97.1
2025-09-24T04:25	10	0	0.1	0	0	362	0.3	362	363	9.9	97.1
2025-09-24T04:26	10	0	0.0	0	0	362	0.3	362	363	9.9	97.3
2025-09-24T04:27	10	0	0.1	0	0	362	0.2	362	363	9.8	96.9
2025-09-24T04:28	10	0	0.0	0	0	362	0.2	362	363	9.9	96.9
2025-09-24T04:29	10	0	0.0	0	0	362	0.2	362	363	9.9	97.2
2025-09-24T04:30	10	0	0.0	0	0	362	0.2	362	363	9.9	97.3
2025-09-24T04:31	10	0	0.1	0	0	362	0.2	361	362	9.9	97.7
2025-09-24T04:32	10	0	0.1	0	0	362	0.2	362	362	9.9	97.9
2025-09-24T04:33	10	0	0.1	0	0	362	0.2	362	362	9.9	98.0
2025-09-24T04:34	10	0	0.0	0	0	362	0.3	361	362	9.8	97.6
2025-09-24T04:35	10	0	0.0	0	0	362	0.2	362	363	9.9	97.9
2025-09-24T04:36	10	0	0.0	0	0	362	0.2	362	363	9.9	98.3
2025-09-24T04:37	10	0	0.0	0	0	362	0.2	362	363	9.9	98.2
2025-09-24T04:38	10	0	0.0	0	0	362	0.2	362	363	9.9	98.1
2025-09-24T04:39	10	0	0.0	0	0	362	0.2	361	362	9.8	98.0
2025-09-24T04:40	10	0	0.1	0	0	362	0.2	362	363	9.8	98.2
2025-09-24T04:41	10	0	0.1	0	0	362	0.2	361	363	9.9	98.5
2025-09-24T04:42	10	0	0.1	0	0	362	0.3	361	363	9.9	98.5
2025-09-24T04:43	10	0	0.1	0	0	362	0.2	362	363	9.9	98.4
2025-09-24T04:44	10	0	0.1	0	0	362	0.3	361	362	9.8	98.2
2025-09-24T04:45	10	0	0.1	0	0	362	0.2	361	362	9.8	98.4
2025-09-24T04:46	10	0	0.0	0	0	362	0.2	361	362	9.8	98.1
2025-09-24T04:47	10	0	0.1	0	0	361	0.2	361	362	9.8	98.3
2025-09-24T04:48	10	0	0.1	0	0	362	0.3	361	362	9.8	98.2
2025-09-24T04:49	10	0	0.1	0	0	361	0.2	361	362	9.8	98.0
2025-09-24T04:50	10	0	0.1	0	0	361	0.2	361	362	9.8	98.3
2025-09-24T04:51	10	0	0.1	0	0	361	0.2	361	362	9.8	98.6
2025-09-24T04:52	10	0	0.1	0	0	362	0.2	361	362	9.8	98.6
2025-09-24T04:53	10	0	0.1	0	0	362	0.2	361	362	9.8	98.5
2025-09-24T04:54	10	0	0.1	0	0	362	0.2	361	362	9.8	98.5
2025-09-24T04:55	10	0	0.1	0	0	362	0.2	361	362	9.8	98.3
2025-09-24T04:56	10	0	0.1	0	0	362	0.2	361	362	9.8	98.0
2025-09-24T04:57	10	0	0.1	0	0	362	0.2	362	362	9.8	98.0
2025-09-24T04:58	10	0	0.1	0	0	362	0.2	361	362	9.8	98.0
2025-09-24T04:59	10	0	0.1	0	0	362	0.2	361	362	9.8	97.8
2025-09-24T05:00	10	0	0.1	0	0	362	0.2	362	362	9.8	97.5
2025-09-24T05:01	10	0	0.0	0	0	362	0.2	361	362	9.8	97.4
2025-09-24T05:02	10	0	0.0	0	0	362	0.2	361	362	9.8	97.7
2025-09-24T05:03	10	0	0.1	0	0	362	0.3	361	362	9.8	97.5
2025-09-24T05:04	10	0	0.1	0	0	361	0.2	361	362	9.8	97.3
2025-09-24T05:05	10	0	0.1	0	0	362	0.2	361	362	9.8	97.0
2025-09-24T05:06	10	0	0.1	0	0	362	0.2	361	362	9.9	97.1
2025-09-24T05:07	10	0	0.1	0	0	362	0.2	361	362	9.9	97.0
2025-09-24T05:08	10	0	0.0	0	0	362	0.3	361	363	9.9	97.2
2025-09-24T05:09	10	0	0.1	0	0	362	0.2	361	362	9.9	96.8
2025-09-24T05:10	10	0	0.1	0	0	362	0.3	361	363	9.9	95.8
2025-09-24T05:11	10	0	0.1	0	0	362	0.2	361	362	9.9	95.8
2025-09-24T05:12	10	0	0.1	0	0	362	0.2	361	362	9.9	96.3
2025-09-24T05:13	10	0	0.1	0	0	362	0.2	362	363	10.0	96.6
2025-09-24T05:14	10	0	0.1	0	0	362	0.2	362	363	9.9	96.1
2025-09-24T05:15	10	0	0.0	0	0	362	0.2	362	363	9.9	95.6
2025-09-24T05:16	10	0	0.1	0	0	362	0.2	362	363	9.9	95.2
2025-09-24T05:17	10	0	0.0	0	0	362	0.2	362	363	10.0	95.3
2025-09-24T05:18	10	0	0.1	0	0	363	0.2	362	363	10.0	95.8
2025-09-24T05:19	10	0	0.0	0	0	362	0.2	362	363	10.0	95.8
2025-09-24T05:20	10	0	0.1	0	0	362	0.3	362	363	10.0	95.9
2025-09-24T05:21	10	0	0.0	0	0	362	0.2	362	363	9.9	95.4
2025-09-24T05:22	10	0	0.0	0	0	362	0.3	362	363	9.9	95.5
2025-09-24T05:23	10	0	0.1	0	0	362	0.2	361	363	9.9	95.7
2025-09-24T05:24	10	0	0.1	0	0	362	0.3	361	363	10.0	96.1
2025-09-24T05:25	10	0	0.1	0	0	362	0.3	362	363	10.0	96.2
2025-09-24T05:26	10	0	0.1	0	0	362	0.2	362	363	10.0	96.0
2025-09-24T05:27	10	0	0.1	0	0	363	0.2	362	363	10.0	96.3
2025-09-24T05:28	10	0	0.1	0	0	362	0.2	362	363	10.0	96.7
2025-09-24T05:29	10	0	0.0	0	0	363	0.2	362	363	10.0	96.7
2025-09-24T05:30	10	0	0.1	0	0	363	0.2	362	363	10.0	96.5
2025-09-24T05:31	10	0	0.1	0	0	363	0.2	362	363	9.9	96.6
2025-09-24T05:32	10	0	0.1	0	0	363	0.2	362	363	9.9	96.5
2025-09-24T05:33	10	0	0.1	0	0	362	0.2	362	363	9.9	96.7
2025-09-24T05:34	10	0	0.0	0	0	363	0.3	362	363	9.9	96.6
2025-09-24T05:35	10	0	0.1	0	0	363	0.2	362	363	9.9	96.6
2025-09-24T05:36	10	0	0.1	0	0	362	0.3	362	363	9.9	96.6
2025-09-24T05:37	10	0	0.1	0	0	362	0.2	362	363	10.0	96.8
2025-09-24T05:38	10	0	0.1	0	0	363	0.2	362	363	10.0	96.9
2025-09-24T05:39	10	0	0.1	0	0	362	0.2	362	363	10.0	97.2
2025-09-24T05:40	10	0	0.1	0	0	363	0.2	362	363	9.9	97.3
2025-09-24T05:41	10	0	0.1	0	1	363	0.2	362	363	9.9	97.4
2025-09-24T05:42	10	0	0.1	0	0	363	0.2	362	363	9.9	97.3
2025-09-24T05:43	10	0	0.1	0	0	363	0.3	362	363	9.9	97.0
2025-09-24T05:44	10	0	0.1	0	1	363	0.2	362	363	9.9	97.3
2025-09-24T05:45	10	0	0.1	0	1	363	0.2	362	363	10.0	97.3
2025-09-24T05:46	10	1	0.1	0	1	363	0.2	362	363	10.0	97.7
2025-09-24T05:47	10	1	0.1	0	1	363	0.3	362	363	9.9	97.1
2025-09-24T05:48	10	1	0.1	1	1	363	0.2	362	363	9.9	96.6
2025-09-24T05:49	10	1	0.1	1	1	363	0.2	362	364	9.9	96.4
2025-09-24T05:50	10	1	0.1	1	1	363	0.2	363	364	9.9	96.5
2025-09-24T05:51	10	1	0.1	1	1	363	0.2	363	364	9.9	96.5
2025-09-24T05:52	10	1	0.1	1	1	363	0.2	363	364	9.9	96.3
2025-09-24T05:53	10	1	0.1	1	1	363	0.2	363	364	9.9	96.5
2025-09-24T05:54	10	1	0.1	1	2	364	0.2	363	364	9.9	96.4
2025-09-24T05:55	10	1	0.1	1	2	363	0.2	363	364	10.0	96.5
2025-09-24T05:56	10	1	0.1	1	2	363	0.2	363	364	10.0	96.4
2025-09-24T05:57	10	1	0.1	1	2	364	0.2	363	364	10.0	96.6
2025-09-24T05:58	10	1	0.1	1	1	363	0.2	363	364	10.0	96.8
2025-09-24T05:59	10	1	0.1	1	1	364	0.2	363	364	10.0	96.9
2025-09-24T06:00	10	1	0.0	1	1	364	0.2	363	364	10.0	96.8
2025-09-24T06:01	10	1	0.1	1	1	364	0.3	363	364	10.0	96.7
2025-09-24T06:02	10	1	0.1	1	1	363	0.2	363	364	10.0	96.9
2025-09-24T06:03	10	1	0.1	1	1	364	0.2	363	364	9.9	96.4
2025-09-24T06:04	10	2	0.1	1	2	364	0.2	363	364	10.0	96.6
2025-09-24T06:05	10	2	0.1	1	2	363	0.3	363	364	9.9	96.8
2025-09-24T06:06	10	2	0.1	2	2	364	0.3	363	364	10.0	96.8
2025-09-24T06:07	10	2	0.1	2	2	363	0.2	363	364	9.9	96.4
2025-09-24T06:08	10	2	0.1	2	2	364	0.2	363	364	9.9	96.1
2025-09-24T06:09	10	2	0.1	2	2	363	0.2	362	364	9.9	95.7
2025-09-24T06:10	10	2	0.1	2	2	363	0.3	363	364	9.9	96.0
2025-09-24T06:11	10	2	0.1	2	3	363	0.2	363	364	9.9	95.9
2025-09-24T06:12	10	3	0.1	2	3	364	0.2	363	364	9.9	95.8
2025-09-24T06:13	10	3	0.1	3	3	364	0.1	363	364	10.0	95.9
2025-09-24T06:14	10	3	0.1	3	3	363	0.3	363	364	10.0	96.1
2025-09-24T06:15	10	3	0.1	3	3	364	0.2	363	364	10.0	96.3
2025-09-24T06:16	10	3	0.1	3	4	364	0.2	364	365	10.0	96.5
2025-09-24T06:17	10	4	0.1	3	4	364	0.2	364	364	9.9	96.0
2025-09-24T06:18	10	4	0.1	4	4	364	0.3	363	364	10.0	96.0
2025-09-24T06:19	10	4	0.1	4	4	364	0.2	364	364	10.0	96.3
2025-09-24T06:20	10	4	0.1	4	4	364	0.2	364	364	10.0	96.4
2025-09-24T06:21	10	4	0.1	4	4	364	0.3	363	365	10.0	96.3
2025-09-24T06:22	10	4	0.1	4	5	364	0.4	363	365	10.0	96.7
2025-09-24T06:23	10	5	0.1	4	5	364	0.2	364	364	10.0	97.3
2025-09-24T06:24	10	5	0.1	5	5	364	0.3	364	365	10.0	97.4
2025-09-24T06:25	10	5	0.1	5	5	364	0.3	363	365	10.0	97.7
2025-09-24T06:26	10	5	0.1	5	5	365	0.2	364	365	10.0	97.8
2025-09-24T06:27	10	5	0.1	5	5	364	0.2	364	365	10.0	98.0
2025-09-24T06:28	10	5	0.1	5	6	365	0.3	364	365	10.0	98.0
2025-09-24T06:29	10	6	0.1	5	6	365	0.2	365	366	10.0	98.0
2025-09-24T06:30	10	6	0.1	5	6	365	0.2	365	365	10.0	98.0
2025-09-24T06:31	10	6	0.1	5	6	365	0.2	365	366	10.0	98.0
2025-09-24T06:32	10	5	0.1	5	6	365	0.2	365	366	10.0	97.9
2025-09-24T06:33	10	5	0.1	5	6	365	0.2	365	366	10.0	97.8
2025-09-24T06:34	10	5	0.1	5	5	365	0.2	365	366	10.0	97.8
2025-09-24T06:35	10	5	0.1	5	5	365	0.2	365	366	10.0	97.9
2025-09-24T06:36	10	5	0.1	5	5	365	0.2	365	366	10.0	97.9
2025-09-24T06:37	10	5	0.1	5	5	365	0.2	365	366	10.0	97.6
2025-09-24T06:38	10	5	0.1	5	5	366	0.2	365	366	10.0	97.7
2025-09-24T06:39	10	5	0.1	5	5	365	0.3	365	366	10.0	97.2
2025-09-24T06:40	10	5	0.1	5	5	366	0.2	365	366	10.0	97.0
2025-09-24T06:41	10	5	0.1	5	5	366	0.2	365	366	10.0	96.8
2025-09-24T06:42	10	5	0.1	5	5	366	0.2	365	366	10.0	96.6
2025-09-24T06:43	10	5	0.1	5	5	366	0.2	365	366	10.1	96.9
2025-09-24T06:44	10	5	0.1	5	5	366	0.2	365	366	10.1	97.6
2025-09-24T06:45	10	5	0.1	5	5	366	0.2	365	366	10.1	97.7
2025-09-24T06:46	10	5	0.1	5	6	366	0.2	365	366	10.1	97.1
2025-09-24T06:47	10	5	0.1	5	6	366	0.2	365	366	10.1	96.9
2025-09-24T06:48	10	6	0.2	5	6	366	0.2	365	366	10.1	96.6
2025-09-24T06:49	10	6	0.2	6	7	366	0.2	366	367	10.2	96.6
2025-09-24T06:50	10	7	0.2	6	7	366	0.2	365	366	10.1	96.6
2025-09-24T06:51	10	7	0.2	7	8	366	0.2	366	367	10.1	95.8
2025-09-24T06:52	10	8	0.2	8	9	366	0.2	366	366	10.1	95.3
2025-09-24T06:53	10	9	0.3	8	9	367	0.3	366	367	10.1	95.5
2025-09-24T06:54	10	9	0.1	9	10	367	0.2	366	368	10.1	95.3
2025-09-24T06:55	10	10	0.2	10	10	367	0.3	367	368	10.2	95.7
2025-09-24T06:56	10	10	0.1	10	10	368	0.2	367	368	10.2	95.5
2025-09-24T06:57	10	10	0.1	10	10	367	0.3	367	368	10.2	95.5
2025-09-24T06:58	10	10	0.1	10	11	368	0.3	367	368	10.2	95.3
2025-09-24T06:59	10	10	0.1	10	11	368	0.2	367	368	10.2	94.7
2025-09-24T07:00	10	11	0.1	10	11	368	0.2	367	368	10.2	94.3
2025-09-24T07:01	10	11	0.1	10	11	368	0.2	368	369	10.3	94.7
2025-09-24T07:02	10	10	0.1	10	11	368	0.2	368	369	10.3	94.8
2025-09-24T07:03	10	10	0.1	10	11	368	0.3	368	369	10.3	94.8
2025-09-24T07:04	10	10	0.1	10	10	368	0.2	368	369	10.3	94.7
2025-09-24T07:05	10	10	0.1	10	10	368	0.3	367	369	10.3	94.9
2025-09-24T07:06	10	10	0.1	10	10	368	0.3	367	369	10.2	94.1
2025-09-24T07:07	10	10	0.1	10	10	368	0.3	367	368	10.2	93.0
2025-09-24T07:08	10	10	0.1	9	10	368	0.3	367	369	10.2	93.0
2025-09-24T07:09	10	9	0.1	9	10	368	0.2	367	368	10.3	93.3
2025-09-24T07:10	10	9	0.1	9	9	368	0.3	367	369	10.3	93.4
2025-09-24T07:11	10	9	0.1	9	9	368	0.2	367	369	10.3	93.2
2025-09-24T07:12	10	9	0.1	9	9	368	0.3	367	368	10.3	92.9
2025-09-24T07:13	10	9	0.1	9	10	368	0.3	367	368	10.3	92.7
2025-09-24T07:14	10	9	0.2	9	10	367	0.3	367	368	10.3	93.1
2025-09-24T07:15	10	10	0.1	10	10	368	0.2	367	368	10.4	93.7
2025-09-24T07:16	10	10	0.2	10	10	368	0.3	367	368	10.3	93.8
2025-09-24T07:17	10	11	0.2	10	11	368	0.2	367	368	10.3	93.6
2025-09-24T07:18	10	11	0.1	11	11	368	0.2	367	368	10.3	93.6
2025-09-24T07:19	10	11	0.1	11	12	368	0.2	368	369	10.4	93.7
2025-09-24T07:20	10	12	0.1	12	12	368	0.2	368	369	10.3	93.8
2025-09-24T07:21	10	12	0.1	12	12	369	0.2	368	369	10.4	94.0
2025-09-24T07:22	10	12	0.1	12	12	369	0.2	369	370	10.4	94.3
2025-09-24T07:23	10	12	0.1	12	13	369	0.2	369	369	10.4	94.3
2025-09-24T07:24	10	12	0.1	12	13	369	0.2	369	370	10.5	94.2
2025-09-24T07:25	10	12	0.1	12	13	370	0.3	369	370	10.5	94.3
2025-09-24T07:26	10	12	0.1	12	12	369	0.3	368	370	10.4	93.2
2025-09-24T07:27	10	12	0.1	12	12	369	0.2	368	369	10.4	92.5
2025-09-24T07:28	10	11	0.2	11	12	369	0.2	368	369	10.4	93.2
2025-09-24T07:29	10	11	0.2	11	11	368	0.3	368	369	10.4	93.2
2025-09-24T07:30	10	10	0.1	10	11	368	0.2	367	368	10.4	92.7
2025-09-24T07:31	10	10	0.1	10	10	368	0.2	367	368	10.4	93.2
2025-09-24T07:32	10	10	0.1	10	10	368	0.2	368	369	10.4	93.7
2025-09-24T07:33	10	10	0.1	10	10	369	0.2	368	369	10.4	93.9
2025-09-24T07:34	10	10	0.1	10	10	369	0.2	368	369	10.4	93.7
2025-09-24T07:35	10	10	0.1	10	10	369	0.3	368	369	10.4	93.5
2025-09-24T07:36	10	10	0.1	9	10	368	0.2	368	369	10.5	93.8
2025-09-24T07:37	10	9	0.2	9	10	368	0.2	368	369	10.4	93.7
2025-09-24T07:38	10	9	0.1	8	9	368	0.3	367	369	10.4	93.4
2025-09-24T07:39	10	8	0.1	8	9	368	0.2	368	369	10.4	93.3
2025-09-24T07:40	10	8	0.1	8	8	368	0.2	368	369	10.4	93.0
2025-09-24T07:41	10	8	0.1	8	8	368	0.2	368	369	10.4	93.1
2025-09-24T07:42	10	8	0.1	8	8	369	0.3	368	369	10.5	93.2
2025-09-24T07:43	10	8	0.1	8	8	368	0.2	368	369	10.4	92.9
2025-09-24T07:44	10	9	0.1	8	9	369	0.2	368	369	10.4	93.0
2025-09-24T07:45	10	9	0.1	9	9	369	0.2	368	369	10.5	93.4
2025-09-24T07:46	10	9	0.1	9	9	369	0.3	368	369	10.4	92.0
2025-09-24T07:47	10	9	0.1	9	9	368	0.2	368	369	10.4	93.5
2025-09-24T07:48	10	10	0.1	9	10	368	0.2	368	369	10.4	93.5
2025-09-24T07:49	10	10	0.2	10	10	369	0.4	368	370	10.4	93.5
2025-09-24T07:50	10	10	0.3	10	11	369	0.3	368	369	10.4	93.5
2025-09-24T07:51	10	12	0.4	11	12	369	0.3	369	370	10.4	93.5
2025-09-24T07:52	10	13	0.3	12	13	370	0.2	369	370	10.4	93.5
2025-09-24T07:53	10	14	0.3	13	15	370	0.3	369	371	10.4	93.5
2025-09-24T07:54	10	15	0.2	14	15	370	0.2	370	371	10.6	92.8
2025-09-24T07:55	10	15	0.1	15	16	371	0.3	370	371	10.6	92.1
2025-09-24T07:56	10	16	0.1	15	16	371	0.2	370	371	10.5	93.0
2025-09-24T07:57	10	16	0.1	16	16	371	0.2	370	371	10.6	93.6
2025-09-24T07:58	10	16	0.1	16	16	371	0.2	370	371	10.5	93.3
2025-09-24T07:59	10	16	0.1	16	16	371	0.3	370	372	10.6	93.5
2025-09-24T08:00	10	16	0.1	15	16	371	0.2	371	372	10.6	93.4
2025-09-24T08:01	10	16	0.1	15	16	371	0.2	371	372	10.6	93.7
2025-09-24T08:02	10	16	0.1	15	16	371	0.2	371	372	10.7	93.5
2025-09-24T08:03	10	15	0.1	15	16	372	0.3	371	372	10.7	93.7
2025-09-24T08:04	10	15	0.2	15	16	371	0.4	370	372	10.6	93.5
2025-09-24T08:05	10	15	0.1	15	15	371	0.3	370	372	10.6	93.6
2025-09-24T08:06	10	14	0.1	14	15	371	0.3	370	372	10.6	93.7
2025-09-24T08:07	10	14	0.1	14	15	371	0.2	371	372	10.6	94.3
2025-09-24T08:08	10	15	0.1	14	15	371	0.2	370	371	10.6	94.0
2025-09-24T08:09	10	15	0.2	15	15	371	0.2	370	371	10.6	93.6
2025-09-24T08:10	10	16	0.2	15	16	371	0.3	370	372	10.6	93.9
2025-09-24T08:11	10	16	0.2	16	17	371	0.2	371	372	10.6	94.1
2025-09-24T08:12	10	17	0.1	16	17	371	0.2	371	372	10.6	93.8
2025-09-24T08:13	10	17	0.1	17	17	371	0.2	371	372	10.6	94.0
2025-09-24T08:14	10	17	0.1	17	18	371	0.2	371	372	10.6	94.0
2025-09-24T08:15	10	17	0.1	17	18	371	0.2	371	372	10.7	94.5
2025-09-24T08:16	10	17	0.1	17	18	372	0.2	371	372	10.7	95.0
2025-09-24T08:17	10	18	0.1	17	18	372	0.3	372	373	10.7	94.4
2025-09-24T08:18	10	18	0.1	17	18	372	0.2	372	373	10.7	94.2
2025-09-24T08:19	10	17	0.1	17	18	372	0.2	372	373	10.6	93.6
2025-09-24T08:20	10	17	0.1	17	17	372	0.2	372	373	10.6	93.7
2025-09-24T08:21	10	17	0.2	16	17	372	0.2	372	373	10.7	94.0
2025-09-24T08:22	10	16	0.2	16	16	372	0.2	371	373	10.7	94.5
2025-09-24T08:23	10	16	0.2	15	16	372	0.2	372	373	10.8	94.2
2025-09-24T08:24	10	15	0.2	15	15	372	0.3	371	373	10.7	93.2
2025-09-24T08:25	10	15	0.1	14	15	372	0.3	371	373	10.6	93.0
2025-09-24T08:26	10	14	0.2	14	14	371	0.3	371	372	10.6	93.1
2025-09-24T08:27	10	14	0.2	14	14	371	0.2	371	372	10.6	93.4
2025-09-24T08:28	10	13	0.1	13	14	371	0.3	371	372	10.7	93.2
2025-09-24T08:29	10	13	0.1	13	13	372	0.2	371	372	10.7	93.3
2025-09-24T08:30	10	13	0.1	13	13	372	0.2	371	372	10.7	93.1
2025-09-24T08:31	10	13	0.1	13	13	371	0.2	371	372	10.7	92.6
2025-09-24T08:32	10	13	0.1	12	13	371	0.2	371	372	10.7	92.4
2025-09-24T08:33	10	13	0.1	12	13	371	0.2	371	372	10.7	92.3
2025-09-24T08:34	10	13	0.1	13	13	372	0.2	371	372	10.7	92.6
2025-09-24T08:35	10	13	0.2	13	14	371	0.2	370	371	10.7	92.6
2025-09-24T08:36	10	14	0.3	14	15	371	0.3	371	372	10.7	92.4
2025-09-24T08:37	10	15	0.3	15	16	372	0.2	371	372	10.7	91.9
2025-09-24T08:38	10	16	0.3	16	17	372	0.3	371	372	10.7	91.8
2025-09-24T08:39	10	17	0.2	17	18	372	0.2	372	372	10.8	92.3
2025-09-24T08:40	10	18	0.2	17	18	372	0.2	371	372	10.8	92.3
2025-09-24T08:41	10	19	0.3	18	19	372	0.2	372	373	10.8	92.2
2025-09-24T08:42	10	19	0.3	19	20	373	0.3	372	374	10.8	92.1
2025-09-24T08:43	10	21	0.4	20	21	373	0.3	373	374	10.9	91.9
2025-09-24T08:44	10	22	0.4	21	23	374	0.2	373	374	10.9	92.0
2025-09-24T08:45	10	23	0.4	22	24	374	0.2	373	374	10.9	92.7
2025-09-24T08:46	10	24	0.3	24	25	375	0.3	374	375	11.0	92.5
2025-09-24T08:47	10	25	0.2	25	25	375	0.2	375	376	11.0	92.5
2025-09-24T08:48	10	25	0.1	25	26	375	0.3	374	376	10.9	92.4
2025-09-24T08:49	10	26	0.1	25	26	375	0.2	375	375	10.9	91.8
2025-09-24T08:50	10	25	0.1	25	26	375	0.2	375	376	10.9	91.8
2025-09-24T08:51	10	25	0.1	25	25	375	0.3	375	376	10.9	91.4
2025-09-24T08:52	10	25	0.1	25	25	375	0.3	375	376	11.0	91.3
2025-09-24T08:53	10	25	0.1	25	25	375	0.3	375	376	11.0	91.4
2025-09-24T08:54	10	25	0.1	25	25	376	0.2	375	376	11.0	90.4
2025-09-24T08:55	10	24	0.1	24	25	375	0.2	375	376	11.0	90.7
2025-09-24T08:56	10	24	0.2	23	24	376	0.2	375	376	11.1	91.6
2025-09-24T08:57	10	23	0.2	23	23	375	0.2	375	376	11.0	91.1
2025-09-24T08:58	10	22	0.3	22	23	375	0.5	375	376	11.0	90.4
2025-09-24T08:59	10	21	0.3	20	22	375	0.2	374	375	10.9	90.1
2025-09-24T09:00	10	20	0.3	20	21	374	0.4	374	375	11.0	90.8
2025-09-24T09:01	10	19	0.2	19	20	374	0.2	374	375	10.9	90.6
2025-09-24T09:02	10	19	0.1	19	19	374	0.2	374	375	11.0	90.9
2025-09-24T09:03	10	19	0.2	19	20	374	0.3	374	375	11.0	91.1
2025-09-24T09:04	10	19	0.1	19	19	374	0.2	373	374	11.0	90.9
2025-09-24T09:05	10	19	0.2	19	20	374	0.2	373	375	11.1	90.8
2025-09-24T09:06	10	20	0.1	20	20	374	0.2	373	374	11.1	91.3
2025-09-24T09:07	10	20	0.2	20	20	374	0.2	373	374	11.0	90.7
2025-09-24T09:08	10	20	0.2	20	21	374	0.2	373	374	11.0	90.4
2025-09-24T09:09	10	21	0.2	21	21	374	0.3	374	375	11.0	89.9
2025-09-24T09:10	10	22	0.2	21	22	374	0.2	374	375	11.0	88.8
2025-09-24T09:11	10	22	0.3	22	23	375	0.4	374	376	11.1	89.3
2025-09-24T09:12	10	23	0.2	23	24	375	0.3	374	375	11.1	89.5
2025-09-24T09:13	10	24	0.1	23	24	375	0.4	375	376	11.1	89.5
2025-09-24T09:14	10	24	0.2	24	24	375	0.2	375	376	11.1	89.5
2025-09-24T09:15	10	24	0.2	24	25	376	0.3	375	377	11.1	89.3
2025-09-24T09:16	10	24	0.1	24	24	376	0.2	376	377	11.2	89.2
2025-09-24T09:17	10	24	0.1	24	24	376	0.3	376	377	11.2	88.7
2025-09-24T09:18	10	23	0.3	23	24	376	0.2	375	376	11.3	89.3
2025-09-24T09:19	10	23	0.2	22	23	376	0.2	376	377	11.3	88.8
2025-09-24T09:20	10	22	0.1	22	22	376	0.2	376	377	11.4	88.6
2025-09-24T09:21	10	22	0.1	22	22	377	0.3	376	377	11.4	89.1
2025-09-24T09:22	10	22	0.1	22	22	376	0.2	375	377	11.3	87.5
2025-09-24T09:23	10	22	0.1	22	23	376	0.2	376	377	11.3	86.6
2025-09-24T09:24	10	22	0.2	22	23	376	0.2	376	377	11.3	86.7
2025-09-24T09:25	10	23	0.3	22	23	376	0.3	376	377	11.3	85.7
2025-09-24T09:26	10	24	0.4	23	25	376	0.2	376	377	11.4	86.0
2025-09-24T09:27	10	25	0.5	24	26	377	0.2	376	377	11.4	86.3
2025-09-24T09:28	10	27	0.5	26	28	377	0.3	376	378	11.4	87.0
2025-09-24T09:29	10	29	0.5	28	30	377	0.4	377	378	11.4	87.1
2025-09-24T09:30	10	31	0.4	30	31	377	0.2	377	378	11.4	86.6
2025-09-24T09:31	10	32	0.3	31	32	378	0.3	377	379	11.5	87.0
2025-09-24T09:32	10	32	0.1	32	32	379	0.2	378	379	11.6	87.6
2025-09-24T09:33	10	32	0.2	31	32	379	0.2	379	380	11.5	87.2
2025-09-24T09:34	10	31	0.3	30	31	379	0.2	379	380	11.5	86.7
2025-09-24T09:35	10	30	0.3	29	31	379	0.4	378	379	11.4	85.5
2025-09-24T09:36	10	29	0.3	28	29	378	0.3	377	378	11.4	84.7
2025-09-24T09:37	10	28	0.2	28	28	378	0.2	378	379	11.4	84.4
2025-09-24T09:38	10	28	0.1	28	28	378	0.2	378	379	11.5	85.1
2025-09-24T09:39	10	28	0.2	28	28	379	0.2	378	379	11.6	85.5
2025-09-24T09:40	10	29	0.3	28	29	379	0.3	378	379	11.6	86.3
2025-09-24T09:41	10	30	0.3	29	30	379	0.2	378	379	11.6	86.6
2025-09-24T09:42	10	31	0.3	30	31	379	0.3	379	380	11.6	85.9
2025-09-24T09:43	10	32	0.3	31	32	380	0.3	379	380	11.6	86.4
2025-09-24T09:44	10	32	0.1	32	33	379	0.3	378	380	11.6	85.6
2025-09-24T09:45	10	32	0.1	32	33	379	0.3	379	379	11.5	85.4
2025-09-24T09:46	10	32	0.1	32	32	379	0.3	378	380	11.5	85.4
2025-09-24T09:47	10	32	0.2	32	32	379	0.4	378	380	11.5	85.9
2025-09-24T09:48	10	32	0.1	31	32	379	0.2	378	379	11.5	86.1
2025-09-24T09:49	10	31	0.1	31	32	379	0.2	378	379	11.5	86.0
2025-09-24T09:50	10	31	0.2	31	31	379	0.2	378	380	11.5	85.8
2025-09-24T09:51	10	31	0.1	30	31	379	0.2	378	379	11.5	85.9
2025-09-24T09:52	10	30	0.1	30	30	379	0.2	378	379	11.5	85.3
2025-09-24T09:53	10	30	0.1	30	30	379	0.3	379	380	11.6	86.2
2025-09-24T09:54	10	30	0.1	30	31	379	0.2	379	380	11.6	85.3
2025-09-24T09:55	10	31	0.2	30	31	379	0.2	379	380	11.6	85.4
2025-09-24T09:56	10	32	0.3	31	32	380	0.4	379	381	11.7	86.8
2025-09-24T09:57	10	33	0.4	32	34	380	0.3	379	380	11.7	86.0
2025-09-24T09:58	10	34	0.4	34	35	380	0.3	379	381	11.6	85.2
2025-09-24T09:59	10	36	0.4	35	36	380	0.2	379	380	11.6	84.7
2025-09-24T10:00	10	37	0.4	36	38	380	0.2	380	381	11.6	85.8
2025-09-24T10:01	10	38	0.3	38	39	381	0.3	380	382	11.7	86.1
2025-09-24T10:02	10	39	0.3	38	39	382	0.2	381	382	11.8	86.0
2025-09-24T10:03	10	40	0.2	40	40	382	0.2	381	382	11.8	85.6
2025-09-24T10:04	10	41	0.2	40	41	383	0.3	382	383	11.8	85.4
2025-09-24T10:05	10	41	0.1	41	41	383	0.3	382	384	11.9	85.8
2025-09-24T10:06	10	41	0.1	41	42	383	0.3	382	384	11.9	85.2
2025-09-24T10:07	10	42	0.1	42	42	384	0.2	383	384	12.0	85.8
2025-09-24T10:08	10	42	0.1	42	42	384	0.2	383	384	12.1	86.8
2025-09-24T10:09	10	42	0.1	42	42	383	0.3	383	384	12.0	83.9
2025-09-24T10:10	10	43	0.2	42	43	383	0.3	383	384	11.9	82.4
2025-09-24T10:11	10	43	0.2	43	44	383	0.3	382	383	11.9	83.1
2025-09-24T10:12	10	44	0.2	44	45	384	0.3	383	384	11.9	82.9
2025-09-24T10:13	10	45	0.1	44	45	384	0.2	383	384	11.9	83.5
2025-09-24T10:14	10	45	0.1	45	45	384	0.2	384	385	11.9	83.2
2025-09-24T10:15	10	45	0.1	45	45	385	0.2	384	385	12.0	83.5
2025-09-24T10:16	10	45	0.1	45	46	384	0.4	383	385	11.9	83.4
2025-09-24T10:17	10	46	0.2	45	46	384	0.2	383	384	11.9	83.9
2025-09-24T10:18	10	47	0.3	46	47	384	0.4	383	385	12.0	85.1
2025-09-24T10:19	10	48	0.4	47	48	385	0.3	384	385	12.0	84.3
2025-09-24T10:20	10	49	0.3	48	49	385	0.3	384	385	12.0	83.9
2025-09-24T10:21	10	50	0.1	50	50	385	0.3	385	386	11.9	83.2
2025-09-24T10:22	10	50	0.1	50	50	386	0.2	385	386	11.9	82.5
2025-09-24T10:23	10	50	0.1	49	50	385	0.2	385	386	11.9	82.4
2025-09-24T10:24	10	49	0.2	49	49	386	0.2	385	386	12.0	82.6
2025-09-24T10:25	10	48	0.3	48	49	386	0.3	385	387	12.0	82.9
2025-09-24T10:26	10	48	0.3	47	48	386	0.3	385	387	12.1	83.1
2025-09-24T10:27	10	46	0.4	46	47	386	0.2	386	386	12.0	82.8
2025-09-24T10:28	10	45	0.4	44	46	386	0.2	386	387	12.1	83.2
2025-09-24T10:29	10	44	0.4	43	44	386	0.3	385	386	12.1	83.1
2025-09-24T10:30	10	42	0.4	42	43	386	0.5	385	386	12.2	83.8
2025-09-24T10:31	10	41	0.5	40	42	384	0.7	383	386	12.2	82.3
2025-09-24T10:32	10	39	0.4	39	40	384	0.3	383	385	12.1	78.5
2025-09-24T10:33	10	38	0.3	38	39	383	0.2	383	384	12.1	77.9
2025-09-24T10:34	10	37	0.3	37	38	383	0.3	383	384	12.1	77.9
2025-09-24T10:35	10	36	0.2	36	37	383	0.2	383	384	12.1	78.1
2025-09-24T10:36	10	36	0.1	36	36	383	0.2	383	384	12.1	77.7
2025-09-24T10:37	10	37	0.2	36	37	383	0.2	383	384	12.1	77.6
2025-09-24T10:38	10	37	0.3	37	38	383	0.3	382	384	12.2	79.6
2025-09-24T10:39	10	39	0.4	38	39	383	0.2	382	384	12.1	79.6
2025-09-24T10:40	10	40	0.4	39	41	383	0.2	382	383	12.0	78.4
2025-09-24T10:41	10	42	0.5	41	42	383	0.4	382	384	12.0	77.9
2025-09-24T10:42	10	43	0.5	43	44	384	0.3	383	384	12.1	78.5
2025-09-24T10:43	10	45	0.5	44	46	384	0.4	384	385	12.1	78.9
2025-09-24T10:44	10	47	0.5	46	48	385	0.2	384	385	12.1	79.6
2025-09-24T10:45	10	49	0.5	48	50	385	0.2	384	385	12.1	79.5
2025-09-24T10:46	10	51	0.5	50	51	386	0.3	385	386	12.2	80.7
2025-09-24T10:47	10	52	0.4	51	53	386	0.2	386	387	12.2	76.9
2025-09-24T10:48	10	53	0.3	53	54	386	0.3	385	387	12.1	75.6
2025-09-24T10:49	10	54	0.2	54	54	386	0.2	386	387	12.2	75.9
2025-09-24T10:50	10	54	0.1	54	54	386	0.3	386	387	12.2	75.9
2025-09-24T10:51	10	55	0.1	54	55	386	0.3	386	387	12.3	75.0
2025-09-24T10:52	10	55	0.1	55	55	387	0.3	386	388	12.4	75.6
2025-09-24T10:53	10	55	0.2	55	56	387	0.3	387	388	12.3	74.9
2025-09-24T10:54	10	56	0.2	56	56	387	0.2	386	387	12.3	74.8
2025-09-24T10:55	10	57	0.2	56	57	387	0.2	387	388	12.4	75.0
2025-09-24T10:56	10	57	0.2	57	58	387	0.3	387	388	12.4	76.5
2025-09-24T10:57	10	58	0.3	58	58	388	0.2	387	388	12.4	76.8
2025-09-24T10:58	10	59	0.2	58	59	388	0.2	387	388	12.6	74.7
2025-09-24T10:59	10	59	0.2	59	60	388	0.3	388	389	12.8	74.4
2025-09-24T11:00	10	60	0.2	60	60	389	0.3	388	389	12.8	75.8
2025-09-24T11:01	10	61	0.2	60	61	389	0.4	388	389	12.5	76.0
2025-09-24T11:02	10	62	0.2	61	62	388	0.2	388	389	12.4	75.2
2025-09-24T11:03	10	63	0.4	62	63	389	0.3	388	390	12.4	76.1
2025-09-24T11:04	10	64	0.3	63	64	389	0.2	389	390	12.5	77.3
2025-09-24T11:05	10	65	0.2	64	65	389	0.2	389	390	12.6	75.1
2025-09-24T11:06	10	65	0.2	65	65	390	0.3	390	391	12.7	74.6
2025-09-24T11:07	10	66	0.5	65	67	390	0.2	389	391	12.7	74.8
2025-09-24T11:08	10	68	0.8	67	70	390	0.3	389	391	12.6	75.0
2025-09-24T11:09	10	71	1.0	70	73	391	0.2	390	391	12.7	75.5
2025-09-24T11:10	10	73	0.2	73	73	391	0.3	391	392	12.8	75.3
2025-09-24T11:11	10	73	0.7	72	74	392	0.2	392	393	12.8	75.9
2025-09-24T11:12	10	71	0.5	71	72	392	0.2	392	393	12.8	77.5
2025-09-24T11:13	10	71	0.1	70	71	392	0.2	391	392	12.9	75.3
2025-09-24T11:14	10	70	0.1	70	70	392	0.3	391	392	12.9	76.7
2025-09-24T11:15	10	70	0.2	70	70	392	0.2	392	393	12.7	77.1
2025-09-24T11:16	10	71	0.4	70	72	392	0.3	392	393	12.6	76.8
2025-09-24T11:17	10	72	0.4	71	73	392	0.2	392	393	12.6	77.8
2025-09-24T11:18	10	73	0.2	72	73	393	0.2	393	394	12.8	78.7
2025-09-24T11:19	10	72	0.2	72	73	393	0.4	392	394	12.8	78.2
2025-09-24T11:20	10	74	0.6	73	75	391	0.6	391	393	12.6	76.8
2025-09-24T11:21	10	74	0.2	74	75	391	0.4	391	393	12.6	76.5
2025-09-24T11:22	10	75	0.4	74	75	393	0.4	392	393	12.6	76.4
2025-09-24T11:23	10	76	0.4	75	77	393	0.4	392	394	12.7	76.9
2025-09-24T11:24	10	77	0.4	77	78	393	0.2	393	394	12.6	76.4
2025-09-24T11:25	10	79	0.6	78	80	393	0.2	393	394	12.7	75.1
2025-09-24T11:26	10	81	0.5	80	82	394	0.3	394	395	12.7	75.3
2025-09-24T11:27	10	82	0.6	82	83	395	0.3	394	395	12.9	77.4
2025-09-24T11:28	10	82	0.6	81	83	395	0.2	394	395	12.9	77.4
2025-09-24T11:29	10	80	0.5	79	81	395	0.3	394	395	12.8	76.3
2025-09-24T11:30	10	78	0.4	78	79	395	0.3	394	395	12.9	77.1
2025-09-24T11:31	10	77	0.5	76	78	394	0.5	393	395	12.8	76.0
2025-09-24T11:32	10	76	0.3	76	76	394	0.2	393	394	12.8	74.7
2025-09-24T11:33	10	76	0.1	75	76	394	0.2	394	394	12.8	74.4
2025-09-24T11:34	10	76	0.7	75	77	395	0.2	394	395	12.9	73.5
2025-09-24T11:35	10	77	0.2	77	78	395	0.2	394	395	13.1	75.7
2025-09-24T11:36	10	77	0.2	77	78	395	0.2	394	395	13.1	74.5
2025-09-24T11:37	10	77	0.2	77	78	395	0.2	394	395	13.0	73.7
2025-09-24T11:38	10	76	0.5	75	77	395	0.2	394	395	13.0	73.8
2025-09-24T11:39	10	75	0.1	75	75	395	0.4	394	396	13.0	75.5
2025-09-24T11:40	10	74	0.3	74	75	394	0.3	393	395	13.0	75.1
2025-09-24T11:41	10	73	0.3	73	74	393	0.1	393	394	13.0	73.8
2025-09-24T11:42	10	72	0.1	72	73	394	0.3	393	394	13.0	73.4
2025-09-24T11:43	10	73	0.3	72	73	393	0.2	393	394	13.0	73.9
2025-09-24T11:44	10	74	0.3	73	74	394	0.3	393	394	13.1	72.3
2025-09-24T11:45	10	74	0.4	73	74	394	0.4	393	395	13.2	72.5
2025-09-24T11:46	10	73	0.2	72	73	393	0.2	393	394	13.1	72.4
2025-09-24T11:47	10	72	0.1	72	72	393	0.2	393	394	13.1	73.4
2025-09-24T11:48	10	72	0.1	72	72	394	0.2	393	394	13.1	74.5
2025-09-24T11:49	10	72	0.2	72	72	393	0.2	393	394	13.1	74.6
2025-09-24T11:50	10	73	0.1	72	73	393	0.3	393	394	13.1	73.9
2025-09-24T11:51	10	73	0.3	73	74	394	0.4	393	395	13.1	74.8
2025-09-24T11:52	10	74	0.2	73	74	394	0.3	393	394	13.1	74.6
2025-09-24T11:53	10	73	0.2	72	73	394	0.2	393	394	13.1	73.6
2025-09-24T11:54	10	72	0.1	72	72	394	0.2	393	394	13.1	73.3
2025-09-24T11:55	10	73	0.2	72	73	394	0.2	393	394	13.0	75.1
2025-09-24T11:56	10	73	0.1	73	73	393	0.3	393	394	13.0	76.2
2025-09-24T11:57	10	73	0.2	73	73	393	0.3	392	394	12.9	74.6
2025-09-24T11:58	10	73	0.1	73	73	393	0.2	392	393	12.9	74.4
2025-09-24T11:59	10	73	0.1	73	73	393	0.4	392	394	12.9	75.5
2025-09-24T12:00	10	73	0.2	73	74	393	0.3	393	394	12.8	75.1
2025-09-24T12:01	10	74	0.3	73	74	394	0.4	393	394	12.9	76.6
2025-09-24T12:02	10	75	0.2	74	75	393	0.3	393	394	12.9	75.7
2025-09-24T12:03	10	75	0.1	75	75	394	0.3	393	395	13.0	75.9
2025-09-24T12:04	10	75	0.1	75	75	394	0.3	393	394	13.0	75.3
2025-09-24T12:05	10	75	0.2	75	75	394	0.4	393	395	13.0	75.6
2025-09-24T12:06	10	76	0.4	75	77	394	0.3	394	395	13.0	75.6
2025-09-24T12:07	10	78	0.8	77	80	394	0.3	393	395	12.9	75.2
2025-09-24T12:08	10	82	0.8	80	83	394	0.3	393	395	12.9	74.8
2025-09-24T12:09	10	86	1.3	83	88	395	0.4	394	396	13.1	75.1
2025-09-24T12:10	10	93	3.3	88	98	397	0.8	395	398	13.2	76.9
2025-09-24T12:11	10	105	3.6	98	110	399	0.7	398	400	13.3	76.0
2025-09-24T12:12	10	115	4.1	111	124	400	0.2	400	401	13.2	73.6
2025-09-24T12:13	10	127	0.9	124	128	401	0.8	400	403	13.2	73.9
2025-09-24T12:14	10	130	1.5	127	132	404	1.1	402	406	13.3	73.7
2025-09-24T12:15	10	128	1.3	126	130	404	0.8	403	405	13.2	73.8
2025-09-24T12:16	10	127	1.6	125	130	403	0.6	402	404	13.1	73.6
2025-09-24T12:17	10	129	1.7	124	131	403	0.7	402	404	13.0	73.3
2025-09-24T12:18	10	122	3.4	118	130	402	0.4	402	403	12.9	73.5
2025-09-24T12:19	10	134	1.2	130	137	405	1.0	403	406	13.1	74.1
2025-09-24T12:20	10	144	4.1	137	152	407	0.8	406	409	13.2	73.6
2025-09-24T12:21	10	158	3.0	152	161	408	0.3	407	409	13.2	72.8
2025-09-24T12:22	10	157	0.9	156	160	409	0.9	408	411	13.2	73.3
2025-09-24T12:23	10	156	4.4	142	160	411	0.6	410	412	13.3	72.8
2025-09-24T12:24	10	133	3.4	129	141	409	0.5	408	410	13.3	72.6
2025-09-24T12:25	10	118	5.7	111	129	408	1.7	405	411	13.5	73.0
2025-09-24T12:26	10	109	2.5	106	113	405	0.7	403	406	13.4	71.4
2025-09-24T12:27	10	103	2.4	99	106	404	0.4	403	405	13.5	70.9
2025-09-24T12:28	10	94	1.7	92	98	403	0.4	402	403	13.6	71.2
2025-09-24T12:29	10	92	0.5	91	92	402	0.5	401	403	13.6	73.0
2025-09-24T12:30	10	91	0.3	90	91	400	0.4	400	401	13.4	71.7
2025-09-24T12:31	10	90	1.1	88	91	400	0.2	400	400	13.2	71.3
2025-09-24T12:32	10	86	1.0	84	88	399	0.3	399	400	13.3	70.7
2025-09-24T12:33	10	82	1.2	80	84	399	0.2	398	399	13.3	70.9
2025-09-24T12:34	10	80	0.4	79	81	398	0.5	398	399	13.4	70.6
2025-09-24T12:35	10	81	1.3	79	84	398	0.2	398	399	13.4	70.1
2025-09-24T12:36	10	93	8.1	84	111	399	0.8	398	401	13.6	69.6
2025-09-24T12:37	10	120	3.8	111	125	403	1.3	400	405	13.7	69.5
2025-09-24T12:38	10	125	10.2	102	138	406	1.0	404	407	13.6	70.4
2025-09-24T12:39	10	111	5.2	100	117	405	0.3	405	406	13.6	71.6
2025-09-24T12:40	10	88	6.8	82	108	403	1.4	401	406	13.8	70.4
2025-09-24T12:41	10	78	1.6	76	82	401	0.5	401	403	14.0	68.8
2025-09-24T12:42	10	77	1.3	76	81	400	0.5	399	401	14.0	71.9
2025-09-24T12:43	10	90	3.5	81	95	401	0.6	399	401	13.9	69.8
2025-09-24T12:44	10	96	6.6	88	107	402	0.8	400	403	13.9	69.0
2025-09-24T12:45	10	98	7.3	84	107	403	0.4	402	404	13.9	69.5
2025-09-24T12:46	10	92	5.3	83	99	403	0.5	402	404	14.0	71.0
2025-09-24T12:47	10	112	5.1	99	116	405	1.1	403	407	14.2	72.3
2025-09-24T12:48	10	123	2.7	114	125	407	0.8	406	409	14.4	71.1
2025-09-24T12:49	10	130	2.6	125	133	409	0.5	408	410	14.4	70.4
2025-09-24T12:50	10	135	0.7	133	136	410	0.5	409	411	14.4	69.0
2025-09-24T12:51	10	131	1.7	128	133	410	0.4	409	411	14.3	69.2
2025-09-24T12:52	10	125	2.9	118	128	410	0.6	408	410	14.3	69.8
2025-09-24T12:53	10	108	5.6	100	118	408	0.9	406	409	14.2	70.1
2025-09-24T12:54	10	92	4.5	86	100	403	1.6	401	407	13.7	69.6
2025-09-24T12:55	10	87	1.4	86	90	402	0.5	401	403	13.6	70.9
2025-09-24T12:56	10	96	3.6	90	102	402	0.6	401	403	13.5	71.2
2025-09-24T12:57	10	113	6.2	103	123	403	1.0	402	405	13.5	70.7
2025-09-24T12:58	10	125	7.9	113	140	405	0.8	404	407	13.6	71.5
2025-09-24T12:59	10	144	1.8	141	149	405	0.6	404	406	13.5	71.5
2025-09-24T13:00	10	144	4.7	131	150	406	0.4	405	407	13.5	71.0
2025-09-24T13:01	10	131	8.6	121	144	405	0.8	404	407	13.6	71.3
2025-09-24T13:02	10	147	6.3	135	153	409	2.3	405	412	13.8	72.0
2025-09-24T13:03	10	166	7.5	153	175	413	1.3	411	415	13.7	71.4
2025-09-24T13:04	10	165	12.8	138	177	413	0.8	411	414	13.7	70.9
2025-09-24T13:05	10	136	5.3	129	146	409	0.9	408	412	13.6	70.6
2025-09-24T13:06	10	122	6.2	116	141	407	1.2	405	410	13.9	71.0
2025-09-24T13:07	10	113	3.9	108	121	405	0.5	404	406	13.8	68.8
2025-09-24T13:08	10	119	4.7	112	126	407	0.6	406	408	13.9	71.2
2025-09-24T13:09	10	143	14.7	122	170	407	0.4	406	407	13.8	70.7
2025-09-24T13:10	10	181	5.2	170	188	410	2.0	406	413	13.8	71.5
2025-09-24T13:11	10	176	7.0	165	186	412	0.5	411	413	13.8	70.3
2025-09-24T13:12	10	159	3.8	152	165	410	0.6	409	412	13.7	71.3
2025-09-24T13:13	10	153	5.4	148	166	409	0.5	408	410	13.6	70.5
2025-09-24T13:14	10	181	8.2	167	192	410	0.4	409	411	13.6	69.9
2025-09-24T13:15	10	194	1.4	192	196	411	0.5	410	412	13.6	70.3
2025-09-24T13:16	10	196	0.6	196	198	415	1.8	411	418	13.6	70.5
2025-09-24T13:17	10	188	12.9	151	198	418	1.0	414	419	13.9	71.1
2025-09-24T13:18	10	126	9.2	111	149	409	2.7	406	416	13.9	71.1
2025-09-24T13:19	10	115	15.3	91	131	405	2.4	401	408	13.6	71.1
2025-09-24T13:20	10	94	1.6	91	96	402	0.3	401	402	13.7	71.9
2025-09-24T13:21	10	93	0.9	92	96	401	0.6	400	402	13.8	71.7
2025-09-24T13:22	10	93	6.6	84	102	400	1.1	398	402	13.6	71.3
2025-09-24T13:23	10	83	0.3	83	84	399	0.2	398	399	13.7	72.0
2025-09-24T13:24	10	85	1.1	82	86	397	0.8	395	398	13.6	71.6
2025-09-24T13:25	10	82	0.2	81	82	395	0.3	395	396	13.4	70.7
2025-09-24T13:26	10	81	0.8	80	82	397	0.5	395	397	13.4	70.8
2025-09-24T13:27	10	80	0.4	80	81	398	0.7	396	399	13.5	70.3
2025-09-24T13:28	10	83	0.8	81	84	398	0.5	397	399	13.7	69.6
2025-09-24T13:29	10	84	0.1	84	85	399	0.8	398	401	13.6	68.3
2025-09-24T13:30	10	86	0.7	85	88	401	0.5	400	402	13.6	68.4
2025-09-24T13:31	10	87	1.0	86	89	402	0.4	400	402	13.8	69.3
2025-09-24T13:32	10	85	0.7	84	86	402	0.3	402	403	13.9	68.9
2025-09-24T13:33	10	83	0.3	83	84	401	0.3	401	402	13.9	70.4
2025-09-24T13:34	10	83	0.1	83	83	400	0.8	399	401	14.0	69.5
2025-09-24T13:35	10	83	0.1	83	83	399	0.4	398	400	14.0	68.9
2025-09-24T13:36	10	83	0.1	83	83	399	0.2	398	399	13.9	69.0
2025-09-24T13:37	10	84	0.3	83	84	398	0.5	397	399	13.9	68.6
2025-09-24T13:38	10	85	0.1	84	85	399	0.4	398	400	13.8	67.9
2025-09-24T13:39	10	85	0.1	84	85	398	0.4	397	398	13.6	68.0
2025-09-24T13:40	10	84	0.1	84	85	397	0.4	397	398	13.6	67.7
2025-09-24T13:41	10	85	0.1	84	85	399	0.6	398	400	13.7	68.1
2025-09-24T13:42	10	85	0.3	84	85	400	0.3	399	401	13.7	69.4
2025-09-24T13:43	10	86	0.1	85	86	401	0.4	400	402	13.9	69.9
2025-09-24T13:44	10	86	0.4	86	87	399	1.3	397	401	13.8	69.1
2025-09-24T13:45	10	88	0.5	87	89	398	0.4	397	399	13.6	69.0
2025-09-24T13:46	10	89	0.3	89	90	399	0.8	398	401	13.7	69.4
2025-09-24T13:47	10	89	0.1	89	90	401	0.3	400	401	13.9	69.1
2025-09-24T13:48	10	90	0.4	89	91	401	0.9	400	403	13.8	69.0
2025-09-24T13:49	10	93	1.6	91	96	402	0.4	401	403	14.0	69.9
2025-09-24T13:50	10	102	3.5	97	110	403	0.7	402	405	14.1	70.6
2025-09-24T13:51	10	112	1.1	109	114	406	1.0	404	407	14.2	70.3
2025-09-24T13:52	10	98	6.3	89	108	404	1.6	401	407	14.2	69.3
2025-09-24T13:53	10	84	2.5	80	89	400	1.8	397	402	14.0	69.0
2025-09-24T13:54	10	78	1.2	76	80	398	0.5	397	399	13.8	68.7
2025-09-24T13:55	10	76	0.7	76	79	400	0.5	399	401	13.8	69.5
2025-09-24T13:56	10	73	4.7	66	79	399	0.5	398	400	13.9	70.1
2025-09-24T13:57	10	64	1.0	62	66	397	0.5	396	398	13.9	70.0
2025-09-24T13:58	10	62	0.2	62	62	398	0.4	397	398	13.9	69.7
2025-09-24T13:59	10	62	0.2	61	62	396	0.8	395	398	13.9	69.8
2025-09-24T14:00	10	61	0.3	60	61	396	0.4	395	397	13.8	69.3
2025-09-24T14:01	10	60	0.4	59	60	396	0.2	396	397	13.9	70.3
2025-09-24T14:02	10	58	0.4	57	59	396	0.5	395	397	14.1	71.0
2025-09-24T14:03	10	57	0.5	56	57	394	0.7	393	396	13.9	69.0
2025-09-24T14:04	10	55	0.3	55	56	394	0.2	393	394	13.8	69.7
2025-09-24T14:05	10	54	0.3	54	55	394	0.4	393	395	13.7	69.3
2025-09-24T14:06	10	53	0.3	52	54	395	0.3	394	395	13.7	69.5
2025-09-24T14:07	10	52	0.2	52	52	396	0.3	395	396	13.8	70.2
2025-09-24T14:08	10	53	0.6	52	54	394	0.6	393	395	13.9	67.4
2025-09-24T14:09	10	55	1.0	54	57	393	0.3	393	394	14.0	69.0
2025-09-24T14:10	10	57	0.2	56	57	393	0.3	393	394	14.1	68.4
2025-09-24T14:11	10	53	1.1	52	56	393	0.6	392	394	14.0	67.8
2025-09-24T14:12	10	51	1.1	49	52	392	0.3	391	393	13.8	66.9
2025-09-24T14:13	10	48	0.3	48	49	392	0.4	391	393	13.8	67.6
2025-09-24T14:14	10	47	0.8	46	48	391	0.3	390	391	13.9	68.6
2025-09-24T14:15	10	52	4.0	46	56	390	0.5	390	392	13.8	68.3
2025-09-24T14:16	10	46	3.8	41	54	391	0.4	390	392	13.8	68.5
2025-09-24T14:17	10	38	1.5	36	41	390	0.6	389	391	13.9	69.7
2025-09-24T14:18	10	34	1.4	31	36	388	1.1	386	390	13.6	72.8
2025-09-24T14:19	10	29	1.2	27	31	385	0.7	384	387	13.3	74.1
2025-09-24T14:20	10	26	0.8	24	27	385	0.3	384	385	13.2	75.0
2025-09-24T14:21	10	24	0.3	23	24	384	0.2	383	384	13.2	75.3
2025-09-24T14:22	10	23	0.1	23	23	384	0.2	383	384	13.2	75.5
2025-09-24T14:23	10	23	0.1	22	23	383	0.2	383	383	13.2	76.2
2025-09-24T14:24	10	23	0.1	22	23	382	0.5	381	383	13.0	74.2
2025-09-24T14:25	10	23	0.1	23	23	382	0.2	381	382	12.9	74.4
2025-09-24T14:26	10	24	0.5	23	25	382	0.3	381	382	12.9	75.8
2025-09-24T14:27	10	26	0.7	25	27	381	0.3	381	382	12.8	75.3
2025-09-24T14:28	10	28	0.2	27	28	382	0.2	381	382	12.7	76.5
2025-09-24T14:29	10	28	0.2	28	29	381	0.3	380	382	12.6	76.8
2025-09-24T14:30	10	29	0.4	28	30	381	0.4	380	382	12.6	78.2
2025-09-24T14:31	10	30	0.4	30	31	382	0.3	381	382	12.6	78.8
2025-09-24T14:32	10	31	0.4	31	32	382	0.2	381	382	12.5	79.7
2025-09-24T14:33	10	33	0.6	32	34	382	0.4	381	383	12.4	80.3
2025-09-24T14:34	10	35	0.7	34	36	383	0.4	382	384	12.3	81.6
2025-09-24T14:35	10	38	0.8	36	39	383	0.2	382	383	12.3	80.9
2025-09-24T14:36	10	40	0.6	39	41	383	0.3	382	384	12.3	80.8
2025-09-24T14:37	10	42	0.4	41	43	384	0.5	383	385	12.4	81.3
2025-09-24T14:38	10	43	0.2	42	43	384	0.3	383	384	12.4	81.6
2025-09-24T14:39	10	43	0.2	43	44	384	0.3	383	385	12.4	82.2
2025-09-24T14:40	10	44	0.4	44	45	385	0.5	384	386	12.4	83.0
2025-09-24T14:41	10	46	0.4	45	47	386	0.4	385	387	12.4	83.4
2025-09-24T14:42	10	46	0.2	46	47	386	0.3	385	386	12.4	82.9
2025-09-24T14:43	10	46	0.1	46	47	386	0.3	385	386	12.4	82.0
2025-09-24T14:44	10	46	0.1	46	47	386	0.4	386	387	12.5	82.4
2025-09-24T14:45	10	47	0.1	46	47	387	0.2	386	387	12.5	80.2
2025-09-24T14:46	10	46	0.1	46	47	386	0.2	385	387	12.5	80.6
2025-09-24T14:47	10	46	0.1	46	46	387	0.2	386	388	12.6	81.8
2025-09-24T14:48	10	46	0.2	45	46	387	0.2	387	388	12.5	81.2
2025-09-24T14:49	10	45	0.2	45	45	387	0.2	387	388	12.6	81.0
2025-09-24T14:50	10	45	0.1	45	45	387	0.2	387	388	12.8	81.5
2025-09-24T14:51	10	45	0.2	45	46	387	0.3	386	387	12.7	80.5
2025-09-24T14:52	10	46	0.1	46	46	386	0.3	385	387	12.6	80.2
2025-09-24T14:53	10	46	0.1	46	46	387	0.4	386	387	12.6	81.4
2025-09-24T14:54	10	47	0.3	46	47	387	0.4	386	388	12.6	81.5
2025-09-24T14:55	10	47	0.3	47	48	388	0.4	387	388	12.7	82.3
2025-09-24T14:56	10	49	0.3	48	49	388	0.4	387	388	12.6	80.4
2025-09-24T14:57	10	49	0.1	48	49	387	0.3	387	388	12.6	80.1
2025-09-24T14:58	10	48	0.1	48	49	387	0.3	387	388	12.6	79.9
2025-09-24T14:59	10	50	2.4	48	56	388	0.3	388	389	12.7	81.3
2025-09-24T15:00	10	52	1.2	51	56	388	0.2	388	389	12.8	81.3
2025-09-24T15:01	10	53	0.2	53	54	389	0.4	388	390	12.8	79.7
2025-09-24T15:02	10	54	0.1	53	54	389	0.3	388	390	12.9	80.3
2025-09-24T15:03	10	55	0.9	54	57	389	0.4	388	390	12.9	80.9
2025-09-24T15:04	10	58	1.0	57	60	390	0.2	389	390	12.8	80.1
2025-09-24T15:05	10	58	0.9	56	60	389	0.4	388	390	12.7	80.3
2025-09-24T15:06	10	56	3.0	53	60	389	0.4	388	390	12.7	79.7
2025-09-24T15:07	10	52	0.6	52	53	389	0.2	388	389	12.7	80.1
2025-09-24T15:08	10	62	5.3	53	67	390	0.6	389	391	12.8	81.0
2025-09-24T15:09	10	62	0.8	61	65	391	0.4	390	392	12.9	80.8
2025-09-24T15:10	10	65	2.5	62	69	392	0.3	391	392	13.0	80.4
2025-09-24T15:11	10	63	3.3	58	68	391	0.6	390	392	12.9	78.3
2025-09-24T15:12	10	58	1.8	54	60	391	0.2	390	391	13.0	79.3
2025-09-24T15:13	10	52	0.7	51	54	390	0.4	389	391	13.1	79.3
2025-09-24T15:14	10	52	0.3	51	53	390	0.3	389	390	13.1	79.4
2025-09-24T15:15	10	54	0.7	53	55	390	0.4	389	391	13.1	79.5
2025-09-24T15:16	10	56	0.8	54	57	390	0.4	389	391	13.2	79.0
2025-09-24T15:17	10	57	0.3	57	57	390	0.2	389	390	13.2	78.6
2025-09-24T15:18	10	61	3.5	57	67	390	0.4	389	391	13.1	78.5
2025-09-24T15:19	10	56	5.6	49	67	390	0.8	389	392	13.1	77.5
2025-09-24T15:20	10	47	1.0	46	49	389	0.4	388	390	13.1	78.8
2025-09-24T15:21	10	45	0.7	43	46	388	0.5	387	389	13.1	78.4
2025-09-24T15:22	10	43	0.7	41	44	388	0.3	387	388	13.2	78.4
2025-09-24T15:23	10	41	0.4	40	41	387	0.6	386	388	13.1	78.7
2025-09-24T15:24	10	40	0.3	39	40	386	0.3	386	387	13.1	76.8
2025-09-24T15:25	10	38	0.4	38	39	386	0.4	385	387	13.1	77.2
2025-09-24T15:26	10	37	0.4	36	38	385	0.2	385	386	13.1	77.9
2025-09-24T15:27	10	36	0.3	35	37	386	0.2	385	386	13.1	78.2
2025-09-24T15:28	10	35	0.1	35	36	386	0.3	385	387	13.1	78.3
2025-09-24T15:29	10	36	0.2	35	36	385	0.2	385	386	13.1	77.2
2025-09-24T15:30	10	36	0.2	36	37	386	0.2	386	387	13.1	77.8
2025-09-24T15:31	10	37	0.1	37	37	386	0.3	385	386	13.1	77.5
2025-09-24T15:32	10	37	0.1	36	37	386	0.4	385	387	13.1	77.8
2025-09-24T15:33	10	37	0.1	36	37	386	0.4	385	387	13.2	77.3
2025-09-24T15:34	10	36	0.2	36	37	386	0.3	385	386	13.1	77.3
2025-09-24T15:35	10	35	0.5	34	36	386	0.2	385	386	13.2	78.1
2025-09-24T15:36	10	33	0.7	32	35	386	0.3	385	386	13.2	77.7
2025-09-24T15:37	10	31	0.6	30	32	385	0.2	385	386	13.2	77.0
2025-09-24T15:38	10	30	0.4	29	30	385	0.3	384	386	13.1	76.8
2025-09-24T15:39	10	29	0.1	29	29	385	0.2	384	385	13.1	77.3
2025-09-24T15:40	10	29	0.2	29	30	385	0.3	384	385	13.1	77.3
2025-09-24T15:41	10	30	0.1	29	30	384	0.2	384	385	13.1	76.7
2025-09-24T15:42	10	29	0.2	29	29	384	0.3	383	384	13.1	75.4
2025-09-24T15:43	10	28	0.3	28	29	384	0.2	383	384	13.1	75.5
2025-09-24T15:44	10	27	0.4	26	28	384	0.2	383	384	13.1	76.1
2025-09-24T15:45	10	26	0.3	26	27	384	0.3	383	385	13.1	76.8
2025-09-24T15:46	10	25	0.3	25	26	384	0.3	383	384	13.2	76.9
2025-09-24T15:47	10	24	0.2	24	25	384	0.3	384	385	13.2	76.4
2025-09-24T15:48	10	24	0.1	24	24	384	0.3	383	384	13.2	76.2
2025-09-24T15:49	10	23	0.1	23	24	383	0.3	382	384	13.2	76.6
2025-09-24T15:50	10	23	0.2	23	23	383	0.2	383	384	13.2	76.4
2025-09-24T15:51	10	22	0.2	22	23	383	0.3	383	384	13.2	76.0
2025-09-24T15:52	10	22	0.1	22	22	383	0.3	382	384	13.2	76.4
2025-09-24T15:53	10	21	0.1	21	22	382	0.2	382	383	13.1	77.4
2025-09-24T15:54	10	21	0.1	21	21	382	0.3	382	383	13.1	76.6
2025-09-24T15:55	10	21	0.1	21	21	382	0.2	381	382	13.1	76.8
2025-09-24T15:56	10	21	0.2	20	21	382	0.3	381	382	13.1	77.6
2025-09-24T15:57	10	20	0.3	19	20	381	0.5	380	382	13.1	76.0
2025-09-24T15:58	10	19	0.3	18	19	381	0.2	380	381	13.2	76.4
2025-09-24T15:59	10	18	0.4	17	18	381	0.3	380	381	13.2	76.9
2025-09-24T16:00	10	16	0.3	16	17	380	0.3	380	381	13.1	77.6
2025-09-24T16:01	10	15	0.3	15	16	380	0.3	379	380	13.1	77.9
2025-09-24T16:02	10	15	0.2	14	15	380	0.2	379	380	13.1	78.2
2025-09-24T16:03	10	14	0.1	14	14	379	0.3	379	380	13.1	76.8
2025-09-24T16:04	10	14	0.1	14	14	379	0.2	378	379	13.1	76.6
2025-09-24T16:05	10	14	0.1	14	14	379	0.2	378	379	13.1	75.7
2025-09-24T16:06	10	14	0.1	14	14	378	0.2	378	379	13.1	75.3
2025-09-24T16:07	10	14	0.1	14	14	378	0.3	377	378	13.0	74.9
2025-09-24T16:08	10	14	0.0	14	14	377	0.3	377	378	12.9	74.1
2025-09-24T16:09	10	14	0.1	13	14	377	0.3	377	378	12.9	75.2
2025-09-24T16:10	10	13	0.1	13	13	377	0.2	377	378	12.9	75.2
2025-09-24T16:11	10	13	0.2	13	13	377	0.2	376	377	12.8	73.9
2025-09-24T16:12	10	12	0.2	12	13	376	0.2	375	376	12.8	74.0
2025-09-24T16:13	10	12	0.2	12	12	375	0.3	375	376	12.7	73.8
2025-09-24T16:14	10	11	0.1	11	12	375	0.2	375	375	12.8	74.0
2025-09-24T16:15	10	11	0.1	11	11	375	0.2	375	376	12.8	74.5
2025-09-24T16:16	10	11	0.2	10	11	375	0.2	375	376	12.8	74.5
2025-09-24T16:17	10	10	0.2	10	10	374	0.3	373	375	12.6	74.3
2025-09-24T16:18	10	9	0.2	9	10	373	0.2	373	374	12.5	74.9
2025-09-24T16:19	10	9	0.2	8	9	373	0.2	373	374	12.4	75.2
2025-09-24T16:20	10	8	0.2	8	9	373	0.3	373	374	12.4	76.0
2025-09-24T16:21	10	8	0.2	7	8	373	0.3	373	374	12.4	75.8
2025-09-24T16:22	10	7	0.3	7	8	373	0.2	372	373	12.3	75.5
2025-09-24T16:23	10	6	0.2	6	7	372	0.2	372	373	12.3	75.7
2025-09-24T16:24	10	6	0.2	6	6	372	0.2	372	373	12.3	76.2
2025-09-24T16:25	10	6	0.1	6	6	372	0.2	372	373	12.3	76.5
2025-09-24T16:26	10	6	0.1	6	6	372	0.2	372	373	12.3	76.6
2025-09-24T16:27	10	6	0.1	5	6	372	0.2	372	372	12.2	76.4
2025-09-24T16:28	10	6	0.1	5	6	372	0.2	371	372	12.2	76.4
2025-09-24T16:29	10	6	0.1	5	6	372	0.3	371	373	12.3	76.1
2025-09-24T16:30	10	5	0.1	5	6	372	0.2	372	373	12.2	76.1
2025-09-24T16:31	10	5	0.1	5	6	372	0.2	372	372	12.3	76.4
2025-09-24T16:32	10	5	0.1	5	6	372	0.2	372	372	12.2	76.3
2025-09-24T16:33	10	5	0.1	5	6	372	0.2	371	372	12.2	76.0
2025-09-24T16:34	10	5	0.1	5	6	372	0.3	371	372	12.2	76.0
2025-09-24T16:35	10	5	0.1	5	6	372	0.2	371	372	12.2	75.8
2025-09-24T16:36	10	5	0.1	5	6	371	0.2	371	372	12.2	75.7
2025-09-24T16:37	10	5	0.1	5	6	372	0.3	371	372	12.2	76.0
2025-09-24T16:38	10	5	0.1	5	5	372	0.2	371	372	12.1	75.7
2025-09-24T16:39	10	5	0.1	5	5	371	0.2	371	372	12.1	76.0
2025-09-24T16:40	10	5	0.1	5	5	371	0.2	371	372	12.1	76.2
2025-09-24T16:41	10	5	0.1	5	5	371	0.3	371	372	12.1	75.9
2025-09-24T16:42	10	5	0.1	4	5	371	0.3	371	372	12.1	76.4
2025-09-24T16:43	10	4	0.1	4	5	371	0.2	371	372	12.1	76.0
2025-09-24T16:44	10	4	0.1	4	5	371	0.3	370	372	12.0	77.1
2025-09-24T16:45	10	5	0.1	4	5	371	0.3	370	371	12.0	75.8
2025-09-24T16:46	10	5	0.1	5	5	371	0.2	370	371	12.0	76.0
2025-09-24T16:47	10	4	0.2	4	5	371	0.2	370	371	12.0	76.8
2025-09-24T16:48	10	4	0.1	4	4	371	0.2	370	371	12.0	77.1
2025-09-24T16:49	10	4	0.1	4	4	370	0.2	370	371	11.9	76.2
2025-09-24T16:50	10	4	0.1	4	4	370	0.2	370	371	11.9	76.5
2025-09-24T16:51	10	4	0.1	4	4	370	0.2	370	371	11.9	76.1
2025-09-24T16:52	10	4	0.1	4	4	370	0.2	370	370	11.9	76.4
2025-09-24T16:53	10	4	0.1	4	4	370	0.2	369	370	11.9	76.3
2025-09-24T16:54	10	4	0.1	4	4	370	0.2	370	371	11.9	76.7
2025-09-24T16:55	10	4	0.1	4	4	370	0.2	369	371	12.0	75.5
2025-09-24T16:56	10	4	0.1	4	4	370	0.2	370	370	12.0	76.3
2025-09-24T16:57	10	4	0.1	4	4	370	0.3	370	371	12.0	75.8
2025-09-24T16:58	10	4	0.1	3	4	370	0.2	370	371	12.0	75.2
2025-09-24T16:59	10	3	0.1	3	4	370	0.2	370	370	12.0	75.1
2025-09-24T17:00	10	3	0.1	3	3	370	0.2	369	370	12.0	74.7
2025-09-24T17:01	10	3	0.1	3	3	370	0.2	370	371	12.0	75.8
2025-09-24T17:02	10	3	0.1	3	3	370	0.2	369	370	12.0	75.3
2025-09-24T17:03	10	2	0.1	2	3	370	0.2	369	370	12.0	75.2
2025-09-24T17:04	10	2	0.1	2	2	369	0.2	369	370	11.9	75.7
2025-09-24T17:05	10	2	0.1	1	2	370	0.3	369	370	12.0	75.1
2025-09-24T17:06	10	1	0.1	1	2	369	0.2	369	370	12.0	75.2
2025-09-24T17:07	10	1	0.1	1	1	370	0.2	369	370	11.9	75.2
2025-09-24T17:08	10	1	0.1	1	1	369	0.2	369	370	11.9	75.9
2025-09-24T17:09	10	1	0.1	1	1	370	0.2	369	370	11.9	76.9
2025-09-24T17:10	10	1	0.1	1	1	370	0.2	369	370	11.9	77.0
2025-09-24T17:11	10	1	0.1	1	1	370	0.2	369	370	11.9	77.1
2025-09-24T17:12	10	1	0.1	0	1	370	0.3	369	370	11.8	77.8
2025-09-24T17:13	10	0	0.1	0	1	370	0.2	369	370	11.8	77.3
2025-09-24T17:14	10	0	0.1	0	0	370	0.2	369	370	11.8	77.8
2025-09-24T17:15	10	0	0.1	0	0	369	0.2	369	370	11.8	78.0
2025-09-24T17:16	10	0	0.1	0	0	370	0.3	369	370	11.8	77.4
2025-09-24T17:17	10	0	0.1	0	0	370	0.3	369	370	11.8	76.8
2025-09-24T17:18	10	0	0.0	0	0	369	0.2	369	370	11.8	76.8
2025-09-24T17:19	10	0	0.0	0	0	369	0.3	369	370	11.8	77.2
2025-09-24T17:20	10	0	0.0	0	0	369	0.2	369	370	11.8	76.2
2025-09-24T17:21	10	0	0.0	0	0	369	0.2	369	370	11.8	77.0
2025-09-24T17:22	10	0	0.0	0	0	369	0.2	369	370	11.8	77.2
2025-09-24T17:23	10	0	0.1	0	0	369	0.2	369	370	11.8	75.9
2025-09-24T17:24	10	0	0.1	0	0	369	0.2	369	370	11.8	75.3
2025-09-24T17:25	10	0	0.1	0	0	369	0.2	369	370	11.8	75.8
2025-09-24T17:26	10	0	0.1	0	0	369	0.1	369	370	11.9	75.4
2025-09-24T17:27	10	0	0.1	0	0	370	0.2	369	370	11.9	75.7
2025-09-24T17:28	10	0	0.1	0	0	370	0.2	369	370	11.9	75.3
2025-09-24T17:29	10	0	0.1	0	0	370	0.3	369	370	11.9	76.1
2025-09-24T17:30	10	0	0.1	0	0	370	0.2	370	371	11.9	77.3
2025-09-24T17:31	10	0	0.0	0	0	370	0.2	369	370	11.9	77.9
2025-09-24T17:32	10	0	0.0	0	0	370	0.2	369	370	11.9	78.8
2025-09-24T17:33	10	0	0.0	0	0	370	0.2	369	370	11.8	79.7
2025-09-24T17:34	10	0	0.0	0	0	370	0.2	370	370	11.8	80.1
2025-09-24T17:35	10	0	0.0	0	0	370	0.2	370	370	11.8	79.2
2025-09-24T17:36	10	0	0.0	0	0	370	0.2	369	370	11.8	79.0
2025-09-24T17:37	10	0	0.0	0	0	370	0.2	369	370	11.8	79.7
2025-09-24T17:38	10	0	0.0	0	0	370	0.2	369	370	11.8	79.5
2025-09-24T17:39	10	0	0.1	0	0	370	0.3	369	370	11.8	80.3
2025-09-24T17:40	10	0	0.1	0	0	370	0.3	369	370	11.8	79.7
2025-09-24T17:41	10	0	0.1	0	0	370	0.2	369	370	11.7	78.9
2025-09-24T17:42	10	0	0.1	0	0	369	0.2	369	370	11.8	77.3
2025-09-24T17:43	10	0	0.1	0	0	370	0.2	369	370	11.8	77.7
2025-09-24T17:44	10	0	0.1	0	0	369	0.2	369	370	11.8	78.3
2025-09-24T17:45	10	0	0.1	0	0	370	0.3	369	371	11.7	78.2
2025-09-24T17:46	10	0	0.1	0	0	369	0.2	369	370	11.8	77.4
2025-09-24T17:47	10	0	0.0	0	0	370	0.2	369	370	11.8	77.4
2025-09-24T17:48	10	0	0.0	0	0	369	0.2	369	370	11.8	78.8
2025-09-24T17:49	10	0	0.1	0	0	369	0.2	369	370	11.7	78.6
2025-09-24T17:50	10	0	0.1	0	0	369	0.2	369	370	11.7	78.2
2025-09-24T17:51	10	0	0.1	0	0	369	0.2	369	370	11.7	77.1
2025-09-24T17:52	10	0	0.1	0	0	369	0.2	369	370	11.8	75.6
2025-09-24T17:53	10	0	0.1	0	0	369	0.2	369	370	11.8	76.2
2025-09-24T17:54	10	0	0.1	0	0	369	0.2	369	370	11.8	75.7
2025-09-24T17:55	10	0	0.1	0	0	369	0.2	369	370	11.9	75.8
2025-09-24T17:56	10	0	0.1	0	0	369	0.2	368	370	11.9	73.8
2025-09-24T17:57	10	0	0.1	0	0	369	0.2	368	369	11.9	75.8
2025-09-24T17:58	10	0	0.1	0	0	369	0.3	368	369	11.9	72.8
2025-09-24T17:59	10	0	0.1	0	0	368	0.2	368	369	11.9	72.7
2025-09-24T18:00	10	0	0.1	0	0	369	0.2	368	369	11.9	74.0
2025-09-24T18:01	10	0	0.1	-1	0	368	0.2	368	369	11.9	74.3
2025-09-24T18:02	10	0	0.1	0	0	369	0.3	368	369	11.9	74.6
2025-09-24T18:03	10	0	0.1	0	0	369	0.2	368	369	11.9	74.9
2025-09-24T18:04	10	0	0.1	0	0	369	0.2	368	369	11.9	73.7
2025-09-24T18:05	10	0	0.1	0	0	369	0.2	368	369	11.8	74.4
2025-09-24T18:06	10	0	0.1	0	0	368	0.2	368	369	11.8	73.7
2025-09-24T18:07	10	0	0.1	0	0	368	0.2	368	369	11.8	73.6
2025-09-24T18:08	10	0	0.1	-1	0	368	0.2	368	369	11.8	74.4
2025-09-24T18:09	10	0	0.1	0	0	368	0.3	368	369	11.8	74.9
2025-09-24T18:10	10	0	0.1	0	0	368	0.2	368	368	11.8	73.9
2025-09-24T18:11	10	0	0.1	-1	0	368	0.2	367	368	11.8	72.9
2025-09-24T18:12	10	0	0.1	0	0	368	0.2	367	368	11.8	73.0
2025-09-24T18:13	10	0	0.1	-1	0	368	0.2	367	368	11.8	73.3
2025-09-24T18:14	10	0	0.2	-1	0	368	0.2	367	369	11.7	74.4
2025-09-24T18:15	10	0	0.1	0	0	368	0.2	367	368	11.7	73.7
2025-09-24T18:16	10	0	0.1	-1	0	368	0.3	367	368	11.7	73.2
2025-09-24T18:17	10	0	0.1	-1	0	367	0.3	367	369	11.7	73.9
2025-09-24T18:18	10	0	0.1	-1	0	367	0.2	366	368	11.7	74.9
2025-09-24T18:19	10	0	0.1	-1	0	367	0.3	367	368	11.6	75.4
2025-09-24T18:20	10	0	0.1	0	0	367	0.3	367	368	11.6	76.7
2025-09-24T18:21	10	0	0.1	-1	0	367	0.3	366	368	11.5	77.1
2025-09-24T18:22	10	0	0.1	-1	0	367	0.2	367	368	11.5	78.0
2025-09-24T18:23	10	0	0.1	-1	0	367	0.2	367	367	11.5	78.3
2025-09-24T18:24	10	0	0.1	0	0	367	0.2	366	367	11.5	78.4
2025-09-24T18:25	10	0	0.1	0	0	367	0.2	366	367	11.5	78.7
2025-09-24T18:26	10	0	0.1	0	0	367	0.3	366	367	11.4	79.9
2025-09-24T18:27	10	0	0.1	-1	0	366	0.2	366	367	11.4	82.2
2025-09-24T18:28	10	0	0.2	-1	0	367	0.3	366	367	11.3	83.6
2025-09-24T18:29	10	0	0.1	-1	0	366	0.3	366	367	11.3	81.4
2025-09-24T18:30	10	0	0.2	0	0	366	0.3	365	367	11.3	83.3
2025-09-24T18:31	10	0	0.1	0	0	366	0.3	366	367	11.1	86.3
2025-09-24T18:32	10	0	0.2	0	0	366	0.3	365	367	11.1	87.1
2025-09-24T18:33	10	0	0.1	0	0	366	0.2	366	367	11.0	87.9
2025-09-24T18:34	10	0	0.1	0	0	366	0.2	365	366	11.0	88.6
2025-09-24T18:35	10	0	0.2	0	0	366	0.2	365	366	10.9	88.8
2025-09-24T18:36	10	0	0.1	0	0	366	0.2	365	366	10.9	88.8
2025-09-24T18:37	10	0	0.1	0	0	366	0.2	365	366	11.0	87.6
2025-09-24T18:38	10	0	0.1	0	0	366	0.2	365	366	11.0	88.3
2025-09-24T18:39	10	0	0.1	-1	0	365	0.3	365	366	11.0	88.6
2025-09-24T18:40	10	0	0.1	0	0	365	0.2	365	366	10.9	89.5
2025-09-24T18:41	10	0	0.1	0	0	365	0.3	364	366	10.9	90.3
2025-09-24T18:42	10	0	0.1	0	0	365	0.4	365	366	10.9	89.7
2025-09-24T18:43	10	0	0.1	0	0	365	0.3	365	366	10.8	89.4
2025-09-24T18:44	10	0	0.1	0	0	366	0.3	365	366	11.0	85.1
2025-09-24T18:45	10	0	0.1	0	0	365	0.3	365	366	11.1	85.3
2025-09-24T18:46	10	0	0.1	0	0	365	0.2	365	366	10.9	88.4
2025-09-24T18:47	10	0	0.1	0	0	365	0.3	365	366	10.9	88.9
2025-09-24T18:48	10	0	0.1	-1	0	365	0.2	365	366	10.9	89.5
2025-09-24T18:49	10	0	0.1	0	0	365	0.2	365	366	10.9	88.9
2025-09-24T18:50	10	0	0.1	0	0	365	0.2	365	366	10.8	90.3
2025-09-24T18:51	10	0	0.1	0	0	365	0.3	364	366	10.8	90.8
2025-09-24T18:52	10	0	0.1	0	0	365	0.2	365	366	10.8	90.9
2025-09-24T18:53	10	0	0.1	-1	0	365	0.3	365	366	10.8	91.0
2025-09-24T18:54	10	0	0.1	-1	0	365	0.3	365	366	10.8	91.3
2025-09-24T18:55	10	0	0.1	-1	0	365	0.2	365	366	10.8	91.9
2025-09-24T18:56	10	0	0.1	-1	0	365	0.3	365	366	10.7	92.4
2025-09-24T18:57	10	0	0.1	0	0	365	0.2	365	365	10.7	92.7
2025-09-24T18:58	10	0	0.1	0	0	365	0.3	365	366	10.6	93.1
2025-09-24T18:59	10	0	0.1	0	0	365	0.3	364	366	10.6	93.0
2025-09-24T19:00	10	0	0.1	0	0	365	0.2	365	366	10.6	92.9
2025-09-24T19:01	10	0	0.1	-1	0	365	0.2	365	366	10.6	92.8
2025-09-24T19:02	10	0	0.1	0	0	365	0.3	365	366	10.6	93.2
2025-09-24T19:03	10	0	0.1	0	0	365	0.2	365	366	10.6	92.2
2025-09-24T19:04	10	0	0.1	0	0	365	0.2	365	366	10.6	91.8
2025-09-24T19:05	10	0	0.1	0	0	365	0.3	365	366	10.6	92.3
2025-09-24T19:06	10	0	0.1	0	0	365	0.2	365	366	10.6	92.3
2025-09-24T19:07	10	0	0.1	0	0	365	0.3	365	366	10.7	92.2
2025-09-24T19:08	10	0	0.1	0	0	365	0.2	365	366	10.6	91.7
2025-09-24T19:09	10	0	0.1	0	0	365	0.3	365	366	10.6	91.6
2025-09-24T19:10	10	0	0.1	0	0	365	0.3	365	366	10.6	91.5
2025-09-24T19:11	10	0	0.1	0	0	365	0.2	365	366	10.6	91.1
2025-09-24T19:12	10	0	0.1	0	0	365	0.2	365	366	10.6	90.2
2025-09-24T19:13	10	0	0.1	0	0	365	0.2	364	365	10.7	90.2
2025-09-24T19:14	10	0	0.1	0	0	365	0.2	365	366	10.7	90.5
2025-09-24T19:15	10	0	0.1	0	0	365	0.2	365	366	10.7	89.4
2025-09-24T19:16	10	0	0.1	0	0	365	0.3	365	366	10.7	89.8
2025-09-24T19:17	10	0	0.1	0	0	365	0.2	364	366	10.7	89.2
2025-09-24T19:18	10	0	0.1	0	0	365	0.2	365	366	10.7	88.7
2025-09-24T19:19	10	0	0.1	-1	0	365	0.2	365	366	10.7	88.0
2025-09-24T19:20	10	0	0.1	0	0	365	0.2	365	366	10.8	87.5
2025-09-24T19:21	10	0	0.1	0	0	365	0.2	365	366	10.8	87.8
2025-09-24T19:22	10	0	0.1	0	0	365	0.2	365	366	10.8	87.9
2025-09-24T19:23	10	0	0.1	0	0	365	0.3	365	366	10.8	87.3
2025-09-24T19:24	10	0	0.1	0	0	365	0.2	365	366	10.8	87.0
2025-09-24T19:25	10	0	0.1	0	0	365	0.2	365	366	10.8	87.7
2025-09-24T19:26	10	0	0.1	0	0	365	0.3	365	366	10.8	87.1
2025-09-24T19:27	10	0	0.1	0	0	365	0.2	365	366	10.8	86.4
2025-09-24T19:28	10	0	0.1	0	0	365	0.2	365	366	10.8	86.3
2025-09-24T19:29	10	0	0.1	0	0	365	0.2	365	366	10.8	86.3
2025-09-24T19:30	10	0	0.1	0	0	365	0.2	365	366	10.8	85.6
2025-09-24T19:31	10	0	0.1	0	0	365	0.2	365	366	10.8	85.8
2025-09-24T19:32	10	0	0.1	0	0	365	0.2	365	366	10.8	85.8
2025-09-24T19:33	10	0	0.0	0	0	365	0.2	365	366	10.8	85.9
2025-09-24T19:34	10	0	0.1	0	0	365	0.2	365	366	10.8	85.4
2025-09-24T19:35	10	0	0.1	0	0	365	0.3	364	366	10.9	82.2
2025-09-24T19:36	10	0	0.1	0	0	365	0.2	365	366	10.9	83.0
2025-09-24T19:37	10	0	0.1	0	0	365	0.2	364	365	10.9	82.6
2025-09-24T19:38	10	0	0.1	0	0	365	0.2	364	365	10.9	83.3
2025-09-24T19:39	10	0	0.1	0	0	365	0.2	364	365	10.9	83.6
2025-09-24T19:40	10	0	0.1	0	0	365	0.2	364	365	10.8	84.1
2025-09-24T19:41	10	0	0.1	0	0	365	0.3	364	366	10.8	84.1
2025-09-24T19:42	10	0	0.1	0	0	365	0.3	364	365	10.8	83.6
2025-09-24T19:43	10	0	0.0	0	0	365	0.2	364	365	10.8	84.2
2025-09-24T19:44	10	0	0.1	0	0	364	0.2	364	365	10.8	84.1
2025-09-24T19:45	10	0	0.1	0	0	364	0.2	364	365	10.7	78.3
2025-09-24T19:46	10	0	0.1	0	0	364	0.2	364	365	10.7	83.8
2025-09-24T19:47	10	0	0.1	0	0	364	0.2	364	365	10.7	83.8
2025-09-24T19:48	10	0	0.1	0	0	364	0.2	363	364	10.7	83.8
2025-09-24T19:49	10	0	0.1	-1	0	364	0.2	363	364	10.7	83.8
2025-09-24T19:50	10	0	0.1	0	0	364	0.3	363	364	10.7	83.8
2025-09-24T19:51	10	0	0.0	0	0	364	0.3	363	364	10.7	83.8
2025-09-24T19:52	10	0	0.0	0	0	364	0.2	363	364	10.7	83.8
2025-09-24T19:53	10	0	0.1	0	0	363	0.2	363	364	10.6	84.4
2025-09-24T19:54	10	0	0.1	0	0	363	0.3	363	364	10.6	85.4
2025-09-24T19:55	10	0	0.1	0	0	364	0.2	363	364	10.6	85.3
2025-09-24T19:56	10	0	0.1	0	0	363	0.2	363	364	10.5	85.7
2025-09-24T19:57	10	0	0.1	0	0	363	0.3	363	364	10.5	86.0
2025-09-24T19:58	10	0	0.1	0	0	363	0.2	363	364	10.5	86.0
2025-09-24T19:59	10	0	0.0	0	0	363	0.2	363	364	10.5	86.1
2025-09-24T20:00	10	0	0.1	0	0	363	0.3	363	364	10.5	86.2
2025-09-24T20:01	10	0	0.1	0	0	363	0.2	363	363	10.5	86.2
2025-09-24T20:02	10	0	0.1	0	0	363	0.2	362	363	10.4	86.8
2025-09-24T20:03	10	0	0.1	-1	0	363	0.2	362	363	10.4	86.7
2025-09-24T20:04	10	0	0.1	0	0	363	0.2	362	363	10.4	86.1
2025-09-24T20:05	10	0	0.1	0	0	363	0.2	363	364	10.4	85.3
2025-09-24T20:06	10	0	0.1	0	0	363	0.2	362	363	10.5	85.2
2025-09-24T20:07	10	0	0.1	0	0	363	0.3	362	363	10.4	84.9
2025-09-24T20:08	10	0	0.1	0	0	363	0.2	362	363	10.5	83.8
2025-09-24T20:09	10	0	0.0	-1	0	363	0.2	362	363	10.5	83.5
2025-09-24T20:10	10	0	0.1	-1	0	362	0.2	362	363	10.5	83.6
2025-09-24T20:11	10	0	0.1	-1	0	363	0.2	362	363	10.5	84.4
2025-09-24T20:12	10	0	0.1	0	0	363	0.2	362	363	10.5	83.6
2025-09-24T20:13	10	0	0.1	0	0	363	0.3	362	363	10.5	83.0
2025-09-24T20:14	10	0	0.1	-1	0	363	0.2	362	363	10.5	83.5
2025-09-24T20:15	10	0	0.1	0	0	363	0.2	362	363	10.5	83.5
2025-09-24T20:16	10	0	0.1	0	0	363	0.2	362	363	10.5	83.7
2025-09-24T20:17	10	0	0.1	0	0	363	0.2	362	363	10.5	82.2
2025-09-24T20:18	10	0	0.1	0	0	362	0.2	362	363	10.5	82.2
2025-09-24T20:19	10	0	0.1	0	0	362	0.2	362	363	10.5	81.6
2025-09-24T20:20	10	0	0.1	0	0	362	0.2	362	363	10.5	81.4
2025-09-24T20:21	10	0	0.1	0	0	362	0.2	362	363	10.5	80.4
2025-09-24T20:22	10	0	0.1	0	0	362	0.2	362	363	10.5	81.5
2025-09-24T20:23	10	0	0.1	-1	0	362	0.3	361	363	10.5	81.0
2025-09-24T20:24	10	0	0.1	0	0	362	0.3	361	362	10.5	80.8
2025-09-24T20:25	10	0	0.1	0	0	362	0.2	361	362	10.5	81.8
2025-09-24T20:26	10	0	0.1	0	0	361	0.2	361	362	10.5	81.2
2025-09-24T20:27	10	0	0.1	0	0	361	0.3	361	362	10.5	81.3
2025-09-24T20:28	10	0	0.1	0	0	361	0.2	360	362	10.5	81.4
2025-09-24T20:29	10	0	0.1	0	0	361	0.2	361	362	10.4	81.6
2025-09-24T20:30	10	0	0.1	0	0	361	0.2	361	362	10.5	80.8
2025-09-24T20:31	10	0	0.1	0	0	361	0.2	361	362	10.4	81.8
2025-09-24T20:32	10	0	0.1	0	0	361	0.2	361	362	10.4	82.7
2025-09-24T20:33	10	0	0.1	0	0	361	0.2	361	361	10.4	82.4
2025-09-24T20:34	10	0	0.1	0	0	361	0.2	360	361	10.4	82.9
2025-09-24T20:35	10	0	0.1	0	0	361	0.2	361	362	10.4	82.4
2025-09-24T20:36	10	0	0.1	0	0	361	0.3	360	362	10.4	81.1
2025-09-24T20:37	10	0	0.1	0	0	361	0.2	360	361	10.4	83.1
2025-09-24T20:38	10	0	0.1	-1	0	361	0.2	360	361	10.3	83.5
2025-09-24T20:39	10	0	0.1	0	0	361	0.4	360	362	10.3	83.8
2025-09-24T20:40	10	0	0.1	0	0	361	0.2	360	361	10.3	83.4
2025-09-24T20:41	10	0	0.1	-1	0	361	0.3	360	361	10.2	84.6
2025-09-24T20:42	10	0	0.1	0	0	361	0.2	360	361	10.2	85.6
2025-09-24T20:43	10	0	0.1	0	0	361	0.2	360	361	10.1	86.9
2025-09-24T20:44	10	0	0.1	0	0	361	0.3	360	361	10.1	88.1
2025-09-24T20:45	10	0	0.1	0	0	361	0.2	360	361	10.0	89.3
2025-09-24T20:46	10	0	0.1	0	0	361	0.3	360	361	10.0	90.2
2025-09-24T20:47	10	0	0.1	0	0	360	0.2	360	361	9.9	91.3
2025-09-24T20:48	10	0	0.1	0	0	360	0.2	360	361	9.9	92.1
2025-09-24T20:49	10	0	0.1	0	0	360	0.2	360	361	9.9	92.4
2025-09-24T20:50	10	0	0.1	0	0	360	0.3	360	361	9.9	92.9
2025-09-24T20:51	10	0	0.1	0	0	360	0.2	360	361	9.9	93.4
2025-09-24T20:52	10	0	0.1	0	0	360	0.2	360	361	9.8	93.8
2025-09-24T20:53	10	0	0.1	0	0	360	0.2	359	360	9.8	94.2
2025-09-24T20:54	10	0	0.1	0	0	360	0.2	360	361	9.8	94.5
2025-09-24T20:55	10	0	0.1	0	0	360	0.3	359	361	9.8	94.9
2025-09-24T20:56	10	0	0.1	0	0	360	0.2	360	361	9.8	94.9
2025-09-24T20:57	10	0	0.1	0	0	360	0.2	360	361	9.8	94.9
2025-09-24T20:58	10	0	0.1	0	0	360	0.2	360	361	9.8	94.6
2025-09-24T20:59	10	0	0.1	0	0	360	0.2	360	361	9.8	94.6
2025-09-24T21:00	10	0	0.1	0	0	361	0.2	360	361	9.8	94.4
2025-09-24T21:01	10	0	0.1	0	0	361	0.2	360	361	9.8	93.5
2025-09-24T21:02	10	0	0.1	0	0	361	0.2	360	361	9.8	93.4
2025-09-24T21:03	10	0	0.1	0	0	361	0.2	360	361	9.8	93.6
2025-09-24T21:04	10	0	0.1	0	0	361	0.2	360	361	9.8	94.0
2025-09-24T21:05	10	0	0.1	0	0	361	0.2	360	361	9.8	94.2
2025-09-24T21:06	10	0	0.1	0	0	361	0.2	360	361	9.8	94.0
2025-09-24T21:07	10	0	0.1	0	0	361	0.2	361	361	9.8	93.5
2025-09-24T21:08	10	0	0.1	0	0	361	0.2	360	361	9.8	93.6
2025-09-24T21:09	10	0	0.1	0	0	361	0.2	361	361	9.8	93.8
2025-09-24T21:10	10	0	0.1	0	0	361	0.2	360	361	9.8	93.4
2025-09-24T21:11	10	0	0.1	0	0	361	0.3	360	361	9.8	93.5
2025-09-24T21:12	10	0	0.1	0	0	361	0.2	360	361	9.8	93.3
2025-09-24T21:13	10	0	0.1	0	0	361	0.3	360	361	9.8	93.5
2025-09-24T21:14	10	0	0.1	0	0	361	0.2	360	361	9.8	93.5
2025-09-24T21:15	10	0	0.1	0	0	361	0.2	360	361	9.8	93.8
2025-09-24T21:16	10	0	0.1	0	0	360	0.2	360	361	9.8	93.8
2025-09-24T21:17	10	0	0.1	0	0	360	0.2	360	361	9.8	93.9
2025-09-24T21:18	10	0	0.1	0	0	360	0.3	360	361	9.8	93.5
2025-09-24T21:19	10	0	0.1	0	0	360	0.2	360	361	9.8	93.4
2025-09-24T21:20	10	0	0.1	0	0	360	0.3	360	361	9.8	93.1
2025-09-24T21:21	10	0	0.1	0	0	360	0.2	360	361	9.9	92.6
2025-09-24T21:22	10	0	0.1	0	0	360	0.3	360	361	9.9	92.2
2025-09-24T21:23	10	0	0.1	0	0	360	0.2	359	361	9.9	91.8
2025-09-24T21:24	10	0	0.1	0	0	360	0.2	360	361	9.9	91.3
2025-09-24T21:25	10	0	0.1	0	0	360	0.3	360	361	9.9	90.1
2025-09-24T21:26	10	0	0.1	0	0	360	0.2	360	361	10.0	89.7
2025-09-24T21:27	10	0	0.1	0	0	360	0.2	360	361	10.0	89.9
2025-09-24T21:28	10	0	0.1	0	0	360	0.3	360	361	10.0	89.7
2025-09-24T21:29	10	0	0.1	0	0	360	0.2	359	361	10.0	91.2
2025-09-24T21:30	10	0	0.1	0	0	360	0.3	359	361	9.9	91.0
2025-09-24T21:31	10	0	0.1	0	0	360	0.2	360	361	10.0	89.9
2025-09-24T21:32	10	0	0.1	0	0	360	0.2	360	360	10.0	88.0
2025-09-24T21:33	10	0	0.1	0	0	360	0.3	359	360	10.1	89.0
2025-09-24T21:34	10	0	0.1	0	0	360	0.2	359	360	10.0	91.6
2025-09-24T21:35	10	0	0.1	0	0	360	0.2	359	360	9.9	91.3
2025-09-24T21:36	10	0	0.1	0	0	360	0.2	359	360	9.9	91.0
2025-09-24T21:37	10	0	0.1	0	0	360	0.3	359	360	10.0	90.6
2025-09-24T21:38	10	0	0.1	0	0	360	0.2	359	360	10.0	90.4
2025-09-24T21:39	10	0	0.1	0	0	359	0.2	359	360	10.0	90.3
2025-09-24T21:40	10	0	0.1	0	0	360	0.3	359	360	10.0	89.9
2025-09-24T21:41	10	0	0.1	0	0	359	0.2	359	360	9.9	89.3
2025-09-24T21:42	10	0	0.1	0	0	359	0.3	359	360	10.0	87.6
2025-09-24T21:43	10	0	0.1	0	0	359	0.3	359	360	10.0	87.1
2025-09-24T21:44	10	0	0.1	0	0	359	0.2	358	360	10.1	85.8
2025-09-24T21:45	10	0	0.1	0	0	359	0.2	358	359	10.0	86.4
2025-09-24T21:46	10	0	0.1	0	0	359	0.2	358	359	10.0	87.4
2025-09-24T21:47	10	0	0.1	0	0	359	0.2	358	359	10.0	86.1
2025-09-24T21:48	10	0	0.1	0	0	359	0.2	358	359	10.0	86.2
2025-09-24T21:49	10	0	0.1	0	0	358	0.3	358	359	10.0	85.8
2025-09-24T21:50	10	0	0.1	0	0	358	0.3	358	359	10.0	85.5
2025-09-24T21:51	10	0	0.0	0	0	359	0.2	358	359	9.9	85.3
2025-09-24T21:52	10	0	0.1	0	0	358	0.2	357	358	9.9	85.2
2025-09-24T21:53	10	0	0.1	0	0	358	0.2	358	359	9.9	84.4
2025-09-24T21:54	10	0	0.1	0	0	358	0.2	358	359	9.8	84.8
2025-09-24T21:55	10	0	0.1	0	0	358	0.2	358	359	9.8	84.8
2025-09-24T21:56	10	0	0.1	0	0	358	0.2	357	359	9.8	84.0
2025-09-24T21:57	10	0	0.1	0	0	358	0.2	358	359	9.8	84.3
2025-09-24T21:58	10	0	0.1	0	0	358	0.2	358	358	9.8	85.1
2025-09-24T21:59	10	0	0.1	0	0	358	0.2	357	359	9.7	84.9
2025-09-24T22:00	10	0	0.1	0	0	358	0.2	357	358	9.7	85.4
2025-09-24T22:01	10	0	0.1	0	0	358	0.2	357	359	9.6	84.8
2025-09-24T22:02	10	0	0.1	0	0	358	0.2	357	358	9.6	85.3
2025-09-24T22:03	10	0	0.1	0	0	358	0.2	357	358	9.6	85.2
2025-09-24T22:04	10	0	0.1	0	0	358	0.2	357	359	9.6	84.8
2025-09-24T22:05	10	0	0.1	0	0	358	0.2	358	359	9.6	84.8
2025-09-24T22:06	10	0	0.1	0	0	358	0.2	357	358	9.6	85.3
2025-09-24T22:07	10	0	0.1	0	0	358	0.2	357	359	9.6	85.2
2025-09-24T22:08	10	0	0.1	0	0	358	0.2	357	358	9.6	83.9
2025-09-24T22:09	10	0	0.1	0	0	358	0.2	357	358	9.6	84.0
2025-09-24T22:10	10	0	0.1	0	0	358	0.2	358	359	9.7	84.0
2025-09-24T22:11	10	0	0.1	0	0	358	0.2	357	358	9.6	84.3
2025-09-24T22:12	10	0	0.1	0	0	358	0.2	357	358	9.6	84.3
2025-09-24T22:13	10	0	0.1	0	0	358	0.2	357	358	9.6	84.5
2025-09-24T22:14	10	0	0.1	0	0	357	0.3	357	358	9.6	84.9
2025-09-24T22:15	10	0	0.1	0	0	358	0.2	357	358	9.6	86.0
2025-09-24T22:16	10	0	0.1	0	0	358	0.2	357	358	9.6	85.6
2025-09-24T22:17	10	0	0.1	0	0	358	0.2	357	358	9.5	86.1
2025-09-24T22:18	10	0	0.1	0	0	357	0.3	357	358	9.5	85.8
2025-09-24T22:19	10	0	0.1	0	0	358	0.2	357	358	9.5	85.9
2025-09-24T22:20	10	0	0.1	0	0	358	0.2	357	358	9.5	86.7
2025-09-24T22:21	10	0	0.1	0	0	358	0.2	357	358	9.4	87.0
2025-09-24T22:22	10	0	0.1	0	0	358	0.2	357	358	9.4	87.6
2025-09-24T22:23	10	0	0.1	0	0	358	0.2	357	358	9.4	87.8
2025-09-24T22:24	10	0	0.1	0	0	358	0.2	357	358	9.4	87.7
2025-09-24T22:25	10	0	0.1	0	0	358	0.2	357	358	9.4	87.6
2025-09-24T22:26	10	0	0.1	0	0	358	0.3	357	358	9.4	88.2
2025-09-24T22:27	10	0	0.0	0	0	358	0.2	357	358	9.4	88.6
2025-09-24T22:28	10	0	0.1	0	0	358	0.2	357	358	9.4	88.3
2025-09-24T22:29	10	0	0.1	0	0	358	0.3	357	358	9.4	88.4
2025-09-24T22:30	10	0	0.0	0	0	358	0.2	357	358	9.4	88.4
2025-09-24T22:31	10	0	0.1	0	0	358	0.2	357	358	9.4	88.5
2025-09-24T22:32	10	0	0.1	0	0	358	0.2	357	358	9.4	86.9
2025-09-24T22:33	10	0	0.1	0	0	358	0.2	357	358	9.5	85.9
2025-09-24T22:34	10	0	0.1	0	0	358	0.2	357	358	9.5	86.2
2025-09-24T22:35	10	0	0.0	0	0	358	0.2	357	358	9.5	86.0
2025-09-24T22:36	10	0	0.1	0	0	358	0.2	357	358	9.5	86.4
2025-09-24T22:37	10	0	0.1	0	0	358	0.2	357	358	9.4	87.2
2025-09-24T22:38	10	0	0.1	0	0	358	0.3	357	358	9.4	87.5
2025-09-24T22:39	10	0	0.1	0	0	358	0.2	357	358	9.4	87.7
2025-09-24T22:40	10	0	0.1	0	0	358	0.2	357	358	9.4	86.9
2025-09-24T22:41	10	0	0.1	0	0	358	0.2	357	358	9.4	87.6
2025-09-24T22:42	10	0	0.1	0	0	358	0.2	357	358	9.4	87.3
2025-09-24T22:43	10	0	0.1	0	0	358	0.2	357	358	9.4	87.9
2025-09-24T22:44	10	0	0.1	0	0	358	0.2	357	358	9.4	88.2
2025-09-24T22:45	10	0	0.0	0	0	358	0.2	357	358	9.3	88.5
2025-09-24T22:46	10	0	0.1	0	0	357	0.2	357	358	9.3	88.7
2025-09-24T22:47	10	0	0.1	0	0	357	0.2	357	358	9.3	88.6
2025-09-24T22:48	10	0	0.0	0	0	357	0.2	357	358	9.3	89.7
2025-09-24T22:49	10	0	0.1	0	0	357	0.2	357	358	9.3	89.8
2025-09-24T22:50	10	0	0.1	0	0	357	0.2	357	358	9.3	89.5
2025-09-24T22:51	10	0	0.1	0	0	357	0.2	357	358	9.3	89.7
2025-09-24T22:52	10	0	0.0	0	0	357	0.2	357	358	9.3	89.1
2025-09-24T22:53	10	0	0.1	0	0	357	0.2	357	357	9.3	89.9
2025-09-24T22:54	10	0	0.1	0	0	357	0.2	357	358	9.2	89.6
2025-09-24T22:55	10	0	0.1	0	0	357	0.2	356	357	9.2	89.6
2025-09-24T22:56	10	0	0.1	0	0	357	0.2	356	357	9.3	89.6
2025-09-24T22:57	10	0	0.1	0	0	357	0.2	356	357	9.2	89.7
2025-09-24T22:58	10	0	0.1	0	0	357	0.2	357	357	9.2	90.4
2025-09-24T22:59	10	0	0.1	0	0	357	0.2	357	357	9.2	90.3
2025-09-24T23:00	10	0	0.0	0	0	357	0.3	356	358	9.2	89.9
2025-09-24T23:01	10	0	0.1	0	0	357	0.3	356	358	9.2	90.2
2025-09-24T23:02	10	0	0.1	0	0	357	0.2	356	358	9.3	89.7
2025-09-24T23:03	10	0	0.1	0	0	357	0.2	357	357	9.3	89.5
2025-09-24T23:04	10	0	0.1	0	0	357	0.2	356	357	9.3	89.2
2025-09-24T23:05	10	0	0.1	0	0	357	0.2	357	358	9.3	89.1
2025-09-24T23:06	10	0	0.1	0	0	357	0.3	357	358	9.3	88.4
2025-09-24T23:07	10	0	0.1	0	0	357	0.2	357	358	9.3	89.2
2025-09-24T23:08	10	0	0.1	0	0	357	0.2	357	358	9.3	89.4
2025-09-24T23:09	10	0	0.1	0	0	358	0.2	357	358	9.3	89.7
2025-09-24T23:10	10	0	0.1	0	0	358	0.2	357	358	9.3	89.8
2025-09-24T23:11	10	0	0.1	0	0	358	0.3	357	358	9.3	89.9
2025-09-24T23:12	10	0	0.1	0	0	358	0.2	358	358	9.3	90.1
2025-09-24T23:13	10	0	0.1	0	0	358	0.2	357	358	9.3	89.6
2025-09-24T23:14	10	0	0.1	0	0	358	0.2	357	358	9.3	88.9
2025-09-24T23:15	10	0	0.1	0	0	358	0.2	357	358	9.3	89.1
2025-09-24T23:16	10	0	0.1	0	0	358	0.2	357	358	9.4	88.8
2025-09-24T23:17	10	0	0.1	0	0	358	0.2	358	358	9.4	88.5
2025-09-24T23:18	10	0	0.1	0	0	358	0.2	357	358	9.4	89.0
2025-09-24T23:19	10	0	0.1	0	0	358	0.2	357	358	9.4	88.7
2025-09-24T23:20	10	0	0.1	0	0	358	0.2	357	358	9.5	88.9
2025-09-24T23:21	10	0	0.1	0	0	357	0.2	357	358	9.5	88.5
2025-09-24T23:22	10	0	0.1	0	0	357	0.2	357	358	9.5	88.2
2025-09-24T23:23	10	0	0.1	0	0	357	0.2	357	357	9.6	87.7
2025-09-24T23:24	10	0	0.1	0	0	357	0.3	356	357	9.5	88.4
2025-09-24T23:25	10	0	0.1	-1	0	356	0.2	356	357	9.5	88.4
2025-09-24T23:26	10	0	0.1	0	0	356	0.3	356	357	9.5	88.3
2025-09-24T23:27	10	0	0.1	-1	0	356	0.3	355	356	9.5	88.5
2025-09-24T23:28	10	0	0.1	-1	0	355	0.2	355	356	9.5	88.5
2025-09-24T23:29	10	0	0.1	0	0	355	0.2	355	356	9.5	88.7
2025-09-24T23:30	10	0	0.1	0	0	355	0.2	355	355	9.5	88.7
2025-09-24T23:31	10	0	0.1	-1	0	355	0.2	354	355	9.5	88.8
2025-09-24T23:32	10	0	0.1	0	0	355	0.2	354	355	9.5	88.5
2025-09-24T23:33	10	0	0.1	0	0	355	0.2	355	356	9.5	88.4
2025-09-24T23:34	10	0	0.1	0	0	355	0.2	354	355	9.5	88.7
2025-09-24T23:35	10	0	0.1	0	0	355	0.2	354	355	9.5	88.7
2025-09-24T23:36	10	0	0.1	-1	0	354	0.2	354	355	9.5	89.2
2025-09-24T23:37	10	0	0.1	-1	0	354	0.2	354	355	9.4	89.6
2025-09-24T23:38	10	0	0.1	-1	0	354	0.3	353	354	9.4	89.9
2025-09-24T23:39	10	0	0.1	-1	0	354	0.2	353	354	9.4	89.9
2025-09-24T23:40	10	0	0.1	-1	0	354	0.2	354	355	9.4	89.9
2025-09-24T23:41	10	0	0.1	-1	0	354	0.2	353	354	9.4	90.4
2025-09-24T23:42	10	0	0.1	-1	0	353	0.3	353	354	9.4	90.6
2025-09-24T23:43	10	0	0.1	-1	0	353	0.2	353	354	9.4	90.3
2025-09-24T23:44	10	0	0.1	-1	0	353	0.3	353	354	9.4	90.8
2025-09-24T23:45	10	0	0.1	-1	0	353	0.3	353	354	9.4	90.6
2025-09-24T23:46	10	0	0.1	-1	0	353	0.2	352	353	9.4	90.9
2025-09-24T23:47	10	0	0.1	-1	0	353	0.2	353	354	9.4	90.8
2025-09-24T23:48	10	0	0.1	-1	0	353	0.2	352	354	9.4	90.9
2025-09-24T23:49	10	0	0.1	-1	0	353	0.2	352	353	9.3	91.3
2025-09-24T23:50	10	0	0.1	-1	0	353	0.2	352	353	9.3	91.6
2025-09-24T23:51	10	0	0.1	-1	0	352	0.2	352	353	9.3	91.5
2025-09-24T23:52	10	0	0.1	-1	0	352	0.2	352	353	9.3	91.9
2025-09-24T23:53	10	0	0.1	-1	0	352	0.3	352	353	9.2	92.2
2025-09-24T23:54	10	0	0.1	-1	0	353	0.2	352	353	9.3	92.2
2025-09-24T23:55	10	0	0.2	-1	0	353	0.3	352	353	9.3	92.1
2025-09-24T23:56	10	0	0.1	-1	0	353	0.2	352	353	9.3	92.2
2025-09-24T23:57	10	0	0.1	-1	0	353	0.3	352	353	9.3	92.3
2025-09-24T23:58	10	0	0.1	-1	0	353	0.2	352	353	9.3	92.4
2025-09-24T23:59	10	0	0.2	-1	0	353	0.3	352	353	9.3	92.3
2025-09-25T00:00	10	0	0.2	-1	0	353	0.3	352	354	9.3	92.5
2025-09-25T00:01	10	0	0.1	-1	0	353	0.3	353	354	9.3	92.6
2025-09-25T00:02	10	0	0.1	-1	0	353	0.2	353	354	9.3	92.7
2025-09-25T00:03	10	0	0.2	-1	0	354	0.4	352	354	9.2	92.8
2025-09-25T00:04	10	0	0.1	-1	0	354	0.3	353	354	9.2	92.9
2025-09-25T00:05	10	0	0.2	-1	0	354	0.3	354	355	9.3	92.7
2025-09-25T00:06	10	-1	0.1	-1	0	354	0.2	354	355	9.3	92.9
2025-09-25T00:07	10	0	0.2	-1	0	354	0.2	354	355	9.3	93.0
2025-09-25T00:08	10	0	0.1	-1	0	355	0.2	354	355	9.3	92.9
2025-09-25T00:09	10	0	0.1	-1	0	355	0.2	354	355	9.2	93.5
2025-09-25T00:10	10	0	0.1	-1	0	355	0.2	354	356	9.3	93.0
2025-09-25T00:11	10	0	0.1	-1	0	355	0.2	355	356	9.3	92.8
2025-09-25T00:12	10	0	0.1	-1	0	355	0.2	355	356	9.3	93.0
2025-09-25T00:13	10	0	0.1	0	0	356	0.2	355	356	9.3	93.3
2025-09-25T00:14	10	0	0.1	0	0	356	0.2	355	356	9.2	93.6
2025-09-25T00:15	10	0	0.1	-1	0	356	0.2	355	356	9.3	93.4
2025-09-25T00:16	10	0	0.1	-1	0	356	0.2	355	356	9.3	93.2
2025-09-25T00:17	10	0	0.1	-1	0	356	0.2	355	356	9.3	93.0
2025-09-25T00:18	10	0	0.1	0	0	356	0.2	355	356	9.3	93.0
2025-09-25T00:19	10	0	0.1	-1	0	355	0.3	355	356	9.3	93.3
2025-09-25T00:20	10	0	0.1	-1	0	356	0.2	355	356	9.3	93.1
2025-09-25T00:21	10	0	0.2	-1	0	355	0.3	355	356	9.3	93.2
2025-09-25T00:22	10	0	0.2	-1	0	355	0.3	355	356	9.3	93.4
2025-09-25T00:23	10	0	0.1	-1	0	355	0.3	354	355	9.3	93.6
2025-09-25T00:24	10	0	0.2	-1	0	355	0.2	354	355	9.3	93.5
2025-09-25T00:25	10	0	0.1	-1	0	355	0.2	354	355	9.3	93.1
2025-09-25T00:26	10	0	0.2	-1	0	355	0.2	354	355	9.3	92.9
2025-09-25T00:27	10	0	0.1	-1	0	354	0.2	354	355	9.3	92.8
2025-09-25T00:28	10	0	0.1	-1	0	354	0.2	354	355	9.3	92.7
2025-09-25T00:29	10	0	0.1	-1	0	354	0.3	353	354	9.3	92.8
2025-09-25T00:30	10	0	0.2	-1	0	354	0.3	353	354	9.3	93.3
2025-09-25T00:31	10	0	0.1	-1	0	353	0.2	353	354	9.3	93.6
2025-09-25T00:32	10	0	0.1	0	0	353	0.2	353	353	9.3	93.5
2025-09-25T00:33	10	0	0.1	-1	0	353	0.2	353	353	9.3	93.4
2025-09-25T00:34	10	0	0.2	-1	0	353	0.2	352	354	9.3	93.4
2025-09-25T00:35	10	0	0.1	-1	0	353	0.2	353	354	9.3	93.4
2025-09-25T00:36	10	0	0.1	0	0	353	0.2	352	354	9.2	93.3
2025-09-25T00:37	10	0	0.1	0	0	353	0.3	353	354	9.3	93.2
2025-09-25T00:38	10	0	0.1	0	0	354	0.2	353	354	9.2	93.2
2025-09-25T00:39	10	0	0.1	-1	0	354	0.3	353	354	9.3	93.0
2025-09-25T00:40	10	0	0.1	-1	0	354	0.2	354	354	9.2	93.0
2025-09-25T00:41	10	0	0.1	-1	0	354	0.2	354	354	9.2	93.1
2025-09-25T00:42	10	0	0.1	0	0	354	0.2	354	355	9.2	93.2
2025-09-25T00:43	10	0	0.1	0	0	354	0.2	354	354	9.2	93.1
2025-09-25T00:44	10	0	0.1	0	0	354	0.2	354	355	9.2	93.1
2025-09-25T00:45	10	0	0.1	0	0	354	0.2	354	354	9.2	92.9
2025-09-25T00:46	10	0	0.1	0	0	354	0.2	353	354	9.2	93.0
2025-09-25T00:47	10	0	0.1	0	0	354	0.2	353	354	9.2	93.1
2025-09-25T00:48	10	0	0.1	0	0	354	0.2	353	354	9.2	92.7
2025-09-25T00:49	10	0	0.1	-1	0	354	0.2	353	354	9.3	92.7
2025-09-25T00:50	10	0	0.1	0	0	354	0.2	353	354	9.3	92.2
2025-09-25T00:51	10	0	0.1	-1	0	354	0.2	354	355	9.3	92.0
2025-09-25T00:52	10	0	0.1	-1	0	355	0.4	354	355	9.3	92.1
2025-09-25T00:53	10	0	0.1	-1	0	355	0.2	355	356	9.2	92.5
2025-09-25T00:54	10	0	0.1	-1	0	355	0.3	355	356	9.2	92.5
2025-09-25T00:55	10	0	0.1	-1	0	356	0.2	356	357	9.2	92.3
2025-09-25T00:56	10	0	0.1	-1	0	357	0.2	356	357	9.3	91.9
2025-09-25T00:57	10	0	0.1	-1	0	357	0.1	356	357	9.3	91.3
2025-09-25T00:58	10	0	0.1	-1	0	357	0.2	356	357	9.3	91.5
2025-09-25T00:59	10	0	0.1	0	0	357	0.2	357	358	9.3	91.8
2025-09-25T01:00	10	0	0.1	0	0	357	0.2	357	358	9.3	91.7
2025-09-25T01:01	10	0	0.1	-1	0	357	0.3	356	358	9.3	91.8
2025-09-25T01:02	10	0	0.1	0	0	358	0.2	357	358	9.3	91.7
2025-09-25T01:03	10	0	0.1	0	0	358	0.2	357	358	9.3	91.8
2025-09-25T01:04	10	0	0.0	0	0	358	0.2	358	358	9.3	91.4
2025-09-25T01:05	10	0	0.0	0	0	358	0.2	357	358	9.3	91.1
2025-09-25T01:06	10	0	0.1	0	0	358	0.2	357	358	9.3	91.4
2025-09-25T01:07	10	0	0.1	-1	0	358	0.2	357	358	9.3	91.5
2025-09-25T01:08	10	0	0.1	-1	0	358	0.2	357	358	9.3	91.1
2025-09-25T01:09	10	0	0.1	-1	0	358	0.2	357	358	9.4	90.6
2025-09-25T01:10	10	0	0.1	-1	0	358	0.2	358	358	9.4	90.0
2025-09-25T01:11	10	0	0.1	-1	0	358	0.2	358	358	9.4	89.9
2025-09-25T01:12	10	0	0.1	0	0	358	0.2	357	358	9.4	89.9
2025-09-25T01:13	10	0	0.1	-1	0	358	0.2	357	358	9.4	90.0
2025-09-25T01:14	10	0	0.1	-1	0	358	0.2	357	358	9.4	90.9
2025-09-25T01:15	10	0	0.1	-1	0	358	0.2	357	359	9.4	91.3
2025-09-25T01:16	10	0	0.1	-1	0	358	0.2	358	359	9.4	91.4
2025-09-25T01:17	10	0	0.1	-1	0	358	0.2	357	358	9.4	91.9
2025-09-25T01:18	10	0	0.1	-1	0	358	0.2	357	358	9.4	91.2
2025-09-25T01:19	10	0	0.1	-1	0	358	0.2	357	358	9.4	91.2
2025-09-25T01:20	10	0	0.1	0	0	358	0.2	357	358	9.4	91.8
2025-09-25T01:21	10	0	0.1	-1	0	358	0.2	357	358	9.4	92.4
2025-09-25T01:22	10	0	0.1	0	0	358	0.2	358	358	9.4	92.2
2025-09-25T01:23	10	0	0.1	0	0	358	0.2	358	358	9.4	92.1
2025-09-25T01:24	10	0	0.1	0	0	358	0.3	357	358	9.4	92.3
2025-09-25T01:25	10	0	0.1	0	0	358	0.3	357	358	9.4	91.6
2025-09-25T01:26	10	0	0.1	-1	0	358	0.2	358	358	9.4	91.9
2025-09-25T01:27	10	0	0.1	-1	0	358	0.2	357	358	9.4	91.9
2025-09-25T01:28	10	0	0.1	-1	0	358	0.2	357	358	9.4	92.1
2025-09-25T01:29	10	0	0.1	0	0	358	0.2	358	358	9.4	91.8
2025-09-25T01:30	10	0	0.1	-1	0	358	0.2	357	358	9.4	92.0
2025-09-25T01:31	10	0	0.1	0	0	358	0.2	357	358	9.4	92.0
2025-09-25T01:32	10	0	0.1	-1	0	358	0.2	357	358	9.4	92.3
2025-09-25T01:33	10	0	0.1	0	0	358	0.2	357	358	9.3	92.6
2025-09-25T01:34	10	0	0.1	-1	0	358	0.2	357	358	9.4	92.0
2025-09-25T01:35	10	0	0.1	-1	0	358	0.2	357	358	9.4	91.9
2025-09-25T01:36	10	0	0.1	-1	0	358	0.2	357	358	9.4	92.0
2025-09-25T01:37	10	0	0.1	-1	0	358	0.2	357	359	9.4	91.9
2025-09-25T01:38	10	0	0.1	-1	0	358	0.2	357	358	9.4	91.7
2025-09-25T01:39	10	0	0.1	-1	0	358	0.2	357	358	9.4	92.2
2025-09-25T01:40	10	0	0.1	-1	0	358	0.2	357	358	9.4	91.6
2025-09-25T01:41	10	0	0.1	-1	0	358	0.3	358	359	9.4	91.2
2025-09-25T01:42	10	0	0.1	-1	0	358	0.2	357	358	9.4	91.3
2025-09-25T01:43	10	0	0.1	-1	0	358	0.2	357	359	9.4	91.0
2025-09-25T01:44	10	0	0.1	0	0	358	0.2	357	358	9.4	90.9
2025-09-25T01:45	10	0	0.1	0	0	358	0.2	358	358	9.4	90.9
2025-09-25T01:46	10	0	0.1	-1	0	358	0.2	357	358	9.4	90.8
2025-09-25T01:47	10	0	0.1	-1	0	358	0.2	358	359	9.4	90.3
2025-09-25T01:48	10	0	0.1	-1	0	358	0.2	358	359	9.5	89.4
2025-09-25T01:49	10	0	0.1	-1	0	358	0.2	357	358	9.5	89.4
2025-09-25T01:50	10	0	0.1	-1	0	358	0.2	358	359	9.5	89.2
2025-09-25T01:51	10	0	0.1	0	0	358	0.2	358	359	9.5	87.9
2025-09-25T01:52	10	0	0.1	0	0	358	0.3	358	359	9.5	87.9
2025-09-25T01:53	10	0	0.1	-1	0	358	0.2	357	358	9.5	87.4
2025-09-25T01:54	10	0	0.1	-1	0	358	0.2	357	358	9.5	87.4
2025-09-25T01:55	10	0	0.2	-1	0	358	0.2	357	358	9.5	87.7
2025-09-25T01:56	10	0	0.1	-1	0	358	0.2	357	358	9.5	87.2
2025-09-25T01:57	10	0	0.2	-1	0	358	0.3	357	358	9.5	87.0
2025-09-25T01:58	10	0	0.1	-1	0	358	0.2	357	358	9.5	86.9
2025-09-25T01:59	10	0	0.2	-1	0	358	0.2	357	358	9.5	87.1
2025-09-25T02:00	10	0	0.1	-1	0	358	0.3	357	358	9.5	87.4
2025-09-25T02:01	10	0	0.1	-1	0	358	0.2	357	358	9.5	86.9
2025-09-25T02:02	10	0	0.1	-1	0	358	0.3	357	358	9.5	87.0
2025-09-25T02:03	10	0	0.1	-1	0	358	0.2	357	358	9.5	87.4
2025-09-25T02:04	10	0	0.1	-1	0	358	0.2	357	358	9.5	87.2
2025-09-25T02:05	10	0	0.1	-1	0	358	0.2	357	358	9.5	86.8
2025-09-25T02:06	10	0	0.1	-1	0	358	0.2	357	358	9.5	87.0
2025-09-25T02:07	10	0	0.1	-1	0	358	0.2	357	358	9.5	87.0
2025-09-25T02:08	10	0	0.1	-1	0	358	0.2	357	358	9.5	86.8
2025-09-25T02:09	10	0	0.1	-1	0	358	0.2	357	358	9.5	87.2
2025-09-25T02:10	10	0	0.1	-1	0	358	0.3	357	358	9.5	87.6
2025-09-25T02:11	10	0	0.1	-1	0	357	0.3	357	358	9.4	87.8
2025-09-25T02:12	10	0	0.1	-1	0	358	0.2	357	358	9.5	86.9
2025-09-25T02:13	10	0	0.1	-1	0	358	0.2	357	358	9.5	87.1
2025-09-25T02:14	10	0	0.2	-1	0	358	0.2	357	358	9.5	87.5
2025-09-25T02:15	10	0	0.1	-1	0	357	0.3	357	358	9.4	87.7
2025-09-25T02:16	10	0	0.1	-1	0	357	0.2	357	358	9.5	87.3
2025-09-25T02:17	10	0	0.1	-1	0	357	0.3	357	358	9.4	87.7
2025-09-25T02:18	10	0	0.1	-1	0	357	0.2	357	358	9.4	87.8
2025-09-25T02:19	10	0	0.1	-1	0	357	0.3	356	358	9.4	87.7
2025-09-25T02:20	10	0	0.1	-1	0	357	0.2	357	358	9.4	87.9
2025-09-25T02:21	10	0	0.2	-1	0	357	0.3	357	358	9.4	87.6
2025-09-25T02:22	10	0	0.1	-1	0	357	0.2	356	358	9.4	87.5
2025-09-25T02:23	10	0	0.2	-1	0	357	0.2	357	358	9.4	88.4
2025-09-25T02:24	10	0	0.1	-1	0	357	0.3	357	358	9.4	88.8
2025-09-25T02:25	10	0	0.1	-1	0	357	0.3	357	358	9.4	88.8
2025-09-25T02:26	10	0	0.1	0	0	357	0.2	357	358	9.4	88.7
2025-09-25T02:27	10	0	0.1	-1	0	357	0.3	357	358	9.4	89.1
2025-09-25T02:28	10	0	0.1	-1	0	357	0.2	357	358	9.4	89.0
2025-09-25T02:29	10	0	0.1	-1	0	357	0.2	357	358	9.4	88.4
2025-09-25T02:30	10	0	0.2	-1	0	357	0.3	356	358	9.4	88.9
2025-09-25T02:31	10	0	0.2	-1	0	357	0.3	357	358	9.3	89.3
2025-09-25T02:32	10	0	0.1	-1	0	357	0.3	356	358	9.3	88.8
2025-09-25T02:33	10	0	0.1	0	0	357	0.2	357	358	9.3	89.3
2025-09-25T02:34	10	0	0.1	-1	0	357	0.3	356	357	9.3	89.6
2025-09-25T02:35	10	0	0.1	-1	0	357	0.3	356	358	9.3	90.1
2025-09-25T02:36	10	0	0.1	-1	0	357	0.3	357	358	9.3	89.4
2025-09-25T02:37	10	0	0.1	0	0	357	0.2	356	357	9.3	88.6
2025-09-25T02:38	10	0	0.1	0	0	357	0.2	357	357	9.3	89.1
2025-09-25T02:39	10	0	0.1	0	0	357	0.2	357	357	9.3	88.8
2025-09-25T02:40	10	0	0.1	-1	0	357	0.2	357	357	9.3	89.2
2025-09-25T02:41	10	0	0.1	0	0	357	0.2	357	358	9.3	89.1
2025-09-25T02:42	10	0	0.1	-1	0	357	0.2	356	357	9.3	89.9
2025-09-25T02:43	10	0	0.1	0	0	357	0.2	356	358	9.3	90.4
2025-09-25T02:44	10	0	0.2	-1	0	357	0.2	356	357	9.2	90.9
2025-09-25T02:45	10	0	0.1	-1	0	357	0.2	356	357	9.2	90.4
2025-09-25T02:46	10	0	0.2	-1	0	357	0.2	356	357	9.2	90.2
2025-09-25T02:47	10	0	0.2	-1	0	357	0.3	356	358	9.2	89.8
2025-09-25T02:48	10	0	0.1	-1	0	357	0.2	356	357	9.3	89.7
2025-09-25T02:49	10	0	0.2	-1	0	357	0.2	356	358	9.3	89.8
2025-09-25T02:50	10	0	0.1	-1	0	357	0.3	356	357	9.2	90.3
2025-09-25T02:51	10	0	0.1	-1	0	357	0.2	357	358	9.2	89.8
2025-09-25T02:52	10	0	0.1	-1	0	357	0.3	357	358	9.2	89.9
2025-09-25T02:53	10	0	0.1	-1	0	357	0.2	356	357	9.2	90.2
2025-09-25T02:54	10	0	0.1	-1	0	357	0.2	356	357	9.2	90.1
2025-09-25T02:55	10	0	0.1	-1	0	357	0.2	357	357	9.2	90.4
2025-09-25T02:56	10	0	0.2	-1	0	357	0.3	356	357	9.2	90.8
2025-09-25T02:57	10	0	0.1	0	0	357	0.2	357	358	9.2	91.3
2025-09-25T02:58	10	0	0.1	0	0	357	0.3	357	358	9.2	90.5
2025-09-25T02:59	10	0	0.1	-1	0	357	0.2	356	357	9.2	90.1
2025-09-25T03:00	10	0	0.1	-1	0	357	0.3	357	358	9.2	90.5
2025-09-25T03:01	10	0	0.1	-1	0	357	0.2	357	358	9.2	90.7
2025-09-25T03:02	10	0	0.1	-1	0	357	0.2	357	358	9.2	90.9
2025-09-25T03:03	10	0	0.1	-1	0	357	0.2	357	358	9.2	91.4
2025-09-25T03:04	10	0	0.1	-1	0	357	0.3	356	357	9.2	90.9
2025-09-25T03:05	10	0	0.1	0	0	357	0.3	357	358	9.2	91.1
2025-09-25T03:06	10	0	0.1	-1	0	357	0.3	356	358	9.3	90.8
2025-09-25T03:07	10	0	0.1	-1	0	357	0.2	356	358	9.3	91.1
2025-09-25T03:08	10	0	0.1	-1	0	357	0.2	357	358	9.2	91.7
2025-09-25T03:09	10	0	0.2	-1	0	357	0.2	356	358	9.2	91.6
2025-09-25T03:10	10	0	0.2	-1	0	357	0.3	357	358	9.2	91.8
2025-09-25T03:11	10	0	0.1	0	0	357	0.2	357	358	9.2	91.3
2025-09-25T03:12	10	0	0.1	-1	0	357	0.2	356	357	9.2	91.4
2025-09-25T03:13	10	0	0.1	-1	0	357	0.2	356	357	9.2	91.5
2025-09-25T03:14	10	0	0.1	0	0	357	0.2	357	358	9.2	91.7
2025-09-25T03:15	10	0	0.2	-1	0	357	0.3	357	358	9.2	91.0
2025-09-25T03:16	10	0	0.1	-1	0	357	0.3	357	358	9.3	91.0
2025-09-25T03:17	10	0	0.1	-1	0	357	0.3	356	358	9.3	91.2
2025-09-25T03:18	10	0	0.1	-1	0	357	0.2	357	358	9.3	90.8
2025-09-25T03:19	10	0	0.1	-1	0	357	0.3	356	357	9.3	91.0
2025-09-25T03:20	10	0	0.2	-1	0	357	0.2	357	358	9.2	91.1
2025-09-25T03:21	10	0	0.1	0	0	357	0.3	356	357	9.3	90.6
2025-09-25T03:22	10	0	0.1	0	0	357	0.2	357	357	9.3	91.0
2025-09-25T03:23	10	0	0.1	0	0	357	0.3	356	358	9.3	91.1
2025-09-25T03:24	10	0	0.1	-1	0	357	0.3	356	358	9.3	91.2
2025-09-25T03:25	10	0	0.1	-1	0	357	0.2	357	358	9.3	91.5
2025-09-25T03:26	10	0	0.1	0	0	357	0.2	357	358	9.3	91.0
2025-09-25T03:27	10	0	0.1	0	0	357	0.2	357	358	9.3	91.2
2025-09-25T03:28	10	0	0.1	-1	0	357	0.3	357	358	9.3	91.4
2025-09-25T03:29	10	0	0.1	-1	0	357	0.2	357	358	9.3	91.5
2025-09-25T03:30	10	0	0.2	-1	0	357	0.3	357	358	9.4	90.6
2025-09-25T03:31	10	0	0.1	-1	0	357	0.3	356	358	9.3	90.9
2025-09-25T03:32	10	0	0.1	-1	0	357	0.3	356	358	9.3	91.3
2025-09-25T03:33	10	0	0.1	-1	0	357	0.3	357	358	9.3	91.1
2025-09-25T03:34	10	0	0.1	-1	0	357	0.3	357	358	9.3	91.1
2025-09-25T03:35	10	0	0.1	-1	0	357	0.2	357	357	9.3	91.0
2025-09-25T03:36	10	0	0.1	-1	0	357	0.2	357	358	9.4	91.0
2025-09-25T03:37	10	0	0.1	-1	0	357	0.2	357	358	9.3	91.3
2025-09-25T03:38	10	0	0.1	-1	0	357	0.2	357	358	9.4	91.6
2025-09-25T03:39	10	0	0.1	-1	0	357	0.2	357	358	9.3	91.3
2025-09-25T03:40	10	0	0.1	-1	0	357	0.3	356	358	9.3	91.2
2025-09-25T03:41	10	0	0.1	-1	0	357	0.2	357	358	9.4	90.9
2025-09-25T03:42	10	0	0.2	-1	0	357	0.2	357	358	9.4	91.0
2025-09-25T03:43	10	0	0.1	-1	0	357	0.3	356	358	9.3	91.3
2025-09-25T03:44	10	0	0.1	-1	0	357	0.2	357	357	9.3	91.3
2025-09-25T03:45	10	0	0.1	-1	0	357	0.3	357	358	9.4	90.8
2025-09-25T03:46	10	0	0.1	-1	0	357	0.2	357	358	9.4	90.8
2025-09-25T03:47	10	0	0.1	-1	0	357	0.3	357	358	9.4	90.7
2025-09-25T03:48	10	0	0.1	-1	0	357	0.3	357	358	9.4	90.5
2025-09-25T03:49	10	0	0.1	-1	0	357	0.2	357	358	9.4	90.5
2025-09-25T03:50	10	0	0.1	-1	0	357	0.2	357	358	9.4	90.4
2025-09-25T03:51	10	0	0.1	-1	0	357	0.3	357	358	9.4	90.4
2025-09-25T03:52	10	0	0.1	-1	0	357	0.3	357	358	9.4	90.6
2025-09-25T03:53	10	0	0.1	-1	0	357	0.2	357	358	9.4	90.3
2025-09-25T03:54	10	0	0.1	-1	0	357	0.2	357	358	9.4	90.5
2025-09-25T03:55	10	0	0.2	-1	0	357	0.2	357	358	9.5	90.3
2025-09-25T03:56	10	0	0.1	-1	0	358	0.3	357	358	9.5	90.3
2025-09-25T03:57	10	0	0.2	-1	0	358	0.3	357	358	9.5	89.8
2025-09-25T03:58	10	0	0.1	-1	0	358	0.3	357	358	9.5	90.1
2025-09-25T03:59	10	0	0.1	-1	0	357	0.2	357	358	9.5	90.4
2025-09-25T04:00	10	0	0.1	-1	0	358	0.2	357	358	9.5	90.0
2025-09-25T04:01	10	0	0.1	-1	0	358	0.2	357	358	9.5	90.2
2025-09-25T04:02	10	0	0.1	-1	0	357	0.3	357	358	9.5	90.3
2025-09-25T04:03	10	0	0.1	-1	0	357	0.2	357	358	9.5	89.9
2025-09-25T04:04	10	0	0.1	-1	0	357	0.3	357	358	9.5	90.2
2025-09-25T04:05	10	0	0.1	-1	0	357	0.3	357	358	9.5	90.0
2025-09-25T04:06	10	0	0.2	-1	0	357	0.3	357	358	9.6	89.7
2025-09-25T04:07	10	0	0.1	-1	0	357	0.2	357	358	9.6	89.6
2025-09-25T04:08	10	0	0.1	-1	0	357	0.2	357	358	9.6	90.0
2025-09-25T04:09	10	0	0.1	-1	0	357	0.3	357	358	9.5	90.4
2025-09-25T04:10	10	0	0.1	-1	0	357	0.2	357	358	9.5	90.3
2025-09-25T04:11	10	0	0.1	0	0	357	0.3	357	358	9.5	90.4
2025-09-25T04:12	10	0	0.1	-1	0	357	0.3	356	358	9.5	90.6
2025-09-25T04:13	10	0	0.1	-1	0	357	0.2	357	358	9.5	90.5
2025-09-25T04:14	10	0	0.1	-1	0	357	0.3	356	357	9.6	89.9
2025-09-25T04:15	10	0	0.1	-1	0	357	0.3	356	357	9.6	89.6
2025-09-25T04:16	10	0	0.1	0	0	357	0.3	357	358	9.6	89.3
2025-09-25T04:17	10	0	0.1	-1	0	357	0.2	356	357	9.6	89.2
2025-09-25T04:18	10	0	0.1	-1	0	357	0.2	356	357	9.6	89.5
2025-09-25T04:19	10	0	0.1	-1	0	356	0.3	356	357	9.6	89.7
2025-09-25T04:20	10	0	0.1	-1	0	356	0.2	355	356	9.6	90.3
2025-09-25T04:21	10	0	0.1	-1	0	356	0.2	355	356	9.5	90.1
2025-09-25T04:22	10	0	0.1	-1	0	356	0.3	355	356	9.5	90.3
2025-09-25T04:23	10	0	0.1	-1	0	355	0.2	355	356	9.5	90.3
2025-09-25T04:24	10	0	0.2	-1	0	355	0.3	354	356	9.5	90.4
2025-09-25T04:25	10	0	0.1	-1	0	355	0.2	355	356	9.5	90.5
2025-09-25T04:26	10	0	0.1	-1	0	355	0.2	354	355	9.5	90.8
2025-09-25T04:27	10	0	0.2	-1	0	355	0.3	354	356	9.5	91.0
2025-09-25T04:28	10	0	0.1	-1	0	355	0.3	354	355	9.4	91.1
2025-09-25T04:29	10	0	0.1	-1	0	355	0.3	354	356	9.4	91.1
2025-09-25T04:30	10	0	0.1	-1	0	355	0.2	355	356	9.5	90.7
2025-09-25T04:31	10	0	0.2	-1	0	356	0.2	355	356	9.5	90.8
2025-09-25T04:32	10	0	0.1	-1	0	355	0.2	355	356	9.5	90.9
2025-09-25T04:33	10	0	0.2	-1	0	356	0.3	355	357	9.5	90.9
2025-09-25T04:34	10	0	0.1	-1	0	356	0.3	355	356	9.5	90.6
2025-09-25T04:35	10	0	0.1	-1	0	356	0.3	355	357	9.5	91.0
2025-09-25T04:36	10	0	0.1	-1	0	356	0.3	356	357	9.5	91.3
2025-09-25T04:37	10	0	0.1	-1	0	357	0.3	356	357	9.5	91.1
2025-09-25T04:38	10	0	0.1	-1	0	356	0.2	356	357	9.5	91.3
2025-09-25T04:39	10	0	0.2	-1	0	357	0.3	356	357	9.5	91.4
2025-09-25T04:40	10	0	0.2	-1	0	357	0.2	356	357	9.4	91.6
2025-09-25T04:41	10	0	0.2	-1	0	357	0.2	356	357	9.4	91.6
2025-09-25T04:42	10	0	0.1	-1	0	357	0.2	356	357	9.4	91.6
2025-09-25T04:43	10	0	0.1	-1	0	357	0.1	357	357	9.4	91.9
2025-09-25T04:44	10	0	0.2	-1	0	357	0.2	356	357	9.4	91.7
2025-09-25T04:45	10	0	0.2	-1	0	357	0.2	356	357	9.5	91.5
2025-09-25T04:46	10	0	0.1	-1	0	357	0.2	356	357	9.4	91.9
2025-09-25T04:47	10	0	0.1	-1	0	357	0.2	356	357	9.4	92.3
2025-09-25T04:48	10	0	0.1	-1	0	357	0.2	357	358	9.4	92.3
2025-09-25T04:49	10	0	0.1	-1	0	357	0.2	357	358	9.4	92.4
2025-09-25T04:50	10	0	0.1	-1	0	357	0.2	357	358	9.4	92.6
2025-09-25T04:51	10	0	0.1	-1	0	357	0.3	356	358	9.4	92.9
2025-09-25T04:52	10	0	0.1	-1	0	357	0.3	357	358	9.4	93.1
2025-09-25T04:53	10	0	0.2	-1	0	357	0.2	357	357	9.4	93.3
2025-09-25T04:54	10	0	0.1	-1	0	357	0.2	356	357	9.4	93.3
2025-09-25T04:55	10	0	0.2	-1	0	357	0.3	356	358	9.4	93.4
2025-09-25T04:56	10	0	0.1	-1	0	357	0.2	357	358	9.4	93.5
2025-09-25T04:57	10	0	0.1	-1	0	357	0.2	356	358	9.4	93.4
2025-09-25T04:58	10	0	0.1	-1	0	357	0.3	356	357	9.4	93.3
2025-09-25T04:59	10	0	0.1	-1	0	357	0.2	357	358	9.4	93.5
2025-09-25T05:00	10	0	0.1	0	0	357	0.2	357	358	9.4	93.6
2025-09-25T05:01	10	0	0.1	0	0	357	0.2	356	358	9.4	93.4
2025-09-25T05:02	10	0	0.1	-1	0	357	0.2	357	358	9.4	93.0
2025-09-25T05:03	10	0	0.1	-1	0	357	0.2	357	358	9.4	92.8
2025-09-25T05:04	10	0	0.1	-1	0	357	0.2	357	358	9.4	92.5
2025-09-25T05:05	10	0	0.1	-1	0	357	0.2	357	358	9.4	92.4
2025-09-25T05:06	10	0	0.1	0	0	357	0.2	357	358	9.4	92.4
2025-09-25T05:07	10	0	0.2	-1	0	357	0.2	357	358	9.4	92.4
2025-09-25T05:08	10	0	0.1	-1	0	357	0.3	357	358	9.4	92.3
2025-09-25T05:09	10	0	0.1	0	0	357	0.3	356	358	9.5	91.4
2025-09-25T05:10	10	0	0.2	0	0	357	0.2	357	358	9.5	90.9
2025-09-25T05:11	10	0	0.1	-1	0	357	0.3	356	357	9.5	91.1
2025-09-25T05:12	10	0	0.1	0	0	357	0.3	356	357	9.5	90.9
2025-09-25T05:13	10	0	0.1	0	0	357	0.2	356	357	9.6	90.6
2025-09-25T05:14	10	0	0.1	-1	0	356	0.2	356	357	9.6	90.7
2025-09-25T05:15	10	0	0.1	-1	0	356	0.3	356	357	9.6	90.9
2025-09-25T05:16	10	0	0.1	0	0	356	0.2	356	357	9.5	91.0
2025-09-25T05:17	10	0	0.1	0	0	356	0.2	356	357	9.5	90.6
2025-09-25T05:18	10	0	0.1	0	0	356	0.2	356	357	9.5	90.8
2025-09-25T05:19	10	0	0.1	0	0	356	0.2	356	356	9.5	91.3
2025-09-25T05:20	10	0	0.1	0	0	356	0.2	355	357	9.5	90.9
2025-09-25T05:21	10	0	0.1	0	0	356	0.3	355	357	9.5	91.3
2025-09-25T05:22	10	0	0.1	0	0	356	0.3	355	356	9.5	91.3
2025-09-25T05:23	10	0	0.1	0	1	356	0.3	355	356	9.5	91.4
2025-09-25T05:24	10	0	0.1	0	0	356	0.2	355	356	9.5	91.5
2025-09-25T05:25	10	0	0.1	0	0	356	0.2	355	356	9.5	91.2
2025-09-25T05:26	10	0	0.1	0	1	356	0.3	355	357	9.5	90.8
2025-09-25T05:27	10	0	0.1	0	1	356	0.3	355	357	9.5	90.8
2025-09-25T05:28	10	0	0.1	0	1	356	0.3	355	357	9.5	91.1
2025-09-25T05:29	10	0	0.1	0	1	356	0.2	356	357	9.5	91.5
2025-09-25T05:30	10	1	0.2	0	1	356	0.2	356	357	9.5	91.3
2025-09-25T05:31	10	1	0.2	0	1	356	0.3	356	357	9.5	91.1
2025-09-25T05:32	10	1	0.2	0	1	357	0.3	356	357	9.5	91.0
2025-09-25T05:33	10	1	0.2	1	1	357	0.2	356	357	9.5	91.4
2025-09-25T05:34	10	1	0.1	1	1	357	0.2	356	357	9.5	91.8
2025-09-25T05:35	10	1	0.1	1	1	357	0.2	357	358	9.4	92.4
2025-09-25T05:36	10	1	0.1	1	1	357	0.3	356	358	9.4	92.4
2025-09-25T05:37	10	1	0.1	1	2	357	0.2	357	358	9.4	92.3
2025-09-25T05:38	10	1	0.2	1	2	357	0.3	356	358	9.4	92.4
2025-09-25T05:39	10	2	0.2	1	2	358	0.2	357	358	9.4	92.3
2025-09-25T05:40	10	2	0.2	1	2	358	0.3	357	359	9.5	92.2
2025-09-25T05:41	10	2	0.2	2	2	358	0.3	357	359	9.5	92.3
2025-09-25T05:42	10	2	0.1	2	3	358	0.2	357	358	9.5	92.5
2025-09-25T05:43	10	2	0.2	2	3	358	0.3	358	359	9.5	91.7
2025-09-25T05:44	10	3	0.2	2	3	358	0.2	357	359	9.5	91.3
2025-09-25T05:45	10	3	0.1	3	3	358	0.3	358	359	9.6	91.2
2025-09-25T05:46	10	3	0.1	3	3	358	0.2	357	359	9.6	91.2
2025-09-25T05:47	10	3	0.2	3	4	359	0.3	358	359	9.6	90.8
2025-09-25T05:48	10	3	0.2	3	4	359	0.3	358	360	9.6	90.7
2025-09-25T05:49	10	4	0.1	3	4	359	0.3	358	359	9.6	90.6
2025-09-25T05:50	10	4	0.1	3	4	359	0.2	358	359	9.6	90.5
2025-09-25T05:51	10	4	0.2	4	4	359	0.2	358	359	9.6	90.6
2025-09-25T05:52	10	4	0.1	4	4	359	0.2	358	359	9.6	90.8
2025-09-25T05:53	10	4	0.2	4	5	359	0.2	358	360	9.6	90.3
2025-09-25T05:54	10	4	0.1	4	5	359	0.2	359	360	9.6	90.2
2025-09-25T05:55	10	4	0.2	4	5	359	0.2	359	360	9.7	90.4
2025-09-25T05:56	10	5	0.2	4	5	359	0.3	358	360	9.7	90.2
2025-09-25T05:57	10	5	0.2	4	5	359	0.3	359	360	9.7	90.2
2025-09-25T05:58	10	5	0.2	5	5	359	0.2	359	360	9.7	90.3
2025-09-25T05:59	10	5	0.1	5	5	359	0.3	359	360	9.7	89.9
2025-09-25T06:00	10	5	0.2	5	6	359	0.2	359	360	9.7	89.5
2025-09-25T06:01	10	5	0.1	5	5	360	0.2	359	360	9.7	90.0
2025-09-25T06:02	10	5	0.1	5	6	360	0.3	359	360	9.7	90.0
2025-09-25T06:03	10	5	0.2	5	6	360	0.2	359	360	9.7	89.8
2025-09-25T06:04	10	5	0.1	5	6	360	0.3	359	360	9.7	89.3
2025-09-25T06:05	10	6	0.2	5	6	360	0.3	359	360	9.7	89.0
2025-09-25T06:06	10	6	0.1	5	6	360	0.2	359	360	9.8	89.0
2025-09-25T06:07	10	6	0.1	6	6	360	0.2	359	360	9.8	89.1
2025-09-25T06:08	10	6	0.1	6	7	360	0.2	359	360	9.8	89.1
2025-09-25T06:09	10	6	0.1	6	7	360	0.3	359	360	9.8	89.6
2025-09-25T06:10	10	7	0.2	6	7	360	0.2	359	360	9.7	89.6
2025-09-25T06:11	10	7	0.2	6	7	360	0.3	359	360	9.8	89.2
2025-09-25T06:12	10	7	0.2	7	7	360	0.2	359	360	9.8	89.8
2025-09-25T06:13	10	7	0.2	7	8	360	0.2	360	361	9.7	89.7
2025-09-25T06:14	10	8	0.2	7	8	360	0.3	359	360	9.8	89.6
2025-09-25T06:15	10	8	0.1	8	8	360	0.2	360	361	9.8	89.3
2025-09-25T06:16	10	8	0.1	8	9	360	0.2	360	361	9.8	88.9
2025-09-25T06:17	10	9	0.2	9	9	360	0.3	360	361	9.8	89.2
2025-09-25T06:18	10	9	0.2	9	10	360	0.2	360	361	9.8	89.3
2025-09-25T06:19	10	10	0.2	9	10	360	0.2	360	361	9.8	88.7
2025-09-25T06:20	10	10	0.2	10	11	361	0.3	360	361	9.8	89.1
2025-09-25T06:21	10	11	0.2	10	11	361	0.3	360	362	9.8	89.5
2025-09-25T06:22	10	11	0.2	11	12	361	0.2	361	362	9.8	89.5
2025-09-25T06:23	10	11	0.2	11	12	361	0.2	361	362	9.8	89.5
2025-09-25T06:24	10	11	0.2	11	12	361	0.3	360	362	9.8	89.7
2025-09-25T06:25	10	11	0.1	11	12	361	0.2	361	362	9.8	90.3
2025-09-25T06:26	10	12	0.1	11	12	361	0.2	361	362	9.8	90.1
2025-09-25T06:27	10	12	0.2	12	13	362	0.2	361	362	9.8	90.0
2025-09-25T06:28	10	13	0.2	12	13	362	0.2	361	362	9.8	90.1
2025-09-25T06:29	10	13	0.2	13	13	362	0.2	361	362	9.8	89.5
2025-09-25T06:30	10	13	0.2	13	14	361	0.2	361	362	9.9	89.4
2025-09-25T06:31	10	14	0.1	14	14	362	0.2	361	362	9.9	89.4
2025-09-25T06:32	10	14	0.1	14	15	362	0.2	361	362	9.9	89.5
2025-09-25T06:33	10	15	0.1	14	15	362	0.2	362	362	9.9	89.8
2025-09-25T06:34	10	15	0.1	15	15	362	0.2	361	362	9.9	89.5
2025-09-25T06:35	10	15	0.2	14	15	362	0.2	361	362	9.9	89.1
2025-09-25T06:36	10	15	0.1	14	15	361	0.2	361	362	9.9	89.2
2025-09-25T06:37	10	15	0.1	15	15	362	0.2	361	362	9.9	89.7
2025-09-25T06:38	10	15	0.2	15	16	362	0.2	361	362	9.9	89.9
2025-09-25T06:39	10	16	0.2	15	16	362	0.2	361	362	9.9	89.6
2025-09-25T06:40	10	16	0.3	16	17	362	0.2	361	362	9.9	89.4
2025-09-25T06:41	10	17	0.3	17	18	362	0.2	362	362	9.9	88.8
2025-09-25T06:42	10	19	0.4	18	20	362	0.2	362	363	9.9	89.0
2025-09-25T06:43	10	21	1.1	19	23	362	0.3	361	363	9.9	88.7
2025-09-25T06:44	10	22	0.2	22	23	362	0.2	362	363	9.9	88.4
2025-09-25T06:45	10	24	0.7	22	25	363	0.3	362	364	9.9	88.6
2025-09-25T06:46	10	25	0.1	24	25	363	0.3	362	363	9.9	88.9
2025-09-25T06:47	10	25	0.5	24	26	363	0.2	363	363	9.9	88.4
2025-09-25T06:48	10	27	2.0	25	32	363	0.2	363	363	9.9	88.5
2025-09-25T06:49	10	31	1.0	29	32	364	0.3	363	364	10.0	88.6
2025-09-25T06:50	10	29	1.0	28	31	364	0.2	363	364	10.0	89.1
2025-09-25T06:51	10	31	0.2	31	32	364	0.3	363	364	10.0	88.7
2025-09-25T06:52	10	35	1.9	32	38	364	0.4	364	365	10.0	88.5
2025-09-25T06:53	10	40	1.2	38	42	365	0.4	364	366	10.1	89.0
2025-09-25T06:54	10	43	0.6	42	44	366	0.3	365	367	10.1	89.3
2025-09-25T06:55	10	45	0.6	44	46	366	0.3	366	367	10.1	88.6
2025-09-25T06:56	10	45	0.6	44	46	367	0.3	366	367	10.1	87.9
2025-09-25T06:57	10	44	0.2	44	44	367	0.2	367	368	10.2	88.6
2025-09-25T06:58	10	44	0.1	44	44	367	0.3	366	368	10.1	87.7
2025-09-25T06:59	10	43	1.3	41	46	367	0.2	366	367	10.2	87.0
2025-09-25T07:00	10	51	1.9	47	54	368	0.6	367	369	10.3	87.7
2025-09-25T07:01	10	56	1.3	54	59	369	0.2	368	369	10.3	88.3
2025-09-25T07:02	10	61	1.4	59	63	369	0.5	369	370	10.3	87.8
2025-09-25T07:03	10	66	1.3	63	68	370	0.3	369	370	10.3	86.8
2025-09-25T07:04	10	69	0.7	68	70	371	0.5	370	372	10.3	87.3
2025-09-25T07:05	10	71	0.6	70	72	372	0.5	371	373	10.4	87.2
2025-09-25T07:06	10	73	0.7	72	75	373	0.4	373	374	10.5	87.9
2025-09-25T07:07	10	76	0.6	75	77	374	0.3	374	375	10.5	87.5
2025-09-25T07:08	10	76	0.2	76	77	374	0.2	373	375	10.5	86.6
2025-09-25T07:09	10	77	0.8	76	79	374	0.6	373	375	10.5	85.4
2025-09-25T07:10	10	81	0.8	79	82	374	0.2	374	374	10.5	85.6
2025-09-25T07:11	10	83	0.4	82	84	375	0.4	374	376	10.6	86.2
2025-09-25T07:12	10	85	0.4	84	85	376	0.3	375	377	10.6	85.6
2025-09-25T07:13	10	86	0.3	85	86	377	0.5	376	378	10.7	85.8
2025-09-25T07:14	10	87	0.3	86	87	377	0.8	376	379	10.7	85.3
2025-09-25T07:15	10	87	0.3	87	88	377	0.3	376	378	10.8	85.0
2025-09-25T07:16	10	88	0.3	88	89	377	0.3	377	378	10.8	84.8
2025-09-25T07:17	10	89	0.2	89	90	377	0.3	376	378	10.8	84.1
2025-09-25T07:18	10	89	0.5	88	89	379	0.3	378	379	10.9	84.6
2025-09-25T07:19	10	87	0.3	86	88	378	0.5	377	379	11.0	84.0
2025-09-25T07:20	10	87	0.2	87	87	378	0.4	377	378	10.9	83.7
2025-09-25T07:21	10	87	0.2	86	87	378	0.4	377	379	11.0	83.6
2025-09-25T07:22	10	86	0.2	86	87	378	0.4	378	379	10.9	82.9
2025-09-25T07:23	10	84	3.7	74	87	378	0.9	376	379	10.9	81.5
2025-09-25T07:24	10	60	6.5	52	74	375	0.9	373	376	10.9	81.7
2025-09-25T07:25	10	47	3.2	42	52	373	0.8	372	375	10.9	81.3
2025-09-25T07:26	10	42	0.5	42	44	372	0.2	371	372	10.8	81.8
2025-09-25T07:27	10	44	0.9	44	47	371	0.4	371	372	10.8	82.2
2025-09-25T07:28	10	48	0.6	47	49	371	0.4	370	372	10.8	82.1
2025-09-25T07:29	10	46	0.4	45	47	370	0.3	369	371	10.7	81.2
2025-09-25T07:30	10	47	0.4	46	47	370	0.3	369	370	10.7	80.6
2025-09-25T07:31	10	48	0.8	47	49	370	0.2	370	371	10.8	80.8
2025-09-25T07:32	10	49	0.7	48	51	371	0.4	370	372	10.8	81.9
2025-09-25T07:33	10	69	10.7	51	80	373	1.3	371	375	10.9	82.3
2025-09-25T07:34	10	78	1.3	76	82	374	0.4	373	375	10.9	81.9
2025-09-25T07:35	10	93	3.4	83	96	377	1.0	375	378	11.0	81.6
2025-09-25T07:36	10	98	1.4	96	101	378	0.3	377	378	11.0	80.7
2025-09-25T07:37	10	95	3.7	89	101	379	0.6	378	381	11.0	81.8
2025-09-25T07:38	10	79	6.4	70	88	379	1.3	377	381	11.1	81.9
2025-09-25T07:39	10	75	4.4	69	81	378	0.5	377	379	11.2	81.3
2025-09-25T07:40	10	70	5.6	64	80	378	1.3	376	379	11.3	80.8
2025-09-25T07:41	10	60	2.4	57	64	376	0.4	375	377	11.1	79.8
2025-09-25T07:42	10	57	0.5	56	58	375	0.8	374	376	11.2	80.8
2025-09-25T07:43	10	56	2.2	51	58	374	0.5	373	375	11.1	79.6
2025-09-25T07:44	10	47	1.7	44	50	372	0.7	371	374	11.1	79.3
2025-09-25T07:45	10	44	0.3	43	44	371	0.3	370	372	11.1	79.2
2025-09-25T07:46	10	47	5.7	43	66	371	0.4	370	372	11.1	79.2
2025-09-25T07:47	10	87	5.3	68	92	374	1.2	371	375	11.1	79.2
2025-09-25T07:48	10	82	7.9	68	91	376	0.6	374	377	11.1	79.2
2025-09-25T07:49	10	57	4.7	52	67	374	1.1	372	376	11.1	79.2
2025-09-25T07:50	10	97	13.5	63	108	375	1.5	372	377	11.1	79.2
2025-09-25T07:51	10	109	6.5	100	117	377	0.7	376	379	11.1	79.2
2025-09-25T07:52	10	109	5.8	102	117	378	0.4	377	379	11.2	77.3
2025-09-25T07:53	10	111	1.8	107	114	379	0.6	378	381	11.3	77.4
2025-09-25T07:54	10	104	5.7	94	110	380	0.4	379	381	11.4	77.2
2025-09-25T07:55	10	86	6.0	74	94	378	0.6	377	380	11.5	77.1
2025-09-25T07:56	10	81	9.4	70	95	378	0.6	377	380	11.4	76.8
2025-09-25T07:57	10	105	5.4	95	111	380	0.8	379	381	11.5	77.1
2025-09-25T07:58	10	95	4.8	87	103	381	0.3	380	382	11.6	77.9
2025-09-25T07:59	10	96	4.2	85	102	383	0.8	381	384	11.6	78.0
2025-09-25T08:00	10	84	5.1	78	95	383	0.6	382	384	11.7	78.4
2025-09-25T08:01	10	119	8.9	96	127	385	1.7	382	387	11.8	77.9
2025-09-25T08:02	10	115	1.8	111	119	387	0.5	386	388	11.9	77.6
2025-09-25T08:03	10	119	4.8	111	124	387	0.7	385	388	11.9	76.9
2025-09-25T08:04	10	123	0.8	122	124	386	0.4	385	387	11.9	74.7
2025-09-25T08:05	10	125	2.4	122	129	387	0.3	387	388	12.0	77.4
2025-09-25T08:06	10	132	1.5	129	134	388	0.6	387	389	11.9	76.2
2025-09-25T08:07	10	131	3.3	124	134	388	0.4	388	389	11.7	75.2
2025-09-25T08:08	10	107	12.7	84	124	387	0.9	386	389	11.8	76.2
2025-09-25T08:09	10	76	2.6	74	84	385	1.3	383	387	11.9	76.0
2025-09-25T08:10	10	79	1.3	76	80	383	1.1	381	385	11.9	75.5
2025-09-25T08:11	10	81	2.9	78	87	383	0.8	381	384	11.7	74.6
2025-09-25T08:12	10	89	1.6	87	93	384	0.4	383	385	11.8	74.9
2025-09-25T08:13	10	106	5.1	94	111	385	0.6	384	386	11.9	74.4
2025-09-25T08:14	10	110	3.0	104	113	387	1.2	385	389	11.8	70.0
2025-09-25T08:15	10	108	2.6	105	115	389	0.4	388	390	11.8	70.5
2025-09-25T08:16	10	116	4.9	104	121	390	0.4	389	391	12.0	73.9
2025-09-25T08:17	10	98	2.0	96	104	388	1.1	387	391	12.1	74.2
2025-09-25T08:18	10	93	1.4	91	96	386	0.6	385	387	12.0	72.7
2025-09-25T08:19	10	91	0.3	90	92	386	0.3	385	386	11.9	71.3
2025-09-25T08:20	10	91	0.5	90	92	386	0.5	385	387	11.9	72.5
2025-09-25T08:21	10	99	6.1	92	113	388	0.6	387	389	11.9	72.7
2025-09-25T08:22	10	115	3.9	106	120	389	0.4	389	390	12.1	72.3
2025-09-25T08:23	10	104	0.5	103	106	390	0.5	389	391	12.1	71.9
2025-09-25T08:24	10	101	1.3	100	104	390	0.9	389	392	12.2	73.7
2025-09-25T08:25	10	99	0.8	97	100	389	0.3	389	390	12.1	73.3
2025-09-25T08:26	10	93	2.5	90	97	389	0.3	389	390	12.1	73.2
2025-09-25T08:27	10	89	0.4	88	90	390	0.2	389	390	12.3	75.0
2025-09-25T08:28	10	90	0.8	89	91	389	0.6	388	390	12.3	73.2
2025-09-25T08:29	10	94	1.5	91	97	390	0.5	389	392	12.3	74.1
2025-09-25T08:30	10	102	2.5	97	105	390	0.4	389	390	12.1	72.2
2025-09-25T08:31	10	110	6.2	103	118	390	0.6	389	391	12.1	71.2
2025-09-25T08:32	10	109	3.5	104	116	393	1.0	391	395	12.1	71.3
2025-09-25T08:33	10	143	15.4	113	161	395	1.1	393	398	12.2	71.7
2025-09-25T08:34	10	171	9.0	160	182	400	2.7	396	405	12.3	72.2
2025-09-25T08:35	10	179	1.1	177	181	404	0.7	403	405	12.5	72.7
2025-09-25T08:36	10	176	0.5	176	177	404	0.5	403	405	12.4	69.6
2025-09-25T08:37	10	178	0.5	176	178	406	0.5	404	406	12.7	71.8
2025-09-25T08:38	10	177	0.3	177	178	404	0.8	403	406	12.9	72.0
2025-09-25T08:39	10	177	0.3	176	177	401	0.9	400	403	12.5	70.5
2025-09-25T08:40	10	178	0.6	177	179	402	0.4	401	403	12.4	70.9
2025-09-25T08:41	10	180	0.2	179	180	404	1.0	402	406	12.3	70.2
2025-09-25T08:42	10	177	1.0	175	179	407	0.5	406	408	12.4	71.2
2025-09-25T08:43	10	166	7.9	148	176	406	0.6	405	408	12.6	70.6
2025-09-25T08:44	10	170	3.9	158	172	407	0.6	406	408	12.9	72.9
2025-09-25T08:45	10	168	1.9	163	170	408	0.9	406	409	13.1	69.4
2025-09-25T08:46	10	104	31.6	73	166	403	4.5	397	410	13.1	70.7
2025-09-25T08:47	10	142	23.9	104	166	402	2.4	399	405	12.8	68.9
2025-09-25T08:48	10	157	4.1	149	163	405	0.6	404	406	12.9	68.7
2025-09-25T08:49	10	140	9.4	117	148	402	1.1	401	405	12.8	68.9
2025-09-25T08:50	10	133	10.2	112	144	399	1.7	395	402	12.9	70.7
2025-09-25T08:51	10	98	6.6	84	111	396	0.4	395	397	12.8	71.6
2025-09-25T08:52	10	74	2.9	70	83	393	1.2	391	396	12.6	69.8
2025-09-25T08:53	10	74	0.6	73	75	391	0.6	390	392	12.6	71.0
2025-09-25T08:54	10	68	8.5	53	77	391	0.7	389	392	12.4	71.7
2025-09-25T08:55	10	52	0.7	51	53	388	0.9	387	390	12.4	70.2
2025-09-25T08:56	10	51	0.1	51	52	387	0.4	386	387	12.4	70.3
2025-09-25T08:57	10	54	2.1	52	59	385	0.4	385	386	12.5	71.3
2025-09-25T08:58	10	64	2.0	59	66	385	0.4	385	386	12.5	69.5
2025-09-25T08:59	10	69	4.4	65	77	385	0.8	384	387	12.4	68.5
2025-09-25T09:00	10	79	6.2	62	85	388	0.6	386	389	12.4	69.6
2025-09-25T09:01	10	56	1.8	54	61	385	1.1	384	387	12.4	69.2
2025-09-25T09:02	10	59	4.2	54	66	384	0.4	383	385	12.4	68.0
2025-09-25T09:03	10	54	0.8	54	56	385	0.3	385	386	12.4	69.1
2025-09-25T09:04	10	56	0.7	56	58	385	0.4	384	385	12.4	69.0
2025-09-25T09:05	10	64	6.1	57	80	386	1.3	384	388	12.3	68.3
2025-09-25T09:06	10	92	5.6	81	100	390	1.8	386	393	12.4	69.6
2025-09-25T09:07	10	100	12.4	82	119	393	1.3	391	395	12.6	69.4
2025-09-25T09:08	10	88	5.6	82	99	393	0.4	392	393	12.6	68.3
2025-09-25T09:09	10	105	7.0	84	110	395	1.5	393	397	12.7	68.4
2025-09-25T09:10	10	97	3.5	94	106	396	0.2	395	396	12.8	68.6
2025-09-25T09:11	10	99	0.8	97	99	395	1.2	393	397	12.8	68.6
2025-09-25T09:12	10	98	1.0	97	100	391	0.6	390	393	12.6	65.9
2025-09-25T09:13	10	98	1.3	96	100	392	0.3	391	393	12.5	66.7
2025-09-25T09:14	10	97	0.2	97	97	392	0.8	391	394	12.5	66.8
2025-09-25T09:15	10	95	1.3	93	96	395	0.3	394	395	12.6	68.4
2025-09-25T09:16	10	98	2.6	94	102	394	0.3	394	395	12.7	66.8
2025-09-25T09:17	10	104	0.8	102	105	395	0.4	394	396	12.8	66.3
2025-09-25T09:18	10	106	1.9	104	111	395	0.8	394	397	12.8	66.3
2025-09-25T09:19	10	119	2.8	112	122	396	1.6	394	399	12.7	65.5
2025-09-25T09:20	10	123	2.2	119	125	400	1.1	398	402	12.8	67.0
2025-09-25T09:21	10	126	4.4	110	130	401	0.4	400	402	13.1	66.4
2025-09-25T09:22	10	119	11.9	98	133	401	0.6	400	402	13.1	66.4
2025-09-25T09:23	10	118	11.9	90	132	400	1.1	397	401	12.9	65.6
2025-09-25T09:24	10	77	3.2	75	88	395	1.4	393	399	12.9	66.2
2025-09-25T09:25	10	74	0.2	74	75	392	0.8	391	394	12.8	65.4
2025-09-25T09:26	10	78	2.8	75	86	391	0.3	390	392	12.7	65.8
2025-09-25T09:27	10	125	25.7	87	160	394	3.0	390	399	12.9	66.7
2025-09-25T09:28	10	160	0.6	159	161	402	2.2	397	405	12.8	65.1
2025-09-25T09:29	10	160	0.6	159	162	405	0.4	404	405	12.9	64.7
2025-09-25T09:30	10	163	0.7	161	164	404	0.6	403	406	12.8	64.1
2025-09-25T09:31	10	151	7.2	140	161	407	0.7	405	408	12.9	64.9
2025-09-25T09:32	10	137	5.2	128	143	406	1.3	404	408	13.1	65.4
2025-09-25T09:33	10	125	2.0	122	128	404	0.9	402	405	13.0	64.6
2025-09-25T09:34	10	120	1.4	119	124	402	0.7	401	403	13.0	65.2
2025-09-25T09:35	10	117	2.4	114	121	403	0.3	402	404	13.1	66.3
2025-09-25T09:36	10	118	1.5	115	122	402	1.0	400	404	13.1	66.1
2025-09-25T09:37	10	123	1.1	120	125	401	0.8	400	402	12.9	64.0
2025-09-25T09:38	10	105	8.1	94	120	400	1.2	399	403	12.9	65.4
2025-09-25T09:39	10	98	7.7	86	108	399	1.6	397	401	13.1	65.3
2025-09-25T09:40	10	94	4.1	87	103	397	0.9	395	398	13.0	65.1
2025-09-25T09:41	10	86	4.8	81	99	394	1.0	392	396	13.0	64.7
2025-09-25T09:42	10	106	1.6	100	108	395	0.9	393	396	13.0	65.3
2025-09-25T09:43	10	112	3.0	107	116	396	0.4	396	397	13.0	63.5
2025-09-25T09:44	10	102	8.2	89	115	397	0.9	395	398	13.1	65.3
2025-09-25T09:45	10	85	4.6	79	92	395	0.6	393	395	13.0	62.8
2025-09-25T09:46	10	77	2.4	75	83	393	0.6	392	394	13.0	63.2
2025-09-25T09:47	10	76	0.4	75	77	392	0.4	391	393	12.9	63.2
2025-09-25T09:48	10	80	2.2	77	83	392	0.7	391	393	12.8	63.0
2025-09-25T09:49	10	101	21.0	83	140	395	2.4	392	401	12.8	63.6
2025-09-25T09:50	10	121	16.3	94	140	401	0.8	399	403	13.1	64.8
2025-09-25T09:51	10	91	5.5	83	102	398	1.2	396	401	13.2	64.0
2025-09-25T09:52	10	80	1.5	78	83	396	0.5	395	397	13.2	64.7
2025-09-25T09:53	10	77	0.5	76	78	394	0.9	392	396	13.2	65.1
2025-09-25T09:54	10	76	0.5	75	77	392	0.4	391	393	13.1	63.0
2025-09-25T09:55	10	75	0.3	74	75	392	0.3	391	392	13.0	63.2
2025-09-25T09:56	10	74	0.1	74	75	392	0.2	391	392	12.9	62.5
2025-09-25T09:57	10	75	0.9	74	77	391	0.5	390	392	13.0	62.2
2025-09-25T09:58	10	89	11.9	77	117	392	1.5	390	396	13.0	63.0
2025-09-25T09:59	10	135	5.1	119	139	397	1.5	394	400	13.0	62.1
2025-09-25T10:00	10	133	14.5	96	143	399	0.6	397	400	12.9	62.4
2025-09-25T10:01	10	110	18.8	89	136	397	1.7	395	401	13.0	61.1
2025-09-25T10:02	10	133	1.6	132	136	403	1.2	400	405	13.2	61.7
2025-09-25T10:03	10	133	1.2	131	135	405	0.3	404	405	13.4	64.1
2025-09-25T10:04	10	134	1.3	131	136	406	0.5	405	407	13.4	62.5
2025-09-25T10:05	10	140	1.9	136	143	405	0.8	403	406	13.5	62.9
2025-09-25T10:06	10	105	13.4	89	135	402	1.6	400	405	13.6	62.4
2025-09-25T10:07	10	105	13.5	93	142	401	0.5	400	403	13.4	62.3
2025-09-25T10:08	10	141	5.8	127	147	405	0.9	402	406	13.6	63.4
2025-09-25T10:09	10	105	21.4	81	131	403	2.3	400	406	13.6	63.4
2025-09-25T10:10	10	79	1.5	76	81	399	1.5	397	401	13.5	60.8
2025-09-25T10:11	10	75	0.7	74	76	397	0.3	396	398	13.5	62.3
2025-09-25T10:12	10	73	0.5	72	74	396	0.3	396	397	13.4	63.2
2025-09-25T10:13	10	71	0.9	69	72	396	0.5	395	397	13.5	63.3
2025-09-25T10:14	10	67	1.3	65	69	394	0.9	393	396	13.4	62.4
2025-09-25T10:15	10	64	0.7	63	65	392	0.5	391	394	13.4	62.2
2025-09-25T10:16	10	62	0.2	62	63	392	0.4	391	392	13.2	62.0
2025-09-25T10:17	10	61	0.3	61	62	391	0.3	390	391	13.2	61.7
2025-09-25T10:18	10	60	0.4	60	61	391	0.6	390	392	13.1	61.2
2025-09-25T10:19	10	59	0.3	59	60	392	0.5	390	392	13.2	62.6
2025-09-25T10:20	10	58	0.4	57	59	390	0.9	388	391	13.2	62.4
2025-09-25T10:21	10	56	0.5	56	57	388	0.3	388	389	13.1	61.6
2025-09-25T10:22	10	55	0.5	54	56	388	0.4	387	389	13.2	62.2
2025-09-25T10:23	10	53	0.2	53	54	386	0.3	386	387	13.2	62.9
2025-09-25T10:24	10	53	0.1	53	53	386	0.3	385	386	13.2	62.2
2025-09-25T10:25	10	53	0.1	53	53	386	0.4	385	386	13.2	62.0
2025-09-25T10:26	10	53	0.2	53	54	387	0.5	386	388	13.3	62.8
2025-09-25T10:27	10	54	0.2	54	54	387	0.6	385	388	13.2	61.8
2025-09-25T10:28	10	55	0.2	54	55	386	0.3	385	386	13.1	61.7
2025-09-25T10:29	10	55	0.3	55	56	386	0.3	385	387	13.1	61.0
2025-09-25T10:30	10	56	0.2	56	57	386	0.4	385	387	13.1	62.0
2025-09-25T10:31	10	57	0.2	56	57	386	0.4	385	386	13.1	61.0
2025-09-25T10:32	10	57	0.2	57	58	387	0.4	386	387	13.1	61.3
2025-09-25T10:33	10	58	0.3	58	59	387	0.2	386	387	13.2	63.0
2025-09-25T10:34	10	59	0.3	59	60	387	0.5	386	388	13.1	62.6
2025-09-25T10:35	10	61	0.4	60	61	388	0.3	388	389	13.1	62.7
2025-09-25T10:36	10	62	0.4	61	63	388	0.2	387	388	13.1	61.5
2025-09-25T10:37	10	63	0.5	63	64	388	0.5	387	389	13.1	62.7
2025-09-25T10:38	10	65	0.5	64	66	389	0.3	389	390	13.2	63.4
2025-09-25T10:39	10	67	0.6	66	68	389	0.2	388	389	13.1	60.7
2025-09-25T10:40	10	69	0.5	68	70	390	0.6	389	391	13.1	62.2
2025-09-25T10:41	10	70	0.4	70	71	391	0.4	390	392	13.2	60.6
2025-09-25T10:42	10	72	0.5	71	73	392	0.4	391	393	13.2	59.9
2025-09-25T10:43	10	74	0.7	73	75	392	0.3	392	393	13.2	61.0
2025-09-25T10:44	10	76	0.7	75	77	393	0.7	392	394	13.2	60.0
2025-09-25T10:45	10	79	0.8	77	80	395	0.6	394	396	13.3	60.5
2025-09-25T10:46	10	81	0.7	80	82	396	0.3	395	396	13.4	61.9
2025-09-25T10:47	10	84	0.7	82	85	395	1.0	393	397	13.4	60.9
2025-09-25T10:48	10	87	1.0	85	88	395	0.7	393	397	13.2	60.0
2025-09-25T10:49	10	92	2.1	88	96	397	0.6	396	398	13.4	63.2
2025-09-25T10:50	10	112	12.2	96	130	398	1.1	397	401	13.4	61.9
2025-09-25T10:51	10	132	3.7	125	138	403	1.0	401	404	13.5	62.9
2025-09-25T10:52	10	106	4.7	103	123	401	1.3	399	404	13.5	61.0
2025-09-25T10:53	10	105	1.2	103	107	401	0.3	400	402	13.6	62.2
2025-09-25T10:54	10	111	2.6	107	116	401	0.3	400	402	13.6	60.5
2025-09-25T10:55	10	118	2.6	116	123	402	0.8	401	404	13.6	59.7
2025-09-25T10:56	10	123	2.8	119	129	405	0.6	404	406	13.6	60.2
2025-09-25T10:57	10	112	2.1	110	118	405	0.5	404	406	13.7	59.3
2025-09-25T10:58	10	109	0.4	108	110	405	0.2	404	405	13.8	60.4
2025-09-25T10:59	10	106	0.7	105	107	404	0.5	403	405	13.8	60.5
2025-09-25T11:00	10	114	11.5	105	146	403	0.5	402	404	13.7	59.1
2025-09-25T11:01	10	129	11.1	120	152	406	0.5	404	407	13.6	57.7
2025-09-25T11:02	10	159	15.9	123	178	410	3.1	404	413	13.7	57.4
2025-09-25T11:03	10	196	15.8	167	215	416	2.8	411	420	13.9	57.9
2025-09-25T11:04	10	203	6.8	189	212	421	0.6	419	422	14.2	58.4
2025-09-25T11:05	10	163	14.3	146	188	419	2.2	415	422	14.4	60.6
2025-09-25T11:06	10	155	5.1	147	163	416	0.4	415	417	14.3	56.6
2025-09-25T11:07	10	138	7.6	128	152	414	1.3	412	416	14.4	56.6
2025-09-25T11:08	10	164	14.7	132	182	415	1.9	412	418	14.6	60.8
2025-09-25T11:09	10	182	1.7	179	185	418	0.7	417	419	14.4	58.7
2025-09-25T11:10	10	145	42.2	75	181	416	3.8	408	419	14.2	59.1
2025-09-25T11:11	10	71	5.0	64	78	403	3.9	397	411	14.0	59.2
2025-09-25T11:12	10	62	1.7	59	64	397	1.3	395	400	13.8	59.2
2025-09-25T11:13	10	57	1.0	55	59	395	1.5	392	397	13.7	58.6
2025-09-25T11:14	10	54	0.7	53	56	392	0.7	390	393	13.5	58.6
2025-09-25T11:15	10	53	0.4	52	53	390	0.6	389	391	13.4	57.5
2025-09-25T11:16	10	51	0.3	51	52	388	0.3	388	389	13.4	57.5
2025-09-25T11:17	10	50	0.2	50	51	388	0.3	387	388	13.4	57.9
2025-09-25T11:18	10	50	0.3	49	50	387	0.3	387	388	13.4	58.0
2025-09-25T11:19	10	49	0.2	49	49	387	0.4	386	388	13.4	58.6
2025-09-25T11:20	10	49	0.1	49	49	387	0.4	386	388	13.4	58.4
2025-09-25T11:21	10	49	0.1	49	50	386	0.2	385	387	13.3	56.7
2025-09-25T11:22	10	49	0.1	49	50	386	0.3	385	386	13.3	57.9
2025-09-25T11:23	10	50	0.2	49	50	386	0.3	385	386	13.2	57.5
2025-09-25T11:24	10	51	0.5	50	51	386	0.6	385	388	13.3	57.8
2025-09-25T11:25	10	52	0.6	51	53	388	0.6	387	389	13.4	60.2
2025-09-25T11:26	10	54	0.6	53	56	389	0.3	388	389	13.4	58.8
2025-09-25T11:27	10	57	0.6	55	58	389	0.7	388	390	13.4	58.5
2025-09-25T11:28	10	59	0.6	58	60	390	0.3	390	391	13.4	58.4
2025-09-25T11:29	10	61	0.6	60	62	392	0.8	390	393	13.5	58.1
2025-09-25T11:30	10	63	0.4	62	63	392	0.3	392	393	13.7	59.3
2025-09-25T11:31	10	63	0.2	63	64	392	0.3	391	393	13.7	58.8
2025-09-25T11:32	10	64	0.2	64	65	392	0.4	391	393	13.8	61.1
2025-09-25T11:33	10	65	0.3	64	66	392	0.6	391	393	13.7	58.9
2025-09-25T11:34	10	66	0.2	65	66	391	0.4	390	392	13.5	57.1
2025-09-25T11:35	10	66	0.1	66	66	393	0.4	392	394	13.5	58.2
2025-09-25T11:36	10	66	0.1	66	66	392	0.3	391	392	13.4	57.0
2025-09-25T11:37	10	66	0.1	66	67	392	0.6	391	393	13.5	58.0
2025-09-25T11:38	10	66	0.1	66	66	393	0.2	392	394	13.6	59.4
2025-09-25T11:39	10	66	0.3	66	67	393	0.2	392	393	13.6	59.0
2025-09-25T11:40	10	67	0.5	67	68	392	0.6	391	393	13.5	58.0
2025-09-25T11:41	10	69	0.8	68	71	391	0.4	390	392	13.4	58.3
2025-09-25T11:42	10	72	0.5	71	73	392	0.4	391	393	13.5	58.7
2025-09-25T11:43	10	73	0.2	73	74	393	0.5	391	393	13.5	59.7
2025-09-25T11:44	10	74	0.5	73	75	393	0.3	392	393	13.5	60.2
2025-09-25T11:45	10	75	0.7	73	76	391	0.5	391	393	13.3	59.1
2025-09-25T11:46	10	71	1.8	68	74	392	0.3	391	392	13.3	60.0
2025-09-25T11:47	10	68	0.3	67	68	391	0.4	391	392	13.4	59.5
2025-09-25T11:48	10	67	0.2	67	68	391	0.5	390	392	13.4	59.5
2025-09-25T11:49	10	66	0.3	66	67	391	0.5	390	392	13.3	58.3
2025-09-25T11:50	10	65	0.6	64	66	391	0.2	391	392	13.4	59.6
2025-09-25T11:51	10	63	0.6	62	64	392	0.4	391	393	13.5	60.7
2025-09-25T11:52	10	61	0.6	60	62	392	0.4	391	393	13.6	61.2
2025-09-25T11:53	10	60	0.3	59	60	390	0.5	390	391	13.4	58.8
2025-09-25T11:54	10	59	0.2	59	60	390	0.4	390	391	13.4	59.5
2025-09-25T11:55	10	60	0.3	60	61	389	0.6	388	390	13.4	59.5
2025-09-25T11:56	10	61	0.6	61	63	388	0.3	388	389	13.3	59.1
2025-09-25T11:57	10	64	1.0	63	66	389	0.4	388	390	13.4	59.8
2025-09-25T11:58	10	68	1.4	66	71	390	0.7	389	391	13.3	59.2
2025-09-25T11:59	10	74	1.8	71	77	392	0.8	391	393	13.3	59.3
2025-09-25T12:00	10	82	3.6	77	90	393	0.4	392	393	13.3	58.7
2025-09-25T12:01	10	106	6.3	91	114	397	2.4	392	401	13.4	59.2
2025-09-25T12:02	10	119	2.5	114	129	401	0.4	400	402	13.5	59.8
2025-09-25T12:03	10	118	6.7	113	134	400	0.5	400	401	13.3	58.1
2025-09-25T12:04	10	130	11.1	115	150	402	1.4	400	405	13.3	58.8
2025-09-25T12:05	10	140	11.8	124	158	405	1.0	403	407	13.5	59.1
2025-09-25T12:06	10	164	12.3	143	181	407	1.7	405	411	13.5	59.7
2025-09-25T12:07	10	182	5.3	175	194	411	0.5	410	412	13.5	59.8
2025-09-25T12:08	10	200	2.5	195	203	416	1.6	412	418	13.5	60.0
2025-09-25T12:09	10	200	3.3	194	206	418	0.5	418	419	13.6	60.3
2025-09-25T12:10	10	204	2.1	200	207	418	0.8	417	420	13.8	60.0
2025-09-25T12:11	10	203	1.5	201	205	420	0.4	418	420	13.9	60.0
2025-09-25T12:12	10	200	1.1	198	202	418	0.5	417	419	13.7	59.3
2025-09-25T12:13	10	204	0.4	202	204	419	0.7	418	420	13.9	60.3
2025-09-25T12:14	10	203	0.4	202	204	420	0.4	419	421	13.8	60.3
2025-09-25T12:15	10	202	0.7	201	203	418	0.6	418	420	13.6	59.4
2025-09-25T12:16	10	203	0.6	201	204	420	0.5	419	421	13.8	61.4
2025-09-25T12:17	10	132	45.1	90	204	413	5.2	405	421	13.6	59.8
2025-09-25T12:18	10	95	8.9	83	110	405	2.3	402	408	13.6	59.9
2025-09-25T12:19	10	81	0.7	80	83	400	2.0	397	404	13.7	59.9
2025-09-25T12:20	10	90	5.1	82	96	399	0.5	398	400	13.5	60.0
2025-09-25T12:21	10	127	34.8	88	199	401	3.3	397	408	13.5	59.6
2025-09-25T12:22	10	194	10.1	177	206	409	1.2	405	410	13.5	60.0
2025-09-25T12:23	10	163	30.6	113	200	410	1.6	408	413	13.5	59.6
2025-09-25T12:24	10	108	21.6	87	166	405	3.3	401	411	13.4	59.8
2025-09-25T12:25	10	96	16.0	83	137	401	0.9	400	404	13.6	60.9
2025-09-25T12:26	10	174	19.8	137	193	406	2.5	402	409	13.8	61.0
2025-09-25T12:27	10	182	7.4	169	193	407	0.6	406	408	13.4	59.6
2025-09-25T12:28	10	192	3.2	183	194	411	1.2	408	412	13.6	60.3
2025-09-25T12:29	10	189	3.1	183	192	411	0.5	410	412	13.6	59.9
2025-09-25T12:30	10	193	0.2	192	193	413	1.6	410	415	13.6	60.0
2025-09-25T12:31	10	193	0.2	193	193	415	0.7	414	417	13.9	60.7
2025-09-25T12:32	10	193	0.5	192	194	417	1.4	415	420	13.7	59.4
2025-09-25T12:33	10	192	0.5	191	192	417	1.7	414	420	13.6	59.3
2025-09-25T12:34	10	192	0.6	191	193	415	0.6	414	416	13.5	60.0
2025-09-25T12:35	10	194	0.6	193	194	419	1.8	416	422	13.8	60.9
2025-09-25T12:36	10	195	0.4	194	196	423	0.9	421	424	14.3	62.1
2025-09-25T12:37	10	194	1.1	192	196	419	1.4	417	422	14.3	59.5
2025-09-25T12:38	10	191	0.7	190	192	418	0.8	417	420	14.1	59.7
2025-09-25T12:39	10	189	1.0	186	190	418	0.7	417	419	13.9	58.7
2025-09-25T12:40	10	184	1.2	182	186	419	0.9	417	420	13.9	60.2
2025-09-25T12:41	10	187	1.0	185	188	418	1.8	415	421	13.9	59.5
2025-09-25T12:42	10	184	1.8	182	187	416	0.9	415	417	13.5	59.5
2025-09-25T12:43	10	179	3.0	173	182	419	1.1	417	421	13.8	61.0
2025-09-25T12:44	10	175	1.9	172	177	421	0.4	420	422	14.4	62.2
2025-09-25T12:45	10	181	3.0	176	186	418	1.9	416	421	14.1	60.2
2025-09-25T12:46	10	187	0.5	186	188	417	0.6	416	418	13.9	60.4
2025-09-25T12:47	10	188	0.8	188	190	420	1.5	417	422	13.9	59.9
2025-09-25T12:48	10	191	0.6	190	193	423	0.4	422	424	14.2	60.7
2025-09-25T12:49	10	194	0.5	193	194	423	0.4	422	424	14.4	61.0
2025-09-25T12:50	10	194	0.6	192	194	419	1.7	416	422	14.2	60.7
2025-09-25T12:51	10	193	0.2	192	193	419	0.8	417	420	13.8	59.6
2025-09-25T12:52	10	191	0.6	190	192	420	0.5	420	422	14.1	60.8
2025-09-25T12:53	10	190	0.3	189	190	422	0.4	421	423	14.3	59.7
2025-09-25T12:54	10	189	0.5	189	190	422	0.3	421	423	14.2	59.9
2025-09-25T12:55	10	190	0.3	189	190	422	1.2	420	424	14.5	61.3
2025-09-25T12:56	10	191	0.7	190	192	421	0.5	420	423	14.8	61.8
2025-09-25T12:57	10	194	1.1	192	196	420	1.1	418	422	14.1	60.2
2025-09-25T12:58	10	198	1.2	196	200	421	0.4	420	422	13.9	60.7
2025-09-25T12:59	10	200	0.5	200	201	420	0.6	419	421	14.1	61.5
2025-09-25T13:00	10	201	0.2	201	202	418	0.9	415	419	13.8	60.8
2025-09-25T13:01	10	201	0.4	201	202	416	1.1	414	418	13.6	61.1
2025-09-25T13:02	10	201	0.3	200	202	420	1.0	418	422	13.8	61.6
2025-09-25T13:03	10	202	0.4	201	203	422	0.6	421	423	13.9	61.0
2025-09-25T13:04	10	202	0.6	201	203	423	0.6	422	424	14.1	61.1
2025-09-25T13:05	10	204	0.5	203	205	424	0.3	423	425	14.2	59.9
2025-09-25T13:06	10	207	0.9	205	208	426	0.8	424	427	14.3	61.0
2025-09-25T13:07	10	208	1.2	202	209	424	1.6	421	427	14.6	60.9
2025-09-25T13:08	10	131	41.0	84	200	417	4.6	409	423	14.3	59.5
2025-09-25T13:09	10	93	9.0	85	109	407	2.0	405	412	14.0	59.9
2025-09-25T13:10	10	86	1.7	85	93	404	0.9	403	407	13.9	61.3
2025-09-25T13:11	10	115	22.9	89	159	404	1.5	402	407	13.8	61.4
2025-09-25T13:12	10	93	14.7	80	120	402	1.2	400	404	13.7	61.4
2025-09-25T13:13	10	80	0.4	79	80	400	0.5	399	401	13.8	61.8
2025-09-25T13:14	10	83	3.1	79	88	399	0.6	398	400	13.7	61.4
2025-09-25T13:15	10	86	7.8	77	98	399	0.3	399	400	13.7	61.4
2025-09-25T13:16	10	78	0.3	77	79	400	0.5	398	401	13.9	62.5
2025-09-25T13:17	10	82	1.4	79	85	397	0.5	396	398	13.9	60.9
2025-09-25T13:18	10	98	6.0	85	103	398	1.2	395	399	13.7	60.5
2025-09-25T13:19	10	101	4.6	92	108	400	1.0	398	402	14.0	62.2
2025-09-25T13:20	10	94	3.8	89	101	400	0.3	399	401	14.0	60.8
2025-09-25T13:21	10	76	6.8	71	94	399	1.1	397	401	13.8	60.1
2025-09-25T13:22	10	71	1.3	69	73	396	0.3	395	397	13.7	60.0
2025-09-25T13:23	10	68	0.6	67	69	396	0.4	395	396	13.7	60.4
2025-09-25T13:24	10	67	0.1	66	67	394	0.8	393	395	13.7	60.8
2025-09-25T13:25	10	67	0.3	67	68	393	0.3	392	394	13.6	60.0
2025-09-25T13:26	10	70	1.9	68	73	395	0.9	393	396	13.6	61.5
2025-09-25T13:27	10	69	0.9	68	72	395	0.4	394	396	13.7	61.1
2025-09-25T13:28	10	68	0.3	68	69	394	0.4	393	395	13.5	60.5
2025-09-25T13:29	10	69	1.2	67	72	394	0.5	394	396	13.5	60.8
2025-09-25T13:30	10	72	1.8	70	75	395	0.4	395	396	13.6	60.8
2025-09-25T13:31	10	71	0.9	70	73	395	0.3	395	396	13.7	61.5
2025-09-25T13:32	10	75	1.1	73	76	395	0.3	394	396	13.6	60.9
2025-09-25T13:33	10	70	1.6	69	74	395	0.4	394	395	13.5	60.8
2025-09-25T13:34	10	74	1.8	70	78	395	0.7	394	396	13.5	60.7
2025-09-25T13:35	10	75	2.4	70	78	397	0.4	396	398	13.6	61.3
2025-09-25T13:36	10	69	0.7	69	72	397	0.3	396	397	13.7	61.9
2025-09-25T13:37	10	73	1.0	71	74	396	0.7	395	397	13.8	61.0
2025-09-25T13:38	10	68	1.0	67	71	395	0.3	394	395	13.7	61.2
2025-09-25T13:39	10	70	2.5	67	77	394	0.5	393	395	13.7	60.1
2025-09-25T13:40	10	82	1.9	77	83	397	1.4	394	399	13.7	60.1
2025-09-25T13:41	10	69	3.0	66	77	397	0.4	397	398	13.7	59.4
2025-09-25T13:42	10	66	0.1	66	66	397	0.3	397	398	13.8	59.9
2025-09-25T13:43	10	66	0.1	65	66	397	0.2	397	398	14.0	62.4
2025-09-25T13:44	10	66	0.3	66	67	396	0.8	395	397	14.1	60.8
2025-09-25T13:45	10	68	1.7	67	72	394	0.5	394	396	14.0	60.1
2025-09-25T13:46	10	77	2.5	72	81	396	0.5	395	397	13.9	59.2
2025-09-25T13:47	10	85	1.4	82	87	398	0.6	396	399	13.9	59.0
2025-09-25T13:48	10	84	1.1	82	86	399	0.6	398	400	13.9	59.7
2025-09-25T13:49	10	80	1.0	78	82	400	0.5	399	401	13.9	59.4
2025-09-25T13:50	10	75	1.7	72	78	399	0.2	399	399	13.8	59.8
2025-09-25T13:51	10	73	0.8	72	74	398	0.5	398	399	13.9	59.5
2025-09-25T13:52	10	72	1.1	71	74	398	0.3	397	398	14.0	58.6
2025-09-25T13:53	10	69	1.4	67	72	399	0.3	398	399	14.1	60.3
2025-09-25T13:54	10	67	0.4	66	68	398	0.6	397	399	14.1	59.1
2025-09-25T13:55	10	66	0.5	65	67	396	0.8	395	398	13.9	58.4
2025-09-25T13:56	10	64	0.7	63	65	396	0.2	395	396	13.8	58.0
2025-09-25T13:57	10	63	0.1	63	63	396	0.2	396	397	13.9	59.4
2025-09-25T13:58	10	63	0.1	63	63	396	0.7	394	397	14.0	58.7
2025-09-25T13:59	10	63	0.2	63	64	394	0.4	393	394	13.9	59.3
2025-09-25T14:00	10	64	0.4	64	65	393	0.2	393	394	13.9	59.8
2025-09-25T14:01	10	67	1.0	65	69	394	0.2	394	395	13.9	59.9
2025-09-25T14:02	10	72	5.4	67	87	395	0.6	394	397	13.8	59.5
2025-09-25T14:03	10	105	13.6	88	138	399	1.9	396	404	13.9	59.2
2025-09-25T14:04	10	102	20.3	76	138	404	0.9	401	405	14.0	59.0
2025-09-25T14:05	10	75	0.3	74	76	401	0.5	400	402	14.0	58.4
2025-09-25T14:06	10	75	0.1	75	75	401	0.2	400	401	14.2	58.2
2025-09-25T14:07	10	75	0.2	75	76	400	0.2	400	401	14.2	59.1
2025-09-25T14:08	10	76	0.5	76	77	401	0.3	400	402	14.3	60.2
2025-09-25T14:09	10	79	1.1	77	81	401	0.2	400	401	14.3	59.5
2025-09-25T14:10	10	88	7.9	81	109	401	0.4	400	401	14.3	59.0
2025-09-25T14:11	10	132	11.6	111	151	406	2.4	401	409	14.1	58.6
2025-09-25T14:12	10	162	11.8	144	176	411	1.5	408	413	14.3	58.4
2025-09-25T14:13	10	155	2.3	148	159	413	0.8	411	414	14.3	58.5
2025-09-25T14:14	10	157	5.0	146	162	413	0.4	412	414	14.4	59.0
2025-09-25T14:15	10	142	1.5	140	146	412	0.4	411	413	14.3	57.9
2025-09-25T14:16	10	142	3.3	137	147	412	0.3	411	412	14.4	58.4
2025-09-25T14:17	10	137	2.5	132	140	412	1.0	410	413	14.6	58.8
2025-09-25T14:18	10	129	1.6	126	132	410	0.6	409	412	14.6	59.5
2025-09-25T14:19	10	125	9.1	100	133	410	0.8	407	411	14.5	58.7
2025-09-25T14:20	10	74	7.3	68	97	402	3.8	397	409	14.1	57.9
2025-09-25T14:21	10	65	1.5	62	68	397	1.0	395	399	14.0	58.6
2025-09-25T14:22	10	62	0.5	61	64	396	0.4	395	397	14.0	60.4
2025-09-25T14:23	10	69	9.0	59	85	397	0.6	396	398	14.0	58.7
2025-09-25T14:24	10	60	0.7	59	61	397	0.3	396	397	14.0	58.1
2025-09-25T14:25	10	62	2.6	60	68	397	0.2	396	397	14.1	57.7
2025-09-25T14:26	10	66	3.0	62	72	396	0.3	396	397	14.1	57.8
2025-09-25T14:27	10	59	2.1	57	67	395	0.8	394	397	14.1	58.7
2025-09-25T14:28	10	63	3.7	57	69	395	0.4	394	396	14.2	57.9
2025-09-25T14:29	10	54	1.7	52	59	395	0.4	394	396	14.2	58.0
2025-09-25T14:30	10	51	0.8	50	52	395	0.2	394	395	14.2	57.6
2025-09-25T14:31	10	49	0.5	48	50	395	0.3	394	396	14.2	58.8
2025-09-25T14:32	10	47	0.6	46	48	395	0.3	394	396	14.2	60.3
2025-09-25T14:33	10	45	0.5	44	46	394	0.5	393	395	14.2	58.9
2025-09-25T14:34	10	44	0.3	43	44	393	0.3	393	394	14.2	57.9
2025-09-25T14:35	10	43	0.1	43	43	393	0.3	393	394	14.3	58.4
2025-09-25T14:36	10	42	0.3	42	43	393	0.3	393	394	14.2	61.5
2025-09-25T14:37	10	41	0.2	41	42	393	0.3	392	393	14.1	59.6
2025-09-25T14:38	10	41	0.2	40	41	392	0.3	392	393	14.1	60.1
2025-09-25T14:39	10	40	0.4	39	40	392	0.3	391	393	14.2	59.6
2025-09-25T14:40	10	38	0.4	37	39	393	0.3	392	393	14.2	59.2
2025-09-25T14:41	10	37	0.4	36	37	390	1.2	388	392	14.1	54.9
2025-09-25T14:42	10	35	0.4	34	36	389	0.3	388	389	14.1	55.1
2025-09-25T14:43	10	34	0.3	34	34	389	0.3	388	389	14.1	55.7
2025-09-25T14:44	10	33	0.3	33	34	389	0.3	388	390	14.1	57.1
2025-09-25T14:45	10	32	0.3	31	33	389	0.3	388	389	14.2	57.2
2025-09-25T14:46	10	31	0.3	31	32	389	0.3	388	389	14.3	58.1
2025-09-25T14:47	10	30	0.2	30	31	389	0.4	388	389	14.3	57.0
2025-09-25T14:48	10	29	0.3	29	30	387	0.2	387	388	14.2	56.7
2025-09-25T14:49	10	29	0.2	28	29	386	0.3	386	387	14.2	55.9
2025-09-25T14:50	10	28	0.2	27	28	387	0.4	386	388	14.2	56.4
2025-09-25T14:51	10	27	0.2	27	28	387	0.6	385	388	14.3	56.2
2025-09-25T14:52	10	27	0.2	26	27	385	0.5	384	386	14.1	55.1
2025-09-25T14:53	10	26	0.1	26	27	384	0.3	384	385	14.1	55.7
2025-09-25T14:54	10	26	0.1	26	26	385	0.4	384	386	14.2	56.8
2025-09-25T14:55	10	26	0.1	25	26	385	0.3	384	385	14.2	57.7
2025-09-25T14:56	10	25	0.2	25	25	384	0.3	384	385	14.1	58.4
2025-09-25T14:57	10	25	0.1	24	25	385	0.3	384	385	14.1	57.6
2025-09-25T14:58	10	24	0.1	24	24	384	0.4	384	385	14.1	57.0
2025-09-25T14:59	10	24	0.1	24	24	384	0.2	383	384	14.1	58.2
2025-09-25T15:00	10	24	0.1	24	24	384	0.3	383	384	14.1	58.2
2025-09-25T15:01	10	24	0.1	24	25	383	0.2	383	383	14.0	57.4
2025-09-25T15:02	10	25	0.2	24	25	383	0.2	383	384	14.0	59.8
2025-09-25T15:03	10	25	0.2	25	26	382	0.2	382	383	13.9	60.4
2025-09-25T15:04	10	26	0.2	26	26	383	0.2	382	383	13.9	61.4
2025-09-25T15:05	10	26	0.1	26	27	383	0.2	382	383	13.9	61.7
2025-09-25T15:06	10	27	0.1	26	27	383	0.2	382	384	13.8	61.9
2025-09-25T15:07	10	26	0.1	26	27	383	0.2	383	384	13.9	62.6
2025-09-25T15:08	10	26	0.2	26	26	383	0.2	382	383	13.9	62.5
2025-09-25T15:09	10	25	0.3	25	26	383	0.2	382	383	13.8	62.5
2025-09-25T15:10	10	24	0.3	24	25	383	0.2	382	383	13.8	62.8
2025-09-25T15:11	10	23	0.3	22	24	382	0.3	381	383	13.8	62.7
2025-09-25T15:12	10	22	0.3	21	23	382	0.2	381	382	13.8	62.7
2025-09-25T15:13	10	21	0.3	20	22	382	0.2	381	382	13.8	63.0
2025-09-25T15:14	10	19	0.4	19	20	381	0.3	381	382	13.7	62.6
2025-09-25T15:15	10	18	0.4	17	19	380	0.3	379	381	13.7	62.8
2025-09-25T15:16	10	17	0.3	16	18	380	0.3	380	381	13.8	64.1
2025-09-25T15:17	10	16	0.3	15	16	380	0.6	378	381	13.7	61.1
2025-09-25T15:18	10	15	0.3	14	15	379	0.3	378	380	13.7	61.9
2025-09-25T15:19	10	14	0.2	13	14	379	0.2	378	379	13.7	62.0
2025-09-25T15:20	10	13	0.2	13	14	378	0.3	378	379	13.6	61.8
2025-09-25T15:21	10	13	0.2	12	13	378	0.3	377	379	13.6	62.4
2025-09-25T15:22	10	12	0.1	12	12	378	0.2	378	379	13.6	62.7
2025-09-25T15:23	10	12	0.1	12	12	378	0.4	378	379	13.6	64.4
2025-09-25T15:24	10	12	0.1	12	12	379	0.2	379	380	13.7	64.5
2025-09-25T15:25	10	12	0.1	12	12	379	0.2	378	379	13.6	64.1
2025-09-25T15:26	10	11	0.1	11	12	377	0.4	376	378	13.4	64.1
2025-09-25T15:27	10	11	0.1	11	11	377	0.2	377	378	13.4	65.1
2025-09-25T15:28	10	11	0.1	11	11	377	0.2	377	378	13.4	66.2
2025-09-25T15:29	10	11	0.1	10	11	376	0.2	376	377	13.3	66.6
2025-09-25T15:30	10	10	0.1	10	11	376	0.2	376	376	13.2	66.9
2025-09-25T15:31	10	10	0.1	10	10	376	0.3	375	376	13.1	66.5
2025-09-25T15:32	10	10	0.1	9	10	375	0.2	375	376	13.0	66.3
2025-09-25T15:33	10	9	0.2	9	10	375	0.2	374	375	12.9	67.2
2025-09-25T15:34	10	9	0.1	9	9	374	0.2	374	375	13.0	67.5
2025-09-25T15:35	10	9	0.1	8	9	375	0.2	374	375	12.9	67.3
2025-09-25T15:36	10	8	0.1	8	8	375	0.2	374	375	13.0	68.2
2025-09-25T15:37	10	8	0.1	8	8	374	0.2	374	375	12.9	66.5
2025-09-25T15:38	10	8	0.1	7	8	374	0.2	373	374	12.9	65.7
2025-09-25T15:39	10	8	0.1	7	8	374	0.3	373	374	12.9	66.1
2025-09-25T15:40	10	8	0.1	7	8	373	0.3	373	374	12.8	65.7
2025-09-25T15:41	10	7	0.1	7	8	373	0.3	372	374	12.8	65.9
2025-09-25T15:42	10	7	0.1	7	8	373	0.2	373	374	12.8	66.2
2025-09-25T15:43	10	7	0.1	7	8	373	0.3	373	374	12.8	66.8
2025-09-25T15:44	10	7	0.1	7	8	373	0.2	373	373	12.8	66.7
2025-09-25T15:45	10	7	0.1	7	8	373	0.3	372	374	12.8	66.4
2025-09-25T15:46	10	8	0.1	7	8	373	0.2	372	373	12.8	66.4
2025-09-25T15:47	10	8	0.1	7	8	373	0.2	372	374	12.7	66.8
2025-09-25T15:48	10	8	0.1	7	8	373	0.2	372	373	12.7	67.0
2025-09-25T15:49	10	8	0.1	8	8	373	0.2	372	373	12.7	66.7
2025-09-25T15:50	10	8	0.1	8	8	373	0.2	373	374	12.7	66.9
2025-09-25T15:51	10	8	0.1	8	8	373	0.2	372	373	12.7	66.9
2025-09-25T15:52	10	8	0.1	8	8	373	0.2	372	373	12.7	66.9
2025-09-25T15:53	10	8	0.1	8	8	373	0.2	372	373	12.7	67.9
2025-09-25T15:54	10	8	0.1	8	8	373	0.2	373	374	12.7	67.7
2025-09-25T15:55	10	8	0.1	8	8	373	0.2	373	374	12.7	67.6
2025-09-25T15:56	10	8	0.1	7	8	373	0.3	373	374	12.7	68.3
2025-09-25T15:57	10	7	0.1	7	8	373	0.2	373	374	12.7	67.1
2025-09-25T15:58	10	7	0.1	7	7	373	0.2	372	373	12.7	66.7
2025-09-25T15:59	10	7	0.1	7	7	373	0.2	372	374	12.7	67.5
2025-09-25T16:00	10	7	0.2	6	7	373	0.2	373	374	12.7	67.0
2025-09-25T16:01	10	7	0.2	6	7	373	0.2	373	374	12.7	68.1
2025-09-25T16:02	10	6	0.2	6	7	373	0.3	372	374	12.6	68.4
2025-09-25T16:03	10	6	0.2	6	7	373	0.2	373	374	12.6	68.8
2025-09-25T16:04	10	6	0.2	6	7	374	0.2	373	374	12.6	69.1
2025-09-25T16:05	10	6	0.2	5	6	373	0.2	373	374	12.6	69.5
2025-09-25T16:06	10	6	0.1	5	6	373	0.3	373	374	12.6	68.7
2025-09-25T16:07	10	5	0.1	5	6	373	0.2	373	374	12.6	69.6
2025-09-25T16:08	10	5	0.1	5	6	373	0.2	373	374	12.6	70.0
2025-09-25T16:09	10	5	0.1	5	6	374	0.2	373	374	12.6	69.9
2025-09-25T16:10	10	5	0.1	5	6	373	0.2	373	374	12.6	69.1
2025-09-25T16:11	10	6	0.1	5	6	373	0.2	373	374	12.6	69.3
2025-09-25T16:12	10	6	0.1	6	6	373	0.2	373	374	12.6	68.9
2025-09-25T16:13	10	6	0.0	6	6	373	0.2	373	373	12.5	68.3
2025-09-25T16:14	10	6	0.1	6	6	373	0.2	372	373	12.5	68.6
2025-09-25T16:15	10	6	0.1	5	6	373	0.2	372	373	12.5	68.7
2025-09-25T16:16	10	6	0.1	5	6	373	0.2	372	373	12.5	68.8
2025-09-25T16:17	10	5	0.1	5	5	372	0.2	372	373	12.5	68.7
2025-09-25T16:18	10	5	0.1	5	5	372	0.2	372	373	12.5	67.7
2025-09-25T16:19	10	5	0.1	4	5	372	0.2	372	372	12.5	67.7
2025-09-25T16:20	10	4	0.1	4	5	372	0.2	372	373	12.5	68.5
2025-09-25T16:21	10	4	0.1	4	4	372	0.2	372	373	12.5	68.5
2025-09-25T16:22	10	4	0.1	4	4	372	0.2	372	373	12.5	69.4
2025-09-25T16:23	10	4	0.1	4	4	372	0.2	372	373	12.5	68.9
2025-09-25T16:24	10	4	0.1	4	4	372	0.3	372	373	12.5	69.0
2025-09-25T16:25	10	4	0.1	3	4	372	0.2	372	373	12.5	69.6
2025-09-25T16:26	10	3	0.1	3	4	372	0.2	372	372	12.5	68.7
2025-09-25T16:27	10	3	0.1	3	3	372	0.2	371	372	12.5	69.6
2025-09-25T16:28	10	3	0.1	3	3	372	0.2	371	372	12.5	70.0
2025-09-25T16:29	10	3	0.1	3	3	372	0.3	371	372	12.4	69.5
2025-09-25T16:30	10	3	0.1	3	3	372	0.2	372	373	12.4	69.9
2025-09-25T16:31	10	3	0.1	2	3	372	0.2	372	372	12.4	69.2
2025-09-25T16:32	10	3	0.1	2	3	372	0.3	372	373	12.4	69.9
2025-09-25T16:33	10	2	0.1	2	2	372	0.2	372	373	12.4	69.9
2025-09-25T16:34	10	2	0.1	2	2	372	0.2	371	372	12.4	70.0
2025-09-25T16:35	10	2	0.1	2	2	372	0.2	371	373	12.4	70.3
2025-09-25T16:36	10	2	0.1	2	2	372	0.2	372	373	12.4	70.2
2025-09-25T16:37	10	2	0.1	1	2	372	0.2	371	372	12.4	69.3
2025-09-25T16:38	10	1	0.1	1	1	372	0.3	371	372	12.4	69.5
2025-09-25T16:39	10	1	0.1	1	1	372	0.2	371	372	12.4	70.0
2025-09-25T16:40	10	1	0.1	1	1	371	0.2	371	372	12.4	68.9
2025-09-25T16:41	10	1	0.1	1	1	371	0.2	371	372	12.4	69.3
2025-09-25T16:42	10	1	0.1	1	1	371	0.2	371	372	12.4	69.7
2025-09-25T16:43	10	1	0.1	1	1	371	0.3	371	372	12.4	70.1
2025-09-25T16:44	10	1	0.1	0	1	371	0.2	371	372	12.3	70.6
2025-09-25T16:45	10	1	0.1	0	1	371	0.2	371	372	12.3	69.4
2025-09-25T16:46	10	0	0.1	0	1	371	0.2	371	372	12.4	69.7
2025-09-25T16:47	10	0	0.1	0	1	371	0.2	370	371	12.4	69.2
2025-09-25T16:48	10	0	0.1	0	1	371	0.2	370	371	12.4	69.4
2025-09-25T16:49	10	0	0.1	0	0	370	0.2	370	371	12.3	69.5
2025-09-25T16:50	10	0	0.1	0	1	370	0.3	370	371	12.3	69.7
2025-09-25T16:51	10	0	0.1	0	0	370	0.2	370	371	12.3	69.4
2025-09-25T16:52	10	0	0.1	0	0	370	0.2	370	371	12.3	70.2
2025-09-25T16:53	10	0	0.1	0	1	370	0.2	370	371	12.3	71.0
2025-09-25T16:54	10	0	0.1	0	0	370	0.2	370	371	12.3	71.3
2025-09-25T16:55	10	0	0.1	0	0	371	0.2	370	371	12.3	70.9
2025-09-25T16:56	10	0	0.1	0	0	371	0.2	370	371	12.2	71.4
2025-09-25T16:57	10	0	0.1	0	0	370	0.2	370	371	12.2	71.7
2025-09-25T16:58	10	0	0.1	0	0	370	0.2	370	371	12.2	71.9
2025-09-25T16:59	10	0	0.1	0	0	370	0.2	370	371	12.1	72.4
2025-09-25T17:00	10	0	0.1	0	0	370	0.3	370	371	12.1	72.8
2025-09-25T17:01	10	0	0.1	0	1	370	0.2	369	370	12.1	72.6
2025-09-25T17:02	10	0	0.1	0	0	370	0.2	369	370	12.1	72.2
2025-09-25T17:03	10	0	0.1	0	0	370	0.2	369	370	12.1	72.9
2025-09-25T17:04	10	0	0.1	0	0	370	0.2	369	370	12.1	73.7
2025-09-25T17:05	10	0	0.1	0	1	370	0.2	369	370	12.0	73.9
2025-09-25T17:06	10	0	0.1	0	0	369	0.2	369	370	11.9	74.8
2025-09-25T17:07	10	0	0.1	0	0	369	0.3	368	369	11.9	75.5
2025-09-25T17:08	10	0	0.1	0	0	369	0.2	368	369	11.8	76.1
2025-09-25T17:09	10	0	0.1	0	0	368	0.2	368	369	11.7	76.8
2025-09-25T17:10	10	0	0.1	0	0	368	0.3	368	369	11.7	77.2
2025-09-25T17:11	10	0	0.1	0	0	368	0.2	367	368	11.6	76.5
2025-09-25T17:12	10	0	0.1	0	0	367	0.3	367	368	11.6	77.3
2025-09-25T17:13	10	0	0.1	0	0	367	0.2	367	367	11.6	78.5
2025-09-25T17:14	10	0	0.1	0	0	367	0.3	366	368	11.5	78.5
2025-09-25T17:15	10	0	0.1	0	0	367	0.3	366	367	11.5	78.1
2025-09-25T17:16	10	0	0.1	0	0	367	0.2	366	367	11.5	79.0
2025-09-25T17:17	10	0	0.1	0	0	367	0.2	366	367	11.4	80.3
2025-09-25T17:18	10	0	0.1	0	0	367	0.2	366	367	11.4	81.0
2025-09-25T17:19	10	0	0.1	0	0	367	0.2	367	368	11.3	81.8
2025-09-25T17:20	10	0	0.1	0	0	367	0.2	366	367	11.3	82.8
2025-09-25T17:21	10	0	0.1	0	0	367	0.4	366	368	11.3	82.6
2025-09-25T17:22	10	0	0.0	0	0	367	0.2	367	368	11.5	77.8
2025-09-25T17:23	10	0	0.0	0	0	367	0.3	366	368	11.6	79.0
2025-09-25T17:24	10	0	0.1	0	0	367	0.3	367	368	11.5	78.8
2025-09-25T17:25	10	0	0.1	0	0	367	0.2	367	368	11.6	77.3
2025-09-25T17:26	10	0	0.1	0	0	367	0.2	367	368	11.6	76.6
2025-09-25T17:27	10	0	0.0	0	0	367	0.2	367	368	11.7	75.6
2025-09-25T17:28	10	0	0.1	0	0	367	0.2	366	367	11.6	76.5
2025-09-25T17:29	10	0	0.1	0	0	367	0.2	367	368	11.6	77.1
2025-09-25T17:30	10	0	0.1	0	0	367	0.2	366	367	11.6	78.3
2025-09-25T17:31	10	0	0.1	0	0	367	0.2	366	367	11.4	80.2
2025-09-25T17:32	10	0	0.1	-1	0	366	0.2	366	367	11.3	80.7
2025-09-25T17:33	10	0	0.1	-1	0	367	0.3	366	367	11.3	80.2
2025-09-25T17:34	10	0	0.1	-1	0	366	0.2	366	367	11.2	81.9
2025-09-25T17:35	10	-1	0.1	-1	0	366	0.2	366	367	11.2	82.3
2025-09-25T17:36	10	-1	0.0	-1	0	366	0.2	366	366	11.1	81.8
2025-09-25T17:37	10	-1	0.1	-1	0	366	0.2	365	366	11.1	81.8
2025-09-25T17:38	10	-1	0.1	-1	0	366	0.2	365	367	11.1	82.3
2025-09-25T17:39	10	0	0.1	-1	0	366	0.2	366	366	11.1	82.6
2025-09-25T17:40	10	0	0.1	-1	0	366	0.2	365	366	11.1	83.0
2025-09-25T17:41	10	-1	0.1	-1	0	366	0.3	365	366	11.0	83.4
2025-09-25T17:42	10	-1	0.1	-1	0	366	0.2	365	366	11.0	83.4
2025-09-25T17:43	10	-1	0.1	-1	0	366	0.2	365	366	11.0	82.6
2025-09-25T17:44	10	-1	0.1	-1	0	366	0.2	365	366	11.0	82.8
2025-09-25T17:45	10	-1	0.1	-1	0	365	0.2	365	366	10.9	83.4
2025-09-25T17:46	10	-1	0.1	-1	0	365	0.2	365	366	10.9	82.9
2025-09-25T17:47	10	-1	0.0	-1	-1	365	0.2	364	365	10.9	81.4
2025-09-25T17:48	10	-1	0.1	-1	0	365	0.2	364	365	10.9	82.1
2025-09-25T17:49	10	-1	0.1	-1	0	365	0.2	364	366	10.9	81.7
2025-09-25T17:50	10	-1	0.0	-1	0	365	0.2	364	365	10.9	81.7
2025-09-25T17:51	10	-1	0.1	-1	0	364	0.2	364	365	10.8	82.6
2025-09-25T17:52	10	-1	0.1	-1	0	364	0.2	364	365	10.8	82.7
2025-09-25T17:53	10	-1	0.1	-1	0	364	0.2	364	365	10.8	82.8
2025-09-25T17:54	10	-1	0.1	-1	0	365	0.3	364	365	10.8	82.9
2025-09-25T17:55	10	-1	0.1	-1	0	364	0.2	364	365	10.7	82.9
2025-09-25T17:56	10	-1	0.1	-1	0	364	0.2	364	365	10.7	83.0
2025-09-25T17:57	10	-1	0.1	-1	0	364	0.2	364	365	10.7	84.0
2025-09-25T17:58	10	-1	0.0	-1	0	364	0.2	363	365	10.7	84.8
2025-09-25T17:59	10	-1	0.0	-1	0	364	0.2	364	365	10.6	85.1
2025-09-25T18:00	10	-1	0.1	-1	0	364	0.2	364	365	10.6	84.4
2025-09-25T18:01	10	0	0.1	-1	0	364	0.2	363	364	10.6	84.5
2025-09-25T18:02	10	0	0.1	-1	0	364	0.2	363	364	10.6	85.4
2025-09-25T18:03	10	0	0.1	-1	0	364	0.2	363	364	10.5	85.7
2025-09-25T18:04	10	-1	0.1	-1	0	363	0.2	363	364	10.5	85.3
2025-09-25T18:05	10	-1	0.1	-1	0	363	0.2	363	364	10.5	84.8
2025-09-25T18:06	10	-1	0.1	-1	0	363	0.2	363	364	10.5	85.4
2025-09-25T18:07	10	-1	0.1	-1	0	363	0.2	363	364	10.5	85.0
2025-09-25T18:08	10	-1	0.1	-1	0	363	0.2	363	364	10.5	85.3
2025-09-25T18:09	10	-1	0.0	-1	0	363	0.3	363	364	10.5	84.6
2025-09-25T18:10	10	-1	0.1	-1	0	363	0.2	363	363	10.5	84.3
2025-09-25T18:11	10	0	0.1	-1	0	363	0.2	363	363	10.6	83.4
2025-09-25T18:12	10	-1	0.1	-1	0	363	0.2	362	363	10.6	84.2
2025-09-25T18:13	10	0	0.1	-1	0	363	0.2	363	364	10.5	83.6
2025-09-25T18:14	10	0	0.1	-1	0	363	0.2	362	363	10.6	84.2
2025-09-25T18:15	10	-1	0.1	-1	0	363	0.3	362	363	10.6	82.8
2025-09-25T18:16	10	-1	0.1	-1	0	363	0.2	362	363	10.6	82.6
2025-09-25T18:17	10	-1	0.1	-1	0	362	0.2	362	363	10.6	83.2
2025-09-25T18:18	10	0	0.1	-1	0	363	0.3	362	363	10.6	82.1
2025-09-25T18:19	10	0	0.1	-1	0	363	0.2	362	363	10.6	81.9
2025-09-25T18:20	10	0	0.1	-1	0	362	0.3	362	363	10.7	81.0
2025-09-25T18:21	10	0	0.1	-1	0	362	0.2	362	363	10.7	81.2
2025-09-25T18:22	10	0	0.1	-1	0	362	0.3	361	362	10.7	81.6
2025-09-25T18:23	10	0	0.1	-1	0	362	0.3	361	363	10.7	81.5
2025-09-25T18:24	10	0	0.1	-1	0	362	0.3	361	362	10.7	80.8
2025-09-25T18:25	10	0	0.1	-1	0	361	0.2	361	362	10.7	81.6
2025-09-25T18:26	10	0	0.1	-1	0	361	0.2	361	362	10.7	80.9
2025-09-25T18:27	10	0	0.1	-1	0	362	0.3	361	362	10.7	81.6
2025-09-25T18:28	10	0	0.1	-1	0	361	0.2	361	362	10.7	81.5
2025-09-25T18:29	10	-1	0.1	-1	0	361	0.2	361	362	10.6	82.8
2025-09-25T18:30	10	0	0.1	-1	0	361	0.2	361	362	10.6	83.5
2025-09-25T18:31	10	0	0.1	-1	0	361	0.2	361	362	10.6	83.3
2025-09-25T18:32	10	0	0.1	0	0	361	0.2	361	362	10.6	83.0
2025-09-25T18:33	10	0	0.1	-1	0	361	0.2	361	362	10.6	83.0
2025-09-25T18:34	10	0	0.1	-1	0	361	0.1	361	362	10.6	83.4
2025-09-25T18:35	10	0	0.1	-1	0	362	0.2	361	362	10.6	83.8
2025-09-25T18:36	10	0	0.1	-1	0	362	0.2	361	362	10.5	83.6
2025-09-25T18:37	10	0	0.1	-1	0	362	0.2	361	362	10.5	84.4
2025-09-25T18:38	10	0	0.1	-1	0	362	0.2	362	363	10.5	85.2
2025-09-25T18:39	10	0	0.1	-1	0	363	0.2	362	363	10.5	85.0
2025-09-25T18:40	10	0	0.1	-1	0	363	0.2	362	363	10.4	85.8
2025-09-25T18:41	10	0	0.1	-1	0	363	0.2	363	363	10.5	85.7
2025-09-25T18:42	10	0	0.1	-1	0	363	0.2	363	363	10.5	85.7
2025-09-25T18:43	10	0	0.0	0	0	363	0.2	363	364	10.5	86.2
2025-09-25T18:44	10	0	0.1	0	0	363	0.3	363	364	10.4	86.0
2025-09-25T18:45	10	0	0.1	0	0	364	0.2	363	364	10.5	85.4
2025-09-25T18:46	10	0	0.1	0	0	364	0.2	363	364	10.5	85.7
2025-09-25T18:47	10	0	0.1	0	0	364	0.2	363	365	10.5	84.5
2025-09-25T18:48	10	0	0.1	0	0	364	0.2	364	365	10.6	85.2
2025-09-25T18:49	10	0	0.1	0	0	364	0.2	364	365	10.6	83.5
2025-09-25T18:50	10	0	0.1	0	0	364	0.2	364	365	10.7	83.3
2025-09-25T18:51	10	0	0.1	0	0	364	0.3	364	365	10.6	84.0
2025-09-25T18:52	10	0	0.1	0	0	364	0.3	364	365	10.6	84.5
2025-09-25T18:53	10	0	0.1	0	0	364	0.2	364	365	10.6	84.5
2025-09-25T18:54	10	0	0.0	0	0	364	0.2	364	365	10.6	85.0
2025-09-25T18:55	10	0	0.1	0	0	364	0.2	364	365	10.6	84.8
2025-09-25T18:56	10									10.6	85.0
2025-09-25T18:57	10									10.6	58.8
2025-09-25T18:58	10									10.4	83.3
2025-09-25T18:59	10									10.5	67.2
2025-09-25T19:00	10									10.5	57.9
2025-09-25T19:07	10									10.7	84.3
2025-09-25T19:08	10									10.7	83.0
2025-09-25T19:09	10									10.7	83.3
2025-09-25T19:10	10									10.7	83.6
2025-09-25T19:11	10									10.7	83.1
2025-09-25T19:12	10									10.8	81.3
2025-09-25T19:13	10									10.8	82.0
2025-09-25T19:14	10									10.7	69.9
2025-09-25T19:15	10									10.8	72.7
2025-09-25T19:16	10										82.2
2025-09-25T19:17	10									10.8	79.2
2025-09-25T19:18	10									10.8	82.3
2025-09-25T19:19	10									10.8	82.1
2025-09-25T19:20	10									10.8	79.3
2025-09-25T19:28	10									10.8	81.4
2025-09-25T19:29	10									10.8	81.7
2025-09-25T19:30	10									10.8	66.2
2025-09-25T19:31	10									10.7	82.6
2025-09-25T19:32	10									10.8	82.0
2025-09-25T19:33	10									10.7	63.4
2025-09-25T19:34	10									10.7	81.5
2025-09-25T20:20	10									10.8	86.7
2025-09-25T20:21	10									10.7	73.3
2025-09-25T20:22	10									10.8	87.2
2025-09-25T20:23	10									10.8	86.3
2025-09-25T20:24	10									10.8	85.6
2025-09-25T20:25	10									10.9	85.4
2025-09-25T20:26	10									10.9	85.3
2025-09-25T20:29	10									10.9	84.2
2025-09-25T20:30	10									10.7	68.4
2025-09-25T20:31	10									10.8	86.1
2025-09-25T20:32	10									10.8	85.8
2025-09-25T20:33	10									10.8	85.5
2025-09-25T20:42	10									10.7	81.0
2025-09-25T20:43	10										86.2
2025-09-25T20:47	10									10.8	88.2
2025-09-25T20:48	10									10.8	87.6
2025-09-25T20:49	10									10.8	85.2
2025-09-25T20:50	10									10.8	87.7
2025-09-25T20:51	10									10.8	86.1
2025-09-25T20:52	10									10.7	71.2
2025-09-25T20:53	10									10.8	88.3
2025-09-25T20:54	10									10.8	88.2
2025-09-25T20:55	10									10.8	88.4
2025-09-25T20:56	10									10.7	88.4
2025-09-25T20:57	10									10.7	87.8
2025-09-25T20:58	10									10.8	85.0
2025-09-25T20:59	10									10.8	87.5
2025-09-25T21:00	10									10.8	87.0
2025-09-25T21:01	10									10.8	87.3
2025-09-25T21:02	10									10.8	87.6
2025-09-25T21:03	10									10.8	87.8
2025-09-25T21:04	10									10.8	47.1
2025-09-25T21:05	10									10.4	50.0
2025-09-25T21:06	10									10.8	87.1
2025-09-25T21:07	10									10.8	87.4
2025-09-25T21:08	10									10.8	87.3
2025-09-25T21:10	10									10.6	53.0
2025-09-25T21:11	10									10.8	87.5
2025-09-25T21:16	10									10.8	87.1
2025-09-25T21:17	10									10.8	86.7
2025-09-25T21:18	10									10.8	55.6
2025-09-25T21:31	10									10.8	88.5
2025-09-25T21:32	10										88.6
2025-09-25T21:33	10									10.8	59.4
2025-09-25T21:34	10									10.7	84.6
2025-09-25T21:36	10									10.7	88.9
2025-09-25T21:42	10										84.7
2025-09-25T21:43	10									10.8	87.4
2025-09-25T21:44	10										87.6
2025-09-25T21:57	10									10.7	88.6
2025-09-25T21:58	10									10.7	88.7
2025-09-25T21:59	10									10.7	88.8
2025-09-25T22:01	10									10.7	89.2
2025-09-25T22:02	10									10.7	89.7
2025-09-25T22:03	10										89.9
2025-09-25T22:04	10									10.6	89.0
2025-09-25T22:05	10									10.7	87.4
2025-09-25T22:06	10									10.7	88.7
2025-09-25T22:07	10										88.4
2025-09-25T22:18	10									10.7	
2025-09-25T22:19	10									10.6	84.2
2025-09-25T22:21	10									10.7	64.9
2025-09-25T22:22	10									10.6	88.6
2025-09-25T22:23	10									10.6	88.6
2025-09-25T22:24	10									10.6	88.4
2025-09-25T22:25	10									10.6	85.6
2025-09-25T22:26	10									10.6	85.0
2025-09-25T22:27	10									10.7	87.7
2025-09-25T22:31	10									10.7	87.8
2025-09-25T22:32	10									10.6	87.9
2025-09-25T22:33	10									10.6	88.0
2025-09-25T22:41	10									10.6	87.9
2025-09-25T22:42	10									10.6	88.3
2025-09-25T22:43	10									10.6	88.7
2025-09-25T22:44	10									10.5	46.7
2025-09-25T22:45	10									10.6	89.1
2025-09-25T23:23	10									10.5	90.3
2025-09-26T00:29	10									10.1	92.0
2025-09-26T00:30	10									10.1	92.3
2025-09-26T00:31	10									10.1	92.5
2025-09-26T00:32	10									10.1	91.3
2025-09-26T00:33	10									10.1	69.3
2025-09-26T00:34	10									10.1	92.4
2025-09-26T00:37	10									10.1	92.6
2025-09-26T00:41	10									10.0	92.9
2025-09-26T00:42	10									9.9	66.8
2025-09-26T00:43	10									9.9	92.2
2025-09-26T00:44	10									10.0	89.0
2025-09-26T00:45	10									9.9	92.2
2025-09-26T00:50	10									9.7	77.2
2025-09-26T00:51	10									9.9	91.7
2025-09-26T00:52	10									9.4	82.9
2025-09-26T00:53	10									9.9	91.4
2025-09-26T00:54	10									9.9	91.7
2025-09-26T00:58	10									9.9	91.2
2025-09-26T00:59	10									9.8	75.8
2025-09-26T01:00	10									9.9	80.7
2025-09-26T01:01	10									9.8	90.8
2025-09-26T01:19	10									9.8	91.6
2025-09-26T01:20	10									9.7	92.0
2025-09-26T01:21	10									9.7	91.9
2025-09-26T01:22	10									9.8	87.9
2025-09-26T01:23	10									9.8	91.5
2025-09-26T01:24	10									9.7	70.8
2025-09-26T01:25	10									9.7	92.3
2025-09-26T01:26	10									9.7	79.2
2025-09-26T01:27	10									9.7	92.1
2025-09-26T01:28	10									9.7	90.5
2025-09-26T01:29	10									9.6	76.6
2025-09-26T01:30	10									9.7	92.4
2025-09-26T01:31	10									9.7	48.8
2025-09-26T01:32	10									9.7	81.3
2025-09-26T01:33	10									9.7	91.9
2025-09-26T01:34	10									9.7	82.0
2025-09-26T01:35	10									9.7	82.4
2025-09-26T01:36	10									9.7	72.8
2025-09-26T01:38	10									9.6	89.8
2025-09-26T01:39	10									9.4	65.6
2025-09-26T01:40	10									9.5	94.4
2025-09-26T01:41	10									9.4	94.5
2025-09-26T01:42	10									9.4	87.2
2025-09-26T01:43	10									9.4	72.9
2025-09-26T01:44	10									9.5	94.1
2025-09-26T01:45	10									9.5	93.5
2025-09-26T01:46	10									9.5	83.9
2025-09-26T01:47	10									9.5	91.0
2025-09-26T01:48	10									9.5	93.8
2025-09-26T01:49	10									9.5	93.9
2025-09-26T01:51	10									9.4	94.7
2025-09-26T01:52	10									9.4	94.8
2025-09-26T01:53	10									9.4	94.9
2025-09-26T01:54	10									9.4	94.8
2025-09-26T01:55	10									9.4	94.9
2025-09-26T01:56	10									9.4	93.6
2025-09-26T01:57	10									9.4	95.0
2025-09-26T01:58	10									9.3	83.0
2025-09-26T01:59	10									9.3	95.2
2025-09-26T02:00	10									9.3	95.5
2025-09-26T02:01	10										95.6
2025-09-26T02:02	10									9.1	75.6
2025-09-26T02:03	10									9.1	96.3
2025-09-26T02:04	10									9.1	96.5
2025-09-26T02:05	10									9.1	93.8
2025-09-26T02:06	10									9.1	76.4
2025-09-26T02:07	10									9.2	92.4
2025-09-26T02:08	10									9.2	55.6
2025-09-26T02:09	10									9.1	96.5
2025-09-26T02:10	10									9.0	86.6
2025-09-26T02:11	10									9.0	73.1
2025-09-26T02:12	10									9.0	96.9
2025-09-26T02:13	10									9.0	96.7
2025-09-26T02:14	10									9.1	92.4
2025-09-26T02:15	10									9.1	95.9
2025-09-26T02:16	10									9.1	95.8
2025-09-26T02:17	10									9.1	96.0
2025-09-26T02:18	10									9.1	96.1
2025-09-26T02:19	10									9.1	96.3
2025-09-26T02:20	10									9.1	96.4
2025-09-26T02:21	10									9.0	96.5
2025-09-26T02:22	10									8.9	83.3
2025-09-26T02:23	10									8.9	81.5
2025-09-26T02:24	10									8.9	95.5
2025-09-26T02:25	10									8.9	96.9
2025-09-26T02:26	10									8.9	96.7
2025-09-26T02:27	10									8.9	96.8
2025-09-26T02:28	10									8.9	95.4
2025-09-26T02:29	10									8.9	78.3
2025-09-26T02:31	10									8.9	97.0
2025-09-26T02:32	10									8.9	95.3
2025-09-26T02:33	10									8.9	97.0
2025-09-26T02:34	10									8.9	97.5
2025-09-26T02:35	10									8.8	70.7
2025-09-26T02:36	10									8.9	91.8
2025-09-26T02:37	10									8.6	88.4
2025-09-26T02:38	10									8.8	97.3
2025-09-26T02:39	10									8.7	92.5
2025-09-26T02:40	10									8.8	97.2
2025-09-26T02:41	10									8.8	97.0
2025-09-26T02:42	10									8.8	79.3
2025-09-26T02:43	10									8.8	82.6
2025-09-26T02:44	10									8.8	96.6
2025-09-26T02:45	10									8.8	93.7
2025-09-26T02:46	10									8.8	96.7
2025-09-26T02:47	10									8.8	96.6
2025-09-26T02:48	10									8.8	96.5
2025-09-26T02:49	10									8.8	94.9
2025-09-26T02:50	10									8.8	94.6
2025-09-26T02:51	10	0	0.1	-1	0	354	0.3	354	355	8.8	96.4
2025-09-26T02:52	10	0	0.1	-1	0	354	0.2	354	355	8.9	96.5
2025-09-26T02:53	10	0	0.2	-1	0	355	0.3	354	355	8.9	96.6
2025-09-26T02:54	10										96.7
2025-09-27T08:51	10									11.2	87.9
2025-09-27T08:52	10	62	10.7	12	65	375	1.9	366	376	11.1	78.3
2025-09-27T08:53	10	66	0.4	65	67	381	0.4	380	381	10.9	85.4
2025-09-27T08:54	10	68	0.6	67	69	380	0.5	379	381	10.9	85.2
2025-09-27T08:55	10	70	0.7	69	71	381	0.6	380	382	10.8	85.6
2025-09-27T08:56	10	73	1.3	71	75	383	1.0	381	385	10.9	86.4
2025-09-27T08:57	10	74	0.2	74	74	384	0.2	384	385	11.1	86.3
2025-09-27T08:58	10	78	3.3	74	87	383	0.5	382	384	11.0	83.2
2025-09-27T08:59	10	89	4.4	83	96	383	0.7	382	384	10.9	83.3
2025-09-27T09:00	10	84	2.1	82	90	382	0.5	382	383	10.9	83.3
2025-09-27T09:01	10	111	14.3	91	141	384	1.0	382	386	11.0	83.9
2025-09-27T09:02	10	151	7.6	138	162	387	2.2	385	391	11.0	82.8
2025-09-27T09:03	10	134	5.5	124	144	391	0.4	390	392	11.1	83.1
2025-09-27T09:04	10	160	3.0	141	162	392	1.1	390	394	11.0	81.5
2025-09-27T09:05	10	159	0.1	159	159	393	0.3	393	394	11.2	81.7
2025-09-27T09:06	10	159	0.2	159	160	395	0.8	394	397	11.4	82.2
2025-09-27T09:07	10	160	0.3	159	160	396	1.3	394	398	11.3	81.9
2025-09-27T09:08	10	160	0.7	159	161	398	0.5	398	399	11.7	82.4
2025-09-27T09:09	10	162	0.6	161	163	397	1.1	396	399	11.7	80.5
2025-09-27T09:10	10	165	0.5	164	166	399	0.7	397	400	11.8	79.9
2025-09-27T09:11	10	164	2.7	159	166	399	0.3	399	400	11.9	78.8
2025-09-27T09:12	10	155	14.9	122	169	399	0.9	397	400	11.8	78.2
2025-09-27T09:13	10	175	1.9	170	178	401	1.5	399	403	11.8	78.4
2025-09-27T09:14	10	171	13.7	137	184	402	0.6	401	403	11.7	78.7
2025-09-27T09:15	10	85	25.1	64	136	396	4.1	392	403	12.2	81.4
2025-09-27T09:16	10	77	12.2	64	97	392	1.2	390	394	12.0	79.3
2025-09-27T09:17	10	57	1.6	55	64	387	1.3	386	391	11.7	78.9
2025-09-27T09:18	10	53	0.7	52	54	385	1.1	383	387	11.6	78.8
2025-09-27T09:19	10	59	4.5	52	66	384	0.4	383	384	11.5	79.4
2025-09-27T09:20	10	60	13.3	52	98	383	0.7	382	385	11.6	81.9
2025-09-27T09:21	10	157	17.2	105	167	393	5.1	383	398	11.7	82.4
2025-09-27T09:22	10	165	0.2	165	165	399	0.5	397	399	11.9	83.1
2025-09-27T09:23	10	165	0.7	163	165	400	0.4	399	401	11.8	82.5
2025-09-27T09:24	10	161	0.8	160	163	402	1.0	400	403	11.9	83.1
2025-09-27T09:25	10	159	0.6	158	160	402	0.7	400	403	12.0	81.9
2025-09-27T09:26	10	157	0.6	156	158	402	1.1	400	404	12.3	81.5
2025-09-27T09:27	10	156	0.2	155	156	400	0.8	398	401	12.4	77.8
2025-09-27T09:28	10	156	0.1	156	156	399	0.5	398	400	12.2	75.7
2025-09-27T09:29	10	155	0.5	154	156	399	0.5	398	400	12.1	76.2
2025-09-27T09:30	10	153	0.6	152	154	399	0.9	398	401	12.0	76.7
2025-09-27T09:31	10	152	0.2	152	153	400	1.2	398	401	12.2	77.3
2025-09-27T09:32	10	152	0.2	152	153	400	0.8	398	401	12.0	76.4
2025-09-27T09:33	10	152	0.1	152	152	401	0.3	401	402	12.0	76.1
2025-09-27T09:34	10	153	0.3	152	154	399	0.5	399	402	12.0	76.1
2025-09-27T09:35	10	154	0.4	153	155	402	1.4	400	404	12.0	77.8
2025-09-27T09:36	10	155	0.3	155	156	404	0.6	403	405	12.1	78.0
2025-09-27T09:37	10	156	0.3	156	157	405	0.4	404	406	12.3	78.8
2025-09-27T09:38	10	157	0.2	156	157	405	0.6	404	407	12.5	79.3
2025-09-27T09:39	10	157	0.5	156	157	404	0.7	402	406	12.4	78.2
2025-09-27T09:40	10	154	1.3	152	156	402	0.6	401	404	12.3	79.0
2025-09-27T09:41	10	150	0.8	149	152	402	1.0	401	404	12.7	80.1
2025-09-27T09:42	10	148	0.2	148	149	398	0.5	397	399	12.3	76.1
2025-09-27T09:43	10	147	0.2	147	148	398	0.3	398	399	12.1	77.6
2025-09-27T09:44	10	147	0.1	147	147	399	0.7	397	400	12.2	78.0
2025-09-27T09:45	10	148	0.5	148	149	400	0.7	399	401	12.0	77.0
2025-09-27T09:46	10									12.2	78.4
2025-09-27T11:07	10									13.9	73.5
2025-09-27T11:08	10									13.7	63.2
2025-09-27T11:09	10									13.7	56.8
2025-09-27T11:10	10									13.4	70.4
2025-09-27T11:11	10									12.8	70.6
2025-09-27T11:14	10									12.7	70.7
2025-09-27T11:15	10	71	38.9	51	150	387	2.5	386	404	12.7	71.4
2025-09-27T11:16	10	54	0.9	53	55	387	0.2	386	387	12.8	71.3
2025-09-27T11:17	10	57	0.5	55	57	386	0.4	386	387	12.8	70.3
2025-09-27T11:18	10	56	0.9	54	57	387	0.2	386	387	12.8	69.6
2025-09-27T11:19	10	52	0.8	52	54	387	0.3	386	387	12.8	69.9
2025-09-27T11:20	10	52	0.4	51	53	386	0.2	386	387	13.0	70.7
2025-09-27T11:21	10	54	1.4	52	58	385	0.3	385	386	12.9	69.9
2025-09-27T11:22	10	83	23.6	58	134	387	2.8	384	394	12.8	70.2
2025-09-27T11:23	10	170	19.9	134	190	399	5.1	391	408	13.0	71.1
2025-09-27T11:24	10	154	26.7	117	190	406	1.9	402	408	13.2	70.6
2025-09-27T11:25	10	148	24.5	115	178	403	1.8	400	407	13.1	68.8
2025-09-27T11:26	10	159	32.0	73	180	408	2.0	403	410	13.2	69.9
2025-09-27T11:27	10	50	6.5	43	70	396	3.7	392	405	13.1	67.7
2025-09-27T11:28	10	41	0.5	41	43	390	1.0	389	394	13.2	68.2
2025-09-27T11:29	10	41	0.6	41	42	389	0.5	388	390	13.2	68.9
2025-09-27T11:30	10	44	0.7	43	45	387	0.6	386	388	13.1	69.4
2025-09-27T11:31	10	52	10.1	45	80	386	0.7	386	388	13.0	68.0
2025-09-27T11:32	10	182	16.0	95	189	402	5.7	386	410	13.1	68.3
2025-09-27T11:33	10	190	1.1	188	191	411	2.3	408	415	13.3	67.6
2025-09-27T11:34	10	192	0.3	191	192	415	0.8	413	416	13.5	69.1
2025-09-27T11:35	10	194	0.5	192	194	414	0.5	414	416	13.7	69.7
2025-09-27T11:36	10	195	0.2	194	195	414	0.4	413	415	13.8	68.3
2025-09-27T11:37	10	193	0.8	192	195	416	0.5	415	417	13.6	67.6
2025-09-27T11:38	10	192	0.6	191	193	418	1.2	416	420	13.7	67.6
2025-09-27T11:39	10	151	40.6	86	193	417	4.6	407	421	14.1	70.2
2025-09-27T11:40	10	85	5.1	67	92	405	3.0	399	410	13.8	69.3
2025-09-27T11:41	10	50	5.0	45	65	395	3.4	390	402	13.3	69.0
2025-09-27T11:42	10	42	1.6	40	45	391	1.2	389	392	13.2	68.8
2025-09-27T11:43	10	37	1.4	35	40	388	1.0	386	390	13.2	68.9
2025-09-27T11:44	10	35	0.2	35	35	386	0.7	384	387	13.1	68.3
2025-09-27T11:45	10	36	0.8	35	38	384	0.3	384	385	13.2	68.3
2025-09-27T11:46	10	39	0.3	38	39	384	0.3	383	384	13.1	67.3
2025-09-27T11:47	10	38	0.3	37	39	384	0.4	383	385	13.2	67.9
2025-09-27T11:48	10	38	0.4	37	39	384	0.3	383	384	13.3	67.8
2025-09-27T11:49	10	40	0.5	39	40	383	0.3	383	384	13.2	65.5
2025-09-27T11:50	10	41	0.5	40	42	384	0.5	383	385	13.2	67.6
2025-09-27T11:51	10	42	0.5	41	43	384	0.3	383	385	13.3	67.3
2025-09-27T11:52	10	43	0.3	43	44	384	0.4	383	385	13.3	67.3
2025-09-27T11:53	10	46	1.4	44	49	385	0.3	384	386	13.3	67.7
2025-09-27T11:54	10	60	9.9	49	83	387	1.0	385	389	13.4	67.4
2025-09-27T11:55	10	137	28.8	92	185	393	6.5	386	405	13.4	65.4
2025-09-27T11:56	10	107	20.0	87	170	403	2.0	400	406	13.5	65.2
2025-09-27T11:57	10	110	15.1	94	141	402	1.0	400	403	13.7	65.4
2025-09-27T11:58	10	104	26.9	81	149	402	2.8	398	406	13.6	68.0
2025-09-27T11:59	10	118	21.2	87	144	402	1.8	398	404	13.7	70.1
2025-09-27T12:00	10	83	1.8	81	87	399	1.7	397	403	13.8	68.1
2025-09-27T12:01	10	81	1.8	80	85	398	0.5	397	399	13.7	68.2
2025-09-27T12:02	10	81	1.0	80	83	398	0.3	397	398	13.7	67.8
2025-09-27T12:03	10	78	0.9	76	80	398	0.2	398	399	13.6	67.1
2025-09-27T12:04	10	76	0.3	76	77	398	0.6	396	399	13.6	67.6
2025-09-27T12:05	10	75	1.4	72	77	398	0.4	397	399	13.6	67.4
2025-09-27T12:06	10	72	0.3	71	72	398	0.3	398	399	13.7	67.2
2025-09-27T12:07	10	71	0.1	71	71	398	0.4	398	399	13.9	68.7
2025-09-27T12:08	10	71	0.2	70	71	397	0.6	396	398	13.9	67.6
2025-09-27T12:09	10	72	0.4	70	72	397	0.2	397	397	13.9	65.9
2025-09-27T12:10	10	75	2.6	72	80	397	0.4	396	398	13.9	66.2
2025-09-27T12:11	10	79	2.7	76	83	397	0.4	396	398	13.9	64.0
2025-09-27T12:12	10	75	1.8	73	81	396	0.6	395	398	13.9	63.8
2025-09-27T12:13	10	74	0.2	74	74	397	0.5	396	399	14.0	65.5
2025-09-27T12:14	10	75	0.3	74	75	398	0.4	397	399	14.1	65.9
2025-09-27T12:15	10	74	0.3	74	75	397	0.4	396	398	14.2	65.7
2025-09-27T12:16	10	73	0.4	73	74	396	0.3	395	397	14.0	64.6
2025-09-27T12:17	10	72	0.2	72	73	397	0.2	396	397	14.0	65.2
2025-09-27T12:18	10	73	0.9	72	76	396	0.8	394	397	13.9	66.2
2025-09-27T12:19	10	91	10.4	76	106	397	1.8	394	400	13.8	65.3
2025-09-27T12:20	10	83	1.3	81	86	399	0.5	398	400	13.8	66.4
2025-09-27T12:21	10	82	1.3	80	84	398	0.2	397	398	13.9	66.6
2025-09-27T12:22	10	86	2.1	83	89	398	0.5	397	399	14.0	65.6
2025-09-27T12:23	10	85	1.2	84	89	399	0.5	398	400	13.8	65.2
2025-09-27T12:24	10	84	0.1	84	85	399	0.5	398	400	13.9	66.3
2025-09-27T12:25	10	84	0.4	83	84	399	0.4	398	399	14.0	66.4
2025-09-27T12:26	10	83	0.1	83	83	399	0.4	398	399	14.1	66.1
2025-09-27T12:27	10	83	0.3	83	84	399	0.5	398	400	14.1	65.8
2025-09-27T12:28	10	85	0.9	84	87	399	0.7	398	400	14.1	64.7
2025-09-27T12:29	10	90	1.8	87	93	398	0.4	398	399	13.9	63.9
2025-09-27T12:30	10	97	1.5	93	99	399	0.3	399	400	13.9	65.0
2025-09-27T12:31	10	101	0.8	99	102	399	0.5	398	400	13.8	63.6
2025-09-27T12:32	10	98	0.5	97	99	401	0.7	400	402	13.8	65.3
2025-09-27T12:33	10	112	12.2	97	137	401	0.5	400	402	14.0	66.5
2025-09-27T12:34	10	161	20.7	134	198	406	2.6	401	409	13.8	66.6
2025-09-27T12:35	10	136	11.6	121	157	407	0.8	406	409	13.9	67.1
2025-09-27T12:36	10	130	8.3	120	150	408	0.5	407	409	14.1	68.3
2025-09-27T12:37	10	122	19.5	101	148	406	1.5	404	409	14.0	65.4
2025-09-27T12:38	10	118	15.8	104	151	406	1.0	404	408	13.9	65.8
2025-09-27T12:39	10	103	6.9	97	119	403	0.9	401	405	13.9	65.8
2025-09-27T12:40	10	105	9.5	96	121	403	0.9	401	404	13.8	64.5
2025-09-27T12:41	10	117	6.2	102	132	405	1.3	402	407	13.8	65.4
2025-09-27T12:42	10	145	20.5	119	179	407	1.3	406	410	14.0	65.6
2025-09-27T12:43	10	186	21.1	142	212	411	3.6	405	417	14.0	65.4
2025-09-27T12:44	10	181	12.9	168	214	415	1.0	413	417	14.3	65.8
2025-09-27T12:45	10	185	46.6	99	220	418	2.9	411	422	14.3	64.7
2025-09-27T12:46	10	101	7.4	89	116	410	1.8	406	414	14.1	64.4
2025-09-27T12:47	10	88	2.5	86	98	406	0.8	405	408	14.2	65.0
2025-09-27T12:48	10	174	36.1	100	205	412	5.4	404	420	14.6	66.8
2025-09-27T12:49	10	188	11.4	158	205	418	0.9	416	420	14.7	64.7
2025-09-27T12:50	10	138	25.6	106	199	412	2.3	409	418	14.5	63.9
2025-09-27T12:51	10	119	47.9	79	205	409	4.5	403	415	14.4	64.7
2025-09-27T12:52	10	179	28.4	114	200	409	3.2	403	413	14.2	64.6
2025-09-27T12:53	10	90	51.6	58	197	404	4.0	399	415	14.3	64.2
2025-09-27T12:54	10	56	0.9	55	58	399	1.5	396	401	14.3	65.4
2025-09-27T12:55	10	54	0.6	53	55	394	1.9	393	397	14.2	64.3
2025-09-27T12:56	10	53	0.0	53	53	394	0.0	394	394	14.1	63.7
2025-09-27T12:57	10	51	0.4	50	52	392	0.4	391	393	14.0	64.3
2025-09-27T12:58	10	48	1.3	47	50	391	1.1	390	392	14.0	63.2
2025-09-27T12:59	10	46	0.6	45	46	390	0.1	389	390	13.8	62.7
2025-09-27T13:00	10	43	0.5	42	44	389	0.5	387	389	13.9	62.9
2025-09-27T13:01	10	41	0.3	41	42	387	0.2	387	387	13.8	61.6
2025-09-27T13:02	10	42	0.2	42	42	387	0.1	387	387	13.8	61.5
2025-09-27T13:03	10	42	0.0	42	42	387	0.0	387	387	13.9	63.2
2025-09-27T13:04	10									13.9	63.7
2025-09-27T13:05	10									13.9	63.1
2025-09-27T13:06	10	58	3.4	51	61	388	0.8	386	389	13.9	63.5
2025-09-27T13:07	10									14.0	63.7
2025-09-27T13:08	10	139	38.1	66	178	398	5.4	387	403	14.1	64.5
2025-09-27T13:09	10									14.3	62.6
2025-09-27T13:10	10	88	52.3	57	178	398	1.8	395	402	14.4	63.0
2025-09-27T13:11	10	69	10.0	58	83	397	0.2	396	397	14.3	61.4
2025-09-27T13:12	10	90	4.1	83	97	396	0.3	396	396	14.2	62.8
2025-09-27T13:13	10	106	7.5	98	121	397	0.7	396	398	14.2	63.3
2025-09-27T13:14	10	99	7.7	93	116	398	0.2	398	399	14.3	61.8
2025-09-27T13:15	10									14.3	62.8
2025-09-27T13:29	10									14.3	60.6
2025-09-27T13:30	10									14.4	62.5
2025-09-27T13:31	10									14.3	58.4
2025-09-27T13:32	10									14.2	58.0
2025-09-27T13:33	10									14.2	54.2
2025-09-27T13:34	10									14.1	59.6
2025-09-27T13:35	10									14.2	62.1
2025-09-27T13:36	10									14.2	46.7
2025-09-27T13:37	10									14.2	62.5
2025-09-27T13:38	10									14.1	61.4
2025-09-27T13:39	10									14.1	61.8
2025-09-27T13:40	10	79	10.9	68	90	398	2.5	396	401	14.1	61.8
2025-09-27T13:41	10	57	1.2	57	61	394	0.3	393	394	14.1	61.3
2025-09-27T13:42	10									14.2	62.3
2025-09-27T13:43	10									14.3	56.8
2025-09-27T13:44	10	59	0.5	58	59	394	0.2	393	394	14.2	55.6
2025-09-27T13:45	10	60	0.2	60	60	394	0.1	394	394	14.3	51.8
2025-09-27T13:46	10									14.3	56.0
2025-09-27T13:47	10									14.4	66.1
2025-09-27T13:48	10									14.4	66.7
2025-09-27T13:49	10									14.4	66.2
2025-09-27T13:50	10	73	4.6	65	77	396	0.8	394	396	14.4	65.8
2025-09-27T13:51	10									14.3	65.5
2025-09-27T13:52	10									14.2	65.0
2025-09-27T13:53	10									14.3	65.4
2025-09-27T13:54	10									14.2	62.8
2025-09-27T13:55	10									14.2	51.1
2025-09-27T13:56	10									14.2	63.0
2025-09-27T13:57	10									14.2	62.8
2025-09-27T13:58	10									14.1	61.6
2025-09-27T13:59	10									14.2	63.5
2025-09-27T14:00	10	69	0.8	69	72	394	0.3	394	395	14.3	63.9
2025-09-27T14:01	10	69	0.0	69	69	393	0.0	393	393	14.4	63.3
2025-09-27T14:02	10									14.3	61.3
2025-09-27T14:03	10									14.2	61.1
2025-09-27T14:04	10									14.2	60.9
2025-09-27T14:05	10									14.3	62.0
2025-09-27T14:06	10									14.2	62.2
2025-09-27T14:07	10									14.2	60.3
2025-09-27T14:08	10									14.2	61.6
2025-09-27T14:09	10									14.4	63.7
2025-09-27T14:10	10									14.4	63.2
2025-09-27T14:11	10									14.3	60.3
2025-09-27T14:12	10	127	16.4	86	137	396	1.4	393	397	14.4	61.3
2025-09-27T14:13	10									14.5	61.4
2025-09-27T14:14	10									14.5	59.7
2025-09-27T14:15	10									14.5	59.0
2025-09-27T14:16	10									14.6	59.2
2025-09-27T14:17	10									14.6	50.2
2025-09-27T14:18	10									14.7	60.3
2025-09-27T14:19	10										61.1
2025-09-27T14:20	10	133	0.8	133	135	401	1.2	399	402	14.8	61.1
2025-09-27T14:21	10									14.6	59.2
2025-09-27T14:22	10									14.4	58.7
2025-09-27T14:23	10									14.4	49.2
2025-09-27T14:24	10									14.4	47.7
2025-09-27T14:25	10									14.0	57.0
2025-09-27T14:26	10									14.6	60.4
2025-09-27T14:27	10									14.8	62.0
2025-09-27T14:28	10									14.7	46.9
2025-09-27T14:29	10									14.9	62.2
2025-09-27T14:30	10									14.6	60.2
2025-09-27T14:31	10									14.5	58.8
2025-09-27T14:32	10									14.4	60.0
2025-09-27T14:33	10									14.4	61.3
2025-09-27T14:34	10									14.3	60.5
2025-09-27T14:35	10									14.5	59.9
2025-09-27T14:37	10									14.4	59.5
2025-09-27T14:39	10									14.4	58.3
2025-09-27T14:40	10									14.4	57.5
2025-09-27T14:41	10									14.5	60.2
2025-09-27T14:42	10									14.4	46.4
2025-09-27T14:43	10									14.7	61.1
2025-09-27T14:44	10									14.4	61.0
2025-09-27T14:45	10									14.4	58.5
2025-09-27T14:46	10									14.3	59.7
2025-09-27T14:47	10									14.5	60.6
2025-09-27T14:55	10	118	1.9	117	128	400	1.1	399	406	14.6	62.4
2025-09-27T14:56	10	117	0.3	116	117	400	0.9	399	402	14.6	62.8
2025-09-27T14:57	10	116	0.3	115	116	402	0.5	401	403	14.8	63.1
2025-09-27T14:58	10	115	0.3	114	115	401	0.5	400	402	14.8	62.8
2025-09-27T14:59	10	113	0.4	112	114	402	0.7	401	403	14.9	63.1
2025-09-27T15:00	10	112	0.5	111	113	400	0.4	399	401	14.8	63.0
2025-09-27T15:01	10	110	0.4	110	111	398	1.0	396	400	14.8	62.5
2025-09-27T15:02	10	109	0.5	108	110	397	0.3	396	397	14.5	61.5
2025-09-27T15:03	10	107	0.4	107	108	397	0.3	396	397	14.6	62.2
2025-09-27T15:04	10	107	0.1	106	107	397	0.3	396	398	14.7	62.0
2025-09-27T15:05	10	106	0.1	106	107	397	0.4	396	398	14.8	62.2
2025-09-27T15:06	10	106	0.1	106	107	399	0.5	398	400	14.9	62.5
2025-09-27T15:07	10	106	0.2	106	106	400	0.3	399	401	15.0	63.3
2025-09-27T15:08	10	105	0.4	105	106	400	0.3	399	401	14.9	63.7
2025-09-27T15:09	10	104	0.3	103	105	399	0.8	398	400	14.9	64.2
2025-09-27T15:10	10	103	0.4	102	104	398	0.5	397	399	14.8	63.8
2025-09-27T15:11	10	102	0.4	101	102	397	0.4	396	398	14.8	63.2
2025-09-27T15:12	10	100	0.4	100	101	397	0.4	396	397	14.8	63.0
2025-09-27T15:13	10	99	0.4	98	100	395	0.5	394	396	14.7	61.8
2025-09-27T15:14	10	97	0.5	97	98	394	0.4	393	394	14.7	62.2
2025-09-27T15:15	10	96	0.5	95	97	393	0.3	393	394	14.6	61.0
2025-09-27T15:16	10	95	0.2	94	95	393	0.2	392	393	14.6	61.6
2025-09-27T15:17	10	94	0.1	94	94	392	0.3	391	393	14.6	61.3
2025-09-27T15:18	10	94	0.1	94	94	392	0.3	391	392	14.6	61.0
2025-09-27T15:19	10	94	0.2	93	94	392	0.4	391	393	14.6	61.7
2025-09-27T15:20	10	93	0.3	92	93	393	0.3	392	393	14.7	62.1
2025-09-27T15:21	10	92	0.4	91	92	392	0.2	392	393	14.7	62.1
2025-09-27T15:22	10	90	0.5	89	91	391	0.5	391	392	14.6	61.1
2025-09-27T15:23	10	88	0.5	88	89	391	0.3	391	392	14.6	61.8
2025-09-27T15:24	10	87	0.3	87	88	391	0.3	390	391	14.6	62.8
2025-09-27T15:25	10	87	0.3	86	87	391	0.3	390	391	14.7	63.6
2025-09-27T15:26	10	86	0.3	85	86	390	0.2	390	391	14.6	63.1
2025-09-27T15:27	10	85	0.3	84	85	391	0.3	390	391	14.7	63.6
2025-09-27T15:28	10	84	0.3	83	84	390	0.3	390	391	14.6	62.8
2025-09-27T15:29	10	83	0.3	82	83	390	0.3	389	390	14.6	63.3
2025-09-27T15:30	10	82	0.2	81	82	389	0.3	389	390	14.6	62.1
2025-09-27T15:31	10	81	0.3	81	82	389	0.3	388	390	14.6	61.3
2025-09-27T15:32	10	80	0.3	80	81	388	0.4	387	389	14.5	61.0
2025-09-27T15:33	10	80	0.3	79	80	387	0.3	387	388	14.5	61.9
2025-09-27T15:34	10	79	0.2	78	79	388	0.2	387	388	14.5	61.8
2025-09-27T15:35	10	78	0.2	78	78	387	0.3	386	388	14.5	60.7
2025-09-27T15:36	10	78	0.2	77	78	387	0.2	387	388	14.5	60.9
2025-09-27T15:37	10	77	0.2	77	77	386	0.2	386	387	14.5	59.9
2025-09-27T15:38	10	76	0.3	76	77	387	0.5	386	388	14.5	60.7
2025-09-27T15:39	10	75	0.3	75	76	387	0.3	386	387	14.5	61.4
2025-09-27T15:40	10	75	0.2	74	75	387	0.2	386	387	14.5	61.4
2025-09-27T15:41	10	74	0.2	73	75	386	0.3	386	387	14.5	61.6
2025-09-27T15:42	10	73	0.3	73	74	387	0.4	386	387	14.5	62.9
2025-09-27T15:43	10	72	0.4	71	73	386	0.5	385	387	14.5	62.9
2025-09-27T15:44	10	72	0.2	72	72	386	0.3	385	386	14.4	62.7
2025-09-27T15:45	10	71	0.2	71	72	386	0.3	385	386	14.5	62.2
2025-09-27T15:46	10	71	0.2	70	71	385	0.3	385	386	14.5	62.2
2025-09-27T15:47	10	70	0.2	69	70	386	0.4	385	386	14.5	63.0
2025-09-27T15:48	10	69	0.2	69	70	386	0.2	385	386	14.5	63.1
2025-09-27T15:49	10	68	0.3	68	69	386	0.2	385	386	14.5	63.5
2025-09-27T15:50	10	67	0.3	67	68	386	0.2	385	386	14.6	64.0
2025-09-27T15:51	10	67	0.3	66	67	386	0.2	385	386	14.6	64.1
2025-09-27T15:52	10	66	0.2	65	66	385	0.3	384	386	14.6	63.7
2025-09-27T15:53	10	65	0.2	65	66	384	0.3	383	385	14.4	61.0
2025-09-27T15:54	10	65	0.1	64	65	384	0.4	383	384	14.4	61.3
2025-09-27T15:55	10	64	0.2	64	64	383	0.2	383	384	14.4	61.9
2025-09-27T15:56	10	63	0.2	63	64	383	0.2	383	383	14.3	61.9
2025-09-27T15:57	10	63	0.3	62	63	382	0.5	381	383	14.3	62.2
2025-09-27T15:58	10	62	0.3	61	62	382	0.2	381	382	14.2	62.3
2025-09-27T15:59	10	61	0.3	60	61	382	0.2	381	382	14.2	62.1
2025-09-27T16:00	10	60	0.2	60	60	381	0.2	381	382	14.2	62.5
2025-09-27T16:01	10	59	0.2	59	60	381	0.2	381	382	14.2	62.5
2025-09-27T16:02	10	59	0.2	58	59	381	0.2	381	382	14.2	62.9
2025-09-27T16:03	10	58	0.2	58	58	381	0.2	381	382	14.2	63.5
2025-09-27T16:04	10	57	0.2	57	58	381	0.3	380	382	14.2	64.1
2025-09-27T16:05	10	57	0.2	56	57	381	0.2	380	381	14.2	63.5
2025-09-27T16:06	10	56	0.2	56	56	380	0.2	380	381	14.2	64.1
2025-09-27T16:07	10	55	0.3	55	56	380	0.3	380	381	14.2	64.2
2025-09-27T16:08	10	54	0.3	54	55	380	0.2	379	381	14.2	64.3
2025-09-27T16:09	10	54	0.3	53	54	380	0.3	379	380	14.1	65.1
2025-09-27T16:10	10	53	0.2	52	53	380	0.3	379	381	14.1	64.8
2025-09-27T16:11	10	52	0.3	51	53	379	0.2	379	380	14.1	65.1
2025-09-27T16:12	10	51	0.2	51	52	379	0.2	379	380	14.1	65.0
2025-09-27T16:13	10	50	0.2	50	51	379	0.2	379	380	14.1	64.8
2025-09-27T16:14	10	50	0.2	49	50	379	0.2	378	379	14.1	64.7
2025-09-27T16:15	10	49	0.3	48	50	378	0.3	378	379	14.1	64.4
2025-09-27T16:16	10	48	0.2	48	48	378	0.2	378	379	14.1	65.1
2025-09-27T16:17	10	47	0.2	47	48	378	0.3	378	379	14.0	65.6
2025-09-27T16:18	10	47	0.2	46	47	378	0.2	378	378	14.0	64.8
2025-09-27T16:19	10	46	0.2	45	46	378	0.2	377	378	14.1	64.7
2025-09-27T16:20	10	45	0.2	45	46	378	0.2	377	378	14.0	65.7
2025-09-27T16:21	10	44	0.3	44	45	377	0.2	377	378	14.0	65.1
2025-09-27T16:22	10	43	0.2	43	44	377	0.3	376	378	14.0	65.8
2025-09-27T16:23	10	43	0.2	42	43	377	0.2	376	377	14.0	65.2
2025-09-27T16:24	10	42	0.2	41	42	377	0.2	376	377	14.0	65.5
2025-09-27T16:25	10	41	0.2	41	42	376	0.2	376	377	13.9	66.0
2025-09-27T16:26	10	41	0.2	40	41	376	0.2	375	377	13.9	66.0
2025-09-27T16:27	10	40	0.3	39	40	376	0.2	375	376	13.9	66.1
2025-09-27T16:28	10	39	0.3	38	39	376	0.2	375	376	13.9	65.4
2025-09-27T16:29	10	38	0.3	37	38	375	0.3	375	376	13.9	65.3
2025-09-27T16:30	10	37	0.2	36	37	375	0.2	375	376	13.9	65.6
2025-09-27T16:31	10	36	0.3	36	37	375	0.2	374	375	13.9	66.5
2025-09-27T16:32	10	35	0.2	35	36	375	0.3	374	375	13.8	66.7
2025-09-27T16:33	10	34	0.3	34	35	375	0.2	374	375	13.8	66.9
2025-09-27T16:34	10	33	0.3	33	34	374	0.3	374	375	13.8	67.3
2025-09-27T16:35	10	33	0.2	32	33	374	0.2	373	375	13.8	67.3
2025-09-27T16:36	10	32	0.2	32	32	374	0.2	374	375	13.8	67.1
2025-09-27T16:37	10	31	0.2	31	32	374	0.2	374	375	13.8	67.1
2025-09-27T16:38	10	30	0.2	30	31	374	0.2	373	374	13.8	67.6
2025-09-27T16:39	10	30	0.3	29	30	373	0.2	373	374	13.8	67.9
2025-09-27T16:40	10	29	0.3	28	29	373	0.3	373	374	13.8	68.3
2025-09-27T16:41	10	28	0.3	27	28	373	0.3	373	374	13.7	69.1
2025-09-27T16:42	10	27	0.2	27	27	373	0.3	372	373	13.7	69.0
2025-09-27T16:43	10	27	0.2	26	27	372	0.2	372	373	13.7	69.3
2025-09-27T16:44	10	26	0.2	25	26	372	0.2	371	372	13.7	69.6
2025-09-27T16:45	10	25	0.2	25	26	372	0.2	371	372	13.7	69.8
2025-09-27T16:46	10	24	0.2	24	25	371	0.2	371	372	13.7	69.4
2025-09-27T16:47	10	24	0.2	23	24	371	0.3	371	372	13.6	69.9
2025-09-27T16:48	10	23	0.3	22	23	371	0.3	370	372	13.6	69.9
2025-09-27T16:49	10	22	0.4	21	22	371	0.2	370	372	13.6	69.5
2025-09-27T16:50	10	19	1.4	16	21	371	0.3	370	371	13.6	69.6
2025-09-27T16:51	10	13	1.5	11	16	370	0.5	369	371	13.6	70.2
2025-09-27T16:52	10	11	0.5	10	12	369	0.3	369	370	13.5	70.7
2025-09-27T16:53	10	11	0.2	10	11	369	0.4	368	370	13.4	70.7
2025-09-27T16:54	10	10	0.4	10	11	369	0.3	368	369	13.5	70.4
2025-09-27T16:55	10	13	0.8	11	14	369	0.2	369	369	13.5	70.1
2025-09-27T16:56	10	14	0.2	14	15	369	0.3	368	370	13.5	70.3
2025-09-27T16:57	10	14	0.4	13	15	369	0.3	368	370	13.5	70.0
2025-09-27T16:58	10	12	0.6	11	13	369	0.2	369	369	13.5	70.4
2025-09-27T16:59	10	10	1.0	8	11	369	0.3	368	369	13.4	70.8
2025-09-27T17:00	10	5	1.2	4	7	368	0.2	368	369	13.4	71.1
2025-09-27T17:01	10	3	0.5	2	4	368	0.6	367	369	13.4	70.9
2025-09-27T17:02	10	2	0.1	2	2	367	0.2	367	368	13.3	71.3
2025-09-27T17:03	10	2	0.1	2	2	367	0.4	366	368	13.3	71.4
2025-09-27T17:04	10	2	0.1	2	2	367	0.3	366	368	13.3	71.8
2025-09-27T17:05	10	2	0.1	1	2	367	0.2	366	367	13.2	72.4
2025-09-27T17:06	10	2	0.1	1	2	367	0.3	366	367	13.2	72.3
2025-09-27T17:07	10	1	0.1	1	2	366	0.3	366	367	13.2	72.5
2025-09-27T17:08	10	1	0.1	1	1	366	0.3	366	367	13.2	72.8
2025-09-27T17:09	10	1	0.1	1	1	366	0.5	365	367	13.2	72.8
2025-09-27T17:10	10	1	0.1	1	1	367	0.3	366	368	13.3	72.4
2025-09-27T17:11	10	1	0.1	1	1	367	0.3	366	367	13.2	73.0
2025-09-27T17:12	10	1	0.1	1	1	367	0.3	366	367	13.2	73.0
2025-09-27T17:13	10	1	0.2	0	1	366	0.4	365	367	13.1	73.7
2025-09-27T17:14	10	1	0.1	0	1	366	0.3	365	367	13.1	73.7
2025-09-27T17:15	10	1	0.2	1	1	366	0.4	365	367	13.1	73.8
2025-09-27T17:16	10	1	0.1	0	1	365	0.2	365	366	13.0	74.2
2025-09-27T17:17	10	1	0.1	1	1	365	0.2	365	365	13.0	74.5
2025-09-27T17:18	10	1	0.1	0	1	365	0.5	364	365	13.0	74.4
2025-09-27T17:19	10	1	0.1	0	1	365	0.3	365	366	12.9	74.7
2025-09-27T17:20	10	0	0.1	0	1	365	0.2	364	365	12.9	74.6
2025-09-27T17:21	10	0	0.1	0	1	364	0.3	364	365	12.9	74.7
2025-09-27T17:22	10	0	0.1	0	1	364	0.3	363	365	12.9	75.1
2025-09-27T17:23	10	0	0.1	0	1	363	0.3	363	364	12.8	75.3
2025-09-27T17:24	10	0	0.1	0	0	363	0.2	363	364	12.7	76.2
2025-09-27T17:25	10	0	0.1	0	0	363	0.3	362	363	12.6	76.6
2025-09-27T17:26	10	0	0.1	0	0	362	0.3	361	363	12.6	76.6
2025-09-27T17:27	10	0	0.1	0	0	361	0.3	360	362	12.6	76.9
2025-09-27T17:28	10	0	0.1	0	0	361	0.3	361	362	12.5	77.0
2025-09-27T17:29	10	0	0.1	0	0	361	0.2	361	362	12.5	77.3
2025-09-27T17:30	10	0	0.1	0	0	361	0.3	360	361	12.5	77.3
2025-09-27T17:31	10	0	0.1	0	0	360	0.4	359	361	12.4	77.7
2025-09-27T17:32	10	0	0.1	0	0	359	0.2	359	360	12.4	78.1
2025-09-27T17:33	10	0	0.1	0	0	359	0.2	359	359	12.3	78.4
2025-09-27T17:34	10	0	0.1	0	0	358	0.3	358	359	12.3	78.7
2025-09-27T17:35	10	0	0.1	0	0	359	0.5	358	360	12.4	78.4
2025-09-27T17:36	10	0	0.1	0	0	360	0.3	359	361	12.5	77.6
2025-09-27T17:37	10	0	0.1	0	0	360	0.5	359	361	12.4	77.9
2025-09-27T17:38	10	0	0.1	0	0	361	0.3	360	362	12.4	78.1
2025-09-27T17:39	10	0	0.1	0	0	361	0.3	360	361	12.4	78.0
2025-09-27T17:40	10	0	0.1	0	0	360	0.3	360	361	12.4	78.3
2025-09-27T17:41	10	0	0.1	0	0	360	0.2	360	361	12.3	78.3
2025-09-27T17:42	10	0	0.1	0	0	361	0.5	360	362	12.3	78.3
2025-09-27T17:43	10	0	0.1	0	0	361	0.2	360	361	12.3	78.5
2025-09-27T17:44	10	0	0.1	0	0	361	0.2	360	361	12.3	78.9
2025-09-27T17:45	10	0	0.1	0	0	361	0.2	360	361	12.2	78.9
2025-09-27T17:46	10	0	0.1	0	0	361	0.2	360	361	12.2	78.8
2025-09-27T17:47	10	0	0.1	0	0	360	0.3	360	361	12.3	78.6
2025-09-27T17:48	10	0	0.1	0	0	360	0.3	359	360	12.1	79.4
2025-09-27T17:49	10	0	0.1	0	0	360	0.2	359	360	12.1	79.6
2025-09-27T17:50	10	0	0.1	0	0	360	0.2	359	360	12.1	79.3
2025-09-27T17:51	10	0	0.1	0	0	359	0.2	359	360	12.1	79.5
2025-09-27T17:52	10	0	0.1	0	0	359	0.2	359	360	12.1	79.4
2025-09-27T17:53	10	0	0.1	0	0	359	0.2	359	359	12.0	79.9
2025-09-27T17:54	10	0	0.1	0	0	359	0.2	358	359	11.9	80.4
2025-09-27T17:55	10	0	0.1	-1	0	358	0.2	358	359	11.9	80.5
2025-09-27T17:56	10	0	0.1	0	0	358	0.2	358	359	11.9	80.4
2025-09-27T17:57	10	0	0.1	0	0	358	0.4	357	359	11.8	80.7
2025-09-27T17:58	10	0	0.1	0	0	357	0.3	356	358	11.8	81.0
2025-09-27T17:59	10	0	0.1	0	0	357	0.3	356	357	11.7	81.4
2025-09-27T18:00	10	0	0.1	-1	0	356	0.2	356	357	11.6	81.7
2025-09-27T18:01	10	0	0.2	-1	0	356	0.3	356	357	11.6	82.0
2025-09-27T18:02	10	0	0.1	-1	0	357	0.3	356	357	11.5	82.1
2025-09-27T18:03	10	0	0.1	-1	0	356	0.3	356	357	11.5	82.3
2025-09-27T18:04	10	0	0.2	-1	0	356	0.3	355	357	11.5	82.5
2025-09-27T18:05	10	0	0.1	-1	0	356	0.3	355	357	11.5	82.5
2025-09-27T18:06	10	0	0.1	-1	0	356	0.3	355	356	11.4	82.8
2025-09-27T18:07	10	0	0.1	-1	0	356	0.3	355	356	11.4	82.7
2025-09-27T18:08	10	0	0.1	0	0	356	0.3	355	356	11.4	82.8
2025-09-27T18:09	10	0	0.1	0	0	356	0.2	355	356	11.4	82.7
2025-09-27T18:10	10	0	0.1	0	0	356	0.3	355	357	11.4	81.9
2025-09-27T18:11	10	0	0.1	0	0	356	0.3	356	357	11.4	81.8
2025-09-27T18:12	10	0	0.1	0	0	356	0.2	356	357	11.4	81.9
2025-09-27T18:13	10	0	0.1	0	0	356	0.3	355	357	11.4	82.2
2025-09-27T18:14	10	0	0.1	0	0	356	0.2	355	356	11.4	82.0
2025-09-27T18:15	10	0	0.1	-1	0	356	0.3	355	357	11.4	81.7
2025-09-27T18:16	10	0	0.1	-1	0	356	0.2	355	357	11.4	81.4
2025-09-27T18:17	10	0	0.1	-1	0	356	0.2	355	357	11.4	81.2
2025-09-27T18:18	10	0	0.1	-1	0	356	0.2	356	357	11.3	81.3
2025-09-27T18:19	10	0	0.1	-1	0	357	0.3	356	357	11.4	80.9
2025-09-27T18:20	10	0	0.1	-1	0	357	0.3	356	357	11.3	81.5
2025-09-27T18:21	10	0	0.1	-1	0	357	0.3	356	357	11.3	81.5
2025-09-27T18:22	10	0	0.1	-1	0	356	0.2	356	357	11.2	81.7
2025-09-27T18:23	10	0	0.1	-1	0	357	0.3	356	357	11.2	81.7
2025-09-27T18:24	10	0	0.1	-1	0	357	0.2	356	357	11.2	81.5
2025-09-27T18:25	10	-1	0.1	-1	0	356	0.2	356	357	11.1	81.9
2025-09-27T18:26	10	0	0.1	-1	0	356	0.2	356	357	11.1	81.9
2025-09-27T18:27	10	0	0.1	-1	0	356	0.2	355	357	11.1	82.3
2025-09-27T18:28	10	0	0.1	-1	0	356	0.3	355	357	11.1	82.1
2025-09-27T18:29	10	0	0.1	0	0	356	0.3	355	357	11.1	82.2
2025-09-27T18:30	10	0	0.1	-1	0	356	0.2	355	356	11.0	82.3
2025-09-27T18:31	10	0	0.1	0	0	355	0.3	355	356	11.0	82.2
2025-09-27T18:32	10	0	0.1	0	0	356	0.2	355	356	11.0	81.9
2025-09-27T18:33	10	0	0.1	0	0	355	0.4	354	356	11.0	82.2
2025-09-27T18:34	10	0	0.1	0	0	355	0.2	354	355	10.9	82.3
2025-09-27T18:35	10	0	0.1	0	0	355	0.3	355	356	11.0	82.1
2025-09-27T18:36	10	0	0.1	-1	0	355	0.3	355	356	11.0	81.9
2025-09-27T18:37	10	0	0.1	0	0	355	0.2	354	355	11.0	81.8
2025-09-27T18:38	10	0	0.1	-1	0	354	0.3	354	355	10.9	82.1
2025-09-27T18:39	10	0	0.1	0	0	354	0.3	353	354	10.9	82.3
2025-09-27T18:40	10	0	0.1	0	0	353	0.2	352	353	10.9	82.5
2025-09-27T18:41	10	0	0.1	0	0	353	0.2	352	353	10.8	82.7
2025-09-27T18:42	10	0	0.1	0	0	352	0.2	352	353	10.8	83.0
2025-09-27T18:43	10	0	0.1	0	0	352	0.2	352	353	10.8	83.2
2025-09-27T18:44	10	0	0.1	0	0	352	0.2	351	352	10.7	83.6
2025-09-27T18:45	10	0	0.1	0	0	352	0.2	351	352	10.7	83.5
2025-09-27T18:46	10	0	0.1	-1	0	352	0.2	351	352	10.9	82.3
2025-09-27T18:47	10	0	0.1	-1	0	351	0.2	351	352	10.8	82.7
2025-09-27T18:48	10	0	0.1	-1	0	351	0.2	350	351	10.8	82.3
2025-09-27T18:49	10	0	0.1	-1	0	350	0.2	350	351	10.9	81.9
2025-09-27T18:50	10	0	0.1	-1	0	350	0.3	350	351	10.9	81.9
2025-09-27T18:51	10	0	0.1	-1	0	350	0.4	350	351	10.8	81.9
2025-09-27T18:52	10	0	0.1	-1	0	350	0.2	350	350	10.8	81.7
2025-09-27T18:53	10	0	0.1	-1	0	350	0.3	349	351	10.8	81.8
2025-09-27T18:54	10	0	0.1	0	0	350	0.2	349	350	10.8	81.9
2025-09-27T18:55	10	0	0.1	0	0	350	0.2	349	350	10.8	81.9
2025-09-27T18:56	10	0	0.1	-1	0	350	0.2	349	350	10.7	82.3
2025-09-27T18:57	10	0	0.1	0	0	350	0.2	349	350	10.6	82.7
2025-09-27T18:58	10	0	0.1	0	0	350	0.3	349	350	10.7	82.4
2025-09-27T18:59	10	0	0.1	0	0	350	0.3	350	351	10.8	82.0
2025-09-27T19:00	10	0	0.1	0	0	351	0.3	351	352	10.9	81.3
2025-09-27T19:01	10	0	0.1	-1	0	352	0.5	351	353	11.1	80.7
2025-09-27T19:02	10	0	0.1	-1	0	352	0.2	352	353	11.0	81.0
2025-09-27T19:03	10	0	0.1	0	0	352	0.2	352	353	11.0	80.8
2025-09-27T19:04	10	0	0.1	0	0	352	0.2	352	352	11.0	81.3
2025-09-27T19:05	10	0	0.1	0	0	351	0.4	351	352	10.9	81.5
2025-09-27T19:06	10	0	0.1	0	0	351	0.3	350	352	10.8	82.2
2025-09-27T19:07	10	0	0.1	0	0	351	0.3	350	351	10.7	83.1
2025-09-27T19:08	10	0	0.1	0	0	350	0.3	350	351	10.7	83.6
2025-09-27T19:09	10	0	0.2	0	0	350	0.2	349	350	10.6	84.3
2025-09-27T19:10	10	0	0.2	-1	0	349	0.3	349	350	10.6	84.4
2025-09-27T19:11	10	0	0.2	0	0	349	0.2	349	350	10.5	85.1
2025-09-27T19:12	10	0	0.1	-1	0	349	0.3	348	349	10.5	85.4
2025-09-27T19:13	10	0	0.2	-1	0	348	0.2	348	349	10.5	84.9
2025-09-27T19:14	10	0	0.1	0	0	347	0.3	346	348	10.5	85.2
2025-09-27T19:15	10	0	0.1	-1	0	347	0.3	346	347	10.5	85.4
2025-09-27T19:16	10	0	0.2	-1	0	346	0.2	346	347	10.4	85.4
2025-09-27T19:17	10	0	0.1	-1	0	347	0.2	346	347	10.5	85.0
2025-09-27T19:18	10	0	0.1	0	0	347	0.3	346	347	10.5	85.3
2025-09-27T19:19	10	0	0.1	0	0	346	0.3	346	347	10.4	85.4
2025-09-27T19:20	10	0	0.1	0	0	346	0.2	345	346	10.4	85.5
2025-09-27T19:21	10	0	0.1	0	0	346	0.2	346	347	10.4	85.7
2025-09-27T19:22	10	0	0.1	0	0	346	0.2	346	347	10.4	85.4
2025-09-27T19:23	10	0	0.1	0	0	347	0.2	346	347	10.4	85.6
2025-09-27T19:24	10	0	0.1	0	0	346	0.3	346	347	10.4	85.7
2025-09-27T19:25	10	0	0.1	0	0	347	0.4	346	348	10.3	85.7
2025-09-27T19:26	10	0	0.1	0	0	347	0.3	347	348	10.4	85.6
2025-09-27T19:27	10	0	0.1	-1	0	347	0.2	346	347	10.3	85.6
2025-09-27T19:28	10	0	0.1	-1	0	347	0.2	346	347	10.3	85.6
2025-09-27T19:29	10	0	0.1	0	0	347	0.2	346	347	10.3	85.8
2025-09-27T19:30	10	0	0.1	0	0	347	0.3	347	348	10.3	85.9
2025-09-27T19:31	10	0	0.1	0	0	347	0.3	347	348	10.3	85.9
2025-09-27T19:32	10	0	0.1	0	0	348	0.2	347	348	10.3	85.8
2025-09-27T19:33	10	0	0.1	0	0	348	0.2	348	349	10.3	85.8
2025-09-27T19:34	10	0	0.1	0	0	348	0.2	348	349	10.4	85.7
2025-09-27T19:35	10	0	0.1	-1	0	348	0.2	348	349	10.4	85.6
2025-09-27T19:36	10	0	0.1	0	0	349	0.2	348	349	10.4	85.5
2025-09-27T19:37	10	0	0.1	0	0	349	0.2	349	350	10.4	85.5
2025-09-27T19:38	10	0	0.1	0	0	349	0.2	349	350	10.4	85.3
2025-09-27T19:39	10	0	0.1	0	0	349	0.3	349	350	10.4	85.4
2025-09-27T19:40	10	0	0.1	0	0	349	0.3	348	349	10.4	85.4
2025-09-27T19:41	10	0	0.1	0	0	348	0.4	347	348	10.4	85.4
2025-09-27T19:42	10	0	0.1	0	0	347	0.3	347	348	10.4	85.4
2025-09-27T19:43	10	0	0.1	0	0	347	0.2	347	348	10.4	85.4
2025-09-27T19:44	10	0	0.1	0	0	347	0.4	347	348	10.4	85.4
2025-09-27T19:45	10	0	0.1	0	0	347	0.3	346	347	10.4	85.4
2025-09-27T19:46	10	0	0.1	0	0	346	0.2	346	346	10.4	85.4
2025-09-27T19:47	10	0	0.1	0	0	345	0.3	345	346	10.3	85.6
2025-09-27T19:48	10	0	0.1	0	0	346	0.3	345	346	10.2	85.7
2025-09-27T19:49	10	0	0.1	0	0	345	0.3	345	346	10.2	86.7
2025-09-27T19:50	10	0	0.1	0	0	345	0.2	344	345	10.2	86.9
2025-09-27T19:51	10	0	0.1	0	0	344	0.3	343	345	10.1	87.1
2025-09-27T19:52	10	0	0.1	0	0	344	0.2	344	345	10.1	87.2
2025-09-27T19:53	10	0	0.1	0	0	344	0.2	343	344	10.1	87.3
2025-09-27T19:54	10	0	0.1	0	0	344	0.2	343	344	10.1	87.4
2025-09-27T19:55	10	0	0.1	0	0	344	0.3	343	344	10.1	87.5
2025-09-27T19:56	10	0	0.1	0	0	344	0.2	343	344	10.1	87.5
2025-09-27T19:57	10	0	0.1	0	0	344	0.2	343	344	10.0	87.9
2025-09-27T19:58	10	0	0.1	0	0	343	0.2	343	344	10.0	87.9
2025-09-27T19:59	10	0	0.1	0	0	343	0.3	342	343	10.0	88.1
2025-09-27T20:00	10	0	0.1	0	0	343	0.2	342	343	10.0	88.0
2025-09-27T20:01	10	0	0.1	0	0	343	0.3	342	344	9.9	88.1
2025-09-27T20:02	10	0	0.1	0	0	343	0.4	342	344	9.9	88.3
2025-09-27T20:03	10	0	0.1	0	0	343	0.2	343	343	10.0	87.8
2025-09-27T20:04	10	0	0.1	-1	0	343	0.2	343	344	10.0	87.8
2025-09-27T20:05	10	0	0.1	0	0	343	0.2	343	344	10.0	87.8
2025-09-27T20:06	10	0	0.1	0	0	343	0.2	342	343	10.0	87.9
2025-09-27T20:07	10	0	0.1	0	0	343	0.2	343	344	10.0	87.9
2025-09-27T20:08	10	0	0.1	-1	0	344	0.3	343	344	10.0	88.0
2025-09-27T20:09	10	0	0.1	-1	0	344	0.2	343	345	10.0	88.1
2025-09-27T20:10	10	0	0.1	-1	0	344	0.4	344	345	9.9	88.2
2025-09-27T20:11	10	0	0.1	-1	0	345	0.3	344	346	9.9	88.2
2025-09-27T20:12	10	0	0.1	-1	0	345	0.3	345	346	10.0	87.9
2025-09-27T20:13	10	0	0.1	-1	0	345	0.3	345	346	9.9	88.2
2025-09-27T20:14	10	0	0.1	-1	0	347	0.3	346	347	10.0	87.8
2025-09-27T20:15	10	0	0.1	-1	0	346	0.2	346	347	10.0	88.0
2025-09-27T20:16	10	0	0.1	-1	0	345	0.4	345	346	9.9	88.3
2025-09-27T20:17	10	0	0.1	-1	0	345	0.2	345	346	9.9	88.4
2025-09-27T20:18	10	0	0.1	-1	0	345	0.3	344	345	9.8	88.7
2025-09-27T20:19	10	0	0.1	-1	0	345	0.2	344	345	9.8	88.6
2025-09-27T20:20	10	0	0.1	-1	0	345	0.3	344	346	9.8	88.6
2025-09-27T20:21	10	0	0.1	-1	0	344	0.2	344	345	9.8	88.8
2025-09-27T20:22	10	0	0.1	-1	0	344	0.2	344	345	9.8	88.9
2025-09-27T20:23	10	0	0.1	-1	0	345	0.4	344	346	9.8	88.6
2025-09-27T20:24	10	0	0.1	-1	0	345	0.2	345	346	9.8	88.6
2025-09-27T20:25	10	0	0.1	-1	0	346	0.4	345	347	9.8	88.6
2025-09-27T20:26	10	0	0.1	-1	0	346	0.2	346	347	9.8	88.6
2025-09-27T20:27	10	0	0.1	-1	0	347	0.3	346	347	9.8	88.5
2025-09-27T20:28	10	0	0.1	-1	0	347	0.3	346	347	9.7	88.8
2025-09-27T20:29	10	0	0.1	-1	0	347	0.2	346	347	9.7	88.7
2025-09-27T20:30	10	0	0.1	-1	0	347	0.2	346	347	9.7	88.9
2025-09-27T20:31	10	0	0.1	-1	0	347	0.2	346	347	9.7	88.8
2025-09-27T20:32	10	0	0.1	-1	0	347	0.3	346	347	9.7	88.8
2025-09-27T20:33	10	0	0.1	-1	0	347	0.3	346	347	9.7	88.9
2025-09-27T20:34	10	0	0.1	-1	0	347	0.2	347	348	9.7	88.5
2025-09-27T20:35	10	0	0.1	-1	0	348	0.4	347	348	9.7	88.6
2025-09-27T20:36	10	0	0.1	-1	0	348	0.2	347	348	9.8	88.3
2025-09-27T20:37	10	0	0.1	-1	0	348	0.2	348	348	9.7	88.5
2025-09-27T20:38	10	0	0.1	-1	0	348	0.2	347	348	9.7	88.7
2025-09-27T20:39	10	0	0.1	-1	0	347	0.2	347	348	9.7	88.8
2025-09-27T20:40	10	0	0.0	0	0	347	0.2	347	348	9.7	89.0
2025-09-27T20:41	10	0	0.1	-1	0	347	0.3	346	348	9.6	89.1
2025-09-27T20:42	10	0	0.1	0	0	346	0.3	346	347	9.6	89.1
2025-09-27T20:43	10	0	0.1	-1	0	347	0.3	346	347	9.7	89.0
2025-09-27T20:44	10	0	0.1	-1	0	347	0.2	346	347	9.6	89.1
2025-09-27T20:45	10	0	0.1	-1	0	346	0.3	345	347	9.6	89.5
2025-09-27T20:46	10	0	0.1	-1	0	345	0.2	344	346	9.5	89.7
2025-09-27T20:47	10	0	0.1	-1	0	345	0.3	345	346	9.5	89.7
2025-09-27T20:48	10	0	0.1	-1	0	345	0.3	345	346	9.5	89.6
2025-09-27T20:49	10	0	0.1	-1	0	345	0.2	345	346	9.4	89.9
2025-09-27T20:50	10	0	0.1	-1	0	345	0.3	344	345	9.4	90.1
2025-09-27T20:51	10	0	0.1	-1	0	345	0.6	344	346	9.5	89.5
2025-09-27T20:52	10	0	0.1	-1	0	346	0.2	346	346	9.6	89.4
2025-09-27T20:53	10	0	0.1	-1	0	345	0.2	345	346	9.6	89.4
2025-09-27T20:54	10	0	0.1	-1	0	345	0.3	344	345	9.5	89.7
2025-09-27T20:55	10	0	0.1	-1	0	344	0.3	344	345	9.5	89.8
2025-09-27T20:56	10	0	0.1	-1	0	344	0.2	344	345	9.5	89.8
2025-09-27T20:57	10	0	0.1	-1	0	344	0.2	344	345	9.5	89.4
2025-09-27T20:58	10	0	0.1	-1	0	344	0.3	343	344	9.5	89.5
2025-09-27T20:59	10	0	0.0	-1	0	343	0.3	342	344	9.4	89.9
2025-09-27T21:00	10	0	0.1	-1	0	342	0.2	342	343	9.4	89.9
2025-09-27T21:01	10	0	0.1	-1	0	342	0.2	342	343	9.4	89.8
2025-09-27T21:02	10	0	0.1	-1	0	342	0.2	342	343	9.4	89.7
2025-09-27T21:03	10	0	0.1	-1	0	342	0.3	341	342	9.4	89.8
2025-09-27T21:04	10	0	0.1	-1	0	342	0.2	342	343	9.4	89.9
2025-09-27T21:05	10	0	0.1	-1	0	342	0.2	342	343	9.4	90.0
2025-09-27T21:06	10	0	0.1	-1	0	342	0.2	341	342	9.4	89.7
2025-09-27T21:07	10	-1	0.1	-1	0	342	0.2	342	343	9.4	89.6
2025-09-27T21:08	10	0	0.0	-1	0	342	0.2	342	343	9.4	89.8
2025-09-27T21:09	10	0	0.1	-1	0	342	0.2	342	342	9.4	89.8
2025-09-27T21:10	10	-1	0.1	-1	0	342	0.2	342	342	9.4	89.8
2025-09-27T21:11	10	-1	0.1	-1	0	342	0.2	342	343	9.4	89.7
2025-09-27T21:12	10	-1	0.1	-1	0	342	0.2	342	343	9.4	89.7
2025-09-27T21:13	10	-1	0.1	-1	0	342	0.2	341	342	9.4	89.6
2025-09-27T21:14	10	-1	0.1	-1	0	342	0.2	341	342	9.3	89.8
2025-09-27T21:15	10	-1	0.1	-1	0	342	0.2	341	342	9.3	89.9
2025-09-27T21:16	10	-1	0.1	-1	0	342	0.3	342	343	9.3	89.8
2025-09-27T21:17	10	-1	0.1	-1	0	343	0.2	342	343	9.3	89.8
2025-09-27T21:18	10	-1	0.1	-1	0	343	0.2	342	343	9.3	89.8
2025-09-27T21:19	10	-1	0.1	-1	0	343	0.2	342	343	9.3	89.9
2025-09-27T21:20	10	-1	0.1	-1	0	343	0.2	342	343	9.3	89.9
2025-09-27T21:21	10	-1	0.1	-1	0	343	0.2	342	343	9.2	90.1
2025-09-27T21:22	10	-1	0.1	-1	0	343	0.3	342	343	9.2	90.1
2025-09-27T21:23	10	-1	0.1	-1	0	342	0.2	342	343	9.2	90.2
2025-09-27T21:24	10	-1	0.1	-1	0	343	0.2	342	343	9.2	90.1
2025-09-27T21:25	10	-1	0.1	-1	-1	342	0.2	342	343	9.2	90.2
2025-09-27T21:26	10	-1	0.1	-1	0	342	0.2	342	342	9.2	90.2
2025-09-27T21:27	10	-1	0.1	-1	0	342	0.2	342	342	9.2	90.1
2025-09-27T21:28	10	-1	0.1	-1	0	342	0.3	341	343	9.2	90.5
2025-09-27T21:29	10	-1	0.1	-1	0	341	0.4	341	342	9.1	90.7
2025-09-27T21:30	10	-1	0.1	-1	0	341	0.5	340	342	8.9	91.2
2025-09-27T21:31	10	-1	0.1	-1	0	341	0.2	340	341	8.7	91.9
2025-09-27T21:32	10	-1	0.1	-1	0	340	0.3	340	341	8.7	92.3
2025-09-27T21:33	10	-1	0.1	-1	0	340	0.2	339	340	8.8	92.4
2025-09-27T21:34	10	-1	0.1	-1	0	339	0.3	339	340	8.8	92.3
2025-09-27T21:35	10	-1	0.2	-1	0	339	0.3	339	340	8.6	92.7
2025-09-27T21:36	10	-1	0.2	-1	0	339	0.4	338	340	8.5	93.2
2025-09-27T21:37	10	-1	0.1	-1	0	339	0.3	338	339	8.3	93.7
2025-09-27T21:38	10	-1	0.2	-1	0	340	0.6	339	341	8.3	94.0
2025-09-27T21:39	10	0	0.1	-1	0	340	0.3	339	340	8.3	94.5
2025-09-27T21:40	10	-1	0.2	-1	0	339	0.3	338	340	8.2	94.4
2025-09-27T21:41	10	-1	0.1	-1	0	339	0.4	339	340	8.5	93.7
2025-09-27T21:42	10	-1	0.1	-1	0	339	0.4	338	340	8.6	93.4
2025-09-27T21:43	10	-1	0.1	-1	0	338	0.3	338	339	8.5	93.3
2025-09-27T21:44	10	0	0.2	-1	0	338	0.3	338	339	8.5	93.2
2025-09-27T21:45	10	0	0.2	-1	0	338	0.4	337	339	8.3	93.5
2025-09-27T21:46	10	0	0.2	-1	0	338	0.3	337	339	8.2	93.9
2025-09-27T21:47	10	0	0.2	-1	0	338	0.3	337	339	8.3	94.2
2025-09-27T21:48	10	0	0.1	-1	0	338	0.3	337	338	8.3	94.3
2025-09-27T21:49	10	0	0.2	-1	0	337	0.3	336	338	8.2	94.4
2025-09-27T21:50	10	0	0.1	-1	0	337	0.4	337	338	8.1	94.7
2025-09-27T21:51	10	0	0.2	-1	0	337	0.3	336	338	7.9	95.2
2025-09-27T21:52	10	0	0.2	-1	0	337	0.4	336	338	7.7	95.6
2025-09-27T21:53	10	0	0.2	-1	0	336	0.3	335	337	7.6	95.9
2025-09-27T21:54	10	0	0.2	-1	0	336	0.3	336	337	7.8	95.8
2025-09-27T21:55	10	0	0.1	-1	0	336	0.5	336	337	7.8	96.4
2025-09-27T21:56	10	0	0.1	-1	0	337	0.3	336	337	8.0	96.1
2025-09-27T21:57	10	0	0.1	-1	0	336	0.3	336	337	8.0	96.3
2025-09-27T21:58	10	0	0.1	-1	0	336	0.2	336	336	7.8	96.3
2025-09-27T21:59	10	0	0.1	-1	0	336	0.5	334	336	7.8	96.4
2025-09-27T22:00	10	0	0.1	-1	0	335	0.4	334	336	7.7	96.6
2025-09-27T22:01	10	0	0.2	-1	0	335	0.2	335	336	7.8	96.4
2025-09-27T22:02	10	0	0.1	-1	0	335	0.3	334	336	7.7	96.6
2025-09-27T22:03	10	0	0.1	-1	0	335	0.2	334	335	7.7	96.7
2025-09-27T22:04	10	0	0.1	-1	0	335	0.2	335	336	7.8	96.7
2025-09-27T22:05	10	0	0.1	-1	0	335	0.2	334	335	7.9	96.7
2025-09-27T22:06	10	0	0.1	-1	0	335	0.2	335	336	7.9	96.7
2025-09-27T22:07	10	0	0.1	-1	0	335	0.2	335	335	8.0	96.4
2025-09-27T22:08	10	0	0.1	-1	0	335	0.2	335	335	8.2	96.2
2025-09-27T22:09	10	0	0.1	0	0	335	0.2	334	335	8.2	95.9
2025-09-27T22:10	10	0	0.1	0	0	334	0.3	334	335	8.2	95.6
2025-09-27T22:11	10	0	0.1	0	0	335	0.2	334	335	8.1	95.7
2025-09-27T22:12	10	0	0.0	0	0	335	0.2	334	335	7.9	96.0
2025-09-27T22:13	10	0	0.1	0	0	335	0.2	334	335	7.8	96.3
2025-09-27T22:14	10	0	0.1	0	0	335	0.2	335	336	7.8	96.2
2025-09-27T22:15	10	0	0.1	0	0	335	0.2	334	335	7.8	96.8
2025-09-27T22:16	10	0	0.1	0	0	334	0.3	334	335	7.6	97.4
2025-09-27T22:17	10	0	0.1	0	0	334	0.2	333	334	7.4	97.4
2025-09-27T22:18	10	0	0.0	0	0	334	0.2	333	334	7.5	97.1
2025-09-27T22:19	10	0	0.0	0	0	333	0.2	333	334	7.5	97.4
2025-09-27T22:20	10	0	0.1	0	0	333	0.2	333	334	7.3	97.8
2025-09-27T22:21	10	0	0.0	0	0	333	0.3	333	334	7.3	97.4
2025-09-27T22:22	10	0	0.1	0	0	333	0.2	333	334	7.4	97.3
2025-09-27T22:23	10	0	0.1	0	0	333	0.2	333	334	7.6	97.8
2025-09-27T22:24	10	0	0.1	0	0	334	0.3	333	334	7.7	98.1
2025-09-27T22:25	10	0	0.1	-1	0	333	0.2	333	334	7.7	98.2
2025-09-27T22:26	10	0	0.1	0	0	333	0.3	332	333	7.7	98.5
2025-09-27T22:27	10	0	0.0	0	0	333	0.2	332	333	7.5	98.6
2025-09-27T22:28	10	0	0.1	0	0	333	0.2	332	333	7.5	98.6
2025-09-27T22:29	10	0	0.1	0	0	333	0.2	333	333	7.4	98.5
2025-09-27T22:30	10	0	0.0	0	0	333	0.2	332	334	7.5	98.4
2025-09-27T22:31	10	0	0.1	0	0	333	0.3	332	334	7.5	98.2
2025-09-27T22:32	10	0	0.1	0	0	333	0.2	333	334	7.6	98.0
2025-09-27T22:33	10	0	0.0	0	0	333	0.3	332	333	7.6	98.3
2025-09-27T22:34	10	0	0.1	0	0	333	0.2	332	333	7.4	99.2
2025-09-27T22:35	10	0	0.1	0	0	332	0.2	332	333	7.3	98.8
2025-09-27T22:36	10	0	0.1	0	0	332	0.2	332	333	7.4	98.3
2025-09-27T22:37	10	0	0.1	0	0	333	0.2	332	333	7.4	98.3
2025-09-27T22:38	10	0	0.1	0	0	333	0.3	332	334	7.3	98.7
2025-09-27T22:39	10	0	0.1	-1	0	333	0.2	332	333	7.3	98.5
2025-09-27T22:40	10	-1	0.1	-1	0	332	0.2	332	333	7.3	98.8
2025-09-27T22:41	10	0	0.1	-1	0	333	0.2	332	333	7.1	98.8
2025-09-27T22:42	10	-1	0.1	-1	0	332	0.2	332	333	7.2	98.6
2025-09-27T22:43	10	-1	0.1	-1	0	332	0.2	332	332	7.2	99.0
2025-09-27T22:44	10	-1	0.1	-1	0	332	0.2	331	332	7.2	99.3
2025-09-27T22:45	10	-1	0.1	-1	0	332	0.3	331	333	7.2	99.1
2025-09-27T22:46	10	-1	0.1	-1	0	332	0.2	332	333	7.2	98.8
2025-09-27T22:47	10	-1	0.1	-1	0	332	0.2	332	332	7.2	98.9
2025-09-27T22:48	10	-1	0.1	-1	0	333	0.2	332	333	7.2	99.1
2025-09-27T22:49	10	-1	0.0	-1	0	333	0.3	332	333	7.3	99.2
2025-09-27T22:50	10	-1	0.1	-1	0	333	0.2	332	333	7.3	99.4
2025-09-27T22:51	10	-1	0.1	-1	0	333	0.2	332	333	7.3	99.1
2025-09-27T22:52	10	-1	0.1	-1	0	333	0.2	332	333	7.3	99.2
2025-09-27T22:53	10	-1	0.1	-1	0	333	0.2	332	333	7.3	99.9
2025-09-27T22:54	10	-1	0.1	-1	0	333	0.2	332	333	7.2	100.2
2025-09-27T22:55	10	-1	0.1	-1	0	333	0.3	332	333	7.3	99.9
2025-09-27T22:56	10	-1	0.1	-1	0	333	0.2	333	333	7.3	98.9
2025-09-27T22:57	10	-1	0.1	-1	0	334	0.3	333	334	7.4	98.7
2025-09-27T22:58	10	-1	0.1	-1	0	334	0.3	334	335	7.5	98.8
2025-09-27T22:59	10	-1	0.1	-1	0	335	0.2	334	335	7.5	99.0
2025-09-27T23:00	10	-1	0.1	-1	0	335	0.2	334	335	7.4	98.8
2025-09-27T23:01	10	-1	0.1	-1	0	335	0.2	334	335	7.5	98.8
2025-09-27T23:02	10	0	0.1	-1	0	334	0.3	334	335	7.3	98.6
2025-09-27T23:03	10	-1	0.1	-1	0	334	0.2	334	335	7.3	98.4
2025-09-27T23:04	10	-1	0.1	-1	0	334	0.3	334	335	7.3	98.3
2025-09-27T23:05	10	-1	0.1	-1	0	334	0.2	334	335	7.3	98.3
2025-09-27T23:06	10	-1	0.1	-1	0	334	0.2	334	335	7.1	98.7
2025-09-27T23:07	10	-1	0.1	-1	0	335	0.3	334	335	7.1	98.4
2025-09-27T23:08	10	-1	0.1	-1	0	335	0.3	335	336	7.3	98.3
2025-09-27T23:09	10	-1	0.1	-1	0	334	0.4	333	335	7.3	98.6
2025-09-27T23:10	10	-1	0.1	-1	0	334	0.3	333	334	7.1	98.5
2025-09-27T23:11	10	-1	0.1	-1	0	334	0.2	333	334	7.0	97.9
2025-09-27T23:12	10	-1	0.1	-1	0	334	0.2	333	334	7.2	98.1
2025-09-27T23:13	10	-1	0.1	-1	0	334	0.2	333	334	7.4	98.7
2025-09-27T23:14	10	-1	0.1	-1	0	333	0.3	332	334	7.4	99.2
2025-09-27T23:15	10	0	0.1	-1	0	332	0.3	332	333	7.1	98.8
2025-09-27T23:16	10	0	0.1	-1	0	332	0.2	332	333	7.0	98.5
2025-09-27T23:17	10	0	0.1	-1	0	332	0.3	331	333	7.1	98.4
2025-09-27T23:18	10	-1	0.1	-1	0	332	0.2	332	333	7.3	98.1
2025-09-27T23:19	10	-1	0.1	-1	0	332	0.4	331	333	7.5	97.9
2025-09-27T23:20	10	-1	0.1	-1	0	332	0.2	331	332	7.6	98.2
2025-09-27T23:21	10	0	0.1	-1	0	332	0.3	331	332	7.4	98.3
2025-09-27T23:22	10	0	0.1	-1	0	331	0.3	330	332	7.2	98.1
2025-09-27T23:23	10	0	0.1	-1	0	331	0.2	330	331	7.2	97.7
2025-09-27T23:24	10	-1	0.1	-1	0	331	0.3	330	331	7.2	97.8
2025-09-27T23:25	10	0	0.1	-1	0	331	0.2	330	331	7.1	97.7
2025-09-27T23:26	10	-1	0.1	-1	0	331	0.2	331	332	7.1	97.8
2025-09-27T23:27	10	-1	0.1	-1	0	332	0.3	331	332	7.0	97.8
2025-09-27T23:28	10	-1	0.1	-1	0	331	0.2	331	332	7.0	98.1
2025-09-27T23:29	10	0	0.1	-1	0	332	0.2	331	332	6.9	98.2
2025-09-27T23:30	10	0	0.1	-1	0	331	0.3	331	332	6.8	98.5
2025-09-27T23:31	10	0	0.1	-1	0	332	0.3	331	332	6.7	98.4
2025-09-27T23:32	10	0	0.1	-1	0	332	0.3	331	332	6.8	98.7
2025-09-27T23:33	10	0	0.1	-1	0	332	0.2	331	332	6.8	98.8
2025-09-27T23:34	10	0	0.1	-1	0	332	0.2	332	333	6.8	98.8
2025-09-27T23:35	10	0	0.1	-1	0	333	0.3	332	334	6.8	98.8
2025-09-27T23:36	10	-1	0.1	-1	0	333	0.2	333	334	6.8	99.2
2025-09-27T23:37	10	-1	0.1	-1	0	333	0.2	333	334	6.8	99.0
2025-09-27T23:38	10	0	0.1	-1	0	333	0.3	332	333	6.8	99.4
2025-09-27T23:39	10	0	0.1	-1	0	332	0.3	331	333	6.8	99.3
2025-09-27T23:40	10	0	0.1	-1	0	332	0.2	331	332	6.7	99.2
2025-09-27T23:41	10	0	0.1	-1	0	332	0.3	331	332	6.8	99.0
2025-09-27T23:42	10	0	0.0	-1	0	332	0.2	331	332	6.7	98.9
2025-09-27T23:43	10	0	0.1	-1	0	332	0.2	331	332	6.7	99.1
2025-09-27T23:44	10	0	0.1	-1	0	332	0.3	331	333	6.6	98.9
2025-09-27T23:45	10	0	0.1	-1	0	332	0.2	331	332	6.7	99.0
2025-09-27T23:46	10	0	0.1	-1	0	332	0.2	331	332	6.6	99.3
2025-09-27T23:47	10	0	0.1	-1	0	332	0.3	331	332	6.6	99.3
2025-09-27T23:48	10	-1	0.1	-1	0	332	0.2	331	332	6.5	99.5
2025-09-27T23:49	10	-1	0.1	-1	0	332	0.2	331	332	6.5	99.1
2025-09-27T23:50	10	-1	0.1	-1	0	331	0.2	331	332	6.6	98.9
2025-09-27T23:51	10	0	0.1	-1	0	331	0.3	330	332	6.7	99.1
2025-09-27T23:52	10	-1	0.1	-1	0	331	0.3	330	331	6.8	98.9
2025-09-27T23:53	10	-1	0.1	-1	0	331	0.2	330	331	6.9	99.3
2025-09-27T23:54	10	-1	0.1	-1	0	331	0.3	330	331	7.0	99.2
2025-09-27T23:55	10	0	0.1	-1	0	330	0.3	330	331	6.9	99.4
2025-09-27T23:56	10	0	0.2	-1	1	330	0.4	330	331	6.7	99.3
2025-09-27T23:57	10	-1	0.1	-1	0	331	0.2	331	331	6.9	98.9
2025-09-27T23:58	10	-1	0.1	-1	0	331	0.2	331	332	6.9	99.1
2025-09-27T23:59	10	-1	0.1	-1	0	331	0.3	330	332	6.9	99.2
2025-09-28T00:00	10	-1	0.2	-1	1	331	0.4	330	332	6.9	99.0
2025-09-28T00:01	10	-1	0.1	-1	0	331	0.2	330	331	6.9	99.1
2025-09-28T00:02	10	-1	0.1	-1	0	331	0.2	330	331	6.7	99.3
2025-09-28T00:03	10	-1	0.0	-1	0	331	0.2	330	331	6.8	99.0
2025-09-28T00:04	10	-1	0.1	-1	0	331	0.3	330	331	6.9	98.8
2025-09-28T00:05	10	-1	0.1	-1	0	330	0.2	330	331	7.0	99.1
2025-09-28T00:06	10	-1	0.1	-1	0	330	0.2	329	330	6.9	99.2
2025-09-28T00:07	10	-1	0.1	-1	0	330	0.2	330	330	6.8	99.0
2025-09-28T00:08	10	-1	0.1	-1	0	330	0.2	329	331	6.6	98.7
2025-09-28T00:09	10	-1	0.1	-1	0	331	0.3	330	332	6.6	99.0
2025-09-28T00:10	10	-1	0.0	-1	-1	331	0.2	331	332	6.8	99.1
2025-09-28T00:11	10	-1	0.1	-1	0	331	0.2	331	332	6.8	99.3
2025-09-28T00:12	10	-1	0.1	-1	-1	332	0.3	332	333	6.6	99.5
2025-09-28T00:13	10	-1	0.1	-1	-1	332	0.2	332	333	6.6	98.9
2025-09-28T00:14	10	-1	0.1	-1	-1	333	0.3	332	333	6.6	99.1
2025-09-28T00:15	10	-1	0.1	-1	-1	333	0.2	332	333	6.7	99.5
2025-09-28T00:16	10	-1	0.1	-1	-1	333	0.2	332	333	6.6	99.9
2025-09-28T00:17	10	-1	0.1	-1	-1	333	0.2	332	333	6.3	99.9
2025-09-28T00:18	10	-1	0.1	-1	-1	332	0.2	332	333	6.2	99.6
2025-09-28T00:19	10	-1	0.1	-1	-1	332	0.2	332	333	6.2	99.4
2025-09-28T00:20	10	-1	0.1	-1	-1	332	0.3	331	333	6.3	99.3
2025-09-28T00:21	10	-1	0.3	-1	1	332	0.2	332	333	6.4	99.6
2025-09-28T00:22	10	-1	0.1	-1	-1	332	0.3	332	333	6.4	99.5
2025-09-28T00:23	10	-1	0.1	-1	-1	333	0.4	332	333	6.5	99.6
2025-09-28T00:24	10	-1	0.1	-1	-1	333	0.2	332	333	6.6	99.6
2025-09-28T00:25	10	-1	0.1	-1	-1	333	0.2	332	333	6.6	99.6
2025-09-28T00:26	10	-1	0.1	-1	-1	333	0.2	333	334	6.5	99.7
2025-09-28T00:27	10	-1	0.0	-1	-1	333	0.2	333	334	6.5	99.4
2025-09-28T00:28	10	-1	0.1	-1	-1	333	0.3	332	333	6.3	99.7
2025-09-28T00:29	10	-1	0.1	-1	-1	333	0.3	332	333	6.4	99.1
2025-09-28T00:30	10	-1	0.1	-1	-1	332	0.2	332	333	6.5	99.7
2025-09-28T00:31	10	-1	0.1	-1	-1	331	0.2	331	332	6.4	99.7
2025-09-28T00:32	10	-1	0.1	-1	0	331	0.2	331	332	6.3	99.3
2025-09-28T00:33	10	-1	0.1	-1	0	331	0.3	330	332	6.4	99.2
2025-09-28T00:34	10	-1	0.0	-1	-1	331	0.2	330	331	6.5	99.1
2025-09-28T00:35	10	-1	0.1	-1	-1	331	0.2	330	331	6.5	99.3
2025-09-28T00:36	10	-1	0.1	-1	-1	330	0.2	330	331	6.6	99.4
2025-09-28T00:37	10	-1	0.1	-1	-1	330	0.3	329	330	6.5	100.0
2025-09-28T00:38	10	-1	0.1	-1	0	330	0.3	330	331	6.5	99.3
2025-09-28T00:39	10	-1	0.1	-1	-1	330	0.3	330	331	6.7	99.4
2025-09-28T00:40	10	-1	0.1	-1	0	330	0.5	329	331	6.6	100.1
2025-09-28T00:41	10	0	0.1	-1	0	329	0.2	328	330	6.2	100.3
2025-09-28T00:42	10	-1	0.1	-1	0	329	0.2	328	329	6.2	99.5
2025-09-28T00:43	10	0	0.1	-1	0	328	0.2	328	329	6.2	100.2
2025-09-28T00:44	10	0	0.1	-1	0	328	0.3	328	329	6.0	100.4
2025-09-28T00:45	10	0	0.1	-1	0	328	0.3	328	329	6.0	100.0
2025-09-28T00:46	10	0	0.1	-1	0	329	0.5	328	329	6.0	99.6
2025-09-28T00:47	10	-1	0.1	-1	0	329	0.3	329	330	6.5	98.6
2025-09-28T00:48	10	0	0.1	-1	0	329	0.4	328	330	6.6	99.3
2025-09-28T00:49	10	-1	0.1	-1	0	330	0.3	329	330	6.5	99.5
2025-09-28T00:50	10	-1	0.2	-1	0	330	0.3	329	331	6.6	99.3
2025-09-28T00:51	10	-1	0.1	-1	0	329	0.2	329	330	6.6	99.8
2025-09-28T00:52	10	-1	0.1	-1	0	330	0.2	329	330	6.5	99.9
2025-09-28T00:53	10	-1	0.1	-1	0	329	0.3	329	330	6.4	99.9
2025-09-28T00:54	10	0	0.1	-1	0	329	0.2	329	330	6.4	99.9
2025-09-28T00:55	10	0	0.1	-1	0	329	0.2	329	329	6.3	99.8
2025-09-28T00:56	10	-1	0.1	-1	0	329	0.3	329	330	6.3	99.8
2025-09-28T00:57	10	-1	0.1	-1	0	329	0.3	329	330	6.4	99.8
2025-09-28T00:58	10	-1	0.1	-1	0	329	0.3	328	329	6.4	100.4
2025-09-28T00:59	10	-1	0.1	-1	0	328	0.2	327	329	6.3	100.4
2025-09-28T01:00	10	0	0.1	-1	0	328	0.2	327	328	6.2	101.0
2025-09-28T01:01	10	-1	0.2	-1	0	328	0.3	327	328	6.1	101.1
2025-09-28T01:02	10	-1	0.1	-1	0	328	0.2	327	328	6.0	100.9
2025-09-28T01:03	10	-1	0.1	-1	0	327	0.2	327	328	6.0	100.2
2025-09-28T01:04	10	-1	0.1	-1	0	327	0.3	327	328	6.1	100.3
2025-09-28T01:05	10	-1	0.1	-1	0	328	0.4	327	328	6.1	100.3
2025-09-28T01:06	10	-1	0.1	-1	0	328	0.2	328	328	6.1	100.4
2025-09-28T01:07	10	-1	0.1	-1	0	328	0.3	328	329	6.2	100.8
2025-09-28T01:08	10	-1	0.1	-1	0	328	0.2	328	329	6.3	100.9
2025-09-28T01:09	10	-1	0.1	-1	0	328	0.2	328	329	6.4	100.6
2025-09-28T01:10	10	-1	0.1	-1	0	329	0.3	328	329	6.5	100.4
2025-09-28T01:11	10	-1	0.1	-1	0	328	0.2	328	329	6.5	100.2
2025-09-28T01:12	10	-1	0.1	-1	0	329	0.2	328	329	6.5	99.9
2025-09-28T01:13	10	-1	0.1	-1	0	329	0.2	328	329	6.4	99.6
2025-09-28T01:14	10	-1	0.1	-1	0	328	0.2	328	329	6.4	99.9
2025-09-28T01:15	10	-1	0.1	-1	0	328	0.3	328	329	6.3	100.1
2025-09-28T01:16	10	-1	0.1	-1	0	328	0.2	328	329	6.2	99.6
2025-09-28T01:17	10	0	0.1	-1	0	329	0.4	328	329	6.0	99.4
2025-09-28T01:18	10	-1	0.1	-1	0	330	0.9	329	332	5.9	99.0
2025-09-28T01:19	10	-1	0.1	-1	0	332	0.4	331	333	5.9	99.6
2025-09-28T01:20	10	-1	0.1	-1	0	333	0.2	333	333	5.9	99.7
2025-09-28T01:21	10	-1	0.2	-1	0	333	0.3	333	334	5.9	99.8
2025-09-28T01:22	10	-1	0.1	-1	0	333	0.4	332	335	5.8	100.2
2025-09-28T01:23	10	-1	0.1	-1	0	333	0.3	333	334	5.7	100.2
2025-09-28T01:24	10	-1	0.1	-1	0	332	0.3	332	333	5.6	100.7
2025-09-28T01:25	10	-1	0.2	-1	0	332	0.2	331	332	5.7	100.4
2025-09-28T01:26	10	-1	0.1	-1	0	331	0.3	330	332	5.8	100.2
2025-09-28T01:27	10	-1	0.1	-1	0	331	0.3	330	332	5.9	100.2
2025-09-28T01:28	10	0	0.2	-1	0	331	0.3	330	331	5.8	100.2
2025-09-28T01:29	10	0	0.1	-1	0	330	0.2	330	331	5.7	100.5
2025-09-28T01:30	10	0	0.1	-1	0	329	0.2	329	330	5.7	100.5
2025-09-28T01:31	10	0	0.1	-1	0	329	0.2	328	330	5.6	101.3
2025-09-28T01:32	10	0	0.1	-1	0	329	0.2	329	330	5.6	101.4
2025-09-28T01:33	10	0	0.1	-1	0	329	0.3	328	330	5.7	100.6
2025-09-28T01:34	10	0	0.1	-1	0	329	0.2	329	330	5.9	100.2
2025-09-28T01:35	10	-1	0.2	-1	0	329	0.4	329	330	5.9	99.9
2025-09-28T01:36	10	-1	0.1	-1	0	330	0.5	329	331	6.1	100.0
2025-09-28T01:37	10	0	0.1	-1	0	331	0.4	330	332	6.1	100.2
2025-09-28T01:38	10	-1	0.1	-1	0	332	0.3	332	333	6.2	100.2
2025-09-28T01:39	10	0	0.1	-1	0	333	0.2	332	333	6.2	100.4
2025-09-28T01:40	10	0	0.1	-1	0	333	0.2	332	333	6.2	100.0
2025-09-28T01:41	10	0	0.1	-1	0	333	0.3	332	334	6.3	99.7
2025-09-28T01:42	10	0	0.1	-1	0	333	0.2	333	334	6.3	99.9
2025-09-28T01:43	10	-1	0.1	-1	0	334	0.2	333	334	6.3	100.0
2025-09-28T01:44	10	0	0.1	-1	0	334	0.2	333	334	6.3	100.4
2025-09-28T01:45	10	0	0.1	-1	0	334	0.2	333	335	6.3	100.4
2025-09-28T01:46	10	-1	0.1	-1	0	334	0.3	334	335	6.4	100.3
2025-09-28T01:47	10	0	0.1	-1	0	334	0.3	333	334	6.5	100.6
2025-09-28T01:48	10	0	0.1	-1	0	334	0.3	333	334	6.5	100.5
2025-09-28T01:49	10	0	0.1	-1	0	333	0.4	332	334	6.4	100.8
2025-09-28T01:50	10	0	0.1	-1	0	333	0.3	333	334	6.3	100.5
2025-09-28T01:51	10	0	0.1	-1	0	334	0.5	333	335	6.4	100.3
2025-09-28T01:52	10	0	0.1	-1	0	335	0.3	335	336	6.4	100.7
2025-09-28T01:53	10	-1	0.1	-1	0	336	0.3	335	337	6.4	100.8
2025-09-28T01:54	10	-1	0.1	-1	0	337	0.4	336	338	6.4	100.8
2025-09-28T01:55	10	0	0.1	-1	0	338	0.3	338	339	6.4	101.2
2025-09-28T01:56	10	-1	0.1	-1	0	339	0.2	338	339	6.3	101.4
2025-09-28T01:57	10	0	0.1	-1	0	339	0.2	339	340	6.3	101.3
2025-09-28T01:58	10	0	0.1	-1	0	339	0.2	339	339	6.3	101.2
2025-09-28T01:59	10	0	0.1	-1	0	339	0.2	338	339	6.2	101.7
2025-09-28T02:00	10	0	0.0	0	0	339	0.2	338	339	6.2	101.9
2025-09-28T02:01	10	0	0.1	0	0	339	0.2	338	339	6.1	101.8
2025-09-28T02:02	10	0	0.1	0	0	339	0.2	338	339	6.1	101.6
2025-09-28T02:03	10	0	0.1	-1	0	339	0.2	338	339	6.2	101.7
2025-09-28T02:04	10	0	0.1	-1	0	338	0.3	338	339	6.1	102.0
2025-09-28T02:05	10	0	0.1	0	0	338	0.2	338	339	6.0	102.0
2025-09-28T02:06	10	0	0.2	0	1	338	0.2	338	339	5.9	101.8
2025-09-28T02:07	10	0	0.1	-1	0	338	0.3	338	339	5.9	101.8
2025-09-28T02:08	10	0	0.1	-1	0	339	0.2	338	339	5.9	101.8
2025-09-28T02:09	10	0	0.1	-1	0	339	0.2	338	339	5.9	102.1
2025-09-28T02:10	10	0	0.1	-1	0	339	0.2	338	339	5.9	102.2
2025-09-28T02:11	10	0	0.1	-1	0	339	0.2	338	339	5.9	102.3
2025-09-28T02:12	10	0	0.1	0	0	339	0.2	338	339	6.0	102.0
2025-09-28T02:13	10	0	0.1	0	0	338	0.2	338	339	5.9	101.9
2025-09-28T02:14	10	0	0.0	0	0	338	0.2	338	339	5.9	102.0
2025-09-28T02:15	10	0	0.1	0	0	338	0.2	338	339	5.9	101.9
2025-09-28T02:16	10	0	0.1	-1	0	338	0.2	337	338	5.8	101.6
2025-09-28T02:17	10	0	0.1	-1	0	338	0.2	337	338	5.8	101.5
2025-09-28T02:18	10	0	0.1	-1	0	337	0.3	337	338	5.8	101.5
2025-09-28T02:19	10	0	0.1	-1	0	337	0.2	337	338	5.8	101.4
2025-09-28T02:20	10	0	0.1	-1	0	337	0.2	337	338	5.8	101.2
2025-09-28T02:21	10	0	0.1	-1	0	337	0.2	337	338	5.8	101.4
2025-09-28T02:22	10	0	0.1	-1	0	337	0.3	337	338	5.8	101.7
2025-09-28T02:23	10	0	0.1	-1	0	337	0.2	336	337	5.8	101.8
2025-09-28T02:24	10	0	0.1	0	0	337	0.2	336	337	5.8	101.7
2025-09-28T02:25	10	0	0.1	-1	0	336	0.3	336	337	5.7	101.8
2025-09-28T02:26	10	0	0.1	-1	0	336	0.2	336	337	5.7	101.6
2025-09-28T02:27	10	0	0.1	-1	0	336	0.2	336	337	5.7	101.3
2025-09-28T02:28	10	0	0.1	-1	0	336	0.2	336	337	5.7	101.4
2025-09-28T02:29	10	0	0.1	-1	0	336	0.2	336	336	5.7	101.3
2025-09-28T02:30	10	0	0.1	-1	0	336	0.2	335	337	5.8	101.0
2025-09-28T02:31	10	0	0.1	-1	0	335	0.3	335	336	5.8	101.2
2025-09-28T02:32	10	0	0.1	-1	0	335	0.3	334	335	5.8	101.4
2025-09-28T02:33	10	0	0.1	-1	0	334	0.3	333	335	5.8	101.1
2025-09-28T02:34	10	0	0.1	-1	0	334	0.3	333	334	5.9	101.2
2025-09-28T02:35	10	0	0.1	-1	0	333	0.2	332	333	5.9	101.2
2025-09-28T02:36	10	0	0.1	-1	0	332	0.2	332	333	5.9	101.4
2025-09-28T02:37	10	0	0.1	-1	0	332	0.2	332	333	5.9	101.2
2025-09-28T02:38	10	0	0.1	-1	0	332	0.2	332	333	5.9	101.1
2025-09-28T02:39	10	-1	0.0	-1	0	333	0.4	332	334	5.9	101.1
2025-09-28T02:40	10	-1	0.1	-1	0	335	0.4	334	335	6.0	100.8
2025-09-28T02:41	10	0	0.2	-1	1	336	0.3	335	336	5.9	101.1
2025-09-28T02:42	10	0	0.1	-1	0	336	0.2	336	336	5.8	101.1
2025-09-28T02:43	10	0	0.1	-1	0	336	0.2	336	337	5.9	101.0
2025-09-28T02:44	10	0	0.1	-1	0	336	0.2	336	336	5.9	101.1
2025-09-28T02:45	10	0	0.1	-1	0	336	0.2	335	336	5.9	101.2
2025-09-28T02:46	10	-1	0.1	-1	0	335	0.2	335	336	5.9	101.2
2025-09-28T02:47	10	0	0.1	-1	0	335	0.2	334	335	5.9	101.2
2025-09-28T02:48	10	0	0.1	-1	0	335	0.2	334	335	5.8	101.3
2025-09-28T02:49	10	0	0.1	-1	0	335	0.2	335	336	5.8	101.6
2025-09-28T02:50	10	0	0.1	-1	0	336	0.4	335	337	5.8	101.3
2025-09-28T02:51	10	0	0.1	-1	0	337	0.3	336	338	5.8	101.3
2025-09-28T02:52	10	0	0.1	-1	0	337	0.2	337	338	5.7	101.4
2025-09-28T02:53	10	0	0.1	-1	0	338	0.3	338	339	5.7	101.6
2025-09-28T02:54	10	0	0.1	-1	0	339	0.3	338	339	5.6	101.8
2025-09-28T02:55	10	0	0.1	-1	0	340	0.4	339	341	5.6	102.2
2025-09-28T02:56	10	0	0.1	-1	0	340	0.3	340	341	5.6	101.7
2025-09-28T02:57	10	0	0.1	-1	0	341	0.3	341	342	5.7	101.4
2025-09-28T02:58	10	0	0.1	-1	0	342	0.3	341	342	5.8	101.2
2025-09-28T02:59	10	0	0.1	0	0	342	0.3	342	343	5.8	101.0
2025-09-28T03:00	10	0	0.1	-1	0	343	0.3	342	343	5.8	100.9
2025-09-28T03:01	10	0	0.1	-1	0	343	0.2	343	343	5.9	100.9
2025-09-28T03:02	10	0	0.1	0	0	343	0.2	343	344	5.8	100.9
2025-09-28T03:03	10	0	0.1	-1	0	343	0.2	343	344	5.8	101.0
2025-09-28T03:04	10	0	0.1	-1	0	343	0.2	343	344	5.8	101.2
2025-09-28T03:05	10	0	0.1	-1	0	342	0.2	342	343	5.8	100.8
2025-09-28T03:06	10	0	0.1	0	0	342	0.2	342	343	5.8	101.0
2025-09-28T03:07	10	0	0.1	0	0	342	0.2	341	342	5.8	100.8
2025-09-28T03:08	10	0	0.1	0	0	342	0.3	341	343	5.7	100.6
2025-09-28T03:09	10	0	0.1	0	0	342	0.2	342	343	5.7	100.6
2025-09-28T03:10	10	0	0.1	0	0	342	0.2	342	343	5.8	100.1
2025-09-28T03:11	10	0	0.1	0	0	343	0.2	342	343	5.8	100.5
2025-09-28T03:12	10	0	0.1	0	0	343	0.3	342	343	5.7	100.5
2025-09-28T03:13	10	0	0.1	0	0	343	0.2	343	344	5.7	100.7
2025-09-28T03:14	10	0	0.1	0	0	344	0.2	343	344	5.7	100.6
2025-09-28T03:15	10	0	0.1	0	0	344	0.2	343	344	5.7	100.5
2025-09-28T03:16	10	0	0.1	0	0	344	0.2	343	344	5.7	100.5
2025-09-28T03:17	10	0	0.1	0	0	344	0.2	343	345	5.7	100.5
2025-09-28T03:18	10	0	0.1	0	0	344	0.2	344	345	5.7	100.6
2025-09-28T03:19	10	0	0.1	-1	0	344	0.3	343	345	5.7	100.6
2025-09-28T03:20	10	0	0.1	-1	0	344	0.3	344	345	5.8	100.5
2025-09-28T03:21	10	0	0.1	-1	0	344	0.2	344	344	5.8	100.4
2025-09-28T03:22	10	0	0.1	0	0	344	0.2	344	345	5.9	100.2
2025-09-28T03:23	10	0	0.1	0	0	344	0.2	344	345	5.9	100.3
2025-09-28T03:24	10	0	0.1	-1	0	344	0.2	343	345	5.8	100.6
2025-09-28T03:25	10	0	0.1	0	0	344	0.2	344	345	5.8	100.7
2025-09-28T03:26	10	0	0.1	-1	0	345	0.2	344	345	6.0	100.3
2025-09-28T03:27	10	0	0.1	-1	0	345	0.3	344	345	6.0	100.3
2025-09-28T03:28	10	0	0.1	0	0	345	0.2	344	345	6.1	100.2
2025-09-28T03:29	10	0	0.1	-1	0	345	0.2	344	345	6.1	100.3
2025-09-28T03:30	10	0	0.1	-1	0	345	0.3	345	346	6.2	99.7
2025-09-28T03:31	10	0	0.1	-1	0	345	0.2	345	346	6.3	100.1
2025-09-28T03:32	10	0	0.1	-1	0	345	0.2	345	346	6.3	100.2
2025-09-28T03:33	10	0	0.1	-1	0	345	0.2	345	346	6.2	100.3
2025-09-28T03:34	10	0	0.1	-1	0	345	0.2	345	346	6.1	100.0
2025-09-28T03:35	10	0	0.1	0	0	345	0.2	345	346	6.1	99.9
2025-09-28T03:36	10	0	0.1	-1	0	345	0.2	345	346	6.1	100.0
2025-09-28T03:37	10	0	0.1	-1	0	345	0.2	345	346	6.1	100.0
2025-09-28T03:38	10	0	0.1	0	0	346	0.3	345	346	6.1	99.9
2025-09-28T03:39	10	0	0.1	-1	0	346	0.2	345	346	6.1	100.0
2025-09-28T03:40	10	0	0.1	-1	0	346	0.2	345	346	6.1	100.0
2025-09-28T03:41	10	0	0.1	0	0	346	0.2	345	346	6.1	99.9
2025-09-28T03:42	10	0	0.1	-1	0	346	0.2	345	346	6.1	99.8
2025-09-28T03:43	10	0	0.1	-1	0	346	0.1	345	346	6.1	99.7
2025-09-28T03:44	10	0	0.1	-1	0	345	0.3	345	346	6.2	99.8
2025-09-28T03:45	10	0	0.1	-1	0	346	0.2	345	346	6.2	99.9
2025-09-28T03:46	10	0	0.1	-1	0	346	0.2	345	346	6.2	100.1
2025-09-28T03:47	10	-1	0.1	-1	0	346	0.2	345	346	6.3	100.1
2025-09-28T03:48	10	-1	0.1	-1	0	346	0.2	345	346	6.3	100.4
2025-09-28T03:49	10	0	0.1	-1	0	346	0.2	345	346	6.3	100.4
2025-09-28T03:50	10	-1	0.1	-1	0	346	0.3	345	346	6.3	100.7
2025-09-28T03:51	10	-1	0.1	-1	0	346	0.2	345	347	6.3	100.6
2025-09-28T03:52	10	0	0.1	-1	0	346	0.2	346	346	6.4	100.9
2025-09-28T03:53	10	0	0.1	-1	0	346	0.2	346	347	6.4	101.0
2025-09-28T03:54	10	0	0.1	-1	0	346	0.2	346	347	6.3	101.1
2025-09-28T03:55	10	0	0.1	-1	0	346	0.2	346	347	6.4	101.1
2025-09-28T03:56	10	0	0.1	-1	0	347	0.2	346	347	6.4	101.2
2025-09-28T03:57	10	0	0.1	-1	0	347	0.2	346	347	6.4	101.3
2025-09-28T03:58	10	0	0.1	0	0	347	0.3	347	347	6.5	101.2
2025-09-28T03:59	10	0	0.1	-1	0	347	0.2	346	347	6.5	101.1
2025-09-28T04:00	10	0	0.1	0	0	347	0.2	346	348	6.5	101.0
2025-09-28T04:01	10	0	0.1	0	0	347	0.2	347	348	6.5	100.7
2025-09-28T04:02	10	0	0.1	0	0	347	0.3	347	348	6.5	100.7
2025-09-28T04:03	10	0	0.1	0	0	348	0.3	347	348	6.6	100.8
2025-09-28T04:04	10	0	0.1	-1	0	348	0.2	347	348	6.6	101.0
2025-09-28T04:05	10	0	0.1	-1	0	348	0.3	347	348	6.6	101.2
2025-09-28T04:06	10	0	0.1	-1	0	348	0.2	347	348	6.6	101.0
2025-09-28T04:07	10	0	0.1	-1	0	348	0.2	347	348	6.6	100.7
2025-09-28T04:08	10	0	0.1	-1	0	348	0.2	347	348	6.6	100.9
2025-09-28T04:09	10	0	0.1	-1	0	348	0.2	347	348	6.6	101.0
2025-09-28T04:10	10	0	0.1	-1	0	348	0.3	347	349	6.6	101.0
2025-09-28T04:11	10	0	0.1	-1	0	348	0.3	348	349	6.7	101.2
2025-09-28T04:12	10	0	0.1	-1	0	348	0.2	348	349	6.7	101.4
2025-09-28T04:13	10	0	0.1	-1	0	348	0.2	348	349	6.7	101.2
2025-09-28T04:14	10	0	0.1	0	0	348	0.2	348	349	6.7	100.7
2025-09-28T04:15	10	0	0.1	-1	0	349	0.2	348	349	6.7	100.6
2025-09-28T04:16	10	0	0.1	-1	0	349	0.3	348	349	6.7	100.4
2025-09-28T04:17	10	0	0.1	-1	0	348	0.3	348	349	6.7	100.8
2025-09-28T04:18	10	0	0.1	-1	0	348	0.2	348	349	6.7	100.8
2025-09-28T04:19	10	0	0.1	-1	0	349	0.2	348	349	6.7	101.0
2025-09-28T04:20	10	0	0.1	-1	0	349	0.2	348	349	6.8	101.5
2025-09-28T04:21	10	0	0.1	-1	0	349	0.3	348	349	6.8	101.5
2025-09-28T04:22	10	0	0.1	-1	0	349	0.3	348	349	6.8	100.4
2025-09-28T04:23	10	0	0.1	-1	0	349	0.3	348	349	6.8	100.1
2025-09-28T04:24	10	0	0.1	-1	0	349	0.3	348	349	6.8	100.1
2025-09-28T04:25	10	0	0.1	-1	0	348	0.2	348	349	6.8	100.5
2025-09-28T04:26	10	0	0.1	-1	0	349	0.2	348	349	6.8	100.6
2025-09-28T04:27	10	0	0.1	-1	0	349	0.2	348	349	6.8	100.6
2025-09-28T04:28	10	0	0.2	-1	0	349	0.3	348	349	6.8	100.2
2025-09-28T04:29	10	0	0.1	-1	0	349	0.2	348	349	6.8	100.2
2025-09-28T04:30	10	0	0.1	-1	0	349	0.3	348	350	6.8	100.1
2025-09-28T04:31	10	0	0.1	-1	0	349	0.2	348	349	6.8	100.1
2025-09-28T04:32	10	0	0.1	-1	0	349	0.3	348	350	6.8	100.0
2025-09-28T04:33	10	0	0.1	-1	0	349	0.2	349	350	6.8	100.0
2025-09-28T04:34	10	0	0.1	-1	0	349	0.3	348	350	6.9	99.9
2025-09-28T04:35	10	0	0.1	-1	0	349	0.2	348	349	6.9	100.0
2025-09-28T04:36	10	0	0.1	-1	0	349	0.2	349	350	6.9	100.2
2025-09-28T04:37	10	0	0.1	-1	0	349	0.3	349	350	6.9	100.1
2025-09-28T04:38	10	0	0.1	-1	0	349	0.2	349	350	6.9	100.1
2025-09-28T04:39	10	0	0.1	0	0	349	0.2	349	350	6.9	100.0
2025-09-28T04:40	10	0	0.1	-1	0	349	0.3	349	350	6.9	99.9
2025-09-28T04:41	10	0	0.1	-1	0	349	0.2	349	350	6.9	100.0
2025-09-28T04:42	10	0	0.1	0	0	349	0.2	349	350	6.9	100.1
2025-09-28T04:43	10	0	0.1	-1	0	349	0.3	349	350	6.9	100.1
2025-09-28T04:44	10	0	0.1	0	0	349	0.2	349	350	6.9	99.9
2025-09-28T04:45	10	0	0.1	0	0	349	0.2	349	350	6.9	99.9
2025-09-28T04:46	10	0	0.1	0	0	349	0.2	349	350	6.9	99.9
2025-09-28T04:47	10	0	0.1	0	0	349	0.2	348	350	6.9	99.7
2025-09-28T04:48	10	0	0.1	0	0	349	0.2	349	350	6.9	99.7
2025-09-28T04:49	10	0	0.1	0	0	349	0.2	348	350	6.9	99.7
2025-09-28T04:50	10	0	0.1	-1	0	349	0.2	349	350	6.9	99.8
2025-09-28T04:51	10	0	0.1	-1	0	349	0.2	349	350	7.0	99.8
2025-09-28T04:52	10	0	0.1	-1	0	349	0.2	349	350	6.9	99.9
2025-09-28T04:53	10	0	0.1	0	0	349	0.2	349	350	7.0	100.0
2025-09-28T04:54	10	0	0.1	0	0	349	0.2	349	350	7.0	100.1
2025-09-28T04:55	10	0	0.1	0	0	349	0.2	349	350	7.0	99.7
2025-09-28T04:56	10	0	0.1	0	0	349	0.3	349	350	7.0	99.5
2025-09-28T04:57	10	0	0.1	0	0	349	0.2	349	350	7.0	99.7
2025-09-28T04:58	10	0	0.1	0	0	349	0.2	349	350	7.0	99.6
2025-09-28T04:59	10	0	0.1	0	0	349	0.2	349	350	7.0	99.4
2025-09-28T05:00	10	0	0.1	0	0	349	0.2	349	350	7.0	99.4
2025-09-28T05:01	10	0	0.1	0	0	349	0.2	349	350	7.0	99.6
2025-09-28T05:02	10	0	0.0	0	0	349	0.3	349	350	7.0	99.6
2025-09-28T05:03	10	0	0.1	0	0	350	0.2	349	350	7.0	99.6
2025-09-28T05:04	10	0	0.0	0	0	350	0.2	349	350	7.1	99.5
2025-09-28T05:05	10	0	0.1	0	0	350	0.2	349	350	7.1	99.5
2025-09-28T05:06	10	0	0.0	0	0	350	0.3	349	350	7.1	99.4
2025-09-28T05:07	10	0	0.1	0	0	350	0.2	349	350	7.1	99.3
2025-09-28T05:08	10	0	0.0	0	0	350	0.2	349	350	7.1	99.3
2025-09-28T05:09	10	0	0.0	0	0	350	0.2	349	350	7.1	99.3
2025-09-28T05:10	10	0	0.1	0	0	350	0.3	349	351	7.1	99.3
2025-09-28T05:11	10	0	0.0	0	0	350	0.2	349	350	7.1	99.4
2025-09-28T05:12	10	0	0.0	0	0	350	0.2	349	350	7.1	99.4
2025-09-28T05:13	10	0	0.0	0	0	350	0.2	349	350	7.1	99.7
2025-09-28T05:14	10	0	0.0	0	0	350	0.2	349	350	7.1	99.8
2025-09-28T05:15	10	0	0.0	0	0	350	0.2	350	351	7.1	99.8
2025-09-28T05:16	10	0	0.1	0	0	350	0.2	349	350	7.1	99.6
2025-09-28T05:17	10	0	0.1	0	0	350	0.2	350	350	7.1	99.5
2025-09-28T05:18	10	0	0.1	0	0	350	0.2	350	350	7.1	99.4
2025-09-28T05:19	10	0	0.0	0	0	350	0.2	349	350	7.1	99.4
2025-09-28T05:20	10	0	0.1	0	0	350	0.2	350	350	7.1	99.7
2025-09-28T05:21	10	0	0.0	0	0	350	0.2	349	350	7.1	98.7
2025-09-28T05:22	10	0	0.1	0	0	350	0.2	349	350	7.1	98.3
2025-09-28T05:23	10	0	0.1	0	0	350	0.2	349	350	7.1	98.3
2025-09-28T05:24	10	0	0.1	0	0	350	0.2	349	350	7.2	98.8
2025-09-28T05:25	10	0	0.3	0	2	350	0.2	349	350	7.1	98.6
2025-09-28T05:26	10	0	0.0	0	0	349	0.1	349	350	7.1	98.0
2025-09-28T05:27	10	0	0.0	0	0	350	0.2	349	350	7.2	98.1
2025-09-28T05:28	10	0	0.1	0	0	350	0.2	349	350	7.2	98.2
2025-09-28T05:29	10	0	0.1	0	0	350	0.2	349	350	7.2	98.3
2025-09-28T05:30	10	0	0.1	0	0	349	0.2	349	350	7.2	97.8
2025-09-28T05:31	10	0	0.1	0	0	349	0.2	349	350	7.2	97.9
2025-09-28T05:32	10	0	0.1	0	0	349	0.2	349	350	7.1	97.5
2025-09-28T05:33	10	0	0.1	0	1	349	0.2	349	349	7.2	97.8
2025-09-28T05:34	10	1	0.1	0	1	349	0.2	348	350	7.2	98.7
2025-09-28T05:35	10	1	0.1	1	1	350	0.2	349	350	7.2	98.5
2025-09-28T05:36	10	1	0.1	1	1	350	0.2	349	350	7.1	98.4
2025-09-28T05:37	10	2	0.2	1	2	350	0.2	349	350	7.1	98.2
2025-09-28T05:38	10	2	0.2	2	3	350	0.2	349	350	7.2	98.0
2025-09-28T05:39	10	3	0.2	3	3	349	0.3	349	350	7.2	98.1
2025-09-28T05:40	10	3	0.1	3	3	349	0.3	348	349	7.2	97.9
2025-09-28T05:41	10	3	0.1	3	3	348	0.3	347	349	7.2	98.0
2025-09-28T05:42	10	3	0.2	3	4	347	0.4	346	348	7.2	97.7
2025-09-28T05:43	10	4	0.3	3	4	347	0.2	346	347	7.2	98.1
2025-09-28T05:44	10	5	0.3	4	6	347	0.2	346	347	7.2	98.9
2025-09-28T05:45	10	6	0.5	5	7	347	0.3	346	348	7.2	98.5
2025-09-28T05:46	10	7	0.1	7	7	348	0.3	347	348	7.2	97.9
2025-09-28T05:47	10	7	0.1	7	7	348	0.2	348	349	7.2	97.8
2025-09-28T05:48	10	7	0.1	7	7	348	0.2	348	349	7.3	98.2
2025-09-28T05:49	10	7	0.1	7	7	348	0.2	348	349	7.3	98.2
2025-09-28T05:50	10	7	0.2	6	7	348	0.3	348	349	7.3	97.9
2025-09-28T05:51	10	6	0.1	6	6	348	0.3	347	348	7.2	98.3
2025-09-28T05:52	10	6	0.1	6	6	348	0.2	347	348	7.2	98.2
2025-09-28T05:53	10	6	0.1	5	6	348	0.3	347	348	7.2	97.8
2025-09-28T05:54	10	6	0.2	5	6	347	0.2	347	348	7.2	97.9
2025-09-28T05:55	10	7	0.5	6	8	348	0.2	347	348	7.2	97.7
2025-09-28T05:56	10	9	0.5	8	9	348	0.4	347	349	7.2	98.0
2025-09-28T05:57	10	10	0.1	9	10	349	0.4	348	350	7.2	98.0
2025-09-28T05:58	10	10	0.2	9	10	350	0.4	349	351	7.2	97.8
2025-09-28T05:59	10	8	0.5	7	9	351	0.2	350	351	7.2	97.9
2025-09-28T06:00	10	6	0.4	6	7	351	0.2	351	352	7.2	97.7
2025-09-28T06:01	10	5	0.2	5	6	351	0.2	351	352	7.2	97.9
2025-09-28T06:02	10	5	0.1	5	5	351	0.2	351	352	7.2	97.7
2025-09-28T06:03	10	5	0.1	5	6	352	0.2	351	352	7.2	97.4
2025-09-28T06:04	10	6	0.1	6	6	352	0.2	351	352	7.2	97.6
2025-09-28T06:05	10	6	0.1	6	6	352	0.3	352	353	7.2	97.6
2025-09-28T06:06	10	6	0.2	6	7	352	0.2	352	353	7.2	97.5
2025-09-28T06:07	10	7	0.2	7	7	352	0.2	352	353	7.2	97.7
2025-09-28T06:08	10	7	0.1	7	8	353	0.2	352	353	7.2	98.1
2025-09-28T06:09	10	7	0.2	7	7	353	0.2	353	353	7.2	98.2
2025-09-28T06:10	10	7	0.1	7	7	353	0.2	353	354	7.3	98.6
2025-09-28T06:11	10	7	0.1	7	7	353	0.4	352	354	7.2	98.8
2025-09-28T06:12	10	7	0.1	7	7	352	0.2	352	353	7.1	98.1
2025-09-28T06:13	10	7	0.1	7	7	352	0.2	352	353	7.1	98.1
2025-09-28T06:14	10	7	0.1	7	8	352	0.2	352	353	7.1	98.3
2025-09-28T06:15	10	7	0.1	7	8	353	0.2	352	353	7.2	98.6
2025-09-28T06:16	10	8	0.1	7	8	353	0.2	353	354	7.2	98.5
2025-09-28T06:17	10	8	0.1	7	8	353	0.2	353	354	7.2	98.5
2025-09-28T06:18	10	8	0.1	7	8	353	0.3	353	354	7.2	98.3
2025-09-28T06:19	10	8	0.1	7	8	353	0.2	352	353	7.1	98.1
2025-09-28T06:20	10	8	0.1	8	8	353	0.2	353	354	7.2	98.1
2025-09-28T06:21	10	8	0.1	8	8	353	0.2	353	353	7.2	98.2
2025-09-28T06:22	10	8	0.2	8	9	353	0.2	352	353	7.1	97.9
2025-09-28T06:23	10	9	0.3	9	9	353	0.2	353	353	7.1	97.9
2025-09-28T06:24	10	9	0.1	9	10	353	0.3	353	354	7.1	98.3
2025-09-28T06:25	10	10	0.1	9	10	353	0.2	353	354	7.1	98.2
2025-09-28T06:26	10	10	0.1	10	10	353	0.3	353	354	7.1	97.8
2025-09-28T06:27	10	10	0.1	10	11	353	0.3	352	354	7.1	97.9
2025-09-28T06:28	10	10	0.1	10	11	353	0.2	352	353	7.1	97.6
2025-09-28T06:29	10	11	0.2	11	12	353	0.2	353	354	7.1	97.7
2025-09-28T06:30	10	11	0.1	11	12	353	0.2	352	354	7.2	97.3
2025-09-28T06:31	10	11	0.1	11	11	353	0.2	353	354	7.2	96.9
2025-09-28T06:32	10	11	0.2	11	12	354	0.3	353	354	7.4	97.2
2025-09-28T06:33	10	12	0.1	11	12	354	0.2	353	355	7.3	97.3
2025-09-28T06:34	10	11	0.2	10	11	354	0.2	353	354	7.4	96.7
2025-09-28T06:35	10	11	0.1	10	11	354	0.3	353	354	7.4	96.7
2025-09-28T06:36	10	10	0.2	10	11	354	0.2	353	354	7.4	96.3
2025-09-28T06:37	10	10	0.2	10	11	354	0.2	353	354	7.5	96.2
2025-09-28T06:38	10	11	0.3	11	12	354	0.2	353	354	7.5	96.0
2025-09-28T06:39	10	12	0.4	12	13	354	0.3	354	355	7.5	95.9
2025-09-28T06:40	10	13	0.2	13	14	354	0.3	353	355	7.5	95.7
2025-09-28T06:41	10	14	0.2	14	14	355	0.3	354	355	7.6	95.6
2025-09-28T06:42	10	15	0.2	14	15	355	0.2	355	355	7.6	95.8
2025-09-28T06:43	10	16	0.6	15	17	356	0.3	355	356	7.6	95.1
2025-09-28T06:44	10	18	0.4	17	18	356	0.2	355	356	7.6	94.8
2025-09-28T06:45	10	18	0.1	18	19	356	0.3	355	357	7.6	94.6
2025-09-28T06:46	10	18	0.2	18	18	357	0.3	356	357	7.6	95.1
2025-09-28T06:47	10	18	0.1	17	18	357	0.2	356	358	7.6	95.1
2025-09-28T06:48	10	17	0.1	17	18	357	0.3	357	358	7.7	95.2
2025-09-28T06:49	10	17	0.2	17	17	357	0.2	357	358	7.6	94.7
2025-09-28T06:50	10	16	0.3	16	17	357	0.2	357	358	7.7	95.0
2025-09-28T06:51	10	16	0.1	16	16	357	0.2	356	358	7.7	95.3
2025-09-28T06:52	10	16	0.1	16	16	357	0.3	356	358	7.8	95.8
2025-09-28T06:53	10	16	0.1	16	16	357	0.2	357	358	7.7	95.4
2025-09-28T06:54	10	17	0.2	16	17	358	0.2	357	358	7.7	94.8
2025-09-28T06:55	10	17	0.1	17	17	358	0.2	357	358	7.7	95.3
2025-09-28T06:56	10	17	0.1	17	18	358	0.3	357	359	7.8	95.6
2025-09-28T06:57	10	18	0.1	17	18	358	0.2	358	359	7.8	95.3
2025-09-28T06:58	10	18	0.1	18	18	359	0.3	358	359	7.8	94.8
2025-09-28T06:59	10	18	0.1	18	18	359	0.2	358	359	7.8	94.1
2025-09-28T07:00	10	18	0.1	18	18	359	0.3	358	359	7.8	94.7
2025-09-28T07:01	10	18	0.1	18	18	359	0.2	359	360	7.9	95.3
2025-09-28T07:02	10	18	0.1	18	18	359	0.2	359	359	7.9	95.1
2025-09-28T07:03	10	18	0.1	18	18	359	0.2	359	360	7.9	94.5
2025-09-28T07:04	10	18	0.1	18	18	359	0.2	359	360	7.9	93.9
2025-09-28T07:05	10	18	0.2	18	19	359	0.2	359	360	7.9	94.5
2025-09-28T07:06	10	19	0.3	19	20	360	0.2	359	360	7.9	94.1
2025-09-28T07:07	10	20	0.2	20	20	360	0.3	359	360	8.0	93.9
2025-09-28T07:08	10	20	0.1	20	21	360	0.3	360	361	8.0	94.7
2025-09-28T07:09	10	20	0.1	20	21	361	0.3	360	361	8.1	95.0
2025-09-28T07:10	10	20	0.2	19	20	360	0.2	360	361	8.0	94.4
2025-09-28T07:11	10	19	0.2	19	19	360	0.2	360	361	8.0	94.2
2025-09-28T07:12	10	19	0.2	18	19	360	0.2	360	361	8.1	93.8
2025-09-28T07:13	10	20	0.4	19	21	360	0.2	359	360	8.1	93.6
2025-09-28T07:14	10	21	0.5	21	22	360	0.3	360	361	8.1	93.3
2025-09-28T07:15	10	23	0.5	22	24	361	0.2	360	361	8.1	93.6
2025-09-28T07:16	10	25	0.7	24	26	361	0.2	360	361	8.1	93.8
2025-09-28T07:17	10	27	0.7	26	29	361	0.3	361	362	8.1	94.0
2025-09-28T07:18	10	30	0.6	29	31	362	0.3	361	363	8.1	93.7
2025-09-28T07:19	10	32	0.6	31	33	362	0.3	362	363	8.2	93.9
2025-09-28T07:20	10	33	0.1	33	33	363	0.2	362	363	8.2	94.1
2025-09-28T07:21	10	33	0.3	32	33	363	0.3	363	364	8.2	93.7
2025-09-28T07:22	10	31	0.5	30	32	364	0.3	363	364	8.3	94.1
2025-09-28T07:23	10	30	0.4	29	30	364	0.3	363	365	8.4	94.6
2025-09-28T07:24	10	29	0.1	29	29	364	0.2	363	364	8.3	94.5
2025-09-28T07:25	10	30	0.1	29	30	364	0.2	364	365	8.4	95.2
2025-09-28T07:26	10	30	0.1	30	30	364	0.2	364	365	8.5	95.5
2025-09-28T07:27	10	29	0.3	29	30	364	0.3	364	365	8.4	94.9
2025-09-28T07:28	10	28	0.6	27	29	363	0.4	363	364	8.4	94.1
2025-09-28T07:29	10	27	0.1	26	27	363	0.4	362	364	8.4	92.9
2025-09-28T07:30	10	28	0.7	27	29	362	0.3	362	363	8.4	92.6
2025-09-28T07:31	10	31	0.9	29	32	363	0.5	363	364	8.4	92.5
2025-09-28T07:32	10	34	1.2	32	37	365	0.4	364	366	8.6	92.9
2025-09-28T07:33	10	38	0.6	36	39	365	0.3	365	366	8.7	94.0
2025-09-28T07:34	10	39	0.1	38	39	365	0.3	365	366	8.6	92.0
2025-09-28T07:35	10	37	0.7	36	38	366	0.2	366	367	8.6	91.4
2025-09-28T07:36	10	35	0.7	34	36	367	0.2	366	367	8.7	91.3
2025-09-28T07:37	10	33	0.3	33	34	366	0.2	366	367	8.7	91.2
2025-09-28T07:38	10	33	0.1	33	33	366	0.2	365	367	8.6	90.4
2025-09-28T07:39	10	33	0.1	33	33	366	0.3	365	367	8.6	90.3
2025-09-28T07:40	10	33	0.2	32	33	366	0.2	365	366	8.6	90.3
2025-09-28T07:41	10	32	0.1	32	32	366	0.3	365	366	8.2	85.8
2025-09-28T07:42	10	32	0.1	32	32	366	0.2	366	367	8.6	90.3
2025-09-28T07:43	10	33	0.2	32	33	366	0.3	365	367	8.6	90.3
2025-09-28T07:44	10	33	0.3	33	34	366	0.3	365	366	8.6	90.3
2025-09-28T07:45	10	34	0.4	34	35	366	0.3	366	367	8.6	90.3
2025-09-28T07:46	10	36	0.6	35	37	367	0.3	366	367	8.7	89.7
2025-09-28T07:47	10	38	0.5	37	39	367	0.3	366	368	8.8	88.1
2025-09-28T07:48	10	39	0.2	38	39	368	0.4	367	368	8.9	89.6
2025-09-28T07:49	10	39	0.1	39	40	368	0.5	367	369	9.0	90.6
2025-09-28T07:50	10	39	0.1	39	40	368	0.5	366	368	8.9	89.3
2025-09-28T07:51	10	40	0.2	39	40	366	0.5	366	368	8.9	89.6
2025-09-28T07:52	10	41	0.8	40	43	367	0.3	366	367	8.8	88.5
2025-09-28T07:53	10	44	0.8	42	45	367	0.6	366	368	8.8	88.8
2025-09-28T07:54	10	45	0.1	45	45	369	0.4	367	369	8.8	88.1
2025-09-28T07:55	10	46	0.4	45	46	368	0.4	368	369	8.8	88.2
2025-09-28T07:56	10	47	0.3	46	47	368	0.3	367	368	8.8	87.8
2025-09-28T07:57	10	45	0.5	45	46	368	0.3	367	369	8.7	87.0
2025-09-28T07:58	10	45	0.2	44	45	368	0.2	367	369	8.7	88.0
2025-09-28T07:59	10	46	1.1	45	48	368	0.3	368	369	8.7	87.8
2025-09-28T08:00	10	50	0.6	48	50	369	0.5	368	370	8.9	89.3
2025-09-28T08:01	10	50	0.5	48	50	370	0.5	369	371	8.9	89.0
2025-09-28T08:02	10	48	0.6	47	49	369	0.3	368	370	8.7	88.1
2025-09-28T08:03	10	46	0.6	45	47	368	0.2	368	369	8.7	88.4
2025-09-28T08:04	10	44	0.5	43	45	368	0.4	367	369	8.8	88.8
2025-09-28T08:05	10	42	0.3	42	43	367	0.3	367	368	8.8	88.0
2025-09-28T08:06	10	42	0.1	42	42	367	0.3	367	368	8.8	88.1
2025-09-28T08:07	10	42	0.1	42	42	368	0.2	367	368	8.7	87.6
2025-09-28T08:08	10	42	0.1	42	42	368	0.3	368	369	8.7	87.7
2025-09-28T08:09	10	42	0.1	42	42	368	0.3	368	369	8.7	87.9
2025-09-28T08:10	10	43	0.2	42	43	368	0.3	368	369	8.6	87.7
2025-09-28T08:11	10	44	0.7	43	45	369	0.4	368	370	8.7	88.5
2025-09-28T08:12	10	47	1.0	45	48	369	0.3	369	370	8.7	88.5
2025-09-28T08:13	10	50	0.9	48	51	370	0.4	369	370	8.7	88.2
2025-09-28T08:14	10	53	1.0	52	55	369	0.3	369	370	8.7	88.4
2025-09-28T08:15	10	56	0.8	55	57	370	0.5	370	371	8.7	87.9
2025-09-28T08:16	10	57	0.3	56	58	372	0.3	371	373	8.9	88.7
2025-09-28T08:17	10	56	0.2	55	56	372	0.2	371	372	8.8	88.7
2025-09-28T08:18	10	56	0.5	56	57	371	0.7	370	372	8.7	87.9
2025-09-28T08:19	10	57	0.4	57	58	371	0.2	370	371	8.6	87.8
2025-09-28T08:20	10	60	1.2	58	62	371	0.5	371	372	8.6	87.7
2025-09-28T08:21	10	64	1.4	62	67	372	0.2	372	373	8.7	88.1
2025-09-28T08:22	10	76	4.8	68	85	373	0.9	372	375	8.7	87.9
2025-09-28T08:23	10	76	1.5	75	79	375	0.6	374	376	8.8	88.1
2025-09-28T08:24	10	78	1.6	76	81	376	0.4	375	377	9.0	89.4
2025-09-28T08:25	10	78	0.9	77	80	376	0.4	375	377	9.0	87.8
2025-09-28T08:26	10	79	0.8	78	81	377	0.3	376	378	9.0	87.5
2025-09-28T08:27	10	78	0.7	77	80	378	0.4	377	378	9.1	87.7
2025-09-28T08:28	10	77	0.7	76	80	377	0.8	376	378	9.3	88.6
2025-09-28T08:29	10	77	1.4	75	80	376	0.3	376	377	9.1	86.4
2025-09-28T08:30	10	77	2.2	75	82	376	0.3	375	377	8.9	86.8
2025-09-28T08:31	10	82	1.4	81	85	377	0.3	376	377	8.9	87.8
2025-09-28T08:32	10	83	1.8	79	85	378	0.5	377	378	9.1	88.3
2025-09-28T08:33	10	79	0.9	78	81	377	0.3	377	378	9.1	87.5
2025-09-28T08:34	10	73	2.0	71	79	378	0.6	376	378	9.3	88.3
2025-09-28T08:35	10	76	1.2	72	77	378	0.4	377	378	9.3	88.0
2025-09-28T08:36	10	74	0.9	73	76	377	0.3	376	378	9.3	87.7
2025-09-28T08:37	10	73	0.8	72	75	377	0.4	376	378	9.2	87.0
2025-09-28T08:38	10	80	2.1	76	83	378	0.4	377	379	9.1	87.2
2025-09-28T08:39	10	71	3.1	66	78	377	0.6	375	378	9.0	87.0
2025-09-28T08:40	10	66	1.2	65	69	376	0.3	375	376	9.0	87.4
2025-09-28T08:41	10	68	3.1	64	73	375	0.4	374	376	9.1	87.5
2025-09-28T08:42	10	68	2.9	61	74	375	0.2	374	376	9.1	87.3
2025-09-28T08:43	10	56	2.0	54	61	374	0.6	373	375	9.1	86.3
2025-09-28T08:44	10	57	0.8	55	57	374	0.4	373	375	9.3	86.0
2025-09-28T08:45	10	54	1.6	52	57	374	0.6	373	375	9.3	86.7
2025-09-28T08:46	10	53	0.7	52	54	373	0.4	372	373	9.2	87.0
2025-09-28T08:47	10	59	2.6	55	62	372	0.4	372	373	9.1	86.8
2025-09-28T08:48	10	62	1.8	60	66	373	0.3	372	374	9.1	86.9
2025-09-28T08:49	10	88	14.0	67	118	375	1.8	373	379	9.1	87.0
2025-09-28T08:50	10	143	12.1	121	160	381	2.2	377	384	9.2	86.4
2025-09-28T08:51	10	123	17.7	91	144	384	0.7	382	385	9.2	85.8
2025-09-28T08:52	10	84	12.0	72	105	381	1.5	378	383	9.3	85.9
2025-09-28T08:53	10	91	12.7	75	111	380	1.1	378	381	9.4	85.8
2025-09-28T08:54	10	97	12.5	85	124	381	0.8	380	383	9.3	85.4
2025-09-28T08:55	10	90	4.6	84	98	382	0.4	381	382	9.3	85.6
2025-09-28T08:56	10	112	23.4	92	154	384	1.7	382	387	9.4	86.1
2025-09-28T08:57	10	94	17.0	84	138	384	2.1	381	387	9.6	86.7
2025-09-28T08:58	10	88	2.2	84	91	383	0.3	382	383	9.5	85.5
2025-09-28T08:59	10	100	10.8	88	122	384	0.6	382	385	9.5	85.8
2025-09-28T09:00	10	86	1.2	84	88	382	0.7	381	383	9.4	85.7
2025-09-28T09:01	10	84	1.1	80	85	381	0.3	380	382	9.5	85.8
2025-09-28T09:02	10	74	2.2	72	80	380	1.0	378	382	9.6	86.5
2025-09-28T09:03	10	73	0.7	72	74	379	0.2	378	379	9.4	85.2
2025-09-28T09:04	10	77	0.9	75	78	379	0.3	379	380	9.4	85.7
2025-09-28T09:05	10	87	8.6	75	103	380	0.8	378	381	9.4	85.8
2025-09-28T09:06	10	69	2.2	66	75	379	0.3	379	380	9.4	85.8
2025-09-28T09:07	10	66	0.2	66	67	379	0.3	379	380	9.5	86.8
2025-09-28T09:08	10	69	1.2	67	71	378	0.3	378	379	9.5	85.4
2025-09-28T09:09	10	68	0.6	68	70	379	0.4	378	380	9.5	85.5
2025-09-28T09:10	10	69	0.7	68	70	378	0.3	377	378	9.5	85.6
2025-09-28T09:11	10	72	0.5	70	72	379	0.8	378	381	9.6	85.9
2025-09-28T09:12	10	72	0.2	72	73	379	0.5	378	380	9.7	85.9
2025-09-28T09:13	10	72	0.5	71	73	379	0.5	378	380	9.8	85.3
2025-09-28T09:14	10	69	0.9	68	71	378	0.3	378	379	9.6	85.2
2025-09-28T09:15	10	68	0.7	67	69	379	0.3	378	380	9.7	86.0
2025-09-28T09:16	10	77	10.9	67	100	379	0.9	378	382	9.8	85.9
2025-09-28T09:17	10	78	7.6	69	98	382	0.6	381	383	9.9	85.9
2025-09-28T09:18	10	67	0.7	67	69	381	0.3	380	381	10.1	86.2
2025-09-28T09:19	10	67	0.2	67	68	381	0.4	380	382	10.1	85.8
2025-09-28T09:20	10	66	0.3	66	67	380	0.6	379	381	10.0	84.9
2025-09-28T09:21	10	65	0.3	65	66	379	0.5	378	380	9.9	84.0
2025-09-28T09:22	10	65	0.2	65	65	378	0.2	378	379	9.9	84.3
2025-09-28T09:23	10	67	0.9	65	68	379	0.6	378	380	10.0	84.8
2025-09-28T09:24	10	68	0.1	68	69	379	0.8	377	380	10.0	82.8
2025-09-28T09:25	10	68	0.3	67	68	378	0.2	378	378	9.8	81.7
2025-09-28T09:26	10	67	0.1	67	68	378	0.3	377	378	9.7	82.2
2025-09-28T09:27	10	68	0.6	67	69	379	0.6	378	380	9.8	83.1
2025-09-28T09:28	10	70	0.7	69	72	380	0.4	379	381	10.0	83.9
2025-09-28T09:29	10	73	0.7	72	74	380	0.6	379	381	10.1	84.2
2025-09-28T09:30	10	76	0.9	74	77	379	0.7	378	380	9.7	82.9
2025-09-28T09:31	10	75	2.1	72	78	379	0.5	378	380	9.7	84.0
2025-09-28T09:32	10	75	3.0	72	81	379	0.9	378	381	9.9	84.9
2025-09-28T09:33	10	86	2.3	82	89	379	0.4	378	379	9.9	84.8
2025-09-28T09:34	10	85	1.2	83	87	379	0.2	379	380	9.7	84.1
2025-09-28T09:35	10	85	2.7	83	91	380	0.8	378	381	9.6	84.2
2025-09-28T09:36	10	110	13.5	91	133	383	1.8	380	386	9.7	84.3
2025-09-28T09:37	10	113	10.3	101	129	385	1.1	383	387	9.8	84.0
2025-09-28T09:38	10	100	7.5	94	122	385	1.0	384	387	9.8	83.4
2025-09-28T09:39	10	100	6.7	93	112	385	0.5	385	387	9.8	83.6
2025-09-28T09:40	10	96	3.0	93	104	386	0.3	385	386	9.9	84.1
2025-09-28T09:41	10	109	2.6	104	113	386	0.5	385	387	9.9	83.6
2025-09-28T09:42	10	101	0.9	99	103	386	0.3	385	387	9.9	83.3
2025-09-28T09:43	10	103	2.6	101	111	386	0.5	385	387	9.9	83.2
2025-09-28T09:44	10	116	6.6	111	136	387	1.0	385	389	9.9	82.3
2025-09-28T09:45	10	113	15.5	98	139	390	1.4	387	392	10.0	83.1
2025-09-28T09:46	10	103	2.8	99	110	388	0.3	387	388	10.1	82.1
2025-09-28T09:47	10	110	11.1	91	123	390	1.0	388	392	10.2	83.8
2025-09-28T09:48	10	88	1.2	87	91	388	1.1	386	390	10.2	81.4
2025-09-28T09:49	10	80	5.0	73	89	386	0.5	385	387	10.3	81.0
2025-09-28T09:50	10	65	5.5	56	73	384	1.2	382	387	10.4	81.9
2025-09-28T09:51	10	52	1.9	49	56	382	0.8	380	383	10.3	81.7
2025-09-28T09:52	10	49	0.3	48	49	379	0.6	378	381	10.3	81.9
2025-09-28T09:53	10	51	0.9	49	52	380	0.3	379	380	10.2	82.5
2025-09-28T09:54	10	56	2.7	52	61	381	0.7	379	382	10.4	83.8
2025-09-28T09:55	10	62	0.4	61	62	381	0.3	380	382	10.5	84.2
2025-09-28T09:56	10	63	0.4	62	64	381	0.5	380	382	10.4	83.8
2025-09-28T09:57	10	62	0.5	62	63	379	0.6	378	380	10.2	82.8
2025-09-28T09:58	10	61	0.2	61	62	378	0.3	378	379	10.0	83.2
2025-09-28T09:59	10	62	2.2	61	69	378	0.7	377	380	10.0	83.6
2025-09-28T10:00	10	61	2.6	58	69	380	0.4	379	381	10.1	84.2
2025-09-28T10:01	10	57	0.7	56	58	380	0.7	378	381	10.4	84.5
2025-09-28T10:02	10	54	1.2	52	56	379	0.3	378	379	10.1	83.0
2025-09-28T10:03	10	49	1.2	47	52	377	0.6	376	378	10.1	83.2
2025-09-28T10:04	10	46	0.7	45	48	376	0.5	375	377	10.1	83.5
2025-09-28T10:05	10	44	0.8	42	45	375	0.3	375	376	10.1	84.2
2025-09-28T10:06	10	42	0.3	41	42	374	0.5	373	375	10.2	83.6
2025-09-28T10:07	10	42	0.5	41	43	373	0.4	372	374	10.2	83.7
2025-09-28T10:08	10	45	0.8	43	46	372	0.4	372	373	10.2	83.1
2025-09-28T10:09	10	46	0.5	44	46	373	0.3	372	374	10.1	82.6
2025-09-28T10:10	10	42	0.9	41	44	373	0.4	372	373	10.1	82.8
2025-09-28T10:11	10	46	2.0	43	50	373	0.4	372	374	10.2	83.4
2025-09-28T10:12	10	92	35.1	50	144	376	3.8	373	384	10.2	81.8
2025-09-28T10:13	10	86	29.3	57	150	382	1.8	379	384	10.4	81.0
2025-09-28T10:14	10	54	1.4	52	57	379	0.6	377	380	10.4	80.7
2025-09-28T10:15	10	71	26.6	52	143	378	1.6	377	383	10.5	81.5
2025-09-28T10:16	10	161	6.2	147	172	387	2.6	381	391	10.5	80.0
2025-09-28T10:17	10	139	9.4	116	153	391	0.9	389	392	10.6	79.5
2025-09-28T10:18	10	85	15.8	66	114	386	2.1	384	392	10.7	79.4
2025-09-28T10:19	10	127	15.0	95	147	389	1.4	386	391	10.8	79.8
2025-09-28T10:20	10	136	13.8	96	152	389	1.2	386	390	10.9	80.7
2025-09-28T10:21	10	162	5.8	150	168	393	1.9	389	395	10.6	79.1
2025-09-28T10:22	10	162	0.9	161	164	397	1.1	395	399	10.8	79.6
2025-09-28T10:23	10	158	3.4	150	161	396	1.3	394	399	10.9	80.2
2025-09-28T10:24	10	156	0.8	153	157	394	0.5	393	395	10.7	79.4
2025-09-28T10:25	10	158	0.6	157	159	398	0.8	396	399	10.9	81.4
2025-09-28T10:26	10	158	1.1	155	159	397	0.5	396	398	11.0	80.3
2025-09-28T10:27	10	156	0.7	156	158	396	0.9	394	397	10.7	79.7
2025-09-28T10:28	10	157	0.5	156	158	395	0.4	394	395	10.8	80.0
2025-09-28T10:29	10	161	1.7	159	164	396	0.7	394	397	10.7	78.9
2025-09-28T10:30	10	163	2.5	158	168	397	1.0	396	399	10.8	78.7
2025-09-28T10:31	10	168	2.0	163	170	400	1.2	398	402	11.0	79.7
2025-09-28T10:32	10	163	1.5	161	166	401	0.5	400	402	11.1	79.3
2025-09-28T10:33	10	160	3.1	155	164	401	0.7	400	402	11.1	79.2
2025-09-28T10:34	10	165	1.1	164	168	401	0.4	399	401	11.2	78.9
2025-09-28T10:35	10	170	1.9	167	174	400	1.0	399	402	11.1	78.2
2025-09-28T10:36	10	175	0.6	174	176	404	0.8	402	405	11.3	78.9
2025-09-28T10:37	10	175	0.7	174	176	404	1.2	402	405	11.6	78.7
2025-09-28T10:38	10	176	0.4	176	177	405	0.9	402	406	11.6	78.1
2025-09-28T10:39	10	178	0.5	177	179	407	0.4	406	408	11.9	78.5
2025-09-28T10:40	10	166	9.6	153	178	402	2.8	399	408	11.6	76.6
2025-09-28T10:41	10	144	13.9	130	169	399	1.5	396	401	11.3	77.7
2025-09-28T10:42	10	132	6.4	122	143	397	0.8	396	399	11.6	78.3
2025-09-28T10:43	10	160	6.7	144	170	400	1.2	397	403	11.6	77.7
2025-09-28T10:44	10	164	6.6	152	172	402	0.8	401	403	11.4	77.6
2025-09-28T10:45	10	174	11.7	154	196	402	1.2	400	404	11.1	77.6
2025-09-28T10:46	10	163	34.6	111	209	402	2.5	399	406	11.2	78.0
2025-09-28T10:47	10	201	11.2	178	212	406	1.9	402	409	11.4	77.3
2025-09-28T10:48	10	218	6.1	200	223	412	2.0	408	415	11.6	77.1
2025-09-28T10:49	10	196	23.0	164	229	412	1.9	409	415	12.0	77.9
2025-09-28T10:50	10	152	8.7	130	163	409	1.5	405	411	12.1	77.9
2025-09-28T10:51	10	148	13.6	126	168	403	0.9	402	406	11.5	76.0
2025-09-28T10:52	10	172	7.9	158	183	406	1.4	404	409	11.3	76.3
2025-09-28T10:53	10	185	14.7	157	205	410	1.9	407	413	11.6	77.8
2025-09-28T10:54	10	189	10.0	175	209	412	0.9	411	414	11.8	76.7
2025-09-28T10:55	10	151	27.1	123	199	410	3.0	406	415	12.0	76.0
2025-09-28T10:56	10	146	47.9	93	219	410	3.5	403	414	12.2	77.7
2025-09-28T10:57	10	91	8.9	78	103	400	2.5	396	405	11.9	75.6
2025-09-28T10:58	10	71	4.7	63	78	395	1.6	393	398	11.7	76.5
2025-09-28T10:59	10	59	1.2	58	63	392	1.0	390	394	11.7	77.3
2025-09-28T11:00	10	64	2.9	60	69	389	1.3	387	391	11.6	76.5
2025-09-28T11:01	10	71	0.7	69	72	388	0.4	387	388	11.3	76.7
2025-09-28T11:02	10	73	0.4	72	74	387	0.5	386	388	11.5	77.1
2025-09-28T11:03	10	71	1.6	68	73	386	0.8	384	387	11.5	77.1
2025-09-28T11:04	10	67	0.8	65	68	384	0.4	384	385	11.4	76.5
2025-09-28T11:05	10	67	1.2	66	70	385	0.7	384	386	11.5	77.0
2025-09-28T11:06	10	77	7.4	70	98	387	0.6	386	389	11.7	76.3
2025-09-28T11:07	10	179	35.1	100	216	397	6.7	386	408	11.6	75.9
2025-09-28T11:08	10	216	6.6	204	223	406	1.2	404	408	11.6	76.6
2025-09-28T11:09	10	204	7.4	190	218	408	1.0	407	411	11.8	77.3
2025-09-28T11:10	10	223	8.6	197	230	413	1.2	410	415	12.1	77.1
2025-09-28T11:11	10	168	13.0	141	193	408	2.2	405	413	12.1	76.2
2025-09-28T11:12	10	83	13.4	73	136	399	4.8	393	408	12.1	76.0
2025-09-28T11:13	10	70	1.9	67	73	392	1.6	389	395	11.8	77.3
2025-09-28T11:14	10	66	0.7	65	67	390	1.1	388	391	11.9	77.8
2025-09-28T11:15	10	65	0.2	64	65	387	0.9	385	389	11.8	77.1
2025-09-28T11:16	10	65	0.1	65	65	385	0.5	384	386	11.4	77.0
2025-09-28T11:17	10	65	0.1	65	65	385	0.6	384	386	11.4	78.2
2025-09-28T11:18	10	64	0.6	63	65	385	0.5	385	387	11.3	77.4
2025-09-28T11:19	10	61	0.5	61	63	386	0.3	385	386	11.3	78.1
2025-09-28T11:20	10	61	0.6	60	62	385	0.3	385	386	11.3	77.9
2025-09-28T11:21	10	57	1.1	55	59	384	0.8	383	385	11.5	77.8
2025-09-28T11:22	10	53	1.5	50	55	382	0.7	381	383	11.5	77.2
2025-09-28T11:23	10	47	2.0	43	50	379	0.6	378	381	11.4	76.8
2025-09-28T11:24	10	41	0.8	41	43	378	0.5	377	379	11.3	76.6
2025-09-28T11:25	10	54	17.5	41	91	378	1.8	376	383	11.3	76.7
2025-09-28T11:26	10	115	37.0	67	164	386	4.1	381	393	11.5	76.7
2025-09-28T11:27	10	158	2.3	153	163	396	2.4	391	399	11.7	75.9
2025-09-28T11:28	10	157	2.0	154	160	399	1.5	397	402	11.7	75.6
2025-09-28T11:29	10	159	1.7	157	163	401	0.8	400	403	11.9	75.6
2025-09-28T11:30	10	157	6.0	148	164	403	0.5	402	404	12.0	75.2
2025-09-28T11:31	10	147	2.1	144	151	402	0.8	400	403	11.9	75.2
2025-09-28T11:32	10	161	4.2	151	167	402	0.8	400	403	11.9	74.7
2025-09-28T11:33	10	171	2.3	167	174	405	0.9	403	406	11.8	74.9
2025-09-28T11:34	10	173	2.8	167	176	406	1.6	404	409	12.0	75.1
2025-09-28T11:35	10	175	1.7	173	178	407	1.5	405	409	12.1	74.5
2025-09-28T11:36	10	164	7.6	154	173	403	1.2	401	405	11.9	73.8
2025-09-28T11:37	10	160	8.8	149	173	404	1.3	402	407	11.9	73.6
2025-09-28T11:38	10	172	1.6	170	175	408	0.9	406	409	12.2	74.4
2025-09-28T11:39	10	172	2.5	167	175	406	0.5	406	407	12.0	73.9
2025-09-28T11:40	10	175	0.6	174	176	407	1.3	405	409	12.0	74.0
2025-09-28T11:41	10	174	1.3	171	175	410	0.5	409	410	12.5	75.6
2025-09-28T11:42	10	176	0.7	175	177	411	0.7	410	412	12.6	74.5
2025-09-28T11:43	10	180	1.8	177	184	412	0.8	411	414	12.9	74.9
2025-09-28T11:44	10	188	2.8	184	193	411	0.9	410	413	12.7	74.0
2025-09-28T11:45	10	192	11.4	152	200	409	0.6	408	411	12.1	72.5
2025-09-28T11:46	10	113	26.6	82	157	405	3.7	399	410	12.1	73.6
2025-09-28T11:47	10	67	7.5	58	83	397	3.0	393	402	12.3	74.0
2025-09-28T11:48	10	56	0.9	54	58	392	1.0	391	395	12.3	73.7
2025-09-28T11:49	10	50	2.0	47	54	390	0.8	389	392	12.3	74.1
2025-09-28T11:50	10	46	0.7	45	47	388	1.0	386	390	12.2	73.6
2025-09-28T11:51	10	45	0.1	45	45	385	0.9	384	387	12.0	73.9
2025-09-28T11:52	10	45	0.2	45	46	384	0.2	383	384	12.1	74.5
2025-09-28T11:53	10	45	0.1	45	46	384	0.3	383	384	12.1	74.0
2025-09-28T11:54	10	46	0.9	45	48	383	0.2	382	384	12.0	74.0
2025-09-28T11:55	10	55	4.6	48	62	384	1.1	383	386	12.1	74.3
2025-09-28T11:56	10	73	28.8	54	151	386	1.9	385	392	12.1	73.7
2025-09-28T11:57	10	178	6.2	154	183	400	5.2	389	406	12.2	73.6
2025-09-28T11:58	10	179	0.4	178	180	406	0.6	404	407	12.6	74.0
2025-09-28T11:59	10	177	0.7	176	179	406	1.5	404	409	12.5	73.1
2025-09-28T12:00	10	176	0.3	175	177	409	1.1	408	411	12.7	73.7
2025-09-28T12:01	10	177	0.4	176	178	410	0.3	409	410	12.6	72.3
2025-09-28T12:02	10	176	1.3	174	178	411	0.6	410	412	12.6	72.0
2025-09-28T12:03	10	180	2.4	176	185	413	0.5	412	414	13.0	73.5
2025-09-28T12:04	10	128	43.5	71	185	407	5.5	398	414	12.8	72.3
2025-09-28T12:05	10	105	19.6	76	151	400	0.6	399	401	12.6	73.1
2025-09-28T12:06	10	144	41.0	68	184	405	2.5	399	408	12.6	73.2
2025-09-28T12:07	10	64	1.5	63	69	397	2.1	394	402	12.5	73.7
2025-09-28T12:08	10	94	12.1	70	118	397	0.9	395	398	12.6	73.1
2025-09-28T12:09	10	165	33.7	93	189	403	5.2	396	411	12.7	73.1
2025-09-28T12:10	10	179	13.8	143	191	408	1.4	406	411	13.2	71.8
2025-09-28T12:11	10	189	1.3	186	191	408	1.4	406	411	13.1	70.7
2025-09-28T12:12	10	158	31.0	90	190	409	2.4	402	411	13.1	71.1
2025-09-28T12:13	10	76	7.8	69	90	398	3.2	394	405	12.9	71.4
2025-09-28T12:14	10	104	39.1	69	171	396	2.4	393	402	12.8	71.7
2025-09-28T12:15	10	181	5.5	170	186	404	2.2	400	407	12.8	72.1
2025-09-28T12:16	10	186	0.6	185	187	408	1.4	406	410	12.9	71.4
2025-09-28T12:17	10	184	0.6	184	186	412	1.6	409	415	13.0	71.4
2025-09-28T12:18	10	187	1.0	184	188	412	2.7	407	415	13.1	71.1
2025-09-28T12:19	10	183	0.6	182	184	408	0.6	407	409	12.6	70.9
2025-09-28T12:20	10	181	0.7	180	183	410	1.0	408	411	13.0	72.4
2025-09-28T12:21	10	179	1.0	178	181	411	0.3	410	412	13.3	72.6
2025-09-28T12:22	10	179	0.4	178	180	412	0.3	412	413	13.4	71.7
2025-09-28T12:23	10	179	0.7	178	180	413	0.5	412	414	13.2	71.8
2025-09-28T12:24	10	179	0.5	178	180	414	0.5	413	415	13.6	72.2
2025-09-28T12:25	10	177	0.6	175	178	413	0.6	412	415	13.4	71.1
2025-09-28T12:26	10	175	0.6	174	176	412	1.2	410	414	13.4	71.3
2025-09-28T12:27	10	178	1.0	176	179	412	1.4	410	415	13.2	70.0
2025-09-28T12:28	10	127	40.3	78	177	412	4.0	404	416	13.6	71.7
2025-09-28T12:29	10	166	24.7	95	179	407	1.3	404	409	13.3	69.7
2025-09-28T12:30	10	177	0.6	177	179	410	1.1	408	412	13.3	70.2
2025-09-28T12:31	10	180	0.7	179	181	409	0.6	408	410	13.1	69.9
2025-09-28T12:32	10	182	0.5	181	182	410	0.9	409	412	12.8	70.1
2025-09-28T12:33	10	181	0.2	181	182	414	1.0	412	416	13.1	71.2
2025-09-28T12:34	10	180	0.8	179	182	416	0.8	414	418	13.5	71.3
2025-09-28T12:35	10	177	1.1	175	179	413	0.8	412	415	13.1	70.3
2025-09-28T12:36	10	173	1.0	172	175	412	0.6	411	414	13.1	70.5
2025-09-28T12:37	10	173	0.4	172	173	414	0.6	413	415	13.2	71.2
2025-09-28T12:38	10	172	1.3	170	173	414	0.8	413	415	13.5	70.9
2025-09-28T12:39	10	168	1.1	166	170	412	0.7	411	414	13.3	69.2
2025-09-28T12:40	10	152	18.6	95	166	409	1.9	405	412	13.3	69.6
2025-09-28T12:41	10	97	24.4	63	124	401	2.1	399	407	13.1	69.3
2025-09-28T12:42	10	129	13.2	113	152	401	1.3	399	403	13.0	69.8
2025-09-28T12:43	10	142	18.9	108	158	405	2.9	401	409	13.3	71.1
2025-09-28T12:44	10	152	2.3	150	157	406	0.4	406	408	13.2	69.9
2025-09-28T12:45	10	149	2.1	146	153	408	0.5	407	409	13.3	70.5
2025-09-28T12:46	10	138	8.4	126	149	407	1.3	405	409	13.2	70.1
2025-09-28T12:47	10	144	3.7	136	149	406	1.2	404	408	13.5	70.7
2025-09-28T12:48	10	145	3.5	140	153	405	0.7	404	406	13.4	69.6
2025-09-28T12:49	10	153	3.9	145	159	404	0.3	404	405	13.4	69.1
2025-09-28T12:50	10	148	17.8	102	159	405	0.9	404	407	13.2	69.2
2025-09-28T12:51	10	77	26.2	49	142	400	3.2	396	405	13.1	69.0
2025-09-28T12:52	10	155	3.9	144	163	405	3.1	398	410	13.2	68.6
2025-09-28T12:53	10	164	0.6	162	165	411	1.3	408	412	13.3	69.2
2025-09-28T12:54	10	162	0.6	161	163	410	0.4	409	411	13.6	70.3
2025-09-28T12:55	10	161	0.2	160	161	411	0.6	410	412	13.6	69.9
2025-09-28T12:56	10	159	0.7	158	160	410	0.6	409	411	13.6	69.3
2025-09-28T12:57	10	158	0.2	158	158	409	0.5	408	410	13.4	68.3
2025-09-28T12:58	10	158	0.2	158	158	409	0.6	408	410	13.4	68.6
2025-09-28T12:59	10	159	0.4	158	160	409	0.4	408	409	13.2	67.9
2025-09-28T13:00	10	159	1.8	155	161	410	0.6	408	411	13.3	69.0
2025-09-28T13:01	10	158	0.8	156	159	409	0.8	408	411	13.4	68.9
2025-09-28T13:02	10	159	0.4	158	160	410	0.9	409	412	13.6	68.5
2025-09-28T13:03	10	161	0.7	160	162	413	1.2	411	414	13.8	69.2
2025-09-28T13:04	10	152	8.4	140	162	411	1.8	408	414	14.0	68.4
2025-09-28T13:05	10	154	11.0	119	163	412	0.7	410	413	13.8	68.2
2025-09-28T13:06	10	128	23.6	94	156	410	1.4	408	412	14.2	70.1
2025-09-28T13:07	10	148	6.8	129	158	411	0.8	409	412	14.1	69.6
2025-09-28T13:08	10	154	11.8	127	162	409	1.2	408	412	13.9	68.9
2025-09-28T13:09	10	160	0.3	159	161	409	1.4	408	412	14.1	69.3
2025-09-28T13:10	10	159	0.2	159	160	410	0.3	409	411	13.8	68.6
2025-09-28T13:11	10	158	0.4	157	159	410	0.3	410	411	13.9	69.5
2025-09-28T13:12	10	156	0.4	156	157	411	0.3	411	412	13.9	69.0
2025-09-28T13:13	10	156	0.2	155	156	410	1.2	408	412	13.8	68.3
2025-09-28T13:14	10	156	0.8	155	158	410	0.5	409	411	13.6	68.4
2025-09-28T13:15	10	139	13.4	122	159	410	1.7	407	412	13.7	69.3
2025-09-28T13:16	10	129	3.0	124	133	407	0.5	406	408	13.7	68.7
2025-09-28T13:17	10	143	4.5	129	149	408	0.3	407	408	13.8	70.1
2025-09-28T13:18	10	154	3.1	145	156	408	0.3	407	409	13.9	69.5
2025-09-28T13:19	10	154	0.6	153	155	408	0.4	407	409	13.7	69.0
2025-09-28T13:20	10	153	0.3	152	153	409	0.4	408	410	13.7	69.1
2025-09-28T13:21	10	152	0.2	152	152	410	0.8	409	411	13.7	68.3
2025-09-28T13:22	10	151	0.4	150	151	412	0.6	411	413	14.0	69.6
2025-09-28T13:23	10	150	0.2	149	150	411	0.9	409	413	13.8	68.2
2025-09-28T13:24	10	149	0.2	149	149	410	0.8	409	412	13.9	69.1
2025-09-28T13:25	10	149	0.5	147	149	411	0.3	411	412	14.1	68.7
2025-09-28T13:26	10	148	0.2	147	148	410	0.4	410	411	14.3	67.2
2025-09-28T13:27	10	148	0.4	147	148	411	0.5	410	412	14.4	67.1
2025-09-28T13:28	10	148	0.8	147	149	411	1.3	408	412	14.4	66.3
2025-09-28T13:29	10	148	0.3	147	149	409	0.4	408	410	13.9	65.6
2025-09-28T13:30	10	144	6.6	122	148	408	0.8	407	410	14.0	67.0
2025-09-28T13:31	10	102	22.8	68	137	404	2.4	401	409	13.9	66.8
2025-09-28T13:32	10	125	15.3	104	145	405	0.6	404	407	13.8	66.6
2025-09-28T13:33	10	109	13.6	86	132	405	0.7	404	406	14.1	68.1
2025-09-28T13:34	10	49	17.6	32	84	400	3.7	395	406	14.2	68.0
2025-09-28T13:35	10	36	5.4	31	53	394	1.5	392	397	14.3	68.7
2025-09-28T13:36	10	119	27.9	54	141	398	4.5	391	404	14.0	67.9
2025-09-28T13:37	10	135	1.1	133	137	404	1.3	402	407	14.0	68.6
2025-09-28T13:38	10	132	1.4	130	134	406	0.4	405	407	14.1	68.4
2025-09-28T13:39	10	135	1.2	132	137	407	0.8	405	408	14.3	68.8
2025-09-28T13:40	10	139	1.1	137	141	404	0.5	403	405	13.9	68.2
2025-09-28T13:41	10	142	0.4	141	143	405	0.4	404	405	13.8	67.7
2025-09-28T13:42	10	142	0.3	141	142	406	0.5	405	407	13.8	68.2
2025-09-28T13:43	10	140	0.8	139	142	407	0.5	406	408	14.1	67.7
2025-09-28T13:44	10	138	1.1	136	139	408	0.6	407	409	14.5	68.9
2025-09-28T13:45	10	131	6.9	119	137	408	0.7	407	409	14.5	67.3
2025-09-28T13:46	10	129	6.2	120	138	407	0.3	406	407	14.4	66.2
2025-09-28T13:47	10	137	0.4	137	139	405	1.3	403	407	14.2	64.8
2025-09-28T13:48	10	135	1.2	133	137	405	0.6	404	406	14.0	64.4
2025-09-28T13:49	10	133	1.0	131	134	407	0.6	406	408	14.0	65.2
2025-09-28T13:50	10	128	2.3	123	131	409	0.5	408	410	14.3	66.6
2025-09-28T13:51	10	118	4.2	112	123	407	1.2	405	409	14.2	65.2
2025-09-28T13:52	10	126	1.3	123	128	406	0.5	405	407	14.1	64.0
2025-09-28T13:53	10	124	2.9	118	127	407	0.3	406	408	14.2	64.9
2025-09-28T13:54	10	119	1.2	117	121	407	0.3	406	407	14.3	64.7
2025-09-28T13:55	10	115	4.4	109	121	408	0.4	406	408	14.7	66.8
2025-09-28T13:56	10	108	2.2	104	111	406	0.6	405	408	14.8	65.9
2025-09-28T13:57	10	108	1.3	105	110	405	0.6	404	406	14.4	64.0
2025-09-28T13:58	10	103	1.3	99	105	403	0.4	403	405	14.3	64.3
2025-09-28T13:59	10	101	1.9	97	102	403	0.4	402	404	14.4	64.8
2025-09-28T14:00	10	105	3.1	101	109	403	0.3	403	404	14.4	64.8
2025-09-28T14:01	10	116	3.2	109	120	405	0.9	403	406	14.3	64.6
2025-09-28T14:02	10	123	1.6	120	124	406	0.7	405	407	14.5	66.4
2025-09-28T14:03	10	123	2.0	118	125	407	0.6	406	408	14.6	67.0
2025-09-28T14:04	10	113	2.9	107	117	406	0.5	405	407	14.7	66.8
2025-09-28T14:05	10	93	7.1	83	107	404	1.6	401	406	14.7	66.6
2025-09-28T14:06	10	103	4.4	98	113	403	0.4	402	404	14.4	66.6
2025-09-28T14:07	10	114	0.7	113	115	402	0.2	402	403	14.1	66.3
2025-09-28T14:08	10	119	2.8	114	123	402	0.3	401	403	14.0	66.4
2025-09-28T14:09	10	123	0.7	122	124	403	0.5	402	404	14.0	66.5
2025-09-28T14:10	10	124	1.3	122	126	405	0.9	403	406	14.4	67.4
2025-09-28T14:11	10	127	0.5	126	128	404	0.5	403	405	14.3	66.1
2025-09-28T14:12	10	128	0.6	128	129	405	0.5	405	407	14.4	66.0
2025-09-28T14:13	10	130	0.2	129	130	407	0.6	406	408	14.5	66.7
2025-09-28T14:14	10	130	0.2	129	130	406	1.1	405	408	14.6	66.7
2025-09-28T14:15	10	123	5.7	114	130	405	0.4	404	406	14.4	67.0
2025-09-28T14:16	10	127	1.8	123	129	406	0.6	405	407	14.6	68.0
2025-09-28T14:17	10	119	1.6	116	123	405	0.7	403	406	14.5	66.7
2025-09-28T14:18	10	113	3.6	105	117	404	0.6	402	405	14.7	68.7
2025-09-28T14:19	10	106	1.3	103	107	403	0.3	402	403	14.7	66.9
2025-09-28T14:20	10	106	1.1	104	108	403	0.2	402	403	14.7	67.6
2025-09-28T14:21	10	107	0.7	106	108	404	0.4	403	404	15.0	64.9
2025-09-28T14:22	10	107	0.7	106	108	404	0.4	404	405	15.0	64.5
2025-09-28T14:23	10	107	0.7	106	109	405	0.2	404	405	14.7	66.1
2025-09-28T14:24	10	103	2.2	98	106	403	0.9	401	405	14.7	67.3
2025-09-28T14:25	10	103	3.4	98	107	399	0.8	399	401	14.6	67.8
2025-09-28T14:26	10	103	1.6	100	105	400	0.4	399	401	14.4	67.3
2025-09-28T14:27	10	95	2.3	91	100	399	0.5	398	400	14.4	67.5
2025-09-28T14:28	10	106	3.9	97	111	401	0.9	399	402	14.4	67.0
2025-09-28T14:29	10	77	5.4	68	96	400	0.9	398	402	14.5	67.2
2025-09-28T14:30	10	65	3.3	59	70	397	0.9	396	399	14.5	67.5
2025-09-28T14:31	10	68	2.6	66	74	396	0.2	395	396	14.4	67.0
2025-09-28T14:32	10	65	5.5	56	74	395	0.7	394	396	14.4	66.0
2025-09-28T14:33	10	60	1.4	58	63	394	0.2	393	395	14.4	66.1
2025-09-28T14:34	10	54	1.7	51	58	393	0.5	392	394	14.4	66.7
2025-09-28T14:35	10	59	2.5	55	62	393	0.6	392	395	14.5	67.8
2025-09-28T14:36	10	69	13.2	57	92	394	0.4	393	394	14.5	66.2
2025-09-28T14:37	10	95	4.0	91	105	395	0.6	394	396	14.3	65.6
2025-09-28T14:38	10	112	3.3	106	116	398	1.3	395	400	14.5	67.1
2025-09-28T14:39	10	115	0.8	112	116	399	0.3	398	399	14.5	66.4
2025-09-28T14:40	10	114	1.2	112	115	399	0.7	398	401	14.4	66.3
2025-09-28T14:41	10	113	3.0	108	116	400	0.5	399	401	14.4	66.0
2025-09-28T14:42	10	114	0.3	114	115	402	0.3	401	402	14.5	66.4
2025-09-28T14:43	10	114	0.3	113	114	402	0.3	401	403	14.5	66.4
2025-09-28T14:44	10	113	0.2	112	113	402	0.3	401	403	14.6	66.3
2025-09-28T14:45	10	112	0.3	111	113	402	0.2	402	403	14.9	67.7
2025-09-28T14:46	10	111	0.1	111	111	403	0.4	402	404	15.0	67.7
2025-09-28T14:47	10	111	0.1	111	111	402	0.5	401	403	15.1	67.1
2025-09-28T14:48	10	111	0.1	111	111	402	0.3	401	402	14.9	66.5
2025-09-28T14:49	10	104	5.9	93	111	401	0.8	400	402	14.9	66.8
2025-09-28T14:50	10	87	2.1	84	92	398	1.0	397	400	14.8	66.6
2025-09-28T14:51	10	98	3.9	87	103	399	0.5	398	400	14.8	66.7
2025-09-28T14:52	10	102	3.3	93	105	400	0.4	399	401	14.9	67.1
2025-09-28T14:53	10	75	5.7	65	92	399	1.1	397	401	14.8	66.0
2025-09-28T14:54	10	80	8.9	63	90	397	0.6	396	398	14.8	66.0
2025-09-28T14:55	10	90	2.2	87	93	398	0.5	397	399	14.8	66.6
2025-09-28T14:56	10	85	1.6	83	88	396	0.6	395	397	14.6	66.2
2025-09-28T14:57	10	92	2.8	88	97	395	0.4	395	396	14.5	66.1
2025-09-28T14:58	10	100	1.6	97	102	395	0.3	395	396	14.6	66.2
2025-09-28T14:59	10	101	0.5	100	102	396	0.3	395	396	14.5	65.6
2025-09-28T15:00	10	101	0.5	100	102	397	0.5	396	398	14.5	66.4
2025-09-28T15:01	10	102	0.8	100	103	398	0.5	397	398	14.6	65.8
2025-09-28T15:02	10	102	0.5	101	103	398	0.2	398	399	14.8	66.6
2025-09-28T15:03	10	100	0.7	99	101	398	0.3	398	399	14.9	66.3
2025-09-28T15:04	10	100	0.2	100	100	398	0.3	397	399	14.8	65.3
2025-09-28T15:05	10	99	0.9	97	100	399	0.5	397	400	14.7	66.0
2025-09-28T15:06	10	96	0.6	96	98	399	0.3	398	400	14.9	66.6
2025-09-28T15:07	10	96	0.3	95	97	398	0.9	397	400	15.0	65.0
2025-09-28T15:08	10	95	0.4	95	96	397	0.3	396	397	14.8	64.2
2025-09-28T15:09	10	97	0.6	95	98	396	0.2	396	397	14.8	64.4
2025-09-28T15:10	10	97	0.4	96	98	396	0.4	395	397	14.8	64.1
2025-09-28T15:11	10	96	0.5	94	96	397	0.6	395	398	14.7	64.2
2025-09-28T15:12	10	94	0.6	93	95	397	0.5	396	398	14.8	64.5
2025-09-28T15:13	10	95	0.4	94	95	397	0.4	396	398	14.7	64.5
2025-09-28T15:14	10	95	0.1	95	95	397	0.5	396	397	14.8	64.9
2025-09-28T15:15	10	95	0.1	94	95	396	0.5	396	397	14.8	64.3
2025-09-28T15:16	10	94	0.1	94	94	397	0.3	397	398	14.8	64.1
2025-09-28T15:17	10	94	0.1	94	94	398	0.3	397	398	14.9	64.9
2025-09-28T15:18	10	94	0.2	94	94	396	0.5	396	398	14.7	63.3
2025-09-28T15:19	10	93	0.3	93	94	397	0.3	396	397	14.6	64.3
2025-09-28T15:20	10	92	0.2	92	93	397	0.4	396	398	14.8	64.1
2025-09-28T15:21	10	91	0.3	91	92	397	0.2	397	398	15.0	64.8
2025-09-28T15:22	10	91	0.2	90	91	396	0.4	396	397	15.0	64.9
2025-09-28T15:23	10	87	3.7	78	91	396	0.7	394	397	15.1	65.6
2025-09-28T15:24	10	47	17.6	30	78	393	2.5	388	396	15.0	64.4
2025-09-28T15:25	10	49	16.8	30	77	389	0.6	388	390	14.9	64.7
2025-09-28T15:26	10	66	7.7	53	76	390	0.6	389	392	14.9	65.6
2025-09-28T15:27	10	82	2.3	76	84	392	0.6	391	393	14.8	64.8
2025-09-28T15:28	10	84	0.3	84	85	393	0.5	392	394	14.8	64.7
2025-09-28T15:29	10	85	0.3	85	86	394	0.2	393	394	14.8	64.8
2025-09-28T15:30	10	86	0.2	86	86	392	0.4	392	393	14.8	64.1
2025-09-28T15:31	10	86	0.2	85	86	393	0.4	392	394	14.7	64.3
2025-09-28T15:32	10	85	0.2	84	85	394	0.2	393	394	14.8	64.6
2025-09-28T15:33	10	84	0.2	84	85	393	0.2	393	394	14.8	65.1
2025-09-28T15:34	10	83	0.2	83	84	393	0.3	392	394	14.9	65.3
2025-09-28T15:35	10	83	0.3	82	83	393	0.2	393	394	15.0	65.8
2025-09-28T15:36	10	80	1.5	78	82	392	0.6	392	393	14.8	66.0
2025-09-28T15:37	10	80	0.3	79	80	392	0.2	391	392	14.7	66.7
2025-09-28T15:38	10	80	0.2	79	80	392	0.2	391	392	14.7	66.0
2025-09-28T15:39	10	75	2.9	71	79	391	0.3	391	392	14.8	66.2
2025-09-28T15:40	10	74	0.6	72	75	392	0.3	391	393	14.9	66.5
2025-09-28T15:41	10	71	0.7	69	73	392	0.5	391	393	15.0	65.9
2025-09-28T15:42	10	69	0.8	67	70	391	0.4	390	392	14.9	65.8
2025-09-28T15:43	10	62	1.9	60	67	390	0.6	388	391	14.9	65.8
2025-09-28T15:44	10	65	3.6	61	72	388	0.4	388	389	14.7	64.9
2025-09-28T15:45	10	75	0.9	72	75	389	0.6	388	390	14.8	66.5
2025-09-28T15:46	10	74	0.2	74	75	389	0.2	389	390	14.7	65.7
2025-09-28T15:47	10	74	0.3	73	74	389	0.4	389	390	14.9	65.9
2025-09-28T15:48	10	73	0.4	72	73	389	0.4	389	390	14.9	65.2
2025-09-28T15:49	10	72	0.3	71	72	390	0.3	389	391	14.9	65.5
2025-09-28T15:50	10	70	0.3	70	71	389	0.2	388	389	14.9	66.4
2025-09-28T15:51	10	70	0.1	70	70	388	0.4	388	389	14.9	65.2
2025-09-28T15:52	10	69	0.2	69	70	388	0.4	387	389	14.8	65.3
2025-09-28T15:53	10	69	0.2	68	69	388	0.3	388	389	14.9	65.7
2025-09-28T15:54	10	68	0.2	67	68	388	0.2	388	389	14.9	65.2
2025-09-28T15:55	10	67	0.2	67	67	388	0.5	387	388	14.9	64.7
2025-09-28T15:56	10	66	0.2	66	67	387	0.2	387	388	14.8	65.2
2025-09-28T15:57	10	65	0.4	65	66	386	0.4	386	387	14.8	65.3
2025-09-28T15:58	10	64	0.5	63	65	386	0.3	385	386	14.7	66.2
2025-09-28T15:59	10	63	0.2	62	63	386	0.4	385	387	14.8	67.2
2025-09-28T16:00	10	62	0.2	61	62	386	0.3	385	386	14.8	66.6
2025-09-28T16:01	10	62	0.1	61	62	385	0.2	385	386	14.7	66.0
2025-09-28T16:02	10	61	0.2	61	61	385	0.2	384	385	14.7	65.7
2025-09-28T16:03	10	60	0.5	59	61	385	0.2	384	385	14.8	66.5
2025-09-28T16:04	10	57	1.3	55	59	384	0.4	384	385	14.7	65.8
2025-09-28T16:05	10	56	0.3	55	57	384	0.2	383	384	14.6	66.0
2025-09-28T16:06	10	54	1.1	53	56	384	0.2	383	384	14.7	66.2
2025-09-28T16:07	10	53	0.1	53	53	384	0.3	383	384	14.7	66.7
2025-09-28T16:08	10	50	1.7	48	53	384	0.2	383	384	14.7	66.9
2025-09-28T16:09	10	47	0.4	47	48	383	0.2	383	384	14.7	66.7
2025-09-28T16:10	10	46	1.4	43	47	382	0.3	382	383	14.6	66.0
2025-09-28T16:11	10	46	1.7	43	48	382	0.2	381	383	14.6	66.8
2025-09-28T16:12	10	40	1.9	38	44	382	0.3	381	383	14.6	67.2
2025-09-28T16:13	10	42	1.7	38	44	382	0.2	381	382	14.7	67.8
2025-09-28T16:14	10	38	1.2	36	40	381	0.2	381	382	14.7	66.6
2025-09-28T16:15	10	36	1.6	34	39	381	0.3	380	381	14.6	66.4
2025-09-28T16:16	10	37	2.3	35	41	380	0.3	380	381	14.6	66.1
2025-09-28T16:17	10	38	2.8	32	41	380	0.2	380	381	14.6	67.0
2025-09-28T16:18	10	23	4.2	17	31	379	0.6	378	380	14.6	67.1
2025-09-28T16:19	10	19	2.9	16	25	378	0.3	377	379	14.6	66.9
2025-09-28T16:20	10	26	0.6	25	27	378	0.4	377	379	14.6	67.3
2025-09-28T16:21	10	24	0.7	23	25	378	0.2	377	378	14.6	66.8
2025-09-28T16:22	10	28	1.9	24	31	378	0.4	377	379	14.5	66.3
2025-09-28T16:23	10	32	0.7	31	34	378	0.2	377	378	14.5	66.7
2025-09-28T16:24	10	33	0.4	32	34	378	0.3	377	379	14.5	67.0
2025-09-28T16:25	10	32	0.4	31	33	378	0.2	377	378	14.5	66.2
2025-09-28T16:26	10	30	1.0	28	31	378	0.2	377	378	14.5	66.4
2025-09-28T16:27	10	24	2.2	20	28	377	0.4	376	378	14.5	66.8
2025-09-28T16:28	10	20	1.0	19	22	376	0.2	376	377	14.5	66.8
2025-09-28T16:29	10	22	0.2	22	23	376	0.2	375	376	14.5	67.8
2025-09-28T16:30	10	24	0.5	23	25	376	0.2	376	376	14.5	68.1
2025-09-28T16:31	10	25	0.4	24	26	376	0.3	375	376	14.5	67.8
2025-09-28T16:32	10	25	0.4	24	26	376	0.2	375	376	14.4	68.6
2025-09-28T16:33	10	23	0.6	22	24	376	0.2	375	376	14.4	68.5
2025-09-28T16:34	10	21	0.8	20	22	375	0.3	374	376	14.4	69.9
2025-09-28T16:35	10	19	0.7	18	20	374	0.2	374	375	14.4	69.6
2025-09-28T16:36	10	19	0.6	18	20	374	0.2	374	375	14.4	69.5
2025-09-28T16:37	10	20	0.2	19	20	374	0.2	374	375	14.4	69.2
2025-09-28T16:38	10	20	0.6	19	21	374	0.2	373	374	14.3	69.8
2025-09-28T16:39	10	19	1.0	18	21	374	0.3	373	374	14.3	69.4
2025-09-28T16:40	10	20	0.6	19	21	374	0.3	373	375	14.3	69.5
2025-09-28T16:41	10	17	1.5	15	19	373	0.4	373	374	14.2	70.1
2025-09-28T16:42	10	14	0.4	13	14	373	0.3	372	374	14.2	70.4
2025-09-28T16:43	10	12	0.2	12	13	372	0.2	372	373	14.2	70.6
2025-09-28T16:44	10	13	0.2	12	13	372	0.2	371	372	14.2	71.0
2025-09-28T16:45	10	10	1.3	8	13	371	0.4	371	372	14.1	71.7
2025-09-28T16:46	10	9	0.9	8	11	370	0.3	370	371	14.1	71.7
2025-09-28T16:47	10	12	0.7	11	13	371	0.4	370	372	14.1	70.7
2025-09-28T16:48	10	15	0.8	13	16	371	0.4	370	372	14.1	71.0
2025-09-28T16:49	10	17	0.4	16	17	372	0.3	371	372	14.1	70.6
2025-09-28T16:50	10	17	0.1	17	17	371	0.3	371	372	14.1	71.0
2025-09-28T16:51	10	17	0.2	16	17	371	0.2	370	371	14.1	71.0
2025-09-28T16:52	10	16	0.3	15	16	370	0.2	370	371	14.1	70.3
2025-09-28T16:53	10	15	0.3	14	15	370	0.3	370	371	14.1	70.8
2025-09-28T16:54	10	14	0.3	13	14	370	0.2	369	370	14.1	71.2
2025-09-28T16:55	10	13	0.3	12	13	369	0.4	369	370	14.1	71.3
2025-09-28T16:56	10	11	1.0	9	13	369	0.3	368	369	14.0	71.6
2025-09-28T16:57	10	8	0.6	7	9	368	0.3	367	369	14.0	71.7
2025-09-28T16:58	10	7	0.2	7	7	367	0.3	367	368	14.0	71.7
2025-09-28T16:59	10	7	0.4	7	8	367	0.3	367	368	14.0	71.4
2025-09-28T17:00	10	8	0.3	8	9	368	0.2	367	368	13.9	71.8
2025-09-28T17:01	10	7	0.5	5	8	366	0.4	366	367	13.9	71.9
2025-09-28T17:02	10	4	0.8	3	6	366	0.4	365	366	13.9	72.1
2025-09-28T17:03	10	3	0.2	2	3	366	0.3	365	366	13.9	71.9
2025-09-28T17:04	10	2	0.1	2	2	366	0.3	365	366	13.9	72.0
2025-09-28T17:05	10	2	0.1	2	2	365	0.4	364	366	13.9	72.7
2025-09-28T17:06	10	2	0.1	2	2	364	0.3	363	364	13.8	72.8
2025-09-28T17:07	10	2	0.1	2	2	363	0.2	363	364	13.8	73.2
2025-09-28T17:08	10	2	0.1	1	2	363	0.2	362	363	13.7	73.5
2025-09-28T17:09	10	1	0.1	1	2	362	0.2	362	363	13.7	73.6
2025-09-28T17:10	10	1	0.1	1	1	362	0.2	361	362	13.6	74.4
2025-09-28T17:11	10	1	0.1	1	1	361	0.2	361	362	13.5	74.8
2025-09-28T17:12	10	1	0.1	1	1	361	0.2	360	362	13.4	75.8
2025-09-28T17:13	10	1	0.1	1	1	361	0.2	360	361	13.3	76.4
2025-09-28T17:14	10	1	0.1	1	1	361	0.2	360	361	13.3	76.5
2025-09-28T17:15	10	1	0.1	1	1	360	0.2	360	361	13.2	77.4
2025-09-28T17:16	10	1	0.1	1	1	360	0.2	360	360	13.2	77.4
2025-09-28T17:17	10	1	0.0	1	1	360	0.2	359	360	13.2	77.0
2025-09-28T17:18	10	1	0.1	1	1	359	0.3	359	360	13.1	77.8
2025-09-28T17:19	10	1	0.1	0	1	359	0.2	358	359	13.1	78.3
2025-09-28T17:20	10	1	0.1	0	1	358	0.3	357	359	13.0	79.1
2025-09-28T17:21	10	1	0.1	0	1	357	0.2	357	358	12.9	79.8
2025-09-28T17:22	10	0	0.1	0	1	357	0.2	357	358	12.9	79.4
2025-09-28T17:23	10	1	0.1	0	1	357	0.3	357	358	12.9	79.4
2025-09-28T17:24	10	1	0.1	0	1	357	0.2	356	357	12.8	79.8
2025-09-28T17:25	10	0	0.1	0	1	356	0.2	356	357	12.7	80.5
2025-09-28T17:26	10	0	0.1	0	1	356	0.2	355	356	12.7	80.9
2025-09-28T17:27	10	0	0.1	0	1	356	0.2	355	356	12.6	81.2
2025-09-28T17:28	10	0	0.1	0	1	355	0.2	355	356	12.6	81.1
2025-09-28T17:29	10	0	0.1	0	0	355	0.2	355	356	12.6	80.7
2025-09-28T17:30	10	0	0.1	0	1	355	0.2	355	356	12.6	80.6
2025-09-28T17:31	10	0	0.1	0	0	355	0.2	355	356	12.7	80.2
2025-09-28T17:32	10	0	0.1	0	0	355	0.2	355	355	12.7	80.1
2025-09-28T17:33	10	0	0.1	0	0	355	0.2	355	356	12.7	79.9
2025-09-28T17:34	10	0	0.1	0	0	355	0.2	354	355	12.7	80.0
2025-09-28T17:35	10	0	0.1	0	0	355	0.2	354	355	12.7	79.8
2025-09-28T17:36	10	0	0.1	0	0	355	0.2	354	355	12.6	80.6
2025-09-28T17:37	10	0	0.1	0	0	355	0.2	354	355	12.4	81.6
2025-09-28T17:38	10	0	0.1	0	0	354	0.2	353	355	12.4	81.8
2025-09-28T17:39	10	0	0.1	0	0	354	0.2	354	355	12.3	82.4
2025-09-28T17:40	10	0	0.1	0	0	354	0.2	353	354	12.3	82.9
2025-09-28T17:41	10	0	0.1	0	0	354	0.2	353	354	12.3	82.7
2025-09-28T17:42	10	0	0.1	0	0	353	0.2	353	354	12.3	82.1
2025-09-28T17:43	10	0	0.1	0	0	353	0.2	353	354	12.3	81.7
2025-09-28T17:44	10	0	0.1	0	0	353	0.3	353	354	12.4	81.5
2025-09-28T17:45	10	0	0.1	0	0	353	0.2	353	354	12.4	81.9
2025-09-28T17:46	10	0	0.1	0	0	353	0.2	353	354	12.3	82.0
2025-09-28T17:47	10	0	0.1	0	0	354	0.2	353	354	12.3	81.7
2025-09-28T17:48	10	0	0.1	0	0	354	0.2	353	354	12.4	81.6
2025-09-28T17:49	10	0	0.1	0	0	354	0.3	353	354	12.3	81.8
2025-09-28T17:50	10	0	0.1	0	0	353	0.2	353	354	12.3	81.6
2025-09-28T17:51	10	0	0.1	0	0	353	0.2	353	354	12.3	81.9
2025-09-28T17:52	10	0	0.1	0	0	353	0.3	352	353	12.1	82.8
2025-09-28T17:53	10	0	0.1	0	0	352	0.2	352	353	12.0	83.2
2025-09-28T17:54	10	0	0.1	0	0	352	0.2	352	353	12.1	82.4
2025-09-28T17:55	10	0	0.1	0	0	352	0.2	352	353	12.1	82.1
2025-09-28T17:56	10	0	0.1	0	0	352	0.2	351	352	12.1	82.8
2025-09-28T17:57	10	0	0.1	0	0	351	0.2	351	352	11.9	83.6
2025-09-28T17:58	10	0	0.1	0	0	352	0.4	351	352	11.9	83.9
2025-09-28T17:59	10	0	0.1	0	0	352	0.3	351	353	12.0	82.6
2025-09-28T18:00	10	0	0.1	0	0	352	0.2	351	352	12.0	83.1
2025-09-28T18:01	10	0	0.1	0	0	352	0.2	351	352	11.9	83.7
2025-09-28T18:02	10	0	0.1	0	0	352	0.3	351	352	11.8	84.1
2025-09-28T18:03	10	0	0.1	0	0	352	0.2	351	352	11.8	83.9
2025-09-28T18:04	10	0	0.1	0	0	351	0.2	351	352	11.7	84.4
2025-09-28T18:05	10	0	0.0	0	0	351	0.2	351	352	11.7	84.0
2025-09-28T18:06	10	0	0.1	0	0	351	0.2	350	351	11.7	84.4
2025-09-28T18:07	10	0	0.1	0	0	351	0.3	350	351	11.6	85.9
2025-09-28T18:08	10	0	0.1	0	0	350	0.2	350	351	11.5	85.9
2025-09-28T18:09	10	0	0.1	0	0	350	0.3	349	350	11.5	86.1
2025-09-28T18:10	10	0	0.1	0	0	350	0.2	350	351	11.4	86.4
2025-09-28T18:11	10	0	0.1	0	0	350	0.2	349	350	11.4	87.1
2025-09-28T18:12	10	0	0.1	0	0	350	0.3	350	351	11.4	86.7
2025-09-28T18:13	10	0	0.1	0	0	350	0.3	350	351	11.5	86.0
2025-09-28T18:14	10	0	0.1	0	0	351	0.3	350	351	11.5	85.3
2025-09-28T18:15	10	0	0.1	0	0	351	0.3	350	351	11.6	85.0
2025-09-28T18:16	10	0	0.1	-1	0	351	0.3	350	352	11.6	84.8
2025-09-28T18:17	10	0	0.2	-1	0	351	0.2	351	352	11.6	84.8
2025-09-28T18:18	10	0	0.1	0	0	351	0.2	351	352	11.6	84.2
2025-09-28T18:19	10	0	0.1	0	0	351	0.3	350	352	11.6	84.1
2025-09-28T18:20	10	0	0.1	0	0	351	0.2	350	351	11.6	84.3
2025-09-28T18:21	10	0	0.1	0	0	350	0.3	350	351	11.6	84.0
2025-09-28T18:22	10	0	0.1	0	0	350	0.3	349	351	11.6	84.1
2025-09-28T18:23	10	0	0.1	0	0	349	0.3	349	350	11.5	85.1
2025-09-28T18:24	10	0	0.1	0	0	349	0.2	349	350	11.4	85.7
2025-09-28T18:25	10	0	0.1	0	0	349	0.3	349	350	11.3	86.1
2025-09-28T18:26	10	0	0.1	0	0	349	0.2	349	350	11.3	86.0
2025-09-28T18:27	10	0	0.1	0	0	349	0.3	349	350	11.3	86.2
2025-09-28T18:28	10	0	0.1	0	0	349	0.2	349	350	11.3	85.8
2025-09-28T18:29	10	0	0.1	0	0	349	0.2	349	350	11.4	85.3
2025-09-28T18:30	10	0	0.1	0	0	349	0.2	349	350	11.5	84.7
2025-09-28T18:31	10	0	0.1	0	0	349	0.2	349	350	11.5	84.5
2025-09-28T18:32	10	0	0.1	0	0	349	0.2	349	350	11.5	84.5
2025-09-28T18:33	10	0	0.1	0	0	349	0.2	349	350	11.5	84.5
2025-09-28T18:34	10	0	0.1	0	0	349	0.2	348	349	11.4	84.6
2025-09-28T18:35	10	0	0.1	0	0	349	0.2	348	349	11.3	85.0
2025-09-28T18:36	10	0	0.1	0	0	348	0.2	348	349	11.4	84.8
2025-09-28T18:37	10	0	0.1	0	0	348	0.3	347	349	11.4	84.5
2025-09-28T18:38	10	0	0.1	0	0	348	0.2	348	349	11.5	84.3
2025-09-28T18:39	10	0	0.1	0	0	348	0.2	348	349	11.5	84.5
2025-09-28T18:40	10	0	0.1	0	0	348	0.3	347	349	11.4	85.3
2025-09-28T18:41	10	0	0.1	0	0	347	0.3	347	348	11.3	86.5
2025-09-28T18:42	10	0	0.1	0	0	347	0.3	346	348	11.1	87.3
2025-09-28T18:43	10	0	0.1	0	0	347	0.2	346	347	10.9	88.0
2025-09-28T18:44	10	0	0.1	0	0	347	0.3	346	348	10.8	89.3
2025-09-28T18:45	10	0	0.1	0	0	347	0.2	346	347	10.8	89.9
2025-09-28T18:46	10	0	0.1	0	0	347	0.4	347	348	10.8	89.8
2025-09-28T18:47	10	0	0.1	0	0	348	0.4	347	349	11.1	87.7
2025-09-28T18:48	10	0	0.1	0	0	349	0.4	348	349	11.2	86.8
2025-09-28T18:49	10	0	0.1	0	0	349	0.4	348	350	11.1	87.4
2025-09-28T18:50	10	0	0.1	0	0	350	0.2	349	350	11.2	86.6
2025-09-28T18:51	10	0	0.1	0	0	349	0.4	348	350	11.1	87.1
2025-09-28T18:52	10	0	0.1	0	0	349	0.3	348	350	10.9	88.6
2025-09-28T18:53	10	0	0.1	0	0	349	0.2	349	350	10.9	88.6
2025-09-28T18:54	10	0	0.1	0	0	349	0.2	348	349	10.7	89.7
2025-09-28T18:55	10	0	0.1	0	0	349	0.2	349	349	10.7	89.7
2025-09-28T18:56	10	0	0.1	0	0	349	0.4	348	349	10.7	89.4
2025-09-28T18:57	10	0	0.1	0	0	348	0.2	348	349	10.7	89.3
2025-09-28T18:58	10	0	0.1	0	0	348	0.2	348	348	10.8	88.9
2025-09-28T18:59	10	0	0.1	0	0	348	0.3	347	348	10.8	89.0
2025-09-28T19:00	10	0	0.1	0	0	348	0.2	347	348	10.7	89.3
2025-09-28T19:01	10	0	0.1	0	0	348	0.2	347	348	10.7	89.3
2025-09-28T19:02	10	0	0.1	0	0	347	0.2	347	348	10.7	89.5
2025-09-28T19:03	10	0	0.1	0	0	348	0.2	347	348	10.7	89.7
2025-09-28T19:04	10	0	0.1	0	0	347	0.3	346	348	10.7	89.9
2025-09-28T19:05	10	0	0.1	0	0	347	0.3	346	347	10.6	90.3
2025-09-28T19:06	10	0	0.1	0	0	346	0.3	346	347	10.5	90.4
2025-09-28T19:07	10	0	0.1	0	0	346	0.2	346	347	10.5	90.1
2025-09-28T19:08	10	0	0.1	0	0	346	0.2	346	347	10.6	89.8
2025-09-28T19:09	10	0	0.0	0	0	346	0.2	346	346	10.6	89.4
2025-09-28T19:10	10	0	0.1	0	0	346	0.3	345	346	10.6	89.5
2025-09-28T19:11	10	0	0.1	0	0	346	0.3	345	346	10.6	89.2
2025-09-28T19:12	10	0	0.1	0	0	346	0.2	345	346	10.6	89.5
2025-09-28T19:13	10	0	0.1	0	0	346	0.2	345	347	10.6	89.8
2025-09-28T19:14	10	0	0.1	0	0	346	0.2	345	346	10.6	89.8
2025-09-28T19:15	10	0	0.1	0	0	346	0.2	346	346	10.5	90.0
2025-09-28T19:16	10	0	0.1	0	0	346	0.4	346	347	10.5	90.1
2025-09-28T19:17	10	0	0.1	0	0	348	0.4	347	348	10.4	90.8
2025-09-28T19:18	10	0	0.1	0	0	349	0.3	348	349	10.2	91.3
2025-09-28T19:19	10	0	0.1	0	0	349	0.4	349	350	10.2	91.6
2025-09-28T19:20	10	0	0.1	0	0	350	0.3	349	351	10.5	90.7
2025-09-28T19:21	10	0	0.1	0	0	349	0.4	348	350	10.5	90.1
2025-09-28T19:22	10	0	0.1	0	0	348	0.3	347	349	10.4	90.3
2025-09-28T19:23	10	0	0.1	0	0	348	0.2	347	348	10.3	90.7
2025-09-28T19:24	10	0	0.0	0	0	348	0.2	347	348	10.4	90.6
2025-09-28T19:25	10	0	0.0	0	0	348	0.2	347	348	10.4	90.3
2025-09-28T19:26	10	0	0.1	0	0	348	0.2	347	348	10.6	90.0
2025-09-28T19:27	10	0	0.1	0	0	347	0.2	347	348	10.6	89.9
2025-09-28T19:28	10	0	0.1	0	0	347	0.3	346	348	10.5	90.0
2025-09-28T19:29	10	0	0.1	0	0	347	0.2	346	347	10.5	90.2
2025-09-28T19:30	10	0	0.2	0	1	346	0.3	345	347	10.3	90.8
2025-09-28T19:31	10	0	0.1	0	0	346	0.3	346	347	10.2	91.2
2025-09-28T19:32	10	0	0.1	0	0	346	0.3	346	347	10.3	91.1
2025-09-28T19:33	10	0	0.1	0	0	346	0.3	345	346	10.1	91.6
2025-09-28T19:34	10	0	0.1	0	0	346	0.2	345	346	10.0	92.1
2025-09-28T19:35	10	0	0.1	0	0	346	0.3	346	347	9.9	92.5
2025-09-28T19:36	10	0	0.1	0	0	346	0.3	345	347	9.9	92.8
2025-09-28T19:37	10	0	0.1	0	0	346	0.2	345	346	9.8	90.0
2025-09-28T19:38	10	0	0.1	0	0	346	0.3	345	346	9.8	93.1
2025-09-28T19:39	10	0	0.1	0	0	346	0.2	345	346	9.8	93.1
2025-09-28T19:40	10	0	0.1	0	0	345	0.3	345	346	9.8	93.1
2025-09-28T19:41	10	0	0.2	0	0	345	0.3	345	346	9.8	93.1
2025-09-28T19:42	10	0	0.1	-1	0	345	0.3	345	346	9.8	93.1
2025-09-28T19:43	10	0	0.1	0	0	345	0.3	344	345	9.8	93.1
2025-09-28T19:44	10	0	0.1	0	0	345	0.2	345	345	9.8	93.1
2025-09-28T19:45	10	0	0.1	0	0	345	0.2	344	345	9.7	92.7
2025-09-28T19:46	10	0	0.1	0	0	345	0.3	344	346	9.5	92.6
2025-09-28T19:47	10	0	0.1	0	0	345	0.3	344	345	9.4	93.5
2025-09-28T19:48	10	0	0.1	0	0	345	0.3	344	345	9.4	94.3
2025-09-28T19:49	10	0	0.1	0	0	345	0.4	345	346	9.3	94.6
2025-09-28T19:50	10	0	0.1	0	0	346	0.4	345	347	9.5	94.5
2025-09-28T19:51	10	0	0.1	0	0	346	0.2	345	346	9.7	94.6
2025-09-28T19:52	10	0	0.1	0	0	346	0.2	345	346	9.6	94.6
2025-09-28T19:53	10	0	0.1	0	0	346	0.3	345	346	9.7	94.7
2025-09-28T19:54	10	0	0.1	0	0	346	0.3	345	347	9.8	94.6
2025-09-28T19:55	10	0	0.1	0	0	347	0.2	346	347	9.8	94.3
2025-09-28T19:56	10	0	0.1	0	0	347	0.2	346	347	9.9	94.1
2025-09-28T19:57	10	0	0.1	0	0	346	0.2	346	347	9.8	93.9
2025-09-28T19:58	10	0	0.1	0	0	347	0.2	346	347	9.9	93.6
2025-09-28T19:59	10	0	0.1	0	0	346	0.2	346	347	9.9	93.3
2025-09-28T20:00	10	0	0.1	0	0	346	0.2	346	347	9.9	93.1
2025-09-28T20:01	10	0	0.1	0	0	346	0.2	346	347	9.9	93.0
2025-09-28T20:02	10	0	0.1	0	0	346	0.2	346	347	10.0	92.9
2025-09-28T20:03	10	0	0.1	0	0	346	0.2	346	347	10.0	92.6
2025-09-28T20:04	10	0	0.1	0	0	346	0.3	346	347	10.0	92.6
2025-09-28T20:05	10	0	0.0	0	0	346	0.2	346	347	10.1	92.4
2025-09-28T20:06	10	0	0.1	0	0	346	0.3	345	347	10.1	92.2
2025-09-28T20:07	10	0	0.1	0	0	346	0.2	345	346	10.1	92.2
2025-09-28T20:08	10	0	0.1	0	0	346	0.2	345	346	10.1	92.1
2025-09-28T20:09	10	0	0.1	0	0	345	0.4	344	346	10.1	92.3
2025-09-28T20:10	10	0	0.1	0	0	345	0.2	345	346	10.0	92.5
2025-09-28T20:11	10	0	0.0	0	0	345	0.2	345	346	10.0	92.6
2025-09-28T20:12	10	0	0.1	0	0	345	0.3	345	346	9.9	92.8
2025-09-28T20:13	10	0	0.1	0	0	345	0.3	345	346	9.9	93.0
2025-09-28T20:14	10	0	0.1	0	0	345	0.2	345	346	9.6	93.4
2025-09-28T20:15	10	0	0.1	0	0	346	0.2	345	346	9.6	93.7
2025-09-28T20:16	10	0	0.1	0	0	346	0.2	345	346	9.6	93.9
2025-09-28T20:17	10	0	0.1	0	0	345	0.2	345	346	9.6	94.1
2025-09-28T20:18	10	0	0.1	0	0	345	0.3	345	346	9.5	94.1
2025-09-28T20:19	10	0	0.1	0	0	345	0.3	344	345	9.4	94.3
2025-09-28T20:20	10	0	0.1	0	0	344	0.3	343	345	9.6	94.3
2025-09-28T20:21	10	0	0.1	0	0	344	0.2	343	344	9.6	94.3
2025-09-28T20:22	10	0	0.1	0	0	343	0.3	343	344	9.7	94.3
2025-09-28T20:23	10	0	0.1	0	0	343	0.2	342	343	9.6	94.2
2025-09-28T20:24	10	0	0.1	0	0	343	0.3	342	343	9.6	94.2
2025-09-28T20:25	10	0	0.1	0	0	342	0.2	342	343	9.6	94.2
2025-09-28T20:26	10	0	0.1	0	0	342	0.2	342	343	9.6	94.3
2025-09-28T20:27	10	0	0.1	0	0	342	0.3	342	343	9.6	94.3
2025-09-28T20:28	10	0	0.1	0	0	342	0.2	341	342	9.5	94.5
2025-09-28T20:29	10	0	0.1	0	0	342	0.2	341	342	9.5	94.5
2025-09-28T20:30	10	0	0.1	0	0	342	0.2	341	342	9.5	94.6
2025-09-28T20:31	10	0	0.1	-1	0	342	0.2	341	342	9.5	94.8
2025-09-28T20:32	10	0	0.1	-1	0	342	0.2	341	342	9.5	94.8
2025-09-28T20:33	10	0	0.1	0	0	342	0.2	341	342	9.6	94.8
2025-09-28T20:34	10	0	0.1	0	0	341	0.2	341	342	9.6	94.6
2025-09-28T20:35	10	0	0.1	0	0	341	0.2	341	342	9.5	94.6
2025-09-28T20:36	10	0	0.1	-1	0	342	0.2	341	342	9.5	94.4
2025-09-28T20:37	10	0	0.1	-1	0	342	0.2	341	342	9.4	94.7
2025-09-28T20:38	10	0	0.1	-1	0	342	0.3	341	342	9.3	95.0
2025-09-28T20:39	10	0	0.1	0	0	342	0.3	342	343	9.2	95.1
2025-09-28T20:40	10	0	0.1	0	0	342	0.3	341	343	9.1	95.5
2025-09-28T20:41	10	0	0.1	-1	0	342	0.2	341	343	9.0	95.2
2025-09-28T20:42	10	0	0.1	0	0	343	0.4	342	344	9.0	95.3
2025-09-28T20:43	10	0	0.1	-1	0	344	0.5	343	345	9.0	95.3
2025-09-28T20:44	10	0	0.1	-1	0	345	0.3	344	345	9.1	95.3
2025-09-28T20:45	10	0	0.1	-1	0	344	0.2	344	345	9.1	95.0
2025-09-28T20:46	10	0	0.1	-1	0	344	0.2	344	345	9.1	94.8
2025-09-28T20:47	10	0	0.1	-1	0	344	0.2	344	345	9.1	94.9
2025-09-28T20:48	10	0	0.1	-1	0	344	0.2	344	344	9.1	94.7
2025-09-28T20:49	10	0	0.1	-1	0	344	0.3	343	345	9.2	94.7
2025-09-28T20:50	10	0	0.1	-1	0	344	0.2	343	344	9.3	94.4
2025-09-28T20:51	10	0	0.1	-1	0	344	0.2	343	344	9.3	94.4
2025-09-28T20:52	10	0	0.1	0	0	343	0.4	342	344	9.2	94.6
2025-09-28T20:53	10	0	0.1	-1	0	342	0.2	342	343	9.0	95.0
2025-09-28T20:54	10	0	0.1	-1	0	342	0.4	342	343	9.0	95.2
2025-09-28T20:55	10	0	0.1	-1	0	342	0.2	342	343	9.0	95.3
2025-09-28T20:56	10	0	0.1	-1	0	342	0.2	341	342	9.1	95.2
2025-09-28T20:57	10	0	0.1	0	0	342	0.2	341	342	9.0	95.4
2025-09-28T20:58	10	0	0.1	-1	0	342	0.3	341	342	9.1	95.1
2025-09-28T20:59	10	0	0.1	0	0	342	0.2	341	342	9.1	95.0
2025-09-28T21:00	10	0	0.1	-1	0	341	0.2	341	342	9.1	95.0
2025-09-28T21:01	10	0	0.1	0	0	341	0.2	341	342	8.9	95.1
2025-09-28T21:02	10	0	0.1	0	0	341	0.3	341	342	8.8	95.3
2025-09-28T21:03	10	0	0.1	0	0	341	0.4	340	342	8.7	95.7
2025-09-28T21:04	10	0	0.1	0	0	341	0.3	340	341	8.6	95.9
2025-09-28T21:05	10	0	0.1	0	0	340	0.3	340	341	8.6	96.1
2025-09-28T21:06	10	0	0.1	0	0	341	0.2	340	341	8.7	96.3
2025-09-28T21:07	10	0	0.1	0	0	341	0.2	340	341	8.7	96.6
2025-09-28T21:08	10	0	0.1	-1	0	341	0.3	340	341	8.8	96.5
2025-09-28T21:09	10	0	0.1	0	0	341	0.2	340	341	8.9	96.7
2025-09-28T21:10	10	0	0.1	0	0	340	0.2	340	341	8.8	97.0
2025-09-28T21:11	10	0	0.1	0	0	340	0.3	340	341	8.7	97.2
2025-09-28T21:12	10	0	0.1	0	0	340	0.3	339	341	8.7	96.9
2025-09-28T21:13	10	0	0.1	0	0	340	0.2	339	340	8.7	96.9
2025-09-28T21:14	10	0	0.1	0	0	340	0.3	340	341	8.8	96.6
2025-09-28T21:15	10	0	0.1	-1	0	341	0.3	340	341	8.9	96.5
2025-09-28T21:16	10	0	0.1	-1	0	341	0.3	341	342	9.1	95.9
2025-09-28T21:17	10	0	0.1	-1	0	341	0.2	341	342	9.2	95.4
2025-09-28T21:18	10	0	0.1	0	0	341	0.3	341	342	9.2	95.2
2025-09-28T21:19	10	0	0.1	0	0	341	0.3	340	341	9.2	95.1
2025-09-28T21:20	10	0	0.0	0	0	341	0.3	340	341	9.1	95.1
2025-09-28T21:21	10	0	0.1	0	0	340	0.2	340	341	9.0	95.1
2025-09-28T21:22	10	0	0.1	0	0	341	0.2	340	341	9.0	95.2
2025-09-28T21:23	10	0	0.1	0	0	340	0.2	340	341	8.9	95.5
2025-09-28T21:24	10	0	0.1	0	0	340	0.2	340	341	8.8	95.6
2025-09-28T21:25	10	0	0.1	0	0	340	0.2	340	341	8.7	96.0
2025-09-28T21:26	10	0	0.1	0	0	340	0.2	340	341	8.5	96.2
2025-09-28T21:27	10	0	0.1	-1	0	340	0.2	339	341	8.4	96.4
2025-09-28T21:28	10	0	0.1	0	0	339	0.3	339	340	8.3	96.6
2025-09-28T21:29	10	0	0.1	0	0	339	0.2	339	340	8.3	96.7
2025-09-28T21:30	10	0	0.1	0	0	339	0.2	339	340	8.3	96.9
2025-09-28T21:31	10	0	0.1	0	0	339	0.2	338	339	8.3	97.1
2025-09-28T21:32	10	0	0.1	-1	0	338	0.3	338	339	8.2	97.3
2025-09-28T21:33	10	0	0.1	0	0	338	0.2	338	339	8.2	97.3
2025-09-28T21:34	10	0	0.1	-1	0	338	0.2	337	338	8.2	97.5
2025-09-28T21:35	10	0	0.1	-1	0	338	0.2	337	338	8.2	97.3
2025-09-28T21:36	10	0	0.1	-1	0	338	0.2	337	338	8.3	97.2
2025-09-28T21:37	10	0	0.1	-1	0	338	0.3	338	339	8.4	97.3
2025-09-28T21:38	10	0	0.1	-1	0	339	0.4	338	340	8.4	97.5
2025-09-28T21:39	10	0	0.1	-1	0	339	0.3	339	340	8.4	97.6
2025-09-28T21:40	10	0	0.1	-1	0	339	0.2	338	339	8.3	97.5
2025-09-28T21:41	10	0	0.1	-1	0	339	0.2	338	339	8.4	97.0
2025-09-28T21:42	10	0	0.1	-1	0	338	0.3	337	339	8.4	97.0
2025-09-28T21:43	10	0	0.1	-1	0	338	0.3	338	339	8.5	96.9
2025-09-28T21:44	10	0	0.2	-1	0	338	0.2	338	339	8.5	97.0
2025-09-28T21:45	10	0	0.2	-1	0	338	0.3	338	339	8.4	97.1
2025-09-28T21:46	10	0	0.1	-1	0	339	0.3	338	339	8.4	97.4
2025-09-28T21:47	10	0	0.2	-1	0	339	0.2	338	340	8.3	97.3
2025-09-28T21:48	10	0	0.1	-1	0	339	0.3	339	340	8.2	97.2
2025-09-28T21:49	10	0	0.1	-1	0	339	0.3	339	340	8.3	97.3
2025-09-28T21:50	10	0	0.2	-1	0	339	0.3	339	340	8.2	97.8
2025-09-28T21:51	10	0	0.1	-1	0	339	0.3	339	340	8.1	97.6
2025-09-28T21:52	10	0	0.1	-1	0	339	0.3	338	340	8.1	97.6
2025-09-28T21:53	10	0	0.1	-1	0	339	0.2	339	340	8.0	97.8
2025-09-28T21:54	10	0	0.1	-1	0	339	0.3	339	340	7.9	98.0
2025-09-28T21:55	10	0	0.2	-1	0	339	0.4	339	341	7.7	97.8
2025-09-28T21:56	10	0	0.2	-1	0	340	0.3	338	340	7.7	97.7
2025-09-28T21:57	10	0	0.2	-1	0	340	0.4	339	341	7.8	97.8
2025-09-28T21:58	10	0	0.2	-1	0	341	0.4	340	341	7.8	97.8
2025-09-28T21:59	10	0	0.1	-1	0	341	0.3	340	342	7.9	97.9
2025-09-28T22:00	10	0	0.2	-1	0	341	0.3	340	342	7.9	98.1
2025-09-28T22:01	10	0	0.1	-1	0	341	0.2	340	341	7.9	98.2
2025-09-28T22:02	10	0	0.2	-1	0	341	0.2	340	341	7.9	98.2
2025-09-28T22:03	10	0	0.1	-1	0	341	0.2	340	341	7.9	98.2
2025-09-28T22:04	10	0	0.1	-1	0	340	0.3	339	341	7.9	97.9
2025-09-28T22:05	10	0	0.1	-1	0	340	0.2	339	340	7.9	98.0
2025-09-28T22:06	10	0	0.1	-1	0	340	0.2	339	340	7.9	98.0
2025-09-28T22:07	10	0	0.1	-1	0	340	0.2	339	340	7.9	98.1
2025-09-28T22:08	10	0	0.1	-1	0	340	0.2	340	340	8.1	97.7
2025-09-28T22:09	10	0	0.1	-1	0	340	0.2	339	340	8.1	98.2
2025-09-28T22:10	10	0	0.1	-1	0	340	0.2	340	341	8.0	98.2
2025-09-28T22:11	10	0	0.1	0	0	341	0.3	340	341	8.0	98.1
2025-09-28T22:12	10	0	0.1	0	0	341	0.3	341	342	8.1	98.1
2025-09-28T22:13	10	0	0.1	0	0	342	0.4	342	343	8.2	98.0
2025-09-28T22:14	10	0	0.1	0	0	343	0.3	343	344	8.3	98.0
2025-09-28T22:15	10	0	0.1	0	0	344	0.4	343	345	8.3	98.1
2025-09-28T22:16	10	0	0.1	0	0	345	0.4	345	346	8.3	97.8
2025-09-28T22:17	10	0	0.1	-1	0	346	0.3	345	347	8.5	97.6
2025-09-28T22:18	10	0	0.0	0	0	347	0.3	346	348	8.5	97.4
2025-09-28T22:19	10	0	0.1	0	0	348	0.3	347	348	8.5	97.3
2025-09-28T22:20	10	0	0.1	0	0	349	0.2	348	349	8.6	97.0
2025-09-28T22:21	10	0	0.1	0	0	349	0.4	349	350	8.5	97.2
2025-09-28T22:22	10	0	0.0	0	0	350	0.3	350	351	8.5	97.1
2025-09-28T22:23	10	0	0.0	0	0	351	0.3	350	351	8.6	97.0
2025-09-28T22:24	10	0	0.1	0	0	352	0.2	351	352	8.6	97.0
2025-09-28T22:25	10	0	0.0	0	0	352	0.2	351	352	8.5	97.0
2025-09-28T22:26	10	0	0.1	0	0	352	0.2	352	353	8.5	96.8
2025-09-28T22:27	10	0	0.0	0	0	353	0.2	352	353	8.6	96.7
2025-09-28T22:28	10	0	0.0	0	0	353	0.2	352	353	8.5	96.6
2025-09-28T22:29	10	0	0.1	0	0	353	0.2	353	354	8.6	96.6
2025-09-28T22:30	10	0	0.1	0	0	353	0.2	353	354	8.6	96.7
2025-09-28T22:31	10	0	0.1	0	0	354	0.2	353	354	8.6	96.6
2025-09-28T22:32	10	0	0.1	0	0	354	0.3	353	354	8.6	96.7
2025-09-28T22:33	10	0	0.1	0	0	354	0.2	354	355	8.5	96.7
2025-09-28T22:34	10	0	0.0	0	0	354	0.2	354	355	8.5	96.6
2025-09-28T22:35	10	0	0.0	0	0	354	0.2	354	355	8.6	96.4
2025-09-28T22:36	10	0	0.0	0	0	355	0.2	354	355	8.7	96.4
2025-09-28T22:37	10	0	0.0	0	0	355	0.3	354	355	8.7	96.2
2025-09-28T22:38	10	0	0.0	0	0	355	0.2	354	355	8.7	96.4
2025-09-28T22:39	10	0	0.0	0	0	355	0.2	354	355	8.6	96.2
2025-09-28T22:40	10	0	0.0	0	0	355	0.2	354	355	8.7	96.1
2025-09-28T22:41	10	0	0.0	0	0	355	0.2	354	356	8.7	96.2
2025-09-28T22:42	10	0	0.1	0	0	355	0.2	355	356	8.7	96.1
2025-09-28T22:43	10	0	0.0	0	0	355	0.3	355	356	8.8	95.7
2025-09-28T22:44	10	0	0.0	0	0	355	0.2	355	356	8.8	95.7
2025-09-28T22:45	10	0	0.0	0	0	355	0.3	355	356	8.8	95.7
2025-09-28T22:46	10	0	0.0	0	0	355	0.2	355	355	8.8	95.5
2025-09-28T22:47	10	0	0.0	0	0	355	0.2	355	355	8.9	95.6
2025-09-28T22:48	10	0	0.0	0	0	355	0.3	354	356	8.9	95.5
2025-09-28T22:49	10	0	0.0	0	0	355	0.3	355	356	9.0	95.3
2025-09-28T22:50	10	0	0.0	0	0	355	0.2	355	356	9.1	94.9
2025-09-28T22:51	10	0	0.0	0	0	355	0.3	354	356	9.1	94.8
2025-09-28T22:52	10	0	0.1	0	0	355	0.3	354	355	9.1	94.5
2025-09-28T22:53	10	0	0.0	0	0	355	0.2	354	355	9.0	94.6
2025-09-28T22:54	10	0	0.1	0	0	355	0.3	354	356	9.0	94.8
2025-09-28T22:55	10	0	0.1	0	0	355	0.2	354	355	8.9	95.1
2025-09-28T22:56	10	0	0.0	0	0	355	0.2	354	355	8.9	95.3
2025-09-28T22:57	10	0	0.0	0	0	354	0.2	353	355	8.9	95.4
2025-09-28T22:58	10	0	0.1	-1	0	354	0.2	354	355	8.9	95.3
2025-09-28T22:59	10	0	0.1	0	0	354	0.2	354	355	8.9	95.5
2025-09-28T23:00	10	0	0.1	0	0	355	0.3	354	355	8.9	95.4
2025-09-28T23:01	10	0	0.1	0	0	355	0.2	354	355	9.0	95.0
2025-09-28T23:02	10	0	0.1	0	0	355	0.2	354	355	8.9	95.2
2025-09-28T23:03	10	0	0.1	0	0	355	0.2	354	355	9.0	95.1
2025-09-28T23:04	10	0	0.1	0	0	355	0.2	354	355	9.0	95.1
2025-09-28T23:05	10	0	0.1	-1	0	355	0.2	354	355	9.0	94.9
2025-09-28T23:06	10	0	0.1	0	0	355	0.2	354	355	9.2	94.7
2025-09-28T23:07	10	0	0.1	0	0	355	0.2	354	355	9.3	94.2
2025-09-28T23:08	10	0	0.1	0	0	355	0.2	354	355	9.3	93.9
2025-09-28T23:09	10	0	0.1	0	0	355	0.2	354	355	9.3	93.8
2025-09-28T23:10	10	0	0.1	-1	0	355	0.2	354	355	9.3	93.7
2025-09-28T23:11	10	0	0.1	0	0	354	0.3	354	355	9.3	93.6
2025-09-28T23:12	10	0	0.1	-1	0	354	0.2	354	355	9.3	93.6
2025-09-28T23:13	10	0	0.1	-1	0	354	0.2	354	355	9.2	93.7
2025-09-28T23:14	10	0	0.1	-1	0	354	0.2	354	355	9.2	94.0
2025-09-28T23:15	10	0	0.1	0	0	354	0.2	354	354	9.1	94.2
2025-09-28T23:16	10	0	0.1	0	0	354	0.2	354	354	9.1	94.0
2025-09-28T23:17	10	0	0.1	-1	0	354	0.2	354	355	9.1	93.9
2025-09-28T23:18	10	0	0.1	-1	0	354	0.2	354	355	9.2	93.7
2025-09-28T23:19	10	0	0.1	0	0	354	0.2	354	354	9.2	93.8
2025-09-28T23:20	10	0	0.1	-1	0	354	0.2	354	355	9.2	93.7
2025-09-28T23:21	10	0	0.1	-1	0	354	0.2	354	355	9.2	93.8
2025-09-28T23:22	10	0	0.1	0	0	354	0.2	354	355	9.2	93.7
2025-09-28T23:23	10	0	0.1	0	0	354	0.2	353	354	9.3	93.6
2025-09-28T23:24	10	0	0.1	-1	0	354	0.2	354	355	9.3	93.4
2025-09-28T23:25	10	0	0.1	-1	0	354	0.3	353	355	9.4	93.2
2025-09-28T23:26	10	0	0.1	-1	0	354	0.2	354	355	9.4	93.0
2025-09-28T23:27	10	0	0.1	-1	0	354	0.2	354	355	9.4	92.7
2025-09-28T23:28	10	0	0.1	-1	0	354	0.2	353	354	9.4	92.8
2025-09-28T23:29	10	0	0.1	-1	0	354	0.3	353	354	9.4	93.1
2025-09-28T23:30	10	0	0.1	-1	0	354	0.2	353	354	9.3	93.3
2025-09-28T23:31	10	0	0.1	-1	0	353	0.3	353	354	9.3	93.5
2025-09-28T23:32	10	0	0.1	-1	0	353	0.3	353	354	9.2	93.7
2025-09-28T23:33	10	0	0.1	0	0	353	0.2	353	354	9.1	94.0
2025-09-28T23:34	10	0	0.1	-1	0	353	0.2	353	354	9.1	94.1
2025-09-28T23:35	10	0	0.1	-1	0	353	0.2	353	354	9.2	94.2
2025-09-28T23:36	10	0	0.1	-1	0	353	0.2	353	354	9.2	94.2
2025-09-28T23:37	10	0	0.1	-1	0	353	0.3	353	354	9.1	94.2
2025-09-28T23:38	10	0	0.1	-1	0	353	0.2	352	353	9.1	94.3
2025-09-28T23:39	10	0	0.1	-1	0	353	0.2	352	353	9.1	94.6
2025-09-28T23:40	10	0	0.1	-1	0	353	0.2	352	353	9.1	94.9
2025-09-28T23:41	10	0	0.1	-1	0	353	0.2	352	353	9.1	94.9
2025-09-28T23:42	10	0	0.1	-1	0	353	0.2	352	353	9.1	95.0
2025-09-28T23:43	10	0	0.1	-1	0	353	0.2	352	353	9.1	95.2
2025-09-28T23:44	10	0	0.1	-1	0	353	0.2	352	353	9.1	95.2
2025-09-28T23:45	10	0	0.1	-1	0	352	0.2	352	353	9.0	95.4
2025-09-28T23:46	10	0	0.1	-1	0	352	0.2	352	353	8.9	96.0
2025-09-28T23:47	10	0	0.1	-1	0	353	0.2	352	353	8.9	96.1
2025-09-28T23:48	10	0	0.2	-1	0	352	0.2	352	353	8.7	96.3
2025-09-28T23:49	10	0	0.1	-1	0	352	0.2	352	353	8.7	96.4
2025-09-28T23:50	10	0	0.2	-1	0	352	0.2	352	353	8.7	96.3
2025-09-28T23:51	10	0	0.2	-1	0	353	0.2	352	353	8.7	96.4
2025-09-28T23:52	10	0	0.2	-1	0	352	0.2	352	353	8.7	96.6
2025-09-28T23:53	10	0	0.1	-1	0	353	0.3	352	353	8.7	96.7
2025-09-28T23:54	10	0	0.1	-1	0	353	0.2	353	354	8.7	96.7
2025-09-28T23:55	10	0	0.1	-1	0	353	0.4	353	354	8.8	96.6
2025-09-28T23:56	10	0	0.1	-1	0	353	0.3	353	354	8.9	96.1
2025-09-28T23:57	10	0	0.1	-1	0	353	0.2	353	354	8.9	96.0
2025-09-28T23:58	10	0	0.1	-1	0	354	0.2	353	354	8.9	95.9
2025-09-28T23:59	10	0	0.2	-1	0	354	0.2	353	354	8.9	96.0
2025-09-29T00:00	10	0	0.1	-1	0	354	0.3	353	355	8.9	96.1
2025-09-29T00:01	10	0	0.1	-1	0	354	0.2	353	354	8.8	96.2
2025-09-29T00:02	10	0	0.2	-1	0	354	0.3	353	354	8.8	96.3
2025-09-29T00:03	10	0	0.1	-1	0	354	0.2	353	355	8.8	96.5
2025-09-29T00:04	10	0	0.1	-1	0	355	0.3	354	355	8.9	96.6
2025-09-29T00:05	10	0	0.1	-1	0	355	0.3	354	355	9.0	96.6
2025-09-29T00:06	10	0	0.1	-1	0	355	0.3	354	356	8.9	96.8
2025-09-29T00:07	10	0	0.1	-1	0	355	0.2	354	355	8.9	96.5
2025-09-29T00:08	10	0	0.1	-1	0	355	0.2	354	355	8.9	96.7
2025-09-29T00:09	10	0	0.1	0	0	355	0.2	354	355	8.9	96.7
2025-09-29T00:10	10	0	0.1	0	0	355	0.2	354	355	8.8	96.8
2025-09-29T00:11	10	0	0.1	-1	0	355	0.2	354	355	8.8	96.8
2025-09-29T00:12	10	0	0.2	-1	0	355	0.2	354	355	8.8	97.1
2025-09-29T00:13	10	0	0.1	-1	0	355	0.3	354	356	8.7	97.0
2025-09-29T00:14	10	0	0.1	0	0	355	0.3	354	356	8.7	97.1
2025-09-29T00:15	10	0	0.1	-1	0	355	0.3	354	355	8.8	97.2
2025-09-29T00:16	10	0	0.1	-1	0	355	0.3	354	356	8.8	97.3
2025-09-29T00:17	10	0	0.1	-1	0	355	0.3	355	356	8.8	97.2
2025-09-29T00:18	10	0	0.2	-1	0	355	0.2	355	356	8.9	96.9
2025-09-29T00:19	10	0	0.2	-1	0	355	0.4	355	356	8.8	97.1
2025-09-29T00:20	10	0	0.1	-1	0	356	0.2	355	356	8.8	97.0
2025-09-29T00:21	10	0	0.1	-1	0	355	0.3	355	356	8.8	96.5
2025-09-29T00:22	10	0	0.1	-1	0	355	0.2	355	356	8.8	96.7
2025-09-29T00:23	10	0	0.1	-1	0	355	0.3	355	356	8.7	96.7
2025-09-29T00:24	10	0	0.1	-1	0	355	0.3	355	356	8.7	96.6
2025-09-29T00:25	10	0	0.1	-1	0	355	0.3	355	356	8.7	96.8
2025-09-29T00:26	10	0	0.1	-1	0	355	0.2	355	356	8.7	96.8
2025-09-29T00:27	10	0	0.1	-1	0	355	0.2	355	356	8.7	96.8
2025-09-29T00:28	10	0	0.1	-1	0	355	0.2	355	356	8.7	97.1
2025-09-29T00:29	10	0	0.2	-1	0	355	0.3	354	356	8.7	97.0
2025-09-29T00:30	10	0	0.1	-1	0	355	0.2	355	356	8.7	97.0
2025-09-29T00:31	10	0	0.2	-1	0	355	0.3	354	356	8.7	97.1
2025-09-29T00:32	10	0	0.1	-1	0	355	0.3	354	355	8.7	97.3
2025-09-29T00:33	10	0	0.1	-1	0	355	0.3	354	355	8.7	97.2
2025-09-29T00:34	10	0	0.2	-1	0	355	0.4	354	356	8.7	97.4
2025-09-29T00:35	10	0	0.1	-1	0	355	0.3	354	355	8.7	97.3
2025-09-29T00:36	10	0	0.2	-1	0	354	0.3	354	355	8.7	97.0
2025-09-29T00:37	10	0	0.1	-1	0	354	0.3	353	355	8.7	97.1
2025-09-29T00:38	10	0	0.1	-1	0	354	0.2	354	355	8.7	97.1
2025-09-29T00:39	10	0	0.1	-1	0	354	0.3	353	354	8.7	97.1
2025-09-29T00:40	10	0	0.1	-1	0	353	0.3	353	354	8.7	97.1
2025-09-29T00:41	10	0	0.1	-1	0	353	0.2	353	354	8.6	97.4
2025-09-29T00:42	10	0	0.1	-1	0	353	0.2	352	353	8.6	97.6
2025-09-29T00:43	10	0	0.2	-1	0	352	0.2	352	353	8.6	97.8
2025-09-29T00:44	10	0	0.2	-1	0	352	0.3	351	352	8.6	98.1
2025-09-29T00:45	10	0	0.2	-1	0	351	0.3	350	352	8.5	98.0
2025-09-29T00:46	10	0	0.1	-1	0	351	0.2	350	352	8.6	97.8
2025-09-29T00:47	10	0	0.2	-1	0	351	0.3	350	352	8.6	97.7
2025-09-29T00:48	10	0	0.1	-1	0	351	0.3	350	351	8.7	97.6
2025-09-29T00:49	10	0	0.1	-1	0	350	0.3	350	351	8.7	97.6
2025-09-29T00:50	10	0	0.2	-1	0	350	0.2	350	351	8.7	97.6
2025-09-29T00:51	10	0	0.1	-1	0	350	0.2	349	351	8.7	97.5
2025-09-29T00:52	10	0	0.1	-1	0	350	0.2	349	350	8.6	97.6
2025-09-29T00:53	10	0	0.1	-1	0	350	0.2	349	350	8.6	97.4
2025-09-29T00:54	10	0	0.2	0	0	350	0.3	349	351	8.7	97.4
2025-09-29T00:55	10	0	0.1	0	0	350	0.2	350	351	8.6	97.4
2025-09-29T00:56	10	0	0.2	-1	0	350	0.2	350	351	8.6	97.3
2025-09-29T00:57	10	0	0.1	-1	0	350	0.3	349	351	8.6	97.1
2025-09-29T00:58	10	0	0.2	-1	0	350	0.3	349	351	8.6	96.9
2025-09-29T00:59	10	0	0.1	-1	0	350	0.3	349	351	8.6	97.1
2025-09-29T01:00	10	0	0.1	-1	0	349	0.3	349	350	8.5	97.2
2025-09-29T01:01	10	0	0.1	-1	0	349	0.3	349	350	8.5	97.2
2025-09-29T01:02	10	0	0.1	-1	0	349	0.3	349	350	8.5	97.4
2025-09-29T01:03	10	0	0.2	-1	0	349	0.3	348	350	8.5	97.6
2025-09-29T01:04	10	0	0.1	-1	0	349	0.3	348	350	8.5	97.6
2025-09-29T01:05	10	0	0.1	-1	0	349	0.3	348	350	8.5	97.6
2025-09-29T01:06	10	0	0.1	-1	0	349	0.3	348	350	8.5	97.4
2025-09-29T01:07	10	0	0.1	-1	0	349	0.3	349	350	8.6	97.4
2025-09-29T01:08	10	0	0.1	-1	0	350	0.2	349	350	8.6	97.3
2025-09-29T01:09	10	0	0.1	0	0	349	0.3	349	350	8.6	97.2
2025-09-29T01:10	10	0	0.1	0	0	350	0.2	349	350	8.6	97.1
2025-09-29T01:11	10	0	0.2	-1	0	350	0.2	349	350	8.5	96.9
2025-09-29T01:12	10	0	0.1	-1	0	350	0.2	350	351	8.5	96.9
2025-09-29T01:13	10	0	0.1	-1	0	350	0.3	350	351	8.6	97.0
2025-09-29T01:14	10	0	0.1	-1	0	350	0.3	350	351	8.5	97.1
2025-09-29T01:15	10	0	0.2	-1	0	350	0.3	349	351	8.5	97.3
2025-09-29T01:16	10	0	0.1	-1	0	350	0.3	349	351	8.5	97.3
2025-09-29T01:17	10	0	0.2	0	0	350	0.2	349	351	8.4	97.3
2025-09-29T01:18	10	0	0.1	0	0	350	0.4	349	351	8.4	96.9
2025-09-29T01:19	10	0	0.2	-1	0	350	0.3	349	350	8.4	97.0
2025-09-29T01:20	10	0	0.1	0	0	350	0.2	349	350	8.4	97.0
2025-09-29T01:21	10	0	0.1	0	0	350	0.2	349	350	8.4	97.1
2025-09-29T01:22	10	0	0.2	0	0	350	0.3	349	350	8.4	97.3
2025-09-29T01:23	10	0	0.1	0	0	350	0.2	349	350	8.4	97.3
2025-09-29T01:24	10	0	0.2	-1	0	350	0.2	349	350	8.4	97.4
2025-09-29T01:25	10	0	0.1	0	0	350	0.2	349	350	8.4	97.3
2025-09-29T01:26	10	0	0.1	0	0	349	0.3	349	350	8.3	97.2
2025-09-29T01:27	10	0	0.1	0	0	349	0.2	349	350	8.3	97.3
2025-09-29T01:28	10	0	0.2	0	0	349	0.3	349	350	8.3	97.6
2025-09-29T01:29	10	0	0.1	0	0	349	0.3	349	349	8.3	97.8
2025-09-29T01:30	10	0	0.2	0	0	349	0.3	348	350	8.3	97.8
2025-09-29T01:31	10	0	0.1	0	0	349	0.3	348	349	8.3	97.8
2025-09-29T01:32	10	0	0.1	0	0	349	0.5	348	350	8.3	97.8
2025-09-29T01:33	10	0	0.2	0	0	349	0.3	349	350	8.3	97.9
2025-09-29T01:34	10	0	0.1	0	0	349	0.2	349	350	8.3	98.1
2025-09-29T01:35	10	0	0.1	0	0	349	0.3	348	350	8.2	98.1
2025-09-29T01:36	10	0	0.1	0	0	349	0.3	349	350	8.2	98.1
2025-09-29T01:37	10	0	0.1	0	0	349	0.3	348	349	8.2	98.3
2025-09-29T01:38	10	0	0.1	0	0	349	0.2	348	350	8.2	98.3
2025-09-29T01:39	10	0	0.1	0	0	349	0.2	348	349	8.3	98.2
2025-09-29T01:40	10	0	0.1	0	0	349	0.3	348	350	8.3	97.9
2025-09-29T01:41	10	0	0.1	0	0	349	0.3	348	349	8.3	98.4
2025-09-29T01:42	10	0	0.1	0	0	349	0.3	348	349	8.3	97.9
2025-09-29T01:43	10	0	0.1	0	0	349	0.2	348	349	8.3	98.1
2025-09-29T01:44	10	0	0.1	0	0	349	0.2	348	349	8.1	98.0
2025-09-29T01:45	10	0	0.1	0	0	349	0.2	348	349	8.1	97.9
2025-09-29T01:46	10	0	0.1	0	0	349	0.2	348	349	8.1	98.1
2025-09-29T01:47	10	0	0.1	0	0	349	0.3	348	349	8.1	98.0
2025-09-29T01:48	10	0	0.1	0	0	349	0.2	348	350	8.1	97.9
2025-09-29T01:49	10	0	0.1	0	0	349	0.2	349	349	8.2	98.2
2025-09-29T01:50	10	0	0.1	0	0	349	0.2	348	349	8.2	98.2
2025-09-29T01:51	10	0	0.1	0	0	348	0.2	348	349	8.2	98.4
2025-09-29T01:52	10	0	0.1	0	0	348	0.2	347	348	8.2	98.3
2025-09-29T01:53	10	0	0.1	-1	0	347	0.3	347	348	8.1	98.1
2025-09-29T01:54	10	0	0.1	0	0	347	0.2	347	348	8.1	97.7
2025-09-29T01:55	10	0	0.1	0	0	347	0.2	347	348	8.1	98.0
2025-09-29T01:56	10	0	0.1	0	0	347	0.2	347	348	8.1	98.2
2025-09-29T01:57	10	0	0.1	0	0	347	0.2	347	348	8.1	98.3
2025-09-29T01:58	10	0	0.1	0	0	347	0.2	347	348	8.1	98.2
2025-09-29T01:59	10	0	0.1	0	0	347	0.2	347	348	8.1	97.9
2025-09-29T02:00	10	0	0.1	0	0	347	0.2	347	348	8.1	98.1
2025-09-29T02:01	10	0	0.1	0	0	348	0.2	347	348	8.1	98.1
2025-09-29T02:02	10	0	0.1	0	0	347	0.2	347	348	8.1	98.0
2025-09-29T02:03	10	0	0.1	-1	0	347	0.2	347	347	8.1	98.0
2025-09-29T02:04	10	0	0.1	-1	0	347	0.2	347	348	8.1	98.0
2025-09-29T02:05	10	0	0.1	0	0	347	0.2	347	348	8.1	98.0
2025-09-29T02:06	10	0	0.1	0	0	347	0.1	347	348	8.0	98.1
2025-09-29T02:07	10	0	0.1	0	0	347	0.2	347	348	8.0	98.1
2025-09-29T02:08	10	0	0.1	0	0	348	0.2	347	348	8.0	98.3
2025-09-29T02:09	10	0	0.1	0	0	347	0.2	347	348	7.9	98.4
2025-09-29T02:10	10	0	0.1	0	0	347	0.2	347	348	8.0	98.4
2025-09-29T02:11	10	0	0.1	0	0	347	0.2	347	348	7.9	98.8
2025-09-29T02:12	10	0	0.1	0	0	347	0.3	346	348	7.9	98.8
2025-09-29T02:13	10	0	0.1	0	0	347	0.2	347	348	7.9	98.6
2025-09-29T02:14	10	0	0.1	0	0	347	0.2	347	348	7.8	98.6
2025-09-29T02:15	10	0	0.1	0	0	348	0.2	347	348	7.9	98.7
2025-09-29T02:16	10	0	0.1	0	0	348	0.2	348	349	7.9	98.6
2025-09-29T02:17	10	0	0.1	0	0	348	0.2	348	348	7.8	98.5
2025-09-29T02:18	10	0	0.1	0	0	348	0.2	347	348	7.8	98.5
2025-09-29T02:19	10	0	0.1	0	0	348	0.2	348	348	7.8	98.5
2025-09-29T02:20	10	0	0.0	0	0	348	0.2	347	348	7.8	98.6
2025-09-29T02:21	10	0	0.1	0	0	347	0.2	347	348	7.8	98.5
2025-09-29T02:22	10	0	0.1	0	0	347	0.3	346	348	7.8	98.7
2025-09-29T02:23	10	0	0.1	0	0	347	0.3	346	347	7.8	98.6
2025-09-29T02:24	10	0	0.1	0	0	347	0.3	347	348	7.9	98.2
2025-09-29T02:25	10	0	0.1	0	0	347	0.2	347	348	7.9	98.2
2025-09-29T02:26	10	0	0.1	0	0	348	0.3	347	349	7.8	98.0
2025-09-29T02:27	10	0	0.1	0	0	348	0.3	347	349	7.9	97.9
2025-09-29T02:28	10	0	0.1	0	0	348	0.3	348	349	7.9	97.9
2025-09-29T02:29	10	0	0.1	0	0	349	0.3	348	349	7.9	97.6
2025-09-29T02:30	10	0	0.1	0	0	349	0.2	348	349	7.9	97.6
2025-09-29T02:31	10	0	0.1	0	0	349	0.2	348	349	7.8	97.6
2025-09-29T02:32	10	0	0.1	0	0	349	0.3	348	349	7.8	97.7
2025-09-29T02:33	10	0	0.1	0	0	349	0.2	348	349	7.8	97.8
2025-09-29T02:34	10	0	0.1	0	0	349	0.2	348	349	7.8	97.9
2025-09-29T02:35	10	0	0.1	0	0	349	0.2	348	349	7.8	97.8
2025-09-29T02:36	10	0	0.1	0	0	349	0.2	348	349	7.8	97.8
2025-09-29T02:37	10	0	0.1	0	0	349	0.2	348	349	7.8	97.8
2025-09-29T02:38	10	0	0.0	0	0	348	0.2	348	349	7.8	97.9
2025-09-29T02:39	10	0	0.1	0	0	348	0.2	347	348	7.8	98.0
2025-09-29T02:40	10	0	0.1	0	0	348	0.3	347	348	7.7	98.1
2025-09-29T02:41	10	0	0.1	0	0	348	0.2	347	348	7.7	97.8
2025-09-29T02:42	10	0	0.1	0	0	347	0.2	347	348	7.7	97.9
2025-09-29T02:43	10	0	0.1	0	0	347	0.2	347	348	7.7	97.9
2025-09-29T02:44	10	0	0.1	0	0	347	0.2	347	347	7.7	97.8
2025-09-29T02:45	10	0	0.1	0	0	347	0.2	347	348	7.7	97.9
2025-09-29T02:46	10	0	0.1	0	0	347	0.2	347	348	7.7	97.9
2025-09-29T02:47	10	0	0.1	0	0	347	0.2	347	348	7.7	97.8
2025-09-29T02:48	10	0	0.1	0	0	347	0.2	346	347	7.7	97.9
2025-09-29T02:49	10	0	0.1	0	0	347	0.3	346	348	7.7	97.9
2025-09-29T02:50	10	0	0.1	0	0	347	0.2	346	347	7.7	98.0
2025-09-29T02:51	10	0	0.1	0	0	347	0.3	346	348	7.7	97.8
2025-09-29T02:52	10	0	0.1	0	0	347	0.2	347	348	7.7	97.8
2025-09-29T02:53	10	0	0.1	0	0	348	0.2	347	348	7.8	97.8
2025-09-29T02:54	10	0	0.1	0	0	348	0.2	347	348	7.7	97.9
2025-09-29T02:55	10	0	0.1	0	0	348	0.2	347	348	7.7	97.8
2025-09-29T02:56	10	0	0.1	0	0	348	0.2	347	348	7.7	97.9
2025-09-29T02:57	10	0	0.1	0	0	348	0.2	348	349	7.6	97.9
2025-09-29T02:58	10	0	0.0	0	0	348	0.2	348	348	7.6	98.0
2025-09-29T02:59	10	0	0.1	0	0	348	0.2	348	349	7.6	98.2
2025-09-29T03:00	10	0	0.1	0	0	348	0.2	348	349	7.6	98.1
2025-09-29T03:01	10	0	0.1	0	0	349	0.3	348	349	7.6	98.1
2025-09-29T03:02	10	0	0.1	0	0	349	0.3	348	349	7.6	98.1
2025-09-29T03:03	10	0	0.1	0	0	349	0.3	348	349	7.5	98.3
2025-09-29T03:04	10	0	0.1	0	0	349	0.3	348	349	7.5	98.1
2025-09-29T03:05	10	0	0.1	0	0	349	0.2	348	349	7.4	98.1
2025-09-29T03:06	10	0	0.1	0	0	349	0.3	348	349	7.4	98.2
2025-09-29T03:07	10	0	0.1	0	0	349	0.2	349	349	7.4	98.4
2025-09-29T03:08	10	0	0.1	0	0	349	0.3	348	350	7.4	98.7
2025-09-29T03:09	10	0	0.1	0	0	349	0.2	349	350	7.5	98.9
2025-09-29T03:10	10	0	0.0	0	0	349	0.2	349	350	7.5	98.7
2025-09-29T03:11	10	0	0.1	0	0	349	0.2	349	350	7.5	98.8
2025-09-29T03:12	10	0	0.1	0	0	349	0.2	349	350	7.5	98.8
2025-09-29T03:13	10	0	0.0	0	0	350	0.3	349	350	7.5	98.9
2025-09-29T03:14	10	0	0.1	0	0	350	0.3	349	350	7.5	98.8
2025-09-29T03:15	10	0	0.1	0	0	350	0.2	349	350	7.6	98.7
2025-09-29T03:16	10	0	0.1	0	0	350	0.2	350	351	7.6	98.7
2025-09-29T03:17	10	0	0.1	0	0	350	0.2	350	351	7.6	98.7
2025-09-29T03:18	10	0	0.0	0	0	350	0.2	350	351	7.6	98.8
2025-09-29T03:19	10	0	0.1	0	0	350	0.2	350	351	7.6	98.6
2025-09-29T03:20	10	0	0.1	0	0	351	0.2	350	351	7.7	98.4
2025-09-29T03:21	10	0	0.1	0	0	351	0.2	350	351	7.7	98.2
2025-09-29T03:22	10	0	0.1	0	0	351	0.3	350	352	7.7	97.9
2025-09-29T03:23	10	0	0.1	0	0	351	0.2	351	352	7.7	97.8
2025-09-29T03:24	10	0	0.0	0	0	351	0.2	351	352	7.8	97.6
2025-09-29T03:25	10	0	0.1	0	0	352	0.3	351	352	7.8	97.6
2025-09-29T03:26	10	0	0.1	0	0	352	0.2	351	352	7.8	97.4
2025-09-29T03:27	10	0	0.1	0	0	352	0.2	351	352	7.9	97.4
2025-09-29T03:28	10	0	0.1	0	0	352	0.2	352	353	7.9	97.6
2025-09-29T03:29	10	0	0.1	0	0	352	0.2	352	353	7.9	97.4
2025-09-29T03:30	10	0	0.0	0	0	353	0.2	352	353	7.9	97.3
2025-09-29T03:31	10	0	0.1	0	0	353	0.2	352	353	7.8	97.0
2025-09-29T03:32	10	0	0.1	0	0	353	0.2	352	353	7.8	96.9
2025-09-29T03:33	10	0	0.1	0	0	353	0.2	352	353	7.8	96.7
2025-09-29T03:34	10	0	0.1	0	0	352	0.2	352	353	7.8	96.4
2025-09-29T03:35	10	0	0.1	0	0	352	0.2	352	353	7.8	96.6
2025-09-29T03:36	10	0	0.1	0	0	353	0.2	352	353	7.8	96.6
2025-09-29T03:37	10	0	0.1	0	0	353	0.3	352	353	7.8	96.9
2025-09-29T03:38	10	0	0.1	0	0	353	0.2	352	353	7.9	96.8
2025-09-29T03:39	10	0	0.1	0	0	353	0.2	353	353	7.9	96.9
2025-09-29T03:40	10	0	0.1	0	0	353	0.2	352	353	7.9	96.8
2025-09-29T03:41	10	0	0.1	0	0	353	0.2	352	353	7.9	96.9
2025-09-29T03:42	10	0	0.1	0	0	353	0.3	352	353	7.9	97.1
2025-09-29T03:43	10	0	0.1	0	0	352	0.3	351	353	7.9	96.8
2025-09-29T03:44	10	0	0.1	0	0	352	0.3	351	353	8.0	96.6
2025-09-29T03:45	10	0	0.1	0	0	352	0.2	352	353	8.1	96.3
2025-09-29T03:46	10	0	0.1	0	0	352	0.2	352	353	8.1	96.1
2025-09-29T03:47	10	0	0.1	0	0	353	0.3	352	353	8.2	95.6
2025-09-29T03:48	10	0	0.1	0	0	352	0.3	352	353	8.3	95.0
2025-09-29T03:49	10	0	0.1	0	0	352	0.2	352	353	8.4	94.4
2025-09-29T03:50	10	0	0.1	-1	0	353	0.3	352	353	8.6	94.1
2025-09-29T03:51	10	0	0.1	-1	0	353	0.3	352	353	8.6	93.6
2025-09-29T03:52	10	0	0.1	-1	0	352	3.2	329	353	8.5	93.9
2025-09-29T03:53	10	0	0.1	-1	0	352	0.3	351	352	8.4	94.7
2025-09-29T03:54	10	0	0.1	0	0	352	0.4	351	353	8.3	95.4
2025-09-29T03:55	10	0	0.1	0	0	352	0.3	352	353	8.3	95.8
2025-09-29T03:56	10	0	0.1	0	0	352	0.2	352	353	8.2	95.8
2025-09-29T03:57	10	0	0.1	0	0	352	0.3	352	353	8.3	95.7
2025-09-29T03:58	10	0	0.1	-1	0	352	0.2	352	353	8.5	94.8
2025-09-29T03:59	10	0	0.1	-1	0	352	0.6	351	353	8.6	94.5
2025-09-29T04:00	10	0	0.1	0	0	351	0.3	350	352	8.5	94.5
2025-09-29T04:01	10	0	0.0	0	0	351	0.2	350	351	8.4	94.4
2025-09-29T04:02	10	0	0.1	0	0	351	0.3	350	351	8.2	94.8
2025-09-29T04:03	10	0	0.1	0	0	350	0.2	350	351	8.1	95.1
2025-09-29T04:04	10	0	0.1	0	0	350	0.2	350	351	8.0	95.4
2025-09-29T04:05	10	0	0.1	0	0	350	0.2	350	351	8.0	95.9
2025-09-29T04:06	10	0	0.1	-1	0	350	0.2	350	351	8.0	96.2
2025-09-29T04:07	10	0	0.1	0	0	350	0.2	350	351	8.0	96.3
2025-09-29T04:08	10	0	0.1	0	0	350	0.2	350	351	8.1	96.1
2025-09-29T04:09	10	0	0.1	0	0	350	0.2	350	350	8.2	96.2
2025-09-29T04:10	10	0	0.1	0	0	350	0.2	350	351	8.1	96.2
2025-09-29T04:11	10	0	0.1	-1	0	350	0.2	350	350	8.2	96.1
2025-09-29T04:12	10	0	0.1	-1	0	350	0.2	350	351	8.2	96.0
2025-09-29T04:13	10	0	0.1	-1	0	350	0.3	349	351	8.3	95.8
2025-09-29T04:14	10	0	0.1	-1	0	350	0.2	349	350	8.3	95.6
2025-09-29T04:15	10	0	0.1	-1	0	350	0.2	349	350	8.3	95.5
2025-09-29T04:16	10	0	0.1	-1	0	349	0.2	349	349	8.3	95.5
2025-09-29T04:17	10	0	0.1	-1	0	349	0.3	348	349	8.4	95.4
2025-09-29T04:18	10	0	0.1	0	0	348	0.2	348	349	8.3	95.4
2025-09-29T04:19	10	0	0.1	-1	0	348	0.2	347	349	8.3	95.4
2025-09-29T04:20	10	0	0.1	0	0	348	0.3	347	348	8.2	95.8
2025-09-29T04:21	10	0	0.1	0	0	347	0.2	347	347	8.2	96.2
2025-09-29T04:22	10	0	0.1	0	0	347	0.2	346	347	8.1	96.3
2025-09-29T04:23	10	0	0.1	0	0	346	0.2	346	347	8.1	96.4
2025-09-29T04:24	10	0	0.1	0	0	346	0.2	346	347	8.1	96.3
2025-09-29T04:25	10	0	0.1	-1	0	346	0.2	346	347	8.2	96.4
2025-09-29T04:26	10	0	0.1	-1	0	346	0.2	345	346	8.2	96.3
2025-09-29T04:27	10	0	0.1	-1	0	345	0.3	345	346	8.2	96.5
2025-09-29T04:28	10	0	0.1	-1	0	345	0.2	344	345	8.1	96.5
2025-09-29T04:29	10	0	0.1	-1	0	344	0.4	343	345	8.1	96.4
2025-09-29T04:30	10	0	0.1	-1	0	343	0.3	343	344	8.1	96.5
2025-09-29T04:31	10	0	0.1	-1	0	343	0.3	342	343	8.1	96.4
2025-09-29T04:32	10	0	0.1	-1	0	342	0.2	342	343	8.1	96.6
2025-09-29T04:33	10	0	0.1	-1	0	343	0.2	342	343	8.1	96.5
2025-09-29T04:34	10	0	0.1	-1	0	342	0.3	342	343	8.1	96.8
2025-09-29T04:35	10	0	0.1	-1	0	342	0.2	342	343	8.1	96.6
2025-09-29T04:36	10	0	0.1	0	0	343	0.4	342	344	8.0	96.7
2025-09-29T04:37	10	0	0.1	-1	0	344	0.2	344	345	8.0	96.9
2025-09-29T04:38	10	0	0.1	-1	0	344	0.2	344	344	7.9	97.1
2025-09-29T04:39	10	0	0.1	-1	0	344	0.2	344	344	8.0	96.9
2025-09-29T04:40	10	0	0.1	0	0	344	0.3	343	344	7.9	96.9
2025-09-29T04:41	10	0	0.1	0	0	344	0.2	343	344	7.9	96.9
2025-09-29T04:42	10	0	0.1	0	0	344	0.3	343	345	7.9	96.9
2025-09-29T04:43	10	0	0.1	0	0	344	0.2	344	345	7.9	96.8
2025-09-29T04:44	10	0	0.1	-1	0	345	0.3	344	345	8.0	96.6
2025-09-29T04:45	10	0	0.1	-1	0	345	0.3	345	346	8.0	96.3
2025-09-29T04:46	10	0	0.1	-1	0	346	0.2	345	346	8.0	96.0
2025-09-29T04:47	10	0	0.1	-1	0	346	0.3	345	346	7.9	95.9
2025-09-29T04:48	10	0	0.1	-1	0	346	0.3	346	347	8.0	95.8
2025-09-29T04:49	10	0	0.1	-1	0	346	0.2	346	347	7.9	95.9
2025-09-29T04:50	10	0	0.1	-1	0	347	0.2	346	347	7.9	95.9
2025-09-29T04:51	10	0	0.1	-1	0	347	0.2	346	347	7.9	96.0
2025-09-29T04:52	10	0	0.1	-1	0	347	0.2	346	347	7.9	96.0
2025-09-29T04:53	10	0	0.1	-1	0	347	0.3	347	348	8.0	95.9
2025-09-29T04:54	10	0	0.1	-1	0	348	0.3	347	348	8.0	95.7
2025-09-29T04:55	10	0	0.1	0	0	348	0.3	348	349	8.0	95.5
2025-09-29T04:56	10	0	0.1	0	0	349	0.3	348	350	8.0	95.4
2025-09-29T04:57	10	0	0.1	0	0	350	0.2	349	350	8.0	95.3
2025-09-29T04:58	10	0	0.1	-1	0	350	0.3	350	351	8.0	95.3
2025-09-29T04:59	10	0	0.1	0	0	351	0.3	350	351	8.1	95.0
2025-09-29T05:00	10	0	0.1	0	0	351	0.3	351	352	8.1	95.0
2025-09-29T05:01	10	0	0.1	0	0	351	0.2	351	352	8.2	94.9
2025-09-29T05:02	10	0	0.1	0	0	352	0.2	351	352	8.2	94.7
2025-09-29T05:03	10	0	0.1	0	0	352	0.3	351	352	8.2	94.8
2025-09-29T05:04	10	0	0.1	0	0	352	0.2	352	352	8.3	94.7
2025-09-29T05:05	10	0	0.1	0	0	352	0.2	351	352	8.3	94.8
2025-09-29T05:06	10	0	0.1	0	0	352	0.2	352	352	8.3	95.0
2025-09-29T05:07	10	0	0.0	0	0	352	0.3	351	353	8.3	94.8
2025-09-29T05:08	10	0	0.0	0	0	352	0.2	352	353	8.4	94.9
2025-09-29T05:09	10	0	0.0	0	0	353	0.2	352	353	8.4	94.7
2025-09-29T05:10	10	0	0.0	0	0	353	0.2	352	353	8.4	94.7
2025-09-29T05:11	10	0	0.1	0	0	353	0.2	353	354	8.4	95.0
2025-09-29T05:12	10	0	0.1	0	0	353	0.2	353	354	8.5	94.9
2025-09-29T05:13	10	0	0.1	0	0	354	0.2	353	354	8.6	94.7
2025-09-29T05:14	10	0	0.1	0	0	354	0.2	354	355	8.6	94.8
2025-09-29T05:15	10	0	0.0	0	0	355	0.2	354	355	8.6	94.9
2025-09-29T05:16	10	0	0.0	0	0	355	0.2	354	355	8.6	94.9
2025-09-29T05:17	10	0	0.1	0	0	355	0.2	354	355	8.6	95.1
2025-09-29T05:18	10	0	0.1	0	0	355	0.2	355	356	8.6	94.9
2025-09-29T05:19	10	0	0.1	0	0	355	0.3	354	356	8.6	95.2
2025-09-29T05:20	10	0	0.0	0	0	356	0.2	355	356	8.7	95.2
2025-09-29T05:21	10	0	0.1	0	0	356	0.2	355	356	8.7	95.1
2025-09-29T05:22	10	0	0.1	0	0	356	0.2	355	356	8.7	95.2
2025-09-29T05:23	10	0	0.1	0	0	356	0.2	355	357	8.7	95.4
2025-09-29T05:24	10	0	0.1	0	0	356	0.2	355	356	8.7	94.7
2025-09-29T05:25	10	0	0.1	0	0	356	0.2	355	356	8.7	94.4
2025-09-29T05:26	10	0	0.1	0	0	356	0.2	355	356	8.7	94.0
2025-09-29T05:27	10	0	0.1	0	0	356	0.2	355	356	8.7	94.1
2025-09-29T05:28	10	0	0.1	0	0	356	0.3	355	356	8.7	94.7
2025-09-29T05:29	10	0	0.1	0	0	356	0.2	355	356	8.7	95.2
2025-09-29T05:30	10	0	0.1	0	0	356	0.3	355	356	8.7	95.3
2025-09-29T05:31	10	0	0.1	0	0	356	0.2	355	356	8.7	95.3
2025-09-29T05:32	10	0	0.0	0	0	356	0.2	356	357	8.7	95.2
2025-09-29T05:33	10	0	0.1	0	0	356	0.2	355	356	8.7	95.2
2025-09-29T05:34	10	0	0.0	0	0	356	0.2	356	356	8.7	95.5
2025-09-29T05:35	10	0	0.1	0	1	356	0.2	356	357	8.7	95.7
2025-09-29T05:36	10	0	0.1	0	1	356	0.2	356	357	8.6	95.4
2025-09-29T05:37	10	1	0.1	0	1	356	0.2	356	356	8.6	95.4
2025-09-29T05:38	10	1	0.1	0	1	356	0.2	355	356	8.6	95.4
2025-09-29T05:39	10	1	0.1	1	1	356	0.2	355	356	8.6	95.5
2025-09-29T05:40	10	1	0.1	1	1	356	0.2	356	356	8.7	95.2
2025-09-29T05:41	10	1	0.1	1	1	356	0.2	355	356	8.7	95.2
2025-09-29T05:42	10	1	0.1	1	1	356	0.2	355	356	8.7	95.3
2025-09-29T05:43	10	1	0.1	1	1	356	0.2	355	356	8.7	95.5
2025-09-29T05:44	10	1	0.1	1	1	356	0.2	355	356	8.7	95.6
2025-09-29T05:45	10	1	0.1	1	1	356	0.2	355	356	8.6	95.8
2025-09-29T05:46	10	1	0.1	1	2	356	0.2	355	356	8.6	96.0
2025-09-29T05:47	10	1	0.3	1	4	356	0.2	355	356	8.6	96.3
2025-09-29T05:48	10	2	0.1	1	2	355	0.2	355	356	8.5	96.5
2025-09-29T05:49	10	2	0.1	1	2	356	0.2	355	356	8.5	96.6
2025-09-29T05:50	10	2	0.1	2	2	356	0.2	355	356	8.5	96.7
2025-09-29T05:51	10	2	0.1	2	2	356	0.2	355	356	8.5	96.6
2025-09-29T05:52	10	2	0.1	2	2	356	0.2	355	356	8.4	96.7
2025-09-29T05:53	10	2	0.1	2	2	356	0.2	355	356	8.4	97.0
2025-09-29T05:54	10	2	0.1	2	2	356	0.2	355	357	8.5	97.2
2025-09-29T05:55	10	2	0.1	2	2	356	0.2	356	357	8.4	97.0
2025-09-29T05:56	10	2	0.1	2	3	356	0.2	356	357	8.5	96.7
2025-09-29T05:57	10	3	0.1	2	3	356	0.2	356	357	8.5	96.6
2025-09-29T05:58	10	3	0.1	3	3	357	0.2	356	357	8.5	96.6
2025-09-29T05:59	10	3	0.1	3	3	357	0.2	356	357	8.6	96.4
2025-09-29T06:00	10	3	0.1	3	3	357	0.2	356	357	8.6	96.5
2025-09-29T06:01	10	3	0.1	3	3	357	0.2	356	357	8.6	96.7
2025-09-29T06:02	10	3	0.1	3	4	357	0.2	357	357	8.6	96.5
2025-09-29T06:03	10	4	0.1	3	4	357	0.2	357	358	8.6	96.4
2025-09-29T06:04	10	4	0.1	4	4	357	0.2	357	358	8.6	96.7
2025-09-29T06:05	10	4	0.1	4	4	357	0.2	357	358	8.6	96.5
2025-09-29T06:06	10	4	0.1	4	4	357	0.2	357	358	8.6	96.1
2025-09-29T06:07	10	4	0.1	4	4	358	0.2	357	358	8.7	96.0
2025-09-29T06:08	10	4	0.1	4	5	357	0.2	357	358	8.7	96.1
2025-09-29T06:09	10	5	0.1	4	5	358	0.2	357	358	8.7	96.0
2025-09-29T06:10	10	5	0.1	5	5	358	0.2	357	358	8.7	96.0
2025-09-29T06:11	10	5	0.1	5	5	358	0.2	358	359	8.8	95.7
2025-09-29T06:12	10	5	0.1	5	5	358	0.2	358	359	8.8	95.5
2025-09-29T06:13	10	5	0.1	5	5	359	0.2	358	359	8.9	95.7
2025-09-29T06:14	10	5	0.1	5	5	359	0.2	358	359	8.9	95.8
2025-09-29T06:15	10	5	0.1	5	5	359	0.2	358	359	8.9	96.1
2025-09-29T06:16	10	5	0.1	5	6	359	0.2	359	359	8.9	96.2
2025-09-29T06:17	10	6	0.1	5	6	359	0.2	359	360	8.9	96.3
2025-09-29T06:18	10	6	0.1	6	6	360	0.2	359	360	8.9	96.4
2025-09-29T06:19	10	6	0.1	6	6	360	0.2	359	360	9.0	96.3
2025-09-29T06:20	10	6	0.1	6	7	360	0.2	359	360	9.0	95.8
2025-09-29T06:21	10	6	0.1	6	7	360	0.3	360	361	9.0	95.8
2025-09-29T06:22	10	7	0.1	6	7	360	0.2	360	361	9.0	96.0
2025-09-29T06:23	10	7	0.1	7	7	361	0.2	360	361	9.0	96.2
2025-09-29T06:24	10	7	0.1	7	7	361	0.2	360	361	9.0	95.7
2025-09-29T06:25	10	7	0.1	7	7	361	0.2	361	361	9.1	95.3
2025-09-29T06:26	10	7	0.1	7	8	361	0.2	361	362	9.1	95.4
2025-09-29T06:27	10	8	0.1	7	8	362	0.2	361	362	9.1	95.3
2025-09-29T06:28	10	8	0.1	7	8	362	0.2	361	362	9.1	95.0
2025-09-29T06:29	10	8	0.1	8	8	362	0.3	362	363	9.2	94.7
2025-09-29T06:30	10	8	0.2	8	9	362	0.3	362	363	9.3	94.4
2025-09-29T06:31	10	9	0.1	9	9	362	0.2	362	363	9.3	94.4
2025-09-29T06:32	10	9	0.1	9	9	363	0.3	362	363	9.3	94.8
2025-09-29T06:33	10	9	0.2	9	10	363	0.2	362	364	9.3	94.8
2025-09-29T06:34	10	9	0.1	9	10	363	0.2	362	363	9.4	94.7
2025-09-29T06:35	10	9	0.2	9	10	363	0.2	363	364	9.4	94.8
2025-09-29T06:36	10	10	0.2	9	10	363	0.3	363	364	9.4	95.2
2025-09-29T06:37	10	10	0.2	9	10	364	0.3	363	364	9.5	95.3
2025-09-29T06:38	10	10	0.1	9	10	364	0.2	364	364	9.5	94.6
2025-09-29T06:39	10	10	0.2	9	10	364	0.2	363	364	9.5	94.6
2025-09-29T06:40	10	10	0.1	10	10	364	0.2	363	364	9.5	93.5
2025-09-29T06:41	10	10	0.1	10	10	364	0.2	363	365	9.5	93.3
2025-09-29T06:42	10	10	0.1	10	10	364	0.2	363	364	9.5	93.7
2025-09-29T06:43	10	10	0.2	10	11	364	0.2	363	364	9.6	94.3
2025-09-29T06:44	10	10	0.1	10	10	364	0.2	364	365	9.5	94.3
2025-09-29T06:45	10	10	0.1	10	11	364	0.2	364	365	9.6	94.6
2025-09-29T06:46	10	10	0.1	10	11	364	0.2	364	365	9.6	95.0
2025-09-29T06:47	10	10	0.1	10	11	364	0.2	364	364	9.6	94.8
2025-09-29T06:48	10	11	0.1	10	11	364	0.2	364	364	9.6	94.4
2025-09-29T06:49	10	11	0.1	11	11	364	0.2	363	364	9.6	93.2
2025-09-29T06:50	10	11	0.1	11	11	364	0.2	363	364	9.6	92.9
2025-09-29T06:51	10	12	0.1	11	12	364	0.2	363	364	9.6	93.1
2025-09-29T06:52	10	12	0.1	12	12	364	0.2	364	364	9.6	93.0
2025-09-29T06:53	10	12	0.1	12	12	364	0.2	364	365	9.6	92.6
2025-09-29T06:54	10	12	0.1	12	12	364	0.2	364	365	9.6	92.9
2025-09-29T06:55	10	12	0.1	12	13	364	0.2	364	364	9.6	92.5
2025-09-29T06:56	10	13	0.1	12	13	364	0.2	364	365	9.6	92.8
2025-09-29T06:57	10	13	0.1	13	13	364	0.2	364	364	9.6	93.1
2025-09-29T06:58	10	13	0.1	13	13	364	0.3	364	365	9.6	92.6
2025-09-29T06:59	10	13	0.1	13	13	364	0.2	364	365	9.6	92.6
2025-09-29T07:00	10	13	0.1	13	13	364	0.3	364	365	9.5	92.8
2025-09-29T07:01	10	13	0.1	13	14	365	0.2	364	365	9.5	92.9
2025-09-29T07:02	10	13	0.1	13	14	365	0.3	364	365	9.5	92.8
2025-09-29T07:03	10	14	0.1	13	14	364	0.2	364	365	9.5	92.7
2025-09-29T07:04	10	14	0.1	14	14	365	0.2	364	365	9.5	93.0
2025-09-29T07:05	10	14	0.1	14	14	365	0.2	365	365	9.6	93.8
2025-09-29T07:06	10	14	0.1	14	14	365	0.2	365	366	9.6	94.2
2025-09-29T07:07	10	15	0.1	14	15	365	0.2	365	366	9.6	94.5
2025-09-29T07:08	10	15	0.1	15	15	365	0.2	365	366	9.6	94.3
2025-09-29T07:09	10	15	0.1	15	15	366	0.2	365	366	9.7	94.4
2025-09-29T07:10	10	15	0.1	15	15	366	0.2	365	366	9.7	94.4
2025-09-29T07:11	10	15	0.1	15	15	366	0.2	365	366	9.6	93.7
2025-09-29T07:12	10	15	0.1	15	15	366	0.2	365	366	9.6	93.7
2025-09-29T07:13	10	15	0.1	15	16	366	0.2	365	367	9.7	94.2
2025-09-29T07:14	10	16	0.1	16	16	366	0.2	366	367	9.7	93.9
2025-09-29T07:15	10	16	0.1	16	16	366	0.3	366	367	9.6	93.4
2025-09-29T07:16	10	16	0.1	16	16	366	0.2	366	367	9.7	93.2
2025-09-29T07:17	10	16	0.1	16	16	366	0.2	366	367	9.7	92.9
2025-09-29T07:18	10	17	0.1	16	17	366	0.3	366	367	9.7	93.2
2025-09-29T07:19	10	17	0.1	17	17	366	0.2	366	367	9.7	93.0
2025-09-29T07:20	10	18	0.2	17	18	367	0.2	366	367	9.7	92.9
2025-09-29T07:21	10	18	0.2	18	18	367	0.3	366	368	9.7	93.4
2025-09-29T07:22	10	18	0.2	18	19	367	0.2	367	368	9.8	93.4
2025-09-29T07:23	10	19	0.2	19	19	367	0.3	367	368	9.8	93.3
2025-09-29T07:24	10	20	0.1	19	20	368	0.2	367	368	9.8	93.0
2025-09-29T07:25	10	20	0.2	20	20	368	0.2	368	369	9.9	93.4
2025-09-29T07:26	10	21	0.2	20	21	368	0.2	368	369	9.9	93.1
2025-09-29T07:27	10	21	0.2	21	22	368	0.2	368	369	10.0	93.0
2025-09-29T07:28	10	22	0.2	21	22	369	0.2	368	369	10.0	92.1
2025-09-29T07:29	10	22	0.2	22	23	369	0.2	368	369	10.0	91.7
2025-09-29T07:30	10	23	0.3	23	24	369	0.2	369	370	10.0	91.6
2025-09-29T07:31	10	24	0.2	24	24	369	0.2	369	370	10.0	91.8
2025-09-29T07:32	10	25	0.2	24	25	370	0.2	369	370	10.1	92.6
2025-09-29T07:33	10	25	0.2	25	26	370	0.2	370	371	10.2	92.4
2025-09-29T07:34	10	26	0.2	26	26	370	0.2	370	371	10.2	91.8
2025-09-29T07:35	10	27	0.2	26	27	371	0.3	370	371	10.2	92.1
2025-09-29T07:36	10	28	0.3	27	28	371	0.2	370	371	10.2	92.5
2025-09-29T07:37	10	28	0.3	28	29	371	0.3	371	372	10.3	92.8
2025-09-29T07:38	10	29	0.3	29	30	372	0.2	371	372	10.0	92.8
2025-09-29T07:39	10	30	0.2	30	31	371	0.2	371	372	10.3	92.8
2025-09-29T07:40	10	31	0.2	31	31	372	0.3	371	372	10.3	92.8
2025-09-29T07:41	10	32	0.2	31	32	372	0.2	372	373	10.3	92.8
2025-09-29T07:42	10	32	0.2	32	33	373	0.3	372	373	10.3	92.8
2025-09-29T07:43	10	33	0.1	33	33	372	0.2	372	373	10.3	92.8
2025-09-29T07:44	10	33	0.2	33	33	372	0.2	372	373	10.2	91.7
2025-09-29T07:45	10	34	0.2	33	34	372	0.2	372	373	10.2	90.6
2025-09-29T07:46	10	34	0.3	34	35	372	0.3	372	373	10.1	90.9
2025-09-29T07:47	10	36	0.5	35	37	372	0.3	372	373	10.1	90.7
2025-09-29T07:48	10	37	0.5	37	38	373	0.2	372	373	10.2	91.7
2025-09-29T07:49	10	39	0.5	38	40	373	0.3	373	374	10.2	90.9
2025-09-29T07:50	10	41	0.4	40	41	374	0.2	373	374	10.3	90.7
2025-09-29T07:51	10	42	0.4	41	43	374	0.3	373	374	10.3	91.0
2025-09-29T07:52	10	43	0.3	42	43	374	0.2	373	375	10.2	89.7
2025-09-29T07:53	10	43	0.1	42	43	374	0.2	373	374	10.2	89.2
2025-09-29T07:54	10	43	0.2	43	44	374	0.3	374	375	10.3	89.4
2025-09-29T07:55	10	44	0.4	43	45	375	0.3	374	375	10.4	89.7
2025-09-29T07:56	10	45	0.3	45	46	374	0.4	374	375	10.3	88.6
2025-09-29T07:57	10	47	0.7	46	48	374	0.3	374	375	10.3	88.5
2025-09-29T07:58	10	48	0.5	48	49	375	0.2	375	376	10.4	89.1
2025-09-29T07:59	10	49	0.4	48	50	375	0.2	374	375	10.3	89.1
2025-09-29T08:00	10	51	1.0	50	53	376	0.3	375	376	10.3	89.4
2025-09-29T08:01	10	56	2.6	52	63	377	0.6	376	378	10.4	89.5
2025-09-29T08:02	10	56	1.7	55	63	378	0.2	377	378	10.5	90.3
2025-09-29T08:03	10	58	2.3	56	64	378	0.2	378	379	10.5	88.8
2025-09-29T08:04	10	61	1.3	60	64	379	0.3	378	380	10.5	88.4
2025-09-29T08:05	10	60	0.1	59	60	379	0.2	379	380	10.6	89.0
2025-09-29T08:06	10	60	0.3	60	61	379	0.2	379	380	10.6	88.6
2025-09-29T08:07	10	62	0.7	61	63	380	0.2	379	380	10.7	88.4
2025-09-29T08:08	10	65	0.8	63	66	380	0.1	380	380	10.8	88.4
2025-09-29T08:09	10	68	1.9	66	73	381	0.4	380	381	10.8	88.4
2025-09-29T08:10	10	76	1.8	73	79	381	0.3	381	382	10.8	87.8
2025-09-29T08:11	10	75	1.1	73	77	382	0.3	382	383	10.9	87.7
2025-09-29T08:12	10	74	2.2	71	79	382	0.2	382	383	10.8	87.2
2025-09-29T08:13	10	70	0.7	69	72	382	0.2	382	383	10.9	88.0
2025-09-29T08:14	10	70	1.1	69	72	382	0.4	381	383	10.9	88.7
2025-09-29T08:15	10	76	7.3	71	96	382	0.3	381	383	10.9	88.5
2025-09-29T08:16	10	76	4.8	72	93	383	0.3	382	383	10.9	88.0
2025-09-29T08:17	10	73	0.4	72	74	383	0.3	382	384	11.1	88.7
2025-09-29T08:18	10	76	0.7	74	77	384	0.3	383	384	11.2	88.7
2025-09-29T08:19	10	77	0.4	76	77	383	0.4	382	384	11.1	87.1
2025-09-29T08:20	10	79	4.4	76	95	383	0.3	382	384	11.1	87.1
2025-09-29T08:21	10	83	3.1	81	94	384	0.2	383	384	11.1	88.2
2025-09-29T08:22	10	89	7.0	81	102	384	0.4	384	385	11.2	88.3
2025-09-29T08:23	10	89	7.2	84	106	385	0.5	384	386	11.2	87.3
2025-09-29T08:24	10	82	1.9	81	90	384	0.4	383	385	11.3	88.3
2025-09-29T08:25	10	90	3.5	83	98	386	0.8	384	387	11.3	87.1
2025-09-29T08:26	10	81	1.1	80	83	386	0.4	385	387	11.6	88.6
2025-09-29T08:27	10	90	5.9	80	100	386	0.8	385	388	11.6	87.8
2025-09-29T08:28	10	80	1.2	78	82	387	0.4	386	388	11.5	86.9
2025-09-29T08:29	10	78	0.2	78	79	386	0.6	385	387	11.4	86.6
2025-09-29T08:30	10	78	0.3	78	79	386	0.3	385	386	11.4	86.6
2025-09-29T08:31	10	81	1.6	79	84	385	0.3	385	386	11.3	86.6
2025-09-29T08:32	10	79	0.5	78	79	386	0.3	385	387	11.3	86.8
2025-09-29T08:33	10	90	7.9	79	107	387	1.0	386	389	11.5	87.3
2025-09-29T08:34	10	84	2.7	81	91	388	1.2	386	389	11.6	87.0
2025-09-29T08:35	10	106	26.9	82	167	387	1.6	386	392	11.4	85.4
2025-09-29T08:36	10	123	21.9	91	165	391	0.7	390	392	11.4	85.6
2025-09-29T08:37	10	95	4.6	90	103	390	0.3	390	391	11.6	86.1
2025-09-29T08:38	10	90	0.6	89	91	390	0.6	388	391	11.6	86.3
2025-09-29T08:39	10	97	4.1	92	106	389	0.3	389	390	11.5	85.6
2025-09-29T08:40	10	90	2.3	87	95	389	0.4	388	390	11.6	85.3
2025-09-29T08:41	10	103	13.4	92	130	390	1.0	389	392	11.7	85.2
2025-09-29T08:42	10	94	10.0	87	120	392	0.8	390	393	11.8	86.2
2025-09-29T08:43	10	89	1.4	87	93	391	0.4	390	392	11.9	86.3
2025-09-29T08:44	10	96	2.2	93	103	390	0.5	389	391	11.8	86.8
2025-09-29T08:45	10	156	28.0	104	190	393	3.2	388	399	11.7	85.6
2025-09-29T08:46	10	178	7.3	161	189	399	0.9	397	401	11.8	85.0
2025-09-29T08:47	10	166	9.0	144	181	401	0.6	400	402	12.1	84.1
2025-09-29T08:48	10	148	13.7	129	171	400	0.6	399	402	12.2	84.3
2025-09-29T08:49	10	123	18.9	106	169	398	1.4	397	401	12.2	84.1
2025-09-29T08:50	10	115	15.7	100	166	396	1.6	394	400	12.1	84.0
2025-09-29T08:51	10	101	3.2	98	110	395	1.0	394	397	12.2	84.7
2025-09-29T08:52	10	105	2.4	102	110	394	1.1	392	396	11.9	84.6
2025-09-29T08:53	10	129	22.1	102	165	394	1.8	392	397	11.9	85.1
2025-09-29T08:54	10	126	12.2	112	143	398	0.7	396	399	12.1	84.9
2025-09-29T08:55	10	128	4.3	117	135	397	0.4	396	398	12.2	84.3
2025-09-29T08:56	10	110	3.3	107	122	395	1.0	393	397	12.1	84.7
2025-09-29T08:57	10	109	2.9	107	115	394	0.4	393	395	11.9	85.4
2025-09-29T08:58	10	125	12.0	110	149	395	1.5	393	397	11.9	85.8
2025-09-29T08:59	10	94	3.2	90	107	393	1.7	391	396	11.8	85.8
2025-09-29T09:00	10	106	15.4	96	151	392	0.9	391	394	11.9	85.6
2025-09-29T09:01	10	136	19.1	105	161	396	1.2	394	398	11.9	85.0
2025-09-29T09:02	10	148	20.9	104	170	400	1.3	397	401	12.1	85.0
2025-09-29T09:03	10	91	8.2	81	103	396	1.8	393	399	12.3	84.9
2025-09-29T09:04	10	88	5.2	81	100	394	0.3	393	394	12.3	84.1
2025-09-29T09:05	10	108	14.0	91	137	394	0.7	393	396	12.2	84.1
2025-09-29T09:06	10	142	27.6	101	173	396	2.2	393	400	12.2	85.3
2025-09-29T09:07	10	176	5.3	169	182	401	1.6	399	404	12.3	84.2
2025-09-29T09:08	10	156	20.5	116	180	403	1.0	400	404	12.5	83.6
2025-09-29T09:09	10	99	9.7	87	116	398	1.9	395	402	12.9	80.5
2025-09-29T09:10	10	101	10.7	90	122	397	0.6	395	398	13.0	79.8
2025-09-29T09:11	10	100	12.6	87	126	397	1.1	395	399	12.7	81.5
2025-09-29T09:12	10	101	5.6	89	111	395	0.3	394	396	12.3	82.8
2025-09-29T09:13	10	100	4.2	94	106	394	0.4	394	395	12.1	83.9
2025-09-29T09:14	10	110	3.5	105	118	395	0.4	394	396	12.1	84.5
2025-09-29T09:15	10	104	8.9	89	121	395	0.8	394	397	12.1	84.5
2025-09-29T09:16	10	98	8.2	88	110	395	0.6	394	396	12.2	84.0
2025-09-29T09:17	10	94	2.7	91	102	395	0.5	394	396	12.2	84.3
2025-09-29T09:18	10	95	1.3	92	97	394	0.8	392	395	12.2	84.2
2025-09-29T09:19	10	90	3.2	85	97	393	0.5	392	394	12.2	84.0
2025-09-29T09:20	10	84	0.5	84	85	393	0.5	392	394	12.2	83.5
2025-09-29T09:21	10	83	0.2	83	83	394	0.4	393	395	12.3	84.0
2025-09-29T09:22	10	87	3.3	83	93	395	0.4	394	396	12.4	83.6
2025-09-29T09:23	10	107	7.0	93	114	395	0.4	394	395	12.3	82.5
2025-09-29T09:24	10	103	3.4	97	108	395	0.3	394	395	12.3	82.9
2025-09-29T09:25	10	119	20.4	100	160	397	2.2	394	402	12.4	83.0
2025-09-29T09:26	10	158	6.9	141	170	404	1.7	400	406	12.5	81.9
2025-09-29T09:27	10	155	5.5	143	163	405	0.4	404	406	12.5	81.5
2025-09-29T09:28	10	149	7.1	139	164	405	0.3	404	405	12.4	81.3
2025-09-29T09:29	10	166	29.1	127	205	406	2.2	404	411	12.7	81.5
2025-09-29T09:30	10	171	23.5	137	205	409	2.5	405	413	12.7	80.8
2025-09-29T09:31	10	180	24.9	143	205	407	2.7	404	412	12.7	80.0
2025-09-29T09:32	10	169	17.6	145	201	411	1.5	409	413	13.0	81.3
2025-09-29T09:33	10	187	10.0	163	197	411	0.9	409	413	13.0	79.3
2025-09-29T09:34	10	192	8.0	174	198	413	1.0	411	415	13.2	79.2
2025-09-29T09:35	10	148	16.9	126	177	408	2.0	405	412	12.9	77.8
2025-09-29T09:39	10	58	0.6	57	59	389	0.8	388	390	12.4	78.6
2025-09-29T09:40	10	56	0.3	56	57	389	0.2	388	389	12.5	78.4
2025-09-29T09:41	10	56	0.2	56	57	389	0.4	388	390	12.7	79.2
2025-09-29T09:42	10	57	0.4	57	58	389	0.3	388	389	12.6	77.5
2025-09-29T09:43	10	59	0.8	58	60	390	0.5	389	391	12.6	77.3
2025-09-29T09:44	10	61	0.6	60	62	390	0.2	389	390	12.9	79.4
2025-09-29T09:45	10	63	0.7	62	64	390	0.7	389	392	12.9	79.2
2025-09-29T09:46	10	65	0.2	64	65	392	0.3	391	392	13.3	79.3
2025-09-29T09:47	10	65	0.3	65	66	391	0.6	390	392	12.9	76.8
2025-09-29T09:48	10	66	0.2	66	66	389	0.6	389	391	12.8	76.8
2025-09-29T09:49	10	67	0.7	66	68	390	0.8	389	391	12.8	77.3
2025-09-29T09:50	10	69	0.8	68	71	391	0.4	390	392	12.8	77.5
2025-09-29T09:51	10	73	1.3	71	75	391	0.6	390	392	12.8	77.8
2025-09-29T09:52	10	77	0.9	75	78	391	0.4	391	392	12.7	78.4
2025-09-29T09:53	10	79	0.7	78	81	392	0.6	391	393	12.7	78.9
2025-09-29T09:54	10	82	0.6	81	83	394	0.8	392	395	12.9	79.8
2025-09-29T09:55	10	83	0.2	83	83	395	0.3	394	395	13.2	79.6
2025-09-29T09:56	10	83	0.3	82	84	395	0.5	394	396	13.1	78.2
2025-09-29T09:57	10	82	0.5	81	82	395	0.3	394	395	12.9	79.6
2025-09-29T09:58	10	80	0.3	80	81	395	0.3	394	395	12.9	79.9
2025-09-29T09:59	10	80	0.2	80	80	395	0.4	395	396	13.1	80.6
2025-09-29T10:00	10	81	0.5	80	82	395	0.8	394	396	13.0	79.6
2025-09-29T10:01	10	83	0.4	82	83	394	0.2	393	394	12.9	80.0
2025-09-29T10:02	10	84	0.2	83	84	394	0.3	394	395	12.9	79.0
2025-09-29T10:03	10	84	0.1	84	84	395	0.4	394	396	12.8	79.0
2025-09-29T10:04	10	84	0.2	84	85	396	0.5	395	397	12.9	79.8
2025-09-29T10:05	10	85	0.3	85	86	397	0.3	396	397	13.2	80.2
2025-09-29T10:06	10	87	0.8	86	88	396	0.4	395	397	13.1	77.5
2025-09-29T10:07	10	90	0.6	88	91	397	0.8	395	398	13.0	77.8
2025-09-29T10:08	10	89	0.1	89	90	397	0.5	397	398	13.1	77.8
2025-09-29T10:09	10	93	3.1	90	100	398	0.2	397	398	13.1	77.3
2025-09-29T10:10	10	110	5.5	101	120	400	0.9	398	401	13.0	76.5
2025-09-29T10:11	10	105	3.4	98	108	401	0.7	400	402	13.2	78.1
2025-09-29T10:12	10	97	0.4	96	98	401	0.6	400	402	13.4	77.2
2025-09-29T10:13	10	97	0.1	97	97	400	0.2	400	401	13.3	77.0
2025-09-29T10:14	10	98	0.3	97	98	399	1.1	397	401	13.4	75.9
2025-09-29T10:15	10	95	0.7	94	97	397	0.4	396	397	13.4	74.8
2025-09-29T10:16	10	95	0.1	94	95	398	0.1	397	398	13.4	74.4
2025-09-29T10:17	10	95	0.4	95	96	399	0.7	397	400	13.5	75.6
2025-09-29T10:18	10	97	1.4	95	101	399	0.4	398	400	13.4	74.8
2025-09-29T10:19	10	101	1.6	98	104	399	0.4	398	400	13.2	74.5
2025-09-29T10:20	10	97	0.8	96	99	399	0.8	398	401	13.3	75.2
2025-09-29T10:21	10	95	0.6	93	96	398	0.3	398	399	13.1	74.6
2025-09-29T10:22	10	93	0.3	93	94	398	0.5	397	399	13.1	74.8
2025-09-29T10:23	10	93	0.2	93	94	398	0.4	398	399	13.2	75.3
2025-09-29T10:24	10	94	0.4	93	95	398	0.3	398	399	13.2	74.7
2025-09-29T10:25	10	95	0.2	94	95	399	0.3	398	400	13.3	74.4
2025-09-29T10:26	10	95	0.1	94	95	398	0.5	397	399	13.3	73.8
2025-09-29T10:27	10	95	0.2	94	95	397	0.3	396	398	13.3	73.9
2025-09-29T10:28	10	95	0.2	94	95	398	0.3	397	398	13.4	74.2
2025-09-29T10:29	10	94	0.3	93	94	398	0.4	397	398	13.3	72.4
2025-09-29T10:30	10	94	0.5	93	95	399	0.6	398	400	13.5	73.2
2025-09-29T10:31	10	95	0.4	94	96	399	0.4	399	400	13.5	72.2
2025-09-29T10:32	10	101	4.0	96	111	400	0.6	399	401	13.4	71.8
2025-09-29T10:33	10	194	35.1	112	232	409	5.8	399	416	13.5	71.0
2025-09-29T10:34	10	157	17.8	126	185	410	1.7	407	414	13.5	68.8
2025-09-29T10:35	10	114	4.4	106	125	406	1.2	404	409	13.5	68.9
2025-09-29T10:36	10	100	2.1	97	106	404	1.1	403	406	13.6	69.6
2025-09-29T10:37	10	97	1.6	96	102	402	0.9	401	404	13.7	70.4
2025-09-29T10:38	10	107	4.5	97	113	400	0.7	399	401	13.5	70.2
2025-09-29T10:39	10	91	2.7	88	97	398	0.8	397	399	13.4	70.5
2025-09-29T10:40	10	86	0.7	85	88	397	0.5	396	398	13.6	72.3
2025-09-29T10:41	10	87	3.8	84	95	397	0.3	396	397	13.5	70.8
2025-09-29T10:42	10	87	1.1	86	90	396	0.3	396	397	13.5	70.3
2025-09-29T10:43	10	114	16.5	90	140	398	2.0	395	401	13.5	70.5
2025-09-29T10:44	10	100	2.2	98	106	400	0.3	399	400	13.6	71.1
2025-09-29T10:45	10	107	3.6	101	120	400	0.4	400	401	13.8	71.2
2025-09-29T10:46	10	130	6.6	122	144	402	0.7	400	403	13.8	68.3
2025-09-29T10:47	10	175	23.3	129	218	408	3.5	401	414	14.0	69.1
2025-09-29T10:48	10	220	16.5	169	238	415	1.6	411	417	14.1	67.6
2025-09-29T10:49	10	166	25.8	131	204	413	2.2	410	416	14.0	68.2
2025-09-29T10:50	10	199	25.7	157	231	418	2.5	414	421	14.7	69.4
2025-09-29T10:51	10	200	18.7	143	224	423	1.8	420	426	15.0	68.8
2025-09-29T10:52	10	118	5.8	113	139	413	3.9	408	422	14.7	61.6
2025-09-29T10:53	10	114	1.5	111	118	408	1.0	407	411	14.6	63.7
2025-09-29T10:54	10	108	1.9	105	111	405	1.0	404	408	14.3	65.3
2025-09-29T10:55	10	106	1.0	105	109	405	0.7	404	406	14.2	66.6
2025-09-29T10:56	10	126	8.0	110	136	407	1.3	405	409	14.3	66.6
2025-09-29T10:57	10	115	7.2	108	128	407	1.5	404	409	14.1	65.0
2025-09-29T10:58	10	103	2.3	100	108	404	0.8	402	405	14.3	65.7
2025-09-29T10:59	10	103	2.4	100	107	401	1.3	399	404	14.2	64.2
2025-09-29T11:00	10	109	4.4	102	115	401	0.5	400	402	14.0	64.4
2025-09-29T11:01	10	96	1.8	94	102	400	0.5	399	401	14.0	65.0
2025-09-29T11:02	10	92	1.8	90	96	402	0.4	401	402	14.2	65.5
2025-09-29T11:03	10	97	4.2	90	104	401	0.5	400	402	14.2	65.0
2025-09-29T11:04	10	110	17.3	89	141	400	0.9	399	401	14.1	64.8
2025-09-29T11:05	10	86	7.9	77	107	400	0.7	399	401	14.1	65.1
2025-09-29T11:06	10	104	21.5	77	138	402	2.3	399	405	14.3	66.0
2025-09-29T11:07	10	72	5.7	65	85	400	1.3	398	403	14.1	65.9
2025-09-29T11:08	10	63	1.3	61	65	398	0.7	397	400	14.3	67.5
2025-09-29T11:09	10	60	0.5	59	61	395	0.9	394	397	14.1	64.7
2025-09-29T11:10	10	62	0.9	60	63	394	0.3	393	395	14.1	65.8
2025-09-29T11:11	10	59	1.0	58	62	392	0.8	391	394	14.1	64.5
2025-09-29T11:12	10	74	28.2	59	163	392	1.6	391	398	14.0	65.3
2025-09-29T11:13	10	179	7.5	167	188	405	3.8	395	409	14.1	64.3
2025-09-29T11:14	10	177	4.6	168	182	411	2.1	407	414	14.3	65.6
2025-09-29T11:15	10	179	3.2	170	181	413	0.6	412	414	14.5	65.4
2025-09-29T11:16	10	178	1.7	175	180	411	0.7	409	412	14.2	64.1
2025-09-29T11:17	10	173	0.7	172	175	411	0.9	410	413	14.1	63.3
2025-09-29T11:18	10	171	0.5	170	172	413	0.9	411	414	14.2	64.0
2025-09-29T11:19	10	170	0.2	170	170	411	0.5	410	412	14.1	63.3
2025-09-29T11:20	10	151	22.2	100	170	411	2.3	406	414	14.3	63.6
2025-09-29T11:21	10	88	3.6	81	99	404	2.5	400	408	14.3	63.4
2025-09-29T11:22	10	124	28.4	79	153	403	3.2	399	408	14.3	63.1
2025-09-29T11:23	10	167	9.2	144	175	410	2.2	406	413	14.7	63.9
2025-09-29T11:24	10	175	0.2	174	175	414	1.0	412	416	14.6	63.9
2025-09-29T11:25	10	171	2.5	167	174	414	0.5	413	415	14.6	64.7
2025-09-29T11:26	10	167	0.5	166	168	414	0.3	413	415	14.6	63.7
2025-09-29T11:27	10	169	0.6	168	170	414	0.3	413	414	14.5	63.0
2025-09-29T11:28	10	170	0.2	170	170	414	0.6	413	415	14.4	61.5
2025-09-29T11:29	10	170	0.3	170	171	417	1.0	415	418	14.5	62.3
2025-09-29T11:30	10	171	0.2	170	171	418	0.5	417	419	14.5	62.6
2025-09-29T11:31	10	169	1.6	166	171	418	0.5	417	419	14.7	63.4
2025-09-29T11:32	10	169	1.0	167	170	418	0.3	418	419	14.9	62.5
2025-09-29T11:33	10	140	26.1	99	170	417	2.7	412	420	15.1	62.9
2025-09-29T11:34	10	140	7.0	126	151	414	0.5	413	415	14.8	61.2
2025-09-29T11:35	10	168	3.8	153	170	417	1.2	414	418	14.8	62.2
2025-09-29T11:36	10	111	49.6	43	167	415	5.3	404	420	14.9	62.1
2025-09-29T11:37	10	40	1.3	39	44	402	2.8	397	408	14.7	62.3
2025-09-29T11:38	10	63	20.1	41	107	398	0.7	397	400	14.7	62.8
2025-09-29T11:39	10	161	18.4	110	173	406	5.0	398	414	14.6	61.9
2025-09-29T11:40	10	164	8.3	142	172	415	1.6	412	417	14.8	63.3
2025-09-29T11:41	10	74	30.7	43	140	410	5.0	402	418	15.1	63.1
2025-09-29T11:42	10	44	1.8	43	49	402	1.4	400	405	15.0	64.3
2025-09-29T11:43	10	96	37.0	49	145	403	3.9	399	410	15.0	63.7
2025-09-29T11:44	10	138	23.0	100	166	409	1.8	407	413	14.9	61.2
2025-09-29T11:45	10	166	0.4	165	166	414	1.4	411	416	14.6	60.4
2025-09-29T11:46	10	166	0.6	165	167	417	1.0	415	419	14.9	63.0
2025-09-29T11:47	10	168	1.8	165	171	417	0.7	416	418	14.9	61.7
2025-09-29T11:48	10	173	1.3	171	174	417	0.5	416	418	14.8	61.3
2025-09-29T11:49	10	166	10.2	148	175	417	0.5	416	418	14.8	61.5
2025-09-29T11:50	10	145	14.1	122	165	414	1.5	413	418	15.0	61.5
2025-09-29T11:51	10	105	35.4	66	163	411	3.3	405	415	14.8	61.1
2025-09-29T11:52	10	46	5.6	43	65	402	3.1	398	408	14.9	62.4
2025-09-29T11:53	10	83	49.2	42	173	399	2.9	396	406	14.8	60.4
2025-09-29T11:54	10	180	1.7	173	181	411	3.6	403	416	14.7	60.7
2025-09-29T11:55	10	175	1.8	172	179	416	1.0	415	418	14.8	60.1
2025-09-29T11:56	10	171	0.5	170	172	418	0.8	417	419	15.0	60.4
2025-09-29T11:57	10	170	0.4	169	170	419	0.6	418	420	15.1	60.3
2025-09-29T11:58	10	169	0.2	169	170	418	0.6	417	419	15.0	58.5
2025-09-29T11:59	10	168	0.4	168	169	419	0.7	418	420	15.1	57.7
2025-09-29T12:00	10	167	0.3	167	168	421	0.5	420	421	15.2	58.5
2025-09-29T12:01	10	167	0.2	167	168	420	0.8	418	421	15.2	59.5
2025-09-29T12:02	10	168	0.3	167	169	420	0.5	419	421	15.2	60.8
2025-09-29T12:03	10	169	0.2	168	169	420	0.5	419	421	15.4	61.1
2025-09-29T12:04	10	168	0.2	168	169	419	1.8	417	422	15.6	59.7
2025-09-29T12:05	10	168	0.1	168	168	418	0.4	417	419	15.2	58.5
2025-09-29T12:06	10	168	0.1	168	168	418	0.8	416	420	15.1	59.0
2025-09-29T12:07	10	168	0.1	168	169	419	0.7	418	420	15.3	59.2
2025-09-29T12:08	10	168	0.1	168	169	419	0.5	418	420	15.2	58.9
2025-09-29T12:09	10	168	0.2	168	169	419	1.0	417	420	15.4	58.8
2025-09-29T12:10	10	170	0.4	169	170	420	0.6	418	420	15.2	58.3
2025-09-29T12:11	10	170	1.6	163	171	420	0.4	419	421	15.2	57.6
2025-09-29T12:12	10	150	11.4	123	164	418	0.9	416	420	15.0	57.0
2025-09-29T12:13	10	145	14.5	119	164	417	1.3	415	419	15.0	57.7
2025-09-29T12:14	10	88	36.9	47	150	413	4.9	405	420	15.2	58.3
2025-09-29T12:15	10	58	15.0	44	88	405	2.3	401	408	15.1	58.2
2025-09-29T12:16	10	135	43.5	47	170	408	6.0	400	417	15.0	57.6
2025-09-29T12:17	10	169	2.2	163	171	418	1.5	415	420	15.3	59.3
2025-09-29T12:18	10	168	5.1	161	173	420	0.9	419	422	15.6	57.7
2025-09-29T12:19	10	173	0.6	171	174	423	0.7	421	424	15.8	57.3
2025-09-29T12:20	10	174	1.1	171	176	421	0.9	420	423	15.5	56.5
2025-09-29T12:21	10	176	0.6	175	177	419	1.0	418	421	15.3	57.2
2025-09-29T12:22	10	178	0.8	177	180	420	0.6	419	421	15.6	57.6
2025-09-29T12:23	10	181	0.9	180	183	420	1.3	419	423	15.4	56.5
2025-09-29T12:24	10	184	0.4	183	184	421	0.6	420	422	15.4	55.6
2025-09-29T12:25	10	185	0.7	184	186	423	0.4	422	423	15.7	54.9
2025-09-29T12:26	10	187	0.5	186	188	424	0.3	423	425	15.9	53.9
2025-09-29T12:27	10	162	29.3	84	187	424	1.7	419	425	15.8	55.1
2025-09-29T12:28	10	63	9.5	54	81	414	4.0	408	422	15.8	57.6
2025-09-29T12:29	10	56	0.6	54	56	406	1.8	404	410	15.7	58.0
2025-09-29T12:30	10	53	1.2	50	55					15.3	56.7
2025-09-29T12:31	10	49	0.9	47	50					15.1	57.8
2025-09-29T12:32	10	46	0.7	45	47					15.1	58.4
2025-09-29T12:33	10	45	0.3	44	45					15.2	58.8
2025-09-29T12:34	10	45	0.7	44	47					15.1	58.8
2025-09-29T12:35	10	48	1.1	47	51	393	0.4	393	394	15.2	59.6
2025-09-29T12:36	10	55	3.2	51	62	395	0.7	394	397	15.2	60.1
2025-09-29T12:37	10	85	15.3	62	109					15.1	58.1
2025-09-29T12:38	10	115	6.8	101	126	405	1.6	401	407	15.2	59.7
2025-09-29T12:39	10	116	18.3	96	149	405	1.4	404	409	15.2	58.1
2025-09-29T12:40	10	167	8.0	149	175	411	2.1	407	414	15.3	58.3
2025-09-29T12:41	10	175	0.6	174	176	415	1.3	412	418	15.4	57.8
2025-09-29T12:42	10	177	0.5	176	178	419	1.2	416	421	15.5	57.4
2025-09-29T12:43	10	179	0.4	178	179	421	0.7	420	422	15.5	56.9
2025-09-29T12:44	10	179	0.1	179	180	422	0.7	420	423	15.6	57.0
2025-09-29T12:45	10	180	0.2	180	180	421	0.8	420	422	15.5	56.9
2025-09-29T12:46	10	181	0.5	181	182	422	0.5	421	423	15.5	57.9
2025-09-29T12:47	10	183	0.4	182	184	420	2.0	418	424	15.6	57.2
2025-09-29T12:48	10	183	1.3	178	184	420	0.8	419	421	15.5	57.2
2025-09-29T12:49	10	157	9.5	144	177	418	1.9	415	421	15.5	57.5
2025-09-29T12:50	10	142	10.7	125	158	415	1.0	413	417	15.6	57.5
2025-09-29T12:51	10	167	11.0	152	179	417	1.7	414	420	15.6	57.6
2025-09-29T12:52	10	169	5.7	160	178	419	1.7	416	421	15.9	58.6
2025-09-29T12:53	10	110	31.4	79	165	413	4.3	406	418	15.9	58.5
2025-09-29T12:54	10					409	0.8	407	410	15.8	58.0
2025-09-29T12:55	10	106	34.4	68	163	409	2.8	405	412	15.5	57.4
2025-09-29T12:56	10	167	11.0	128	173	411	2.7	405	415	15.4	57.7
2025-09-29T12:57	10	174	0.7	172	175	415	1.5	413	418	15.6	58.3
2025-09-29T12:58	10	176	0.9	174	177	417	0.5	416	418	15.8	58.5
2025-09-29T12:59	10	177	1.6	171	178	417	0.3	416	418	15.5	57.4
2025-09-29T13:00	10	121	35.6	81	171	415	2.6	411	419	15.5	58.0
2025-09-29T13:01	10	147	23.1	101	177	413	1.0	411	415	15.6	58.2
2025-09-29T13:02	10	183	2.0	175	185	418	2.6	413	421	15.5	57.3
2025-09-29T13:03	10	184	0.3	183	184	421	0.8	420	423	15.5	57.1
2025-09-29T13:04	10	182	1.5	178	183	424	0.7	422	425	15.5	57.6
2025-09-29T13:05	10	106	51.9	56	181	420	5.4	411	426	15.7	58.3
2025-09-29T13:06	10	53	1.4	52	56	408	3.3	404	414	15.6	58.1
2025-09-29T13:07	10	53	0.3	52	53	402	1.6	399	405	15.5	58.8
2025-09-29T13:08	10	52	0.4	52	53	398	1.1	397	400	15.4	58.4
2025-09-29T13:09	10	51	0.3	51	52	397	0.2	396	397	15.4	58.9
2025-09-29T13:10	10	51	0.2	50	51	396	0.5	395	397	15.5	58.9
2025-09-29T13:11	10	49	0.5	48	50	395	0.3	394	396	15.4	59.3
2025-09-29T13:12	10	47	4.6	40	54	394	0.5	393	395	15.3	58.5
2025-09-29T13:13	10	38	1.4	35	40	393	0.2	392	393	15.2	58.2
2025-09-29T13:14	10	34	0.9	32	36	391	0.7	389	392	15.2	58.5
2025-09-29T13:15	10	31	0.9	29	33	389	0.3	389	390	15.1	58.5
2025-09-29T13:16	10	29	0.7	27	30	389	0.4	388	389	15.2	59.3
2025-09-29T13:17	10	27	0.6	26	28	387	0.4	387	388	15.2	58.6
2025-09-29T13:18	10	25	0.5	24	26	387	0.3	386	387	15.2	58.5
2025-09-29T13:19	10	23	0.6	22	24	386	0.3	385	386	15.1	58.5
2025-09-29T13:20	10	23	0.6	22	25	385	0.3	385	386	15.1	58.8
2025-09-29T13:21	10	38	23.7	24	107	386	1.6	384	391	15.1	58.5
2025-09-29T13:22	10	136	12.7	109	148	398	5.1	388	405	15.1	58.3
2025-09-29T13:23	10	144	0.6	143	145	406	2.4	402	410	15.3	58.6
2025-09-29T13:24	10	143	0.3	142	143	411	1.0	408	412	15.4	58.1
2025-09-29T13:25	10	141	0.4	141	142	413	0.5	412	414	15.6	59.3
2025-09-29T13:26	10	140	0.9	138	141	412	0.6	411	413	15.8	58.8
2025-09-29T13:27	10	139	0.2	138	139	412	0.3	411	413	15.7	57.9
2025-09-29T13:28	10	139	0.2	138	139	412	0.9	410	414	15.8	58.0
2025-09-29T13:29	10	138	0.4	137	139	411	0.3	410	412	15.7	56.7
2025-09-29T13:30	10	137	0.3	137	138	411	0.3	411	412	15.6	57.0
2025-09-29T13:31	10	137	0.2	136	137	412	0.9	411	414	15.8	57.5
2025-09-29T13:32	10	136	0.2	136	137	414	0.4	414	415	16.1	59.0
2025-09-29T13:33	10	136	0.2	136	137	413	1.2	410	414	16.0	56.9
2025-09-29T13:34	10	136	0.2	135	136	410	0.2	410	411	15.7	56.9
2025-09-29T13:35	10	135	0.2	135	136	412	0.6	411	413	15.8	57.0
2025-09-29T13:36	10	135	0.3	134	135	413	0.5	412	414	15.9	58.2
2025-09-29T13:37	10	134	0.2	134	135	410	1.2	409	413	15.8	57.5
2025-09-29T13:38	10	133	0.3	133	134	409	0.2	408	409	15.8	57.9
2025-09-29T13:39	10	133	0.2	132	133	411	0.4	410	411	15.9	58.4
2025-09-29T13:40	10	132	0.3	132	133	409	0.9	408	411	15.9	57.2
2025-09-29T13:41	10	132	0.1	131	132	409	0.2	408	410	15.8	56.6
2025-09-29T13:42	10	131	0.2	131	132	409	0.3	409	410	15.7	58.0
2025-09-29T13:43	10	131	0.2	130	131	408	0.6	407	410	15.7	58.0
2025-09-29T13:44	10	130	0.3	130	131	410	0.5	409	411	15.7	58.3
2025-09-29T13:45	10	129	0.4	128	130	409	0.4	408	410	15.8	57.8
2025-09-29T13:46	10	129	0.2	128	129	410	0.5	409	410	15.9	57.6
2025-09-29T13:47	10	129	0.3	129	130	410	0.4	409	411	16.0	57.4
2025-09-29T13:48	10	129	0.3	128	129	411	0.3	410	412	16.0	57.0
2025-09-29T13:49	10	128	0.4	127	129	409	0.6	408	411	15.9	57.1
2025-09-29T13:50	10	127	0.2	127	128	408	0.4	407	409	15.9	57.0
2025-09-29T13:51	10	127	0.2	127	128	408	0.6	407	410	15.8	57.3
2025-09-29T13:52	10	127	0.2	127	127	410	0.4	409	411	16.0	58.5
2025-09-29T13:53	10	127	0.1	126	127	410	0.5	409	410	16.0	57.4
2025-09-29T13:54	10	126	0.1	126	127	410	0.7	409	411	15.9	57.0
2025-09-29T13:55	10	126	0.2	126	127	411	0.2	411	412	16.1	58.0
2025-09-29T13:56	10	126	0.2	125	126	410	0.5	409	411	16.1	56.8
2025-09-29T13:57	10	125	0.2	125	125	409	0.6	408	410	16.0	56.7
2025-09-29T13:58	10	124	0.2	124	125	408	0.5	407	409	16.0	56.8
2025-09-29T13:59	10	124	0.3	124	124	408	0.5	407	408	15.9	56.3
2025-09-29T14:00	10	123	1.2	120	124	408	0.6	407	409	15.8	56.4
2025-09-29T14:01	10	121	0.1	121	122	408	0.3	408	409	15.9	56.5
2025-09-29T14:02	10	120	0.7	119	121	409	0.8	407	410	16.0	56.6
2025-09-29T14:03	10	119	0.7	118	120	408	0.7	407	409	16.0	56.7
2025-09-29T14:04	10	119	0.2	118	119	409	0.6	408	410	15.9	56.4
2025-09-29T14:05	10	117	0.7	116	118	410	0.3	410	411	15.9	56.1
2025-09-29T14:06	10	117	0.1	116	117	410	0.7	409	411	16.0	57.3
2025-09-29T14:07	10	116	0.4	115	117	410	0.3	409	410	16.0	57.0
2025-09-29T14:08	10	115	0.3	115	116	407	0.9	406	409	16.0	57.3
2025-09-29T14:09	10	115	0.1	114	115	406	0.6	405	407	15.9	57.1
2025-09-29T14:10	10	114	0.1	114	114	406	0.3	405	407	15.9	57.0
2025-09-29T14:11	10	114	0.2	113	114	407	0.4	406	407	15.8	57.2
2025-09-29T14:12	10	113	0.2	112	113	407	0.3	406	408	15.9	57.1
2025-09-29T14:13	10	112	0.1	112	113	408	0.6	407	410	16.0	57.2
2025-09-29T14:14	10	112	0.1	112	112	410	0.3	409	410	16.2	58.4
2025-09-29T14:15	10	112	0.2	112	112	407	1.1	405	409	16.2	56.9
2025-09-29T14:16	10	112	0.1	111	112	407	0.4	406	407	16.1	55.6
2025-09-29T14:17	10	111	0.2	111	111	406	0.4	405	407	16.0	55.2
2025-09-29T14:18	10	111	0.1	110	111	405	0.5	404	406	16.0	56.0
2025-09-29T14:19	10	110	0.1	110	110	405	0.4	404	406	16.0	55.8
2025-09-29T14:20	10	110	0.1	110	110	406	0.5	404	407	16.0	55.8
2025-09-29T14:21	10	110	0.2	109	110	407	0.3	406	408	16.1	56.9
2025-09-29T14:22	10	109	0.2	109	109	407	0.7	406	409	16.1	56.2
2025-09-29T14:23	10	109	0.1	108	109	409	0.7	408	411	16.2	56.3
2025-09-29T14:24	10	108	0.1	108	108	410	0.5	409	411	16.3	56.9
2025-09-29T14:25	10	108	0.2	107	108	408	0.5	407	409	16.3	57.4
2025-09-29T14:26	10	107	0.2	107	108	408	0.4	406	408	16.2	56.8
2025-09-29T14:27	10	107	0.2	106	107	406	0.5	405	407	16.2	57.4
2025-09-29T14:28	10	106	0.2	106	107	406	0.6	405	407	16.2	56.6
2025-09-29T14:29	10	106	0.2	105	106	406	0.3	405	406	16.0	56.1
2025-09-29T14:30	10	105	0.2	105	106	406	0.4	406	407	16.1	56.8
2025-09-29T14:31	10	105	0.2	104	105	407	0.6	406	408	16.0	55.9
2025-09-29T14:32	10	104	0.1	104	105	409	0.3	408	409	16.1	57.3
2025-09-29T14:33	10	104	0.1	104	104	409	0.4	408	410	16.1	56.8
2025-09-29T14:34	10	104	0.1	103	104	410	0.5	409	411	16.3	58.1
2025-09-29T14:35	10	103	0.3	102	104	409	0.9	407	410	16.4	57.1
2025-09-29T14:36	10	103	0.1	102	103	407	0.6	406	408	16.2	55.8
2025-09-29T14:37	10	102	0.2	102	102	406	0.4	405	407	16.2	56.4
2025-09-29T14:38	10	102	0.3	101	102	407	0.7	405	408	16.2	56.5
2025-09-29T14:39	10	101	0.1	100	101	406	0.7	405	407	16.2	56.2
2025-09-29T14:40	10	100	0.2	100	101	405	0.3	404	406	16.2	56.7
2025-09-29T14:41	10	100	0.3	99	100	406	0.3	405	406	16.2	57.2
2025-09-29T14:42	10	99	0.1	99	100	405	0.3	404	406	16.3	57.4
2025-09-29T14:43	10	99	0.2	99	99	406	0.4	405	407	16.3	56.2
2025-09-29T14:44	10	99	0.2	98	99	405	0.5	404	406	16.2	55.9
2025-09-29T14:45	10	98	0.2	98	98	406	0.6	404	407	16.2	56.0
2025-09-29T14:46	10	98	0.2	97	98	406	0.5	405	406	16.2	56.1
2025-09-29T14:47	10	97	0.2	97	98	406	0.3	405	407	16.2	55.9
2025-09-29T14:48	10	97	0.2	96	97	407	0.3	406	407	16.4	57.2
2025-09-29T14:49	10	96	0.2	95	96	406	0.5	404	406	16.4	56.3
2025-09-29T14:50	10	95	0.2	95	96	405	0.3	404	406	16.2	55.5
2025-09-29T14:51	10	95	0.2	94	95	405	0.5	404	406	16.2	56.4
2025-09-29T14:52	10	94	0.1	94	95	404	0.4	403	404	16.2	56.9
2025-09-29T14:53	10	94	0.2	93	94	403	0.2	403	404	16.2	56.7
2025-09-29T14:54	10	93	0.1	93	94	404	0.3	403	404	16.3	57.4
2025-09-29T14:55	10	93	0.2	93	93	403	0.6	402	404	16.3	56.6
2025-09-29T14:56	10	93	0.2	92	93	403	0.4	402	404	16.3	56.7
2025-09-29T14:57	10	92	0.2	92	92	403	0.2	402	403	16.3	56.9
2025-09-29T14:58	10	91	0.1	91	92	403	0.3	402	403	16.3	56.5
2025-09-29T14:59	10	91	0.1	91	91	402	0.2	402	403	16.2	56.0
2025-09-29T15:00	10	90	0.2	90	91	402	0.3	401	403	16.2	57.0
2025-09-29T15:01	10	90	0.2	89	90	402	0.3	401	403	16.3	57.0
2025-09-29T15:02	10	89	0.2	89	90	402	0.3	401	402	16.2	56.9
2025-09-29T15:03	10	89	0.2	88	89	402	0.3	401	403	16.3	56.4
2025-09-29T15:04	10	88	0.1	88	88	403	0.6	402	404	16.2	56.2
2025-09-29T15:05	10	88	0.1	88	88	404	0.4	403	405	16.3	57.2
2025-09-29T15:06	10	87	0.2	87	88	404	0.8	403	405	16.4	56.8
2025-09-29T15:07	10	87	0.2	86	87	403	0.3	403	404	16.4	56.4
2025-09-29T15:08	10	86	0.1	86	86	403	0.5	402	404	16.4	56.4
2025-09-29T15:09	10	86	0.2	85	86	403	0.8	402	404	16.4	57.4
2025-09-29T15:10	10	85	0.2	85	85	401	0.3	401	402	16.3	56.8
2025-09-29T15:11	10	85	0.2	84	85	402	0.3	401	402	16.3	56.9
2025-09-29T15:12	10	84	0.2	83	84	402	0.3	401	402	16.3	56.8
2025-09-29T15:13	10	83	0.2	83	84	401	0.4	400	402	16.3	57.0
2025-09-29T15:14	10	82	0.2	82	83	401	0.3	400	401	16.3	56.5
2025-09-29T15:15	10	82	0.2	81	82	401	0.4	400	402	16.4	57.7
2025-09-29T15:16	10	81	0.2	81	82	401	0.3	400	402	16.5	58.8
2025-09-29T15:17	10	80	0.3	80	81	401	0.2	400	401	16.5	57.1
2025-09-29T15:18	10	80	0.1	80	80	401	0.2	401	402	16.5	57.7
2025-09-29T15:19	10	79	0.2	79	80	401	0.3	401	402	16.5	58.6
2025-09-29T15:20	10	79	0.2	79	79	400	0.4	400	401	16.5	57.3
2025-09-29T15:21	10	78	0.2	78	79	399	0.3	399	400	16.4	56.9
2025-09-29T15:22	10	77	0.2	77	78	399	0.3	398	400	16.4	57.0
2025-09-29T15:23	10	77	0.2	77	77	399	0.4	398	400	16.4	57.7
2025-09-29T15:24	10	76	0.2	76	77	399	0.4	398	400	16.4	57.0
2025-09-29T15:25	10	76	0.1	76	76	399	0.3	398	400	16.3	56.3
2025-09-29T15:26	10	75	0.2	75	76	400	0.3	399	400	16.3	57.3
2025-09-29T15:27	10	75	0.2	74	75	400	0.2	399	400	16.4	57.7
2025-09-29T15:28	10	74	0.2	74	75	400	0.3	399	401	16.4	57.8
2025-09-29T15:29	10	73	0.2	73	74	399	0.4	398	400	16.5	57.5
2025-09-29T15:30	10	73	0.1	73	73	398	0.2	398	399	16.5	55.7
2025-09-29T15:31	10	72	0.2	72	73	398	0.3	397	399	16.5	55.7
2025-09-29T15:32	10	71	0.2	71	72	397	0.6	396	398	16.5	56.0
2025-09-29T15:33	10	71	0.2	70	71	396	0.5	395	397	16.4	55.8
2025-09-29T15:34	10	70	0.2	69	70	396	0.2	395	396	16.3	56.3
2025-09-29T15:35	10	69	0.2	69	70	396	0.3	395	396	16.5	56.6
2025-09-29T15:36	10	69	0.1	69	69	396	0.3	395	397	16.5	57.0
2025-09-29T15:37	10	68	0.2	68	69	396	0.2	395	396	16.4	56.0
2025-09-29T15:38	10	68	0.1	67	68	396	0.3	395	396	16.4	56.6
2025-09-29T15:39	10	67	0.2	67	68	396	0.2	396	396	16.5	56.6
2025-09-29T15:40	10	67	0.2	66	67	396	0.2	395	397	16.5	56.8
2025-09-29T15:41	10	66	0.2	65	66	396	0.3	395	397	16.5	57.0
2025-09-29T15:42	10	65	0.2	65	65	396	0.3	396	397	16.5	57.8
2025-09-29T15:43	10	64	0.1	64	65	396	0.5	394	397	16.5	57.6
2025-09-29T15:44	10	64	0.2	63	64	395	0.2	394	395	16.5	56.9
2025-09-29T15:45	10	63	0.2	62	63	394	0.4	393	395	16.5	58.2
2025-09-29T15:46	10	62	0.2	62	63	393	0.2	393	394	16.4	56.9
2025-09-29T15:47	10	62	0.2	61	62	393	0.2	393	394	16.4	57.3
2025-09-29T15:48	10	61	0.2	60	61	394	0.2	393	394	16.4	57.9
2025-09-29T15:49	10	60	0.1	60	60	394	0.3	393	394	16.4	57.8
2025-09-29T15:50	10	59	0.3	59	60	393	0.2	392	393	16.4	57.3
2025-09-29T15:51	10	59	0.2	58	59	393	0.2	392	393	16.4	57.0
2025-09-29T15:52	10	58	0.3	58	59	393	0.2	392	393	16.4	57.3
2025-09-29T15:53	10	57	0.2	57	58	392	0.2	392	393	16.4	57.5
2025-09-29T15:54	10	57	0.2	56	57	392	0.2	392	393	16.4	57.8
2025-09-29T15:55	10	56	0.2	56	56	392	0.2	391	392	16.4	57.7
2025-09-29T15:56	10	55	0.2	55	56	392	0.2	392	392	16.4	57.5
2025-09-29T15:57	10	55	0.2	54	55	392	0.2	391	392	16.4	57.9
2025-09-29T15:58	10	54	0.3	53	54	391	0.3	391	392	16.4	56.4
2025-09-29T15:59	10	53	0.2	53	54	391	0.3	390	391	16.4	56.2
2025-09-29T16:00	10	52	0.2	52	53	391	0.3	390	391	16.4	57.0
2025-09-29T16:01	10	52	0.2	51	52	391	0.2	390	391	16.3	58.8
2025-09-29T16:02	10	51	0.3	50	51	390	0.3	389	391	16.3	58.0
2025-09-29T16:03	10	50	0.2	50	50	390	0.2	389	390	16.3	58.0
2025-09-29T16:04	10	50	0.1	49	50	390	0.3	389	390	16.3	57.9
2025-09-29T16:05	10	49	0.2	49	49	390	0.3	389	390	16.2	58.5
2025-09-29T16:06	10	49	1.2	48	56	390	0.2	389	390	16.3	59.0
2025-09-29T16:07	10	48	0.2	47	48	389	0.2	389	390	16.3	59.0
2025-09-29T16:08	10	47	0.3	46	47	389	0.2	389	390	16.2	59.5
2025-09-29T16:09	10	46	0.3	45	47	388	0.3	388	389	16.2	58.2
2025-09-29T16:10	10	45	0.3	44	46	388	0.3	387	388	16.2	59.2
2025-09-29T16:11	10	44	0.3	43	45	388	0.3	387	388	16.1	58.9
2025-09-29T16:12	10	43	0.3	43	44	387	0.2	387	388	16.2	57.1
2025-09-29T16:13	10	42	0.2	42	43	387	0.3	386	387	16.2	58.2
2025-09-29T16:14	10	42	0.3	41	42	387	0.3	386	387	16.2	57.9
2025-09-29T16:15	10	41	0.3	40	41	386	0.2	386	387	16.1	58.8
2025-09-29T16:16	10	40	0.2	40	40	386	0.2	385	386	16.1	58.3
2025-09-29T16:17	10	39	0.2	39	40	386	0.2	385	386	16.1	58.9
2025-09-29T16:18	10	39	0.2	38	39	386	0.3	385	386	16.1	57.8
2025-09-29T16:19	10	38	0.2	38	38	385	0.3	385	386	16.1	58.8
2025-09-29T16:20	10	37	0.2	37	38	385	0.2	385	385	16.1	59.1
2025-09-29T16:21	10	36	0.2	36	37	385	0.2	384	385	16.0	59.8
2025-09-29T16:22	10	36	0.3	35	36	384	0.2	384	385	16.0	60.1
2025-09-29T16:23	10	35	0.2	34	35	384	0.3	384	385	16.0	59.8
2025-09-29T16:24	10	34	0.2	34	34	384	0.2	383	384	16.0	59.5
2025-09-29T16:25	10	33	0.3	33	34	384	0.3	383	384	16.0	59.9
2025-09-29T16:26	10	32	0.2	32	33	383	0.2	383	384	16.0	60.0
2025-09-29T16:27	10	32	0.2	31	32	383	0.2	382	383	16.0	60.3
2025-09-29T16:28	10	31	0.3	30	31	382	0.2	382	383	16.0	61.0
2025-09-29T16:29	10	30	0.2	30	30	382	0.2	381	382	15.9	61.3
2025-09-29T16:30	10	29	0.3	29	30	382	0.2	381	382	15.9	60.6
2025-09-29T16:31	10	28	0.2	28	29	381	0.2	381	382	15.9	61.0
2025-09-29T16:32	10	27	0.3	27	28	381	0.2	380	381	15.9	60.8
2025-09-29T16:33	10	27	0.2	26	27	381	0.4	380	381	15.9	60.7
2025-09-29T16:34	10	26	0.3	25	26	380	0.2	380	380	15.9	61.4
2025-09-29T16:35	10	25	0.3	24	25	380	0.2	379	380	15.9	61.2
2025-09-29T16:36	10	24	0.2	24	24	379	0.2	379	380	15.9	61.5
2025-09-29T16:37	10	23	0.2	23	24	379	0.2	379	380	15.9	60.9
2025-09-29T16:38	10	22	0.3	22	23	379	0.2	379	380	15.9	60.2
2025-09-29T16:39	10	22	0.3	21	22	378	0.3	378	379	15.9	60.7
2025-09-29T16:40	10	21	0.2	20	21	378	0.3	377	379	15.9	60.7
2025-09-29T16:41	10	20	0.2	20	20	377	0.3	377	378	15.8	61.0
2025-09-29T16:42	10	19	0.2	19	20	377	0.2	376	377	15.8	61.2
2025-09-29T16:43	10	19	0.2	18	19	376	0.3	376	377	15.8	61.5
2025-09-29T16:44	10	18	0.2	17	18	376	0.4	375	377	15.8	61.5
2025-09-29T16:45	10	17	0.3	16	18	375	0.3	375	376	15.7	61.8
2025-09-29T16:46	10	16	0.2	16	17	375	0.3	374	375	15.7	62.3
2025-09-29T16:47	10	15	0.2	15	16	374	0.3	373	375	15.6	62.8
2025-09-29T16:48	10	14	0.4	14	15	374	0.3	373	374	15.6	63.3
2025-09-29T16:49	10	13	0.3	13	14	373	0.3	373	374	15.5	63.6
2025-09-29T16:50	10	12	0.3	12	13	373	0.2	372	373	15.5	64.1
2025-09-29T16:51	10	12	0.2	11	12	372	0.2	372	373	15.4	64.6
2025-09-29T16:52	10	11	0.3	10	11	372	0.3	371	372	15.4	64.9
2025-09-29T16:53	10	10	0.4	9	10	371	0.2	371	372	15.4	64.7
2025-09-29T16:54	10	9	0.3	8	9	370	0.2	370	371	15.4	64.7
2025-09-29T16:55	10	8	0.3	7	8	370	0.2	369	371	15.4	64.1
2025-09-29T16:56	10	6	0.5	5	7	370	0.2	369	370	15.4	64.4
2025-09-29T16:57	10	5	0.4	4	5	369	0.2	369	370	15.4	64.7
2025-09-29T16:58	10	3	0.5	2	4	369	0.2	369	370	15.2	65.7
2025-09-29T16:59	10	2	0.1	2	2	369	0.3	368	369	15.2	65.6
2025-09-29T17:00	10	2	0.1	2	2	368	0.2	368	369	15.1	66.0
2025-09-29T17:01	10	2	0.1	2	2	368	0.2	367	368	15.1	66.7
2025-09-29T17:02	10	2	0.1	2	2	368	0.2	367	368	15.0	67.8
2025-09-29T17:03	10	2	0.1	2	2	367	0.2	367	367	14.9	68.4
2025-09-29T17:04	10	2	0.1	1	2	367	0.3	366	367	14.9	68.7
2025-09-29T17:05	10	1	0.1	1	2	366	0.2	366	367	14.9	69.1
2025-09-29T17:06	10	1	0.1	1	2	366	0.2	366	367	14.8	69.6
2025-09-29T17:07	10	1	0.1	1	1	366	0.2	366	366	14.8	70.3
2025-09-29T17:08	10	1	0.1	1	1	366	0.2	365	366	14.7	70.9
2025-09-29T17:09	10	1	0.1	1	1	365	0.2	365	366	14.7	70.9
2025-09-29T17:10	10	1	0.1	1	1	365	0.2	364	365	14.7	71.1
2025-09-29T17:11	10	1	0.1	1	1	365	0.2	364	365	14.6	71.3
2025-09-29T17:12	10	1	0.1	1	1	364	0.2	364	365	14.6	71.1
2025-09-29T17:13	10	1	0.1	1	1	364	0.3	363	365	14.5	72.2
2025-09-29T17:14	10	1	0.1	1	1	364	0.2	364	365	14.4	72.0
2025-09-29T17:15	10	1	0.1	1	1	364	0.3	363	364	14.4	72.0
2025-09-29T17:16	10	1	0.1	1	1	364	0.2	363	364	14.3	72.6
2025-09-29T17:17	10	1	0.1	1	1	363	0.3	362	364	14.2	73.3
2025-09-29T17:18	10	1	0.1	1	1	363	0.2	362	363	14.2	72.2
2025-09-29T17:19	10	1	0.1	1	1	362	0.2	362	363	14.3	70.9
2025-09-29T17:20	10	1	0.1	0	1	362	0.2	362	363	14.4	69.7
2025-09-29T17:21	10	1	0.2	0	1	362	0.4	362	363	14.4	69.3
2025-09-29T17:22	10	0	0.2	0	1	362	0.3	362	363	14.4	68.7
2025-09-29T17:23	10	0	0.2	0	1	363	0.2	362	363	14.5	68.3
2025-09-29T17:24	10	0	0.1	0	1	363	0.2	362	363	14.6	67.8
2025-09-29T17:25	10	0	0.1	0	1	362	0.3	362	363	14.6	68.1
2025-09-29T17:26	10	0	0.1	0	1	362	0.2	362	363	14.5	68.5
2025-09-29T17:27	10	0	0.1	0	0	362	0.2	361	362	14.3	70.1
2025-09-29T17:28	10	0	0.1	0	1	361	0.3	360	362	14.2	71.6
2025-09-29T17:29	10	0	0.1	0	1	361	0.2	360	361	14.2	70.1
2025-09-29T17:30	10	0	0.1	0	1	360	0.2	360	361	14.2	70.2
2025-09-29T17:31	10	0	0.1	0	0	360	0.2	360	361	14.1	70.9
2025-09-29T17:32	10	0	0.1	0	1	360	0.2	360	361	14.0	71.9
2025-09-29T17:33	10	0	0.1	0	0	360	0.2	360	361	14.0	71.0
2025-09-29T17:34	10	0	0.1	0	0	360	0.3	359	361	14.0	71.5
2025-09-29T17:35	10	0	0.1	0	1	360	0.2	359	360	13.9	71.8
2025-09-29T17:36	10	0	0.1	0	0	359	0.3	359	360	13.8	72.8
2025-09-29T17:37	10	0	0.1	0	0	359	0.3	358	360	13.8	72.3
2025-09-29T17:38	10	0	0.1	0	0	359	0.3	359	360	13.8	72.0
2025-09-29T17:39	10	0	0.1	0	0	359	0.3	359	360	13.8	72.3
2025-09-29T17:40	10	0	0.1	0	0	359	0.3	359	360	13.8	72.4
2025-09-29T17:41	10	0	0.1	0	0	359	0.2	359	359	13.7	72.5
2025-09-29T17:42	10	0	0.1	0	0	358	0.6	356	359	13.6	75.2
2025-09-29T17:43	10	0	0.1	0	0	357	0.3	356	358	13.0	79.2
2025-09-29T17:44	10	0	0.1	0	0	358	0.3	357	358	13.0	78.6
2025-09-29T17:45	10	0	0.1	0	0	357	0.3	357	358	13.1	78.9
2025-09-29T17:46	10	0	0.1	0	0	358	0.2	357	358	13.0	79.4
2025-09-29T17:47	10	0	0.1	0	0	357	0.2	357	358	13.0	78.1
2025-09-29T17:48	10	0	0.1	0	0	357	0.2	357	358	13.3	75.3
2025-09-29T17:49	10	0	0.1	0	0	357	0.3	356	358	13.3	75.3
2025-09-29T17:50	10	0	0.1	0	0	358	0.3	357	358	13.4	74.0
2025-09-29T17:51	10	0	0.1	0	0	358	0.2	358	358	13.5	73.4
2025-09-29T17:52	10	0	0.1	0	0	357	0.3	357	358	13.6	73.0
2025-09-29T17:53	10	0	0.1	0	0	357	0.2	357	357	13.6	72.5
2025-09-29T17:54	10	0	0.1	0	0	357	0.2	356	357	13.7	72.7
2025-09-29T17:55	10	0	0.1	0	0	356	0.3	356	357	13.7	72.5
2025-09-29T17:56	10	0	0.0	0	0	356	0.2	356	357	13.6	73.5
2025-09-29T17:57	10	0	0.1	0	0	357	0.3	356	358	13.5	73.6
2025-09-29T17:58	10	0	0.1	0	0	358	0.3	357	358	13.6	73.8
2025-09-29T17:59	10	0	0.1	0	0	357	0.3	356	358	13.6	73.6
2025-09-29T18:00	10	0	0.1	0	0	356	0.4	355	357	13.5	74.2
2025-09-29T18:01	10	0	0.1	0	0	356	0.2	355	356	13.4	76.1
2025-09-29T18:02	10	0	0.1	0	0	355	0.4	354	356	13.2	76.9
2025-09-29T18:03	10	0	0.1	0	0	355	0.3	354	355	13.1	77.8
2025-09-29T18:04	10	0	0.2	0	0	354	0.3	354	355	13.1	77.7
2025-09-29T18:05	10	0	0.1	0	0	355	0.2	354	355	13.0	78.3
2025-09-29T18:06	10	0	0.1	0	0	354	0.3	354	355	12.9	79.1
2025-09-29T18:07	10	0	0.2	0	0	354	0.3	354	355	12.8	79.3
2025-09-29T18:08	10	0	0.1	0	0	355	0.2	354	355	12.8	79.3
2025-09-29T18:09	10	0	0.2	0	1	355	0.3	354	355	12.6	80.8
2025-09-29T18:10	10	0	0.1	0	0	355	0.3	355	356	12.5	81.3
2025-09-29T18:11	10	0	0.1	0	0	356	0.5	355	357	12.6	81.0
2025-09-29T18:12	10	0	0.1	0	0	357	0.3	356	357	12.7	79.7
2025-09-29T18:13	10	0	0.1	0	0	356	0.2	356	357	12.7	79.0
2025-09-29T18:14	10	0	0.1	0	0	356	0.3	356	357	12.8	78.4
2025-09-29T18:15	10	0	0.1	0	0	357	0.3	357	358	12.9	78.6
2025-09-29T18:16	10	0	0.1	0	0	357	0.2	357	358	12.8	79.0
2025-09-29T18:17	10	0	0.1	0	0	357	0.2	357	358	12.9	78.5
2025-09-29T18:18	10	0	0.1	0	0	357	0.3	356	357	13.0	77.9
2025-09-29T18:19	10	0	0.1	0	0	357	0.2	356	357	13.0	77.8
2025-09-29T18:20	10	0	0.1	0	0	357	0.3	356	357	13.0	77.7
2025-09-29T18:21	10	0	0.1	0	0	356	0.4	355	357	13.0	77.3
2025-09-29T18:22	10	0	0.1	0	0	356	0.3	355	356	12.9	76.9
2025-09-29T18:23	10	0	0.1	0	0	356	0.2	355	356	12.6	78.8
2025-09-29T18:24	10	0	0.1	0	0	355	0.4	355	356	12.4	80.2
2025-09-29T18:25	10	0	0.1	0	0	355	0.4	355	356	12.3	80.4
2025-09-29T18:26	10	0	0.1	0	0	355	0.5	354	356	12.6	78.7
2025-09-29T18:27	10	0	0.1	0	0	354	0.3	353	354	12.4	80.0
2025-09-29T18:28	10	0	0.1	0	0	354	0.3	353	354	12.1	81.8
2025-09-29T18:29	10	0	0.1	0	0	353	0.3	353	354	11.9	82.8
2025-09-29T18:30	10	0	0.1	0	0	353	0.2	353	354	11.8	83.1
2025-09-29T18:31	10	0	0.1	0	0	353	0.4	352	354	11.8	83.4
2025-09-29T18:32	10	0	0.1	0	0	353	0.3	353	354	11.8	83.8
2025-09-29T18:33	10	0	0.1	0	0	353	0.2	353	354	11.7	84.0
2025-09-29T18:34	10	0	0.1	0	0	353	0.2	352	353	11.7	84.5
2025-09-29T18:35	10	0	0.1	0	0	352	0.2	352	353	11.6	84.9
2025-09-29T18:36	10	0	0.1	0	0	352	0.2	351	352	11.6	85.3
2025-09-29T18:37	10	0	0.1	0	0	352	0.2	352	353	11.4	85.6
2025-09-29T18:38	10	0	0.1	0	0	352	0.2	352	352	11.4	86.1
2025-09-29T18:39	10	0	0.1	0	0	352	0.3	351	352	11.3	86.2
2025-09-29T18:40	10	0	0.1	0	0	351	0.3	351	352	11.4	86.2
2025-09-29T18:41	10	0	0.1	0	0	351	0.2	351	352	11.6	85.2
2025-09-29T18:42	10	0	0.1	0	0	351	0.2	351	352	11.6	85.0
2025-09-29T18:43	10	0	0.1	0	0	351	0.2	350	351	11.4	85.8
2025-09-29T18:44	10	0	0.1	0	0	351	0.2	350	351	11.4	86.4
2025-09-29T18:45	10	0	0.1	0	0	350	0.2	350	351	11.4	86.5
2025-09-29T18:46	10	0	0.1	0	0	351	0.3	350	351	11.7	85.1
2025-09-29T18:47	10	0	0.1	0	0	351	0.3	351	352	11.9	84.0
2025-09-29T18:48	10	0	0.1	0	0	351	0.2	350	351	12.0	83.3
2025-09-29T18:49	10	0	0.1	0	0	351	0.2	350	351	11.9	83.7
2025-09-29T18:50	10	0	0.1	0	0	351	0.2	350	351	11.8	83.6
2025-09-29T18:51	10	0	0.1	0	0	351	0.3	350	351	11.9	83.0
2025-09-29T18:52	10	0	0.1	-1	0	351	0.3	350	351	12.1	81.9
2025-09-29T18:53	10	0	0.1	0	0	351	0.4	350	351	11.9	83.0
2025-09-29T18:54	10	0	0.2	-1	0	351	0.2	350	352	11.7	83.8
2025-09-29T18:55	10	0	0.1	0	0	351	0.3	350	351	11.6	84.6
2025-09-29T18:56	10	0	0.1	0	0	351	0.4	350	351	11.5	84.8
2025-09-29T18:57	10	0	0.1	0	0	350	0.2	350	351	11.5	84.3
2025-09-29T18:58	10	0	0.1	0	0	350	0.2	350	351	11.6	84.4
2025-09-29T18:59	10	0	0.1	0	0	350	0.3	349	351	11.6	83.9
2025-09-29T19:00	10	0	0.1	0	0	349	0.3	349	350	11.6	83.8
2025-09-29T19:01	10	0	0.1	0	0	349	0.3	348	350	11.5	84.1
2025-09-29T19:02	10	0	0.1	0	0	348	0.2	348	349	11.3	85.3
2025-09-29T19:03	10	0	0.2	0	1	348	0.3	348	349	11.1	86.3
2025-09-29T19:04	10	0	0.1	0	0	348	0.3	348	349	11.0	87.0
2025-09-29T19:05	10	0	0.1	0	0	349	0.3	348	349	10.9	88.4
2025-09-29T19:06	10	0	0.1	0	0	349	0.2	348	349	10.9	88.8
2025-09-29T19:07	10	0	0.1	0	0	349	0.2	348	349	11.0	88.6
2025-09-29T19:08	10	0	0.1	0	0	349	0.2	348	349	11.0	88.5
2025-09-29T19:09	10	0	0.1	0	0	349	0.2	348	349	11.1	88.1
2025-09-29T19:10	10	0	0.1	0	0	348	0.2	348	348	11.0	88.4
2025-09-29T19:11	10	0	0.1	0	0	348	0.4	347	349	11.1	88.2
2025-09-29T19:12	10	0	0.1	0	0	348	0.3	347	349	11.1	87.5
2025-09-29T19:13	10	0	0.1	0	0	348	0.3	347	348	11.1	86.9
2025-09-29T19:14	10	0	0.1	0	0	348	0.3	347	348	11.1	86.9
2025-09-29T19:15	10	0	0.1	0	0	348	0.3	347	348	11.0	87.3
2025-09-29T19:16	10	0	0.1	0	0	348	0.3	347	348	11.0	87.1
2025-09-29T19:17	10	0	0.1	0	0	347	0.3	347	348	10.9	87.6
2025-09-29T19:18	10	0	0.1	0	0	347	0.3	347	348	10.7	88.3
2025-09-29T19:19	10	0	0.1	0	0	347	0.2	347	348	10.7	88.6
2025-09-29T19:20	10	0	0.1	0	0	348	0.4	347	349	10.7	89.0
2025-09-29T19:21	10	0	0.1	0	0	349	0.3	348	349	10.7	88.8
2025-09-29T19:22	10	0	0.1	0	0	349	0.2	348	349	10.7	89.0
2025-09-29T19:23	10	0	0.1	0	0	349	0.3	348	349	10.6	88.8
2025-09-29T19:24	10	0	0.1	0	0	349	0.3	349	350	10.6	88.5
2025-09-29T19:25	10	0	0.1	0	0	350	0.4	349	351	10.6	88.4
2025-09-29T19:26	10	0	0.1	0	0	350	0.3	349	351	10.8	87.9
2025-09-29T19:27	10	0	0.1	0	0	350	0.4	350	351	10.7	88.2
2025-09-29T19:28	10	0	0.1	0	0	351	0.2	350	351	11.1	86.4
2025-09-29T19:29	10	0	0.1	0	0	351	0.2	350	351	11.3	85.6
2025-09-29T19:30	10	0	0.1	0	0	350	0.3	350	351	11.3	85.4
2025-09-29T19:31	10	0	0.1	0	0	349	0.4	348	350	11.2	85.7
2025-09-29T19:32	10	0	0.1	0	0	349	0.4	348	350	11.1	86.4
2025-09-29T19:33	10	0	0.1	0	0	348	0.2	348	349	11.1	86.8
2025-09-29T19:34	10	0	0.1	-1	0	348	0.3	347	349	11.2	86.7
2025-09-29T19:35	10	0	0.1	0	0	348	0.3	347	349	11.1	87.1
2025-09-29T19:36	10	0	0.1	0	0	348	0.3	348	349	11.0	84.7
2025-09-29T19:37	10	0	0.1	0	0	349	0.2	349	350	11.1	87.2
2025-09-29T19:38	10	0	0.1	0	0	349	0.2	348	350	11.1	87.2
2025-09-29T19:39	10	0	0.1	0	0	349	0.3	349	350	11.1	87.2
2025-09-29T19:40	10	0	0.1	0	0	349	0.2	349	350	11.1	87.2
2025-09-29T19:41	10	0	0.1	0	0	350	0.3	349	350	11.1	87.2
2025-09-29T19:42	10	0	0.1	0	0	349	0.2	349	350	11.1	87.2
2025-09-29T19:43	10	0	0.1	0	0	349	0.2	348	349	10.8	88.1
2025-09-29T19:44	10	0	0.1	0	0	349	0.2	348	349	10.4	89.4
2025-09-29T19:45	10	0	0.1	0	0	348	0.2	348	349	10.3	90.1
2025-09-29T19:46	10	0	0.1	0	0	348	0.3	348	349	10.3	90.8
2025-09-29T19:47	10	0	0.1	0	0	348	0.2	347	348	10.1	91.4
2025-09-29T19:48	10	0	0.1	0	0	347	0.2	347	348	10.0	92.0
2025-09-29T19:49	10	0	0.1	0	0	347	0.2	347	348	10.0	92.5
2025-09-29T19:50	10	0	0.1	0	0	347	0.2	346	347	10.0	92.6
2025-09-29T19:51	10	0	0.1	0	0	347	0.2	346	347	10.1	92.5
2025-09-29T19:52	10	0	0.1	0	0	347	0.2	346	347	10.2	92.3
2025-09-29T19:53	10	0	0.1	0	0	346	0.2	346	347	10.2	92.3
2025-09-29T19:54	10	0	0.1	0	0	346	0.2	346	347	10.2	92.1
2025-09-29T19:55	10	0	0.1	0	0	346	0.2	346	347	10.2	92.1
2025-09-29T19:56	10	0	0.1	0	0	347	0.3	346	347	10.2	92.3
2025-09-29T19:57	10	0	0.1	0	0	347	0.3	346	347	10.2	92.3
2025-09-29T19:58	10	0	0.1	0	0	347	0.3	347	348	10.2	92.4
2025-09-29T19:59	10	0	0.1	0	0	348	0.3	347	348	10.3	92.3
2025-09-29T20:00	10	0	0.1	0	0	347	0.2	347	348	10.3	92.2
2025-09-29T20:01	10	0	0.1	0	0	347	0.3	347	348	10.3	92.1
2025-09-29T20:02	10	0	0.1	0	0	348	0.2	347	348	10.3	91.6
2025-09-29T20:03	10	0	0.1	0	0	348	0.3	348	349	10.5	90.9
2025-09-29T20:04	10	0	0.1	0	0	348	0.3	348	349	10.5	90.4
2025-09-29T20:05	10	0	0.1	0	0	348	0.2	347	348	10.5	90.3
2025-09-29T20:06	10	0	0.1	-1	0	347	0.2	347	348	10.4	90.4
2025-09-29T20:07	10	0	0.1	0	0	347	0.3	347	348	10.5	90.2
2025-09-29T20:08	10	0	0.1	0	0	347	0.3	347	348	10.5	90.1
2025-09-29T20:09	10	0	0.1	0	0	347	0.2	347	347	10.4	90.1
2025-09-29T20:10	10	0	0.1	0	0	347	0.3	346	348	10.5	90.2
2025-09-29T20:11	10	0	0.1	-1	0	347	0.2	346	348	10.5	90.1
2025-09-29T20:12	10	0	0.2	-1	0	347	0.3	346	348	10.5	89.9
2025-09-29T20:13	10	0	0.1	0	0	346	0.3	346	347	10.6	89.6
2025-09-29T20:14	10	0	0.1	-1	0	346	0.3	345	346	10.6	89.7
2025-09-29T20:15	10	0	0.2	0	0	345	0.4	344	346	10.6	89.7
2025-09-29T20:16	10	0	0.1	-1	0	345	0.3	344	345	10.5	89.8
2025-09-29T20:17	10	0	0.1	0	0	345	0.3	344	345	10.4	90.0
2025-09-29T20:18	10	0	0.1	0	0	345	0.3	344	345	10.4	90.1
2025-09-29T20:19	10	0	0.1	0	0	345	0.2	344	345	10.5	89.8
2025-09-29T20:20	10	0	0.2	-1	0	345	0.3	344	345	10.5	89.9
2025-09-29T20:21	10	0	0.2	-1	0	345	0.2	344	345	10.4	90.3
2025-09-29T20:22	10	0	0.1	-1	0	345	0.2	344	345	10.4	90.5
2025-09-29T20:23	10	0	0.1	0	0	344	0.3	344	345	10.4	90.7
2025-09-29T20:24	10	0	0.2	0	0	344	0.3	344	345	10.3	90.7
2025-09-29T20:25	10	0	0.1	0	0	344	0.2	344	345	10.2	91.3
2025-09-29T20:26	10	0	0.1	-1	0	344	0.2	344	345	10.2	91.3
2025-09-29T20:27	10	0	0.1	-1	0	344	0.2	344	344	10.2	91.2
2025-09-29T20:28	10	0	0.1	-1	0	344	0.2	343	344	10.2	91.2
2025-09-29T20:29	10	0	0.1	-1	0	344	0.3	343	344	10.3	90.9
2025-09-29T20:30	10	0	0.1	-1	0	344	0.2	344	345	10.3	90.6
2025-09-29T20:31	10	0	0.1	0	0	344	0.2	344	345	10.3	90.6
2025-09-29T20:32	10	0	0.1	-1	0	344	0.3	343	345	10.4	90.3
2025-09-29T20:33	10	0	0.1	0	0	344	0.3	343	344	10.4	90.3
2025-09-29T20:34	10	0	0.1	0	0	344	0.2	343	344	10.4	90.5
2025-09-29T20:35	10	0	0.1	0	0	344	0.2	343	344	10.4	90.5
2025-09-29T20:36	10	0	0.1	0	0	344	0.2	343	344	10.3	90.6
2025-09-29T20:37	10	0	0.1	-1	0	343	0.3	343	344	10.3	90.8
2025-09-29T20:38	10	0	0.1	0	0	343	0.2	343	343	10.1	91.1
2025-09-29T20:39	10	0	0.1	0	0	343	0.2	342	343	10.1	91.5
2025-09-29T20:40	10	0	0.1	0	0	343	0.2	342	343	10.0	91.7
2025-09-29T20:41	10	0	0.1	0	0	343	0.3	342	343	10.0	91.9
2025-09-29T20:42	10	0	0.1	0	0	343	0.2	342	343	10.0	92.2
2025-09-29T20:43	10	0	0.1	0	0	343	0.3	343	344	9.9	92.3
2025-09-29T20:44	10	0	0.1	0	0	343	0.3	343	344	9.9	92.6
2025-09-29T20:45	10	0	0.1	0	0	343	0.2	343	344	9.8	92.9
2025-09-29T20:46	10	0	0.1	0	0	343	0.3	343	344	9.8	93.1
2025-09-29T20:47	10	0	0.1	0	0	343	0.2	342	343	9.7	93.2
2025-09-29T20:48	10	0	0.1	0	0	343	0.3	342	343	9.7	93.5
2025-09-29T20:49	10	0	0.1	0	0	342	0.3	342	343	9.7	93.7
2025-09-29T20:50	10	0	0.1	0	0	342	0.2	342	342	9.7	94.0
2025-09-29T20:51	10	0	0.1	0	0	342	0.2	341	342	9.7	93.8
2025-09-29T20:52	10	0	0.1	0	0	342	0.2	341	342	9.7	93.4
2025-09-29T20:53	10	0	0.1	0	0	342	0.2	341	342	9.7	93.3
2025-09-29T20:54	10	0	0.1	0	0	342	0.3	341	342	9.7	93.3
2025-09-29T20:55	10	0	0.1	0	0	342	0.3	341	343	9.7	93.2
2025-09-29T20:56	10	0	0.1	0	0	342	0.2	342	343	9.6	93.6
2025-09-29T20:57	10	0	0.1	0	0	342	0.3	342	343	9.6	93.5
2025-09-29T20:58	10	0	0.1	0	0	342	0.3	342	343	9.4	93.5
2025-09-29T20:59	10	0	0.1	0	0	342	0.3	342	343	9.4	93.7
2025-09-29T21:00	10	0	0.1	0	0	342	0.2	342	343	9.3	93.9
2025-09-29T21:01	10	0	0.1	0	0	342	0.3	342	343	9.3	93.9
2025-09-29T21:02	10	0	0.1	0	0	343	0.4	342	343	9.2	93.7
2025-09-29T21:03	10	0	0.1	0	0	343	0.2	342	344	9.1	93.7
2025-09-29T21:04	10	0	0.1	0	0	343	0.3	343	344	9.1	93.6
2025-09-29T21:05	10	0	0.1	0	0	344	0.4	343	345	9.1	93.9
2025-09-29T21:06	10	0	0.1	0	0	344	0.4	344	345	9.1	93.7
2025-09-29T21:07	10	0	0.0	0	0	344	0.2	344	345	9.2	93.5
2025-09-29T21:08	10	0	0.1	0	0	345	0.2	344	345	9.2	93.3
2025-09-29T21:09	10	0	0.1	0	0	344	0.3	343	345	9.1	93.4
2025-09-29T21:10	10	0	0.1	0	0	344	0.3	343	345	9.2	93.7
2025-09-29T21:11	10	0	0.1	0	0	344	0.3	343	344	9.4	94.0
2025-09-29T21:12	10	0	0.1	0	0	343	0.2	342	343	9.3	93.6
2025-09-29T21:13	10	0	0.1	0	0	342	0.5	341	343	9.2	93.6
2025-09-29T21:14	10	0	0.1	0	0	342	0.3	341	342	9.0	93.7
2025-09-29T21:15	10	0	0.1	0	0	341	0.2	341	342	8.9	94.0
2025-09-29T21:16	10	0	0.1	0	0	341	0.2	341	342	8.9	94.2
2025-09-29T21:17	10	0	0.1	0	0	341	0.2	340	341	8.9	94.4
2025-09-29T21:18	10	0	0.1	0	0	341	0.3	340	341	8.8	94.7
2025-09-29T21:19	10	0	0.1	0	0	341	0.2	340	341	8.8	94.8
2025-09-29T21:20	10	0	0.1	0	0	341	0.2	340	341	8.8	94.7
2025-09-29T21:21	10	0	0.1	-1	0	341	0.3	340	341	8.8	95.3
2025-09-29T21:22	10	0	0.1	-1	0	341	0.3	340	341	8.8	95.4
2025-09-29T21:23	10	0	0.1	-1	0	340	0.2	340	341	8.9	95.7
2025-09-29T21:24	10	0	0.1	0	0	340	0.2	340	341	8.9	95.8
2025-09-29T21:25	10	0	0.1	-1	0	340	0.2	340	341	8.9	95.8
2025-09-29T21:26	10	0	0.1	-1	0	341	0.2	340	341	8.9	95.9
2025-09-29T21:27	10	0	0.1	-1	0	340	0.2	340	341	9.0	95.9
2025-09-29T21:28	10	0	0.1	-1	0	340	0.3	340	341	8.9	96.3
2025-09-29T21:29	10	0	0.1	-1	0	340	0.2	339	340	8.8	96.3
2025-09-29T21:30	10	0	0.1	-1	0	340	0.2	340	341	8.8	96.6
2025-09-29T21:31	10	0	0.1	-1	0	340	0.2	340	341	8.8	96.6
2025-09-29T21:32	10	0	0.1	-1	0	341	0.6	340	342	8.9	96.8
2025-09-29T21:33	10	-1	0.1	-1	0	341	0.3	341	342	9.0	97.4
2025-09-29T21:34	10	0	0.1	-1	0	341	0.2	341	342	9.1	97.1
2025-09-29T21:35	10	0	0.1	-1	0	341	0.6	340	342	9.1	97.5
2025-09-29T21:36	10	0	0.1	-1	0	340	0.3	339	341	8.9	97.3
2025-09-29T21:37	10	0	0.1	0	0	340	0.2	339	340	8.8	96.7
2025-09-29T21:38	10	0	0.1	0	0	339	0.3	338	340	8.7	96.9
2025-09-29T21:39	10	0	0.1	-1	0	338	0.3	338	339	8.6	97.0
2025-09-29T21:40	10	0	0.1	-1	0	339	0.4	338	339	8.5	97.2
2025-09-29T21:41	10	0	0.1	-1	0	339	0.3	338	340	8.6	97.2
2025-09-29T21:42	10	0	0.1	-1	0	339	0.5	338	340	8.5	97.6
2025-09-29T21:43	10	0	0.1	-1	0	340	0.2	339	340	8.6	97.3
2025-09-29T21:44	10	0	0.1	-1	0	339	0.2	339	340	8.7	97.6
2025-09-29T21:45	10	0	0.1	-1	0	340	0.2	339	340	8.7	97.8
2025-09-29T21:46	10	0	0.1	-1	0	340	0.2	339	340	8.7	97.8
2025-09-29T21:47	10	0	0.1	-1	0	339	0.3	339	340	8.7	97.6
2025-09-29T21:48	10	0	0.1	-1	0	340	0.2	339	340	8.8	97.5
2025-09-29T21:49	10	0	0.1	-1	0	339	0.2	339	340	8.7	97.7
2025-09-29T21:50	10	0	0.1	-1	0	339	0.2	339	340	8.6	97.8
2025-09-29T21:51	10	0	0.1	-1	0	339	0.2	338	339	8.7	97.8
2025-09-29T21:52	10	0	0.1	-1	0	339	0.2	338	339	8.7	97.9
2025-09-29T21:53	10	0	0.1	-1	0	339	0.2	339	340	8.7	97.9
2025-09-29T21:54	10	0	0.1	-1	0	339	0.2	338	339	8.8	97.9
2025-09-29T21:55	10	0	0.1	-1	0	339	0.3	338	339	8.7	98.3
2025-09-29T21:56	10	0	0.1	-1	0	339	0.3	338	339	8.7	97.9
2025-09-29T21:57	10	0	0.1	-1	0	339	0.2	338	339	8.7	97.8
2025-09-29T21:58	10	0	0.1	-1	0	339	0.2	338	339	8.7	97.6
2025-09-29T21:59	10	0	0.0	-1	0	340	0.3	339	340	8.7	97.4
2025-09-29T22:00	10	0	0.1	-1	0	340	0.2	339	341	8.8	97.3
2025-09-29T22:01	10	0	0.1	-1	0	340	0.2	340	341	8.8	97.3
2025-09-29T22:02	10	0	0.1	-1	0	341	0.3	340	341	8.9	96.8
2025-09-29T22:03	10	0	0.1	-1	0	341	0.2	340	341	9.0	96.7
2025-09-29T22:04	10	0	0.1	-1	0	340	0.3	340	341	9.0	96.6
2025-09-29T22:05	10	0	0.1	-1	0	340	0.2	339	340	8.8	96.9
2025-09-29T22:06	10	0	0.1	-1	0	339	0.1	339	340	8.7	96.7
2025-09-29T22:07	10	0	0.1	-1	0	339	0.3	339	340	8.6	96.8
2025-09-29T22:08	10	0	0.1	-1	0	339	0.2	339	340	8.6	96.8
2025-09-29T22:09	10	0	0.1	-1	0	339	0.2	339	339	8.6	96.7
2025-09-29T22:10	10	0	0.0	-1	0	339	0.2	338	339	8.5	96.6
2025-09-29T22:11	10	0	0.1	-1	0	339	0.2	338	339	8.6	96.7
2025-09-29T22:12	10	0	0.1	-1	0	338	0.2	338	339	8.6	96.9
2025-09-29T22:13	10	0	0.1	-1	0	338	0.2	337	338	8.5	97.0
2025-09-29T22:14	10	0	0.1	0	0	338	0.2	337	338	8.5	97.4
2025-09-29T22:15	10	0	0.1	-1	0	338	0.4	337	338	8.5	97.2
2025-09-29T22:16	10	0	0.0	-1	0	338	0.2	337	339	8.6	97.3
2025-09-29T22:17	10	0	0.1	-1	0	338	0.4	337	338	8.6	97.4
2025-09-29T22:18	10	0	0.1	-1	0	337	0.2	336	337	8.4	97.7
2025-09-29T22:19	10	0	0.1	-1	0	337	0.2	336	338	8.3	97.4
2025-09-29T22:20	10	0	0.1	-1	0	337	0.2	337	337	8.3	97.4
2025-09-29T22:21	10	0	0.1	-1	0	337	0.3	337	338	8.3	97.4
2025-09-29T22:22	10	0	0.1	-1	0	337	0.3	337	338	8.4	97.4
2025-09-29T22:23	10	0	0.1	-1	0	337	0.2	336	338	8.5	97.7
2025-09-29T22:24	10	0	0.1	-1	0	337	0.3	336	338	8.5	97.9
2025-09-29T22:25	10	0	0.1	-1	0	337	0.2	336	337	8.5	98.0
2025-09-29T22:26	10	0	0.1	-1	0	337	0.2	336	337	8.5	97.6
2025-09-29T22:27	10	0	0.1	-1	0	337	0.2	336	337	8.4	97.6
2025-09-29T22:28	10	0	0.1	-1	0	337	0.2	336	337	8.4	97.6
2025-09-29T22:29	10	0	0.1	-1	0	336	0.2	336	337	8.3	97.3
2025-09-29T22:30	10	0	0.1	-1	0	336	0.2	336	337	8.2	97.3
2025-09-29T22:31	10	0	0.1	-1	0	336	0.2	336	337	8.2	97.2
2025-09-29T22:32	10	0	0.1	-1	0	336	0.3	336	337	8.2	96.9
2025-09-29T22:33	10	0	0.1	-1	0	337	0.2	336	337	8.1	96.8
2025-09-29T22:34	10	0	0.2	-1	0	337	0.3	336	337	8.1	96.9
2025-09-29T22:35	10	0	0.1	-1	0	337	0.3	336	337	8.1	96.8
2025-09-29T22:36	10	0	0.1	-1	0	337	0.2	336	337	8.1	96.8
2025-09-29T22:37	10	0	0.2	-1	0	337	0.2	336	337	8.1	96.9
2025-09-29T22:38	10	0	0.1	-1	0	337	0.2	336	337	8.1	96.9
2025-09-29T22:39	10	0	0.1	-1	0	337	0.3	336	337	8.2	97.1
2025-09-29T22:40	10	0	0.1	-1	0	337	0.3	336	337	8.2	97.3
2025-09-29T22:41	10	0	0.1	-1	0	336	0.2	336	337	8.2	97.4
2025-09-29T22:42	10	0	0.1	-1	0	336	0.2	335	336	8.1	97.6
2025-09-29T22:43	10	0	0.1	-1	0	336	0.2	335	336	8.1	97.6
2025-09-29T22:44	10	0	0.1	-1	0	336	0.2	335	336	8.1	97.7
2025-09-29T22:45	10	0	0.1	-1	0	336	0.3	335	337	8.0	97.7
2025-09-29T22:46	10	0	0.1	-1	0	336	0.3	335	337	8.0	97.4
2025-09-29T22:47	10	0	0.1	-1	0	335	0.3	334	336	8.1	97.2
2025-09-29T22:48	10	0	0.2	-1	0	335	0.2	335	336	7.9	97.3
2025-09-29T22:49	10	0	0.1	-1	0	336	0.3	335	336	7.9	97.2
2025-09-29T22:50	10	0	0.1	-1	0	336	0.2	335	336	7.9	97.2
2025-09-29T22:51	10	0	0.1	-1	0	336	0.2	335	336	7.8	97.5
2025-09-29T22:52	10	0	0.2	-1	0	336	0.3	335	337	7.8	97.9
2025-09-29T22:53	10	-1	0.1	-1	0	336	0.2	336	337	7.8	97.8
2025-09-29T22:54	10	0	0.1	-1	0	336	0.2	335	336	7.8	97.8
2025-09-29T22:55	10	0	0.1	-1	0	336	0.2	335	337	7.8	97.5
2025-09-29T22:56	10	0	0.1	-1	0	336	0.2	335	337	7.8	97.4
2025-09-29T22:57	10	0	0.1	-1	0	336	0.3	335	336	7.8	97.2
2025-09-29T22:58	10	0	0.1	-1	0	336	0.2	335	336	7.9	97.4
2025-09-29T22:59	10	0	0.1	-1	0	335	0.2	335	336	7.8	97.8
2025-09-29T23:00	10	0	0.1	-1	0	335	0.2	335	335	7.6	97.8
2025-09-29T23:01	10	0	0.1	-1	0	335	0.2	335	335	7.6	97.8
2025-09-29T23:02	10	0	0.1	-1	0	335	0.2	335	336	7.7	97.9
2025-09-29T23:03	10	0	0.1	-1	0	336	0.3	335	336	7.7	98.2
2025-09-29T23:04	10	0	0.1	-1	0	336	0.2	335	336	7.7	98.2
2025-09-29T23:05	10	0	0.1	-1	0	336	0.2	335	336	7.7	98.7
2025-09-29T23:06	10	0	0.1	-1	0	335	0.3	335	336	7.6	98.8
2025-09-29T23:07	10	0	0.1	-1	0	336	0.2	335	336	7.7	98.4
2025-09-29T23:08	10	0	0.1	-1	0	336	0.3	336	337	7.8	98.5
2025-09-29T23:09	10	0	0.1	-1	0	336	0.2	336	336	7.8	98.3
2025-09-29T23:10	10	0	0.1	-1	0	336	0.2	336	337	7.7	98.3
2025-09-29T23:11	10	0	0.1	-1	0	336	0.3	336	337	7.8	97.9
2025-09-29T23:12	10	-1	0.0	-1	0	336	0.3	336	337	7.8	97.9
2025-09-29T23:13	10	0	0.1	-1	0	336	0.2	336	337	7.9	98.3
2025-09-29T23:14	10	-1	0.1	-1	0	336	0.3	336	337	8.1	98.2
2025-09-29T23:15	10	-1	0.1	-1	0	336	0.2	336	337	8.3	98.7
2025-09-29T23:16	10	-1	0.1	-1	0	337	0.2	336	337	8.4	99.0
2025-09-29T23:17	10	-1	0.1	-1	0	337	0.2	336	337	8.5	98.8
2025-09-29T23:18	10	-1	0.1	-1	0	337	0.2	336	338	8.7	98.7
2025-09-29T23:19	10	-1	0.1	-1	-1	337	0.3	336	337	8.7	98.9
2025-09-29T23:20	10	-1	0.1	-1	0	337	0.3	336	337	8.6	98.7
2025-09-29T23:21	10	-1	0.1	-1	0	336	0.2	336	337	8.4	98.6
2025-09-29T23:22	10	-1	0.1	-1	0	336	0.5	335	337	8.3	98.7
2025-09-29T23:23	10	0	0.1	-1	0	335	0.2	335	336	8.1	98.4
2025-09-29T23:24	10	0	0.1	-1	0	336	0.3	335	337	7.9	98.0
2025-09-29T23:25	10	-1	0.1	-1	0	336	0.2	335	336	7.9	97.7
2025-09-29T23:26	10	0	0.1	-1	0	336	0.3	335	336	7.8	97.9
2025-09-29T23:27	10	0	0.1	-1	0	335	0.2	335	336	7.7	97.8
2025-09-29T23:28	10	0	0.1	-1	0	336	0.3	335	336	7.8	97.9
2025-09-29T23:29	10	-1	0.1	-1	0	336	0.3	335	336	7.9	98.2
2025-09-29T23:30	10	-1	0.1	-1	0	336	0.3	336	337	7.9	98.2
2025-09-29T23:31	10	0	0.1	-1	0	336	0.2	336	337	8.1	98.1
2025-09-29T23:32	10	0	0.1	-1	0	336	0.3	335	336	8.1	98.5
2025-09-29T23:33	10	-1	0.1	-1	0	335	0.2	335	336	8.0	98.7
2025-09-29T23:34	10	0	0.1	-1	0	335	0.3	334	336	8.0	98.8
2025-09-29T23:35	10	0	0.1	-1	0	335	0.2	335	336	7.9	99.1
2025-09-29T23:36	10	0	0.1	-1	0	335	0.2	334	335	7.9	98.9
2025-09-29T23:37	10	0	0.1	-1	0	335	0.2	334	335	7.8	98.8
2025-09-29T23:38	10	0	0.1	-1	0	334	0.2	334	335	7.8	98.6
2025-09-29T23:39	10	0	0.1	0	0	334	0.2	334	335	7.6	98.5
2025-09-29T23:40	10	0	0.1	0	0	334	0.2	334	335	7.5	98.4
2025-09-29T23:41	10	0	0.1	-1	0	335	0.2	334	335	7.4	98.2
2025-09-29T23:42	10	0	0.1	-1	0	335	0.2	334	335	7.3	98.2
2025-09-29T23:43	10	0	0.1	-1	0	335	0.3	335	336	7.4	98.4
2025-09-29T23:44	10	0	0.1	-1	0	335	0.2	335	335	7.4	98.6
2025-09-29T23:45	10	0	0.1	-1	0	335	0.2	335	336	7.4	98.7
2025-09-29T23:46	10	0	0.1	-1	0	335	0.2	334	335	7.4	98.5
2025-09-29T23:47	10	0	0.1	-1	0	334	0.2	334	335	7.4	98.4
2025-09-29T23:48	10	0	0.1	-1	0	334	0.3	334	335	7.5	98.5
2025-09-29T23:49	10	0	0.1	-1	0	334	0.3	334	335	7.6	98.4
2025-09-29T23:50	10	0	0.1	-1	0	334	0.2	334	335	7.7	98.7
2025-09-29T23:51	10	0	0.1	-1	0	334	0.2	334	335	7.7	98.7
2025-09-29T23:52	10	-1	0.1	-1	0	334	0.2	334	335	7.7	98.7
2025-09-29T23:53	10	0	0.1	-1	0	334	0.3	334	335	7.7	98.3
2025-09-29T23:54	10	-1	0.1	-1	0	334	0.2	334	335	7.6	98.0
2025-09-29T23:55	10	0	0.1	-1	0	334	0.3	334	335	7.6	97.8
2025-09-29T23:56	10	-1	0.1	-1	0	334	0.2	334	335	7.6	97.7
2025-09-29T23:57	10	-1	0.1	-1	0	334	0.2	334	335	7.6	97.6
2025-09-29T23:58	10	-1	0.1	-1	0	334	0.2	333	334	7.6	97.7
2025-09-29T23:59	10	-1	0.1	-1	0	334	0.2	334	334	7.7	97.8
2025-09-30T00:00	10	-1	0.1	-1	0	334	0.2	334	335	7.6	98.0
2025-09-30T00:01	10	-1	0.1	-1	0	334	0.2	334	335	7.5	97.8
2025-09-30T00:02	10	-1	0.1	-1	0	335	0.3	334	335	7.5	98.1
2025-09-30T00:03	10	-1	0.1	-1	0	335	0.2	334	335	7.5	98.2
2025-09-30T00:04	10	-1	0.1	-1	0	335	0.3	334	336	7.5	98.1
2025-09-30T00:05	10	0	0.1	-1	0	335	0.2	335	335	7.5	98.0
2025-09-30T00:06	10	0	0.1	-1	0	335	0.4	334	336	7.5	98.5
2025-09-30T00:07	10	0	0.1	-1	0	334	0.3	334	335	7.4	98.6
2025-09-30T00:08	10	0	0.1	-1	0	334	0.2	334	335	7.4	98.4
2025-09-30T00:09	10	0	0.1	-1	0	334	0.2	333	335	7.4	98.3
2025-09-30T00:10	10	0	0.1	-1	0	334	0.3	334	335	7.3	98.5
2025-09-30T00:11	10	0	0.1	-1	0	335	0.4	335	336	7.4	98.2
2025-09-30T00:12	10	0	0.1	-1	0	336	0.2	335	336	7.4	98.5
2025-09-30T00:13	10	0	0.1	-1	0	336	0.3	336	337	7.4	98.4
2025-09-30T00:14	10	0	0.1	-1	0	336	0.2	336	337	7.3	98.3
2025-09-30T00:15	10	0	0.1	-1	0	337	0.3	336	337	7.3	98.2
2025-09-30T00:16	10	0	0.1	-1	0	337	0.2	336	337	7.2	98.0
2025-09-30T00:17	10	0	0.1	-1	0	337	0.2	336	337	7.2	97.8
2025-09-30T00:18	10	0	0.1	-1	0	337	0.2	337	338	7.2	97.7
2025-09-30T00:19	10	0	0.1	-1	0	338	0.3	337	338	7.2	97.8
2025-09-30T00:20	10	0	0.1	-1	0	338	0.3	337	339	7.4	97.7
2025-09-30T00:21	10	-1	0.1	-1	0	338	0.3	337	339	7.4	97.9
2025-09-30T00:22	10	-1	0.1	-1	0	338	0.3	337	338	7.5	98.0
2025-09-30T00:23	10	0	0.1	-1	0	338	0.2	338	339	7.5	98.0
2025-09-30T00:24	10	-1	0.1	-1	0	338	0.2	338	339	7.7	98.0
2025-09-30T00:25	10	-1	0.1	-1	0	338	0.3	338	339	7.8	98.1
2025-09-30T00:26	10	-1	0.1	-1	0	338	0.3	338	339	7.9	98.1
2025-09-30T00:27	10	0	0.1	-1	0	338	0.3	337	339	7.9	98.2
2025-09-30T00:28	10	0	0.1	-1	0	338	0.3	337	338	7.9	98.1
2025-09-30T00:29	10	0	0.1	-1	0	338	0.2	337	338	7.8	97.6
2025-09-30T00:30	10	0	0.1	-1	0	338	0.3	337	338	7.8	97.2
2025-09-30T00:31	10	0	0.0	0	0	337	0.2	337	338	7.7	97.4
2025-09-30T00:32	10	0	0.1	0	0	337	0.2	337	338	7.6	97.4
2025-09-30T00:33	10	0	0.1	-1	0	337	0.3	336	337	7.6	97.7
2025-09-30T00:34	10	0	0.1	-1	0	336	0.3	335	337	7.5	97.7
2025-09-30T00:35	10	0	0.1	-1	0	336	0.3	335	337	7.5	97.4
2025-09-30T00:36	10	0	0.1	-1	0	336	0.2	335	336	7.5	97.6
2025-09-30T00:37	10	0	0.1	-1	0	335	0.3	335	336	7.5	97.2
2025-09-30T00:38	10	0	0.1	-1	0	335	0.2	334	335	7.5	97.4
2025-09-30T00:39	10	0	0.1	-1	0	335	0.2	334	335	7.4	97.5
2025-09-30T00:40	10	0	0.1	-1	0	334	0.3	334	335	7.4	97.6
2025-09-30T00:41	10	0	0.1	-1	0	334	0.2	334	335	7.3	97.6
2025-09-30T00:42	10	0	0.1	-1	0	334	0.4	333	335	7.3	97.4
2025-09-30T00:43	10	-1	0.1	-1	0	334	0.3	334	335	7.6	97.6
2025-09-30T00:44	10	-1	0.1	-1	0	335	0.3	334	335	7.6	97.9
2025-09-30T00:45	10	-1	0.1	-1	0	334	0.2	334	335	7.5	97.6
2025-09-30T00:46	10	-1	0.1	-1	0	334	0.2	334	334	7.5	97.6
2025-09-30T00:47	10	-1	0.1	-1	0	334	0.3	334	335	7.5	97.5
2025-09-30T00:48	10	-1	0.1	-1	0	334	0.2	334	335	7.4	97.5
2025-09-30T00:49	10	-1	0.1	-1	0	334	0.2	334	335	7.4	97.3
2025-09-30T00:50	10	-1	0.1	-1	0	334	0.2	334	335	7.3	97.5
2025-09-30T00:51	10	0	0.1	-1	0	334	0.3	333	335	7.4	97.4
2025-09-30T00:52	10	0	0.1	-1	0	334	0.2	334	335	7.3	97.6
2025-09-30T00:53	10	-1	0.1	-1	0	334	0.2	334	335	7.3	97.6
2025-09-30T00:54	10	0	0.1	-1	0	335	0.3	334	335	7.3	98.0
2025-09-30T00:55	10	-1	0.1	-1	0	334	0.2	334	335	7.3	98.0
2025-09-30T00:56	10	0	0.1	-1	0	335	0.3	334	335	7.3	98.1
2025-09-30T00:57	10	0	0.1	-1	0	335	0.2	334	335	7.2	98.0
2025-09-30T00:58	10	0	0.1	-1	0	335	0.3	334	335	7.2	98.0
2025-09-30T00:59	10	0	0.1	-1	0	334	0.2	334	335	7.2	98.0
2025-09-30T01:00	10	0	0.1	-1	0	334	0.2	333	334	7.2	97.9
2025-09-30T01:01	10	0	0.1	-1	0	334	0.2	333	334	7.1	98.2
2025-09-30T01:02	10	0	0.1	-1	0	334	0.2	334	334	7.0	98.0
2025-09-30T01:03	10	0	0.1	-1	0	334	0.3	334	335	7.1	97.7
2025-09-30T01:04	10	0	0.1	-1	0	334	0.2	334	335	7.1	98.0
2025-09-30T01:05	10	0	0.1	-1	0	334	0.2	334	335	6.9	98.1
2025-09-30T01:06	10	0	0.1	-1	0	334	0.3	334	335	6.9	98.0
2025-09-30T01:07	10	0	0.1	-1	0	335	0.2	334	335	6.9	97.8
2025-09-30T01:08	10	0	0.1	-1	0	335	0.3	334	335	7.0	97.8
2025-09-30T01:09	10	-1	0.1	-1	0	335	0.3	334	335	7.0	98.3
2025-09-30T01:10	10	0	0.1	-1	0	334	0.3	334	335	7.0	98.4
2025-09-30T01:11	10	0	0.0	-1	0	334	0.2	334	335	7.0	98.3
2025-09-30T01:12	10	0	0.1	-1	0	334	0.2	333	334	6.9	98.5
2025-09-30T01:13	10	0	0.1	-1	0	333	0.2	333	334	6.8	98.4
2025-09-30T01:14	10	0	0.1	-1	0	334	0.3	333	334	6.9	98.2
2025-09-30T01:15	10	0	0.1	-1	0	334	0.3	333	334	7.0	97.8
2025-09-30T01:16	10	-1	0.1	-1	0	334	0.3	333	334	7.1	98.3
2025-09-30T01:17	10	0	0.1	-1	0	335	0.3	334	335	7.2	98.3
2025-09-30T01:18	10	0	0.1	-1	0	335	0.3	334	335	7.1	98.4
2025-09-30T01:19	10	-1	0.1	-1	0	335	0.3	334	336	7.1	98.4
2025-09-30T01:20	10	-1	0.1	-1	0	335	0.2	335	336	7.1	98.5
2025-09-30T01:21	10	0	0.1	-1	0	335	0.3	334	336	7.1	98.4
2025-09-30T01:22	10	0	0.1	-1	0	335	0.3	334	336	7.1	98.2
2025-09-30T01:23	10	-1	0.1	-1	0	335	0.2	335	336	7.0	98.5
2025-09-30T01:24	10	0	0.1	-1	0	335	0.2	335	336	6.9	98.5
2025-09-30T01:25	10	0	0.1	-1	0	335	0.2	335	336	6.9	98.6
2025-09-30T01:26	10	0	0.1	-1	0	335	0.2	334	335	6.9	98.6
2025-09-30T01:27	10	0	0.1	-1	0	335	0.2	334	335	6.8	98.9
2025-09-30T01:28	10	0	0.1	-1	0	335	0.3	334	335	6.8	98.6
2025-09-30T01:29	10	0	0.1	-1	0	334	0.3	333	335	6.7	99.0
2025-09-30T01:30	10	0	0.1	-1	0	334	0.2	334	335	6.6	98.9
2025-09-30T01:31	10	0	0.1	-1	0	334	0.2	334	335	6.6	98.8
2025-09-30T01:32	10	0	0.0	-1	0	334	0.2	333	334	6.6	99.0
2025-09-30T01:33	10	0	0.1	-1	0	334	0.2	333	334	6.6	98.8
2025-09-30T01:34	10	0	0.1	-1	0	333	0.2	333	334	6.6	99.0
2025-09-30T01:35	10	0	0.1	-1	0	333	0.2	332	334	6.6	99.0
2025-09-30T01:36	10	-1	0.1	-1	0	333	0.2	332	333	6.6	99.0
2025-09-30T01:37	10	0	0.1	-1	0	333	0.2	332	333	6.6	99.2
2025-09-30T01:38	10	0	0.1	-1	0	333	0.2	332	333	6.6	99.2
2025-09-30T01:39	10	0	0.1	-1	0	333	0.2	332	333	6.6	99.1
2025-09-30T01:40	10	-1	0.1	-1	0	332	0.2	332	333	6.6	99.0
2025-09-30T01:41	10	-1	0.1	-1	0	332	0.2	332	333	6.7	99.1
2025-09-30T01:42	10	-1	0.1	-1	0	332	0.2	331	332	6.8	98.8
2025-09-30T01:43	10	-1	0.1	-1	0	331	0.3	331	332	6.8	99.0
2025-09-30T01:44	10	0	0.1	-1	0	331	0.3	331	332	6.8	98.8
2025-09-30T01:45	10	0	0.1	-1	0	331	0.3	331	332	6.8	98.8
2025-09-30T01:46	10	0	0.1	-1	0	332	0.2	331	332	6.7	98.7
2025-09-30T01:47	10	0	0.1	-1	0	332	0.2	331	332	6.7	98.7
2025-09-30T01:48	10	0	0.1	-1	0	332	0.2	332	333	6.7	98.8
2025-09-30T01:49	10	0	0.1	-1	0	333	0.2	332	333	6.7	98.6
2025-09-30T01:50	10	0	0.1	-1	0	333	0.2	332	333	6.6	98.8
2025-09-30T01:51	10	-1	0.1	-1	0	332	0.2	332	333	6.6	99.2
2025-09-30T01:52	10	-1	0.1	-1	0	332	0.2	332	333	6.6	99.2
2025-09-30T01:53	10	0	0.1	-1	0	332	0.2	332	333	6.5	99.3
2025-09-30T01:54	10	0	0.1	-1	0	332	0.2	332	333	6.5	99.0
2025-09-30T01:55	10	0	0.1	-1	0	333	0.3	332	333	6.5	98.8
2025-09-30T01:56	10	0	0.1	-1	0	333	0.2	333	333	6.4	98.9
2025-09-30T01:57	10	0	0.1	-1	0	333	0.3	333	334	6.4	98.9
2025-09-30T01:58	10	0	0.1	-1	0	333	0.2	333	334	6.5	98.9
2025-09-30T01:59	10	-1	0.0	-1	0	333	0.3	333	334	6.6	98.8
2025-09-30T02:00	10	-1	0.1	-1	0	333	0.3	332	334	6.8	98.9
2025-09-30T02:01	10	-1	0.1	-1	0	333	0.2	332	333	6.9	99.1
2025-09-30T02:02	10	-1	0.1	-1	0	333	0.2	332	333	7.0	99.2
2025-09-30T02:03	10	0	0.1	-1	0	333	0.2	332	333	7.0	99.3
2025-09-30T02:04	10	-1	0.1	-1	0	333	0.2	332	333	6.9	99.3
2025-09-30T02:05	10	-1	0.1	-1	0	333	0.3	332	333	7.0	99.3
2025-09-30T02:06	10	-1	0.1	-1	0	333	0.2	332	333	7.0	99.6
2025-09-30T02:07	10	-1	0.1	-1	0	333	0.2	332	333	6.9	99.6
2025-09-30T02:08	10	-1	0.1	-1	0	332	0.3	332	333	6.9	99.7
2025-09-30T02:09	10	0	0.1	-1	0	332	0.2	332	333	6.8	99.7
2025-09-30T02:10	10	-1	0.1	-1	0	332	0.2	331	332	6.7	99.8
2025-09-30T02:11	10	0	0.1	-1	0	332	0.2	331	332	6.7	99.7
2025-09-30T02:12	10	0	0.1	-1	0	332	0.2	331	332	6.6	99.4
2025-09-30T02:13	10	-1	0.1	-1	0	332	0.2	331	332	6.7	99.1
2025-09-30T02:14	10	-1	0.1	-1	0	332	0.2	331	332	6.8	99.2
2025-09-30T02:15	10	-1	0.1	-1	0	332	0.3	331	332	6.8	99.5
2025-09-30T02:16	10	0	0.1	-1	0	332	0.3	331	332	6.7	99.5
2025-09-30T02:17	10	0	0.1	-1	0	331	0.2	331	332	6.6	99.6
2025-09-30T02:18	10	-1	0.1	-1	0	331	0.3	331	332	6.6	99.1
2025-09-30T02:19	10	0	0.1	-1	0	332	0.3	331	332	6.7	99.0
2025-09-30T02:20	10	0	0.1	-1	0	332	0.2	331	332	6.6	99.2
2025-09-30T02:21	10	0	0.0	-1	0	332	0.2	331	332	6.6	99.1
2025-09-30T02:22	10	0	0.1	-1	0	332	0.2	331	333	6.7	99.0
2025-09-30T02:23	10	0	0.1	-1	0	332	0.2	331	332	6.6	99.2
2025-09-30T02:24	10	-1	0.0	-1	0	332	0.2	331	332	6.6	99.1
2025-09-30T02:25	10	0	0.1	-1	0	332	0.3	331	333	6.6	99.0
2025-09-30T02:26	10	0	0.1	-1	0	332	0.2	331	332	6.5	98.9
2025-09-30T02:27	10	0	0.1	-1	0	332	0.3	331	332	6.6	98.7
2025-09-30T02:28	10	0	0.1	-1	0	332	0.3	331	333	6.7	98.7
2025-09-30T02:29	10	-1	0.0	-1	0	332	0.3	332	333	6.8	98.7
2025-09-30T02:30	10	-1	0.1	-1	0	333	0.3	332	334	6.8	98.7
2025-09-30T02:31	10	-1	0.1	-1	0	333	0.3	333	334	6.9	98.7
2025-09-30T02:32	10	-1	0.1	-1	0	333	0.2	332	334	6.7	98.9
2025-09-30T02:33	10	0	0.1	-1	0	333	0.2	332	333	6.7	98.9
2025-09-30T02:34	10	0	0.0	-1	0	332	0.3	332	333	6.6	98.8
2025-09-30T02:35	10	0	0.1	-1	0	332	0.2	331	332	6.6	98.8
2025-09-30T02:36	10	0	0.1	-1	0	332	0.3	331	332	6.6	99.0
2025-09-30T02:37	10	-1	0.0	-1	0	332	0.2	332	333	6.8	99.0
2025-09-30T02:38	10	-1	0.1	-1	0	332	0.2	332	333	6.8	99.3
2025-09-30T02:39	10	-1	0.1	-1	0	332	0.3	332	333	6.9	99.3
2025-09-30T02:40	10	-1	0.1	-1	0	333	0.2	332	333	6.9	99.1
2025-09-30T02:41	10	-1	0.1	-1	0	333	0.2	332	334	6.9	99.2
2025-09-30T02:42	10	0	0.1	-1	0	333	0.2	332	334	6.8	99.1
2025-09-30T02:43	10	0	0.1	-1	0	333	0.2	333	334	6.6	98.7
2025-09-30T02:44	10	-1	0.1	-1	0	333	0.2	333	334	6.8	98.6
2025-09-30T02:45	10	0	0.1	-1	0	333	0.2	333	334	6.8	99.3
2025-09-30T02:46	10	0	0.1	-1	0	333	0.2	333	333	6.6	99.6
2025-09-30T02:47	10	-1	0.1	-1	0	333	0.3	332	333	6.5	99.5
2025-09-30T02:48	10	0	0.1	-1	0	333	0.3	333	334	6.6	99.3
2025-09-30T02:49	10	0	0.1	-1	0	333	0.2	333	334	6.5	99.4
2025-09-30T02:50	10	0	0.1	-1	0	334	0.2	333	334	6.5	99.3
2025-09-30T02:51	10	0	0.1	-1	0	333	0.3	333	334	6.4	99.6
2025-09-30T02:52	10	0	0.1	-1	0	334	0.3	333	335	6.3	99.3
2025-09-30T02:53	10	0	0.1	-1	0	334	0.2	333	334	6.3	99.3
2025-09-30T02:54	10	0	0.1	-1	0	334	0.3	333	334	6.2	99.3
2025-09-30T02:55	10	0	0.1	-1	0	333	0.2	333	334	6.3	99.1
2025-09-30T02:56	10	0	0.1	-1	0	333	0.3	333	334	6.3	99.0
2025-09-30T02:57	10	0	0.1	-1	0	333	0.3	333	334	6.3	98.8
2025-09-30T02:58	10	0	0.1	-1	0	334	0.2	333	334	6.3	98.8
2025-09-30T02:59	10	-1	0.1	-1	0	334	0.3	333	334	6.4	99.0
2025-09-30T03:00	10	0	0.1	-1	0	334	0.2	333	334	6.5	98.9
2025-09-30T03:01	10	-1	0.1	-1	0	334	0.3	333	335	6.6	99.0
2025-09-30T03:02	10	-1	0.1	-1	0	335	0.3	334	335	6.5	99.5
2025-09-30T03:03	10	-1	0.1	-1	0	335	0.2	335	335	6.5	99.5
2025-09-30T03:04	10	0	0.1	-1	0	335	0.2	335	336	6.4	99.5
2025-09-30T03:05	10	-1	0.1	-1	0	335	0.3	334	335	6.5	99.3
2025-09-30T03:06	10	-1	0.1	-1	0	334	0.3	334	335	6.6	99.1
2025-09-30T03:07	10	-1	0.1	-1	0	334	0.3	334	335	6.8	99.2
2025-09-30T03:08	10	-1	0.1	-1	0	334	0.3	333	334	6.9	99.2
2025-09-30T03:09	10	-1	0.1	-1	0	334	0.4	334	335	6.9	99.0
2025-09-30T03:10	10	-1	0.1	-1	-1	335	0.2	334	335	7.0	98.9
2025-09-30T03:11	10	-1	0.1	-1	0	335	0.2	335	336	7.1	98.9
2025-09-30T03:12	10	-1	0.1	-1	0	336	0.3	335	336	7.1	98.7
2025-09-30T03:13	10	-1	0.1	-1	0	336	0.2	335	336	7.0	98.9
2025-09-30T03:14	10	-1	0.1	-1	0	335	0.3	335	336	7.0	98.8
2025-09-30T03:15	10	-1	0.1	-1	0	335	0.3	335	336	7.1	98.7
2025-09-30T03:16	10	0	0.1	-1	0	335	0.3	334	335	7.0	98.8
2025-09-30T03:17	10	0	0.1	-1	0	335	0.2	335	335	6.9	98.8
2025-09-30T03:18	10	0	0.1	-1	0	335	0.3	334	336	6.8	98.8
2025-09-30T03:19	10	0	0.1	-1	0	335	0.2	334	335	6.7	98.9
2025-09-30T03:20	10	0	0.1	-1	0	335	0.2	334	335	6.6	99.0
2025-09-30T03:21	10	0	0.1	-1	0	335	0.2	334	336	6.7	99.3
2025-09-30T03:22	10	-1	0.1	-1	0	335	0.3	335	336	6.8	99.1
2025-09-30T03:23	10	-1	0.1	-1	0	336	0.3	335	336	6.8	98.9
2025-09-30T03:24	10	-1	0.1	-1	0	336	0.2	335	336	6.8	98.9
2025-09-30T03:25	10	-1	0.1	-1	0	336	0.2	335	336	6.7	98.9
2025-09-30T03:26	10	-1	0.1	-1	0	336	0.2	335	336	6.8	98.7
2025-09-30T03:27	10	-1	0.1	-1	-1	336	0.2	335	336	6.9	99.0
2025-09-30T03:28	10	-1	0.1	-1	0	336	0.2	336	337	7.0	98.9
2025-09-30T03:29	10	-1	0.0	-1	0	336	0.2	335	336	7.0	98.9
2025-09-30T03:30	10	-1	0.1	-1	0	336	0.2	335	337	6.9	99.0
2025-09-30T03:31	10	-1	0.1	-1	0	336	0.2	335	336	6.8	98.8
2025-09-30T03:32	10	-1	0.1	-1	0	336	0.2	336	336	6.8	98.6
2025-09-30T03:33	10	-1	0.1	-1	0	336	0.3	335	337	6.8	98.5
2025-09-30T03:34	10	-1	0.1	-1	0	337	0.2	336	337	6.9	98.3
2025-09-30T03:35	10	-1	0.1	-1	0	336	0.2	336	337	6.9	98.5
2025-09-30T03:36	10	-1	0.1	-1	0	337	0.2	336	337	6.9	98.2
2025-09-30T03:37	10	-1	0.1	-1	0	337	0.3	336	337	6.9	98.4
2025-09-30T03:38	10	-1	0.1	-1	0	337	0.2	337	337	6.9	98.2
2025-09-30T03:39	10	-1	0.1	-1	0	337	0.2	337	338	7.0	98.2
2025-09-30T03:40	10	-1	0.1	-1	0	338	0.2	337	338	7.1	97.8
2025-09-30T03:41	10	-1	0.1	-1	0	338	0.4	337	339	7.2	97.8
2025-09-30T03:42	10	-1	0.1	-1	0	338	0.3	338	339	7.4	97.5
2025-09-30T03:43	10	-1	0.1	-1	0	338	0.3	337	339	7.5	97.2
2025-09-30T03:44	10	-1	0.1	-1	0	338	0.2	337	338	7.5	96.8
2025-09-30T03:45	10	0	0.1	-1	0	337	0.3	336	338	7.5	96.6
2025-09-30T03:46	10	0	0.1	-1	0	337	0.4	336	337	7.5	96.4
2025-09-30T03:47	10	0	0.1	-1	0	336	0.5	335	337	7.4	96.5
2025-09-30T03:48	10	0	0.1	-1	0	335	0.3	334	336	7.4	96.4
2025-09-30T03:49	10	0	0.1	-1	0	335	0.2	335	336	7.4	96.5
2025-09-30T03:50	10	0	0.1	-1	0	335	0.2	334	335	7.3	96.7
2025-09-30T03:51	10	0	0.1	-1	0	335	0.2	334	335	7.3	96.8
2025-09-30T03:52	10	0	0.1	-1	0	335	0.3	334	336	7.2	96.7
2025-09-30T03:53	10	0	0.1	-1	0	334	0.2	334	335	7.2	96.8
2025-09-30T03:54	10	0	0.1	-1	0	334	0.2	333	334	7.2	96.9
2025-09-30T03:55	10	-1	0.1	-1	0	334	0.3	333	334	7.2	97.1
2025-09-30T03:56	10	-1	0.1	-1	0	333	0.2	332	334	7.1	97.2
2025-09-30T03:57	10	0	0.1	-1	0	332	0.2	332	333	6.9	97.2
2025-09-30T03:58	10	0	0.1	-1	0	332	0.2	332	333	6.9	97.2
2025-09-30T03:59	10	-1	0.1	-1	0	332	0.2	332	332	6.9	97.4
2025-09-30T04:00	10	-1	0.1	-1	0	332	0.2	331	332	6.8	97.6
2025-09-30T04:01	10	0	0.1	-1	0	332	0.2	332	333	6.7	97.7
2025-09-30T04:02	10	0	0.1	-1	0	332	0.2	332	333	6.7	97.6
2025-09-30T04:03	10	-1	0.1	-1	0	332	0.2	332	333	6.7	97.5
2025-09-30T04:04	10	0	0.1	-1	0	332	0.2	332	333	6.6	97.5
2025-09-30T04:05	10	0	0.1	-1	0	332	0.2	332	333	6.6	97.7
2025-09-30T04:06	10	0	0.1	-1	0	332	0.2	332	333	6.6	98.0
2025-09-30T04:07	10	-1	0.1	-1	0	332	0.2	332	333	6.6	97.9
2025-09-30T04:08	10	-1	0.1	-1	0	332	0.2	332	333	6.6	98.1
2025-09-30T04:09	10	-1	0.1	-1	0	332	0.2	332	332	6.6	98.3
2025-09-30T04:10	10	-1	0.1	-1	0	332	0.2	332	332	6.5	98.4
2025-09-30T04:11	10	0	0.0	-1	0	332	0.2	332	332	6.5	98.6
2025-09-30T04:12	10	0	0.1	-1	0	332	0.2	332	333	6.4	98.6
2025-09-30T04:13	10	-1	0.1	-1	0	332	0.2	332	333	6.4	98.7
2025-09-30T04:14	10	-1	0.1	-1	0	332	0.2	332	333	6.4	98.7
2025-09-30T04:15	10	-1	0.1	-1	0	333	0.3	332	333	6.4	98.8
2025-09-30T04:16	10	0	0.1	-1	0	332	0.3	332	333	6.3	98.9
2025-09-30T04:17	10	0	0.1	-1	0	333	0.2	332	333	6.3	98.9
2025-09-30T04:18	10	0	0.1	-1	0	333	0.2	332	333	6.4	98.9
2025-09-30T04:19	10	0	0.1	-1	0	333	0.2	332	333	6.5	98.6
2025-09-30T04:20	10	0	0.1	-1	0	333	0.2	332	333	6.5	98.7
2025-09-30T04:21	10	0	0.1	-1	0	333	0.2	332	333	6.5	98.8
2025-09-30T04:22	10	0	0.1	-1	0	333	0.3	332	333	6.4	99.0
2025-09-30T04:23	10	0	0.1	-1	0	333	0.2	332	333	6.3	98.8
2025-09-30T04:24	10	0	0.0	-1	0	333	0.2	332	333	6.3	98.9
2025-09-30T04:25	10	0	0.1	-1	0	333	0.2	332	333	6.2	98.9
2025-09-30T04:26	10	0	0.1	-1	0	333	0.2	332	333	6.2	99.1
2025-09-30T04:27	10	0	0.1	-1	0	333	0.2	332	333	6.3	99.2
2025-09-30T04:28	10	0	0.1	-1	0	332	0.2	332	333	6.3	99.1
2025-09-30T04:29	10	0	0.1	-1	0	332	0.2	332	333	6.3	99.0
2025-09-30T04:30	10	0	0.1	-1	0	333	0.2	332	333	6.3	98.9
2025-09-30T04:31	10	0	0.0	-1	0	333	0.2	332	333	6.3	99.1
2025-09-30T04:32	10	0	0.1	-1	0	333	0.2	332	333	6.3	99.0
2025-09-30T04:33	10	0	0.1	-1	0	333	0.3	332	333	6.2	99.1
2025-09-30T04:34	10	-1	0.0	-1	0	333	0.2	332	333	6.3	99.0
2025-09-30T04:35	10	-1	0.1	-1	0	333	0.2	332	333	6.3	98.8
2025-09-30T04:36	10	0	0.1	-1	0	333	0.2	333	333	6.3	99.0
2025-09-30T04:37	10	0	0.1	-1	0	333	0.2	332	333	6.2	98.7
2025-09-30T04:38	10	0	0.1	-1	0	333	0.2	333	334	6.3	98.4
2025-09-30T04:39	10	0	0.1	-1	0	333	0.2	333	334	6.3	98.7
2025-09-30T04:40	10	0	0.1	-1	0	333	0.2	333	334	6.3	98.8
2025-09-30T04:41	10	0	0.1	-1	0	333	0.2	333	333	6.3	98.8
2025-09-30T04:42	10	0	0.1	-1	0	333	0.2	332	333	6.3	98.8
2025-09-30T04:43	10	0	0.1	-1	0	333	0.2	333	333	6.3	98.9
2025-09-30T04:44	10	0	0.1	-1	0	333	0.2	333	333	6.3	99.1
2025-09-30T04:45	10	0	0.1	-1	0	333	0.2	332	333	6.2	99.1
2025-09-30T04:46	10	0	0.1	-1	0	332	0.2	332	333	6.2	98.9
2025-09-30T04:47	10	0	0.1	-1	0	332	0.3	331	333	6.2	98.9
2025-09-30T04:48	10	0	0.1	-1	0	332	0.2	332	333	6.2	98.7
2025-09-30T04:49	10	0	0.1	-1	0	332	0.2	331	332	6.1	98.7
2025-09-30T04:50	10	0	0.1	-1	0	332	0.2	331	332	6.2	98.7
2025-09-30T04:51	10	0	0.0	-1	0	332	0.2	331	333	6.3	98.8
2025-09-30T04:52	10	0	0.1	-1	0	332	0.2	332	332	6.3	99.1
2025-09-30T04:53	10	0	0.1	-1	0	332	0.3	332	332	6.3	99.1
2025-09-30T04:54	10	0	0.1	-1	0	332	0.4	331	333	6.3	99.0
2025-09-30T04:55	10	0	0.1	-1	0	332	0.2	332	333	6.3	99.0
2025-09-30T04:56	10	0	0.1	-1	0	332	0.3	331	333	6.3	98.8
2025-09-30T04:57	10	0	0.1	-1	0	332	0.2	331	332	6.3	98.6
2025-09-30T04:58	10	0	0.0	-1	0	331	0.2	331	332	6.3	98.6
2025-09-30T04:59	10	0	0.0	-1	0	331	0.2	331	332	6.3	98.7
2025-09-30T05:00	10	0	0.1	-1	0	331	0.2	331	331	6.3	99.0
2025-09-30T05:01	10	0	0.1	-1	0	331	0.2	330	332	6.3	98.9
2025-09-30T05:02	10	0	0.0	-1	0	331	0.2	330	331	6.3	99.0
2025-09-30T05:03	10	-1	0.1	-1	0	331	0.2	330	331	6.3	99.0
2025-09-30T05:04	10	-1	0.1	-1	0	331	0.3	330	332	6.3	99.1
2025-09-30T05:05	10	0	0.1	-1	0	331	0.2	331	331	6.3	99.1
2025-09-30T05:06	10	-1	0.1	-1	0	331	0.2	330	332	6.3	99.1
2025-09-30T05:07	10	0	0.1	-1	0	331	0.3	330	331	6.3	99.0
2025-09-30T05:08	10	0	0.1	-1	0	331	0.3	330	332	6.2	99.1
2025-09-30T05:09	10	0	0.1	-1	0	331	0.3	330	332	6.3	99.2
2025-09-30T05:10	10	0	0.1	-1	0	331	0.2	330	331	6.2	99.1
2025-09-30T05:11	10	0	0.1	-1	0	331	0.2	331	331	6.2	99.0
2025-09-30T05:12	10	0	0.1	-1	0	331	0.2	330	331	6.2	98.9
2025-09-30T05:13	10	0	0.1	-1	0	331	0.2	330	331	6.2	98.9
2025-09-30T05:14	10	0	0.1	-1	0	331	0.2	330	331	6.2	98.8
2025-09-30T05:15	10	0	0.1	-1	0	331	0.2	331	332	6.2	98.8
2025-09-30T05:16	10	0	0.1	-1	0	331	0.2	330	331	6.2	98.8
2025-09-30T05:17	10	0	0.1	-1	0	331	0.3	330	332	6.3	98.8
2025-09-30T05:18	10	0	0.1	-1	0	331	0.2	330	331	6.3	98.9
2025-09-30T05:19	10	0	0.1	-1	0	331	0.3	330	331	6.3	98.9
2025-09-30T05:20	10	0	0.1	-1	0	331	0.4	330	332	6.4	98.8
2025-09-30T05:21	10	0	0.1	-1	0	332	0.2	331	332	6.4	99.1
2025-09-30T05:22	10	0	0.1	0	0	332	0.2	332	333	6.4	99.3
2025-09-30T05:23	10	0	0.1	-1	0	333	0.3	332	333	6.4	99.1
2025-09-30T05:24	10	0	0.1	-1	0	333	0.3	333	334	6.5	99.1
2025-09-30T05:25	10	0	0.1	-1	0	333	0.3	333	334	6.5	99.4
2025-09-30T05:26	10	0	0.1	-1	0	333	0.3	332	334	6.4	99.4
2025-09-30T05:27	10	0	0.1	0	0	333	0.3	333	334	6.4	99.3
2025-09-30T05:28	10	0	0.1	0	0	333	0.2	332	333	6.4	99.5
2025-09-30T05:29	10	0	0.1	0	0	333	0.2	332	333	6.3	99.5
2025-09-30T05:30	10	0	0.1	0	0	333	0.3	332	334	6.4	99.7
2025-09-30T05:31	10	0	0.1	0	0	333	0.2	332	333	6.4	99.5
2025-09-30T05:32	10	0	0.0	0	0	333	0.2	332	333	6.5	99.2
2025-09-30T05:33	10	0	0.1	0	0	333	0.3	332	333	6.4	99.1
2025-09-30T05:34	10	0	0.1	0	0	333	0.2	332	333	6.4	99.1
2025-09-30T05:35	10	0	0.1	0	0	333	0.2	333	333	6.4	99.3
2025-09-30T05:36	10	0	0.1	0	0	333	0.3	333	334	6.4	99.3
2025-09-30T05:37	10	0	0.1	0	0	334	0.2	333	334	6.4	99.0
2025-09-30T05:38	10	0	0.1	0	1	334	0.2	333	334	6.4	99.2
2025-09-30T05:39	10	0	0.1	0	1	334	0.2	334	335	6.4	99.2
2025-09-30T05:40	10	1	0.1	0	1	334	0.2	334	335	6.4	99.1
2025-09-30T05:41	10	1	0.1	0	1	334	0.3	334	335	6.4	98.8
2025-09-30T05:42	10	1	0.1	1	1	335	0.3	334	335	6.6	98.7
2025-09-30T05:43	10	1	0.1	1	1	335	0.3	334	336	6.6	98.9
2025-09-30T05:44	10	1	0.1	1	1	335	0.2	335	336	6.6	98.8
2025-09-30T05:45	10	1	0.1	1	2	335	0.2	335	336	6.5	98.8
2025-09-30T05:46	10	1	0.1	1	2	335	0.2	335	336	6.6	98.8
2025-09-30T05:47	10	1	0.1	1	2	335	0.3	334	335	6.6	99.0
2025-09-30T05:48	10	2	0.1	1	2	335	0.3	334	335	6.4	98.9
2025-09-30T05:49	10	2	0.1	1	2	335	0.2	334	335	6.4	98.6
2025-09-30T05:50	10	2	0.1	2	2	335	0.2	334	336	6.5	98.6
2025-09-30T05:51	10	2	0.1	2	2	335	0.3	335	336	6.5	98.6
2025-09-30T05:52	10	2	0.1	2	2	335	0.3	335	336	6.5	98.6
2025-09-30T05:53	10	2	0.1	2	2	336	0.3	335	337	6.5	98.6
2025-09-30T05:54	10	2	0.1	2	3	336	0.3	336	336	6.6	98.6
2025-09-30T05:55	10	2	0.1	2	3	336	0.4	335	337	6.7	98.5
2025-09-30T05:56	10	3	0.1	2	3	337	0.4	336	337	6.8	98.6
2025-09-30T05:57	10	3	0.1	3	3	337	0.4	336	338	7.0	98.4
2025-09-30T05:58	10	3	0.1	3	3	337	0.2	337	338	7.2	98.5
2025-09-30T05:59	10	3	0.1	3	3	337	0.2	337	338	7.2	98.9
2025-09-30T06:00	10	3	0.1	3	4	337	0.3	336	337	7.1	98.6
2025-09-30T06:01	10	4	0.1	3	4	337	0.2	336	337	7.1	98.4
2025-09-30T06:02	10	4	0.1	3	4	338	0.3	337	338	7.2	98.2
2025-09-30T06:03	10	4	0.2	3	4	338	0.2	337	338	7.2	98.4
2025-09-30T06:04	10	4	0.1	4	4	338	0.2	338	339	7.3	97.9
2025-09-30T06:05	10	4	0.1	4	4	338	0.2	337	339	7.4	98.1
2025-09-30T06:06	10	4	0.2	4	5	338	0.3	338	339	7.4	98.1
2025-09-30T06:07	10	4	0.1	4	5	338	0.3	338	339	7.4	97.9
2025-09-30T06:08	10	4	0.1	4	5	339	0.3	338	339	7.5	97.8
2025-09-30T06:09	10	5	0.1	4	5	338	0.3	338	339	7.4	97.6
2025-09-30T06:10	10	5	0.1	5	5	338	0.2	338	339	7.4	97.6
2025-09-30T06:11	10	5	0.1	5	5	339	0.2	338	339	7.3	97.4
2025-09-30T06:12	10	5	0.1	5	6	339	0.3	338	339	7.3	97.3
2025-09-30T06:13	10	5	0.1	5	6	339	0.2	338	339	7.4	97.3
2025-09-30T06:14	10	6	0.1	5	6	339	0.3	339	339	7.3	97.6
2025-09-30T06:15	10	6	0.2	6	6	339	0.2	339	340	7.4	97.4
2025-09-30T06:16	10	6	0.1	6	7	339	0.2	339	340	7.5	97.4
2025-09-30T06:17	10	7	0.1	6	7	340	0.2	340	341	7.5	97.4
2025-09-30T06:18	10	7	0.1	7	7	340	0.2	340	341	7.5	97.3
2025-09-30T06:19	10	7	0.2	7	8	341	0.2	340	341	7.6	97.3
2025-09-30T06:20	10	8	0.1	8	8	341	0.2	340	341	7.6	97.2
2025-09-30T06:21	10	8	0.1	8	8	341	0.2	341	342	7.5	97.3
2025-09-30T06:22	10	8	0.1	8	8	341	0.2	341	342	7.5	97.6
2025-09-30T06:23	10	8	0.1	8	9	342	0.3	341	342	7.5	97.7
2025-09-30T06:24	10	8	0.1	8	8	342	0.2	342	342	7.3	96.7
2025-09-30T06:25	10	8	0.1	8	9	343	0.3	342	344	7.4	96.9
2025-09-30T06:26	10	9	0.1	8	9	344	0.3	343	344	7.4	96.9
2025-09-30T06:27	10	9	0.2	9	9	344	0.3	344	345	7.4	96.6
2025-09-30T06:28	10	9	0.2	9	10	345	0.2	344	345	7.4	96.8
2025-09-30T06:29	10	10	0.1	9	10	345	0.3	345	346	7.4	96.8
2025-09-30T06:30	10	10	0.1	10	10	346	0.3	345	347	7.4	97.0
2025-09-30T06:31	10	10	0.1	9	10	346	0.2	346	347	7.5	97.0
2025-09-30T06:32	10	9	0.2	9	9	347	0.2	346	347	7.5	97.1
2025-09-30T06:33	10	9	0.1	9	9	347	0.2	347	347	7.5	97.1
2025-09-30T06:34	10	9	0.1	9	9	347	0.2	347	348	7.6	96.8
2025-09-30T06:35	10	9	0.1	9	9	347	0.2	346	347	7.5	96.7
2025-09-30T06:36	10	9	0.1	9	9	347	0.2	347	348	7.5	96.6
2025-09-30T06:37	10	9	0.1	9	9	348	0.3	347	348	7.5	96.1
2025-09-30T06:38	10	9	0.1	9	9	348	0.2	348	348	7.5	96.0
2025-09-30T06:39	10	9	0.3	9	10	348	0.2	348	349	7.5	95.9
2025-09-30T06:40	10	10	0.2	10	11	349	0.2	348	349	7.5	96.2
2025-09-30T06:41	10	10	0.1	10	11	349	0.3	348	350	7.5	96.0
2025-09-30T06:42	10	10	0.1	10	10	350	0.3	349	350	7.5	95.8
2025-09-30T06:43	10	9	0.3	9	10	350	0.2	350	351	7.5	95.9
2025-09-30T06:44	10	9	0.1	9	9	350	0.3	350	351	7.5	96.1
2025-09-30T06:45	10	9	0.1	9	9	351	0.2	350	351	7.5	96.2
2025-09-30T06:46	10	9	0.2	9	10	351	0.2	350	351	7.5	96.5
2025-09-30T06:47	10	10	0.2	10	10	351	0.3	350	352	7.4	96.4
2025-09-30T06:48	10	11	0.3	10	11	351	0.2	351	352	7.4	96.4
2025-09-30T06:49	10	12	0.4	11	13	352	0.2	351	352	7.4	96.2
2025-09-30T06:50	10	14	0.7	13	15	352	0.3	351	353	7.4	96.2
2025-09-30T06:51	10	16	0.7	15	18	352	0.3	352	353	7.5	96.4
2025-09-30T06:52	10	19	0.6	18	20	353	0.3	353	354	7.5	96.6
2025-09-30T06:53	10	21	0.5	20	21	354	0.3	353	354	7.5	96.8
2025-09-30T06:54	10	21	0.3	21	22	354	0.2	354	355	7.5	96.5
2025-09-30T06:55	10	23	0.6	22	24	355	0.2	354	355	7.5	96.3
2025-09-30T06:56	10	24	0.5	24	25	356	0.4	355	356	7.6	96.3
2025-09-30T06:57	10	26	0.7	25	28	356	0.3	355	357	7.5	96.2
2025-09-30T06:58	10	30	2.1	27	35	357	0.3	356	357	7.5	95.5
2025-09-30T06:59	10	35	0.7	34	37	357	0.3	357	358	7.5	95.0
2025-09-30T07:00	10	32	0.7	31	34	358	0.2	358	359	7.6	94.8
2025-09-30T07:01	10	43	8.8	31	55	359	0.8	357	360	7.6	94.9
2025-09-30T07:02	10	58	1.0	55	59	360	0.5	359	361	7.6	94.3
2025-09-30T07:03	10	45	8.0	36	58	361	0.3	361	362	7.8	94.7
2025-09-30T07:04	10	34	0.5	34	36	361	0.4	360	362	7.7	94.6
2025-09-30T07:05	10	36	0.6	35	37	360	0.2	360	361	7.8	94.3
2025-09-30T07:06	10	39	1.5	37	42	361	0.2	360	361	7.8	94.4
2025-09-30T07:07	10	50	3.5	42	54	362	0.6	361	363	7.9	94.6
2025-09-30T07:08	10	42	2.7	41	50	362	0.4	361	363	7.9	94.4
2025-09-30T07:09	10	41	0.1	40	41	362	0.4	361	363	7.9	93.9
2025-09-30T07:10	10	40	0.2	40	40	362	0.2	361	362	7.9	93.9
2025-09-30T07:11	10	40	0.5	40	42	362	0.3	361	362	8.0	94.4
2025-09-30T07:12	10	44	1.0	43	47	362	0.2	361	362	7.9	93.7
2025-09-30T07:13	10	44	1.8	42	47	362	0.2	362	363	8.1	94.2
2025-09-30T07:14	10	51	5.6	42	64	363	0.4	362	364	8.1	94.4
2025-09-30T07:15	10	71	4.0	64	77	364	0.7	363	365	8.1	93.7
2025-09-30T07:16	10	76	1.1	72	77	366	0.4	365	366	8.1	93.5
2025-09-30T07:17	10	66	1.8	64	72	366	0.3	366	367	8.1	93.3
2025-09-30T07:18	10	60	2.2	58	64	366	0.2	366	366	8.2	93.7
2025-09-30T07:19	10	71	4.0	60	76	367	0.4	366	368	8.3	93.8
2025-09-30T07:20	10	69	1.8	67	72	368	0.3	367	368	8.4	93.4
2025-09-30T07:21	10	73	2.1	70	76	368	0.2	368	369	8.5	94.0
2025-09-30T07:22	10	79	1.5	76	80	368	0.2	368	369	8.4	93.2
2025-09-30T07:23	10	80	0.1	79	80	369	0.3	368	370	8.5	92.8
2025-09-30T07:24	10	79	1.0	76	80	369	0.2	369	370	8.6	93.0
2025-09-30T07:25	10	71	2.5	68	76	369	0.3	368	370	8.8	93.8
2025-09-30T07:26	10	65	3.5	56	69	368	0.4	368	369	8.9	93.8
2025-09-30T07:27	10	43	6.2	33	56	368	0.8	366	369	9.0	93.8
2025-09-30T07:28	10	31	1.9	28	35	365	1.0	364	368	9.0	94.0
2025-09-30T07:29	10	44	3.8	35	49	364	0.2	364	365	9.0	93.5
2025-09-30T07:30	10	43	4.4	36	49	364	0.5	364	365	9.0	92.9
2025-09-30T07:31	10	36	3.3	34	45	364	0.3	363	364	9.0	92.8
2025-09-30T07:32	10	60	7.0	46	69	365	1.1	364	367	9.0	92.9
2025-09-30T07:33	10	71	1.1	68	72	367	0.5	366	368	9.3	93.3
2025-09-30T07:34	10	71	1.4	69	72	368	0.3	368	369	9.3	93.6
2025-09-30T07:35	10	65	2.2	62	69	368	0.3	368	369	9.2	91.7
2025-09-30T07:36	10	66	3.5	61	71	369	0.3	368	369	9.2	93.2
2025-09-30T07:37	10	43	11.1	33	68	368	1.3	366	370	9.2	93.2
2025-09-30T07:38	10	36	1.8	33	39	366	0.6	364	367	9.2	93.2
2025-09-30T07:39	10	42	2.0	38	45	365	0.3	365	366	9.2	93.2
2025-09-30T07:40	10	47	1.1	45	48	366	0.4	365	367	9.2	93.2
2025-09-30T07:41	10	50	1.8	48	53	367	0.3	366	367	9.2	93.2
2025-09-30T07:42	10	58	4.1	52	67	367	0.4	366	368	9.3	93.0
2025-09-30T07:43	10	71	1.5	67	74	369	1.0	367	371	9.4	92.6
2025-09-30T07:44	10	76	1.1	74	77	370	0.3	370	371	9.5	93.2
2025-09-30T07:45	10	77	0.6	76	78	371	0.3	370	372	9.4	92.7
2025-09-30T07:46	10	75	0.5	74	76	372	0.3	371	372	9.6	93.3
2025-09-30T07:47	10	75	1.0	74	77	372	0.2	371	372	9.6	93.7
2025-09-30T07:48	10	76	1.4	75	79	372	0.3	372	373	9.7	93.2
2025-09-30T07:49	10	78	0.5	77	79	373	0.2	372	373	9.7	92.9
2025-09-30T07:50	10	81	2.5	77	85	373	0.2	372	373	9.7	91.9
2025-09-30T07:51	10	85	0.6	84	85	374	0.3	373	374	9.8	91.8
2025-09-30T07:52	10	84	0.7	82	85	374	0.2	374	374	9.9	91.3
2025-09-30T07:53	10	84	1.3	82	86	375	0.2	374	375	9.9	90.9
2025-09-30T07:54	10	86	1.8	83	88	375	0.2	375	376	10.1	90.8
2025-09-30T07:55	10	85	2.8	78	88	376	0.3	375	376	10.5	88.1
2025-09-30T07:56	10	80	3.9	75	87	376	0.3	375	376	10.4	89.0
2025-09-30T07:57	10	89	1.2	86	91	377	0.3	376	378	10.3	90.4
2025-09-30T07:58	10	91	0.7	90	92	377	0.7	376	378	10.0	91.2
2025-09-30T07:59	10	90	0.2	90	91	377	0.3	376	377	9.8	90.6
2025-09-30T08:00	10	90	0.4	89	91	376	0.4	375	377	9.8	90.7
2025-09-30T08:01	10	90	0.3	89	90	376	0.2	376	377	9.8	90.5
2025-09-30T08:02	10	88	1.4	86	91	377	0.2	376	377	9.8	90.9
2025-09-30T08:03	10	86	0.7	85	87	376	0.5	376	377	9.8	91.4
2025-09-30T08:04	10	89	1.5	87	91	376	0.2	376	377	9.7	90.6
2025-09-30T08:05	10	89	1.4	87	91	377	0.2	376	378	9.8	90.9
2025-09-30T08:06	10	94	2.4	90	98	377	0.4	377	378	9.8	90.4
2025-09-30T08:07	10	98	0.2	97	98	379	0.4	378	379	9.9	90.6
2025-09-30T08:08	10	95	2.4	90	98	380	0.4	379	380	10.1	91.2
2025-09-30T08:09	10	85	1.8	83	90	379	0.7	378	380	10.0	89.4
2025-09-30T08:10	10	87	2.1	85	90	378	0.3	378	379	9.9	88.6
2025-09-30T08:11	10	86	3.3	81	92	379	0.2	378	379	10.0	89.0
2025-09-30T08:12	10	93	2.2	91	97	380	0.4	379	381	10.1	88.8
2025-09-30T08:13	10	92	5.0	85	100	380	0.3	380	381	10.1	88.7
2025-09-30T08:14	10	77	9.7	64	89	380	0.9	378	382	10.2	89.2
2025-09-30T08:15	10	86	9.3	71	96	380	0.7	379	381	10.3	89.9
2025-09-30T08:16	10	94	1.2	92	96	381	0.4	380	382	10.3	89.0
2025-09-30T08:17	10	86	5.1	78	91	381	0.3	380	382	10.4	88.9
2025-09-30T08:18	10	73	7.5	62	91	380	0.5	379	381	10.3	88.0
2025-09-30T08:19	10	93	2.2	90	96	381	0.2	380	381	10.5	88.9
2025-09-30T08:20	10	88	2.8	82	91	381	0.2	381	382	10.4	88.2
2025-09-30T08:21	10	81	1.7	77	83	381	0.2	381	381	10.4	88.3
2025-09-30T08:22	10	69	2.7	65	76	380	0.7	379	381	10.4	87.9
2025-09-30T08:23	10	74	3.7	67	78	380	0.3	379	380	10.4	88.4
2025-09-30T08:24	10	70	1.9	67	73	379	0.2	379	380	10.4	89.0
2025-09-30T08:25	10	78	8.0	69	91	379	0.2	378	380	10.4	89.2
2025-09-30T08:26	10	95	2.9	91	99	380	0.7	379	381	10.2	88.4
2025-09-30T08:27	10	105	7.7	92	113	382	1.1	380	384	10.3	88.8
2025-09-30T08:28	10	108	3.9	100	112	384	0.7	382	385	10.4	89.3
2025-09-30T08:29	10	99	2.2	96	104	382	0.3	382	383	10.2	88.8
2025-09-30T08:30	10	112	3.2	104	115	384	0.9	382	385	10.3	89.4
2025-09-30T08:31	10	117	0.9	115	118	385	0.3	384	386	10.3	89.3
2025-09-30T08:32	10	117	0.7	116	118	386	0.5	385	387	10.4	89.8
2025-09-30T08:33	10	115	1.6	112	117	387	0.6	385	387	10.4	89.8
2025-09-30T08:34	10	109	3.2	99	112	385	0.6	384	386	10.3	89.4
2025-09-30T08:35	10	87	5.3	82	99	384	0.5	383	385	10.4	90.1
2025-09-30T08:36	10	94	7.2	83	103	384	0.3	383	384	10.5	90.1
2025-09-30T08:37	10	105	3.6	102	112	385	0.4	384	385	10.4	89.3
2025-09-30T08:38	10	110	1.5	108	112	385	0.4	385	386	10.4	89.8
2025-09-30T08:39	10	103	4.7	97	110	386	0.9	384	387	10.5	89.8
2025-09-30T08:40	10	80	11.5	60	99	384	1.2	381	386	10.5	89.4
2025-09-30T08:41	10	53	2.0	51	59	380	1.2	379	383	10.5	89.5
2025-09-30T08:42	10	66	8.6	51	75	379	0.3	379	380	10.5	89.3
2025-09-30T08:43	10	83	5.6	74	90	380	0.5	379	381	10.4	88.7
2025-09-30T08:44	10	84	3.0	76	89	381	0.4	380	382	10.4	88.6
2025-09-30T08:45	10	68	3.4	63	76	381	0.6	380	382	10.5	89.3
2025-09-30T08:46	10	70	8.5	62	86	379	0.5	378	380	10.4	88.8
2025-09-30T08:47	10	92	2.0	86	95	382	0.9	380	384	10.5	89.2
2025-09-30T08:48	10	94	1.6	91	99	383	0.3	383	384	10.6	89.7
2025-09-30T08:49	10	103	3.0	98	107	384	0.5	383	385	10.6	89.3
2025-09-30T08:50	10	95	2.0	92	98	385	0.2	384	385	10.8	89.6
2025-09-30T08:51	10	101	3.0	98	107	386	0.6	385	387	10.8	89.3
2025-09-30T08:52	10	106	1.8	104	109	387	0.3	386	388	10.9	88.9
2025-09-30T08:53	10	115	1.8	109	116	387	0.3	386	387	10.7	87.9
2025-09-30T08:54	10	117	0.5	116	118	389	0.8	387	390	11.0	89.5
2025-09-30T08:55	10	117	0.7	116	118	390	0.3	389	390	11.0	88.4
2025-09-30T08:56	10	118	0.3	118	119	391	0.5	390	392	11.1	88.3
2025-09-30T08:57	10	118	0.7	118	120	392	0.2	391	392	11.1	88.2
2025-09-30T08:58	10	121	0.6	120	121	391	0.4	391	392	11.0	87.6
2025-09-30T08:59	10	122	0.3	121	123	391	0.3	391	392	10.9	87.9
2025-09-30T09:00	10	121	0.3	121	122	391	0.3	391	392	10.9	87.6
2025-09-30T09:01	10	122	0.2	122	122	392	0.3	392	393	10.9	87.7
2025-09-30T09:02	10	118	3.3	111	122	393	0.4	392	393	11.0	87.6
2025-09-30T09:03	10	90	15.1	69	111	391	1.6	388	393	11.1	86.9
2025-09-30T09:04	10	65	7.0	54	73	388	1.0	385	389	11.3	85.8
2025-09-30T09:05	10	53	2.6	49	57	385	1.0	383	387	11.4	86.3
2025-09-30T09:06	10	49	0.5	48	50	383	0.7	382	384	11.3	85.7
2025-09-30T09:07	10	57	10.9	48	90	382	0.4	382	384	11.3	85.6
2025-09-30T09:08	10	108	15.1	78	122	387	2.1	383	389	11.3	85.6
2025-09-30T09:09	10	87	2.5	80	91	388	0.3	387	389	11.4	86.1
2025-09-30T09:10	10	73	5.1	67	87	388	0.6	387	389	11.6	86.2
2025-09-30T09:11	10	64	3.2	60	71	387	0.6	385	388	11.6	85.8
2025-09-30T09:12	10	62	2.5	59	69	385	0.3	385	386	11.6	85.2
2025-09-30T09:13	10	93	14.8	69	121	387	1.6	384	390	11.7	84.9
2025-09-30T09:14	10	118	11.9	91	132	391	1.0	389	393	11.8	84.1
2025-09-30T09:15	10	78	3.6	75	90	390	0.9	389	392	11.9	83.9
2025-09-30T09:16	10	89	7.7	80	104	391	0.5	389	391	12.1	85.7
2025-09-30T09:17	10	93	6.1	80	104	392	0.4	391	392	11.9	86.2
2025-09-30T09:18	10	69	4.8	64	81	390	1.4	388	392	11.8	86.6
2025-09-30T09:19	10	88	22.7	67	136	389	1.3	388	392	11.6	87.8
2025-09-30T09:20	10	91	32.0	59	137	391	2.1	387	393	11.4	87.6
2025-09-30T09:21	10	80	12.7	60	97	388	0.8	387	390	11.4	88.0
2025-09-30T09:22	10	90	14.8	69	115	389	1.5	387	392	11.4	88.7
2025-09-30T09:23	10	93	11.8	79	114	388	0.7	387	389	11.3	88.3
2025-09-30T09:24	10	108	4.7	95	115	390	0.7	389	391	11.3	88.5
2025-09-30T09:25	10	92	7.5	80	103	390	0.5	389	391	11.4	89.0
2025-09-30T09:26	10	94	10.1	83	112	390	0.6	389	392	11.5	88.6
2025-09-30T09:27	10	101	20.5	69	130	391	1.5	388	393	11.4	88.1
2025-09-30T09:28	10	82	10.9	68	107	389	0.5	388	390	11.4	88.1
2025-09-30T09:29	10	122	12.0	88	139	393	1.5	389	395	11.5	88.5
2025-09-30T09:30	10	52	10.4	42	85	388	3.3	384	395	11.4	88.6
2025-09-30T09:31	10	44	2.0	42	50	383	1.1	382	385	11.4	88.5
2025-09-30T09:32	10	50	2.1	45	53	382	0.4	382	383	11.4	88.8
2025-09-30T09:33	10	55	1.2	53	57	384	0.5	383	385	11.4	88.8
2025-09-30T09:34	10	60	1.8	57	64	385	0.6	384	386	11.6	89.2
2025-09-30T09:35	10	97	32.9	64	153	387	2.7	385	394	11.7	88.7
2025-09-30T09:36	10	162	4.0	153	167	396	2.6	391	399	11.8	88.5
2025-09-30T09:37	10	165	7.8	152	178	400	1.7	398	403	11.6	88.6
2025-09-30T09:38	10	171	6.6	160	179	404	1.0	402	406	11.6	88.0
2025-09-30T09:39	10	168	5.7	157	176	407	0.6	405	408	11.9	88.1
2025-09-30T09:40	10	171	10.5	134	180	408	0.7	407	409	11.9	86.9
2025-09-30T09:41	10	144	14.6	129	168	405	0.8	404	407	11.8	86.8
2025-09-30T09:42	10	123	8.4	109	141	402	1.6	400	406	11.7	86.8
2025-09-30T09:43	10	103	8.3	91	115	400	1.4	398	402	11.9	87.8
2025-09-30T09:44	10	93	4.4	87	101	398	0.9	396	399	12.0	87.0
2025-09-30T09:45	10	90	2.0	87	93	396	0.4	395	397	11.9	86.7
2025-09-30T09:46	10	90	2.8	87	96	396	0.3	395	397	12.0	86.6
2025-09-30T09:47	10	93	5.8	86	104	397	0.3	396	398	12.0	86.5
2025-09-30T09:48	10	85	2.5	81	90	396	0.5	395	398	12.1	86.2
2025-09-30T09:49	10	88	1.6	85	92	396	0.3	396	397	12.4	85.9
2025-09-30T09:50	10	98	4.7	92	106	398	0.7	397	399	12.5	85.4
2025-09-30T09:51	10	105	2.2	102	110	400	0.5	399	401	12.7	85.4
2025-09-30T09:52	10	108	1.3	106	110	401	0.4	400	401	12.6	84.7
2025-09-30T09:53	10	111	2.9	106	115	401	0.6	400	402	12.4	84.8
2025-09-30T09:54	10	111	0.7	109	112	400	0.4	400	402	12.3	85.5
2025-09-30T09:55	10	114	2.1	112	118	401	0.3	400	401	12.2	85.3
2025-09-30T09:56	10	117	2.1	114	122	401	0.4	401	402	12.2	84.4
2025-09-30T09:57	10	113	7.0	104	124	403	0.3	402	403	12.4	84.7
2025-09-30T09:58	10	101	1.2	99	104	400	1.3	399	403	12.4	84.3
2025-09-30T09:59	10	103	1.4	101	106	399	0.2	399	400	12.2	83.5
2025-09-30T10:00	10	100	4.1	94	106	401	0.3	400	401	12.4	85.0
2025-09-30T10:01	10	97	1.2	94	98	399	1.0	397	401	12.3	84.0
2025-09-30T10:02	10	96	0.6	95	97	398	0.3	398	399	12.3	84.1
2025-09-30T10:03	10	97	0.9	96	99	398	0.3	397	399	12.2	84.4
2025-09-30T10:04	10	99	0.5	98	100	398	0.2	397	398	12.4	85.0
2025-09-30T10:05	10	97	1.2	95	98	396	0.9	395	398	12.3	83.6
2025-09-30T10:06	10	96	0.3	95	96	396	0.3	395	396	12.3	84.5
2025-09-30T10:07	10	95	0.6	94	96	396	0.3	395	396	12.2	84.9
2025-09-30T10:08	10	94	0.6	93	95	397	0.5	396	397	12.3	85.2
2025-09-30T10:09	10	93	0.5	92	94	397	0.4	396	398	12.4	85.3
2025-09-30T10:10	10	93	0.9	92	95	396	0.3	395	397	12.2	84.1
2025-09-30T10:11	10	89	1.2	87	92	396	0.3	395	396	12.2	84.4
2025-09-30T10:12	10	87	0.2	87	88	397	0.3	396	397	12.4	84.9
2025-09-30T10:13	10	87	0.2	87	88	397	0.4	396	398	12.6	84.8
2025-09-30T10:14	10	89	1.5	87	91	395	0.7	394	397	12.4	83.1
2025-09-30T10:15	10	94	1.4	91	97	395	0.5	394	396	12.3	83.3
2025-09-30T10:16	10	91	0.8	90	94	396	0.3	396	397	12.3	83.5
2025-09-30T10:17	10	89	0.6	88	91	396	0.7	395	397	12.5	82.9
2025-09-30T10:18	10	90	1.0	89	92	396	0.2	395	396	12.5	81.6
2025-09-30T10:19	10	92	1.2	91	96	396	0.5	395	396	12.6	82.6
2025-09-30T10:20	10	94	0.9	92	95	395	0.3	395	396	12.5	81.2
2025-09-30T10:21	10	95	0.7	94	96	395	0.2	395	395	12.4	81.1
2025-09-30T10:22	10	98	2.5	95	103	397	1.0	395	398	12.5	83.2
2025-09-30T10:23	10	103	1.9	99	106	397	0.3	396	398	12.6	82.5
2025-09-30T10:24	10	101	2.7	97	105	397	0.5	396	399	12.6	82.4
2025-09-30T10:25	10	95	1.5	93	99	398	0.5	397	399	12.7	82.0
2025-09-30T10:26	10	92	2.5	87	95	396	1.1	395	398	12.8	82.1
2025-09-30T10:27	10	92	1.7	88	95	396	0.5	395	396	12.7	82.4
2025-09-30T10:28	10	89	2.9	86	95	394	0.3	394	395	12.5	82.7
2025-09-30T10:29	10	97	16.2	85	137	395	1.1	394	398	12.6	83.3
2025-09-30T10:30	10	112	10.8	97	129	398	1.4	396	400	12.5	82.8
2025-09-30T10:31	10	122	10.0	105	141	402	1.5	399	404	12.6	83.6
2025-09-30T10:32	10	127	17.1	103	159	403	1.7	400	406	12.7	83.6
2025-09-30T10:33	10	131	4.0	124	141	403	0.8	402	405	12.9	83.7
2025-09-30T10:34	10	133	5.2	125	141	404	0.4	403	405	12.8	83.8
2025-09-30T10:35	10	131	2.8	127	135	404	0.4	402	404	12.8	84.2
2025-09-30T10:36	10	122	4.3	114	132	404	0.7	403	405	12.8	83.5
2025-09-30T10:37	10	129	2.8	125	135	406	0.5	405	407	12.9	83.6
2025-09-30T10:38	10	129	2.5	124	132	406	1.1	404	408	13.0	84.1
2025-09-30T10:39	10	117	5.3	112	132	405	2.1	402	408	13.0	83.7
2025-09-30T10:40	10	115	3.7	109	121	402	0.4	401	403	12.8	84.0
2025-09-30T10:41	10	118	5.9	110	130	402	0.2	402	403	12.9	83.3
2025-09-30T10:42	10	147	11.0	130	162	405	2.2	402	409	12.8	82.8
2025-09-30T10:43	10	163	6.6	147	169	412	1.7	408	414	13.1	83.0
2025-09-30T10:44	10	162	9.7	147	174	412	0.6	411	413	13.1	82.1
2025-09-30T10:45	10	158	3.4	154	166	411	0.6	410	413	12.9	81.3
2025-09-30T10:46	10	158	3.6	153	163	412	1.1	410	413	12.9	81.6
2025-09-30T10:47	10	160	1.6	157	163	413	0.6	412	414	13.0	81.6
2025-09-30T10:48	10	159	0.7	157	160	415	0.7	414	417	13.3	81.4
2025-09-30T10:49	10	151	2.8	147	157	415	1.1	413	417	13.5	80.6
2025-09-30T10:50	10	159	1.2	156	161	415	0.7	414	416	13.3	79.7
2025-09-30T10:51	10	155	2.6	150	158	414	1.4	412	417	13.1	80.2
2025-09-30T10:52	10	147	1.3	144	151	412	0.8	410	413	13.1	80.5
2025-09-30T10:53	10	148	3.7	141	151	412	0.9	411	413	13.1	80.6
2025-09-30T10:54	10	147	1.6	144	149	413	1.3	410	414	13.3	81.0
2025-09-30T10:55	10	148	1.0	146	149	412	0.5	410	413	13.2	80.5
2025-09-30T10:56	10	145	2.0	139	147	411	0.8	410	412	13.2	80.5
2025-09-30T10:57	10	141	1.5	139	144	411	1.6	408	413	13.3	80.2
2025-09-30T10:58	10	132	5.5	120	142	408	1.0	406	410	13.2	80.3
2025-09-30T10:59	10	116	1.2	114	119	407	0.4	406	408	13.2	79.9
2025-09-30T11:00	10	115	6.1	102	121	408	0.6	407	408	13.4	80.3
2025-09-30T11:01	10	105	4.2	98	109	407	0.4	407	408	13.6	79.1
2025-09-30T11:02	10	124	11.9	108	144	409	0.9	407	410	13.7	79.2
2025-09-30T11:03	10	146	1.2	143	148	410	1.1	409	412	13.5	78.7
2025-09-30T11:04	10	149	0.4	148	149	413	0.6	411	414	13.9	79.2
2025-09-30T11:05	10	149	0.6	148	150	413	1.0	411	414	13.9	77.9
2025-09-30T11:06	10	150	2.0	146	153	412	1.0	411	414	13.7	78.5
2025-09-30T11:07	10	140	5.5	133	149	412	0.5	411	413	13.7	78.0
2025-09-30T11:08	10	148	2.3	143	153	414	1.1	411	415	13.7	77.5
2025-09-30T11:09	10	141	4.4	136	152	412	0.9	411	415	13.7	77.3
2025-09-30T11:10	10	150	3.9	144	157	411	0.4	411	412	13.8	77.4
2025-09-30T11:11	10	144	7.3	134	158	411	0.7	410	412	13.8	76.5
2025-09-30T11:12	10	144	5.3	136	152	411	0.5	410	412	13.7	75.4
2025-09-30T11:13	10	157	6.4	140	164	413	1.5	410	415	13.5	76.6
2025-09-30T11:14	10	154	28.0	99	189	416	1.7	413	418	13.6	76.3
2025-09-30T11:15	10	113	11.2	95	132	413	0.8	412	415	13.8	76.8
2025-09-30T11:16	10	149	10.8	127	170	412	0.7	411	414	13.8	76.3
2025-09-30T11:17	10	147	7.7	137	164	412	0.6	411	413	13.8	77.1
2025-09-30T11:18	10	135	10.2	122	153	411	0.3	410	412	13.7	76.4
2025-09-30T11:19	10	144	10.1	129	162	411	0.6	410	412	13.7	76.7
2025-09-30T11:20	10	148	7.2	138	161	412	0.6	411	414	13.6	77.0
2025-09-30T11:21	10	145	5.7	138	157	414	0.4	413	415	13.7	77.7
2025-09-30T11:22	10	163	16.6	137	182	416	2.5	413	420	13.9	77.8
2025-09-30T11:23	10	161	10.2	147	182	417	0.9	416	419	14.3	76.5
2025-09-30T11:24	10	172	8.3	162	188	417	0.8	416	419	14.1	75.7
2025-09-30T11:25	10	158	4.1	150	165	417	0.3	416	418	13.8	74.9
2025-09-30T11:26	10	154	3.7	145	164	418	1.0	416	419	13.9	75.5
2025-09-30T11:27	10	141	10.7	127	161	414	1.8	411	417	13.9	75.7
2025-09-30T11:28	10	147	12.5	125	171	415	1.0	413	417	14.0	76.2
2025-09-30T11:29	10	141	12.9	124	171	416	0.8	415	418	14.2	75.7
2025-09-30T11:30	10	149	13.7	134	182	416	0.7	414	417	14.4	75.8
2025-09-30T11:31	10	155	10.0	138	173	419	1.2	416	421	14.5	75.8
2025-09-30T11:32	10	150	9.7	138	177	416	0.9	415	418	14.3	73.8
2025-09-30T11:33	10	168	24.9	140	219	419	2.6	416	424	14.2	73.1
2025-09-30T11:34	10	172	9.3	161	189	420	1.1	418	422	13.9	74.0
2025-09-30T11:35	10	160	8.1	143	171	421	0.5	420	422	14.2	74.8
2025-09-30T11:36	10	165	6.6	154	178	420	1.2	418	422	14.5	74.3
2025-09-30T11:37	10	164	23.0	120	189	421	1.8	416	423	14.4	74.2
2025-09-30T11:38	10	119	8.6	110	139	414	3.2	409	419	14.5	73.8
2025-09-30T11:39	10	125	7.9	111	135	412	0.9	410	413	14.1	74.1
2025-09-30T11:40	10	133	6.3	125	144	415	1.3	413	417	14.5	75.3
2025-09-30T11:41	10	129	6.0	120	141	415	0.4	414	416	14.5	74.4
2025-09-30T11:42	10	123	8.9	105	134	412	1.0	410	414	14.3	73.9
2025-09-30T11:43	10	120	10.3	105	136	411	1.0	409	413	14.1	73.9
2025-09-30T11:44	10	119	10.3	109	142	413	1.3	412	416	14.4	74.7
2025-09-30T11:45	10	118	6.6	110	132	415	1.0	414	417	14.6	75.4
2025-09-30T11:46	10	126	5.0	117	136	413	0.5	412	414	14.6	74.7
2025-09-30T11:47	10	123	9.6	113	147	412	0.6	411	413	14.5	73.6
2025-09-30T11:48	10	125	8.3	113	144	412	0.7	411	414	14.6	73.6
2025-09-30T11:49	10	116	6.2	104	125	410	0.9	409	412	14.5	71.9
2025-09-30T11:50	10	106	3.8	103	115	409	0.5	408	410	14.4	72.5
2025-09-30T11:51	10	117	5.6	108	126	410	0.9	409	412	14.4	72.8
2025-09-30T11:52	10	124	3.9	118	133	413	1.0	411	415	14.9	73.5
2025-09-30T11:53	10	122	3.1	116	127	415	0.7	414	416	15.1	72.6
2025-09-30T11:54	10	116	3.4	112	122	414	0.3	413	415	15.0	71.6
2025-09-30T11:55	10	111	2.7	107	116	414	0.7	412	415	15.0	72.4
2025-09-30T11:56	10	109	4.7	105	119	412	1.5	409	414	15.0	71.7
2025-09-30T11:57	10	110	3.9	104	118	409	0.4	408	410	14.7	70.9
2025-09-30T11:58	10	109	3.6	105	121	409	0.3	408	409	14.6	72.0
2025-09-30T11:59	10	113	3.3	107	121	410	0.8	409	412	14.9	72.7
2025-09-30T12:00	10	118	9.0	108	133	411	0.6	410	412	14.8	71.8
2025-09-30T12:01	10	109	2.8	104	113	408	1.7	405	411	14.7	72.4
2025-09-30T12:02	10	107	1.6	104	110	407	0.5	406	409	14.7	71.2
2025-09-30T12:03	10	106	1.1	104	108	408	0.3	407	409	14.7	70.5
2025-09-30T12:04	10	112	5.4	106	124	407	0.6	406	408	14.7	69.1
2025-09-30T12:05	10	116	2.7	111	120	408	0.3	407	408	14.6	69.3
2025-09-30T12:06	10	125	8.0	115	150	410	1.7	407	413	14.7	70.2
2025-09-30T12:07	10	131	9.9	122	158	413	0.4	412	414	15.0	71.5
2025-09-30T12:08	10	122	1.8	119	126	414	0.8	413	415	15.0	70.8
2025-09-30T12:09	10	116	1.9	114	122	414	0.6	413	416	15.1	71.6
2025-09-30T12:10	10	116	1.3	114	118	415	0.5	414	416	15.2	71.9
2025-09-30T12:11	10	123	7.4	117	139	413	0.4	413	414	15.2	71.9
2025-09-30T12:12	10	126	1.0	125	130	413	0.3	413	414	15.1	72.5
2025-09-30T12:13	10	124	1.7	121	128	411	0.9	410	413	14.7	72.2
2025-09-30T12:14	10	125	5.6	118	136	412	0.8	410	414	14.9	73.0
2025-09-30T12:15	10	127	2.3	120	129	412	0.6	411	413	14.9	71.8
2025-09-30T12:16	10	126	2.4	124	134	413	0.4	412	414	15.1	71.2
2025-09-30T12:17	10	128	3.0	124	134	412	0.3	411	413	15.1	71.0
2025-09-30T12:18	10	114	7.5	105	131	413	0.2	412	413	15.3	72.1
2025-09-30T12:19	10	100	1.6	98	104	411	1.4	409	414	15.3	71.2
2025-09-30T12:20	10	96	0.9	95	98	409	1.1	407	411	15.1	71.8
2025-09-30T12:21	10	110	13.1	98	139	409	1.9	407	413	15.1	71.8
2025-09-30T12:22	10	103	3.3	98	111	412	0.7	411	413	15.2	72.3
2025-09-30T12:23	10	104	16.3	87	129	411	1.4	408	413	15.3	70.7
2025-09-30T12:24	10	71	7.2	64	90	406	2.7	401	410	15.1	71.1
2025-09-30T12:25	10	79	15.8	64	105	402	1.1	401	404	14.9	71.3
2025-09-30T12:26	10	130	23.1	95	168	408	3.3	403	413	15.1	71.9
2025-09-30T12:27	10	143	16.5	121	173	412	0.6	411	413	15.0	69.8
2025-09-30T12:28	10	130	10.1	119	152	413	1.1	411	414	15.2	70.9
2025-09-30T12:29	10	142	8.5	120	155	415	0.9	414	417	15.5	69.9
2025-09-30T12:30	10	137	7.9	123	150	415	0.6	413	416	15.4	68.6
2025-09-30T12:31	10	153	2.3	149	158	416	0.5	415	417	15.3	68.7
2025-09-30T12:32	10	147	3.5	141	153	416	0.8	416	418	15.2	68.7
2025-09-30T12:33	10	151	0.7	150	153	416	0.4	415	417	15.1	69.1
2025-09-30T12:34	10	149	0.3	149	150	415	0.5	415	416	15.2	69.5
2025-09-30T12:35	10	149	0.1	148	149	416	0.6	414	416	15.2	69.1
2025-09-30T12:36	10	148	1.7	144	150	415	0.5	415	417	15.0	69.1
2025-09-30T12:37	10	146	0.7	145	147	418	0.8	417	420	15.3	70.2
2025-09-30T12:38	10	146	1.1	143	147	417	1.4	415	420	15.2	69.0
2025-09-30T12:39	10	139	4.1	131	145	413	1.7	410	416	14.9	69.1
2025-09-30T12:40	10	145	3.5	133	147	414	1.7	411	416	14.8	70.1
2025-09-30T12:41	10	144	2.9	137	147	417	0.8	416	418	14.9	70.1
2025-09-30T12:42	10	144	0.4	144	145	416	1.7	414	418	15.2	70.8
2025-09-30T12:43	10	144	0.2	143	144	414	0.4	413	414	15.1	70.4
2025-09-30T12:44	10	144	0.5	143	145	415	0.7	413	416	15.1	70.8
2025-09-30T12:45	10	142	2.5	136	145	415	0.7	414	417	15.4	71.1
2025-09-30T12:46	10	141	1.1	139	142	416	0.5	415	417	15.5	69.7
2025-09-30T12:47	10	141	0.2	141	141	416	0.5	415	417	15.3	68.5
2025-09-30T12:48	10	135	4.3	126	141	416	0.3	416	417	15.3	69.2
2025-09-30T12:49	10	139	2.8	131	141	417	1.4	415	420	15.3	70.4
2025-09-30T12:50	10	139	0.2	138	139	419	1.1	416	420	15.6	70.8
2025-09-30T12:51	10	139	0.2	139	139	415	0.5	414	416	15.5	69.5
2025-09-30T12:52	10	139	0.2	139	139	417	0.7	416	419	15.7	69.3
2025-09-30T12:53	10	138	0.3	138	139	415	0.6	414	416	15.5	66.9
2025-09-30T12:54	10	138	0.3	137	138	415	0.6	414	416	15.6	67.2
2025-09-30T12:55	10	137	0.2	137	138	414	0.7	412	415	15.6	67.1
2025-09-30T12:56	10	140	1.4	138	142	414	1.3	412	416	15.4	67.2
2025-09-30T12:57	10	143	0.6	142	144	417	1.1	416	420	15.5	67.6
2025-09-30T12:58	10	144	0.3	144	145	420	0.5	419	421	15.9	67.7
2025-09-30T12:59	10	146	0.7	145	147	421	0.6	420	422	16.2	67.7
2025-09-30T13:00	10	136	6.3	128	147	420	0.8	419	422	16.4	66.7
2025-09-30T13:01	10	146	0.5	145	147	421	0.2	421	421	16.1	66.3
2025-09-30T13:02	10	146	0.1	146	146	418	1.4	416	422	16.1	64.8
2025-09-30T13:03	10	144	4.5	129	147	419	1.0	418	421	15.8	65.1
2025-09-30T13:04	10	135	6.6	127	147	419	0.6	418	421	15.8	64.9
2025-09-30T13:05	10	146	0.9	145	147	419	0.6	418	420	15.7	66.7
2025-09-30T13:06	10	142	2.9	134	145	418	0.5	417	419	15.8	67.0
2025-09-30T13:07	10	138	6.5	127	144	419	0.6	417	419	16.0	66.6
2025-09-30T13:08	10	136	2.7	132	143	417	0.5	415	418	15.8	65.9
2025-09-30T13:09	10	123	4.4	117	131	415	0.6	414	416	15.8	64.8
2025-09-30T13:10	10	130	3.2	125	135	416	0.8	415	417	16.0	64.7
2025-09-30T13:11	10	136	0.5	135	137	418	0.4	417	418	15.9	65.0
2025-09-30T13:12	10	135	0.3	135	136	419	0.8	418	421	15.9	66.1
2025-09-30T13:13	10	135	0.3	134	135	419	0.9	417	420	16.0	66.0
2025-09-30T13:14	10	134	0.3	133	134	418	1.0	417	420	16.0	66.3
2025-09-30T13:15	10	133	0.3	133	134	419	0.6	419	421	16.2	66.4
2025-09-30T13:16	10	133	0.3	132	133	417	1.2	416	420	16.1	65.2
2025-09-30T13:17	10	132	0.4	131	132	418	0.6	417	419	16.1	66.0
2025-09-30T13:18	10	131	0.1	131	132	417	0.9	416	418	16.2	65.6
2025-09-30T13:19	10	131	0.1	131	131	415	0.7	414	417	16.0	65.3
2025-09-30T13:20	10	131	0.3	130	131	415	0.4	414	416	15.9	65.8
2025-09-30T13:21	10	131	0.1	131	131	417	0.7	415	418	16.1	66.6
2025-09-30T13:22	10	131	0.1	131	132	418	1.0	416	420	16.3	65.9
2025-09-30T13:23	10	131	0.2	131	131	419	0.4	419	420	16.4	66.1
2025-09-30T13:24	10	130	0.3	130	131	418	0.4	417	419	16.3	65.5
2025-09-30T13:25	10	128	0.8	127	130	418	0.6	417	419	16.3	65.1
2025-09-30T13:26	10	127	0.4	127	128	419	0.6	418	420	16.4	66.2
2025-09-30T13:27	10	129	0.1	128	129	419	0.4	418	420	16.5	65.2
2025-09-30T13:28	10	129	0.1	128	129	419	0.4	418	420	16.3	64.1
2025-09-30T13:29	10	128	0.1	128	129	421	1.0	419	423	16.5	66.6
2025-09-30T13:30	10	128	0.2	128	128	421	0.5	420	423	16.9	66.3
2025-09-30T13:31	10	127	0.4	127	128	420	1.0	418	421	16.8	65.4
2025-09-30T13:32	10	126	0.1	126	127	418	0.5	417	419	16.5	65.6
2025-09-30T13:33	10	127	0.1	127	127	419	0.4	418	420	16.9	65.2
2025-09-30T13:34	10	127	0.2	127	127	421	0.6	420	422	16.9	64.0
2025-09-30T13:35	10	127	0.2	127	127	419	0.5	418	421	16.8	63.5
2025-09-30T13:36	10	127	0.2	127	128	419	0.3	418	419	16.5	63.3
2025-09-30T13:37	10	127	0.2	126	127	418	0.5	417	419	16.6	63.9
2025-09-30T13:38	10	126	0.3	126	127	417	0.7	416	418	16.6	64.1
2025-09-30T13:39	10	125	0.3	125	126	416	0.5	415	417	16.3	64.1
2025-09-30T13:40	10	125	0.1	125	125	418	0.5	416	419	16.4	64.0
2025-09-30T13:41	10	125	0.2	125	126	419	0.7	418	421	16.7	64.5
2025-09-30T13:42	10	125	0.3	124	125	418	0.6	416	419	16.7	63.8
2025-09-30T13:43	10	125	0.2	124	125	415	0.4	414	416	16.5	63.1
2025-09-30T13:44	10	125	0.2	124	125	416	0.5	415	418	16.5	63.7
2025-09-30T13:45	10	123	5.8	98	126	418	0.7	417	419	16.8	64.4
2025-09-30T13:46	10	118	12.6	90	126	416	0.5	415	418	16.8	63.2
2025-09-30T13:47	10	125	0.2	124	125	417	1.1	415	419	16.8	63.7
2025-09-30T13:48	10	124	0.4	124	125	417	0.7	415	418	16.9	63.6
2025-09-30T13:49	10	124	0.2	123	124	416	0.9	415	418	16.7	61.9
2025-09-30T13:50	10	124	0.2	123	124	417	0.9	415	418	16.7	62.5
2025-09-30T13:51	10	124	0.4	123	125	415	0.5	414	416	16.5	62.5
2025-09-30T13:52	10	126	0.6	125	127	418	0.8	416	419	16.6	63.4
2025-09-30T13:53	10	128	0.5	127	129	418	0.4	417	419	16.5	63.1
2025-09-30T13:54	10	129	0.2	129	130	418	0.5	417	419	16.6	62.5
2025-09-30T13:55	10	129	0.3	128	129	419	0.3	419	420	16.6	62.1
2025-09-30T13:56	10	127	0.5	127	128	420	0.3	420	421	16.7	62.8
2025-09-30T13:57	10	126	0.5	125	127	419	0.9	418	420	17.0	62.9
2025-09-30T13:58	10	125	0.4	125	126	417	0.8	415	418	16.9	60.4
2025-09-30T13:59	10	126	0.4	125	127	416	0.5	416	418	16.8	61.4
2025-09-30T14:00	10	126	1.6	123	128	417	1.1	415	418	17.1	63.0
2025-09-30T14:01	10	116	10.5	101	128	415	1.1	414	417	16.9	61.5
2025-09-30T14:02	10	77	11.6	67	108	412	1.9	409	415	16.9	62.7
2025-09-30T14:03	10	75	3.4	68	79	409	1.1	407	411	17.0	61.1
2025-09-30T14:04	10	70	5.3	64	85	406	0.7	405	408	16.8	60.8
2025-09-30T14:05	10	99	8.1	85	112	409	1.6	405	411	16.6	61.0
2025-09-30T14:06	10	73	5.8	64	85	407	1.1	405	409	16.7	61.1
2025-09-30T14:07	10	92	20.0	64	118	407	1.7	406	411	16.7	61.3
2025-09-30T14:08	10	116	0.9	114	117	413	1.4	409	414	16.7	61.7
2025-09-30T14:09	10	116	0.2	115	116	414	0.4	413	414	16.9	61.1
2025-09-30T14:10	10	115	0.2	115	115	414	0.4	413	415	17.0	59.8
2025-09-30T14:11	10	114	0.1	114	115	413	0.8	411	414	17.0	60.0
2025-09-30T14:12	10	114	0.3	114	114	412	0.3	411	412	16.7	59.9
2025-09-30T14:13	10	114	0.1	113	114	412	0.4	411	413	16.8	60.6
2025-09-30T14:14	10	113	0.4	112	114	412	0.5	411	413	16.8	60.6
2025-09-30T14:15	10	112	0.2	111	112	412	0.3	411	413	16.8	60.0
2025-09-30T14:16	10	112	0.2	111	112	413	0.6	412	414	16.9	59.4
2025-09-30T14:17	10	111	0.1	111	112	412	1.0	410	414	16.9	59.8
2025-09-30T14:18	10	111	0.2	111	112	411	0.6	410	412	16.8	60.4
2025-09-30T14:19	10	111	0.1	111	111	412	0.6	411	414	17.0	60.3
2025-09-30T14:20	10	112	0.3	111	112	413	0.3	413	414	17.1	60.0
2025-09-30T14:21	10	111	0.2	111	112	412	0.4	411	413	17.1	58.8
2025-09-30T14:22	10	112	0.1	111	112	411	0.4	410	412	16.9	58.9
2025-09-30T14:23	10	112	0.1	111	112	411	0.5	410	412	16.8	59.2
2025-09-30T14:24	10	109	3.0	100	112	411	0.3	410	412	16.7	60.1
2025-09-30T14:25	10	113	5.6	99	117	412	0.9	410	413	16.9	61.3
2025-09-30T14:26	10	116	0.2	116	117	413	0.4	412	414	17.0	61.1
2025-09-30T14:27	10	115	0.4	115	116	414	0.5	413	415	17.0	61.2
2025-09-30T14:28	10	114	0.5	113	115	414	0.5	413	416	17.1	61.4
2025-09-30T14:29	10	112	0.6	111	113	414	0.3	413	415	17.3	61.0
2025-09-30T14:30	10	108	1.8	105	111	414	0.6	412	415	17.3	60.9
2025-09-30T14:31	10	106	0.2	105	106	411	0.8	410	413	17.1	59.8
2025-09-30T14:32	10	105	0.2	105	106	410	0.2	409	410	16.9	59.8
2025-09-30T14:33	10	106	0.6	105	107	410	0.4	410	411	17.0	59.5
2025-09-30T14:34	10	107	0.2	107	107	409	0.6	408	410	17.0	59.1
2025-09-30T14:35	10	107	0.3	107	108	409	0.4	408	410	16.9	59.1
2025-09-30T14:36	10	107	0.2	107	108	409	0.3	409	410	17.0	59.5
2025-09-30T14:37	10	107	0.2	107	107	411	0.7	410	413	17.2	60.5
2025-09-30T14:38	10	107	0.1	107	107	413	0.7	411	414	17.4	60.9
2025-09-30T14:39	10	107	0.1	107	107	412	1.0	410	414	17.4	59.3
2025-09-30T14:40	10	107	0.2	107	108	410	0.8	408	411	17.0	58.9
2025-09-30T14:41	10	107	0.1	107	107	409	0.3	409	410	16.9	59.7
2025-09-30T14:42	10	107	0.1	106	107	410	0.3	409	411	16.9	59.5
2025-09-30T14:43	10	106	0.1	106	107	412	1.3	410	414	17.1	60.2
2025-09-30T14:44	10	106	0.2	106	106	413	0.6	412	414	17.3	59.1
2025-09-30T14:45	10	106	0.2	106	107	414	0.3	413	414	17.4	59.6
2025-09-30T14:46	10	107	0.2	106	107	413	0.4	413	414	17.4	59.2
2025-09-30T14:47	10	107	0.3	107	108	413	0.5	412	414	17.4	59.3
2025-09-30T14:48	10	107	0.2	107	108	411	0.5	410	412	17.2	58.5
2025-09-30T14:49	10	107	0.2	106	107	410	0.6	409	411	17.1	58.9
2025-09-30T14:50	10	107	0.2	107	108	411	0.8	409	412	17.1	58.8
2025-09-30T14:51	10	109	0.7	107	110	413	0.9	412	415	17.3	59.8
2025-09-30T14:52	10	110	0.3	110	111	414	0.6	413	415	17.4	58.9
2025-09-30T14:53	10	111	0.2	111	111	412	0.4	411	413	17.3	57.7
2025-09-30T14:54	10	113	0.8	112	114	413	0.4	412	413	17.4	57.9
2025-09-30T14:55	10	115	0.4	114	115	414	0.8	413	415	17.5	58.4
2025-09-30T14:56	10	116	0.3	115	117	415	0.3	414	416	17.5	59.3
2025-09-30T14:57	10	118	0.5	117	118	415	0.3	414	415	17.4	60.0
2025-09-30T14:58	10	117	0.6	116	118	415	0.2	414	415	17.5	60.4
2025-09-30T14:59	10	114	0.9	113	116	415	0.9	413	417	17.5	59.9
2025-09-30T15:00	10	111	1.2	109	113	411	1.0	409	413	17.2	60.0
2025-09-30T15:01	10	108	0.9	106	109	412	0.2	411	412	17.3	60.7
2025-09-30T15:02	10	105	0.7	104	106	410	0.9	409	412	17.2	60.3
2025-09-30T15:03	10	103	0.4	103	104	408	0.4	408	409	17.0	58.5
2025-09-30T15:04	10	102	0.2	102	103	408	0.3	407	409	17.1	58.7
2025-09-30T15:05	10	101	4.2	84	102	408	0.4	408	409	17.1	57.4
2025-09-30T15:06	10	67	17.8	35	96	405	1.2	402	408	17.0	57.0
2025-09-30T15:07	10	33	0.7	32	35	401	1.3	399	404	17.0	57.2
2025-09-30T15:08	10	31	0.5	31	33	398	0.5	397	399	16.8	58.6
2025-09-30T15:09	10	30	0.3	29	31	396	0.7	395	397	16.6	59.2
2025-09-30T15:10	10	29	0.2	29	30	395	0.3	395	396	16.6	61.0
2025-09-30T15:11	10	29	0.3	28	29	395	0.2	394	395	16.5	61.2
2025-09-30T15:12	10	27	0.5	26	28	394	0.2	394	395	16.6	61.9
2025-09-30T15:13	10	26	0.3	25	26	394	0.2	393	394	16.5	61.6
2025-09-30T15:14	10	25	0.2	25	25	393	0.4	392	394	16.5	61.8
2025-09-30T15:15	10	25	0.1	24	25	393	0.2	392	393	16.5	62.1
2025-09-30T15:16	10	25	0.2	25	26	393	0.2	392	393	16.5	62.6
2025-09-30T15:17	10	26	0.1	25	26	392	0.3	392	393	16.4	63.0
2025-09-30T15:18	10	25	0.3	25	26	392	0.3	391	393	16.4	63.3
2025-09-30T15:19	10	24	0.3	24	25	392	0.2	392	392	16.4	63.9
2025-09-30T15:20	10	24	0.1	23	24	392	0.2	391	392	16.4	64.1
2025-09-30T15:21	10	23	0.1	23	24	391	0.3	391	392	16.4	64.3
2025-09-30T15:22	10	23	0.1	23	23	391	0.2	391	392	16.4	64.9
2025-09-30T15:23	10	22	0.2	22	23	391	0.3	390	391	16.3	64.9
2025-09-30T15:24	10	22	0.3	21	22	390	0.3	390	391	16.3	64.6
2025-09-30T15:25	10	21	0.2	20	21	390	0.2	390	391	16.3	64.8
2025-09-30T15:26	10	20	0.1	20	21	390	0.2	389	390	16.3	65.2
2025-09-30T15:27	10	20	0.1	20	21	390	0.2	390	390	16.3	65.4
2025-09-30T15:28	10	21	0.1	20	21	390	0.3	389	390	16.2	66.6
2025-09-30T15:29	10	21	0.1	21	21	390	0.2	389	390	16.2	65.8
2025-09-30T15:30	10	21	0.1	20	21	390	0.2	389	390	16.2	66.2
2025-09-30T15:31	10	20	0.1	20	20	389	0.2	389	390	16.1	66.5
2025-09-30T15:32	10	20	0.1	20	20	389	0.2	388	389	16.1	66.3
2025-09-30T15:33	10	19	0.2	19	20	388	0.2	388	389	16.1	65.8
2025-09-30T15:34	10	19	0.2	18	19	388	0.2	388	389	16.0	67.1
2025-09-30T15:35	10	18	0.1	18	18	388	0.3	387	388	16.0	66.0
2025-09-30T15:36	10	18	0.1	18	18	387	0.3	387	388	16.0	65.5
2025-09-30T15:37	10	22	4.5	18	31	387	0.3	387	388	16.0	65.3
2025-09-30T15:38	10	41	7.8	31	58	388	0.9	387	390	16.0	65.5
2025-09-30T15:39	10	62	1.3	58	64	391	1.0	389	392	16.1	65.3
2025-09-30T15:40	10	62	0.4	61	63	392	0.4	391	392	16.1	64.8
2025-09-30T15:41	10	61	0.2	61	62	392	0.4	392	393	16.2	64.8
2025-09-30T15:42	10	61	0.3	61	62	393	0.4	392	394	16.3	65.4
2025-09-30T15:43	10	60	0.4	60	61	393	0.3	392	394	16.2	65.8
2025-09-30T15:44	10	59	0.5	58	60	392	0.3	391	393	16.2	65.0
2025-09-30T15:45	10	58	0.1	58	58	392	0.3	391	392	16.2	64.6
2025-09-30T15:46	10	58	0.2	58	58	391	0.2	391	392	16.2	64.6
2025-09-30T15:47	10	58	0.1	58	58	392	0.2	391	392	16.2	64.6
2025-09-30T15:48	10	58	0.2	58	59	392	0.3	391	393	16.3	64.8
2025-09-30T15:49	10	57	0.4	57	58	392	0.2	391	392	16.3	64.5
2025-09-30T15:50	10	56	0.5	55	57	392	0.2	391	392	16.3	64.7
2025-09-30T15:51	10	55	0.3	54	56	391	0.3	391	392	16.2	64.5
2025-09-30T15:52	10	54	0.3	54	55	391	0.3	391	392	16.2	64.0
2025-09-30T15:53	10	53	0.3	53	54	391	0.3	390	392	16.2	63.6
2025-09-30T15:54	10	53	0.2	53	54	391	0.2	390	391	16.2	63.8
2025-09-30T15:55	10	53	0.1	52	53	391	0.3	390	392	16.2	64.1
2025-09-30T15:56	10	52	0.3	52	53	390	0.3	389	391	16.2	64.0
2025-09-30T15:57	10	52	0.2	51	52	390	0.3	390	391	16.2	64.2
2025-09-30T15:58	10	51	0.3	51	53	390	0.3	390	391	16.2	64.7
2025-09-30T15:59	10	51	0.3	50	51	390	0.3	389	391	16.2	65.2
2025-09-30T16:00	10	50	0.2	50	51	390	0.2	390	391	16.2	65.4
2025-09-30T16:01	10	50	0.3	49	50	390	0.3	390	391	16.2	65.3
2025-09-30T16:02	10	49	0.2	49	49	390	0.2	390	391	16.2	64.7
2025-09-30T16:03	10	48	0.2	48	49	390	0.2	390	391	16.2	65.4
2025-09-30T16:04	10	48	0.3	47	48	390	0.2	390	391	16.2	65.7
2025-09-30T16:05	10	47	0.3	46	47	390	0.4	389	390	16.2	65.9
2025-09-30T16:06	10	46	0.2	46	46	389	0.2	389	390	16.1	65.2
2025-09-30T16:07	10	46	0.1	45	46	389	0.2	389	390	16.1	65.4
2025-09-30T16:08	10	45	0.2	45	46	389	0.2	389	390	16.1	65.7
2025-09-30T16:09	10	45	0.2	44	45	390	0.2	389	390	16.2	65.6
2025-09-30T16:10	10	44	0.3	43	44	389	0.2	389	390	16.2	65.6
2025-09-30T16:11	10	43	0.3	42	44	389	0.2	389	390	16.2	65.6
2025-09-30T16:12	10	42	0.4	41	42	389	0.2	388	389	16.2	65.9
2025-09-30T16:13	10	41	0.3	40	41	389	0.3	388	389	16.2	65.6
2025-09-30T16:14	10	40	0.3	39	40	388	0.3	387	389	16.1	66.3
2025-09-30T16:15	10	39	0.4	38	40	388	0.2	387	388	16.1	66.7
2025-09-30T16:16	10	38	0.3	37	38	387	0.2	387	388	16.1	66.2
2025-09-30T16:17	10	37	0.3	36	38	387	0.3	386	387	16.1	66.5
2025-09-30T16:18	10	36	0.3	35	36	386	0.3	386	387	16.0	67.1
2025-09-30T16:19	10	35	0.3	35	36	386	0.3	385	387	16.0	67.4
2025-09-30T16:20	10	34	0.3	34	35	386	0.3	385	386	16.0	65.9
2025-09-30T16:21	10	34	0.2	33	34	385	0.3	385	386	16.0	64.3
2025-09-30T16:22	10	33	0.2	33	33	385	0.3	384	385	16.1	63.1
2025-09-30T16:23	10	32	0.2	31	33	384	0.3	383	385	16.0	64.3
2025-09-30T16:24	10	31	0.3	31	32	384	0.2	384	384	16.0	64.7
2025-09-30T16:25	10	27	2.2	24	31	384	0.3	383	384	15.9	64.7
2025-09-30T16:26	10	27	1.8	24	29	383	0.3	383	384	16.0	64.2
2025-09-30T16:27	10	29	0.2	29	30	383	0.3	383	384	15.9	64.7
2025-09-30T16:28	10	29	0.1	28	29	383	0.3	382	384	15.9	65.2
2025-09-30T16:29	10	27	1.2	24	29	383	0.2	382	383	15.9	65.3
2025-09-30T16:30	10	19	3.0	15	24	382	0.4	381	383	15.9	65.4
2025-09-30T16:31	10	23	3.2	16	26	382	0.3	381	383	15.9	65.1
2025-09-30T16:32	10	26	0.1	26	26	382	0.3	381	383	15.9	65.2
2025-09-30T16:33	10	26	0.5	24	26	382	0.2	382	383	15.9	65.3
2025-09-30T16:34	10	22	2.2	18	25	382	0.3	382	383	15.9	66.0
2025-09-30T16:35	10	12	3.2	7	18	381	0.6	380	382	15.8	66.5
2025-09-30T16:36	10	7	0.2	7	8	380	0.3	380	381	15.8	66.5
2025-09-30T16:37	10	7	0.1	7	7	380	0.3	380	381	15.7	66.7
2025-09-30T16:38	10	7	0.1	7	7	381	0.2	380	381	15.7	66.8
2025-09-30T16:39	10	7	0.1	7	7	381	0.3	380	382	15.7	66.2
2025-09-30T16:40	10	7	0.1	7	7	381	0.3	381	382	15.7	66.2
2025-09-30T16:41	10	7	0.1	7	8	382	0.2	381	382	15.7	66.1
2025-09-30T16:42	10	7	0.1	7	7	381	0.3	381	382	15.7	65.8
2025-09-30T16:43	10	7	0.1	7	7	381	0.2	381	382	15.7	65.1
2025-09-30T16:44	10	7	0.1	7	7	381	0.2	381	382	15.7	65.8
2025-09-30T16:45	10	6	0.1	6	7	382	0.2	381	382	15.6	65.5
2025-09-30T16:46	10	6	0.1	6	6	382	0.2	381	382	15.7	65.2
2025-09-30T16:47	10	6	0.1	5	6	381	0.3	381	382	15.7	65.6
2025-09-30T16:48	10	5	0.1	5	5	381	0.2	381	382	15.6	66.3
2025-09-30T16:49	10	5	0.1	5	5	381	0.2	380	381	15.6	65.6
2025-09-30T16:50	10	4	0.1	4	5	381	0.2	380	381	15.6	65.7
2025-09-30T16:51	10	4	0.1	4	4	380	0.2	380	381	15.6	65.6
2025-09-30T16:52	10	4	0.1	3	4	380	0.2	380	381	15.5	64.7
2025-09-30T16:53	10	3	0.1	3	4	380	0.2	380	381	15.6	63.6
2025-09-30T16:54	10	3	0.1	3	3	380	0.2	380	381	15.6	63.2
2025-09-30T16:55	10	3	0.1	3	3	380	0.3	380	381	15.6	62.5
2025-09-30T16:56	10	3	0.1	2	3	381	0.3	380	381	15.6	63.2
2025-09-30T16:57	10	2	0.1	2	3	380	0.2	380	381	15.5	63.3
2025-09-30T16:58	10	2	0.1	2	2	380	0.2	380	381	15.5	63.5
2025-09-30T16:59	10	2	0.1	2	2	380	0.2	380	381	15.5	63.3
2025-09-30T17:00	10	2	0.1	1	2	380	0.2	380	381	15.4	64.1
2025-09-30T17:01	10	1	0.1	1	2	380	0.2	380	381	15.4	63.9
2025-09-30T17:02	10	1	0.1	1	1	380	0.3	380	381	15.4	63.9
2025-09-30T17:03	10	1	0.1	1	1	380	0.3	380	381	15.4	64.3
2025-09-30T17:04	10	1	0.1	1	1	380	0.3	380	381	15.4	64.8
2025-09-30T17:05	10	1	0.1	1	1	380	0.2	380	380	15.3	65.0
2025-09-30T17:06	10	1	0.1	1	1	380	0.2	380	381	15.4	64.9
2025-09-30T17:07	10	1	0.1	1	1	380	0.2	379	381	15.3	65.3
2025-09-30T17:08	10	1	0.1	0	1	380	0.2	379	380	15.3	65.7
2025-09-30T17:09	10	1	0.1	0	1	380	0.2	379	380	15.2	66.0
2025-09-30T17:10	10	1	0.1	0	1	380	0.2	379	380	15.2	66.4
2025-09-30T17:11	10	0	0.1	0	1	379	0.2	379	380	15.2	66.3
2025-09-30T17:12	10	0	0.1	0	1	380	0.2	379	380	15.2	66.4
2025-09-30T17:13	10	0	0.1	0	1	380	0.2	379	380	15.2	66.6
2025-09-30T17:14	10	0	0.1	0	0	380	0.2	379	380	15.2	66.8
2025-09-30T17:15	10	0	0.1	0	0	379	0.2	379	380	15.1	67.2
2025-09-30T17:16	10	0	0.1	0	0	379	0.3	379	380	15.1	67.4
2025-09-30T17:17	10	0	0.1	0	0	379	0.2	379	380	15.1	67.7
2025-09-30T17:18	10	0	0.1	0	0	379	0.3	379	380	15.0	67.8
2025-09-30T17:19	10	0	0.1	0	0	379	0.3	378	380	15.0	68.1
2025-09-30T17:20	10	0	0.1	0	0	379	0.2	379	380	15.0	67.9
2025-09-30T17:21	10	0	0.1	0	0	379	0.2	379	379	15.0	68.4
2025-09-30T17:22	10	0	0.1	0	0	379	0.2	378	379	15.0	68.3
2025-09-30T17:23	10	0	0.1	0	0	379	0.2	378	380	15.0	68.4
2025-09-30T17:24	10	0	0.1	0	0	379	0.2	378	380	15.0	68.3
2025-09-30T17:25	10	0	0.0	0	0	379	0.2	378	379	14.9	68.6
2025-09-30T17:26	10	0	0.1	0	0	379	0.3	378	379	14.9	68.7
2025-09-30T17:27	10	0	0.1	0	0	379	0.3	379	380	14.9	68.6
2025-09-30T17:28	10	0	0.0	0	0	379	0.2	379	380	14.9	68.9
2025-09-30T17:29	10	0	0.0	0	0	379	0.3	379	380	14.9	68.8
2025-09-30T17:30	10	0	0.1	0	0	379	0.3	379	380	14.9	69.1
2025-09-30T17:31	10	0	0.1	0	0	380	0.2	379	380	14.8	69.2
2025-09-30T17:32	10	0	0.0	0	0	379	0.2	379	380	14.8	69.4
2025-09-30T17:33	10	0	0.1	0	0	379	0.2	379	380	14.8	69.1
2025-09-30T17:34	10	0	0.0	0	0	380	0.2	379	380	14.8	69.3
2025-09-30T17:35	10	0	0.1	0	0	379	0.2	379	380	14.8	70.1
2025-09-30T17:36	10	0	0.1	0	0	379	0.2	379	380	14.7	70.4
2025-09-30T17:37	10	0	0.1	0	0	379	0.2	378	379	14.6	71.1
2025-09-30T17:38	10	0	0.1	0	0	379	0.3	378	379	14.6	71.1
2025-09-30T17:39	10	0	0.1	0	0	378	0.3	377	379	14.5	72.3
2025-09-30T17:40	10	0	0.1	0	0	379	0.5	378	380	14.6	71.5
2025-09-30T17:41	10	0	0.2	0	0	379	0.3	378	380	14.7	70.9
2025-09-30T17:42	10	0	0.1	0	0	379	0.2	378	379	14.7	71.1
2025-09-30T17:43	10	0	0.2	0	1	379	0.3	378	380	14.6	71.4
2025-09-30T17:44	10	0	0.1	0	0	378	0.2	378	379	14.6	71.7
2025-09-30T17:45	10	0	0.1	0	0	378	0.4	378	379	14.6	71.7
2025-09-30T17:46	10	0	0.1	0	0	378	0.3	378	379	14.6	71.5
2025-09-30T17:47	10	0	0.2	0	1	378	0.2	378	379	14.6	71.8
2025-09-30T17:48	10	0	0.1	0	0	378	0.2	378	379	14.6	72.0
2025-09-30T17:49	10	0	0.2	0	1	378	0.3	378	379	14.4	74.2
2025-09-30T17:50	10	0	0.1	0	0	378	0.2	377	378	14.2	76.5
2025-09-30T17:51	10	0	0.1	0	0	377	0.3	377	378	14.1	77.9
2025-09-30T17:52	10	0	0.1	0	0	378	0.2	377	378	14.0	79.0
2025-09-30T17:53	10	0	0.1	0	0	377	0.2	377	378	13.9	79.6
2025-09-30T17:54	10	0	0.1	0	0	377	0.3	377	378	13.9	79.8
2025-09-30T17:55	10	0	0.1	0	0	377	0.2	377	378	13.9	80.3
2025-09-30T17:56	10	0	0.1	0	0	377	0.2	377	378	13.9	80.4
2025-09-30T17:57	10	0	0.1	0	0	377	0.3	377	378	13.9	80.6
2025-09-30T17:58	10	0	0.1	0	0	377	0.2	377	377	13.8	81.0
2025-09-30T17:59	10	0	0.1	0	0	377	0.2	377	377	13.8	81.2
2025-09-30T18:00	10	0	0.1	0	0	377	0.2	376	377	13.7	81.3
2025-09-30T18:01	10	0	0.1	0	0	377	0.3	376	377	13.7	81.2
2025-09-30T18:02	10	0	0.1	0	0	376	0.2	376	377	13.7	80.5
2025-09-30T18:03	10	0	0.1	0	0	376	0.2	376	377	13.7	79.8
2025-09-30T18:04	10	0	0.1	0	0	376	0.2	376	377	13.7	79.8
2025-09-30T18:05	10	0	0.1	0	0	376	0.2	375	377	13.7	79.6
2025-09-30T18:06	10	0	0.1	0	0	376	0.3	376	377	13.8	78.5
2025-09-30T18:07	10	0	0.1	0	0	376	0.3	376	377	13.9	77.1
2025-09-30T18:08	10	0	0.0	0	0	376	0.2	376	377	13.9	76.3
2025-09-30T18:09	10	0	0.0	0	0	376	0.3	376	377	13.9	75.6
2025-09-30T18:10	10	0	0.1	0	0	376	0.3	375	377	13.9	74.8
2025-09-30T18:11	10	0	0.0	0	0	376	0.2	376	377	13.9	75.6
2025-09-30T18:12	10	0	0.0	0	0	376	0.3	375	376	13.9	76.7
2025-09-30T18:13	10	0	0.1	0	0	376	0.2	375	376	13.6	79.1
2025-09-30T18:14	10	0	0.1	0	0	375	0.2	375	376	13.5	79.9
2025-09-30T18:15	10	0	0.1	0	0	375	0.3	375	376	13.5	80.5
2025-09-30T18:16	10	0	0.1	-1	0	375	0.2	375	375	13.4	80.9
2025-09-30T18:17	10	0	0.1	0	0	375	0.2	374	375	13.5	80.4
2025-09-30T18:18	10	0	0.1	0	0	375	0.2	375	376	13.5	80.3
2025-09-30T18:19	10	0	0.1	0	0	375	0.3	374	375	13.4	80.7
2025-09-30T18:20	10	0	0.1	0	0	375	0.2	374	375	13.4	80.4
2025-09-30T18:21	10	0	0.1	0	0	375	0.3	374	375	13.4	79.7
2025-09-30T18:22	10	0	0.1	0	0	375	0.4	374	376	13.6	75.8
2025-09-30T18:23	10	0	0.1	0	0	375	0.4	375	376	14.1	68.8
2025-09-30T18:24	10	0	0.1	0	0	375	0.2	375	376	14.2	67.5
2025-09-30T18:25	10	0	0.1	0	0	375	0.2	375	375	14.1	66.7
2025-09-30T18:26	10	0	0.1	0	0	375	0.2	374	375	14.1	68.0
2025-09-30T18:27	10	0	0.1	0	0	375	0.3	374	375	14.0	69.3
2025-09-30T18:28	10	0	0.9	0	6	375	0.2	374	375	13.9	69.9
2025-09-30T18:29	10	0	0.1	0	0	375	0.2	374	375	13.9	71.3
2025-09-30T18:30	10	0	0.1	0	0	375	0.2	374	375	13.9	71.4
2025-09-30T18:31	10	0	0.1	0	0	375	0.2	374	375	13.8	72.1
2025-09-30T18:32	10	0	0.1	0	0	375	0.3	374	375	13.8	72.1
2025-09-30T18:33	10	0	0.1	0	0	375	0.2	374	375	13.9	70.3
2025-09-30T18:34	10	0	0.1	0	0	375	0.2	374	375	13.9	71.1
2025-09-30T18:35	10	0	0.1	0	0	375	0.2	374	375	13.8	71.2
2025-09-30T18:36	10	0	0.1	0	0	375	0.2	374	375	13.8	71.0
2025-09-30T18:37	10	0	0.1	0	0	374	0.3	374	375	13.8	70.9
2025-09-30T18:38	10	0	0.1	0	0	374	0.2	374	375	13.8	71.0
2025-09-30T18:39	10	0	0.0	0	0	374	0.2	374	375	13.8	71.3
2025-09-30T18:40	10	0	0.0	0	0	375	0.3	374	375	13.9	70.3
2025-09-30T18:41	10	0	0.0	0	0	374	0.2	374	375	13.8	70.8
2025-09-30T18:42	10	0	0.1	0	0	374	0.2	374	375	13.9	70.7
2025-09-30T18:43	10	0	0.0	0	0	374	0.3	374	375	13.8	70.9
2025-09-30T18:44	10	0	0.1	0	0	374	0.2	374	375	13.8	71.5
2025-09-30T18:45	10	0	0.1	0	0	374	0.2	373	375	13.7	71.8
2025-09-30T18:46	10	0	0.0	0	0	374	0.2	374	374	13.7	72.0
2025-09-30T18:47	10	0	0.1	0	0	374	0.2	373	374	13.7	71.9
2025-09-30T18:48	10	0	0.1	0	0	374	0.3	373	375	13.7	72.2
2025-09-30T18:49	10	0	0.0	0	0	374	0.2	373	374	13.6	73.0
2025-09-30T18:50	10	0	0.1	0	0	374	0.2	373	374	13.6	73.1
2025-09-30T18:51	10	0	0.1	0	0	374	0.2	373	374	13.6	72.7
2025-09-30T18:52	10	0	0.1	0	0	374	0.2	373	374	13.6	73.1
2025-09-30T18:53	10	0	0.7	0	4	374	0.2	373	374	13.6	73.1
2025-09-30T18:54	10	0	0.1	0	0	374	0.3	373	374	13.6	72.8
2025-09-30T18:55	10	0	0.2	0	0	374	0.3	373	374	13.6	72.9
2025-09-30T18:56	10	0	0.1	0	0	374	0.2	373	374	13.6	73.4
2025-09-30T18:57	10	0	0.1	0	0	374	0.2	373	374	13.6	73.5
2025-09-30T18:58	10	0	0.2	0	1	373	0.2	373	374	13.5	73.9
2025-09-30T18:59	10	0	0.2	0	0	374	0.4	372	375	13.5	73.8
2025-09-30T19:00	10	0	0.1	0	0	373	0.3	372	374	13.5	73.9
2025-09-30T19:01	10	0	0.1	0	0	373	0.3	372	374	13.5	74.1
2025-09-30T19:02	10	0	0.1	0	0	373	0.2	372	373	13.5	74.2
2025-09-30T19:03	10	0	0.1	0	0	372	0.2	372	373	13.5	74.5
2025-09-30T19:04	10	0	0.1	0	0	373	0.3	372	373	13.5	74.3
2025-09-30T19:05	10	0	0.1	0	0	372	0.2	372	373	13.4	74.9
2025-09-30T19:06	10	0	0.1	0	0	373	0.4	372	373	13.4	74.6
2025-09-30T19:07	10	0	0.2	0	0	372	0.3	371	373	13.4	74.8
2025-09-30T19:08	10	0	0.1	0	0	372	0.2	371	372	13.4	74.8
2025-09-30T19:09	10	0	0.2	0	0	372	0.3	371	372	13.4	74.9
2025-09-30T19:10	10	0	0.2	-1	0	371	0.3	370	372	13.4	75.3
2025-09-30T19:11	10	0	0.2	-1	0	370	0.3	370	371	13.4	75.4
2025-09-30T19:12	10	0	0.2	-1	0	370	0.2	369	371	13.4	74.7
2025-09-30T19:13	10	0	0.1	0	0	370	0.3	369	371	13.4	74.4
2025-09-30T19:14	10	0	0.2	0	0	370	0.3	369	371	13.4	74.8
2025-09-30T19:15	10	0	0.2	-1	0	370	0.3	369	370	13.4	74.8
2025-09-30T19:16	10	0	0.1	-1	0	370	0.4	369	370	13.4	74.7
2025-09-30T19:17	10	0	0.2	-1	0	369	0.3	368	370	13.3	75.3
2025-09-30T19:18	10	0	0.1	-1	0	369	0.4	368	370	13.4	74.1
2025-09-30T19:19	10	0	0.1	-1	0	369	0.3	368	369	13.3	74.9
2025-09-30T19:20	10	0	0.1	0	0	369	0.2	368	369	13.3	74.6
2025-09-30T19:21	10	0	0.2	0	0	368	0.3	368	369	13.2	75.3
2025-09-30T19:22	10	0	0.1	0	0	369	0.3	368	370	13.2	75.1
2025-09-30T19:23	10	0	0.1	0	0	369	0.3	368	370	13.2	74.8
2025-09-30T19:24	10	0	0.2	0	1	369	0.3	369	370	13.2	74.6
2025-09-30T19:25	10	0	0.1	0	0	370	0.3	369	370	13.2	74.5
2025-09-30T19:26	10	0	0.1	0	0	370	0.4	369	371	13.2	74.6
2025-09-30T19:27	10	0	0.1	-1	0	370	0.3	369	371	13.2	74.7
2025-09-30T19:28	10	0	0.1	0	0	370	0.3	369	370	13.2	74.6
2025-09-30T19:29	10	0	0.1	0	0	370	0.3	369	371	13.2	74.6
2025-09-30T19:30	10	0	0.1	0	0	370	0.3	369	371	13.1	74.9
2025-09-30T19:31	10	0	0.1	0	0	370	0.3	369	371	13.2	74.2
2025-09-30T19:32	10	0	0.1	0	0	370	0.2	370	371	13.3	74.0
2025-09-30T19:33	10	0	0.1	0	0	370	0.3	370	371	13.2	74.3
2025-09-30T19:34	10	0	0.1	0	0	370	0.2	369	370	13.2	72.0
2025-09-30T19:35	10	0	0.1	0	0	370	0.3	369	370	13.2	74.5
2025-09-30T19:36	10	0	0.1	0	0	370	0.2	369	370	13.2	74.5
2025-09-30T19:37	10	0	0.1	0	0	370	0.2	369	370	13.2	74.5
2025-09-30T19:38	10	0	0.1	-1	0	370	0.2	369	370	13.2	74.5
2025-09-30T19:39	10	0	0.1	0	0	370	0.2	369	370	13.2	74.5
2025-09-30T19:40	10	0	0.1	0	0	370	0.3	370	371	13.2	74.5
2025-09-30T19:41	10	0	0.1	0	0	370	0.2	370	370	13.1	75.2
2025-09-30T19:42	10	0	0.1	-1	0	370	0.2	369	370	12.9	76.8
2025-09-30T19:43	10	0	0.1	0	0	370	0.2	369	370	12.9	77.1
2025-09-30T19:44	10	0	0.1	0	0	369	0.2	369	370	12.9	77.6
2025-09-30T19:45	10	0	0.1	0	0	369	0.2	369	370	12.9	77.6
2025-09-30T19:46	10	0	0.1	0	0	369	0.2	368	369	12.9	77.9
2025-09-30T19:47	10	0	0.1	0	0	369	0.2	368	369	12.9	77.9
2025-09-30T19:48	10	0	0.1	0	0	369	0.2	368	369	12.9	77.9
2025-09-30T19:49	10	0	0.1	0	0	369	0.2	368	369	12.9	77.9
2025-09-30T19:50	10	0	0.0	0	0	368	0.2	368	369	12.9	78.0
2025-09-30T19:51	10	0	0.1	0	0	368	0.2	368	369	12.9	77.8
2025-09-30T19:52	10	0	0.0	0	0	368	0.2	368	369	12.9	78.0
2025-09-30T19:53	10	0	0.1	0	0	369	0.2	368	369	12.9	78.0
2025-09-30T19:54	10	0	0.1	0	0	368	0.2	368	369	12.9	78.0
2025-09-30T19:55	10	0	0.1	0	0	368	0.2	368	368	12.9	78.4
2025-09-30T19:56	10	0	0.1	0	0	368	0.2	367	369	12.9	78.5
2025-09-30T19:57	10	0	0.0	0	0	368	0.2	367	368	12.9	78.7
2025-09-30T19:58	10	0	0.1	0	0	368	0.2	367	368	12.9	78.8
2025-09-30T19:59	10	0	0.1	0	0	368	0.2	367	368	12.8	78.8
2025-09-30T20:00	10	0	0.1	0	0	368	0.2	367	368	12.8	78.9
2025-09-30T20:01	10	0	0.1	0	0	368	0.2	367	368	12.8	79.3
2025-09-30T20:02	10	0	0.1	0	0	368	0.2	367	368	12.8	78.9
2025-09-30T20:03	10	0	0.1	0	0	368	0.2	367	368	12.8	78.9
2025-09-30T20:04	10	0	0.0	0	0	368	0.2	367	368	12.8	79.4
2025-09-30T20:05	10	0	0.1	0	0	368	0.2	367	368	12.8	79.3
2025-09-30T20:06	10	0	0.1	0	0	368	0.2	367	368	12.8	79.6
2025-09-30T20:07	10	0	0.1	0	0	368	0.3	367	368	12.8	79.7
2025-09-30T20:08	10	0	0.7	0	5	368	0.3	367	368	12.8	80.1
2025-09-30T20:09	10	0	0.0	0	0	368	0.2	367	368	12.8	80.1
2025-09-30T20:10	10	0	0.1	0	0	368	0.3	367	368	12.8	80.3
2025-09-30T20:11	10	0	0.6	0	4	368	0.2	367	368	12.8	80.0
2025-09-30T20:12	10	0	0.1	0	0	368	0.2	367	368	12.8	80.3
2025-09-30T20:13	10	0	0.0	0	0	368	0.2	367	368	12.8	80.3
2025-09-30T20:14	10	0	0.0	0	0	368	0.2	368	369	12.9	79.2
2025-09-30T20:15	10	0	0.0	0	0	368	0.2	368	369	12.9	79.4
2025-09-30T20:16	10	0	0.0	0	0	368	0.2	368	369	12.9	80.0
2025-09-30T20:17	10	0	0.0	0	0	368	0.3	368	369	12.9	79.3
2025-09-30T20:18	10	0	0.0	0	0	369	0.2	368	369	12.9	79.1
2025-09-30T20:19	10	0	0.1	0	0	369	0.4	368	370	13.1	77.2
2025-09-30T20:20	10	0	0.1	0	0	370	0.2	370	371	13.2	75.8
2025-09-30T20:21	10	0	0.0	0	0	370	0.3	369	370	13.1	77.3
2025-09-30T20:22	10	0	0.0	0	0	370	0.2	369	370	13.1	78.0
2025-09-30T20:23	10	0	0.0	0	0	370	0.3	369	371	13.0	78.7
2025-09-30T20:24	10	0	0.1	0	0	370	0.3	369	370	12.9	78.9
2025-09-30T20:25	10	0	0.0	0	0	370	0.3	370	371	13.1	75.4
2025-09-30T20:26	10	0	0.1	0	0	370	0.2	370	371	13.1	75.9
2025-09-30T20:27	10	0	0.0	0	0	370	0.2	370	371	12.9	78.8
2025-09-30T20:28	10	0	0.0	0	0	370	0.2	370	371	12.9	78.8
2025-09-30T20:29	10	0	0.1	0	0	370	0.2	369	370	12.8	80.5
2025-09-30T20:30	10	0	0.1	0	0	370	0.4	370	371	13.0	75.9
2025-09-30T20:31	10	0	0.1	0	0	371	0.2	370	371	13.1	75.4
2025-09-30T20:32	10	0	0.1	0	0	370	0.2	370	371	13.1	77.0
2025-09-30T20:33	10	0	0.1	0	0	370	0.3	369	371	12.9	80.1
2025-09-30T20:34	10	0	0.1	0	0	370	0.2	369	370	12.8	81.1
2025-09-30T20:35	10	0	0.1	0	0	370	0.2	369	370	12.7	81.1
2025-09-30T20:36	10	0	0.0	0	0	369	0.2	369	370	12.7	81.9
2025-09-30T20:37	10	0	0.0	0	0	369	0.2	369	370	12.6	82.4
2025-09-30T20:38	10	0	0.0	0	0	370	0.2	369	370	12.7	81.2
2025-09-30T20:39	10	0	0.0	0	0	370	0.2	370	371	12.8	78.6
2025-09-30T20:40	10	0	0.1	0	0	370	0.2	370	371	12.9	77.5
2025-09-30T20:41	10	0	0.1	0	0	370	0.2	369	370	12.9	77.6
2025-09-30T20:42	10	0	0.1	0	0	370	0.2	369	370	12.9	79.3
2025-09-30T20:43	10	0	0.1	0	0	370	0.3	369	370	12.8	80.5
2025-09-30T20:44	10	0	0.1	0	0	370	0.2	369	370	12.8	78.0
2025-09-30T20:45	10	0	0.1	0	0	370	0.2	369	371	12.9	77.2
2025-09-30T20:46	10	0	0.1	0	0	370	0.2	369	370	12.9	76.1
2025-09-30T20:47	10	0	0.0	0	0	370	0.2	369	370	13.0	75.1
2025-09-30T20:48	10	0	0.1	0	0	370	0.2	369	370	13.0	74.6
2025-09-30T20:49	10	0	0.1	0	0	369	0.3	369	370	13.0	75.3
2025-09-30T20:50	10	0	0.0	0	0	369	0.3	368	370	12.9	76.1
2025-09-30T20:51	10	0	0.1	0	0	369	0.2	368	369	12.8	78.9
2025-09-30T20:52	10	0	0.1	0	0	369	0.3	368	369	12.8	78.0
2025-09-30T20:53	10	0	0.1	0	0	369	0.2	368	369	12.7	79.4
2025-09-30T20:54	10	0	0.1	0	0	368	0.2	368	369	12.7	80.1
2025-09-30T20:55	10	0	0.1	0	0	368	0.2	368	369	12.6	80.8
2025-09-30T20:56	10	0	0.1	0	0	368	0.2	367	368	12.6	81.4
2025-09-30T20:57	10	0	0.1	0	0	368	0.2	367	369	12.6	81.4
2025-09-30T20:58	10	0	0.1	0	0	368	0.2	368	369	12.6	81.6
2025-09-30T20:59	10	0	0.1	0	0	368	0.2	368	369	12.6	81.1
2025-09-30T21:00	10	0	0.1	0	0	369	0.2	368	369	12.6	81.4
2025-09-30T21:01	10	0	0.1	0	0	369	0.2	368	369	12.6	81.6
2025-09-30T21:02	10	0	0.1	0	0	369	0.2	368	369	12.6	80.9
2025-09-30T21:03	10	0	0.1	0	0	369	0.2	369	369	12.6	81.5
2025-09-30T21:04	10	0	0.1	0	0	369	0.3	369	370	12.6	82.6
2025-09-30T21:05	10	0	0.1	0	0	369	0.3	368	370	12.6	82.6
2025-09-30T21:06	10	0	0.1	0	0	369	0.2	369	370	12.5	83.5
2025-09-30T21:07	10	0	0.1	0	0	369	0.2	369	370	12.5	83.5
2025-09-30T21:08	10	0	0.1	0	0	369	0.2	369	370	12.5	82.6
2025-09-30T21:09	10	0	0.1	0	0	369	0.2	369	370	12.5	83.1
2025-09-30T21:10	10	0	0.1	0	0	369	0.3	368	369	12.5	83.0
2025-09-30T21:11	10	0	0.1	0	0	369	0.3	368	369	12.5	81.9
2025-09-30T21:12	10	0	0.1	0	0	369	0.2	368	369	12.6	82.0
2025-09-30T21:13	10	0	0.1	0	0	368	0.2	368	369	12.5	82.2
2025-09-30T21:14	10	0	0.1	0	0	368	0.2	368	369	12.6	80.9
2025-09-30T21:15	10	0	0.1	0	0	368	0.3	368	369	12.5	82.2
2025-09-30T21:16	10	0	0.1	0	0	368	0.2	367	368	12.5	82.3
2025-09-30T21:17	10	0	0.1	0	0	368	0.2	368	369	12.5	82.2
2025-09-30T21:18	10	0	0.1	0	0	368	0.2	368	368	12.5	81.4
2025-09-30T21:19	10	0	0.1	0	0	368	0.3	367	369	12.5	81.8
2025-09-30T21:20	10	0	0.1	0	0	368	0.2	367	368	12.5	81.3
2025-09-30T21:21	10	0	0.1	0	0	368	0.3	367	368	12.5	81.0
2025-09-30T21:22	10	0	0.1	0	0	368	0.2	367	368	12.5	81.4
2025-09-30T21:23	10	0	0.1	0	0	368	0.2	367	368	12.5	81.1
2025-09-30T21:24	10	0	0.1	0	0	368	0.3	367	368	12.5	81.4
2025-09-30T21:25	10	0	0.1	0	0	367	0.2	367	368	12.4	81.8
2025-09-30T21:26	10	0	0.1	0	0	368	0.2	367	368	12.4	81.6
2025-09-30T21:27	10	0	0.1	0	0	367	0.2	367	368	12.4	80.8
2025-09-30T21:28	10	0	0.1	0	0	368	0.2	367	368	12.5	81.0
2025-09-30T21:29	10	0	0.1	0	0	367	0.2	367	367	12.4	81.3
2025-09-30T21:30	10	0	0.1	0	0	367	0.2	366	367	12.4	80.3
2025-09-30T21:31	10	0	0.1	0	0	367	0.3	366	367	12.4	80.8
2025-09-30T21:32	10	0	0.1	0	0	366	0.3	366	367	12.4	80.8
2025-09-30T21:33	10	0	0.1	0	0	366	0.2	365	366	12.4	80.5
2025-09-30T21:34	10	0	0.1	0	0	366	0.2	365	366	12.4	80.3
2025-09-30T21:35	10	0	0.1	0	0	366	0.2	365	366	12.4	79.8
2025-09-30T21:36	10	0	0.1	0	0	365	0.3	365	366	12.4	80.2
2025-09-30T21:37	10	0	0.1	0	0	365	0.3	365	366	12.4	80.3
2025-09-30T21:38	10	0	0.1	0	0	365	0.2	365	366	12.4	80.7
2025-09-30T21:39	10	0	0.1	0	0	365	0.2	364	366	12.3	81.3
2025-09-30T21:40	10	0	0.1	0	0	365	0.2	365	365	12.4	80.4
2025-09-30T21:41	10	0	0.1	0	0	365	0.2	365	366	12.4	80.6
2025-09-30T21:42	10	0	0.1	0	0	365	0.2	365	366	12.4	80.4
2025-09-30T21:43	10	0	0.1	0	0	365	0.3	365	366	12.4	80.5
2025-09-30T21:44	10	0	0.1	0	0	365	0.3	365	366	12.4	80.5
2025-09-30T21:45	10	0	0.1	0	0	365	0.3	365	366	12.4	80.8
2025-09-30T21:46	10	0	0.1	0	0	365	0.2	365	366	12.4	81.0
2025-09-30T21:47	10	0	0.1	0	0	366	0.3	365	366	12.4	81.3
2025-09-30T21:48	10	0	0.1	0	0	366	0.3	365	366	12.4	81.2
2025-09-30T21:49	10	0	0.1	0	0	366	0.2	366	367	12.4	81.0
2025-09-30T21:50	10	0	0.1	0	0	366	0.3	366	367	12.3	81.8
2025-09-30T21:51	10	0	0.1	-1	0	366	0.2	366	366	12.3	81.9
2025-09-30T21:52	10	0	0.1	0	0	366	0.2	365	367	12.3	81.8
2025-09-30T21:53	10	0	0.1	0	0	366	0.2	366	367	12.3	81.6
2025-09-30T21:54	10	0	0.1	0	0	366	0.2	366	367	12.3	81.2
2025-09-30T21:55	10	0	0.1	0	0	366	0.2	366	366	12.3	81.7
2025-09-30T21:56	10	0	0.1	0	0	366	0.2	365	367	12.3	82.0
2025-09-30T21:57	10	0	0.1	-1	0	366	0.3	366	367	12.2	82.0
2025-09-30T21:58	10	0	0.1	-1	0	366	0.2	366	367	12.2	81.8
2025-09-30T21:59	10	0	0.1	0	0	366	0.2	365	366	12.2	82.3
2025-09-30T22:00	10	0	0.1	0	0	366	0.3	365	366	12.2	82.7
2025-09-30T22:01	10	0	0.1	0	0	366	0.3	365	367	12.2	82.6
2025-09-30T22:02	10	0	0.1	0	0	366	0.3	365	367	12.2	82.6
2025-09-30T22:03	10	0	0.1	0	0	366	0.2	365	366	12.1	82.6
2025-09-30T22:04	10	0	0.1	0	0	366	0.2	365	366	12.1	83.0
2025-09-30T22:05	10	0	0.1	0	0	366	0.2	365	366	12.1	83.0
2025-09-30T22:06	10	0	0.1	0	0	365	0.3	365	366	12.1	83.1
2025-09-30T22:07	10	0	0.1	0	0	365	0.3	365	366	12.1	83.4
2025-09-30T22:08	10	0	0.1	0	0	365	0.2	364	365	12.1	83.3
2025-09-30T22:09	10	0	0.1	0	0	364	0.2	364	365	12.0	83.3
2025-09-30T22:10	10	0	0.1	0	0	364	0.2	364	365	12.0	83.2
2025-09-30T22:11	10	0	0.1	0	0	364	0.3	363	365	12.0	83.4
2025-09-30T22:12	10	0	0.1	0	0	364	0.3	363	364	12.0	83.2
2025-09-30T22:13	10	0	0.1	0	0	364	0.2	363	364	12.0	83.5
2025-09-30T22:14	10	0	0.1	0	0	363	0.3	362	364	12.0	83.6
2025-09-30T22:15	10	0	0.1	0	0	363	0.2	362	364	12.0	83.3
2025-09-30T22:16	10	0	0.1	0	0	363	0.2	362	363	12.0	83.2
2025-09-30T22:17	10	0	0.1	0	0	363	0.2	362	363	12.0	83.4
2025-09-30T22:18	10	0	0.1	0	0	362	0.3	362	363	12.0	83.2
2025-09-30T22:19	10	0	0.1	0	0	362	0.2	362	363	12.0	83.0
2025-09-30T22:20	10	0	0.1	0	0	362	0.2	362	362	12.0	83.2
2025-09-30T22:21	10	0	0.1	0	0	362	0.2	362	363	12.0	83.0
2025-09-30T22:22	10	0	0.1	0	0	363	0.2	362	363	12.0	82.9
2025-09-30T22:23	10	0	0.1	0	0	362	0.3	362	363	12.0	82.8
2025-09-30T22:24	10	0	0.1	0	0	363	0.2	362	363	12.0	82.0
2025-09-30T22:25	10	0	0.1	0	0	363	0.2	362	363	12.0	81.9
2025-09-30T22:26	10	0	0.1	0	0	362	0.3	362	363	12.0	82.5
2025-09-30T22:27	10	0	0.1	0	0	362	0.3	361	362	12.0	82.5
2025-09-30T22:28	10	0	0.1	0	0	361	0.3	361	362	11.9	82.6
2025-09-30T22:29	10	0	0.1	0	0	361	0.3	360	362	11.9	82.8
2025-09-30T22:30	10	0	0.1	0	0	361	0.2	360	361	11.9	82.2
2025-09-30T22:31	10	0	0.1	0	0	361	0.3	360	362	11.9	82.5
2025-09-30T22:32	10	0	0.1	0	0	360	0.3	360	361	11.8	82.7
2025-09-30T22:33	10	0	0.1	0	0	360	0.3	359	360	11.8	82.9
2025-09-30T22:34	10	0	0.1	0	0	359	0.2	359	360	11.8	83.1
2025-09-30T22:35	10	0	0.1	0	0	359	0.2	358	359	11.8	83.3
2025-09-30T22:36	10	0	0.1	0	0	359	0.2	358	359	11.7	84.1
2025-09-30T22:37	10	0	0.1	0	0	358	0.3	357	358	11.6	84.7
2025-09-30T22:38	10	0	0.1	0	0	357	0.2	357	358	11.5	85.3
2025-09-30T22:39	10	0	0.1	0	0	357	0.2	357	358	11.4	85.7
2025-09-30T22:40	10	0	0.1	0	0	357	0.3	356	358	11.4	86.0
2025-09-30T22:41	10	0	0.1	0	0	357	0.3	356	357	11.4	85.8
2025-09-30T22:42	10	0	0.1	0	0	356	0.2	356	357	11.4	85.8
2025-09-30T22:43	10	0	0.1	0	0	356	0.2	355	356	11.4	85.6
2025-09-30T22:44	10	0	0.1	0	0	355	0.2	355	356	11.4	85.6
2025-09-30T22:45	10	0	0.1	0	0	355	0.2	355	356	11.4	85.4
2025-09-30T22:46	10	0	0.1	0	0	355	0.2	354	355	11.4	85.4
2025-09-30T22:47	10	0	0.1	0	0	354	0.2	354	355	11.4	85.4
2025-09-30T22:48	10	0	0.1	-1	0	354	0.2	354	355	11.5	85.0
2025-09-30T22:49	10	0	0.1	0	0	354	0.2	353	354	11.5	84.9
2025-09-30T22:50	10	0	0.1	0	0	354	0.3	353	355	11.5	84.9
2025-09-30T22:51	10	0	0.1	0	0	353	0.3	353	354	11.4	85.3
2025-09-30T22:52	10	0	0.1	0	0	353	0.3	353	354	11.4	85.4
2025-09-30T22:53	10	0	0.1	0	0	352	0.3	351	353	11.4	85.5
2025-09-30T22:54	10	0	0.1	0	0	352	0.2	351	352	11.4	85.3
2025-09-30T22:55	10	0	0.1	0	0	351	0.3	350	352	11.4	85.3
2025-09-30T22:56	10	0	0.1	0	0	350	0.2	350	351	11.4	85.2
2025-09-30T22:57	10	0	0.1	0	0	350	0.2	349	350	11.4	85.2
2025-09-30T22:58	10	0	0.1	0	0	350	0.4	350	351	11.4	85.0
2025-09-30T22:59	10	0	0.1	0	0	351	0.3	350	351	11.4	84.9
2025-09-30T23:00	10	0	0.1	0	0	350	0.3	349	351	11.5	84.6
2025-09-30T23:01	10	0	0.1	0	0	350	0.3	349	350	11.4	84.8
2025-09-30T23:02	10	0	0.1	0	0	349	0.2	349	349	11.4	84.8
2025-09-30T23:03	10	0	0.1	0	0	349	0.2	349	350	11.4	85.0
2025-09-30T23:04	10	0	0.1	0	0	349	0.2	348	349	11.3	85.3
2025-09-30T23:05	10	0	0.1	0	0	349	0.2	348	349	11.3	85.4
2025-09-30T23:06	10	0	0.1	0	0	348	0.2	347	349	11.3	85.4
2025-09-30T23:07	10	0	0.1	0	0	348	0.2	347	349	11.3	85.6
2025-09-30T23:08	10	0	0.1	0	0	348	0.3	347	349	11.3	85.6
2025-09-30T23:09	10	0	0.1	-1	0	348	0.2	348	349	11.3	85.7
2025-09-30T23:10	10	0	0.1	-1	0	349	0.2	348	349	11.3	85.7
2025-09-30T23:11	10	0	0.1	-1	0	348	0.3	348	349	11.2	85.7
2025-09-30T23:12	10	0	0.1	0	0	348	0.2	347	348	11.2	85.9
2025-09-30T23:13	10	0	0.1	-1	0	348	0.2	347	348	11.2	86.0
2025-09-30T23:14	10	0	0.1	-1	0	348	0.2	347	348	11.2	86.1
2025-09-30T23:15	10	0	0.1	-1	0	347	0.2	347	348	11.1	86.2
2025-09-30T23:16	10	0	0.1	-1	0	348	0.2	347	348	11.1	86.0
2025-09-30T23:17	10	0	0.1	0	0	348	0.3	347	349	11.1	86.1
2025-09-30T23:18	10	0	0.1	-1	0	348	0.3	347	348	11.2	85.6
2025-09-30T23:19	10	0	0.1	-1	0	349	0.3	348	349	11.2	85.4
2025-09-30T23:20	10	0	0.1	0	0	348	0.3	347	349	11.1	85.8
2025-09-30T23:21	10	0	0.2	0	0	348	0.3	347	349	11.1	85.9
2025-09-30T23:22	10	0	0.1	-1	0	347	0.2	347	348	11.1	85.8
2025-09-30T23:23	10	0	0.1	0	0	347	0.3	347	348	11.1	85.8
2025-09-30T23:24	10	0	0.2	-1	0	348	0.3	347	348	11.1	85.4
2025-09-30T23:25	10	0	0.2	-1	0	348	0.2	347	348	11.1	85.5
2025-09-30T23:26	10	0	0.2	-1	0	347	0.2	347	348	11.1	85.7
2025-09-30T23:27	10	0	0.1	-1	0	348	0.4	347	349	11.1	85.9
2025-09-30T23:28	10	0	0.1	-1	0	348	0.2	348	349	11.1	85.9
2025-09-30T23:29	10	0	0.1	-1	0	348	0.3	347	349	11.1	85.6
2025-09-30T23:30	10	0	0.1	-1	0	347	0.2	347	348	11.1	85.6
2025-09-30T23:31	10	0	0.1	-1	0	347	0.3	346	347	11.0	85.6
2025-09-30T23:32	10	0	0.2	-1	0	347	0.3	346	347	11.0	85.6
2025-09-30T23:33	10	0	0.2	-1	0	346	0.3	345	347	11.0	85.9
2025-09-30T23:34	10	0	0.1	-1	0	346	0.2	345	346	10.9	86.0
2025-09-30T23:35	10	0	0.1	-1	0	346	0.3	345	346	10.9	86.3
2025-09-30T23:36	10	0	0.1	-1	0	346	0.3	345	347	10.9	86.5
2025-09-30T23:37	10	0	0.1	0	0	345	0.2	345	346	10.9	86.2
2025-09-30T23:38	10	0	0.2	-1	0	346	0.2	345	346	10.8	86.5
2025-09-30T23:39	10	0	0.1	-1	0	345	0.2	345	346	10.8	87.0
2025-09-30T23:40	10	0	0.1	-1	0	345	0.2	345	345	10.7	87.3
2025-09-30T23:41	10	0	0.1	-1	0	345	0.3	344	346	10.7	87.3
2025-09-30T23:42	10	0	0.1	-1	0	345	0.3	344	345	10.7	87.1
2025-09-30T23:43	10	0	0.1	-1	0	345	0.2	344	345	10.6	87.3
2025-09-30T23:44	10	0	0.1	-1	0	345	0.2	344	345	10.6	87.3
2025-09-30T23:45	10	0	0.1	-1	0	345	0.2	344	345	10.6	87.4
2025-09-30T23:46	10	0	0.1	-1	0	345	0.4	344	346	10.6	87.0
2025-09-30T23:47	10	0	0.1	-1	0	346	0.3	345	346	10.7	86.7
2025-09-30T23:48	10	0	0.0	0	0	347	0.7	346	348	10.6	86.7
2025-09-30T23:49	10	0	0.1	-1	0	349	0.8	347	350	10.8	85.7
2025-09-30T23:50	10	0	0.4	-1	2	350	0.2	349	350	10.8	85.7
2025-09-30T23:51	10	0	0.1	-1	0	350	0.2	349	350	10.8	85.7
2025-09-30T23:52	10	0	0.1	0	0	350	0.3	350	351	10.8	85.4
2025-09-30T23:53	10	0	0.1	-1	0	350	0.2	350	351	10.8	85.3
2025-09-30T23:54	10	0	0.1	0	0	350	0.3	349	351	10.8	85.2
2025-09-30T23:55	10	0	0.1	0	0	351	0.4	350	352	10.9	84.9
2025-09-30T23:56	10	0	0.1	-1	0	352	0.2	351	352	10.9	85.0
2025-09-30T23:57	10	0	0.1	0	0	352	0.2	351	352	10.9	85.0
2025-09-30T23:58	10	0	0.1	-1	0	351	0.2	351	352	10.9	85.2
2025-09-30T23:59	10	0	0.1	0	0					10.9	85.1
